<?xml version="1.0" encoding="utf-8"?>
<gpx xmlns:xsi="http://www.w3.org/2001/XMLSchema-instance" xmlns:xsd="http://www.w3.org/2001/XMLSchema" version="1.1" creator="Shapelink.com" xmlns="http://www.topografix.com/GPX/1/1" xmlns:gpxtpx="http://www.garmin.com/xmlschemas/TrackPointExtension/v1">
  <metadata>
    <name>Sykling 46.00 km, 2013-05-24</name>
    <desc></desc>
    <author><name>Mikael Blom</name></author> 
    <time>2013-05-24T18:05:21Z</time>
  </metadata>
  <trk>
    <name>Sykling 46.00 km, 2013-05-24</name>
    <trkseg>
      <trkpt lat="59.9744432" lon="17.735498">
        <ele>35.7061</ele>
        <time>2013-05-24T18:05:21Z</time>
      </trkpt>
      <trkpt lat="59.9744221" lon="17.7353417">
        <ele>35.7061</ele>
        <time>2013-05-24T18:05:22Z</time>
      </trkpt>
      <trkpt lat="59.9744023" lon="17.7351784">
        <ele>37.1481</ele>
        <time>2013-05-24T18:05:23Z</time>
      </trkpt>
      <trkpt lat="59.9743844" lon="17.7349921">
        <ele>38.5901</ele>
        <time>2013-05-24T18:05:24Z</time>
      </trkpt>
      <trkpt lat="59.9743717" lon="17.7348025">
        <ele>43.8773</ele>
        <time>2013-05-24T18:05:25Z</time>
      </trkpt>
      <trkpt lat="59.9743615" lon="17.7346397">
        <ele>44.358</ele>
        <time>2013-05-24T18:05:26Z</time>
      </trkpt>
      <trkpt lat="59.9743536" lon="17.7344845">
        <ele>44.358</ele>
        <time>2013-05-24T18:05:27Z</time>
      </trkpt>
      <trkpt lat="59.9743468" lon="17.7343426">
        <ele>41.9547</ele>
        <time>2013-05-24T18:05:28Z</time>
      </trkpt>
      <trkpt lat="59.9743461" lon="17.7342042">
        <ele>39.5513</ele>
        <time>2013-05-24T18:05:29Z</time>
      </trkpt>
      <trkpt lat="59.9743391" lon="17.7340493">
        <ele>40.9934</ele>
        <time>2013-05-24T18:05:30Z</time>
      </trkpt>
      <trkpt lat="59.9743476" lon="17.733902">
        <ele>40.5128</ele>
        <time>2013-05-24T18:05:31Z</time>
      </trkpt>
      <trkpt lat="59.9743539" lon="17.733748">
        <ele>41.9547</ele>
        <time>2013-05-24T18:05:32Z</time>
      </trkpt>
      <trkpt lat="59.9743673" lon="17.7336241">
        <ele>39.0707</ele>
        <time>2013-05-24T18:05:33Z</time>
      </trkpt>
      <trkpt lat="59.9743704" lon="17.7334971">
        <ele>36.6675</ele>
        <time>2013-05-24T18:05:34Z</time>
      </trkpt>
      <trkpt lat="59.9743805" lon="17.7333661">
        <ele>35.2255</ele>
        <time>2013-05-24T18:05:35Z</time>
      </trkpt>
      <trkpt lat="59.9743909" lon="17.7332345">
        <ele>34.2642</ele>
        <time>2013-05-24T18:05:36Z</time>
      </trkpt>
      <trkpt lat="59.9744009" lon="17.733101">
        <ele>33.7834</ele>
        <time>2013-05-24T18:05:37Z</time>
      </trkpt>
      <trkpt lat="59.9744023" lon="17.7329668">
        <ele>33.7834</ele>
        <time>2013-05-24T18:05:38Z</time>
      </trkpt>
      <trkpt lat="59.9744107" lon="17.7328322">
        <ele>32.8223</ele>
        <time>2013-05-24T18:05:39Z</time>
      </trkpt>
      <trkpt lat="59.974416" lon="17.7326972">
        <ele>32.8223</ele>
        <time>2013-05-24T18:05:40Z</time>
      </trkpt>
      <trkpt lat="59.9744245" lon="17.7325618">
        <ele>32.3416</ele>
        <time>2013-05-24T18:05:41Z</time>
      </trkpt>
      <trkpt lat="59.9744304" lon="17.7324273">
        <ele>31.8607</ele>
        <time>2013-05-24T18:05:42Z</time>
      </trkpt>
      <trkpt lat="59.9744325" lon="17.7322938">
        <ele>31.3801</ele>
        <time>2013-05-24T18:05:43Z</time>
      </trkpt>
      <trkpt lat="59.9744376" lon="17.7321602">
        <ele>31.3801</ele>
        <time>2013-05-24T18:05:44Z</time>
      </trkpt>
      <trkpt lat="59.9744294" lon="17.7320277">
        <ele>31.3801</ele>
        <time>2013-05-24T18:05:45Z</time>
      </trkpt>
      <trkpt lat="59.9744195" lon="17.7318798">
        <ele>33.7834</ele>
        <time>2013-05-24T18:05:46Z</time>
      </trkpt>
      <trkpt lat="59.9744155" lon="17.7317304">
        <ele>36.6675</ele>
        <time>2013-05-24T18:05:47Z</time>
      </trkpt>
      <trkpt lat="59.9744122" lon="17.7315925">
        <ele>37.6287</ele>
        <time>2013-05-24T18:05:48Z</time>
      </trkpt>
      <trkpt lat="59.9744005" lon="17.7314532">
        <ele>38.5901</ele>
        <time>2013-05-24T18:05:49Z</time>
      </trkpt>
      <trkpt lat="59.974388" lon="17.7313328">
        <ele>37.1481</ele>
        <time>2013-05-24T18:05:50Z</time>
      </trkpt>
      <trkpt lat="59.9743916" lon="17.7312033">
        <ele>36.6675</ele>
        <time>2013-05-24T18:05:51Z</time>
      </trkpt>
      <trkpt lat="59.9743922" lon="17.7310755">
        <ele>36.1868</ele>
        <time>2013-05-24T18:05:52Z</time>
      </trkpt>
      <trkpt lat="59.9744019" lon="17.7309495">
        <ele>35.2255</ele>
        <time>2013-05-24T18:05:53Z</time>
      </trkpt>
      <trkpt lat="59.974405" lon="17.7308258">
        <ele>34.2642</ele>
        <time>2013-05-24T18:05:54Z</time>
      </trkpt>
      <trkpt lat="59.9744061" lon="17.7307029">
        <ele>33.3029</ele>
        <time>2013-05-24T18:05:55Z</time>
      </trkpt>
      <trkpt lat="59.9744227" lon="17.7305829">
        <ele>32.3416</ele>
        <time>2013-05-24T18:05:56Z</time>
      </trkpt>
      <trkpt lat="59.9744339" lon="17.7304627">
        <ele>31.8607</ele>
        <time>2013-05-24T18:05:57Z</time>
      </trkpt>
      <trkpt lat="59.9744439" lon="17.7303445">
        <ele>31.3801</ele>
        <time>2013-05-24T18:05:58Z</time>
      </trkpt>
      <trkpt lat="59.9744588" lon="17.7302289">
        <ele>31.3801</ele>
        <time>2013-05-24T18:05:59Z</time>
      </trkpt>
      <trkpt lat="59.9744718" lon="17.7301139">
        <ele>31.3801</ele>
        <time>2013-05-24T18:06:00Z</time>
      </trkpt>
      <trkpt lat="59.9744834" lon="17.7299999">
        <ele>30.8995</ele>
        <time>2013-05-24T18:06:01Z</time>
      </trkpt>
      <trkpt lat="59.9744952" lon="17.7298799">
        <ele>30.4188</ele>
        <time>2013-05-24T18:06:02Z</time>
      </trkpt>
      <trkpt lat="59.974508" lon="17.7297603">
        <ele>30.4188</ele>
        <time>2013-05-24T18:06:03Z</time>
      </trkpt>
      <trkpt lat="59.9745143" lon="17.7296371">
        <ele>30.4188</ele>
        <time>2013-05-24T18:06:04Z</time>
      </trkpt>
      <trkpt lat="59.9745196" lon="17.7295096">
        <ele>30.4188</ele>
        <time>2013-05-24T18:06:05Z</time>
      </trkpt>
      <trkpt lat="59.9745252" lon="17.729375">
        <ele>30.8995</ele>
        <time>2013-05-24T18:06:06Z</time>
      </trkpt>
      <trkpt lat="59.9745247" lon="17.7292416">
        <ele>30.8995</ele>
        <time>2013-05-24T18:06:07Z</time>
      </trkpt>
      <trkpt lat="59.9745263" lon="17.7291065">
        <ele>30.8995</ele>
        <time>2013-05-24T18:06:08Z</time>
      </trkpt>
      <trkpt lat="59.9745227" lon="17.7289743">
        <ele>30.8995</ele>
        <time>2013-05-24T18:06:09Z</time>
      </trkpt>
      <trkpt lat="59.9745185" lon="17.7288403">
        <ele>30.8995</ele>
        <time>2013-05-24T18:06:10Z</time>
      </trkpt>
      <trkpt lat="59.9745091" lon="17.7287064">
        <ele>30.4188</ele>
        <time>2013-05-24T18:06:11Z</time>
      </trkpt>
      <trkpt lat="59.974502" lon="17.7285693">
        <ele>29.9381</ele>
        <time>2013-05-24T18:06:12Z</time>
      </trkpt>
      <trkpt lat="59.974495" lon="17.7284337">
        <ele>29.4575</ele>
        <time>2013-05-24T18:06:13Z</time>
      </trkpt>
      <trkpt lat="59.9744906" lon="17.728297">
        <ele>28.9769</ele>
        <time>2013-05-24T18:06:14Z</time>
      </trkpt>
      <trkpt lat="59.974488" lon="17.7281601">
        <ele>28.4962</ele>
        <time>2013-05-24T18:06:15Z</time>
      </trkpt>
      <trkpt lat="59.9744827" lon="17.7280228">
        <ele>28.0155</ele>
        <time>2013-05-24T18:06:16Z</time>
      </trkpt>
      <trkpt lat="59.9744802" lon="17.7278835">
        <ele>28.0155</ele>
        <time>2013-05-24T18:06:17Z</time>
      </trkpt>
      <trkpt lat="59.9744786" lon="17.7277466">
        <ele>28.0155</ele>
        <time>2013-05-24T18:06:18Z</time>
      </trkpt>
      <trkpt lat="59.9744699" lon="17.7276151">
        <ele>27.5349</ele>
        <time>2013-05-24T18:06:19Z</time>
      </trkpt>
      <trkpt lat="59.9744588" lon="17.7274882">
        <ele>27.0543</ele>
        <time>2013-05-24T18:06:20Z</time>
      </trkpt>
      <trkpt lat="59.9744523" lon="17.7273632">
        <ele>26.0929</ele>
        <time>2013-05-24T18:06:21Z</time>
      </trkpt>
      <trkpt lat="59.9744465" lon="17.7272397">
        <ele>25.1317</ele>
        <time>2013-05-24T18:06:22Z</time>
      </trkpt>
      <trkpt lat="59.9744352" lon="17.7271197">
        <ele>24.651</ele>
        <time>2013-05-24T18:06:23Z</time>
      </trkpt>
      <trkpt lat="59.9744298" lon="17.7269987">
        <ele>24.651</ele>
        <time>2013-05-24T18:06:24Z</time>
      </trkpt>
      <trkpt lat="59.9744308" lon="17.726876">
        <ele>24.651</ele>
        <time>2013-05-24T18:06:25Z</time>
      </trkpt>
      <trkpt lat="59.9744226" lon="17.7267571">
        <ele>23.6896</ele>
        <time>2013-05-24T18:06:26Z</time>
      </trkpt>
      <trkpt lat="59.9744175" lon="17.7266372">
        <ele>23.209</ele>
        <time>2013-05-24T18:06:27Z</time>
      </trkpt>
      <trkpt lat="59.9744148" lon="17.7265174">
        <ele>22.2476</ele>
        <time>2013-05-24T18:06:28Z</time>
      </trkpt>
      <trkpt lat="59.9744154" lon="17.7263927">
        <ele>22.7283</ele>
        <time>2013-05-24T18:06:29Z</time>
      </trkpt>
      <trkpt lat="59.9744107" lon="17.7262723">
        <ele>22.2476</ele>
        <time>2013-05-24T18:06:30Z</time>
      </trkpt>
      <trkpt lat="59.9744061" lon="17.7261523">
        <ele>22.2476</ele>
        <time>2013-05-24T18:06:31Z</time>
      </trkpt>
      <trkpt lat="59.9744025" lon="17.7260309">
        <ele>21.767</ele>
        <time>2013-05-24T18:06:32Z</time>
      </trkpt>
      <trkpt lat="59.9743952" lon="17.7259077">
        <ele>21.2864</ele>
        <time>2013-05-24T18:06:33Z</time>
      </trkpt>
      <trkpt lat="59.9743878" lon="17.7257835">
        <ele>21.2864</ele>
        <time>2013-05-24T18:06:34Z</time>
      </trkpt>
      <trkpt lat="59.9743748" lon="17.725661">
        <ele>21.2864</ele>
        <time>2013-05-24T18:06:35Z</time>
      </trkpt>
      <trkpt lat="59.9743611" lon="17.7255365">
        <ele>21.2864</ele>
        <time>2013-05-24T18:06:36Z</time>
      </trkpt>
      <trkpt lat="59.974349" lon="17.7254094">
        <ele>21.767</ele>
        <time>2013-05-24T18:06:37Z</time>
      </trkpt>
      <trkpt lat="59.9743378" lon="17.7252803">
        <ele>21.767</ele>
        <time>2013-05-24T18:06:38Z</time>
      </trkpt>
      <trkpt lat="59.9743266" lon="17.7251537">
        <ele>21.2864</ele>
        <time>2013-05-24T18:06:39Z</time>
      </trkpt>
      <trkpt lat="59.9743109" lon="17.7250268">
        <ele>21.2864</ele>
        <time>2013-05-24T18:06:40Z</time>
      </trkpt>
      <trkpt lat="59.9742945" lon="17.7248996">
        <ele>21.2864</ele>
        <time>2013-05-24T18:06:41Z</time>
      </trkpt>
      <trkpt lat="59.9742771" lon="17.7247707">
        <ele>21.2864</ele>
        <time>2013-05-24T18:06:42Z</time>
      </trkpt>
      <trkpt lat="59.9742585" lon="17.7246406">
        <ele>20.8057</ele>
        <time>2013-05-24T18:06:43Z</time>
      </trkpt>
      <trkpt lat="59.9742377" lon="17.7245097">
        <ele>21.2864</ele>
        <time>2013-05-24T18:06:44Z</time>
      </trkpt>
      <trkpt lat="59.974217" lon="17.7243786">
        <ele>21.2864</ele>
        <time>2013-05-24T18:06:45Z</time>
      </trkpt>
      <trkpt lat="59.9741967" lon="17.7242471">
        <ele>21.2864</ele>
        <time>2013-05-24T18:06:46Z</time>
      </trkpt>
      <trkpt lat="59.9741776" lon="17.7241153">
        <ele>21.2864</ele>
        <time>2013-05-24T18:06:47Z</time>
      </trkpt>
      <trkpt lat="59.9741589" lon="17.7239827">
        <ele>21.2864</ele>
        <time>2013-05-24T18:06:48Z</time>
      </trkpt>
      <trkpt lat="59.9741392" lon="17.7238507">
        <ele>21.2864</ele>
        <time>2013-05-24T18:06:49Z</time>
      </trkpt>
      <trkpt lat="59.9741194" lon="17.7237192">
        <ele>21.2864</ele>
        <time>2013-05-24T18:06:50Z</time>
      </trkpt>
      <trkpt lat="59.9741002" lon="17.723588">
        <ele>21.2864</ele>
        <time>2013-05-24T18:06:51Z</time>
      </trkpt>
      <trkpt lat="59.9740802" lon="17.7234566">
        <ele>21.2864</ele>
        <time>2013-05-24T18:06:52Z</time>
      </trkpt>
      <trkpt lat="59.974058" lon="17.723326">
        <ele>21.2864</ele>
        <time>2013-05-24T18:06:53Z</time>
      </trkpt>
      <trkpt lat="59.9740329" lon="17.7231971">
        <ele>21.2864</ele>
        <time>2013-05-24T18:06:54Z</time>
      </trkpt>
      <trkpt lat="59.9740055" lon="17.72307">
        <ele>21.2864</ele>
        <time>2013-05-24T18:06:55Z</time>
      </trkpt>
      <trkpt lat="59.9739767" lon="17.7229438">
        <ele>21.2864</ele>
        <time>2013-05-24T18:06:56Z</time>
      </trkpt>
      <trkpt lat="59.9739497" lon="17.7228179">
        <ele>21.2864</ele>
        <time>2013-05-24T18:06:57Z</time>
      </trkpt>
      <trkpt lat="59.9739222" lon="17.7226921">
        <ele>21.2864</ele>
        <time>2013-05-24T18:06:58Z</time>
      </trkpt>
      <trkpt lat="59.9738907" lon="17.7225683">
        <ele>21.2864</ele>
        <time>2013-05-24T18:06:59Z</time>
      </trkpt>
      <trkpt lat="59.9738565" lon="17.722447">
        <ele>21.2864</ele>
        <time>2013-05-24T18:07:00Z</time>
      </trkpt>
      <trkpt lat="59.9738197" lon="17.7223282">
        <ele>21.2864</ele>
        <time>2013-05-24T18:07:01Z</time>
      </trkpt>
      <trkpt lat="59.9737813" lon="17.7222103">
        <ele>21.2864</ele>
        <time>2013-05-24T18:07:02Z</time>
      </trkpt>
      <trkpt lat="59.9737419" lon="17.7220927">
        <ele>21.2864</ele>
        <time>2013-05-24T18:07:03Z</time>
      </trkpt>
      <trkpt lat="59.9737016" lon="17.7219761">
        <ele>21.2864</ele>
        <time>2013-05-24T18:07:04Z</time>
      </trkpt>
      <trkpt lat="59.9736597" lon="17.721863">
        <ele>21.2864</ele>
        <time>2013-05-24T18:07:05Z</time>
      </trkpt>
      <trkpt lat="59.9736207" lon="17.7217512">
        <ele>20.8057</ele>
        <time>2013-05-24T18:07:06Z</time>
      </trkpt>
      <trkpt lat="59.97358" lon="17.7216419">
        <ele>19.8444</ele>
        <time>2013-05-24T18:07:07Z</time>
      </trkpt>
      <trkpt lat="59.9735356" lon="17.7215363">
        <ele>19.3638</ele>
        <time>2013-05-24T18:07:08Z</time>
      </trkpt>
      <trkpt lat="59.9734887" lon="17.7214353">
        <ele>18.8831</ele>
        <time>2013-05-24T18:07:09Z</time>
      </trkpt>
      <trkpt lat="59.973441" lon="17.7213336">
        <ele>18.4023</ele>
        <time>2013-05-24T18:07:10Z</time>
      </trkpt>
      <trkpt lat="59.9733923" lon="17.7212338">
        <ele>17.9218</ele>
        <time>2013-05-24T18:07:11Z</time>
      </trkpt>
      <trkpt lat="59.9733405" lon="17.721136">
        <ele>17.4412</ele>
        <time>2013-05-24T18:07:12Z</time>
      </trkpt>
      <trkpt lat="59.9732873" lon="17.721038">
        <ele>17.4412</ele>
        <time>2013-05-24T18:07:13Z</time>
      </trkpt>
      <trkpt lat="59.9732341" lon="17.7209406">
        <ele>16.4797</ele>
        <time>2013-05-24T18:07:14Z</time>
      </trkpt>
      <trkpt lat="59.9731785" lon="17.7208493">
        <ele>16.4797</ele>
        <time>2013-05-24T18:07:15Z</time>
      </trkpt>
      <trkpt lat="59.9731199" lon="17.7207629">
        <ele>16.4797</ele>
        <time>2013-05-24T18:07:16Z</time>
      </trkpt>
      <trkpt lat="59.9730604" lon="17.7206796">
        <ele>15.999</ele>
        <time>2013-05-24T18:07:17Z</time>
      </trkpt>
      <trkpt lat="59.973" lon="17.7205998">
        <ele>15.999</ele>
        <time>2013-05-24T18:07:18Z</time>
      </trkpt>
      <trkpt lat="59.972938" lon="17.7205237">
        <ele>15.5184</ele>
        <time>2013-05-24T18:07:19Z</time>
      </trkpt>
      <trkpt lat="59.9728752" lon="17.7204511">
        <ele>15.5184</ele>
        <time>2013-05-24T18:07:20Z</time>
      </trkpt>
      <trkpt lat="59.9728122" lon="17.7203794">
        <ele>15.5184</ele>
        <time>2013-05-24T18:07:21Z</time>
      </trkpt>
      <trkpt lat="59.9727483" lon="17.7203117">
        <ele>15.5184</ele>
        <time>2013-05-24T18:07:22Z</time>
      </trkpt>
      <trkpt lat="59.9726822" lon="17.7202496">
        <ele>15.5184</ele>
        <time>2013-05-24T18:07:23Z</time>
      </trkpt>
      <trkpt lat="59.9726153" lon="17.7201894">
        <ele>15.5184</ele>
        <time>2013-05-24T18:07:24Z</time>
      </trkpt>
      <trkpt lat="59.9725485" lon="17.7201305">
        <ele>15.5184</ele>
        <time>2013-05-24T18:07:25Z</time>
      </trkpt>
      <trkpt lat="59.9724792" lon="17.7200704">
        <ele>15.5184</ele>
        <time>2013-05-24T18:07:26Z</time>
      </trkpt>
      <trkpt lat="59.9724112" lon="17.7200116">
        <ele>15.999</ele>
        <time>2013-05-24T18:07:27Z</time>
      </trkpt>
      <trkpt lat="59.9723439" lon="17.7199515">
        <ele>16.4797</ele>
        <time>2013-05-24T18:07:28Z</time>
      </trkpt>
      <trkpt lat="59.9722774" lon="17.7198905">
        <ele>16.4797</ele>
        <time>2013-05-24T18:07:29Z</time>
      </trkpt>
      <trkpt lat="59.9722108" lon="17.71983">
        <ele>16.9604</ele>
        <time>2013-05-24T18:07:30Z</time>
      </trkpt>
      <trkpt lat="59.9721448" lon="17.7197704">
        <ele>16.9604</ele>
        <time>2013-05-24T18:07:31Z</time>
      </trkpt>
      <trkpt lat="59.9720811" lon="17.7197037">
        <ele>17.4412</ele>
        <time>2013-05-24T18:07:32Z</time>
      </trkpt>
      <trkpt lat="59.9720168" lon="17.7196386">
        <ele>17.9218</ele>
        <time>2013-05-24T18:07:33Z</time>
      </trkpt>
      <trkpt lat="59.9719526" lon="17.7195745">
        <ele>18.4023</ele>
        <time>2013-05-24T18:07:34Z</time>
      </trkpt>
      <trkpt lat="59.9718885" lon="17.7195126">
        <ele>18.8831</ele>
        <time>2013-05-24T18:07:35Z</time>
      </trkpt>
      <trkpt lat="59.9718232" lon="17.7194537">
        <ele>19.3638</ele>
        <time>2013-05-24T18:07:36Z</time>
      </trkpt>
      <trkpt lat="59.9717576" lon="17.7193928">
        <ele>19.8444</ele>
        <time>2013-05-24T18:07:37Z</time>
      </trkpt>
      <trkpt lat="59.9716938" lon="17.7193282">
        <ele>20.325</ele>
        <time>2013-05-24T18:07:38Z</time>
      </trkpt>
      <trkpt lat="59.9716312" lon="17.7192633">
        <ele>20.8057</ele>
        <time>2013-05-24T18:07:39Z</time>
      </trkpt>
      <trkpt lat="59.9715675" lon="17.7192011">
        <ele>21.2864</ele>
        <time>2013-05-24T18:07:40Z</time>
      </trkpt>
      <trkpt lat="59.9715033" lon="17.7191416">
        <ele>21.2864</ele>
        <time>2013-05-24T18:07:41Z</time>
      </trkpt>
      <trkpt lat="59.9714397" lon="17.7190826">
        <ele>21.767</ele>
        <time>2013-05-24T18:07:42Z</time>
      </trkpt>
      <trkpt lat="59.9713742" lon="17.7190241">
        <ele>21.767</ele>
        <time>2013-05-24T18:07:43Z</time>
      </trkpt>
      <trkpt lat="59.9713066" lon="17.7189663">
        <ele>21.767</ele>
        <time>2013-05-24T18:07:44Z</time>
      </trkpt>
      <trkpt lat="59.971239" lon="17.7189057">
        <ele>22.2476</ele>
        <time>2013-05-24T18:07:45Z</time>
      </trkpt>
      <trkpt lat="59.97117" lon="17.7188431">
        <ele>22.2476</ele>
        <time>2013-05-24T18:07:46Z</time>
      </trkpt>
      <trkpt lat="59.9710989" lon="17.71878">
        <ele>22.2476</ele>
        <time>2013-05-24T18:07:47Z</time>
      </trkpt>
      <trkpt lat="59.9710277" lon="17.7187152">
        <ele>22.2476</ele>
        <time>2013-05-24T18:07:48Z</time>
      </trkpt>
      <trkpt lat="59.9709556" lon="17.7186513">
        <ele>22.2476</ele>
        <time>2013-05-24T18:07:49Z</time>
      </trkpt>
      <trkpt lat="59.9708847" lon="17.7185873">
        <ele>22.2476</ele>
        <time>2013-05-24T18:07:50Z</time>
      </trkpt>
      <trkpt lat="59.9708141" lon="17.7185252">
        <ele>22.2476</ele>
        <time>2013-05-24T18:07:51Z</time>
      </trkpt>
      <trkpt lat="59.9707446" lon="17.7184626">
        <ele>22.7283</ele>
        <time>2013-05-24T18:07:52Z</time>
      </trkpt>
      <trkpt lat="59.9706744" lon="17.7183991">
        <ele>22.2476</ele>
        <time>2013-05-24T18:07:53Z</time>
      </trkpt>
      <trkpt lat="59.9706038" lon="17.7183355">
        <ele>22.2476</ele>
        <time>2013-05-24T18:07:54Z</time>
      </trkpt>
      <trkpt lat="59.970534" lon="17.7182724">
        <ele>22.7283</ele>
        <time>2013-05-24T18:07:55Z</time>
      </trkpt>
      <trkpt lat="59.9704638" lon="17.7182102">
        <ele>22.7283</ele>
        <time>2013-05-24T18:07:56Z</time>
      </trkpt>
      <trkpt lat="59.9703942" lon="17.7181471">
        <ele>22.7283</ele>
        <time>2013-05-24T18:07:57Z</time>
      </trkpt>
      <trkpt lat="59.9703251" lon="17.7180838">
        <ele>23.209</ele>
        <time>2013-05-24T18:07:58Z</time>
      </trkpt>
      <trkpt lat="59.9702546" lon="17.7180214">
        <ele>23.209</ele>
        <time>2013-05-24T18:07:59Z</time>
      </trkpt>
      <trkpt lat="59.9701841" lon="17.7179579">
        <ele>23.209</ele>
        <time>2013-05-24T18:08:00Z</time>
      </trkpt>
      <trkpt lat="59.9701138" lon="17.7178926">
        <ele>23.209</ele>
        <time>2013-05-24T18:08:01Z</time>
      </trkpt>
      <trkpt lat="59.970044" lon="17.7178274">
        <ele>23.6896</ele>
        <time>2013-05-24T18:08:02Z</time>
      </trkpt>
      <trkpt lat="59.9699738" lon="17.7177643">
        <ele>24.1703</ele>
        <time>2013-05-24T18:08:03Z</time>
      </trkpt>
      <trkpt lat="59.9699025" lon="17.7177015">
        <ele>24.1703</ele>
        <time>2013-05-24T18:08:04Z</time>
      </trkpt>
      <trkpt lat="59.9698326" lon="17.7176373">
        <ele>24.1703</ele>
        <time>2013-05-24T18:08:05Z</time>
      </trkpt>
      <trkpt lat="59.9697619" lon="17.7175787">
        <ele>24.651</ele>
        <time>2013-05-24T18:08:06Z</time>
      </trkpt>
      <trkpt lat="59.9696897" lon="17.7175289">
        <ele>24.651</ele>
        <time>2013-05-24T18:08:07Z</time>
      </trkpt>
      <trkpt lat="59.9696174" lon="17.7174839">
        <ele>24.651</ele>
        <time>2013-05-24T18:08:08Z</time>
      </trkpt>
      <trkpt lat="59.9695465" lon="17.7174415">
        <ele>24.651</ele>
        <time>2013-05-24T18:08:09Z</time>
      </trkpt>
      <trkpt lat="59.9694784" lon="17.7174042">
        <ele>25.1317</ele>
        <time>2013-05-24T18:08:10Z</time>
      </trkpt>
      <trkpt lat="59.96941" lon="17.717371">
        <ele>25.6123</ele>
        <time>2013-05-24T18:08:11Z</time>
      </trkpt>
      <trkpt lat="59.9693411" lon="17.7173406">
        <ele>25.6123</ele>
        <time>2013-05-24T18:08:12Z</time>
      </trkpt>
      <trkpt lat="59.9692753" lon="17.7173155">
        <ele>26.0929</ele>
        <time>2013-05-24T18:08:13Z</time>
      </trkpt>
      <trkpt lat="59.9692099" lon="17.7172924">
        <ele>26.5736</ele>
        <time>2013-05-24T18:08:14Z</time>
      </trkpt>
      <trkpt lat="59.9691457" lon="17.7172709">
        <ele>27.0543</ele>
        <time>2013-05-24T18:08:15Z</time>
      </trkpt>
      <trkpt lat="59.9690788" lon="17.7172502">
        <ele>27.0543</ele>
        <time>2013-05-24T18:08:16Z</time>
      </trkpt>
      <trkpt lat="59.9690073" lon="17.717227">
        <ele>26.5736</ele>
        <time>2013-05-24T18:08:17Z</time>
      </trkpt>
      <trkpt lat="59.968942" lon="17.7172011">
        <ele>27.0543</ele>
        <time>2013-05-24T18:08:18Z</time>
      </trkpt>
      <trkpt lat="59.9688746" lon="17.7171716">
        <ele>27.5349</ele>
        <time>2013-05-24T18:08:19Z</time>
      </trkpt>
      <trkpt lat="59.9687692" lon="17.7171083">
        <ele>27.0543</ele>
        <time>2013-05-24T18:08:20Z</time>
      </trkpt>
      <trkpt lat="59.9687003" lon="17.7170877">
        <ele>27.5349</ele>
        <time>2013-05-24T18:08:21Z</time>
      </trkpt>
      <trkpt lat="59.968649" lon="17.7170607">
        <ele>28.4962</ele>
        <time>2013-05-24T18:08:22Z</time>
      </trkpt>
      <trkpt lat="59.9685873" lon="17.7170338">
        <ele>28.9769</ele>
        <time>2013-05-24T18:08:23Z</time>
      </trkpt>
      <trkpt lat="59.9685221" lon="17.7169991">
        <ele>29.4575</ele>
        <time>2013-05-24T18:08:24Z</time>
      </trkpt>
      <trkpt lat="59.9684508" lon="17.716955">
        <ele>29.4575</ele>
        <time>2013-05-24T18:08:25Z</time>
      </trkpt>
      <trkpt lat="59.9683764" lon="17.716902">
        <ele>28.9769</ele>
        <time>2013-05-24T18:08:26Z</time>
      </trkpt>
      <trkpt lat="59.9683019" lon="17.7168033">
        <ele>28.9769</ele>
        <time>2013-05-24T18:08:27Z</time>
      </trkpt>
      <trkpt lat="59.9682277" lon="17.7167152">
        <ele>28.4962</ele>
        <time>2013-05-24T18:08:28Z</time>
      </trkpt>
      <trkpt lat="59.968152" lon="17.7166207">
        <ele>28.4962</ele>
        <time>2013-05-24T18:08:29Z</time>
      </trkpt>
      <trkpt lat="59.9680775" lon="17.7165135">
        <ele>28.4962</ele>
        <time>2013-05-24T18:08:30Z</time>
      </trkpt>
      <trkpt lat="59.9679996" lon="17.7163962">
        <ele>28.0155</ele>
        <time>2013-05-24T18:08:31Z</time>
      </trkpt>
      <trkpt lat="59.9679227" lon="17.7162682">
        <ele>27.0543</ele>
        <time>2013-05-24T18:08:32Z</time>
      </trkpt>
      <trkpt lat="59.9678532" lon="17.7161216">
        <ele>27.0543</ele>
        <time>2013-05-24T18:08:33Z</time>
      </trkpt>
      <trkpt lat="59.9677891" lon="17.7159568">
        <ele>26.5736</ele>
        <time>2013-05-24T18:08:34Z</time>
      </trkpt>
      <trkpt lat="59.9677238" lon="17.7157864">
        <ele>26.0929</ele>
        <time>2013-05-24T18:08:35Z</time>
      </trkpt>
      <trkpt lat="59.9676641" lon="17.7155932">
        <ele>26.0929</ele>
        <time>2013-05-24T18:08:36Z</time>
      </trkpt>
      <trkpt lat="59.9676169" lon="17.7154414">
        <ele>26.5736</ele>
        <time>2013-05-24T18:08:37Z</time>
      </trkpt>
      <trkpt lat="59.9675031" lon="17.7152855">
        <ele>26.0929</ele>
        <time>2013-05-24T18:08:38Z</time>
      </trkpt>
      <trkpt lat="59.9675151" lon="17.7149783">
        <ele>26.0929</ele>
        <time>2013-05-24T18:08:39Z</time>
      </trkpt>
      <trkpt lat="59.967499" lon="17.7147588">
        <ele>26.0929</ele>
        <time>2013-05-24T18:08:40Z</time>
      </trkpt>
      <trkpt lat="59.9674894" lon="17.7145628">
        <ele>25.6123</ele>
        <time>2013-05-24T18:08:41Z</time>
      </trkpt>
      <trkpt lat="59.967472" lon="17.7143726">
        <ele>25.6123</ele>
        <time>2013-05-24T18:08:42Z</time>
      </trkpt>
      <trkpt lat="59.9674526" lon="17.7141907">
        <ele>25.6123</ele>
        <time>2013-05-24T18:08:43Z</time>
      </trkpt>
      <trkpt lat="59.96743" lon="17.7140214">
        <ele>25.6123</ele>
        <time>2013-05-24T18:08:44Z</time>
      </trkpt>
      <trkpt lat="59.9674098" lon="17.7138618">
        <ele>25.6123</ele>
        <time>2013-05-24T18:08:45Z</time>
      </trkpt>
      <trkpt lat="59.9673877" lon="17.7137131">
        <ele>25.6123</ele>
        <time>2013-05-24T18:08:46Z</time>
      </trkpt>
      <trkpt lat="59.9673651" lon="17.7135722">
        <ele>26.0929</ele>
        <time>2013-05-24T18:08:47Z</time>
      </trkpt>
      <trkpt lat="59.9673455" lon="17.7134356">
        <ele>26.0929</ele>
        <time>2013-05-24T18:08:48Z</time>
      </trkpt>
      <trkpt lat="59.9673259" lon="17.7133062">
        <ele>26.5736</ele>
        <time>2013-05-24T18:08:49Z</time>
      </trkpt>
      <trkpt lat="59.9673006" lon="17.7131881">
        <ele>26.0929</ele>
        <time>2013-05-24T18:08:50Z</time>
      </trkpt>
      <trkpt lat="59.9672757" lon="17.7130709">
        <ele>26.0929</ele>
        <time>2013-05-24T18:08:51Z</time>
      </trkpt>
      <trkpt lat="59.9672462" lon="17.712955">
        <ele>26.5736</ele>
        <time>2013-05-24T18:08:52Z</time>
      </trkpt>
      <trkpt lat="59.9672186" lon="17.7128431">
        <ele>26.5736</ele>
        <time>2013-05-24T18:08:53Z</time>
      </trkpt>
      <trkpt lat="59.9671915" lon="17.7127349">
        <ele>27.0543</ele>
        <time>2013-05-24T18:08:54Z</time>
      </trkpt>
      <trkpt lat="59.9671623" lon="17.7126289">
        <ele>27.0543</ele>
        <time>2013-05-24T18:08:55Z</time>
      </trkpt>
      <trkpt lat="59.9671372" lon="17.7125214">
        <ele>27.0543</ele>
        <time>2013-05-24T18:08:56Z</time>
      </trkpt>
      <trkpt lat="59.9671067" lon="17.7124168">
        <ele>27.0543</ele>
        <time>2013-05-24T18:08:57Z</time>
      </trkpt>
      <trkpt lat="59.9670731" lon="17.7123167">
        <ele>26.0929</ele>
        <time>2013-05-24T18:08:58Z</time>
      </trkpt>
      <trkpt lat="59.9670377" lon="17.7122142">
        <ele>26.0929</ele>
        <time>2013-05-24T18:08:59Z</time>
      </trkpt>
      <trkpt lat="59.966997" lon="17.7121116">
        <ele>26.0929</ele>
        <time>2013-05-24T18:09:00Z</time>
      </trkpt>
      <trkpt lat="59.9669608" lon="17.7120055">
        <ele>26.0929</ele>
        <time>2013-05-24T18:09:01Z</time>
      </trkpt>
      <trkpt lat="59.9669229" lon="17.7118981">
        <ele>25.6123</ele>
        <time>2013-05-24T18:09:02Z</time>
      </trkpt>
      <trkpt lat="59.9668846" lon="17.7117898">
        <ele>25.6123</ele>
        <time>2013-05-24T18:09:03Z</time>
      </trkpt>
      <trkpt lat="59.9668435" lon="17.7116817">
        <ele>25.6123</ele>
        <time>2013-05-24T18:09:04Z</time>
      </trkpt>
      <trkpt lat="59.966803" lon="17.7115706">
        <ele>25.6123</ele>
        <time>2013-05-24T18:09:05Z</time>
      </trkpt>
      <trkpt lat="59.9667643" lon="17.7114562">
        <ele>25.6123</ele>
        <time>2013-05-24T18:09:06Z</time>
      </trkpt>
      <trkpt lat="59.9667264" lon="17.7113407">
        <ele>25.1317</ele>
        <time>2013-05-24T18:09:07Z</time>
      </trkpt>
      <trkpt lat="59.9666906" lon="17.7112233">
        <ele>24.651</ele>
        <time>2013-05-24T18:09:08Z</time>
      </trkpt>
      <trkpt lat="59.9666547" lon="17.7111091">
        <ele>23.209</ele>
        <time>2013-05-24T18:09:09Z</time>
      </trkpt>
      <trkpt lat="59.9666204" lon="17.7109901">
        <ele>22.7283</ele>
        <time>2013-05-24T18:09:10Z</time>
      </trkpt>
      <trkpt lat="59.9665822" lon="17.71087">
        <ele>21.767</ele>
        <time>2013-05-24T18:09:11Z</time>
      </trkpt>
      <trkpt lat="59.9665467" lon="17.7107468">
        <ele>21.2864</ele>
        <time>2013-05-24T18:09:12Z</time>
      </trkpt>
      <trkpt lat="59.9665114" lon="17.7106187">
        <ele>20.8057</ele>
        <time>2013-05-24T18:09:13Z</time>
      </trkpt>
      <trkpt lat="59.966477" lon="17.7104898">
        <ele>20.8057</ele>
        <time>2013-05-24T18:09:14Z</time>
      </trkpt>
      <trkpt lat="59.9664413" lon="17.7103581">
        <ele>20.8057</ele>
        <time>2013-05-24T18:09:15Z</time>
      </trkpt>
      <trkpt lat="59.966406" lon="17.7102226">
        <ele>20.8057</ele>
        <time>2013-05-24T18:09:16Z</time>
      </trkpt>
      <trkpt lat="59.9663695" lon="17.7100878">
        <ele>20.8057</ele>
        <time>2013-05-24T18:09:17Z</time>
      </trkpt>
      <trkpt lat="59.9663293" lon="17.7099526">
        <ele>20.8057</ele>
        <time>2013-05-24T18:09:18Z</time>
      </trkpt>
      <trkpt lat="59.9662781" lon="17.7098187">
        <ele>21.767</ele>
        <time>2013-05-24T18:09:19Z</time>
      </trkpt>
      <trkpt lat="59.9662397" lon="17.7096821">
        <ele>21.767</ele>
        <time>2013-05-24T18:09:20Z</time>
      </trkpt>
      <trkpt lat="59.9661983" lon="17.7095439">
        <ele>21.767</ele>
        <time>2013-05-24T18:09:21Z</time>
      </trkpt>
      <trkpt lat="59.9661506" lon="17.7094092">
        <ele>21.767</ele>
        <time>2013-05-24T18:09:22Z</time>
      </trkpt>
      <trkpt lat="59.9661006" lon="17.7092748">
        <ele>22.2476</ele>
        <time>2013-05-24T18:09:23Z</time>
      </trkpt>
      <trkpt lat="59.9660555" lon="17.7091371">
        <ele>22.2476</ele>
        <time>2013-05-24T18:09:24Z</time>
      </trkpt>
      <trkpt lat="59.9660082" lon="17.7090001">
        <ele>22.7283</ele>
        <time>2013-05-24T18:09:25Z</time>
      </trkpt>
      <trkpt lat="59.9659693" lon="17.7088607">
        <ele>22.2476</ele>
        <time>2013-05-24T18:09:26Z</time>
      </trkpt>
      <trkpt lat="59.9659231" lon="17.7087257">
        <ele>22.2476</ele>
        <time>2013-05-24T18:09:27Z</time>
      </trkpt>
      <trkpt lat="59.9658713" lon="17.7085968">
        <ele>21.767</ele>
        <time>2013-05-24T18:09:28Z</time>
      </trkpt>
      <trkpt lat="59.9658128" lon="17.7084711">
        <ele>21.2864</ele>
        <time>2013-05-24T18:09:29Z</time>
      </trkpt>
      <trkpt lat="59.9657501" lon="17.7083495">
        <ele>21.2864</ele>
        <time>2013-05-24T18:09:30Z</time>
      </trkpt>
      <trkpt lat="59.9656837" lon="17.7082367">
        <ele>21.767</ele>
        <time>2013-05-24T18:09:31Z</time>
      </trkpt>
      <trkpt lat="59.9656126" lon="17.7081366">
        <ele>21.767</ele>
        <time>2013-05-24T18:09:32Z</time>
      </trkpt>
      <trkpt lat="59.9655382" lon="17.708051">
        <ele>21.767</ele>
        <time>2013-05-24T18:09:33Z</time>
      </trkpt>
      <trkpt lat="59.9654642" lon="17.7079748">
        <ele>21.767</ele>
        <time>2013-05-24T18:09:34Z</time>
      </trkpt>
      <trkpt lat="59.9653894" lon="17.7079063">
        <ele>21.767</ele>
        <time>2013-05-24T18:09:35Z</time>
      </trkpt>
      <trkpt lat="59.9653139" lon="17.7078437">
        <ele>22.2476</ele>
        <time>2013-05-24T18:09:36Z</time>
      </trkpt>
      <trkpt lat="59.9652386" lon="17.7077835">
        <ele>22.2476</ele>
        <time>2013-05-24T18:09:37Z</time>
      </trkpt>
      <trkpt lat="59.9651635" lon="17.7077247">
        <ele>22.2476</ele>
        <time>2013-05-24T18:09:38Z</time>
      </trkpt>
      <trkpt lat="59.9650881" lon="17.7076671">
        <ele>22.2476</ele>
        <time>2013-05-24T18:09:39Z</time>
      </trkpt>
      <trkpt lat="59.965013" lon="17.7076075">
        <ele>22.2476</ele>
        <time>2013-05-24T18:09:40Z</time>
      </trkpt>
      <trkpt lat="59.9649384" lon="17.707548">
        <ele>22.7283</ele>
        <time>2013-05-24T18:09:41Z</time>
      </trkpt>
      <trkpt lat="59.9648637" lon="17.707491">
        <ele>22.7283</ele>
        <time>2013-05-24T18:09:42Z</time>
      </trkpt>
      <trkpt lat="59.9647895" lon="17.7074355">
        <ele>23.209</ele>
        <time>2013-05-24T18:09:43Z</time>
      </trkpt>
      <trkpt lat="59.9647144" lon="17.7073853">
        <ele>23.209</ele>
        <time>2013-05-24T18:09:44Z</time>
      </trkpt>
      <trkpt lat="59.9646342" lon="17.7073393">
        <ele>23.209</ele>
        <time>2013-05-24T18:09:45Z</time>
      </trkpt>
      <trkpt lat="59.9645546" lon="17.7072951">
        <ele>23.209</ele>
        <time>2013-05-24T18:09:46Z</time>
      </trkpt>
      <trkpt lat="59.9644748" lon="17.7072548">
        <ele>23.209</ele>
        <time>2013-05-24T18:09:47Z</time>
      </trkpt>
      <trkpt lat="59.9643945" lon="17.7072212">
        <ele>23.209</ele>
        <time>2013-05-24T18:09:48Z</time>
      </trkpt>
      <trkpt lat="59.9643136" lon="17.7071932">
        <ele>23.209</ele>
        <time>2013-05-24T18:09:49Z</time>
      </trkpt>
      <trkpt lat="59.9642318" lon="17.7071684">
        <ele>23.6896</ele>
        <time>2013-05-24T18:09:50Z</time>
      </trkpt>
      <trkpt lat="59.96415" lon="17.7071481">
        <ele>23.6896</ele>
        <time>2013-05-24T18:09:51Z</time>
      </trkpt>
      <trkpt lat="59.9640682" lon="17.7071315">
        <ele>24.1703</ele>
        <time>2013-05-24T18:09:52Z</time>
      </trkpt>
      <trkpt lat="59.9639869" lon="17.7071175">
        <ele>24.1703</ele>
        <time>2013-05-24T18:09:53Z</time>
      </trkpt>
      <trkpt lat="59.9639053" lon="17.7071038">
        <ele>24.651</ele>
        <time>2013-05-24T18:09:54Z</time>
      </trkpt>
      <trkpt lat="59.9638251" lon="17.7070909">
        <ele>25.1317</ele>
        <time>2013-05-24T18:09:55Z</time>
      </trkpt>
      <trkpt lat="59.9637457" lon="17.7070816">
        <ele>25.6123</ele>
        <time>2013-05-24T18:09:56Z</time>
      </trkpt>
      <trkpt lat="59.963665" lon="17.7070728">
        <ele>26.0929</ele>
        <time>2013-05-24T18:09:57Z</time>
      </trkpt>
      <trkpt lat="59.9635832" lon="17.7070657">
        <ele>26.0929</ele>
        <time>2013-05-24T18:09:58Z</time>
      </trkpt>
      <trkpt lat="59.9635" lon="17.707062">
        <ele>26.0929</ele>
        <time>2013-05-24T18:09:59Z</time>
      </trkpt>
      <trkpt lat="59.9634173" lon="17.707058">
        <ele>26.0929</ele>
        <time>2013-05-24T18:10:00Z</time>
      </trkpt>
      <trkpt lat="59.9633346" lon="17.7070547">
        <ele>25.6123</ele>
        <time>2013-05-24T18:10:01Z</time>
      </trkpt>
      <trkpt lat="59.9632539" lon="17.7070513">
        <ele>25.1317</ele>
        <time>2013-05-24T18:10:02Z</time>
      </trkpt>
      <trkpt lat="59.9631754" lon="17.7070533">
        <ele>25.1317</ele>
        <time>2013-05-24T18:10:03Z</time>
      </trkpt>
      <trkpt lat="59.963101" lon="17.707051">
        <ele>25.1317</ele>
        <time>2013-05-24T18:10:04Z</time>
      </trkpt>
      <trkpt lat="59.9630234" lon="17.7070508">
        <ele>25.1317</ele>
        <time>2013-05-24T18:10:05Z</time>
      </trkpt>
      <trkpt lat="59.9629406" lon="17.7070522">
        <ele>24.651</ele>
        <time>2013-05-24T18:10:06Z</time>
      </trkpt>
      <trkpt lat="59.9628617" lon="17.7070448">
        <ele>25.6123</ele>
        <time>2013-05-24T18:10:07Z</time>
      </trkpt>
      <trkpt lat="59.9627844" lon="17.7070331">
        <ele>25.6123</ele>
        <time>2013-05-24T18:10:08Z</time>
      </trkpt>
      <trkpt lat="59.9627079" lon="17.7070199">
        <ele>26.0929</ele>
        <time>2013-05-24T18:10:09Z</time>
      </trkpt>
      <trkpt lat="59.9626322" lon="17.7070085">
        <ele>26.0929</ele>
        <time>2013-05-24T18:10:10Z</time>
      </trkpt>
      <trkpt lat="59.9625567" lon="17.7069922">
        <ele>25.6123</ele>
        <time>2013-05-24T18:10:11Z</time>
      </trkpt>
      <trkpt lat="59.9624816" lon="17.7069671">
        <ele>25.6123</ele>
        <time>2013-05-24T18:10:12Z</time>
      </trkpt>
      <trkpt lat="59.9624069" lon="17.7069409">
        <ele>25.6123</ele>
        <time>2013-05-24T18:10:13Z</time>
      </trkpt>
      <trkpt lat="59.9623334" lon="17.7069109">
        <ele>25.6123</ele>
        <time>2013-05-24T18:10:14Z</time>
      </trkpt>
      <trkpt lat="59.962255" lon="17.7068741">
        <ele>24.651</ele>
        <time>2013-05-24T18:10:15Z</time>
      </trkpt>
      <trkpt lat="59.962182" lon="17.7068337">
        <ele>24.651</ele>
        <time>2013-05-24T18:10:16Z</time>
      </trkpt>
      <trkpt lat="59.9621075" lon="17.7067933">
        <ele>24.1703</ele>
        <time>2013-05-24T18:10:17Z</time>
      </trkpt>
      <trkpt lat="59.962035" lon="17.7067493">
        <ele>24.1703</ele>
        <time>2013-05-24T18:10:18Z</time>
      </trkpt>
      <trkpt lat="59.9619631" lon="17.7067039">
        <ele>23.6896</ele>
        <time>2013-05-24T18:10:19Z</time>
      </trkpt>
      <trkpt lat="59.9618925" lon="17.7066534">
        <ele>23.6896</ele>
        <time>2013-05-24T18:10:20Z</time>
      </trkpt>
      <trkpt lat="59.9618226" lon="17.7065995">
        <ele>23.6896</ele>
        <time>2013-05-24T18:10:21Z</time>
      </trkpt>
      <trkpt lat="59.9617532" lon="17.7065446">
        <ele>23.6896</ele>
        <time>2013-05-24T18:10:22Z</time>
      </trkpt>
      <trkpt lat="59.9616874" lon="17.7064757">
        <ele>23.209</ele>
        <time>2013-05-24T18:10:23Z</time>
      </trkpt>
      <trkpt lat="59.961623" lon="17.7063937">
        <ele>23.209</ele>
        <time>2013-05-24T18:10:24Z</time>
      </trkpt>
      <trkpt lat="59.9615589" lon="17.7063075">
        <ele>23.209</ele>
        <time>2013-05-24T18:10:25Z</time>
      </trkpt>
      <trkpt lat="59.9614966" lon="17.7062168">
        <ele>22.7283</ele>
        <time>2013-05-24T18:10:26Z</time>
      </trkpt>
      <trkpt lat="59.9614367" lon="17.7061235">
        <ele>22.7283</ele>
        <time>2013-05-24T18:10:27Z</time>
      </trkpt>
      <trkpt lat="59.9613811" lon="17.706028">
        <ele>22.2476</ele>
        <time>2013-05-24T18:10:28Z</time>
      </trkpt>
      <trkpt lat="59.9613277" lon="17.7059267">
        <ele>22.2476</ele>
        <time>2013-05-24T18:10:29Z</time>
      </trkpt>
      <trkpt lat="59.9612743" lon="17.7058259">
        <ele>22.7283</ele>
        <time>2013-05-24T18:10:30Z</time>
      </trkpt>
      <trkpt lat="59.9612204" lon="17.7057267">
        <ele>22.7283</ele>
        <time>2013-05-24T18:10:31Z</time>
      </trkpt>
      <trkpt lat="59.9611667" lon="17.7056281">
        <ele>23.209</ele>
        <time>2013-05-24T18:10:32Z</time>
      </trkpt>
      <trkpt lat="59.9611133" lon="17.7055291">
        <ele>23.209</ele>
        <time>2013-05-24T18:10:33Z</time>
      </trkpt>
      <trkpt lat="59.9610597" lon="17.705431">
        <ele>23.6896</ele>
        <time>2013-05-24T18:10:34Z</time>
      </trkpt>
      <trkpt lat="59.9610067" lon="17.7053328">
        <ele>23.6896</ele>
        <time>2013-05-24T18:10:35Z</time>
      </trkpt>
      <trkpt lat="59.9609466" lon="17.7052232">
        <ele>23.6896</ele>
        <time>2013-05-24T18:10:36Z</time>
      </trkpt>
      <trkpt lat="59.9608858" lon="17.7051109">
        <ele>23.6896</ele>
        <time>2013-05-24T18:10:37Z</time>
      </trkpt>
      <trkpt lat="59.9608294" lon="17.7050153">
        <ele>23.6896</ele>
        <time>2013-05-24T18:10:38Z</time>
      </trkpt>
      <trkpt lat="59.9607688" lon="17.704935">
        <ele>23.6896</ele>
        <time>2013-05-24T18:10:39Z</time>
      </trkpt>
      <trkpt lat="59.9607073" lon="17.7048569">
        <ele>23.6896</ele>
        <time>2013-05-24T18:10:40Z</time>
      </trkpt>
      <trkpt lat="59.9606492" lon="17.7047767">
        <ele>23.6896</ele>
        <time>2013-05-24T18:10:41Z</time>
      </trkpt>
      <trkpt lat="59.9605867" lon="17.7047004">
        <ele>23.6896</ele>
        <time>2013-05-24T18:10:42Z</time>
      </trkpt>
      <trkpt lat="59.9605216" lon="17.7046232">
        <ele>23.6896</ele>
        <time>2013-05-24T18:10:43Z</time>
      </trkpt>
      <trkpt lat="59.9604566" lon="17.7045441">
        <ele>23.6896</ele>
        <time>2013-05-24T18:10:44Z</time>
      </trkpt>
      <trkpt lat="59.9603913" lon="17.7044658">
        <ele>23.6896</ele>
        <time>2013-05-24T18:10:45Z</time>
      </trkpt>
      <trkpt lat="59.9603235" lon="17.7043897">
        <ele>23.6896</ele>
        <time>2013-05-24T18:10:46Z</time>
      </trkpt>
      <trkpt lat="59.9602535" lon="17.7043089">
        <ele>23.209</ele>
        <time>2013-05-24T18:10:47Z</time>
      </trkpt>
      <trkpt lat="59.9601915" lon="17.7042134">
        <ele>23.209</ele>
        <time>2013-05-24T18:10:48Z</time>
      </trkpt>
      <trkpt lat="59.9601309" lon="17.7041239">
        <ele>22.7283</ele>
        <time>2013-05-24T18:10:49Z</time>
      </trkpt>
      <trkpt lat="59.9600763" lon="17.7040249">
        <ele>22.7283</ele>
        <time>2013-05-24T18:10:50Z</time>
      </trkpt>
      <trkpt lat="59.9600198" lon="17.7039222">
        <ele>22.2476</ele>
        <time>2013-05-24T18:10:51Z</time>
      </trkpt>
      <trkpt lat="59.959969" lon="17.7038069">
        <ele>23.209</ele>
        <time>2013-05-24T18:10:52Z</time>
      </trkpt>
      <trkpt lat="59.9599249" lon="17.7036857">
        <ele>23.209</ele>
        <time>2013-05-24T18:10:53Z</time>
      </trkpt>
      <trkpt lat="59.959884" lon="17.7035592">
        <ele>23.209</ele>
        <time>2013-05-24T18:10:54Z</time>
      </trkpt>
      <trkpt lat="59.9598458" lon="17.7034301">
        <ele>23.209</ele>
        <time>2013-05-24T18:10:55Z</time>
      </trkpt>
      <trkpt lat="59.9598123" lon="17.7032949">
        <ele>23.209</ele>
        <time>2013-05-24T18:10:56Z</time>
      </trkpt>
      <trkpt lat="59.9597702" lon="17.7031698">
        <ele>23.209</ele>
        <time>2013-05-24T18:10:57Z</time>
      </trkpt>
      <trkpt lat="59.9597317" lon="17.7030407">
        <ele>24.1703</ele>
        <time>2013-05-24T18:10:58Z</time>
      </trkpt>
      <trkpt lat="59.9596945" lon="17.7029202">
        <ele>24.1703</ele>
        <time>2013-05-24T18:10:59Z</time>
      </trkpt>
      <trkpt lat="59.9596587" lon="17.7027956">
        <ele>24.651</ele>
        <time>2013-05-24T18:11:00Z</time>
      </trkpt>
      <trkpt lat="59.9596243" lon="17.7026646">
        <ele>24.1703</ele>
        <time>2013-05-24T18:11:01Z</time>
      </trkpt>
      <trkpt lat="59.9595863" lon="17.7025362">
        <ele>24.1703</ele>
        <time>2013-05-24T18:11:02Z</time>
      </trkpt>
      <trkpt lat="59.9595516" lon="17.7024017">
        <ele>23.6896</ele>
        <time>2013-05-24T18:11:03Z</time>
      </trkpt>
      <trkpt lat="59.9595128" lon="17.7022649">
        <ele>23.6896</ele>
        <time>2013-05-24T18:11:04Z</time>
      </trkpt>
      <trkpt lat="59.9594713" lon="17.7021304">
        <ele>23.6896</ele>
        <time>2013-05-24T18:11:05Z</time>
      </trkpt>
      <trkpt lat="59.9594355" lon="17.7019942">
        <ele>23.6896</ele>
        <time>2013-05-24T18:11:06Z</time>
      </trkpt>
      <trkpt lat="59.9594" lon="17.7018572">
        <ele>23.6896</ele>
        <time>2013-05-24T18:11:07Z</time>
      </trkpt>
      <trkpt lat="59.9593686" lon="17.701716">
        <ele>24.1703</ele>
        <time>2013-05-24T18:11:08Z</time>
      </trkpt>
      <trkpt lat="59.9593377" lon="17.7015752">
        <ele>24.1703</ele>
        <time>2013-05-24T18:11:09Z</time>
      </trkpt>
      <trkpt lat="59.9593173" lon="17.7014265">
        <ele>23.6896</ele>
        <time>2013-05-24T18:11:10Z</time>
      </trkpt>
      <trkpt lat="59.9592968" lon="17.701276">
        <ele>23.209</ele>
        <time>2013-05-24T18:11:11Z</time>
      </trkpt>
      <trkpt lat="59.9592776" lon="17.7011237">
        <ele>22.7283</ele>
        <time>2013-05-24T18:11:12Z</time>
      </trkpt>
      <trkpt lat="59.9592589" lon="17.7009698">
        <ele>22.2476</ele>
        <time>2013-05-24T18:11:13Z</time>
      </trkpt>
      <trkpt lat="59.9592403" lon="17.7008149">
        <ele>21.767</ele>
        <time>2013-05-24T18:11:14Z</time>
      </trkpt>
      <trkpt lat="59.9592211" lon="17.700659">
        <ele>21.2864</ele>
        <time>2013-05-24T18:11:15Z</time>
      </trkpt>
      <trkpt lat="59.9592013" lon="17.7004985">
        <ele>21.2864</ele>
        <time>2013-05-24T18:11:16Z</time>
      </trkpt>
      <trkpt lat="59.9591826" lon="17.7003379">
        <ele>21.767</ele>
        <time>2013-05-24T18:11:17Z</time>
      </trkpt>
      <trkpt lat="59.9591643" lon="17.7001783">
        <ele>21.767</ele>
        <time>2013-05-24T18:11:18Z</time>
      </trkpt>
      <trkpt lat="59.9591486" lon="17.7000199">
        <ele>22.7283</ele>
        <time>2013-05-24T18:11:19Z</time>
      </trkpt>
      <trkpt lat="59.9591362" lon="17.6998622">
        <ele>22.7283</ele>
        <time>2013-05-24T18:11:20Z</time>
      </trkpt>
      <trkpt lat="59.9591253" lon="17.6997089">
        <ele>21.2864</ele>
        <time>2013-05-24T18:11:21Z</time>
      </trkpt>
      <trkpt lat="59.9591129" lon="17.6995523">
        <ele>20.8057</ele>
        <time>2013-05-24T18:11:22Z</time>
      </trkpt>
      <trkpt lat="59.959102" lon="17.6993962">
        <ele>20.8057</ele>
        <time>2013-05-24T18:11:23Z</time>
      </trkpt>
      <trkpt lat="59.9590932" lon="17.6992381">
        <ele>20.8057</ele>
        <time>2013-05-24T18:11:24Z</time>
      </trkpt>
      <trkpt lat="59.9590866" lon="17.6990847">
        <ele>21.2864</ele>
        <time>2013-05-24T18:11:25Z</time>
      </trkpt>
      <trkpt lat="59.9590807" lon="17.6989336">
        <ele>20.8057</ele>
        <time>2013-05-24T18:11:26Z</time>
      </trkpt>
      <trkpt lat="59.9590759" lon="17.6987874">
        <ele>20.8057</ele>
        <time>2013-05-24T18:11:27Z</time>
      </trkpt>
      <trkpt lat="59.9590739" lon="17.6986376">
        <ele>20.325</ele>
        <time>2013-05-24T18:11:28Z</time>
      </trkpt>
      <trkpt lat="59.9590712" lon="17.6984854">
        <ele>20.8057</ele>
        <time>2013-05-24T18:11:29Z</time>
      </trkpt>
      <trkpt lat="59.9590646" lon="17.6983263">
        <ele>21.2864</ele>
        <time>2013-05-24T18:11:30Z</time>
      </trkpt>
      <trkpt lat="59.9590591" lon="17.6981772">
        <ele>21.2864</ele>
        <time>2013-05-24T18:11:31Z</time>
      </trkpt>
      <trkpt lat="59.9590486" lon="17.6980361">
        <ele>20.325</ele>
        <time>2013-05-24T18:11:32Z</time>
      </trkpt>
      <trkpt lat="59.9590348" lon="17.6978937">
        <ele>19.8444</ele>
        <time>2013-05-24T18:11:33Z</time>
      </trkpt>
      <trkpt lat="59.959019" lon="17.6977512">
        <ele>19.3638</ele>
        <time>2013-05-24T18:11:34Z</time>
      </trkpt>
      <trkpt lat="59.9589992" lon="17.6975968">
        <ele>18.8831</ele>
        <time>2013-05-24T18:11:35Z</time>
      </trkpt>
      <trkpt lat="59.9589761" lon="17.6974419">
        <ele>18.4023</ele>
        <time>2013-05-24T18:11:36Z</time>
      </trkpt>
      <trkpt lat="59.9589493" lon="17.6972866">
        <ele>17.9218</ele>
        <time>2013-05-24T18:11:37Z</time>
      </trkpt>
      <trkpt lat="59.9589177" lon="17.6971278">
        <ele>17.4412</ele>
        <time>2013-05-24T18:11:38Z</time>
      </trkpt>
      <trkpt lat="59.9588823" lon="17.6969681">
        <ele>17.4412</ele>
        <time>2013-05-24T18:11:39Z</time>
      </trkpt>
      <trkpt lat="59.958844" lon="17.6968019">
        <ele>17.4412</ele>
        <time>2013-05-24T18:11:40Z</time>
      </trkpt>
      <trkpt lat="59.9588031" lon="17.6966404">
        <ele>17.4412</ele>
        <time>2013-05-24T18:11:41Z</time>
      </trkpt>
      <trkpt lat="59.9587581" lon="17.6964848">
        <ele>16.9604</ele>
        <time>2013-05-24T18:11:42Z</time>
      </trkpt>
      <trkpt lat="59.9587087" lon="17.6963354">
        <ele>16.9604</ele>
        <time>2013-05-24T18:11:43Z</time>
      </trkpt>
      <trkpt lat="59.9586555" lon="17.6961906">
        <ele>17.4412</ele>
        <time>2013-05-24T18:11:44Z</time>
      </trkpt>
      <trkpt lat="59.958599" lon="17.6960513">
        <ele>17.4412</ele>
        <time>2013-05-24T18:11:45Z</time>
      </trkpt>
      <trkpt lat="59.9585415" lon="17.6959119">
        <ele>17.4412</ele>
        <time>2013-05-24T18:11:46Z</time>
      </trkpt>
      <trkpt lat="59.9584839" lon="17.6957748">
        <ele>16.9604</ele>
        <time>2013-05-24T18:11:47Z</time>
      </trkpt>
      <trkpt lat="59.9584265" lon="17.6956405">
        <ele>16.9604</ele>
        <time>2013-05-24T18:11:48Z</time>
      </trkpt>
      <trkpt lat="59.9583698" lon="17.6955043">
        <ele>16.9604</ele>
        <time>2013-05-24T18:11:49Z</time>
      </trkpt>
      <trkpt lat="59.9583167" lon="17.6953644">
        <ele>16.4797</ele>
        <time>2013-05-24T18:11:50Z</time>
      </trkpt>
      <trkpt lat="59.958265" lon="17.6952252">
        <ele>15.999</ele>
        <time>2013-05-24T18:11:51Z</time>
      </trkpt>
      <trkpt lat="59.9582136" lon="17.6950842">
        <ele>15.999</ele>
        <time>2013-05-24T18:11:52Z</time>
      </trkpt>
      <trkpt lat="59.9581628" lon="17.6949431">
        <ele>15.999</ele>
        <time>2013-05-24T18:11:53Z</time>
      </trkpt>
      <trkpt lat="59.9581126" lon="17.6948065">
        <ele>15.999</ele>
        <time>2013-05-24T18:11:54Z</time>
      </trkpt>
      <trkpt lat="59.9580623" lon="17.6946708">
        <ele>15.5184</ele>
        <time>2013-05-24T18:11:55Z</time>
      </trkpt>
      <trkpt lat="59.9580125" lon="17.6945328">
        <ele>15.5184</ele>
        <time>2013-05-24T18:11:56Z</time>
      </trkpt>
      <trkpt lat="59.957963" lon="17.6943966">
        <ele>15.5184</ele>
        <time>2013-05-24T18:11:57Z</time>
      </trkpt>
      <trkpt lat="59.9579147" lon="17.6942588">
        <ele>15.5184</ele>
        <time>2013-05-24T18:11:58Z</time>
      </trkpt>
      <trkpt lat="59.9578674" lon="17.694118">
        <ele>15.0377</ele>
        <time>2013-05-24T18:11:59Z</time>
      </trkpt>
      <trkpt lat="59.9578188" lon="17.6939739">
        <ele>14.557</ele>
        <time>2013-05-24T18:12:00Z</time>
      </trkpt>
      <trkpt lat="59.9577691" lon="17.693833">
        <ele>14.557</ele>
        <time>2013-05-24T18:12:01Z</time>
      </trkpt>
      <trkpt lat="59.9577179" lon="17.6936933">
        <ele>15.0377</ele>
        <time>2013-05-24T18:12:02Z</time>
      </trkpt>
      <trkpt lat="59.9576676" lon="17.6935584">
        <ele>15.0377</ele>
        <time>2013-05-24T18:12:03Z</time>
      </trkpt>
      <trkpt lat="59.9576188" lon="17.6934224">
        <ele>15.0377</ele>
        <time>2013-05-24T18:12:04Z</time>
      </trkpt>
      <trkpt lat="59.9575708" lon="17.6932758">
        <ele>15.5184</ele>
        <time>2013-05-24T18:12:05Z</time>
      </trkpt>
      <trkpt lat="59.9575221" lon="17.6931318">
        <ele>15.5184</ele>
        <time>2013-05-24T18:12:06Z</time>
      </trkpt>
      <trkpt lat="59.9574748" lon="17.6929943">
        <ele>15.999</ele>
        <time>2013-05-24T18:12:07Z</time>
      </trkpt>
      <trkpt lat="59.9574261" lon="17.6928542">
        <ele>15.999</ele>
        <time>2013-05-24T18:12:08Z</time>
      </trkpt>
      <trkpt lat="59.9573774" lon="17.6927174">
        <ele>15.999</ele>
        <time>2013-05-24T18:12:09Z</time>
      </trkpt>
      <trkpt lat="59.9573278" lon="17.6925819">
        <ele>15.999</ele>
        <time>2013-05-24T18:12:10Z</time>
      </trkpt>
      <trkpt lat="59.9572807" lon="17.6924517">
        <ele>15.999</ele>
        <time>2013-05-24T18:12:11Z</time>
      </trkpt>
      <trkpt lat="59.9572366" lon="17.6923163">
        <ele>15.999</ele>
        <time>2013-05-24T18:12:12Z</time>
      </trkpt>
      <trkpt lat="59.9571929" lon="17.6921797">
        <ele>15.999</ele>
        <time>2013-05-24T18:12:13Z</time>
      </trkpt>
      <trkpt lat="59.9571497" lon="17.6920387">
        <ele>15.999</ele>
        <time>2013-05-24T18:12:14Z</time>
      </trkpt>
      <trkpt lat="59.9571066" lon="17.6919062">
        <ele>15.999</ele>
        <time>2013-05-24T18:12:15Z</time>
      </trkpt>
      <trkpt lat="59.9570634" lon="17.6917773">
        <ele>15.5184</ele>
        <time>2013-05-24T18:12:16Z</time>
      </trkpt>
      <trkpt lat="59.9570202" lon="17.6916508">
        <ele>15.5184</ele>
        <time>2013-05-24T18:12:17Z</time>
      </trkpt>
      <trkpt lat="59.9569771" lon="17.6915253">
        <ele>15.5184</ele>
        <time>2013-05-24T18:12:18Z</time>
      </trkpt>
      <trkpt lat="59.9569341" lon="17.6914">
        <ele>15.999</ele>
        <time>2013-05-24T18:12:19Z</time>
      </trkpt>
      <trkpt lat="59.956891" lon="17.6912753">
        <ele>16.4797</ele>
        <time>2013-05-24T18:12:20Z</time>
      </trkpt>
      <trkpt lat="59.9568492" lon="17.6911567">
        <ele>16.4797</ele>
        <time>2013-05-24T18:12:21Z</time>
      </trkpt>
      <trkpt lat="59.9568089" lon="17.6910433">
        <ele>16.9604</ele>
        <time>2013-05-24T18:12:22Z</time>
      </trkpt>
      <trkpt lat="59.9567711" lon="17.6909333">
        <ele>16.9604</ele>
        <time>2013-05-24T18:12:23Z</time>
      </trkpt>
      <trkpt lat="59.9567357" lon="17.6908267">
        <ele>17.4412</ele>
        <time>2013-05-24T18:12:24Z</time>
      </trkpt>
      <trkpt lat="59.9567011" lon="17.6907189">
        <ele>17.4412</ele>
        <time>2013-05-24T18:12:25Z</time>
      </trkpt>
      <trkpt lat="59.9566642" lon="17.6906114">
        <ele>17.9218</ele>
        <time>2013-05-24T18:12:26Z</time>
      </trkpt>
      <trkpt lat="59.956628" lon="17.6905027">
        <ele>17.9218</ele>
        <time>2013-05-24T18:12:27Z</time>
      </trkpt>
      <trkpt lat="59.9565972" lon="17.6903931">
        <ele>17.9218</ele>
        <time>2013-05-24T18:12:28Z</time>
      </trkpt>
      <trkpt lat="59.9565683" lon="17.6902858">
        <ele>17.9218</ele>
        <time>2013-05-24T18:12:29Z</time>
      </trkpt>
      <trkpt lat="59.9565368" lon="17.6901865">
        <ele>17.9218</ele>
        <time>2013-05-24T18:12:30Z</time>
      </trkpt>
      <trkpt lat="59.9565015" lon="17.6900867">
        <ele>18.4023</ele>
        <time>2013-05-24T18:12:31Z</time>
      </trkpt>
      <trkpt lat="59.9564689" lon="17.6899834">
        <ele>18.4023</ele>
        <time>2013-05-24T18:12:32Z</time>
      </trkpt>
      <trkpt lat="59.9564378" lon="17.689877">
        <ele>18.4023</ele>
        <time>2013-05-24T18:12:33Z</time>
      </trkpt>
      <trkpt lat="59.9564059" lon="17.6897707">
        <ele>18.4023</ele>
        <time>2013-05-24T18:12:34Z</time>
      </trkpt>
      <trkpt lat="59.956372" lon="17.6896684">
        <ele>18.4023</ele>
        <time>2013-05-24T18:12:35Z</time>
      </trkpt>
      <trkpt lat="59.9563379" lon="17.6895573">
        <ele>18.4023</ele>
        <time>2013-05-24T18:12:36Z</time>
      </trkpt>
      <trkpt lat="59.9563059" lon="17.689439">
        <ele>18.8831</ele>
        <time>2013-05-24T18:12:37Z</time>
      </trkpt>
      <trkpt lat="59.9562756" lon="17.6893161">
        <ele>18.8831</ele>
        <time>2013-05-24T18:12:38Z</time>
      </trkpt>
      <trkpt lat="59.9562439" lon="17.6891949">
        <ele>18.8831</ele>
        <time>2013-05-24T18:12:39Z</time>
      </trkpt>
      <trkpt lat="59.9562084" lon="17.6890733">
        <ele>18.8831</ele>
        <time>2013-05-24T18:12:40Z</time>
      </trkpt>
      <trkpt lat="59.9561675" lon="17.6889545">
        <ele>18.8831</ele>
        <time>2013-05-24T18:12:41Z</time>
      </trkpt>
      <trkpt lat="59.9561245" lon="17.6888332">
        <ele>18.8831</ele>
        <time>2013-05-24T18:12:42Z</time>
      </trkpt>
      <trkpt lat="59.9560845" lon="17.6887">
        <ele>18.4023</ele>
        <time>2013-05-24T18:12:43Z</time>
      </trkpt>
      <trkpt lat="59.9560499" lon="17.6885594">
        <ele>18.4023</ele>
        <time>2013-05-24T18:12:44Z</time>
      </trkpt>
      <trkpt lat="59.9560223" lon="17.6884106">
        <ele>17.9218</ele>
        <time>2013-05-24T18:12:45Z</time>
      </trkpt>
      <trkpt lat="59.9559991" lon="17.6882613">
        <ele>18.4023</ele>
        <time>2013-05-24T18:12:46Z</time>
      </trkpt>
      <trkpt lat="59.9559753" lon="17.6881041">
        <ele>18.4023</ele>
        <time>2013-05-24T18:12:47Z</time>
      </trkpt>
      <trkpt lat="59.9559509" lon="17.6879496">
        <ele>17.9218</ele>
        <time>2013-05-24T18:12:48Z</time>
      </trkpt>
      <trkpt lat="59.955926" lon="17.687793">
        <ele>17.9218</ele>
        <time>2013-05-24T18:12:49Z</time>
      </trkpt>
      <trkpt lat="59.9558992" lon="17.6876311">
        <ele>17.9218</ele>
        <time>2013-05-24T18:12:50Z</time>
      </trkpt>
      <trkpt lat="59.9558706" lon="17.6874636">
        <ele>18.4023</ele>
        <time>2013-05-24T18:12:51Z</time>
      </trkpt>
      <trkpt lat="59.9558441" lon="17.6873047">
        <ele>18.4023</ele>
        <time>2013-05-24T18:12:52Z</time>
      </trkpt>
      <trkpt lat="59.9558181" lon="17.6871459">
        <ele>18.8831</ele>
        <time>2013-05-24T18:12:53Z</time>
      </trkpt>
      <trkpt lat="59.9557902" lon="17.6869743">
        <ele>18.8831</ele>
        <time>2013-05-24T18:12:54Z</time>
      </trkpt>
      <trkpt lat="59.955767" lon="17.6868145">
        <ele>19.3638</ele>
        <time>2013-05-24T18:12:55Z</time>
      </trkpt>
      <trkpt lat="59.9557452" lon="17.6866582">
        <ele>18.8831</ele>
        <time>2013-05-24T18:12:56Z</time>
      </trkpt>
      <trkpt lat="59.9557228" lon="17.6865002">
        <ele>18.8831</ele>
        <time>2013-05-24T18:12:57Z</time>
      </trkpt>
      <trkpt lat="59.9556993" lon="17.6863438">
        <ele>19.3638</ele>
        <time>2013-05-24T18:12:58Z</time>
      </trkpt>
      <trkpt lat="59.9556744" lon="17.6861802">
        <ele>19.3638</ele>
        <time>2013-05-24T18:12:59Z</time>
      </trkpt>
      <trkpt lat="59.9556521" lon="17.6860189">
        <ele>19.8444</ele>
        <time>2013-05-24T18:13:00Z</time>
      </trkpt>
      <trkpt lat="59.9556324" lon="17.6858637">
        <ele>19.8444</ele>
        <time>2013-05-24T18:13:01Z</time>
      </trkpt>
      <trkpt lat="59.9556117" lon="17.6857059">
        <ele>19.8444</ele>
        <time>2013-05-24T18:13:02Z</time>
      </trkpt>
      <trkpt lat="59.9555882" lon="17.6855388">
        <ele>19.8444</ele>
        <time>2013-05-24T18:13:03Z</time>
      </trkpt>
      <trkpt lat="59.9555648" lon="17.6853725">
        <ele>20.325</ele>
        <time>2013-05-24T18:13:04Z</time>
      </trkpt>
      <trkpt lat="59.9555417" lon="17.6852087">
        <ele>20.325</ele>
        <time>2013-05-24T18:13:05Z</time>
      </trkpt>
      <trkpt lat="59.9555182" lon="17.6850441">
        <ele>20.325</ele>
        <time>2013-05-24T18:13:06Z</time>
      </trkpt>
      <trkpt lat="59.9554946" lon="17.6848836">
        <ele>20.325</ele>
        <time>2013-05-24T18:13:07Z</time>
      </trkpt>
      <trkpt lat="59.9554675" lon="17.684708">
        <ele>21.2864</ele>
        <time>2013-05-24T18:13:08Z</time>
      </trkpt>
      <trkpt lat="59.9554403" lon="17.6845395">
        <ele>21.2864</ele>
        <time>2013-05-24T18:13:09Z</time>
      </trkpt>
      <trkpt lat="59.9554122" lon="17.6843777">
        <ele>21.2864</ele>
        <time>2013-05-24T18:13:10Z</time>
      </trkpt>
      <trkpt lat="59.9553838" lon="17.6842193">
        <ele>20.8057</ele>
        <time>2013-05-24T18:13:11Z</time>
      </trkpt>
      <trkpt lat="59.9553533" lon="17.6840413">
        <ele>21.2864</ele>
        <time>2013-05-24T18:13:12Z</time>
      </trkpt>
      <trkpt lat="59.9553256" lon="17.6838806">
        <ele>21.2864</ele>
        <time>2013-05-24T18:13:13Z</time>
      </trkpt>
      <trkpt lat="59.9552949" lon="17.6837219">
        <ele>20.8057</ele>
        <time>2013-05-24T18:13:14Z</time>
      </trkpt>
      <trkpt lat="59.955261" lon="17.6835652">
        <ele>20.325</ele>
        <time>2013-05-24T18:13:15Z</time>
      </trkpt>
      <trkpt lat="59.9552252" lon="17.683407">
        <ele>20.325</ele>
        <time>2013-05-24T18:13:16Z</time>
      </trkpt>
      <trkpt lat="59.9551875" lon="17.6832488">
        <ele>19.8444</ele>
        <time>2013-05-24T18:13:17Z</time>
      </trkpt>
      <trkpt lat="59.955148" lon="17.6830928">
        <ele>19.3638</ele>
        <time>2013-05-24T18:13:18Z</time>
      </trkpt>
      <trkpt lat="59.9551084" lon="17.6829389">
        <ele>19.3638</ele>
        <time>2013-05-24T18:13:19Z</time>
      </trkpt>
      <trkpt lat="59.9550693" lon="17.6827944">
        <ele>18.8831</ele>
        <time>2013-05-24T18:13:20Z</time>
      </trkpt>
      <trkpt lat="59.9550282" lon="17.6826486">
        <ele>18.8831</ele>
        <time>2013-05-24T18:13:21Z</time>
      </trkpt>
      <trkpt lat="59.9549838" lon="17.682501">
        <ele>18.4023</ele>
        <time>2013-05-24T18:13:22Z</time>
      </trkpt>
      <trkpt lat="59.9549382" lon="17.682349">
        <ele>18.4023</ele>
        <time>2013-05-24T18:13:23Z</time>
      </trkpt>
      <trkpt lat="59.9548943" lon="17.6822037">
        <ele>17.9218</ele>
        <time>2013-05-24T18:13:24Z</time>
      </trkpt>
      <trkpt lat="59.9548466" lon="17.6820563">
        <ele>17.4412</ele>
        <time>2013-05-24T18:13:25Z</time>
      </trkpt>
      <trkpt lat="59.9547897" lon="17.6819329">
        <ele>16.9604</ele>
        <time>2013-05-24T18:13:26Z</time>
      </trkpt>
      <trkpt lat="59.9547288" lon="17.6818372">
        <ele>15.999</ele>
        <time>2013-05-24T18:13:27Z</time>
      </trkpt>
      <trkpt lat="59.9546605" lon="17.6817392">
        <ele>15.5184</ele>
        <time>2013-05-24T18:13:28Z</time>
      </trkpt>
      <trkpt lat="59.9546003" lon="17.6816237">
        <ele>15.5184</ele>
        <time>2013-05-24T18:13:29Z</time>
      </trkpt>
      <trkpt lat="59.9545475" lon="17.6814965">
        <ele>15.5184</ele>
        <time>2013-05-24T18:13:30Z</time>
      </trkpt>
      <trkpt lat="59.9544975" lon="17.6813587">
        <ele>15.5184</ele>
        <time>2013-05-24T18:13:31Z</time>
      </trkpt>
      <trkpt lat="59.9544501" lon="17.6812153">
        <ele>15.0377</ele>
        <time>2013-05-24T18:13:32Z</time>
      </trkpt>
      <trkpt lat="59.9544042" lon="17.6810682">
        <ele>14.557</ele>
        <time>2013-05-24T18:13:33Z</time>
      </trkpt>
      <trkpt lat="59.9543581" lon="17.6809186">
        <ele>14.0764</ele>
        <time>2013-05-24T18:13:34Z</time>
      </trkpt>
      <trkpt lat="59.9543114" lon="17.6807737">
        <ele>13.5958</ele>
        <time>2013-05-24T18:13:35Z</time>
      </trkpt>
      <trkpt lat="59.954263" lon="17.6806265">
        <ele>13.5958</ele>
        <time>2013-05-24T18:13:36Z</time>
      </trkpt>
      <trkpt lat="59.9542124" lon="17.6804797">
        <ele>13.1151</ele>
        <time>2013-05-24T18:13:37Z</time>
      </trkpt>
      <trkpt lat="59.95416" lon="17.6803377">
        <ele>13.5958</ele>
        <time>2013-05-24T18:13:38Z</time>
      </trkpt>
      <trkpt lat="59.9541088" lon="17.6802028">
        <ele>13.1151</ele>
        <time>2013-05-24T18:13:39Z</time>
      </trkpt>
      <trkpt lat="59.9540586" lon="17.6800639">
        <ele>12.6344</ele>
        <time>2013-05-24T18:13:40Z</time>
      </trkpt>
      <trkpt lat="59.9540097" lon="17.6799267">
        <ele>12.6344</ele>
        <time>2013-05-24T18:13:41Z</time>
      </trkpt>
      <trkpt lat="59.9539619" lon="17.6797897">
        <ele>12.6344</ele>
        <time>2013-05-24T18:13:42Z</time>
      </trkpt>
      <trkpt lat="59.9539161" lon="17.6796619">
        <ele>12.1538</ele>
        <time>2013-05-24T18:13:43Z</time>
      </trkpt>
      <trkpt lat="59.9538707" lon="17.6795324">
        <ele>11.6732</ele>
        <time>2013-05-24T18:13:44Z</time>
      </trkpt>
      <trkpt lat="59.9538269" lon="17.6794061">
        <ele>11.6732</ele>
        <time>2013-05-24T18:13:45Z</time>
      </trkpt>
      <trkpt lat="59.9537831" lon="17.6792718">
        <ele>11.6732</ele>
        <time>2013-05-24T18:13:46Z</time>
      </trkpt>
      <trkpt lat="59.9537393" lon="17.6791423">
        <ele>11.1925</ele>
        <time>2013-05-24T18:13:47Z</time>
      </trkpt>
      <trkpt lat="59.9536949" lon="17.6790108">
        <ele>11.1925</ele>
        <time>2013-05-24T18:13:48Z</time>
      </trkpt>
      <trkpt lat="59.9536505" lon="17.6788766">
        <ele>11.1925</ele>
        <time>2013-05-24T18:13:49Z</time>
      </trkpt>
      <trkpt lat="59.9536059" lon="17.6787451">
        <ele>11.1925</ele>
        <time>2013-05-24T18:13:50Z</time>
      </trkpt>
      <trkpt lat="59.9535614" lon="17.6786155">
        <ele>11.1925</ele>
        <time>2013-05-24T18:13:51Z</time>
      </trkpt>
      <trkpt lat="59.9535177" lon="17.6784901">
        <ele>11.1925</ele>
        <time>2013-05-24T18:13:52Z</time>
      </trkpt>
      <trkpt lat="59.9534749" lon="17.6783591">
        <ele>11.1925</ele>
        <time>2013-05-24T18:13:53Z</time>
      </trkpt>
      <trkpt lat="59.9534324" lon="17.6782271">
        <ele>11.1925</ele>
        <time>2013-05-24T18:13:54Z</time>
      </trkpt>
      <trkpt lat="59.9533883" lon="17.6781012">
        <ele>10.7118</ele>
        <time>2013-05-24T18:13:55Z</time>
      </trkpt>
      <trkpt lat="59.9533434" lon="17.6779731">
        <ele>10.7118</ele>
        <time>2013-05-24T18:13:56Z</time>
      </trkpt>
      <trkpt lat="59.9532982" lon="17.6778387">
        <ele>11.1925</ele>
        <time>2013-05-24T18:13:57Z</time>
      </trkpt>
      <trkpt lat="59.9532527" lon="17.6777047">
        <ele>11.6732</ele>
        <time>2013-05-24T18:13:58Z</time>
      </trkpt>
      <trkpt lat="59.953207" lon="17.6775718">
        <ele>12.1538</ele>
        <time>2013-05-24T18:13:59Z</time>
      </trkpt>
      <trkpt lat="59.9531608" lon="17.6774379">
        <ele>12.1538</ele>
        <time>2013-05-24T18:14:00Z</time>
      </trkpt>
      <trkpt lat="59.9531137" lon="17.6773097">
        <ele>12.1538</ele>
        <time>2013-05-24T18:14:01Z</time>
      </trkpt>
      <trkpt lat="59.9530666" lon="17.6771812">
        <ele>12.1538</ele>
        <time>2013-05-24T18:14:02Z</time>
      </trkpt>
      <trkpt lat="59.953019" lon="17.6770484">
        <ele>11.6732</ele>
        <time>2013-05-24T18:14:03Z</time>
      </trkpt>
      <trkpt lat="59.9529688" lon="17.6769202">
        <ele>11.6732</ele>
        <time>2013-05-24T18:14:04Z</time>
      </trkpt>
      <trkpt lat="59.9529169" lon="17.6767932">
        <ele>11.6732</ele>
        <time>2013-05-24T18:14:05Z</time>
      </trkpt>
      <trkpt lat="59.9528646" lon="17.6766663">
        <ele>11.6732</ele>
        <time>2013-05-24T18:14:06Z</time>
      </trkpt>
      <trkpt lat="59.9528111" lon="17.6765383">
        <ele>12.1538</ele>
        <time>2013-05-24T18:14:07Z</time>
      </trkpt>
      <trkpt lat="59.9527605" lon="17.6764099">
        <ele>12.6344</ele>
        <time>2013-05-24T18:14:08Z</time>
      </trkpt>
      <trkpt lat="59.9527143" lon="17.6762784">
        <ele>12.6344</ele>
        <time>2013-05-24T18:14:09Z</time>
      </trkpt>
      <trkpt lat="59.95267" lon="17.6761413">
        <ele>12.6344</ele>
        <time>2013-05-24T18:14:10Z</time>
      </trkpt>
      <trkpt lat="59.9526262" lon="17.6760008">
        <ele>13.1151</ele>
        <time>2013-05-24T18:14:11Z</time>
      </trkpt>
      <trkpt lat="59.9525792" lon="17.6758655">
        <ele>13.1151</ele>
        <time>2013-05-24T18:14:12Z</time>
      </trkpt>
      <trkpt lat="59.9525296" lon="17.6757344">
        <ele>14.0764</ele>
        <time>2013-05-24T18:14:13Z</time>
      </trkpt>
      <trkpt lat="59.9524787" lon="17.6756088">
        <ele>14.557</ele>
        <time>2013-05-24T18:14:14Z</time>
      </trkpt>
      <trkpt lat="59.9524301" lon="17.6754904">
        <ele>14.557</ele>
        <time>2013-05-24T18:14:15Z</time>
      </trkpt>
      <trkpt lat="59.9523839" lon="17.6753758">
        <ele>15.5184</ele>
        <time>2013-05-24T18:14:16Z</time>
      </trkpt>
      <trkpt lat="59.9523413" lon="17.6752623">
        <ele>15.5184</ele>
        <time>2013-05-24T18:14:17Z</time>
      </trkpt>
      <trkpt lat="59.9523036" lon="17.6751483">
        <ele>15.999</ele>
        <time>2013-05-24T18:14:18Z</time>
      </trkpt>
      <trkpt lat="59.9522706" lon="17.6750294">
        <ele>15.999</ele>
        <time>2013-05-24T18:14:19Z</time>
      </trkpt>
      <trkpt lat="59.9522435" lon="17.6749026">
        <ele>15.999</ele>
        <time>2013-05-24T18:14:20Z</time>
      </trkpt>
      <trkpt lat="59.952219" lon="17.6747629">
        <ele>15.999</ele>
        <time>2013-05-24T18:14:21Z</time>
      </trkpt>
      <trkpt lat="59.9521952" lon="17.6746114">
        <ele>15.999</ele>
        <time>2013-05-24T18:14:22Z</time>
      </trkpt>
      <trkpt lat="59.9521699" lon="17.6744594">
        <ele>15.5184</ele>
        <time>2013-05-24T18:14:23Z</time>
      </trkpt>
      <trkpt lat="59.9521399" lon="17.6743079">
        <ele>15.0377</ele>
        <time>2013-05-24T18:14:24Z</time>
      </trkpt>
      <trkpt lat="59.9521071" lon="17.6741545">
        <ele>14.557</ele>
        <time>2013-05-24T18:14:25Z</time>
      </trkpt>
      <trkpt lat="59.9520752" lon="17.6739953">
        <ele>14.557</ele>
        <time>2013-05-24T18:14:26Z</time>
      </trkpt>
      <trkpt lat="59.9520445" lon="17.6738327">
        <ele>14.0764</ele>
        <time>2013-05-24T18:14:27Z</time>
      </trkpt>
      <trkpt lat="59.9520161" lon="17.6736655">
        <ele>14.0764</ele>
        <time>2013-05-24T18:14:28Z</time>
      </trkpt>
      <trkpt lat="59.9519875" lon="17.6734975">
        <ele>14.0764</ele>
        <time>2013-05-24T18:14:29Z</time>
      </trkpt>
      <trkpt lat="59.9519586" lon="17.6733307">
        <ele>13.5958</ele>
        <time>2013-05-24T18:14:30Z</time>
      </trkpt>
      <trkpt lat="59.9519307" lon="17.6731631">
        <ele>13.5958</ele>
        <time>2013-05-24T18:14:31Z</time>
      </trkpt>
      <trkpt lat="59.9519059" lon="17.6729983">
        <ele>13.1151</ele>
        <time>2013-05-24T18:14:32Z</time>
      </trkpt>
      <trkpt lat="59.9518835" lon="17.6728299">
        <ele>13.1151</ele>
        <time>2013-05-24T18:14:33Z</time>
      </trkpt>
      <trkpt lat="59.9518608" lon="17.6726589">
        <ele>12.6344</ele>
        <time>2013-05-24T18:14:34Z</time>
      </trkpt>
      <trkpt lat="59.95184" lon="17.6724807">
        <ele>12.6344</ele>
        <time>2013-05-24T18:14:35Z</time>
      </trkpt>
      <trkpt lat="59.9518224" lon="17.672298">
        <ele>12.6344</ele>
        <time>2013-05-24T18:14:36Z</time>
      </trkpt>
      <trkpt lat="59.9518048" lon="17.6721102">
        <ele>12.6344</ele>
        <time>2013-05-24T18:14:37Z</time>
      </trkpt>
      <trkpt lat="59.9517933" lon="17.6719222">
        <ele>12.6344</ele>
        <time>2013-05-24T18:14:38Z</time>
      </trkpt>
      <trkpt lat="59.9517876" lon="17.6717372">
        <ele>13.1151</ele>
        <time>2013-05-24T18:14:39Z</time>
      </trkpt>
      <trkpt lat="59.9517857" lon="17.6715598">
        <ele>13.5958</ele>
        <time>2013-05-24T18:14:40Z</time>
      </trkpt>
      <trkpt lat="59.9517716" lon="17.6713769">
        <ele>13.5958</ele>
        <time>2013-05-24T18:14:41Z</time>
      </trkpt>
      <trkpt lat="59.9517421" lon="17.671192">
        <ele>13.5958</ele>
        <time>2013-05-24T18:14:42Z</time>
      </trkpt>
      <trkpt lat="59.9517115" lon="17.671002">
        <ele>13.1151</ele>
        <time>2013-05-24T18:14:43Z</time>
      </trkpt>
      <trkpt lat="59.9516927" lon="17.6707868">
        <ele>14.0764</ele>
        <time>2013-05-24T18:14:44Z</time>
      </trkpt>
      <trkpt lat="59.9516971" lon="17.6705759">
        <ele>14.0764</ele>
        <time>2013-05-24T18:14:45Z</time>
      </trkpt>
      <trkpt lat="59.951713" lon="17.670373">
        <ele>14.0764</ele>
        <time>2013-05-24T18:14:46Z</time>
      </trkpt>
      <trkpt lat="59.9517293" lon="17.670171">
        <ele>14.0764</ele>
        <time>2013-05-24T18:14:47Z</time>
      </trkpt>
      <trkpt lat="59.9517452" lon="17.6699727">
        <ele>14.0764</ele>
        <time>2013-05-24T18:14:48Z</time>
      </trkpt>
      <trkpt lat="59.9517602" lon="17.6697742">
        <ele>14.0764</ele>
        <time>2013-05-24T18:14:49Z</time>
      </trkpt>
      <trkpt lat="59.9517733" lon="17.6695823">
        <ele>13.5958</ele>
        <time>2013-05-24T18:14:50Z</time>
      </trkpt>
      <trkpt lat="59.9517823" lon="17.6693816">
        <ele>14.0764</ele>
        <time>2013-05-24T18:14:51Z</time>
      </trkpt>
      <trkpt lat="59.9517913" lon="17.6691889">
        <ele>14.0764</ele>
        <time>2013-05-24T18:14:52Z</time>
      </trkpt>
      <trkpt lat="59.9517975" lon="17.6690033">
        <ele>14.0764</ele>
        <time>2013-05-24T18:14:53Z</time>
      </trkpt>
      <trkpt lat="59.9517939" lon="17.6688208">
        <ele>13.5958</ele>
        <time>2013-05-24T18:14:54Z</time>
      </trkpt>
      <trkpt lat="59.9517752" lon="17.6686414">
        <ele>13.5958</ele>
        <time>2013-05-24T18:14:55Z</time>
      </trkpt>
      <trkpt lat="59.9517429" lon="17.6684676">
        <ele>13.5958</ele>
        <time>2013-05-24T18:14:56Z</time>
      </trkpt>
      <trkpt lat="59.9517018" lon="17.6683039">
        <ele>13.5958</ele>
        <time>2013-05-24T18:14:57Z</time>
      </trkpt>
      <trkpt lat="59.9516499" lon="17.6681631">
        <ele>13.5958</ele>
        <time>2013-05-24T18:14:58Z</time>
      </trkpt>
      <trkpt lat="59.9515846" lon="17.668063">
        <ele>14.0764</ele>
        <time>2013-05-24T18:14:59Z</time>
      </trkpt>
      <trkpt lat="59.9515083" lon="17.6680114">
        <ele>14.0764</ele>
        <time>2013-05-24T18:15:00Z</time>
      </trkpt>
      <trkpt lat="59.9514261" lon="17.6680017">
        <ele>14.557</ele>
        <time>2013-05-24T18:15:01Z</time>
      </trkpt>
      <trkpt lat="59.9513436" lon="17.6680192">
        <ele>14.557</ele>
        <time>2013-05-24T18:15:02Z</time>
      </trkpt>
      <trkpt lat="59.9512615" lon="17.6680457">
        <ele>15.0377</ele>
        <time>2013-05-24T18:15:03Z</time>
      </trkpt>
      <trkpt lat="59.9511807" lon="17.6680767">
        <ele>15.5184</ele>
        <time>2013-05-24T18:15:04Z</time>
      </trkpt>
      <trkpt lat="59.9511008" lon="17.6681078">
        <ele>15.5184</ele>
        <time>2013-05-24T18:15:05Z</time>
      </trkpt>
      <trkpt lat="59.9510205" lon="17.6681345">
        <ele>15.999</ele>
        <time>2013-05-24T18:15:06Z</time>
      </trkpt>
      <trkpt lat="59.9509406" lon="17.6681548">
        <ele>15.999</ele>
        <time>2013-05-24T18:15:07Z</time>
      </trkpt>
      <trkpt lat="59.950861" lon="17.6681728">
        <ele>16.4797</ele>
        <time>2013-05-24T18:15:08Z</time>
      </trkpt>
      <trkpt lat="59.9507822" lon="17.6681912">
        <ele>16.4797</ele>
        <time>2013-05-24T18:15:09Z</time>
      </trkpt>
      <trkpt lat="59.9507024" lon="17.6682072">
        <ele>16.4797</ele>
        <time>2013-05-24T18:15:10Z</time>
      </trkpt>
      <trkpt lat="59.9506211" lon="17.6682185">
        <ele>16.9604</ele>
        <time>2013-05-24T18:15:11Z</time>
      </trkpt>
      <trkpt lat="59.9505396" lon="17.6682254">
        <ele>16.9604</ele>
        <time>2013-05-24T18:15:12Z</time>
      </trkpt>
      <trkpt lat="59.9504577" lon="17.6682294">
        <ele>16.9604</ele>
        <time>2013-05-24T18:15:13Z</time>
      </trkpt>
      <trkpt lat="59.9503749" lon="17.66823">
        <ele>17.4412</ele>
        <time>2013-05-24T18:15:14Z</time>
      </trkpt>
      <trkpt lat="59.9502917" lon="17.6682278">
        <ele>17.4412</ele>
        <time>2013-05-24T18:15:15Z</time>
      </trkpt>
      <trkpt lat="59.9502103" lon="17.6682166">
        <ele>17.9218</ele>
        <time>2013-05-24T18:15:16Z</time>
      </trkpt>
      <trkpt lat="59.9501301" lon="17.6681985">
        <ele>17.9218</ele>
        <time>2013-05-24T18:15:17Z</time>
      </trkpt>
      <trkpt lat="59.9500502" lon="17.668175">
        <ele>17.9218</ele>
        <time>2013-05-24T18:15:18Z</time>
      </trkpt>
      <trkpt lat="59.9499705" lon="17.6681461">
        <ele>18.4023</ele>
        <time>2013-05-24T18:15:19Z</time>
      </trkpt>
      <trkpt lat="59.9498903" lon="17.6681144">
        <ele>18.4023</ele>
        <time>2013-05-24T18:15:20Z</time>
      </trkpt>
      <trkpt lat="59.949808" lon="17.6680843">
        <ele>18.4023</ele>
        <time>2013-05-24T18:15:21Z</time>
      </trkpt>
      <trkpt lat="59.9497254" lon="17.6680527">
        <ele>18.4023</ele>
        <time>2013-05-24T18:15:22Z</time>
      </trkpt>
      <trkpt lat="59.9496422" lon="17.6680171">
        <ele>18.4023</ele>
        <time>2013-05-24T18:15:23Z</time>
      </trkpt>
      <trkpt lat="59.9495592" lon="17.6679765">
        <ele>18.4023</ele>
        <time>2013-05-24T18:15:24Z</time>
      </trkpt>
      <trkpt lat="59.9494761" lon="17.6679327">
        <ele>18.4023</ele>
        <time>2013-05-24T18:15:25Z</time>
      </trkpt>
      <trkpt lat="59.9493923" lon="17.6678871">
        <ele>18.4023</ele>
        <time>2013-05-24T18:15:26Z</time>
      </trkpt>
      <trkpt lat="59.949308" lon="17.6678408">
        <ele>18.4023</ele>
        <time>2013-05-24T18:15:27Z</time>
      </trkpt>
      <trkpt lat="59.9492229" lon="17.6677934">
        <ele>18.4023</ele>
        <time>2013-05-24T18:15:28Z</time>
      </trkpt>
      <trkpt lat="59.9491363" lon="17.6677447">
        <ele>18.4023</ele>
        <time>2013-05-24T18:15:29Z</time>
      </trkpt>
      <trkpt lat="59.949049" lon="17.6676954">
        <ele>18.4023</ele>
        <time>2013-05-24T18:15:30Z</time>
      </trkpt>
      <trkpt lat="59.948961" lon="17.6676466">
        <ele>18.8831</ele>
        <time>2013-05-24T18:15:31Z</time>
      </trkpt>
      <trkpt lat="59.9488724" lon="17.6675976">
        <ele>18.8831</ele>
        <time>2013-05-24T18:15:32Z</time>
      </trkpt>
      <trkpt lat="59.9487838" lon="17.6675479">
        <ele>18.8831</ele>
        <time>2013-05-24T18:15:33Z</time>
      </trkpt>
      <trkpt lat="59.9486948" lon="17.667498">
        <ele>18.4023</ele>
        <time>2013-05-24T18:15:34Z</time>
      </trkpt>
      <trkpt lat="59.9486053" lon="17.6674486">
        <ele>18.8831</ele>
        <time>2013-05-24T18:15:35Z</time>
      </trkpt>
      <trkpt lat="59.948516" lon="17.6673987">
        <ele>18.8831</ele>
        <time>2013-05-24T18:15:36Z</time>
      </trkpt>
      <trkpt lat="59.9484273" lon="17.6673466">
        <ele>18.8831</ele>
        <time>2013-05-24T18:15:37Z</time>
      </trkpt>
      <trkpt lat="59.9483387" lon="17.6672944">
        <ele>18.8831</ele>
        <time>2013-05-24T18:15:38Z</time>
      </trkpt>
      <trkpt lat="59.9482503" lon="17.667244">
        <ele>18.8831</ele>
        <time>2013-05-24T18:15:39Z</time>
      </trkpt>
      <trkpt lat="59.9481622" lon="17.6671949">
        <ele>18.8831</ele>
        <time>2013-05-24T18:15:40Z</time>
      </trkpt>
      <trkpt lat="59.9480746" lon="17.6671479">
        <ele>19.3638</ele>
        <time>2013-05-24T18:15:41Z</time>
      </trkpt>
      <trkpt lat="59.9479874" lon="17.6671017">
        <ele>18.8831</ele>
        <time>2013-05-24T18:15:42Z</time>
      </trkpt>
      <trkpt lat="59.9478999" lon="17.6670545">
        <ele>18.8831</ele>
        <time>2013-05-24T18:15:43Z</time>
      </trkpt>
      <trkpt lat="59.9478119" lon="17.6670079">
        <ele>18.8831</ele>
        <time>2013-05-24T18:15:44Z</time>
      </trkpt>
      <trkpt lat="59.9477233" lon="17.6669619">
        <ele>19.3638</ele>
        <time>2013-05-24T18:15:45Z</time>
      </trkpt>
      <trkpt lat="59.9476337" lon="17.6669164">
        <ele>19.3638</ele>
        <time>2013-05-24T18:15:46Z</time>
      </trkpt>
      <trkpt lat="59.9475431" lon="17.6668723">
        <ele>19.3638</ele>
        <time>2013-05-24T18:15:47Z</time>
      </trkpt>
      <trkpt lat="59.9474521" lon="17.6668299">
        <ele>19.3638</ele>
        <time>2013-05-24T18:15:48Z</time>
      </trkpt>
      <trkpt lat="59.9473616" lon="17.6667877">
        <ele>19.3638</ele>
        <time>2013-05-24T18:15:49Z</time>
      </trkpt>
      <trkpt lat="59.9472712" lon="17.6667459">
        <ele>19.8444</ele>
        <time>2013-05-24T18:15:50Z</time>
      </trkpt>
      <trkpt lat="59.9471814" lon="17.6667066">
        <ele>19.8444</ele>
        <time>2013-05-24T18:15:51Z</time>
      </trkpt>
      <trkpt lat="59.9470914" lon="17.6666698">
        <ele>19.8444</ele>
        <time>2013-05-24T18:15:52Z</time>
      </trkpt>
      <trkpt lat="59.9470026" lon="17.6666329">
        <ele>19.8444</ele>
        <time>2013-05-24T18:15:53Z</time>
      </trkpt>
      <trkpt lat="59.946914" lon="17.6665989">
        <ele>19.8444</ele>
        <time>2013-05-24T18:15:54Z</time>
      </trkpt>
      <trkpt lat="59.9468252" lon="17.6665668">
        <ele>20.325</ele>
        <time>2013-05-24T18:15:55Z</time>
      </trkpt>
      <trkpt lat="59.9467358" lon="17.6665405">
        <ele>20.325</ele>
        <time>2013-05-24T18:15:56Z</time>
      </trkpt>
      <trkpt lat="59.9466465" lon="17.6665229">
        <ele>20.325</ele>
        <time>2013-05-24T18:15:57Z</time>
      </trkpt>
      <trkpt lat="59.9465573" lon="17.6665076">
        <ele>20.325</ele>
        <time>2013-05-24T18:15:58Z</time>
      </trkpt>
      <trkpt lat="59.9464676" lon="17.6664856">
        <ele>20.325</ele>
        <time>2013-05-24T18:15:59Z</time>
      </trkpt>
      <trkpt lat="59.9463781" lon="17.6664518">
        <ele>20.325</ele>
        <time>2013-05-24T18:16:00Z</time>
      </trkpt>
      <trkpt lat="59.9462901" lon="17.6664049">
        <ele>20.325</ele>
        <time>2013-05-24T18:16:01Z</time>
      </trkpt>
      <trkpt lat="59.9462034" lon="17.66635">
        <ele>20.325</ele>
        <time>2013-05-24T18:16:02Z</time>
      </trkpt>
      <trkpt lat="59.9461164" lon="17.6662972">
        <ele>20.325</ele>
        <time>2013-05-24T18:16:03Z</time>
      </trkpt>
      <trkpt lat="59.946028" lon="17.6662527">
        <ele>20.8057</ele>
        <time>2013-05-24T18:16:04Z</time>
      </trkpt>
      <trkpt lat="59.9459392" lon="17.6662163">
        <ele>20.8057</ele>
        <time>2013-05-24T18:16:05Z</time>
      </trkpt>
      <trkpt lat="59.9458504" lon="17.6661828">
        <ele>20.8057</ele>
        <time>2013-05-24T18:16:06Z</time>
      </trkpt>
      <trkpt lat="59.9457622" lon="17.6661491">
        <ele>20.8057</ele>
        <time>2013-05-24T18:16:07Z</time>
      </trkpt>
      <trkpt lat="59.9456744" lon="17.6661155">
        <ele>20.8057</ele>
        <time>2013-05-24T18:16:08Z</time>
      </trkpt>
      <trkpt lat="59.945587" lon="17.6660838">
        <ele>20.8057</ele>
        <time>2013-05-24T18:16:09Z</time>
      </trkpt>
      <trkpt lat="59.9454996" lon="17.6660528">
        <ele>20.8057</ele>
        <time>2013-05-24T18:16:10Z</time>
      </trkpt>
      <trkpt lat="59.9454124" lon="17.6660205">
        <ele>21.2864</ele>
        <time>2013-05-24T18:16:11Z</time>
      </trkpt>
      <trkpt lat="59.945325" lon="17.6659878">
        <ele>21.2864</ele>
        <time>2013-05-24T18:16:12Z</time>
      </trkpt>
      <trkpt lat="59.9452384" lon="17.6659543">
        <ele>21.2864</ele>
        <time>2013-05-24T18:16:13Z</time>
      </trkpt>
      <trkpt lat="59.945152" lon="17.66592">
        <ele>21.2864</ele>
        <time>2013-05-24T18:16:14Z</time>
      </trkpt>
      <trkpt lat="59.945066" lon="17.6658865">
        <ele>21.2864</ele>
        <time>2013-05-24T18:16:15Z</time>
      </trkpt>
      <trkpt lat="59.9449806" lon="17.665854">
        <ele>21.2864</ele>
        <time>2013-05-24T18:16:16Z</time>
      </trkpt>
      <trkpt lat="59.9448957" lon="17.6658222">
        <ele>21.2864</ele>
        <time>2013-05-24T18:16:17Z</time>
      </trkpt>
      <trkpt lat="59.9448111" lon="17.6657915">
        <ele>21.2864</ele>
        <time>2013-05-24T18:16:18Z</time>
      </trkpt>
      <trkpt lat="59.9447267" lon="17.6657602">
        <ele>21.2864</ele>
        <time>2013-05-24T18:16:19Z</time>
      </trkpt>
      <trkpt lat="59.9446422" lon="17.665729">
        <ele>21.2864</ele>
        <time>2013-05-24T18:16:20Z</time>
      </trkpt>
      <trkpt lat="59.9445578" lon="17.6656979">
        <ele>21.2864</ele>
        <time>2013-05-24T18:16:21Z</time>
      </trkpt>
      <trkpt lat="59.944474" lon="17.6656643">
        <ele>21.767</ele>
        <time>2013-05-24T18:16:22Z</time>
      </trkpt>
      <trkpt lat="59.9443906" lon="17.6656292">
        <ele>21.767</ele>
        <time>2013-05-24T18:16:23Z</time>
      </trkpt>
      <trkpt lat="59.9443074" lon="17.6655955">
        <ele>21.767</ele>
        <time>2013-05-24T18:16:24Z</time>
      </trkpt>
      <trkpt lat="59.9442241" lon="17.6655629">
        <ele>21.767</ele>
        <time>2013-05-24T18:16:25Z</time>
      </trkpt>
      <trkpt lat="59.9441411" lon="17.6655275">
        <ele>21.767</ele>
        <time>2013-05-24T18:16:26Z</time>
      </trkpt>
      <trkpt lat="59.9440583" lon="17.6654896">
        <ele>21.767</ele>
        <time>2013-05-24T18:16:27Z</time>
      </trkpt>
      <trkpt lat="59.9439762" lon="17.6654501">
        <ele>22.2476</ele>
        <time>2013-05-24T18:16:28Z</time>
      </trkpt>
      <trkpt lat="59.9438948" lon="17.66541">
        <ele>22.2476</ele>
        <time>2013-05-24T18:16:29Z</time>
      </trkpt>
      <trkpt lat="59.943814" lon="17.6653683">
        <ele>22.7283</ele>
        <time>2013-05-24T18:16:30Z</time>
      </trkpt>
      <trkpt lat="59.9437342" lon="17.6653224">
        <ele>22.7283</ele>
        <time>2013-05-24T18:16:31Z</time>
      </trkpt>
      <trkpt lat="59.9436554" lon="17.6652719">
        <ele>22.7283</ele>
        <time>2013-05-24T18:16:32Z</time>
      </trkpt>
      <trkpt lat="59.9435777" lon="17.6652184">
        <ele>23.209</ele>
        <time>2013-05-24T18:16:33Z</time>
      </trkpt>
      <trkpt lat="59.9435005" lon="17.6651644">
        <ele>23.209</ele>
        <time>2013-05-24T18:16:34Z</time>
      </trkpt>
      <trkpt lat="59.9434234" lon="17.6651099">
        <ele>23.209</ele>
        <time>2013-05-24T18:16:35Z</time>
      </trkpt>
      <trkpt lat="59.9433472" lon="17.6650534">
        <ele>23.6896</ele>
        <time>2013-05-24T18:16:36Z</time>
      </trkpt>
      <trkpt lat="59.9432715" lon="17.6649939">
        <ele>23.6896</ele>
        <time>2013-05-24T18:16:37Z</time>
      </trkpt>
      <trkpt lat="59.9431965" lon="17.6649308">
        <ele>24.1703</ele>
        <time>2013-05-24T18:16:38Z</time>
      </trkpt>
      <trkpt lat="59.943122" lon="17.664865">
        <ele>24.1703</ele>
        <time>2013-05-24T18:16:39Z</time>
      </trkpt>
      <trkpt lat="59.9430483" lon="17.6647982">
        <ele>24.1703</ele>
        <time>2013-05-24T18:16:40Z</time>
      </trkpt>
      <trkpt lat="59.9429753" lon="17.6647306">
        <ele>24.651</ele>
        <time>2013-05-24T18:16:41Z</time>
      </trkpt>
      <trkpt lat="59.9429026" lon="17.6646625">
        <ele>24.651</ele>
        <time>2013-05-24T18:16:42Z</time>
      </trkpt>
      <trkpt lat="59.9428311" lon="17.6645923">
        <ele>24.651</ele>
        <time>2013-05-24T18:16:43Z</time>
      </trkpt>
      <trkpt lat="59.9427609" lon="17.6645184">
        <ele>24.651</ele>
        <time>2013-05-24T18:16:44Z</time>
      </trkpt>
      <trkpt lat="59.9426925" lon="17.6644416">
        <ele>25.1317</ele>
        <time>2013-05-24T18:16:45Z</time>
      </trkpt>
      <trkpt lat="59.9426251" lon="17.664364">
        <ele>25.1317</ele>
        <time>2013-05-24T18:16:46Z</time>
      </trkpt>
      <trkpt lat="59.9425581" lon="17.6642859">
        <ele>25.1317</ele>
        <time>2013-05-24T18:16:47Z</time>
      </trkpt>
      <trkpt lat="59.942492" lon="17.6642054">
        <ele>25.1317</ele>
        <time>2013-05-24T18:16:48Z</time>
      </trkpt>
      <trkpt lat="59.942427" lon="17.6641237">
        <ele>25.6123</ele>
        <time>2013-05-24T18:16:49Z</time>
      </trkpt>
      <trkpt lat="59.9423623" lon="17.6640412">
        <ele>25.6123</ele>
        <time>2013-05-24T18:16:50Z</time>
      </trkpt>
      <trkpt lat="59.9422981" lon="17.6639555">
        <ele>25.6123</ele>
        <time>2013-05-24T18:16:51Z</time>
      </trkpt>
      <trkpt lat="59.9422355" lon="17.6638669">
        <ele>25.6123</ele>
        <time>2013-05-24T18:16:52Z</time>
      </trkpt>
      <trkpt lat="59.9421729" lon="17.6637775">
        <ele>25.6123</ele>
        <time>2013-05-24T18:16:53Z</time>
      </trkpt>
      <trkpt lat="59.9421103" lon="17.6636884">
        <ele>25.6123</ele>
        <time>2013-05-24T18:16:54Z</time>
      </trkpt>
      <trkpt lat="59.9420489" lon="17.6635967">
        <ele>25.6123</ele>
        <time>2013-05-24T18:16:55Z</time>
      </trkpt>
      <trkpt lat="59.9419881" lon="17.6635011">
        <ele>25.6123</ele>
        <time>2013-05-24T18:16:56Z</time>
      </trkpt>
      <trkpt lat="59.9419278" lon="17.6634033">
        <ele>26.0929</ele>
        <time>2013-05-24T18:16:57Z</time>
      </trkpt>
      <trkpt lat="59.9418681" lon="17.6633047">
        <ele>25.6123</ele>
        <time>2013-05-24T18:16:58Z</time>
      </trkpt>
      <trkpt lat="59.9418098" lon="17.6632026">
        <ele>25.6123</ele>
        <time>2013-05-24T18:16:59Z</time>
      </trkpt>
      <trkpt lat="59.9417521" lon="17.6630979">
        <ele>25.6123</ele>
        <time>2013-05-24T18:17:00Z</time>
      </trkpt>
      <trkpt lat="59.9416946" lon="17.662993">
        <ele>25.6123</ele>
        <time>2013-05-24T18:17:01Z</time>
      </trkpt>
      <trkpt lat="59.9416378" lon="17.6628867">
        <ele>25.1317</ele>
        <time>2013-05-24T18:17:02Z</time>
      </trkpt>
      <trkpt lat="59.9415802" lon="17.6627785">
        <ele>25.1317</ele>
        <time>2013-05-24T18:17:03Z</time>
      </trkpt>
      <trkpt lat="59.9415263" lon="17.662669">
        <ele>24.651</ele>
        <time>2013-05-24T18:17:04Z</time>
      </trkpt>
      <trkpt lat="59.9414667" lon="17.6625717">
        <ele>24.1703</ele>
        <time>2013-05-24T18:17:05Z</time>
      </trkpt>
      <trkpt lat="59.9414021" lon="17.6624843">
        <ele>24.1703</ele>
        <time>2013-05-24T18:17:06Z</time>
      </trkpt>
      <trkpt lat="59.9413304" lon="17.6624061">
        <ele>24.1703</ele>
        <time>2013-05-24T18:17:07Z</time>
      </trkpt>
      <trkpt lat="59.941256" lon="17.662335">
        <ele>24.1703</ele>
        <time>2013-05-24T18:17:08Z</time>
      </trkpt>
      <trkpt lat="59.9411799" lon="17.6622713">
        <ele>23.6896</ele>
        <time>2013-05-24T18:17:09Z</time>
      </trkpt>
      <trkpt lat="59.9411027" lon="17.6622148">
        <ele>23.6896</ele>
        <time>2013-05-24T18:17:10Z</time>
      </trkpt>
      <trkpt lat="59.9410243" lon="17.6621688">
        <ele>23.6896</ele>
        <time>2013-05-24T18:17:11Z</time>
      </trkpt>
      <trkpt lat="59.9409437" lon="17.6621366">
        <ele>23.6896</ele>
        <time>2013-05-24T18:17:12Z</time>
      </trkpt>
      <trkpt lat="59.9408614" lon="17.6621154">
        <ele>23.6896</ele>
        <time>2013-05-24T18:17:13Z</time>
      </trkpt>
      <trkpt lat="59.9407801" lon="17.6620981">
        <ele>23.6896</ele>
        <time>2013-05-24T18:17:14Z</time>
      </trkpt>
      <trkpt lat="59.9406993" lon="17.662075">
        <ele>23.6896</ele>
        <time>2013-05-24T18:17:15Z</time>
      </trkpt>
      <trkpt lat="59.9406184" lon="17.6620304">
        <ele>23.6896</ele>
        <time>2013-05-24T18:17:16Z</time>
      </trkpt>
      <trkpt lat="59.9405422" lon="17.6619521">
        <ele>23.6896</ele>
        <time>2013-05-24T18:17:17Z</time>
      </trkpt>
      <trkpt lat="59.9404774" lon="17.6618357">
        <ele>23.6896</ele>
        <time>2013-05-24T18:17:18Z</time>
      </trkpt>
      <trkpt lat="59.9404292" lon="17.661688">
        <ele>23.6896</ele>
        <time>2013-05-24T18:17:19Z</time>
      </trkpt>
      <trkpt lat="59.9403995" lon="17.6615154">
        <ele>24.1703</ele>
        <time>2013-05-24T18:17:20Z</time>
      </trkpt>
      <trkpt lat="59.9403847" lon="17.6613265">
        <ele>24.1703</ele>
        <time>2013-05-24T18:17:21Z</time>
      </trkpt>
      <trkpt lat="59.9403795" lon="17.6611353">
        <ele>24.1703</ele>
        <time>2013-05-24T18:17:22Z</time>
      </trkpt>
      <trkpt lat="59.9403942" lon="17.6609451">
        <ele>25.1317</ele>
        <time>2013-05-24T18:17:23Z</time>
      </trkpt>
      <trkpt lat="59.9404278" lon="17.6607696">
        <ele>25.1317</ele>
        <time>2013-05-24T18:17:24Z</time>
      </trkpt>
      <trkpt lat="59.9404706" lon="17.6606121">
        <ele>25.6123</ele>
        <time>2013-05-24T18:17:25Z</time>
      </trkpt>
      <trkpt lat="59.940508" lon="17.6604651">
        <ele>25.6123</ele>
        <time>2013-05-24T18:17:26Z</time>
      </trkpt>
      <trkpt lat="59.9405348" lon="17.6603221">
        <ele>26.0929</ele>
        <time>2013-05-24T18:17:27Z</time>
      </trkpt>
      <trkpt lat="59.9405522" lon="17.6601659">
        <ele>26.5736</ele>
        <time>2013-05-24T18:17:28Z</time>
      </trkpt>
      <trkpt lat="59.9405356" lon="17.6599589">
        <ele>27.5349</ele>
        <time>2013-05-24T18:17:29Z</time>
      </trkpt>
      <trkpt lat="59.9405169" lon="17.6598527">
        <ele>27.5349</ele>
        <time>2013-05-24T18:17:30Z</time>
      </trkpt>
      <trkpt lat="59.9404936" lon="17.6597631">
        <ele>27.5349</ele>
        <time>2013-05-24T18:17:31Z</time>
      </trkpt>
      <trkpt lat="59.9404227" lon="17.6596383">
        <ele>26.5736</ele>
        <time>2013-05-24T18:17:32Z</time>
      </trkpt>
      <trkpt lat="59.9403791" lon="17.6595015">
        <ele>26.0929</ele>
        <time>2013-05-24T18:17:33Z</time>
      </trkpt>
      <trkpt lat="59.9403495" lon="17.6593518">
        <ele>25.6123</ele>
        <time>2013-05-24T18:17:34Z</time>
      </trkpt>
      <trkpt lat="59.9403138" lon="17.6591906">
        <ele>24.651</ele>
        <time>2013-05-24T18:17:35Z</time>
      </trkpt>
      <trkpt lat="59.940281" lon="17.6590248">
        <ele>24.1703</ele>
        <time>2013-05-24T18:17:36Z</time>
      </trkpt>
      <trkpt lat="59.940249" lon="17.6588581">
        <ele>23.6896</ele>
        <time>2013-05-24T18:17:37Z</time>
      </trkpt>
      <trkpt lat="59.9402172" lon="17.6586941">
        <ele>23.209</ele>
        <time>2013-05-24T18:17:38Z</time>
      </trkpt>
      <trkpt lat="59.9401838" lon="17.6585218">
        <ele>23.209</ele>
        <time>2013-05-24T18:17:39Z</time>
      </trkpt>
      <trkpt lat="59.9401475" lon="17.6583463">
        <ele>24.1703</ele>
        <time>2013-05-24T18:17:40Z</time>
      </trkpt>
      <trkpt lat="59.9401117" lon="17.6581726">
        <ele>24.1703</ele>
        <time>2013-05-24T18:17:41Z</time>
      </trkpt>
      <trkpt lat="59.9400768" lon="17.6580102">
        <ele>24.1703</ele>
        <time>2013-05-24T18:17:42Z</time>
      </trkpt>
      <trkpt lat="59.9400428" lon="17.6578514">
        <ele>24.1703</ele>
        <time>2013-05-24T18:17:43Z</time>
      </trkpt>
      <trkpt lat="59.940009" lon="17.6577047">
        <ele>24.1703</ele>
        <time>2013-05-24T18:17:44Z</time>
      </trkpt>
      <trkpt lat="59.939976" lon="17.6575559">
        <ele>24.1703</ele>
        <time>2013-05-24T18:17:45Z</time>
      </trkpt>
      <trkpt lat="59.9399429" lon="17.657404">
        <ele>23.6896</ele>
        <time>2013-05-24T18:17:46Z</time>
      </trkpt>
      <trkpt lat="59.939909" lon="17.6572526">
        <ele>23.6896</ele>
        <time>2013-05-24T18:17:47Z</time>
      </trkpt>
      <trkpt lat="59.9398745" lon="17.6571035">
        <ele>23.6896</ele>
        <time>2013-05-24T18:17:48Z</time>
      </trkpt>
      <trkpt lat="59.9398394" lon="17.6569533">
        <ele>23.209</ele>
        <time>2013-05-24T18:17:49Z</time>
      </trkpt>
      <trkpt lat="59.939804" lon="17.6567954">
        <ele>23.209</ele>
        <time>2013-05-24T18:17:50Z</time>
      </trkpt>
      <trkpt lat="59.9397705" lon="17.6566354">
        <ele>23.6896</ele>
        <time>2013-05-24T18:17:51Z</time>
      </trkpt>
      <trkpt lat="59.9397377" lon="17.6564721">
        <ele>24.1703</ele>
        <time>2013-05-24T18:17:52Z</time>
      </trkpt>
      <trkpt lat="59.9397061" lon="17.6563105">
        <ele>25.1317</ele>
        <time>2013-05-24T18:17:53Z</time>
      </trkpt>
      <trkpt lat="59.9396752" lon="17.6561504">
        <ele>25.6123</ele>
        <time>2013-05-24T18:17:54Z</time>
      </trkpt>
      <trkpt lat="59.939645" lon="17.6559982">
        <ele>25.6123</ele>
        <time>2013-05-24T18:17:55Z</time>
      </trkpt>
      <trkpt lat="59.9396135" lon="17.6558527">
        <ele>25.6123</ele>
        <time>2013-05-24T18:17:56Z</time>
      </trkpt>
      <trkpt lat="59.9395827" lon="17.6557143">
        <ele>25.1317</ele>
        <time>2013-05-24T18:17:57Z</time>
      </trkpt>
      <trkpt lat="59.9395513" lon="17.6555712">
        <ele>25.1317</ele>
        <time>2013-05-24T18:17:58Z</time>
      </trkpt>
      <trkpt lat="59.9395198" lon="17.6554236">
        <ele>25.1317</ele>
        <time>2013-05-24T18:17:59Z</time>
      </trkpt>
      <trkpt lat="59.9394894" lon="17.655275">
        <ele>25.6123</ele>
        <time>2013-05-24T18:18:00Z</time>
      </trkpt>
      <trkpt lat="59.9394602" lon="17.6551263">
        <ele>25.6123</ele>
        <time>2013-05-24T18:18:01Z</time>
      </trkpt>
      <trkpt lat="59.9394316" lon="17.6549794">
        <ele>25.6123</ele>
        <time>2013-05-24T18:18:02Z</time>
      </trkpt>
      <trkpt lat="59.9394026" lon="17.6548315">
        <ele>25.1317</ele>
        <time>2013-05-24T18:18:03Z</time>
      </trkpt>
      <trkpt lat="59.9393731" lon="17.6546845">
        <ele>25.1317</ele>
        <time>2013-05-24T18:18:04Z</time>
      </trkpt>
      <trkpt lat="59.9393423" lon="17.6545351">
        <ele>25.6123</ele>
        <time>2013-05-24T18:18:05Z</time>
      </trkpt>
      <trkpt lat="59.9393113" lon="17.6543871">
        <ele>25.6123</ele>
        <time>2013-05-24T18:18:06Z</time>
      </trkpt>
      <trkpt lat="59.9392799" lon="17.6542384">
        <ele>25.6123</ele>
        <time>2013-05-24T18:18:07Z</time>
      </trkpt>
      <trkpt lat="59.9392487" lon="17.6540881">
        <ele>25.6123</ele>
        <time>2013-05-24T18:18:08Z</time>
      </trkpt>
      <trkpt lat="59.939217" lon="17.6539327">
        <ele>26.0929</ele>
        <time>2013-05-24T18:18:09Z</time>
      </trkpt>
      <trkpt lat="59.9391857" lon="17.6537781">
        <ele>26.0929</ele>
        <time>2013-05-24T18:18:10Z</time>
      </trkpt>
      <trkpt lat="59.939154" lon="17.653624">
        <ele>26.0929</ele>
        <time>2013-05-24T18:18:11Z</time>
      </trkpt>
      <trkpt lat="59.9391203" lon="17.6534722">
        <ele>26.5736</ele>
        <time>2013-05-24T18:18:12Z</time>
      </trkpt>
      <trkpt lat="59.9390851" lon="17.6533213">
        <ele>26.5736</ele>
        <time>2013-05-24T18:18:13Z</time>
      </trkpt>
      <trkpt lat="59.9390486" lon="17.6531689">
        <ele>27.0543</ele>
        <time>2013-05-24T18:18:14Z</time>
      </trkpt>
      <trkpt lat="59.939011" lon="17.6530171">
        <ele>27.0543</ele>
        <time>2013-05-24T18:18:15Z</time>
      </trkpt>
      <trkpt lat="59.9389729" lon="17.6528706">
        <ele>27.5349</ele>
        <time>2013-05-24T18:18:16Z</time>
      </trkpt>
      <trkpt lat="59.9389331" lon="17.6527233">
        <ele>27.0543</ele>
        <time>2013-05-24T18:18:17Z</time>
      </trkpt>
      <trkpt lat="59.9388924" lon="17.6525736">
        <ele>27.0543</ele>
        <time>2013-05-24T18:18:18Z</time>
      </trkpt>
      <trkpt lat="59.9388512" lon="17.6524193">
        <ele>27.5349</ele>
        <time>2013-05-24T18:18:19Z</time>
      </trkpt>
      <trkpt lat="59.9388079" lon="17.6522577">
        <ele>28.0155</ele>
        <time>2013-05-24T18:18:20Z</time>
      </trkpt>
      <trkpt lat="59.9387643" lon="17.6520979">
        <ele>28.4962</ele>
        <time>2013-05-24T18:18:21Z</time>
      </trkpt>
      <trkpt lat="59.938721" lon="17.6519427">
        <ele>28.4962</ele>
        <time>2013-05-24T18:18:22Z</time>
      </trkpt>
      <trkpt lat="59.9386773" lon="17.6517941">
        <ele>28.4962</ele>
        <time>2013-05-24T18:18:23Z</time>
      </trkpt>
      <trkpt lat="59.9386323" lon="17.6516427">
        <ele>28.4962</ele>
        <time>2013-05-24T18:18:24Z</time>
      </trkpt>
      <trkpt lat="59.9385862" lon="17.6514899">
        <ele>28.4962</ele>
        <time>2013-05-24T18:18:25Z</time>
      </trkpt>
      <trkpt lat="59.9385406" lon="17.6513372">
        <ele>28.9769</ele>
        <time>2013-05-24T18:18:26Z</time>
      </trkpt>
      <trkpt lat="59.9384924" lon="17.6511816">
        <ele>29.4575</ele>
        <time>2013-05-24T18:18:27Z</time>
      </trkpt>
      <trkpt lat="59.9384431" lon="17.6510315">
        <ele>29.9381</ele>
        <time>2013-05-24T18:18:28Z</time>
      </trkpt>
      <trkpt lat="59.9383903" lon="17.6508928">
        <ele>30.4188</ele>
        <time>2013-05-24T18:18:29Z</time>
      </trkpt>
      <trkpt lat="59.9383267" lon="17.6507654">
        <ele>30.8995</ele>
        <time>2013-05-24T18:18:30Z</time>
      </trkpt>
      <trkpt lat="59.9382624" lon="17.650634">
        <ele>31.8607</ele>
        <time>2013-05-24T18:18:31Z</time>
      </trkpt>
      <trkpt lat="59.9382018" lon="17.6505037">
        <ele>32.3416</ele>
        <time>2013-05-24T18:18:32Z</time>
      </trkpt>
      <trkpt lat="59.938145" lon="17.6503698">
        <ele>32.3416</ele>
        <time>2013-05-24T18:18:33Z</time>
      </trkpt>
      <trkpt lat="59.9380915" lon="17.6502347">
        <ele>32.8223</ele>
        <time>2013-05-24T18:18:34Z</time>
      </trkpt>
      <trkpt lat="59.9380406" lon="17.6500965">
        <ele>33.3029</ele>
        <time>2013-05-24T18:18:35Z</time>
      </trkpt>
      <trkpt lat="59.9379895" lon="17.6499557">
        <ele>33.3029</ele>
        <time>2013-05-24T18:18:36Z</time>
      </trkpt>
      <trkpt lat="59.9379366" lon="17.6498221">
        <ele>33.7834</ele>
        <time>2013-05-24T18:18:37Z</time>
      </trkpt>
      <trkpt lat="59.9378813" lon="17.649697">
        <ele>34.2642</ele>
        <time>2013-05-24T18:18:38Z</time>
      </trkpt>
      <trkpt lat="59.9378243" lon="17.6495752">
        <ele>33.7834</ele>
        <time>2013-05-24T18:18:39Z</time>
      </trkpt>
      <trkpt lat="59.9377714" lon="17.6494486">
        <ele>34.2642</ele>
        <time>2013-05-24T18:18:40Z</time>
      </trkpt>
      <trkpt lat="59.9377228" lon="17.6493149">
        <ele>34.2642</ele>
        <time>2013-05-24T18:18:41Z</time>
      </trkpt>
      <trkpt lat="59.9376714" lon="17.6491787">
        <ele>35.7061</ele>
        <time>2013-05-24T18:18:42Z</time>
      </trkpt>
      <trkpt lat="59.9376199" lon="17.6490568">
        <ele>37.1481</ele>
        <time>2013-05-24T18:18:43Z</time>
      </trkpt>
      <trkpt lat="59.9375642" lon="17.6489418">
        <ele>38.1094</ele>
        <time>2013-05-24T18:18:44Z</time>
      </trkpt>
      <trkpt lat="59.9375148" lon="17.6488215">
        <ele>39.0707</ele>
        <time>2013-05-24T18:18:45Z</time>
      </trkpt>
      <trkpt lat="59.93747" lon="17.6486948">
        <ele>40.0321</ele>
        <time>2013-05-24T18:18:46Z</time>
      </trkpt>
      <trkpt lat="59.9374248" lon="17.6485755">
        <ele>40.5128</ele>
        <time>2013-05-24T18:18:47Z</time>
      </trkpt>
      <trkpt lat="59.937377" lon="17.6484622">
        <ele>40.9934</ele>
        <time>2013-05-24T18:18:48Z</time>
      </trkpt>
      <trkpt lat="59.9373315" lon="17.6483476">
        <ele>41.474</ele>
        <time>2013-05-24T18:18:49Z</time>
      </trkpt>
      <trkpt lat="59.937283" lon="17.6482312">
        <ele>41.474</ele>
        <time>2013-05-24T18:18:50Z</time>
      </trkpt>
      <trkpt lat="59.9372242" lon="17.6481188">
        <ele>41.9547</ele>
        <time>2013-05-24T18:18:51Z</time>
      </trkpt>
      <trkpt lat="59.9371643" lon="17.6480162">
        <ele>41.474</ele>
        <time>2013-05-24T18:18:52Z</time>
      </trkpt>
      <trkpt lat="59.9371009" lon="17.6479271">
        <ele>41.474</ele>
        <time>2013-05-24T18:18:53Z</time>
      </trkpt>
      <trkpt lat="59.9370432" lon="17.6478613">
        <ele>39.5513</ele>
        <time>2013-05-24T18:18:54Z</time>
      </trkpt>
      <trkpt lat="59.9369813" lon="17.6477814">
        <ele>39.0707</ele>
        <time>2013-05-24T18:18:55Z</time>
      </trkpt>
      <trkpt lat="59.9369232" lon="17.6477138">
        <ele>37.6287</ele>
        <time>2013-05-24T18:18:56Z</time>
      </trkpt>
      <trkpt lat="59.9368678" lon="17.6476446">
        <ele>36.1868</ele>
        <time>2013-05-24T18:18:57Z</time>
      </trkpt>
      <trkpt lat="59.9368114" lon="17.6475707">
        <ele>34.2642</ele>
        <time>2013-05-24T18:18:58Z</time>
      </trkpt>
      <trkpt lat="59.9367519" lon="17.6474938">
        <ele>33.3029</ele>
        <time>2013-05-24T18:18:59Z</time>
      </trkpt>
      <trkpt lat="59.9366261" lon="17.6473287">
        <ele>31.8607</ele>
        <time>2013-05-24T18:19:01Z</time>
      </trkpt>
      <trkpt lat="59.9365598" lon="17.6472376">
        <ele>30.8995</ele>
        <time>2013-05-24T18:19:02Z</time>
      </trkpt>
      <trkpt lat="59.9364903" lon="17.6471458">
        <ele>30.4188</ele>
        <time>2013-05-24T18:19:03Z</time>
      </trkpt>
      <trkpt lat="59.9364219" lon="17.6470523">
        <ele>30.4188</ele>
        <time>2013-05-24T18:19:04Z</time>
      </trkpt>
      <trkpt lat="59.9363535" lon="17.6469621">
        <ele>29.9381</ele>
        <time>2013-05-24T18:19:05Z</time>
      </trkpt>
      <trkpt lat="59.9362858" lon="17.646875">
        <ele>29.9381</ele>
        <time>2013-05-24T18:19:06Z</time>
      </trkpt>
      <trkpt lat="59.936219" lon="17.6467868">
        <ele>29.4575</ele>
        <time>2013-05-24T18:19:07Z</time>
      </trkpt>
      <trkpt lat="59.9361516" lon="17.6466988">
        <ele>29.4575</ele>
        <time>2013-05-24T18:19:08Z</time>
      </trkpt>
      <trkpt lat="59.9360848" lon="17.6466119">
        <ele>28.9769</ele>
        <time>2013-05-24T18:19:09Z</time>
      </trkpt>
      <trkpt lat="59.9360198" lon="17.6465259">
        <ele>28.9769</ele>
        <time>2013-05-24T18:19:10Z</time>
      </trkpt>
      <trkpt lat="59.935955" lon="17.646441">
        <ele>28.4962</ele>
        <time>2013-05-24T18:19:11Z</time>
      </trkpt>
      <trkpt lat="59.9358898" lon="17.6463585">
        <ele>28.4962</ele>
        <time>2013-05-24T18:19:12Z</time>
      </trkpt>
      <trkpt lat="59.935821" lon="17.6462797">
        <ele>28.4962</ele>
        <time>2013-05-24T18:19:13Z</time>
      </trkpt>
      <trkpt lat="59.9357533" lon="17.6461991">
        <ele>28.0155</ele>
        <time>2013-05-24T18:19:14Z</time>
      </trkpt>
      <trkpt lat="59.9356857" lon="17.6461125">
        <ele>27.5349</ele>
        <time>2013-05-24T18:19:15Z</time>
      </trkpt>
      <trkpt lat="59.9356185" lon="17.6460239">
        <ele>27.0543</ele>
        <time>2013-05-24T18:19:16Z</time>
      </trkpt>
      <trkpt lat="59.9355536" lon="17.6459363">
        <ele>26.5736</ele>
        <time>2013-05-24T18:19:17Z</time>
      </trkpt>
      <trkpt lat="59.9354849" lon="17.6458561">
        <ele>26.0929</ele>
        <time>2013-05-24T18:19:18Z</time>
      </trkpt>
      <trkpt lat="59.9354147" lon="17.645783">
        <ele>26.0929</ele>
        <time>2013-05-24T18:19:19Z</time>
      </trkpt>
      <trkpt lat="59.9353422" lon="17.6457126">
        <ele>26.0929</ele>
        <time>2013-05-24T18:19:20Z</time>
      </trkpt>
      <trkpt lat="59.9352745" lon="17.6456309">
        <ele>26.0929</ele>
        <time>2013-05-24T18:19:21Z</time>
      </trkpt>
      <trkpt lat="59.9352071" lon="17.6455448">
        <ele>26.0929</ele>
        <time>2013-05-24T18:19:22Z</time>
      </trkpt>
      <trkpt lat="59.9351387" lon="17.6454617">
        <ele>26.0929</ele>
        <time>2013-05-24T18:19:23Z</time>
      </trkpt>
      <trkpt lat="59.9350682" lon="17.6453848">
        <ele>26.0929</ele>
        <time>2013-05-24T18:19:24Z</time>
      </trkpt>
      <trkpt lat="59.9349983" lon="17.6453111">
        <ele>26.0929</ele>
        <time>2013-05-24T18:19:25Z</time>
      </trkpt>
      <trkpt lat="59.934928" lon="17.6452371">
        <ele>26.0929</ele>
        <time>2013-05-24T18:19:26Z</time>
      </trkpt>
      <trkpt lat="59.9348574" lon="17.6451604">
        <ele>25.6123</ele>
        <time>2013-05-24T18:19:27Z</time>
      </trkpt>
      <trkpt lat="59.9347887" lon="17.6450792">
        <ele>25.6123</ele>
        <time>2013-05-24T18:19:28Z</time>
      </trkpt>
      <trkpt lat="59.9347198" lon="17.6449952">
        <ele>25.1317</ele>
        <time>2013-05-24T18:19:29Z</time>
      </trkpt>
      <trkpt lat="59.9346499" lon="17.6449093">
        <ele>25.1317</ele>
        <time>2013-05-24T18:19:30Z</time>
      </trkpt>
      <trkpt lat="59.9345803" lon="17.6448185">
        <ele>24.651</ele>
        <time>2013-05-24T18:19:31Z</time>
      </trkpt>
      <trkpt lat="59.9345121" lon="17.6447215">
        <ele>24.1703</ele>
        <time>2013-05-24T18:19:32Z</time>
      </trkpt>
      <trkpt lat="59.9344452" lon="17.6446149">
        <ele>23.209</ele>
        <time>2013-05-24T18:19:33Z</time>
      </trkpt>
      <trkpt lat="59.9343774" lon="17.6444999">
        <ele>22.2476</ele>
        <time>2013-05-24T18:19:34Z</time>
      </trkpt>
      <trkpt lat="59.9343059" lon="17.6443844">
        <ele>21.767</ele>
        <time>2013-05-24T18:19:35Z</time>
      </trkpt>
      <trkpt lat="59.9342301" lon="17.644278">
        <ele>21.2864</ele>
        <time>2013-05-24T18:19:36Z</time>
      </trkpt>
      <trkpt lat="59.9341544" lon="17.644175">
        <ele>21.2864</ele>
        <time>2013-05-24T18:19:37Z</time>
      </trkpt>
      <trkpt lat="59.9340785" lon="17.6440742">
        <ele>20.8057</ele>
        <time>2013-05-24T18:19:38Z</time>
      </trkpt>
      <trkpt lat="59.9339993" lon="17.6439776">
        <ele>20.8057</ele>
        <time>2013-05-24T18:19:39Z</time>
      </trkpt>
      <trkpt lat="59.9339209" lon="17.6438851">
        <ele>20.325</ele>
        <time>2013-05-24T18:19:40Z</time>
      </trkpt>
      <trkpt lat="59.9338407" lon="17.6437991">
        <ele>19.8444</ele>
        <time>2013-05-24T18:19:41Z</time>
      </trkpt>
      <trkpt lat="59.9337597" lon="17.6437189">
        <ele>19.3638</ele>
        <time>2013-05-24T18:19:42Z</time>
      </trkpt>
      <trkpt lat="59.933678" lon="17.6436338">
        <ele>19.3638</ele>
        <time>2013-05-24T18:19:43Z</time>
      </trkpt>
      <trkpt lat="59.9335932" lon="17.64354">
        <ele>19.3638</ele>
        <time>2013-05-24T18:19:44Z</time>
      </trkpt>
      <trkpt lat="59.9335113" lon="17.6434378">
        <ele>19.3638</ele>
        <time>2013-05-24T18:19:45Z</time>
      </trkpt>
      <trkpt lat="59.933429" lon="17.6433297">
        <ele>18.8831</ele>
        <time>2013-05-24T18:19:46Z</time>
      </trkpt>
      <trkpt lat="59.9333479" lon="17.6432116">
        <ele>18.4023</ele>
        <time>2013-05-24T18:19:47Z</time>
      </trkpt>
      <trkpt lat="59.9332641" lon="17.6430851">
        <ele>17.4412</ele>
        <time>2013-05-24T18:19:48Z</time>
      </trkpt>
      <trkpt lat="59.9331795" lon="17.6429541">
        <ele>16.4797</ele>
        <time>2013-05-24T18:19:49Z</time>
      </trkpt>
      <trkpt lat="59.9330921" lon="17.6428264">
        <ele>16.4797</ele>
        <time>2013-05-24T18:19:50Z</time>
      </trkpt>
      <trkpt lat="59.9330025" lon="17.6427061">
        <ele>15.999</ele>
        <time>2013-05-24T18:19:51Z</time>
      </trkpt>
      <trkpt lat="59.9329138" lon="17.6425848">
        <ele>15.5184</ele>
        <time>2013-05-24T18:19:52Z</time>
      </trkpt>
      <trkpt lat="59.9328305" lon="17.6424512">
        <ele>15.5184</ele>
        <time>2013-05-24T18:19:53Z</time>
      </trkpt>
      <trkpt lat="59.9327503" lon="17.6423133">
        <ele>15.0377</ele>
        <time>2013-05-24T18:19:54Z</time>
      </trkpt>
      <trkpt lat="59.9326664" lon="17.6421875">
        <ele>14.557</ele>
        <time>2013-05-24T18:19:55Z</time>
      </trkpt>
      <trkpt lat="59.9325751" lon="17.6420758">
        <ele>15.0377</ele>
        <time>2013-05-24T18:19:56Z</time>
      </trkpt>
      <trkpt lat="59.9324813" lon="17.6419789">
        <ele>15.0377</ele>
        <time>2013-05-24T18:19:57Z</time>
      </trkpt>
      <trkpt lat="59.932386" lon="17.641891">
        <ele>15.5184</ele>
        <time>2013-05-24T18:19:58Z</time>
      </trkpt>
      <trkpt lat="59.9322915" lon="17.6418058">
        <ele>15.5184</ele>
        <time>2013-05-24T18:19:59Z</time>
      </trkpt>
      <trkpt lat="59.932199" lon="17.6417213">
        <ele>15.5184</ele>
        <time>2013-05-24T18:20:00Z</time>
      </trkpt>
      <trkpt lat="59.9321098" lon="17.6416369">
        <ele>15.999</ele>
        <time>2013-05-24T18:20:01Z</time>
      </trkpt>
      <trkpt lat="59.9320229" lon="17.6415617">
        <ele>15.5184</ele>
        <time>2013-05-24T18:20:02Z</time>
      </trkpt>
      <trkpt lat="59.9319334" lon="17.6414954">
        <ele>15.0377</ele>
        <time>2013-05-24T18:20:03Z</time>
      </trkpt>
      <trkpt lat="59.9318395" lon="17.6414349">
        <ele>15.0377</ele>
        <time>2013-05-24T18:20:04Z</time>
      </trkpt>
      <trkpt lat="59.9317443" lon="17.6413746">
        <ele>15.0377</ele>
        <time>2013-05-24T18:20:05Z</time>
      </trkpt>
      <trkpt lat="59.9316499" lon="17.6413091">
        <ele>15.0377</ele>
        <time>2013-05-24T18:20:06Z</time>
      </trkpt>
      <trkpt lat="59.9315568" lon="17.6412428">
        <ele>15.0377</ele>
        <time>2013-05-24T18:20:07Z</time>
      </trkpt>
      <trkpt lat="59.9314647" lon="17.6411764">
        <ele>15.0377</ele>
        <time>2013-05-24T18:20:08Z</time>
      </trkpt>
      <trkpt lat="59.9313737" lon="17.6411112">
        <ele>15.0377</ele>
        <time>2013-05-24T18:20:09Z</time>
      </trkpt>
      <trkpt lat="59.9312781" lon="17.6410489">
        <ele>14.557</ele>
        <time>2013-05-24T18:20:10Z</time>
      </trkpt>
      <trkpt lat="59.9311792" lon="17.640981">
        <ele>14.0764</ele>
        <time>2013-05-24T18:20:11Z</time>
      </trkpt>
      <trkpt lat="59.9310776" lon="17.6409075">
        <ele>14.0764</ele>
        <time>2013-05-24T18:20:12Z</time>
      </trkpt>
      <trkpt lat="59.9309751" lon="17.6408427">
        <ele>14.0764</ele>
        <time>2013-05-24T18:20:13Z</time>
      </trkpt>
      <trkpt lat="59.9308695" lon="17.6407942">
        <ele>14.0764</ele>
        <time>2013-05-24T18:20:14Z</time>
      </trkpt>
      <trkpt lat="59.9307622" lon="17.6407672">
        <ele>14.0764</ele>
        <time>2013-05-24T18:20:15Z</time>
      </trkpt>
      <trkpt lat="59.9306559" lon="17.6407605">
        <ele>14.0764</ele>
        <time>2013-05-24T18:20:16Z</time>
      </trkpt>
      <trkpt lat="59.9305487" lon="17.6407699">
        <ele>13.5958</ele>
        <time>2013-05-24T18:20:17Z</time>
      </trkpt>
      <trkpt lat="59.9304395" lon="17.6407826">
        <ele>13.1151</ele>
        <time>2013-05-24T18:20:18Z</time>
      </trkpt>
      <trkpt lat="59.9303284" lon="17.6407843">
        <ele>12.6344</ele>
        <time>2013-05-24T18:20:19Z</time>
      </trkpt>
      <trkpt lat="59.9302152" lon="17.6407809">
        <ele>12.6344</ele>
        <time>2013-05-24T18:20:20Z</time>
      </trkpt>
      <trkpt lat="59.9301023" lon="17.640779">
        <ele>12.6344</ele>
        <time>2013-05-24T18:20:21Z</time>
      </trkpt>
      <trkpt lat="59.9299901" lon="17.6407799">
        <ele>12.1538</ele>
        <time>2013-05-24T18:20:22Z</time>
      </trkpt>
      <trkpt lat="59.9298785" lon="17.6407848">
        <ele>12.6344</ele>
        <time>2013-05-24T18:20:23Z</time>
      </trkpt>
      <trkpt lat="59.9297686" lon="17.6407972">
        <ele>12.6344</ele>
        <time>2013-05-24T18:20:24Z</time>
      </trkpt>
      <trkpt lat="59.9296598" lon="17.6408178">
        <ele>12.1538</ele>
        <time>2013-05-24T18:20:25Z</time>
      </trkpt>
      <trkpt lat="59.929549" lon="17.6408427">
        <ele>12.1538</ele>
        <time>2013-05-24T18:20:26Z</time>
      </trkpt>
      <trkpt lat="59.9294376" lon="17.6408654">
        <ele>12.1538</ele>
        <time>2013-05-24T18:20:27Z</time>
      </trkpt>
      <trkpt lat="59.9293257" lon="17.6408835">
        <ele>12.1538</ele>
        <time>2013-05-24T18:20:28Z</time>
      </trkpt>
      <trkpt lat="59.9292134" lon="17.6408951">
        <ele>12.6344</ele>
        <time>2013-05-24T18:20:29Z</time>
      </trkpt>
      <trkpt lat="59.929101" lon="17.6409032">
        <ele>12.6344</ele>
        <time>2013-05-24T18:20:30Z</time>
      </trkpt>
      <trkpt lat="59.9289897" lon="17.6409139">
        <ele>12.6344</ele>
        <time>2013-05-24T18:20:31Z</time>
      </trkpt>
      <trkpt lat="59.9288798" lon="17.6409304">
        <ele>12.6344</ele>
        <time>2013-05-24T18:20:32Z</time>
      </trkpt>
      <trkpt lat="59.928772" lon="17.6409509">
        <ele>13.1151</ele>
        <time>2013-05-24T18:20:33Z</time>
      </trkpt>
      <trkpt lat="59.9286666" lon="17.6409738">
        <ele>13.1151</ele>
        <time>2013-05-24T18:20:34Z</time>
      </trkpt>
      <trkpt lat="59.9285627" lon="17.6409966">
        <ele>13.1151</ele>
        <time>2013-05-24T18:20:35Z</time>
      </trkpt>
      <trkpt lat="59.9284597" lon="17.6410168">
        <ele>13.1151</ele>
        <time>2013-05-24T18:20:36Z</time>
      </trkpt>
      <trkpt lat="59.9283569" lon="17.6410337">
        <ele>12.6344</ele>
        <time>2013-05-24T18:20:37Z</time>
      </trkpt>
      <trkpt lat="59.928254" lon="17.641049">
        <ele>12.6344</ele>
        <time>2013-05-24T18:20:38Z</time>
      </trkpt>
      <trkpt lat="59.928151" lon="17.6410636">
        <ele>13.1151</ele>
        <time>2013-05-24T18:20:39Z</time>
      </trkpt>
      <trkpt lat="59.9280486" lon="17.6410764">
        <ele>13.1151</ele>
        <time>2013-05-24T18:20:40Z</time>
      </trkpt>
      <trkpt lat="59.9279463" lon="17.6410878">
        <ele>13.1151</ele>
        <time>2013-05-24T18:20:41Z</time>
      </trkpt>
      <trkpt lat="59.9278448" lon="17.6410991">
        <ele>13.1151</ele>
        <time>2013-05-24T18:20:42Z</time>
      </trkpt>
      <trkpt lat="59.9277441" lon="17.6411099">
        <ele>13.1151</ele>
        <time>2013-05-24T18:20:43Z</time>
      </trkpt>
      <trkpt lat="59.9276443" lon="17.641122">
        <ele>13.5958</ele>
        <time>2013-05-24T18:20:44Z</time>
      </trkpt>
      <trkpt lat="59.9275456" lon="17.6411356">
        <ele>13.5958</ele>
        <time>2013-05-24T18:20:45Z</time>
      </trkpt>
      <trkpt lat="59.9274479" lon="17.641148">
        <ele>13.5958</ele>
        <time>2013-05-24T18:20:46Z</time>
      </trkpt>
      <trkpt lat="59.9273517" lon="17.6411563">
        <ele>13.5958</ele>
        <time>2013-05-24T18:20:47Z</time>
      </trkpt>
      <trkpt lat="59.9272563" lon="17.6411641">
        <ele>13.5958</ele>
        <time>2013-05-24T18:20:48Z</time>
      </trkpt>
      <trkpt lat="59.9271615" lon="17.6411727">
        <ele>13.5958</ele>
        <time>2013-05-24T18:20:49Z</time>
      </trkpt>
      <trkpt lat="59.9270668" lon="17.6411805">
        <ele>13.5958</ele>
        <time>2013-05-24T18:20:50Z</time>
      </trkpt>
      <trkpt lat="59.9269724" lon="17.6411903">
        <ele>14.0764</ele>
        <time>2013-05-24T18:20:51Z</time>
      </trkpt>
      <trkpt lat="59.9268787" lon="17.6412048">
        <ele>14.0764</ele>
        <time>2013-05-24T18:20:52Z</time>
      </trkpt>
      <trkpt lat="59.9267827" lon="17.6412231">
        <ele>14.0764</ele>
        <time>2013-05-24T18:20:53Z</time>
      </trkpt>
      <trkpt lat="59.926688" lon="17.6412374">
        <ele>14.0764</ele>
        <time>2013-05-24T18:20:54Z</time>
      </trkpt>
      <trkpt lat="59.9265984" lon="17.6412446">
        <ele>14.0764</ele>
        <time>2013-05-24T18:20:55Z</time>
      </trkpt>
      <trkpt lat="59.9265098" lon="17.6412523">
        <ele>14.0764</ele>
        <time>2013-05-24T18:20:56Z</time>
      </trkpt>
      <trkpt lat="59.9264224" lon="17.6412608">
        <ele>14.557</ele>
        <time>2013-05-24T18:20:57Z</time>
      </trkpt>
      <trkpt lat="59.9263346" lon="17.6412707">
        <ele>14.557</ele>
        <time>2013-05-24T18:20:58Z</time>
      </trkpt>
      <trkpt lat="59.9262466" lon="17.6412825">
        <ele>14.557</ele>
        <time>2013-05-24T18:20:59Z</time>
      </trkpt>
      <trkpt lat="59.926159" lon="17.6412943">
        <ele>14.0764</ele>
        <time>2013-05-24T18:21:00Z</time>
      </trkpt>
      <trkpt lat="59.9260717" lon="17.6413054">
        <ele>14.0764</ele>
        <time>2013-05-24T18:21:01Z</time>
      </trkpt>
      <trkpt lat="59.9259847" lon="17.6413173">
        <ele>14.0764</ele>
        <time>2013-05-24T18:21:02Z</time>
      </trkpt>
      <trkpt lat="59.9258981" lon="17.6413302">
        <ele>14.557</ele>
        <time>2013-05-24T18:21:03Z</time>
      </trkpt>
      <trkpt lat="59.9258125" lon="17.6413417">
        <ele>14.557</ele>
        <time>2013-05-24T18:21:04Z</time>
      </trkpt>
      <trkpt lat="59.9257276" lon="17.6413525">
        <ele>14.557</ele>
        <time>2013-05-24T18:21:05Z</time>
      </trkpt>
      <trkpt lat="59.9256431" lon="17.6413635">
        <ele>14.557</ele>
        <time>2013-05-24T18:21:06Z</time>
      </trkpt>
      <trkpt lat="59.9255589" lon="17.6413757">
        <ele>14.557</ele>
        <time>2013-05-24T18:21:07Z</time>
      </trkpt>
      <trkpt lat="59.9254754" lon="17.6413876">
        <ele>14.557</ele>
        <time>2013-05-24T18:21:08Z</time>
      </trkpt>
      <trkpt lat="59.925392" lon="17.641396">
        <ele>14.557</ele>
        <time>2013-05-24T18:21:09Z</time>
      </trkpt>
      <trkpt lat="59.9253087" lon="17.6414018">
        <ele>14.557</ele>
        <time>2013-05-24T18:21:10Z</time>
      </trkpt>
      <trkpt lat="59.9252257" lon="17.6414052">
        <ele>14.557</ele>
        <time>2013-05-24T18:21:11Z</time>
      </trkpt>
      <trkpt lat="59.9251426" lon="17.6414049">
        <ele>14.557</ele>
        <time>2013-05-24T18:21:12Z</time>
      </trkpt>
      <trkpt lat="59.9250598" lon="17.6414043">
        <ele>14.557</ele>
        <time>2013-05-24T18:21:13Z</time>
      </trkpt>
      <trkpt lat="59.9249776" lon="17.6414059">
        <ele>14.557</ele>
        <time>2013-05-24T18:21:14Z</time>
      </trkpt>
      <trkpt lat="59.9248956" lon="17.6414116">
        <ele>14.557</ele>
        <time>2013-05-24T18:21:15Z</time>
      </trkpt>
      <trkpt lat="59.9248138" lon="17.6414231">
        <ele>14.557</ele>
        <time>2013-05-24T18:21:16Z</time>
      </trkpt>
      <trkpt lat="59.9247319" lon="17.641442">
        <ele>14.557</ele>
        <time>2013-05-24T18:21:17Z</time>
      </trkpt>
      <trkpt lat="59.9246492" lon="17.6414628">
        <ele>14.557</ele>
        <time>2013-05-24T18:21:18Z</time>
      </trkpt>
      <trkpt lat="59.9245658" lon="17.6414832">
        <ele>14.557</ele>
        <time>2013-05-24T18:21:19Z</time>
      </trkpt>
      <trkpt lat="59.9244817" lon="17.6414996">
        <ele>14.557</ele>
        <time>2013-05-24T18:21:20Z</time>
      </trkpt>
      <trkpt lat="59.9243965" lon="17.64151">
        <ele>14.557</ele>
        <time>2013-05-24T18:21:21Z</time>
      </trkpt>
      <trkpt lat="59.9243108" lon="17.6415162">
        <ele>14.557</ele>
        <time>2013-05-24T18:21:22Z</time>
      </trkpt>
      <trkpt lat="59.9242238" lon="17.6415189">
        <ele>14.557</ele>
        <time>2013-05-24T18:21:23Z</time>
      </trkpt>
      <trkpt lat="59.9241351" lon="17.6415231">
        <ele>14.557</ele>
        <time>2013-05-24T18:21:24Z</time>
      </trkpt>
      <trkpt lat="59.9240455" lon="17.6415298">
        <ele>14.557</ele>
        <time>2013-05-24T18:21:25Z</time>
      </trkpt>
      <trkpt lat="59.9239555" lon="17.641538">
        <ele>14.557</ele>
        <time>2013-05-24T18:21:26Z</time>
      </trkpt>
      <trkpt lat="59.9238654" lon="17.6415484">
        <ele>14.557</ele>
        <time>2013-05-24T18:21:27Z</time>
      </trkpt>
      <trkpt lat="59.9237763" lon="17.6415613">
        <ele>14.557</ele>
        <time>2013-05-24T18:21:28Z</time>
      </trkpt>
      <trkpt lat="59.9236885" lon="17.6415747">
        <ele>14.557</ele>
        <time>2013-05-24T18:21:29Z</time>
      </trkpt>
      <trkpt lat="59.9236028" lon="17.6415882">
        <ele>15.0377</ele>
        <time>2013-05-24T18:21:30Z</time>
      </trkpt>
      <trkpt lat="59.9235199" lon="17.6416007">
        <ele>15.0377</ele>
        <time>2013-05-24T18:21:31Z</time>
      </trkpt>
      <trkpt lat="59.9234392" lon="17.641611">
        <ele>15.0377</ele>
        <time>2013-05-24T18:21:32Z</time>
      </trkpt>
      <trkpt lat="59.9233601" lon="17.641622">
        <ele>15.5184</ele>
        <time>2013-05-24T18:21:33Z</time>
      </trkpt>
      <trkpt lat="59.9232821" lon="17.6416337">
        <ele>15.5184</ele>
        <time>2013-05-24T18:21:34Z</time>
      </trkpt>
      <trkpt lat="59.9232053" lon="17.6416445">
        <ele>15.999</ele>
        <time>2013-05-24T18:21:35Z</time>
      </trkpt>
      <trkpt lat="59.9231289" lon="17.6416548">
        <ele>15.999</ele>
        <time>2013-05-24T18:21:36Z</time>
      </trkpt>
      <trkpt lat="59.9230525" lon="17.6416647">
        <ele>16.4797</ele>
        <time>2013-05-24T18:21:37Z</time>
      </trkpt>
      <trkpt lat="59.922976" lon="17.6416733">
        <ele>16.4797</ele>
        <time>2013-05-24T18:21:38Z</time>
      </trkpt>
      <trkpt lat="59.9228997" lon="17.6416829">
        <ele>16.9604</ele>
        <time>2013-05-24T18:21:39Z</time>
      </trkpt>
      <trkpt lat="59.922824" lon="17.6416929">
        <ele>17.4412</ele>
        <time>2013-05-24T18:21:40Z</time>
      </trkpt>
      <trkpt lat="59.9227492" lon="17.6417018">
        <ele>17.9218</ele>
        <time>2013-05-24T18:21:41Z</time>
      </trkpt>
      <trkpt lat="59.9226749" lon="17.6417116">
        <ele>17.9218</ele>
        <time>2013-05-24T18:21:42Z</time>
      </trkpt>
      <trkpt lat="59.9225994" lon="17.6417224">
        <ele>17.9218</ele>
        <time>2013-05-24T18:21:43Z</time>
      </trkpt>
      <trkpt lat="59.9225232" lon="17.6417333">
        <ele>17.9218</ele>
        <time>2013-05-24T18:21:44Z</time>
      </trkpt>
      <trkpt lat="59.9224461" lon="17.6417466">
        <ele>17.9218</ele>
        <time>2013-05-24T18:21:45Z</time>
      </trkpt>
      <trkpt lat="59.9223692" lon="17.6417582">
        <ele>18.4023</ele>
        <time>2013-05-24T18:21:46Z</time>
      </trkpt>
      <trkpt lat="59.9222921" lon="17.6417664">
        <ele>18.4023</ele>
        <time>2013-05-24T18:21:47Z</time>
      </trkpt>
      <trkpt lat="59.9222145" lon="17.6417751">
        <ele>18.4023</ele>
        <time>2013-05-24T18:21:48Z</time>
      </trkpt>
      <trkpt lat="59.9221367" lon="17.6417849">
        <ele>18.4023</ele>
        <time>2013-05-24T18:21:49Z</time>
      </trkpt>
      <trkpt lat="59.922059" lon="17.6417949">
        <ele>18.4023</ele>
        <time>2013-05-24T18:21:50Z</time>
      </trkpt>
      <trkpt lat="59.9219813" lon="17.6418042">
        <ele>18.4023</ele>
        <time>2013-05-24T18:21:51Z</time>
      </trkpt>
      <trkpt lat="59.9219042" lon="17.6418128">
        <ele>18.4023</ele>
        <time>2013-05-24T18:21:52Z</time>
      </trkpt>
      <trkpt lat="59.9218273" lon="17.6418249">
        <ele>17.9218</ele>
        <time>2013-05-24T18:21:53Z</time>
      </trkpt>
      <trkpt lat="59.9217509" lon="17.641838">
        <ele>17.9218</ele>
        <time>2013-05-24T18:21:54Z</time>
      </trkpt>
      <trkpt lat="59.9216752" lon="17.6418522">
        <ele>17.9218</ele>
        <time>2013-05-24T18:21:55Z</time>
      </trkpt>
      <trkpt lat="59.9216007" lon="17.6418628">
        <ele>18.4023</ele>
        <time>2013-05-24T18:21:56Z</time>
      </trkpt>
      <trkpt lat="59.9215267" lon="17.6418726">
        <ele>18.4023</ele>
        <time>2013-05-24T18:21:57Z</time>
      </trkpt>
      <trkpt lat="59.9214525" lon="17.6418809">
        <ele>18.8831</ele>
        <time>2013-05-24T18:21:58Z</time>
      </trkpt>
      <trkpt lat="59.9213769" lon="17.6418888">
        <ele>18.4023</ele>
        <time>2013-05-24T18:21:59Z</time>
      </trkpt>
      <trkpt lat="59.9212992" lon="17.641898">
        <ele>18.4023</ele>
        <time>2013-05-24T18:22:00Z</time>
      </trkpt>
      <trkpt lat="59.9212207" lon="17.6419059">
        <ele>17.9218</ele>
        <time>2013-05-24T18:22:01Z</time>
      </trkpt>
      <trkpt lat="59.92114" lon="17.6419125">
        <ele>17.9218</ele>
        <time>2013-05-24T18:22:02Z</time>
      </trkpt>
      <trkpt lat="59.9210578" lon="17.6419196">
        <ele>17.4412</ele>
        <time>2013-05-24T18:22:03Z</time>
      </trkpt>
      <trkpt lat="59.920976" lon="17.6419265">
        <ele>17.4412</ele>
        <time>2013-05-24T18:22:04Z</time>
      </trkpt>
      <trkpt lat="59.920895" lon="17.6419287">
        <ele>17.4412</ele>
        <time>2013-05-24T18:22:05Z</time>
      </trkpt>
      <trkpt lat="59.9208133" lon="17.6419238">
        <ele>17.4412</ele>
        <time>2013-05-24T18:22:06Z</time>
      </trkpt>
      <trkpt lat="59.920731" lon="17.6419159">
        <ele>16.9604</ele>
        <time>2013-05-24T18:22:07Z</time>
      </trkpt>
      <trkpt lat="59.9206476" lon="17.6419085">
        <ele>16.9604</ele>
        <time>2013-05-24T18:22:08Z</time>
      </trkpt>
      <trkpt lat="59.9205631" lon="17.6419051">
        <ele>16.9604</ele>
        <time>2013-05-24T18:22:09Z</time>
      </trkpt>
      <trkpt lat="59.9204784" lon="17.6419037">
        <ele>16.9604</ele>
        <time>2013-05-24T18:22:10Z</time>
      </trkpt>
      <trkpt lat="59.9203928" lon="17.6419066">
        <ele>16.9604</ele>
        <time>2013-05-24T18:22:11Z</time>
      </trkpt>
      <trkpt lat="59.9203063" lon="17.6419129">
        <ele>16.9604</ele>
        <time>2013-05-24T18:22:12Z</time>
      </trkpt>
      <trkpt lat="59.92022" lon="17.6419191">
        <ele>16.9604</ele>
        <time>2013-05-24T18:22:13Z</time>
      </trkpt>
      <trkpt lat="59.9201348" lon="17.6419244">
        <ele>16.9604</ele>
        <time>2013-05-24T18:22:14Z</time>
      </trkpt>
      <trkpt lat="59.9200492" lon="17.6419311">
        <ele>16.9604</ele>
        <time>2013-05-24T18:22:15Z</time>
      </trkpt>
      <trkpt lat="59.9199622" lon="17.6419406">
        <ele>16.9604</ele>
        <time>2013-05-24T18:22:16Z</time>
      </trkpt>
      <trkpt lat="59.9198751" lon="17.6419566">
        <ele>16.9604</ele>
        <time>2013-05-24T18:22:17Z</time>
      </trkpt>
      <trkpt lat="59.9197881" lon="17.6419793">
        <ele>17.4412</ele>
        <time>2013-05-24T18:22:18Z</time>
      </trkpt>
      <trkpt lat="59.9197015" lon="17.6420037">
        <ele>17.4412</ele>
        <time>2013-05-24T18:22:19Z</time>
      </trkpt>
      <trkpt lat="59.9196149" lon="17.6420258">
        <ele>17.4412</ele>
        <time>2013-05-24T18:22:20Z</time>
      </trkpt>
      <trkpt lat="59.919528" lon="17.642041">
        <ele>17.4412</ele>
        <time>2013-05-24T18:22:21Z</time>
      </trkpt>
      <trkpt lat="59.9194409" lon="17.6420503">
        <ele>17.4412</ele>
        <time>2013-05-24T18:22:22Z</time>
      </trkpt>
      <trkpt lat="59.9193535" lon="17.642059">
        <ele>17.9218</ele>
        <time>2013-05-24T18:22:23Z</time>
      </trkpt>
      <trkpt lat="59.9192663" lon="17.6420684">
        <ele>17.9218</ele>
        <time>2013-05-24T18:22:24Z</time>
      </trkpt>
      <trkpt lat="59.919179" lon="17.6420777">
        <ele>17.9218</ele>
        <time>2013-05-24T18:22:25Z</time>
      </trkpt>
      <trkpt lat="59.9190915" lon="17.6420876">
        <ele>17.9218</ele>
        <time>2013-05-24T18:22:26Z</time>
      </trkpt>
      <trkpt lat="59.9190042" lon="17.6421">
        <ele>17.9218</ele>
        <time>2013-05-24T18:22:27Z</time>
      </trkpt>
      <trkpt lat="59.9189164" lon="17.642114">
        <ele>17.9218</ele>
        <time>2013-05-24T18:22:28Z</time>
      </trkpt>
      <trkpt lat="59.9188277" lon="17.6421264">
        <ele>17.9218</ele>
        <time>2013-05-24T18:22:29Z</time>
      </trkpt>
      <trkpt lat="59.918738" lon="17.6421368">
        <ele>17.9218</ele>
        <time>2013-05-24T18:22:30Z</time>
      </trkpt>
      <trkpt lat="59.9186475" lon="17.6421485">
        <ele>17.9218</ele>
        <time>2013-05-24T18:22:31Z</time>
      </trkpt>
      <trkpt lat="59.9185568" lon="17.6421617">
        <ele>17.9218</ele>
        <time>2013-05-24T18:22:32Z</time>
      </trkpt>
      <trkpt lat="59.918465" lon="17.6421741">
        <ele>17.9218</ele>
        <time>2013-05-24T18:22:33Z</time>
      </trkpt>
      <trkpt lat="59.9183715" lon="17.6421864">
        <ele>17.4412</ele>
        <time>2013-05-24T18:22:34Z</time>
      </trkpt>
      <trkpt lat="59.9182761" lon="17.6421974">
        <ele>17.4412</ele>
        <time>2013-05-24T18:22:35Z</time>
      </trkpt>
      <trkpt lat="59.9181781" lon="17.6422072">
        <ele>16.9604</ele>
        <time>2013-05-24T18:22:36Z</time>
      </trkpt>
      <trkpt lat="59.9180783" lon="17.6422164">
        <ele>16.4797</ele>
        <time>2013-05-24T18:22:37Z</time>
      </trkpt>
      <trkpt lat="59.9179767" lon="17.6422249">
        <ele>15.999</ele>
        <time>2013-05-24T18:22:38Z</time>
      </trkpt>
      <trkpt lat="59.9178734" lon="17.642233">
        <ele>15.999</ele>
        <time>2013-05-24T18:22:39Z</time>
      </trkpt>
      <trkpt lat="59.9177695" lon="17.6422389">
        <ele>15.999</ele>
        <time>2013-05-24T18:22:40Z</time>
      </trkpt>
      <trkpt lat="59.9176648" lon="17.6422426">
        <ele>15.5184</ele>
        <time>2013-05-24T18:22:41Z</time>
      </trkpt>
      <trkpt lat="59.9175596" lon="17.6422451">
        <ele>15.5184</ele>
        <time>2013-05-24T18:22:42Z</time>
      </trkpt>
      <trkpt lat="59.9174545" lon="17.6422483">
        <ele>15.5184</ele>
        <time>2013-05-24T18:22:43Z</time>
      </trkpt>
      <trkpt lat="59.9173498" lon="17.6422513">
        <ele>15.5184</ele>
        <time>2013-05-24T18:22:44Z</time>
      </trkpt>
      <trkpt lat="59.9172452" lon="17.6422505">
        <ele>15.5184</ele>
        <time>2013-05-24T18:22:45Z</time>
      </trkpt>
      <trkpt lat="59.9171416" lon="17.6422568">
        <ele>15.5184</ele>
        <time>2013-05-24T18:22:46Z</time>
      </trkpt>
      <trkpt lat="59.91704" lon="17.6422823">
        <ele>15.5184</ele>
        <time>2013-05-24T18:22:47Z</time>
      </trkpt>
      <trkpt lat="59.9169401" lon="17.6423129">
        <ele>15.5184</ele>
        <time>2013-05-24T18:22:48Z</time>
      </trkpt>
      <trkpt lat="59.916841" lon="17.6423346">
        <ele>15.999</ele>
        <time>2013-05-24T18:22:49Z</time>
      </trkpt>
      <trkpt lat="59.9167428" lon="17.6423496">
        <ele>15.999</ele>
        <time>2013-05-24T18:22:50Z</time>
      </trkpt>
      <trkpt lat="59.9166464" lon="17.6423628">
        <ele>16.4797</ele>
        <time>2013-05-24T18:22:51Z</time>
      </trkpt>
      <trkpt lat="59.9165516" lon="17.6423756">
        <ele>16.9604</ele>
        <time>2013-05-24T18:22:52Z</time>
      </trkpt>
      <trkpt lat="59.9164579" lon="17.6423886">
        <ele>16.9604</ele>
        <time>2013-05-24T18:22:53Z</time>
      </trkpt>
      <trkpt lat="59.9163649" lon="17.6424032">
        <ele>16.9604</ele>
        <time>2013-05-24T18:22:54Z</time>
      </trkpt>
      <trkpt lat="59.9162719" lon="17.6424181">
        <ele>17.4412</ele>
        <time>2013-05-24T18:22:55Z</time>
      </trkpt>
      <trkpt lat="59.9161786" lon="17.6424279">
        <ele>16.9604</ele>
        <time>2013-05-24T18:22:56Z</time>
      </trkpt>
      <trkpt lat="59.9160832" lon="17.6424309">
        <ele>16.9604</ele>
        <time>2013-05-24T18:22:57Z</time>
      </trkpt>
      <trkpt lat="59.9159852" lon="17.6424321">
        <ele>16.9604</ele>
        <time>2013-05-24T18:22:58Z</time>
      </trkpt>
      <trkpt lat="59.9158844" lon="17.6424346">
        <ele>16.9604</ele>
        <time>2013-05-24T18:22:59Z</time>
      </trkpt>
      <trkpt lat="59.9157824" lon="17.6424381">
        <ele>16.4797</ele>
        <time>2013-05-24T18:23:00Z</time>
      </trkpt>
      <trkpt lat="59.9156789" lon="17.6424464">
        <ele>16.4797</ele>
        <time>2013-05-24T18:23:01Z</time>
      </trkpt>
      <trkpt lat="59.9155746" lon="17.6424601">
        <ele>16.4797</ele>
        <time>2013-05-24T18:23:02Z</time>
      </trkpt>
      <trkpt lat="59.9154694" lon="17.642479">
        <ele>16.4797</ele>
        <time>2013-05-24T18:23:03Z</time>
      </trkpt>
      <trkpt lat="59.9153648" lon="17.6425091">
        <ele>16.4797</ele>
        <time>2013-05-24T18:23:04Z</time>
      </trkpt>
      <trkpt lat="59.9152632" lon="17.6425604">
        <ele>16.4797</ele>
        <time>2013-05-24T18:23:05Z</time>
      </trkpt>
      <trkpt lat="59.9151689" lon="17.6426183">
        <ele>16.9604</ele>
        <time>2013-05-24T18:23:06Z</time>
      </trkpt>
      <trkpt lat="59.9150783" lon="17.6426613">
        <ele>16.9604</ele>
        <time>2013-05-24T18:23:07Z</time>
      </trkpt>
      <trkpt lat="59.9149856" lon="17.642687">
        <ele>17.4412</ele>
        <time>2013-05-24T18:23:08Z</time>
      </trkpt>
      <trkpt lat="59.9148915" lon="17.6427025">
        <ele>17.4412</ele>
        <time>2013-05-24T18:23:09Z</time>
      </trkpt>
      <trkpt lat="59.9147986" lon="17.6427144">
        <ele>17.9218</ele>
        <time>2013-05-24T18:23:10Z</time>
      </trkpt>
      <trkpt lat="59.9147059" lon="17.6427302">
        <ele>17.9218</ele>
        <time>2013-05-24T18:23:11Z</time>
      </trkpt>
      <trkpt lat="59.9146153" lon="17.6427495">
        <ele>18.4023</ele>
        <time>2013-05-24T18:23:12Z</time>
      </trkpt>
      <trkpt lat="59.9145271" lon="17.6427693">
        <ele>18.8831</ele>
        <time>2013-05-24T18:23:13Z</time>
      </trkpt>
      <trkpt lat="59.9144407" lon="17.6427879">
        <ele>18.8831</ele>
        <time>2013-05-24T18:23:14Z</time>
      </trkpt>
      <trkpt lat="59.9143563" lon="17.6428045">
        <ele>19.3638</ele>
        <time>2013-05-24T18:23:15Z</time>
      </trkpt>
      <trkpt lat="59.9142725" lon="17.6428195">
        <ele>19.8444</ele>
        <time>2013-05-24T18:23:16Z</time>
      </trkpt>
      <trkpt lat="59.9141883" lon="17.6428385">
        <ele>20.325</ele>
        <time>2013-05-24T18:23:17Z</time>
      </trkpt>
      <trkpt lat="59.9141052" lon="17.6428582">
        <ele>20.8057</ele>
        <time>2013-05-24T18:23:18Z</time>
      </trkpt>
      <trkpt lat="59.9140243" lon="17.6428707">
        <ele>20.8057</ele>
        <time>2013-05-24T18:23:19Z</time>
      </trkpt>
      <trkpt lat="59.9139433" lon="17.6428836">
        <ele>21.2864</ele>
        <time>2013-05-24T18:23:20Z</time>
      </trkpt>
      <trkpt lat="59.9138626" lon="17.642895">
        <ele>21.2864</ele>
        <time>2013-05-24T18:23:21Z</time>
      </trkpt>
      <trkpt lat="59.913783" lon="17.6429074">
        <ele>21.767</ele>
        <time>2013-05-24T18:23:22Z</time>
      </trkpt>
      <trkpt lat="59.9137023" lon="17.6429235">
        <ele>21.767</ele>
        <time>2013-05-24T18:23:23Z</time>
      </trkpt>
      <trkpt lat="59.9136218" lon="17.6429376">
        <ele>21.767</ele>
        <time>2013-05-24T18:23:24Z</time>
      </trkpt>
      <trkpt lat="59.9135425" lon="17.6429525">
        <ele>22.2476</ele>
        <time>2013-05-24T18:23:25Z</time>
      </trkpt>
      <trkpt lat="59.9134649" lon="17.6429714">
        <ele>22.7283</ele>
        <time>2013-05-24T18:23:26Z</time>
      </trkpt>
      <trkpt lat="59.9133897" lon="17.6429932">
        <ele>23.6896</ele>
        <time>2013-05-24T18:23:27Z</time>
      </trkpt>
      <trkpt lat="59.9133138" lon="17.6430137">
        <ele>24.1703</ele>
        <time>2013-05-24T18:23:28Z</time>
      </trkpt>
      <trkpt lat="59.913232" lon="17.6430397">
        <ele>23.6896</ele>
        <time>2013-05-24T18:23:29Z</time>
      </trkpt>
      <trkpt lat="59.9131556" lon="17.6430604">
        <ele>23.6896</ele>
        <time>2013-05-24T18:23:30Z</time>
      </trkpt>
      <trkpt lat="59.9130763" lon="17.6430963">
        <ele>23.6896</ele>
        <time>2013-05-24T18:23:31Z</time>
      </trkpt>
      <trkpt lat="59.9129928" lon="17.6431208">
        <ele>23.6896</ele>
        <time>2013-05-24T18:23:32Z</time>
      </trkpt>
      <trkpt lat="59.912912" lon="17.6431436">
        <ele>23.6896</ele>
        <time>2013-05-24T18:23:33Z</time>
      </trkpt>
      <trkpt lat="59.9128298" lon="17.6431644">
        <ele>23.6896</ele>
        <time>2013-05-24T18:23:34Z</time>
      </trkpt>
      <trkpt lat="59.9127468" lon="17.6431827">
        <ele>23.6896</ele>
        <time>2013-05-24T18:23:35Z</time>
      </trkpt>
      <trkpt lat="59.9126632" lon="17.6431961">
        <ele>23.6896</ele>
        <time>2013-05-24T18:23:36Z</time>
      </trkpt>
      <trkpt lat="59.9125774" lon="17.6432163">
        <ele>23.209</ele>
        <time>2013-05-24T18:23:37Z</time>
      </trkpt>
      <trkpt lat="59.912493" lon="17.643235">
        <ele>23.209</ele>
        <time>2013-05-24T18:23:38Z</time>
      </trkpt>
      <trkpt lat="59.9124073" lon="17.6432529">
        <ele>23.209</ele>
        <time>2013-05-24T18:23:39Z</time>
      </trkpt>
      <trkpt lat="59.9123236" lon="17.6432666">
        <ele>23.209</ele>
        <time>2013-05-24T18:23:40Z</time>
      </trkpt>
      <trkpt lat="59.9122412" lon="17.6432814">
        <ele>23.209</ele>
        <time>2013-05-24T18:23:41Z</time>
      </trkpt>
      <trkpt lat="59.9121594" lon="17.643298">
        <ele>23.209</ele>
        <time>2013-05-24T18:23:42Z</time>
      </trkpt>
      <trkpt lat="59.9120779" lon="17.6433145">
        <ele>23.209</ele>
        <time>2013-05-24T18:23:43Z</time>
      </trkpt>
      <trkpt lat="59.9119962" lon="17.6433299">
        <ele>23.6896</ele>
        <time>2013-05-24T18:23:44Z</time>
      </trkpt>
      <trkpt lat="59.9119134" lon="17.6433482">
        <ele>23.6896</ele>
        <time>2013-05-24T18:23:45Z</time>
      </trkpt>
      <trkpt lat="59.91183" lon="17.6433655">
        <ele>23.6896</ele>
        <time>2013-05-24T18:23:46Z</time>
      </trkpt>
      <trkpt lat="59.9117466" lon="17.6433836">
        <ele>24.1703</ele>
        <time>2013-05-24T18:23:47Z</time>
      </trkpt>
      <trkpt lat="59.9116629" lon="17.6434016">
        <ele>23.6896</ele>
        <time>2013-05-24T18:23:48Z</time>
      </trkpt>
      <trkpt lat="59.9115791" lon="17.6434204">
        <ele>23.6896</ele>
        <time>2013-05-24T18:23:49Z</time>
      </trkpt>
      <trkpt lat="59.9114957" lon="17.64344">
        <ele>23.6896</ele>
        <time>2013-05-24T18:23:50Z</time>
      </trkpt>
      <trkpt lat="59.9114114" lon="17.6434593">
        <ele>23.6896</ele>
        <time>2013-05-24T18:23:51Z</time>
      </trkpt>
      <trkpt lat="59.911327" lon="17.6434748">
        <ele>23.6896</ele>
        <time>2013-05-24T18:23:52Z</time>
      </trkpt>
      <trkpt lat="59.9112426" lon="17.6434915">
        <ele>23.6896</ele>
        <time>2013-05-24T18:23:53Z</time>
      </trkpt>
      <trkpt lat="59.9111589" lon="17.6435086">
        <ele>23.6896</ele>
        <time>2013-05-24T18:23:54Z</time>
      </trkpt>
      <trkpt lat="59.9110747" lon="17.6435271">
        <ele>23.6896</ele>
        <time>2013-05-24T18:23:55Z</time>
      </trkpt>
      <trkpt lat="59.9109898" lon="17.6435454">
        <ele>23.6896</ele>
        <time>2013-05-24T18:23:56Z</time>
      </trkpt>
      <trkpt lat="59.9109043" lon="17.6435637">
        <ele>23.209</ele>
        <time>2013-05-24T18:23:57Z</time>
      </trkpt>
      <trkpt lat="59.9108189" lon="17.6435804">
        <ele>23.209</ele>
        <time>2013-05-24T18:23:58Z</time>
      </trkpt>
      <trkpt lat="59.9107328" lon="17.6435965">
        <ele>23.209</ele>
        <time>2013-05-24T18:23:59Z</time>
      </trkpt>
      <trkpt lat="59.9106452" lon="17.6436178">
        <ele>23.6896</ele>
        <time>2013-05-24T18:24:00Z</time>
      </trkpt>
      <trkpt lat="59.910558" lon="17.643639">
        <ele>23.6896</ele>
        <time>2013-05-24T18:24:01Z</time>
      </trkpt>
      <trkpt lat="59.910471" lon="17.6436571">
        <ele>23.6896</ele>
        <time>2013-05-24T18:24:02Z</time>
      </trkpt>
      <trkpt lat="59.9103838" lon="17.6436746">
        <ele>23.6896</ele>
        <time>2013-05-24T18:24:03Z</time>
      </trkpt>
      <trkpt lat="59.9102977" lon="17.6436924">
        <ele>23.6896</ele>
        <time>2013-05-24T18:24:04Z</time>
      </trkpt>
      <trkpt lat="59.910212" lon="17.6437089">
        <ele>23.6896</ele>
        <time>2013-05-24T18:24:05Z</time>
      </trkpt>
      <trkpt lat="59.910126" lon="17.6437286">
        <ele>23.6896</ele>
        <time>2013-05-24T18:24:06Z</time>
      </trkpt>
      <trkpt lat="59.9100396" lon="17.6437477">
        <ele>23.6896</ele>
        <time>2013-05-24T18:24:07Z</time>
      </trkpt>
      <trkpt lat="59.9099535" lon="17.643765">
        <ele>23.6896</ele>
        <time>2013-05-24T18:24:08Z</time>
      </trkpt>
      <trkpt lat="59.9098677" lon="17.6437785">
        <ele>23.6896</ele>
        <time>2013-05-24T18:24:09Z</time>
      </trkpt>
      <trkpt lat="59.9097817" lon="17.6437898">
        <ele>23.6896</ele>
        <time>2013-05-24T18:24:10Z</time>
      </trkpt>
      <trkpt lat="59.9096952" lon="17.6437991">
        <ele>23.6896</ele>
        <time>2013-05-24T18:24:11Z</time>
      </trkpt>
      <trkpt lat="59.9096077" lon="17.643811">
        <ele>23.6896</ele>
        <time>2013-05-24T18:24:12Z</time>
      </trkpt>
      <trkpt lat="59.9095197" lon="17.6438224">
        <ele>23.6896</ele>
        <time>2013-05-24T18:24:13Z</time>
      </trkpt>
      <trkpt lat="59.9094311" lon="17.6438346">
        <ele>23.6896</ele>
        <time>2013-05-24T18:24:14Z</time>
      </trkpt>
      <trkpt lat="59.9093426" lon="17.6438448">
        <ele>23.6896</ele>
        <time>2013-05-24T18:24:15Z</time>
      </trkpt>
      <trkpt lat="59.909254" lon="17.643854">
        <ele>23.6896</ele>
        <time>2013-05-24T18:24:16Z</time>
      </trkpt>
      <trkpt lat="59.9091649" lon="17.6438649">
        <ele>23.6896</ele>
        <time>2013-05-24T18:24:17Z</time>
      </trkpt>
      <trkpt lat="59.9090753" lon="17.6438731">
        <ele>23.6896</ele>
        <time>2013-05-24T18:24:18Z</time>
      </trkpt>
      <trkpt lat="59.908986" lon="17.6438789">
        <ele>23.6896</ele>
        <time>2013-05-24T18:24:19Z</time>
      </trkpt>
      <trkpt lat="59.9088979" lon="17.6438808">
        <ele>23.6896</ele>
        <time>2013-05-24T18:24:20Z</time>
      </trkpt>
      <trkpt lat="59.9088097" lon="17.643883">
        <ele>23.6896</ele>
        <time>2013-05-24T18:24:21Z</time>
      </trkpt>
      <trkpt lat="59.9087202" lon="17.6438821">
        <ele>23.6896</ele>
        <time>2013-05-24T18:24:22Z</time>
      </trkpt>
      <trkpt lat="59.9086317" lon="17.6438798">
        <ele>23.6896</ele>
        <time>2013-05-24T18:24:23Z</time>
      </trkpt>
      <trkpt lat="59.9085436" lon="17.6438784">
        <ele>23.6896</ele>
        <time>2013-05-24T18:24:24Z</time>
      </trkpt>
      <trkpt lat="59.9084557" lon="17.6438753">
        <ele>23.209</ele>
        <time>2013-05-24T18:24:25Z</time>
      </trkpt>
      <trkpt lat="59.9083686" lon="17.6438695">
        <ele>23.6896</ele>
        <time>2013-05-24T18:24:26Z</time>
      </trkpt>
      <trkpt lat="59.9082778" lon="17.6438633">
        <ele>23.6896</ele>
        <time>2013-05-24T18:24:27Z</time>
      </trkpt>
      <trkpt lat="59.9081889" lon="17.6438571">
        <ele>23.209</ele>
        <time>2013-05-24T18:24:28Z</time>
      </trkpt>
      <trkpt lat="59.9080999" lon="17.6438507">
        <ele>22.7283</ele>
        <time>2013-05-24T18:24:29Z</time>
      </trkpt>
      <trkpt lat="59.908012" lon="17.6438411">
        <ele>22.7283</ele>
        <time>2013-05-24T18:24:30Z</time>
      </trkpt>
      <trkpt lat="59.9079237" lon="17.6438298">
        <ele>22.7283</ele>
        <time>2013-05-24T18:24:31Z</time>
      </trkpt>
      <trkpt lat="59.9078335" lon="17.6438204">
        <ele>22.2476</ele>
        <time>2013-05-24T18:24:32Z</time>
      </trkpt>
      <trkpt lat="59.9077418" lon="17.643812">
        <ele>22.2476</ele>
        <time>2013-05-24T18:24:33Z</time>
      </trkpt>
      <trkpt lat="59.9076496" lon="17.6438032">
        <ele>21.767</ele>
        <time>2013-05-24T18:24:34Z</time>
      </trkpt>
      <trkpt lat="59.9075567" lon="17.6437904">
        <ele>21.767</ele>
        <time>2013-05-24T18:24:35Z</time>
      </trkpt>
      <trkpt lat="59.9074642" lon="17.6437717">
        <ele>21.2864</ele>
        <time>2013-05-24T18:24:36Z</time>
      </trkpt>
      <trkpt lat="59.9073708" lon="17.6437514">
        <ele>21.2864</ele>
        <time>2013-05-24T18:24:37Z</time>
      </trkpt>
      <trkpt lat="59.9072756" lon="17.6437328">
        <ele>21.2864</ele>
        <time>2013-05-24T18:24:38Z</time>
      </trkpt>
      <trkpt lat="59.9071796" lon="17.6437147">
        <ele>20.8057</ele>
        <time>2013-05-24T18:24:39Z</time>
      </trkpt>
      <trkpt lat="59.9070827" lon="17.6436948">
        <ele>20.8057</ele>
        <time>2013-05-24T18:24:40Z</time>
      </trkpt>
      <trkpt lat="59.9069838" lon="17.6436737">
        <ele>20.325</ele>
        <time>2013-05-24T18:24:41Z</time>
      </trkpt>
      <trkpt lat="59.906884" lon="17.6436515">
        <ele>20.325</ele>
        <time>2013-05-24T18:24:42Z</time>
      </trkpt>
      <trkpt lat="59.906783" lon="17.6436267">
        <ele>19.8444</ele>
        <time>2013-05-24T18:24:43Z</time>
      </trkpt>
      <trkpt lat="59.9066812" lon="17.6435976">
        <ele>19.8444</ele>
        <time>2013-05-24T18:24:44Z</time>
      </trkpt>
      <trkpt lat="59.9065789" lon="17.643565">
        <ele>19.8444</ele>
        <time>2013-05-24T18:24:45Z</time>
      </trkpt>
      <trkpt lat="59.9064754" lon="17.6435331">
        <ele>19.3638</ele>
        <time>2013-05-24T18:24:46Z</time>
      </trkpt>
      <trkpt lat="59.9063733" lon="17.6434997">
        <ele>19.3638</ele>
        <time>2013-05-24T18:24:47Z</time>
      </trkpt>
      <trkpt lat="59.9062702" lon="17.6434639">
        <ele>18.8831</ele>
        <time>2013-05-24T18:24:48Z</time>
      </trkpt>
      <trkpt lat="59.9061625" lon="17.6434272">
        <ele>18.8831</ele>
        <time>2013-05-24T18:24:49Z</time>
      </trkpt>
      <trkpt lat="59.9060537" lon="17.6433872">
        <ele>18.4023</ele>
        <time>2013-05-24T18:24:50Z</time>
      </trkpt>
      <trkpt lat="59.9059446" lon="17.6433477">
        <ele>17.9218</ele>
        <time>2013-05-24T18:24:51Z</time>
      </trkpt>
      <trkpt lat="59.9058356" lon="17.6433076">
        <ele>17.9218</ele>
        <time>2013-05-24T18:24:52Z</time>
      </trkpt>
      <trkpt lat="59.9057274" lon="17.643267">
        <ele>17.4412</ele>
        <time>2013-05-24T18:24:53Z</time>
      </trkpt>
      <trkpt lat="59.905621" lon="17.6432223">
        <ele>16.9604</ele>
        <time>2013-05-24T18:24:54Z</time>
      </trkpt>
      <trkpt lat="59.9055149" lon="17.6431767">
        <ele>16.4797</ele>
        <time>2013-05-24T18:24:55Z</time>
      </trkpt>
      <trkpt lat="59.90541" lon="17.6431303">
        <ele>16.4797</ele>
        <time>2013-05-24T18:24:56Z</time>
      </trkpt>
      <trkpt lat="59.9053064" lon="17.6430815">
        <ele>16.4797</ele>
        <time>2013-05-24T18:24:57Z</time>
      </trkpt>
      <trkpt lat="59.9052041" lon="17.6430308">
        <ele>16.4797</ele>
        <time>2013-05-24T18:24:58Z</time>
      </trkpt>
      <trkpt lat="59.905102" lon="17.6429795">
        <ele>15.999</ele>
        <time>2013-05-24T18:24:59Z</time>
      </trkpt>
      <trkpt lat="59.9050003" lon="17.6429271">
        <ele>15.999</ele>
        <time>2013-05-24T18:25:00Z</time>
      </trkpt>
      <trkpt lat="59.9048995" lon="17.642877">
        <ele>15.5184</ele>
        <time>2013-05-24T18:25:01Z</time>
      </trkpt>
      <trkpt lat="59.9047986" lon="17.6428298">
        <ele>15.5184</ele>
        <time>2013-05-24T18:25:02Z</time>
      </trkpt>
      <trkpt lat="59.904699" lon="17.6427803">
        <ele>15.0377</ele>
        <time>2013-05-24T18:25:03Z</time>
      </trkpt>
      <trkpt lat="59.9045999" lon="17.6427309">
        <ele>15.0377</ele>
        <time>2013-05-24T18:25:04Z</time>
      </trkpt>
      <trkpt lat="59.9045038" lon="17.6426791">
        <ele>15.0377</ele>
        <time>2013-05-24T18:25:05Z</time>
      </trkpt>
      <trkpt lat="59.904408" lon="17.6426305">
        <ele>15.0377</ele>
        <time>2013-05-24T18:25:06Z</time>
      </trkpt>
      <trkpt lat="59.904313" lon="17.6425826">
        <ele>15.0377</ele>
        <time>2013-05-24T18:25:07Z</time>
      </trkpt>
      <trkpt lat="59.9042166" lon="17.6425362">
        <ele>15.0377</ele>
        <time>2013-05-24T18:25:08Z</time>
      </trkpt>
      <trkpt lat="59.9041203" lon="17.6424896">
        <ele>15.0377</ele>
        <time>2013-05-24T18:25:09Z</time>
      </trkpt>
      <trkpt lat="59.9040252" lon="17.6424407">
        <ele>15.5184</ele>
        <time>2013-05-24T18:25:10Z</time>
      </trkpt>
      <trkpt lat="59.9039313" lon="17.6423917">
        <ele>15.5184</ele>
        <time>2013-05-24T18:25:11Z</time>
      </trkpt>
      <trkpt lat="59.9038384" lon="17.6423441">
        <ele>15.999</ele>
        <time>2013-05-24T18:25:12Z</time>
      </trkpt>
      <trkpt lat="59.9037455" lon="17.6422982">
        <ele>15.999</ele>
        <time>2013-05-24T18:25:13Z</time>
      </trkpt>
      <trkpt lat="59.9036532" lon="17.6422514">
        <ele>15.999</ele>
        <time>2013-05-24T18:25:14Z</time>
      </trkpt>
      <trkpt lat="59.9035611" lon="17.642205">
        <ele>15.999</ele>
        <time>2013-05-24T18:25:15Z</time>
      </trkpt>
      <trkpt lat="59.9034692" lon="17.6421578">
        <ele>15.999</ele>
        <time>2013-05-24T18:25:16Z</time>
      </trkpt>
      <trkpt lat="59.9033765" lon="17.6421103">
        <ele>15.999</ele>
        <time>2013-05-24T18:25:17Z</time>
      </trkpt>
      <trkpt lat="59.9032831" lon="17.6420637">
        <ele>15.999</ele>
        <time>2013-05-24T18:25:18Z</time>
      </trkpt>
      <trkpt lat="59.9031895" lon="17.6420178">
        <ele>15.999</ele>
        <time>2013-05-24T18:25:19Z</time>
      </trkpt>
      <trkpt lat="59.9030953" lon="17.641972">
        <ele>16.4797</ele>
        <time>2013-05-24T18:25:20Z</time>
      </trkpt>
      <trkpt lat="59.9030039" lon="17.6419249">
        <ele>16.4797</ele>
        <time>2013-05-24T18:25:21Z</time>
      </trkpt>
      <trkpt lat="59.9029115" lon="17.6418778">
        <ele>16.4797</ele>
        <time>2013-05-24T18:25:22Z</time>
      </trkpt>
      <trkpt lat="59.9028192" lon="17.6418284">
        <ele>16.9604</ele>
        <time>2013-05-24T18:25:23Z</time>
      </trkpt>
      <trkpt lat="59.902727" lon="17.6417742">
        <ele>16.9604</ele>
        <time>2013-05-24T18:25:24Z</time>
      </trkpt>
      <trkpt lat="59.9026353" lon="17.6417167">
        <ele>16.9604</ele>
        <time>2013-05-24T18:25:25Z</time>
      </trkpt>
      <trkpt lat="59.9025446" lon="17.6416546">
        <ele>16.9604</ele>
        <time>2013-05-24T18:25:26Z</time>
      </trkpt>
      <trkpt lat="59.9024548" lon="17.6415911">
        <ele>16.9604</ele>
        <time>2013-05-24T18:25:27Z</time>
      </trkpt>
      <trkpt lat="59.9023654" lon="17.6415297">
        <ele>17.4412</ele>
        <time>2013-05-24T18:25:28Z</time>
      </trkpt>
      <trkpt lat="59.9022768" lon="17.6414691">
        <ele>17.4412</ele>
        <time>2013-05-24T18:25:29Z</time>
      </trkpt>
      <trkpt lat="59.9021897" lon="17.641407">
        <ele>17.4412</ele>
        <time>2013-05-24T18:25:30Z</time>
      </trkpt>
      <trkpt lat="59.9021038" lon="17.6413427">
        <ele>17.4412</ele>
        <time>2013-05-24T18:25:31Z</time>
      </trkpt>
      <trkpt lat="59.9020194" lon="17.6412754">
        <ele>17.4412</ele>
        <time>2013-05-24T18:25:32Z</time>
      </trkpt>
      <trkpt lat="59.9019363" lon="17.6412064">
        <ele>17.4412</ele>
        <time>2013-05-24T18:25:33Z</time>
      </trkpt>
      <trkpt lat="59.9018535" lon="17.6411381">
        <ele>17.4412</ele>
        <time>2013-05-24T18:25:34Z</time>
      </trkpt>
      <trkpt lat="59.9017712" lon="17.641071">
        <ele>17.9218</ele>
        <time>2013-05-24T18:25:35Z</time>
      </trkpt>
      <trkpt lat="59.9016889" lon="17.6410059">
        <ele>17.9218</ele>
        <time>2013-05-24T18:25:36Z</time>
      </trkpt>
      <trkpt lat="59.901608" lon="17.6409381">
        <ele>17.9218</ele>
        <time>2013-05-24T18:25:37Z</time>
      </trkpt>
      <trkpt lat="59.9015279" lon="17.6408661">
        <ele>17.9218</ele>
        <time>2013-05-24T18:25:38Z</time>
      </trkpt>
      <trkpt lat="59.9014486" lon="17.6407925">
        <ele>17.9218</ele>
        <time>2013-05-24T18:25:39Z</time>
      </trkpt>
      <trkpt lat="59.9013697" lon="17.6407172">
        <ele>17.9218</ele>
        <time>2013-05-24T18:25:40Z</time>
      </trkpt>
      <trkpt lat="59.9012919" lon="17.6406413">
        <ele>17.9218</ele>
        <time>2013-05-24T18:25:41Z</time>
      </trkpt>
      <trkpt lat="59.9012129" lon="17.6405687">
        <ele>18.4023</ele>
        <time>2013-05-24T18:25:42Z</time>
      </trkpt>
      <trkpt lat="59.9011362" lon="17.6404937">
        <ele>18.4023</ele>
        <time>2013-05-24T18:25:43Z</time>
      </trkpt>
      <trkpt lat="59.9010621" lon="17.6404178">
        <ele>18.4023</ele>
        <time>2013-05-24T18:25:44Z</time>
      </trkpt>
      <trkpt lat="59.9009909" lon="17.6403417">
        <ele>18.8831</ele>
        <time>2013-05-24T18:25:45Z</time>
      </trkpt>
      <trkpt lat="59.9009189" lon="17.64027">
        <ele>19.3638</ele>
        <time>2013-05-24T18:25:46Z</time>
      </trkpt>
      <trkpt lat="59.9008464" lon="17.6401987">
        <ele>19.3638</ele>
        <time>2013-05-24T18:25:47Z</time>
      </trkpt>
      <trkpt lat="59.9007741" lon="17.6401239">
        <ele>19.8444</ele>
        <time>2013-05-24T18:25:48Z</time>
      </trkpt>
      <trkpt lat="59.9007017" lon="17.6400477">
        <ele>20.325</ele>
        <time>2013-05-24T18:25:49Z</time>
      </trkpt>
      <trkpt lat="59.9006285" lon="17.6399706">
        <ele>20.325</ele>
        <time>2013-05-24T18:25:50Z</time>
      </trkpt>
      <trkpt lat="59.9005544" lon="17.6398932">
        <ele>20.325</ele>
        <time>2013-05-24T18:25:51Z</time>
      </trkpt>
      <trkpt lat="59.9004802" lon="17.6398151">
        <ele>20.8057</ele>
        <time>2013-05-24T18:25:52Z</time>
      </trkpt>
      <trkpt lat="59.9004058" lon="17.6397353">
        <ele>21.2864</ele>
        <time>2013-05-24T18:25:53Z</time>
      </trkpt>
      <trkpt lat="59.9003305" lon="17.6396563">
        <ele>21.2864</ele>
        <time>2013-05-24T18:25:54Z</time>
      </trkpt>
      <trkpt lat="59.9002549" lon="17.6395789">
        <ele>21.2864</ele>
        <time>2013-05-24T18:25:55Z</time>
      </trkpt>
      <trkpt lat="59.9001794" lon="17.6395018">
        <ele>21.767</ele>
        <time>2013-05-24T18:25:56Z</time>
      </trkpt>
      <trkpt lat="59.9001043" lon="17.6394255">
        <ele>21.767</ele>
        <time>2013-05-24T18:25:57Z</time>
      </trkpt>
      <trkpt lat="59.9000302" lon="17.6393493">
        <ele>22.2476</ele>
        <time>2013-05-24T18:25:58Z</time>
      </trkpt>
      <trkpt lat="59.8999568" lon="17.6392727">
        <ele>22.7283</ele>
        <time>2013-05-24T18:25:59Z</time>
      </trkpt>
      <trkpt lat="59.8998818" lon="17.6392">
        <ele>23.209</ele>
        <time>2013-05-24T18:26:00Z</time>
      </trkpt>
      <trkpt lat="59.8998084" lon="17.6391251">
        <ele>23.209</ele>
        <time>2013-05-24T18:26:01Z</time>
      </trkpt>
      <trkpt lat="59.899736" lon="17.6390492">
        <ele>23.6896</ele>
        <time>2013-05-24T18:26:02Z</time>
      </trkpt>
      <trkpt lat="59.8996634" lon="17.6389753">
        <ele>24.1703</ele>
        <time>2013-05-24T18:26:03Z</time>
      </trkpt>
      <trkpt lat="59.899592" lon="17.6389019">
        <ele>24.651</ele>
        <time>2013-05-24T18:26:04Z</time>
      </trkpt>
      <trkpt lat="59.8995206" lon="17.6388302">
        <ele>25.1317</ele>
        <time>2013-05-24T18:26:05Z</time>
      </trkpt>
      <trkpt lat="59.8994507" lon="17.6387595">
        <ele>25.6123</ele>
        <time>2013-05-24T18:26:06Z</time>
      </trkpt>
      <trkpt lat="59.8993811" lon="17.638689">
        <ele>26.0929</ele>
        <time>2013-05-24T18:26:07Z</time>
      </trkpt>
      <trkpt lat="59.8993129" lon="17.6386177">
        <ele>26.5736</ele>
        <time>2013-05-24T18:26:08Z</time>
      </trkpt>
      <trkpt lat="59.899245" lon="17.6385483">
        <ele>27.0543</ele>
        <time>2013-05-24T18:26:09Z</time>
      </trkpt>
      <trkpt lat="59.8991773" lon="17.6384802">
        <ele>28.0155</ele>
        <time>2013-05-24T18:26:10Z</time>
      </trkpt>
      <trkpt lat="59.8991098" lon="17.6384124">
        <ele>28.0155</ele>
        <time>2013-05-24T18:26:11Z</time>
      </trkpt>
      <trkpt lat="59.8990419" lon="17.6383443">
        <ele>28.4962</ele>
        <time>2013-05-24T18:26:12Z</time>
      </trkpt>
      <trkpt lat="59.8989739" lon="17.6382823">
        <ele>28.9769</ele>
        <time>2013-05-24T18:26:13Z</time>
      </trkpt>
      <trkpt lat="59.8989049" lon="17.6382313">
        <ele>29.4575</ele>
        <time>2013-05-24T18:26:14Z</time>
      </trkpt>
      <trkpt lat="59.8988345" lon="17.6381985">
        <ele>29.9381</ele>
        <time>2013-05-24T18:26:15Z</time>
      </trkpt>
      <trkpt lat="59.8987604" lon="17.6381865">
        <ele>29.9381</ele>
        <time>2013-05-24T18:26:16Z</time>
      </trkpt>
      <trkpt lat="59.898684" lon="17.6381916">
        <ele>30.4188</ele>
        <time>2013-05-24T18:26:17Z</time>
      </trkpt>
      <trkpt lat="59.8986096" lon="17.638199">
        <ele>29.9381</ele>
        <time>2013-05-24T18:26:18Z</time>
      </trkpt>
      <trkpt lat="59.8985383" lon="17.6381776">
        <ele>29.4575</ele>
        <time>2013-05-24T18:26:19Z</time>
      </trkpt>
      <trkpt lat="59.8984703" lon="17.6381293">
        <ele>29.4575</ele>
        <time>2013-05-24T18:26:20Z</time>
      </trkpt>
      <trkpt lat="59.8984021" lon="17.6380699">
        <ele>28.9769</ele>
        <time>2013-05-24T18:26:21Z</time>
      </trkpt>
      <trkpt lat="59.8983325" lon="17.6380091">
        <ele>28.9769</ele>
        <time>2013-05-24T18:26:22Z</time>
      </trkpt>
      <trkpt lat="59.8982623" lon="17.6379502">
        <ele>28.4962</ele>
        <time>2013-05-24T18:26:23Z</time>
      </trkpt>
      <trkpt lat="59.8981902" lon="17.6378881">
        <ele>28.4962</ele>
        <time>2013-05-24T18:26:24Z</time>
      </trkpt>
      <trkpt lat="59.8981167" lon="17.6378224">
        <ele>28.4962</ele>
        <time>2013-05-24T18:26:25Z</time>
      </trkpt>
      <trkpt lat="59.898042" lon="17.637753">
        <ele>28.4962</ele>
        <time>2013-05-24T18:26:26Z</time>
      </trkpt>
      <trkpt lat="59.89797" lon="17.6376726">
        <ele>28.0155</ele>
        <time>2013-05-24T18:26:27Z</time>
      </trkpt>
      <trkpt lat="59.8979041" lon="17.6375788">
        <ele>28.0155</ele>
        <time>2013-05-24T18:26:28Z</time>
      </trkpt>
      <trkpt lat="59.8978452" lon="17.6374715">
        <ele>27.5349</ele>
        <time>2013-05-24T18:26:29Z</time>
      </trkpt>
      <trkpt lat="59.8977958" lon="17.6373522">
        <ele>28.0155</ele>
        <time>2013-05-24T18:26:30Z</time>
      </trkpt>
      <trkpt lat="59.8977355" lon="17.637254">
        <ele>28.0155</ele>
        <time>2013-05-24T18:26:31Z</time>
      </trkpt>
      <trkpt lat="59.8976707" lon="17.6371763">
        <ele>28.0155</ele>
        <time>2013-05-24T18:26:32Z</time>
      </trkpt>
      <trkpt lat="59.8976019" lon="17.6371183">
        <ele>28.0155</ele>
        <time>2013-05-24T18:26:33Z</time>
      </trkpt>
      <trkpt lat="59.8975319" lon="17.63707">
        <ele>28.0155</ele>
        <time>2013-05-24T18:26:34Z</time>
      </trkpt>
      <trkpt lat="59.8974634" lon="17.637022">
        <ele>28.4962</ele>
        <time>2013-05-24T18:26:35Z</time>
      </trkpt>
      <trkpt lat="59.8973938" lon="17.6369783">
        <ele>28.4962</ele>
        <time>2013-05-24T18:26:36Z</time>
      </trkpt>
      <trkpt lat="59.897324" lon="17.6369401">
        <ele>29.4575</ele>
        <time>2013-05-24T18:26:37Z</time>
      </trkpt>
      <trkpt lat="59.8972537" lon="17.6369033">
        <ele>29.9381</ele>
        <time>2013-05-24T18:26:38Z</time>
      </trkpt>
      <trkpt lat="59.8971833" lon="17.6368684">
        <ele>30.4188</ele>
        <time>2013-05-24T18:26:39Z</time>
      </trkpt>
      <trkpt lat="59.8971146" lon="17.6368301">
        <ele>30.8995</ele>
        <time>2013-05-24T18:26:40Z</time>
      </trkpt>
      <trkpt lat="59.8970459" lon="17.6367904">
        <ele>30.8995</ele>
        <time>2013-05-24T18:26:41Z</time>
      </trkpt>
      <trkpt lat="59.8969768" lon="17.636747">
        <ele>31.3801</ele>
        <time>2013-05-24T18:26:42Z</time>
      </trkpt>
      <trkpt lat="59.8969074" lon="17.6367013">
        <ele>31.3801</ele>
        <time>2013-05-24T18:26:43Z</time>
      </trkpt>
      <trkpt lat="59.8968393" lon="17.6366617">
        <ele>31.3801</ele>
        <time>2013-05-24T18:26:44Z</time>
      </trkpt>
      <trkpt lat="59.8967724" lon="17.6366234">
        <ele>31.8607</ele>
        <time>2013-05-24T18:26:45Z</time>
      </trkpt>
      <trkpt lat="59.8967047" lon="17.6365862">
        <ele>32.3416</ele>
        <time>2013-05-24T18:26:46Z</time>
      </trkpt>
      <trkpt lat="59.8966383" lon="17.6365555">
        <ele>32.8223</ele>
        <time>2013-05-24T18:26:47Z</time>
      </trkpt>
      <trkpt lat="59.8965707" lon="17.6365314">
        <ele>33.3029</ele>
        <time>2013-05-24T18:26:48Z</time>
      </trkpt>
      <trkpt lat="59.8965015" lon="17.6365101">
        <ele>33.3029</ele>
        <time>2013-05-24T18:26:49Z</time>
      </trkpt>
      <trkpt lat="59.8964316" lon="17.6364859">
        <ele>33.7834</ele>
        <time>2013-05-24T18:26:50Z</time>
      </trkpt>
      <trkpt lat="59.8963646" lon="17.6364623">
        <ele>33.7834</ele>
        <time>2013-05-24T18:26:51Z</time>
      </trkpt>
      <trkpt lat="59.8962927" lon="17.6364392">
        <ele>33.7834</ele>
        <time>2013-05-24T18:26:52Z</time>
      </trkpt>
      <trkpt lat="59.8962197" lon="17.6364147">
        <ele>33.7834</ele>
        <time>2013-05-24T18:26:53Z</time>
      </trkpt>
      <trkpt lat="59.8961462" lon="17.6363846">
        <ele>33.7834</ele>
        <time>2013-05-24T18:26:54Z</time>
      </trkpt>
      <trkpt lat="59.8960722" lon="17.6363511">
        <ele>33.7834</ele>
        <time>2013-05-24T18:26:55Z</time>
      </trkpt>
      <trkpt lat="59.8959985" lon="17.6363246">
        <ele>33.7834</ele>
        <time>2013-05-24T18:26:56Z</time>
      </trkpt>
      <trkpt lat="59.895923" lon="17.6363148">
        <ele>33.7834</ele>
        <time>2013-05-24T18:26:57Z</time>
      </trkpt>
      <trkpt lat="59.8958456" lon="17.6363246">
        <ele>33.7834</ele>
        <time>2013-05-24T18:26:58Z</time>
      </trkpt>
      <trkpt lat="59.8957685" lon="17.6363387">
        <ele>33.7834</ele>
        <time>2013-05-24T18:26:59Z</time>
      </trkpt>
      <trkpt lat="59.8956908" lon="17.6363542">
        <ele>34.2642</ele>
        <time>2013-05-24T18:27:00Z</time>
      </trkpt>
      <trkpt lat="59.8956125" lon="17.6363751">
        <ele>34.7449</ele>
        <time>2013-05-24T18:27:01Z</time>
      </trkpt>
      <trkpt lat="59.8955343" lon="17.6364013">
        <ele>35.2255</ele>
        <time>2013-05-24T18:27:02Z</time>
      </trkpt>
      <trkpt lat="59.8954625" lon="17.6364438">
        <ele>34.7449</ele>
        <time>2013-05-24T18:27:03Z</time>
      </trkpt>
      <trkpt lat="59.8953899" lon="17.6364924">
        <ele>34.2642</ele>
        <time>2013-05-24T18:27:04Z</time>
      </trkpt>
      <trkpt lat="59.8953156" lon="17.6365443">
        <ele>34.2642</ele>
        <time>2013-05-24T18:27:05Z</time>
      </trkpt>
      <trkpt lat="59.8952406" lon="17.6365985">
        <ele>33.7834</ele>
        <time>2013-05-24T18:27:06Z</time>
      </trkpt>
      <trkpt lat="59.8951635" lon="17.6366529">
        <ele>33.7834</ele>
        <time>2013-05-24T18:27:07Z</time>
      </trkpt>
      <trkpt lat="59.8950849" lon="17.6367064">
        <ele>33.7834</ele>
        <time>2013-05-24T18:27:08Z</time>
      </trkpt>
      <trkpt lat="59.895003" lon="17.6367594">
        <ele>34.2642</ele>
        <time>2013-05-24T18:27:09Z</time>
      </trkpt>
      <trkpt lat="59.8949262" lon="17.6368121">
        <ele>33.7834</ele>
        <time>2013-05-24T18:27:10Z</time>
      </trkpt>
      <trkpt lat="59.8948499" lon="17.6368635">
        <ele>33.3029</ele>
        <time>2013-05-24T18:27:11Z</time>
      </trkpt>
      <trkpt lat="59.8947704" lon="17.6369145">
        <ele>33.3029</ele>
        <time>2013-05-24T18:27:12Z</time>
      </trkpt>
      <trkpt lat="59.8946912" lon="17.6369649">
        <ele>32.8223</ele>
        <time>2013-05-24T18:27:13Z</time>
      </trkpt>
      <trkpt lat="59.8946119" lon="17.6370215">
        <ele>32.8223</ele>
        <time>2013-05-24T18:27:14Z</time>
      </trkpt>
      <trkpt lat="59.8945345" lon="17.6370744">
        <ele>32.8223</ele>
        <time>2013-05-24T18:27:15Z</time>
      </trkpt>
      <trkpt lat="59.89446" lon="17.6371231">
        <ele>32.8223</ele>
        <time>2013-05-24T18:27:16Z</time>
      </trkpt>
      <trkpt lat="59.8943863" lon="17.6371711">
        <ele>32.8223</ele>
        <time>2013-05-24T18:27:17Z</time>
      </trkpt>
      <trkpt lat="59.8943128" lon="17.6372168">
        <ele>31.8607</ele>
        <time>2013-05-24T18:27:18Z</time>
      </trkpt>
      <trkpt lat="59.8942414" lon="17.6372623">
        <ele>30.8995</ele>
        <time>2013-05-24T18:27:19Z</time>
      </trkpt>
      <trkpt lat="59.8941688" lon="17.6373082">
        <ele>30.4188</ele>
        <time>2013-05-24T18:27:20Z</time>
      </trkpt>
      <trkpt lat="59.8940968" lon="17.637356">
        <ele>30.8995</ele>
        <time>2013-05-24T18:27:21Z</time>
      </trkpt>
      <trkpt lat="59.8940157" lon="17.6373932">
        <ele>30.4188</ele>
        <time>2013-05-24T18:27:22Z</time>
      </trkpt>
      <trkpt lat="59.8939446" lon="17.6374445">
        <ele>29.9381</ele>
        <time>2013-05-24T18:27:23Z</time>
      </trkpt>
      <trkpt lat="59.8938742" lon="17.6375021">
        <ele>29.4575</ele>
        <time>2013-05-24T18:27:24Z</time>
      </trkpt>
      <trkpt lat="59.8937991" lon="17.6375601">
        <ele>28.4962</ele>
        <time>2013-05-24T18:27:25Z</time>
      </trkpt>
      <trkpt lat="59.8937219" lon="17.6376188">
        <ele>28.0155</ele>
        <time>2013-05-24T18:27:26Z</time>
      </trkpt>
      <trkpt lat="59.8936405" lon="17.637681">
        <ele>28.4962</ele>
        <time>2013-05-24T18:27:27Z</time>
      </trkpt>
      <trkpt lat="59.893565" lon="17.6377436">
        <ele>28.0155</ele>
        <time>2013-05-24T18:27:28Z</time>
      </trkpt>
      <trkpt lat="59.8934872" lon="17.6377979">
        <ele>27.5349</ele>
        <time>2013-05-24T18:27:29Z</time>
      </trkpt>
      <trkpt lat="59.8934057" lon="17.6378466">
        <ele>26.5736</ele>
        <time>2013-05-24T18:27:30Z</time>
      </trkpt>
      <trkpt lat="59.893323" lon="17.6378977">
        <ele>26.0929</ele>
        <time>2013-05-24T18:27:31Z</time>
      </trkpt>
      <trkpt lat="59.8932438" lon="17.6379464">
        <ele>25.1317</ele>
        <time>2013-05-24T18:27:32Z</time>
      </trkpt>
      <trkpt lat="59.8931578" lon="17.6379948">
        <ele>24.651</ele>
        <time>2013-05-24T18:27:33Z</time>
      </trkpt>
      <trkpt lat="59.8930712" lon="17.6380393">
        <ele>24.651</ele>
        <time>2013-05-24T18:27:34Z</time>
      </trkpt>
      <trkpt lat="59.8929811" lon="17.6380796">
        <ele>24.1703</ele>
        <time>2013-05-24T18:27:35Z</time>
      </trkpt>
      <trkpt lat="59.8928885" lon="17.6381124">
        <ele>23.6896</ele>
        <time>2013-05-24T18:27:36Z</time>
      </trkpt>
      <trkpt lat="59.8927932" lon="17.6381326">
        <ele>23.209</ele>
        <time>2013-05-24T18:27:37Z</time>
      </trkpt>
      <trkpt lat="59.8926958" lon="17.6381581">
        <ele>22.7283</ele>
        <time>2013-05-24T18:27:38Z</time>
      </trkpt>
      <trkpt lat="59.8926004" lon="17.6382046">
        <ele>22.2476</ele>
        <time>2013-05-24T18:27:39Z</time>
      </trkpt>
      <trkpt lat="59.8925061" lon="17.6382605">
        <ele>21.767</ele>
        <time>2013-05-24T18:27:40Z</time>
      </trkpt>
      <trkpt lat="59.8924086" lon="17.6383077">
        <ele>21.2864</ele>
        <time>2013-05-24T18:27:41Z</time>
      </trkpt>
      <trkpt lat="59.8923054" lon="17.6383423">
        <ele>20.8057</ele>
        <time>2013-05-24T18:27:42Z</time>
      </trkpt>
      <trkpt lat="59.8922005" lon="17.6383684">
        <ele>20.325</ele>
        <time>2013-05-24T18:27:43Z</time>
      </trkpt>
      <trkpt lat="59.8920944" lon="17.6383889">
        <ele>20.325</ele>
        <time>2013-05-24T18:27:44Z</time>
      </trkpt>
      <trkpt lat="59.8919843" lon="17.6384123">
        <ele>19.8444</ele>
        <time>2013-05-24T18:27:45Z</time>
      </trkpt>
      <trkpt lat="59.8918772" lon="17.6384258">
        <ele>19.3638</ele>
        <time>2013-05-24T18:27:46Z</time>
      </trkpt>
      <trkpt lat="59.8917627" lon="17.63845">
        <ele>19.3638</ele>
        <time>2013-05-24T18:27:47Z</time>
      </trkpt>
      <trkpt lat="59.8916509" lon="17.638465">
        <ele>19.3638</ele>
        <time>2013-05-24T18:27:48Z</time>
      </trkpt>
      <trkpt lat="59.8915383" lon="17.6384755">
        <ele>18.8831</ele>
        <time>2013-05-24T18:27:49Z</time>
      </trkpt>
      <trkpt lat="59.8914241" lon="17.6384823">
        <ele>18.4023</ele>
        <time>2013-05-24T18:27:50Z</time>
      </trkpt>
      <trkpt lat="59.8913074" lon="17.6384873">
        <ele>18.4023</ele>
        <time>2013-05-24T18:27:51Z</time>
      </trkpt>
      <trkpt lat="59.891192" lon="17.6384836">
        <ele>17.9218</ele>
        <time>2013-05-24T18:27:52Z</time>
      </trkpt>
      <trkpt lat="59.8910772" lon="17.6384733">
        <ele>17.9218</ele>
        <time>2013-05-24T18:27:53Z</time>
      </trkpt>
      <trkpt lat="59.890963" lon="17.6384574">
        <ele>17.9218</ele>
        <time>2013-05-24T18:27:54Z</time>
      </trkpt>
      <trkpt lat="59.8908505" lon="17.6384377">
        <ele>17.4412</ele>
        <time>2013-05-24T18:27:55Z</time>
      </trkpt>
      <trkpt lat="59.8907354" lon="17.6384178">
        <ele>16.9604</ele>
        <time>2013-05-24T18:27:56Z</time>
      </trkpt>
      <trkpt lat="59.8906186" lon="17.6383972">
        <ele>16.9604</ele>
        <time>2013-05-24T18:27:57Z</time>
      </trkpt>
      <trkpt lat="59.8905045" lon="17.6383751">
        <ele>16.4797</ele>
        <time>2013-05-24T18:27:58Z</time>
      </trkpt>
      <trkpt lat="59.8903869" lon="17.6383523">
        <ele>15.999</ele>
        <time>2013-05-24T18:27:59Z</time>
      </trkpt>
      <trkpt lat="59.890273" lon="17.63832">
        <ele>15.5184</ele>
        <time>2013-05-24T18:28:00Z</time>
      </trkpt>
      <trkpt lat="59.8901606" lon="17.6382854">
        <ele>15.0377</ele>
        <time>2013-05-24T18:28:01Z</time>
      </trkpt>
      <trkpt lat="59.8900456" lon="17.6382329">
        <ele>14.557</ele>
        <time>2013-05-24T18:28:02Z</time>
      </trkpt>
      <trkpt lat="59.889919" lon="17.6381779">
        <ele>14.557</ele>
        <time>2013-05-24T18:28:03Z</time>
      </trkpt>
      <trkpt lat="59.8898036" lon="17.6381008">
        <ele>14.0764</ele>
        <time>2013-05-24T18:28:04Z</time>
      </trkpt>
      <trkpt lat="59.8896905" lon="17.638046">
        <ele>14.0764</ele>
        <time>2013-05-24T18:28:05Z</time>
      </trkpt>
      <trkpt lat="59.8895809" lon="17.6380093">
        <ele>14.0764</ele>
        <time>2013-05-24T18:28:06Z</time>
      </trkpt>
      <trkpt lat="59.8894704" lon="17.6379702">
        <ele>14.0764</ele>
        <time>2013-05-24T18:28:07Z</time>
      </trkpt>
      <trkpt lat="59.8893609" lon="17.6379319">
        <ele>14.0764</ele>
        <time>2013-05-24T18:28:08Z</time>
      </trkpt>
      <trkpt lat="59.8892544" lon="17.6378907">
        <ele>14.0764</ele>
        <time>2013-05-24T18:28:09Z</time>
      </trkpt>
      <trkpt lat="59.8891482" lon="17.6378529">
        <ele>14.0764</ele>
        <time>2013-05-24T18:28:10Z</time>
      </trkpt>
      <trkpt lat="59.8890437" lon="17.6378241">
        <ele>14.0764</ele>
        <time>2013-05-24T18:28:11Z</time>
      </trkpt>
      <trkpt lat="59.8889417" lon="17.6378119">
        <ele>14.557</ele>
        <time>2013-05-24T18:28:12Z</time>
      </trkpt>
      <trkpt lat="59.8888427" lon="17.6378104">
        <ele>14.557</ele>
        <time>2013-05-24T18:28:13Z</time>
      </trkpt>
      <trkpt lat="59.8887439" lon="17.6378144">
        <ele>14.557</ele>
        <time>2013-05-24T18:28:14Z</time>
      </trkpt>
      <trkpt lat="59.8886433" lon="17.6378239">
        <ele>15.0377</ele>
        <time>2013-05-24T18:28:15Z</time>
      </trkpt>
      <trkpt lat="59.8885434" lon="17.6378385">
        <ele>15.0377</ele>
        <time>2013-05-24T18:28:16Z</time>
      </trkpt>
      <trkpt lat="59.8884454" lon="17.6378487">
        <ele>15.5184</ele>
        <time>2013-05-24T18:28:17Z</time>
      </trkpt>
      <trkpt lat="59.8883475" lon="17.637857">
        <ele>15.5184</ele>
        <time>2013-05-24T18:28:18Z</time>
      </trkpt>
      <trkpt lat="59.8882532" lon="17.6378622">
        <ele>15.5184</ele>
        <time>2013-05-24T18:28:19Z</time>
      </trkpt>
      <trkpt lat="59.8881642" lon="17.637863">
        <ele>15.999</ele>
        <time>2013-05-24T18:28:20Z</time>
      </trkpt>
      <trkpt lat="59.8880767" lon="17.6378565">
        <ele>15.999</ele>
        <time>2013-05-24T18:28:21Z</time>
      </trkpt>
      <trkpt lat="59.8879868" lon="17.6378509">
        <ele>15.0377</ele>
        <time>2013-05-24T18:28:22Z</time>
      </trkpt>
      <trkpt lat="59.8878962" lon="17.63784">
        <ele>14.557</ele>
        <time>2013-05-24T18:28:23Z</time>
      </trkpt>
      <trkpt lat="59.8878109" lon="17.6378174">
        <ele>15.0377</ele>
        <time>2013-05-24T18:28:24Z</time>
      </trkpt>
      <trkpt lat="59.8877242" lon="17.6377959">
        <ele>15.0377</ele>
        <time>2013-05-24T18:28:25Z</time>
      </trkpt>
      <trkpt lat="59.8876394" lon="17.6377658">
        <ele>15.5184</ele>
        <time>2013-05-24T18:28:26Z</time>
      </trkpt>
      <trkpt lat="59.8875498" lon="17.6377354">
        <ele>15.5184</ele>
        <time>2013-05-24T18:28:27Z</time>
      </trkpt>
      <trkpt lat="59.8874626" lon="17.6376994">
        <ele>15.5184</ele>
        <time>2013-05-24T18:28:28Z</time>
      </trkpt>
      <trkpt lat="59.8873753" lon="17.6376613">
        <ele>15.5184</ele>
        <time>2013-05-24T18:28:29Z</time>
      </trkpt>
      <trkpt lat="59.8872867" lon="17.6376258">
        <ele>15.999</ele>
        <time>2013-05-24T18:28:30Z</time>
      </trkpt>
      <trkpt lat="59.8871996" lon="17.6375865">
        <ele>15.5184</ele>
        <time>2013-05-24T18:28:31Z</time>
      </trkpt>
      <trkpt lat="59.8871152" lon="17.6375409">
        <ele>15.5184</ele>
        <time>2013-05-24T18:28:32Z</time>
      </trkpt>
      <trkpt lat="59.8870297" lon="17.6375004">
        <ele>15.999</ele>
        <time>2013-05-24T18:28:33Z</time>
      </trkpt>
      <trkpt lat="59.8869438" lon="17.6374631">
        <ele>15.999</ele>
        <time>2013-05-24T18:28:34Z</time>
      </trkpt>
      <trkpt lat="59.8868563" lon="17.6374286">
        <ele>15.5184</ele>
        <time>2013-05-24T18:28:35Z</time>
      </trkpt>
      <trkpt lat="59.8867609" lon="17.6374011">
        <ele>15.0377</ele>
        <time>2013-05-24T18:28:36Z</time>
      </trkpt>
      <trkpt lat="59.8866745" lon="17.637369">
        <ele>15.0377</ele>
        <time>2013-05-24T18:28:37Z</time>
      </trkpt>
      <trkpt lat="59.8865853" lon="17.6373354">
        <ele>14.557</ele>
        <time>2013-05-24T18:28:38Z</time>
      </trkpt>
      <trkpt lat="59.8865008" lon="17.6372971">
        <ele>14.557</ele>
        <time>2013-05-24T18:28:39Z</time>
      </trkpt>
      <trkpt lat="59.8864152" lon="17.6372613">
        <ele>14.0764</ele>
        <time>2013-05-24T18:28:40Z</time>
      </trkpt>
      <trkpt lat="59.886331" lon="17.6372222">
        <ele>14.0764</ele>
        <time>2013-05-24T18:28:41Z</time>
      </trkpt>
      <trkpt lat="59.8862515" lon="17.6371768">
        <ele>14.0764</ele>
        <time>2013-05-24T18:28:42Z</time>
      </trkpt>
      <trkpt lat="59.8861753" lon="17.6371249">
        <ele>14.557</ele>
        <time>2013-05-24T18:28:43Z</time>
      </trkpt>
      <trkpt lat="59.8860988" lon="17.6370669">
        <ele>14.557</ele>
        <time>2013-05-24T18:28:44Z</time>
      </trkpt>
      <trkpt lat="59.8860259" lon="17.6369996">
        <ele>15.0377</ele>
        <time>2013-05-24T18:28:45Z</time>
      </trkpt>
      <trkpt lat="59.8859495" lon="17.6369329">
        <ele>15.0377</ele>
        <time>2013-05-24T18:28:46Z</time>
      </trkpt>
      <trkpt lat="59.8858724" lon="17.6368664">
        <ele>15.0377</ele>
        <time>2013-05-24T18:28:47Z</time>
      </trkpt>
      <trkpt lat="59.8857957" lon="17.6368">
        <ele>15.5184</ele>
        <time>2013-05-24T18:28:48Z</time>
      </trkpt>
      <trkpt lat="59.8857174" lon="17.6367319">
        <ele>15.5184</ele>
        <time>2013-05-24T18:28:49Z</time>
      </trkpt>
      <trkpt lat="59.885641" lon="17.6366576">
        <ele>15.999</ele>
        <time>2013-05-24T18:28:50Z</time>
      </trkpt>
      <trkpt lat="59.8855617" lon="17.6365848">
        <ele>15.999</ele>
        <time>2013-05-24T18:28:51Z</time>
      </trkpt>
      <trkpt lat="59.8854815" lon="17.6365125">
        <ele>15.999</ele>
        <time>2013-05-24T18:28:52Z</time>
      </trkpt>
      <trkpt lat="59.8854032" lon="17.6364375">
        <ele>15.5184</ele>
        <time>2013-05-24T18:28:53Z</time>
      </trkpt>
      <trkpt lat="59.8853206" lon="17.6363666">
        <ele>15.999</ele>
        <time>2013-05-24T18:28:54Z</time>
      </trkpt>
      <trkpt lat="59.8852369" lon="17.6363004">
        <ele>15.999</ele>
        <time>2013-05-24T18:28:55Z</time>
      </trkpt>
      <trkpt lat="59.8851562" lon="17.636233">
        <ele>15.999</ele>
        <time>2013-05-24T18:28:56Z</time>
      </trkpt>
      <trkpt lat="59.8850719" lon="17.6361785">
        <ele>16.4797</ele>
        <time>2013-05-24T18:28:57Z</time>
      </trkpt>
      <trkpt lat="59.8849932" lon="17.6361332">
        <ele>16.9604</ele>
        <time>2013-05-24T18:28:58Z</time>
      </trkpt>
      <trkpt lat="59.8849155" lon="17.6361044">
        <ele>16.9604</ele>
        <time>2013-05-24T18:28:59Z</time>
      </trkpt>
      <trkpt lat="59.884836" lon="17.6360735">
        <ele>17.4412</ele>
        <time>2013-05-24T18:29:00Z</time>
      </trkpt>
      <trkpt lat="59.8847587" lon="17.6360264">
        <ele>17.4412</ele>
        <time>2013-05-24T18:29:01Z</time>
      </trkpt>
      <trkpt lat="59.88468" lon="17.6359728">
        <ele>17.4412</ele>
        <time>2013-05-24T18:29:02Z</time>
      </trkpt>
      <trkpt lat="59.8845995" lon="17.6359283">
        <ele>17.9218</ele>
        <time>2013-05-24T18:29:03Z</time>
      </trkpt>
      <trkpt lat="59.884518" lon="17.6358968">
        <ele>18.4023</ele>
        <time>2013-05-24T18:29:04Z</time>
      </trkpt>
      <trkpt lat="59.8844297" lon="17.6358656">
        <ele>18.4023</ele>
        <time>2013-05-24T18:29:05Z</time>
      </trkpt>
      <trkpt lat="59.8843392" lon="17.6358237">
        <ele>17.9218</ele>
        <time>2013-05-24T18:29:06Z</time>
      </trkpt>
      <trkpt lat="59.884248" lon="17.6357776">
        <ele>17.4412</ele>
        <time>2013-05-24T18:29:07Z</time>
      </trkpt>
      <trkpt lat="59.8841593" lon="17.6357281">
        <ele>16.9604</ele>
        <time>2013-05-24T18:29:08Z</time>
      </trkpt>
      <trkpt lat="59.8840698" lon="17.6356803">
        <ele>16.9604</ele>
        <time>2013-05-24T18:29:09Z</time>
      </trkpt>
      <trkpt lat="59.8839719" lon="17.6356482">
        <ele>16.9604</ele>
        <time>2013-05-24T18:29:10Z</time>
      </trkpt>
      <trkpt lat="59.8838617" lon="17.635611">
        <ele>16.9604</ele>
        <time>2013-05-24T18:29:11Z</time>
      </trkpt>
      <trkpt lat="59.8837564" lon="17.6355626">
        <ele>16.9604</ele>
        <time>2013-05-24T18:29:12Z</time>
      </trkpt>
      <trkpt lat="59.8836563" lon="17.6355305">
        <ele>16.9604</ele>
        <time>2013-05-24T18:29:13Z</time>
      </trkpt>
      <trkpt lat="59.8835584" lon="17.6355238">
        <ele>16.9604</ele>
        <time>2013-05-24T18:29:14Z</time>
      </trkpt>
      <trkpt lat="59.8834595" lon="17.635503">
        <ele>16.9604</ele>
        <time>2013-05-24T18:29:15Z</time>
      </trkpt>
      <trkpt lat="59.8833517" lon="17.6354924">
        <ele>16.4797</ele>
        <time>2013-05-24T18:29:16Z</time>
      </trkpt>
      <trkpt lat="59.8832522" lon="17.6354967">
        <ele>15.5184</ele>
        <time>2013-05-24T18:29:17Z</time>
      </trkpt>
      <trkpt lat="59.8831581" lon="17.6354973">
        <ele>14.557</ele>
        <time>2013-05-24T18:29:18Z</time>
      </trkpt>
      <trkpt lat="59.8830715" lon="17.6354988">
        <ele>14.0764</ele>
        <time>2013-05-24T18:29:19Z</time>
      </trkpt>
      <trkpt lat="59.8829956" lon="17.6355015">
        <ele>13.5958</ele>
        <time>2013-05-24T18:29:20Z</time>
      </trkpt>
      <trkpt lat="59.8829307" lon="17.6355136">
        <ele>12.6344</ele>
        <time>2013-05-24T18:29:21Z</time>
      </trkpt>
      <trkpt lat="59.8828643" lon="17.6355244">
        <ele>12.6344</ele>
        <time>2013-05-24T18:29:22Z</time>
      </trkpt>
      <trkpt lat="59.8827769" lon="17.635559">
        <ele>12.6344</ele>
        <time>2013-05-24T18:29:23Z</time>
      </trkpt>
      <trkpt lat="59.8826995" lon="17.6355638">
        <ele>12.6344</ele>
        <time>2013-05-24T18:29:24Z</time>
      </trkpt>
      <trkpt lat="59.8826147" lon="17.6355807">
        <ele>12.6344</ele>
        <time>2013-05-24T18:29:25Z</time>
      </trkpt>
      <trkpt lat="59.8825329" lon="17.6355991">
        <ele>12.1538</ele>
        <time>2013-05-24T18:29:26Z</time>
      </trkpt>
      <trkpt lat="59.8824493" lon="17.6356288">
        <ele>12.1538</ele>
        <time>2013-05-24T18:29:27Z</time>
      </trkpt>
      <trkpt lat="59.8823702" lon="17.6356595">
        <ele>12.6344</ele>
        <time>2013-05-24T18:29:28Z</time>
      </trkpt>
      <trkpt lat="59.8822861" lon="17.6356937">
        <ele>11.6732</ele>
        <time>2013-05-24T18:29:29Z</time>
      </trkpt>
      <trkpt lat="59.8822073" lon="17.6357182">
        <ele>11.1925</ele>
        <time>2013-05-24T18:29:30Z</time>
      </trkpt>
      <trkpt lat="59.8821257" lon="17.6357421">
        <ele>11.1925</ele>
        <time>2013-05-24T18:29:31Z</time>
      </trkpt>
      <trkpt lat="59.8820416" lon="17.6357694">
        <ele>11.1925</ele>
        <time>2013-05-24T18:29:32Z</time>
      </trkpt>
      <trkpt lat="59.8819544" lon="17.6357974">
        <ele>11.1925</ele>
        <time>2013-05-24T18:29:33Z</time>
      </trkpt>
      <trkpt lat="59.8818703" lon="17.6358191">
        <ele>11.6732</ele>
        <time>2013-05-24T18:29:34Z</time>
      </trkpt>
      <trkpt lat="59.8817881" lon="17.6358371">
        <ele>12.6344</ele>
        <time>2013-05-24T18:29:35Z</time>
      </trkpt>
      <trkpt lat="59.8817051" lon="17.6358528">
        <ele>13.1151</ele>
        <time>2013-05-24T18:29:36Z</time>
      </trkpt>
      <trkpt lat="59.8816179" lon="17.6358567">
        <ele>13.5958</ele>
        <time>2013-05-24T18:29:37Z</time>
      </trkpt>
      <trkpt lat="59.8815291" lon="17.6358281">
        <ele>13.1151</ele>
        <time>2013-05-24T18:29:38Z</time>
      </trkpt>
      <trkpt lat="59.881443" lon="17.6357611">
        <ele>13.5958</ele>
        <time>2013-05-24T18:29:39Z</time>
      </trkpt>
      <trkpt lat="59.8813694" lon="17.6356689">
        <ele>13.5958</ele>
        <time>2013-05-24T18:29:40Z</time>
      </trkpt>
      <trkpt lat="59.8812737" lon="17.6356207">
        <ele>13.5958</ele>
        <time>2013-05-24T18:29:41Z</time>
      </trkpt>
      <trkpt lat="59.8811721" lon="17.6356113">
        <ele>13.1151</ele>
        <time>2013-05-24T18:29:42Z</time>
      </trkpt>
      <trkpt lat="59.8810742" lon="17.6356134">
        <ele>13.1151</ele>
        <time>2013-05-24T18:29:43Z</time>
      </trkpt>
      <trkpt lat="59.8809769" lon="17.6356253">
        <ele>13.1151</ele>
        <time>2013-05-24T18:29:44Z</time>
      </trkpt>
      <trkpt lat="59.88088" lon="17.6356367">
        <ele>13.1151</ele>
        <time>2013-05-24T18:29:45Z</time>
      </trkpt>
      <trkpt lat="59.8807799" lon="17.635647">
        <ele>13.1151</ele>
        <time>2013-05-24T18:29:46Z</time>
      </trkpt>
      <trkpt lat="59.8806787" lon="17.6356538">
        <ele>13.1151</ele>
        <time>2013-05-24T18:29:47Z</time>
      </trkpt>
      <trkpt lat="59.880577" lon="17.6356604">
        <ele>13.1151</ele>
        <time>2013-05-24T18:29:48Z</time>
      </trkpt>
      <trkpt lat="59.8804722" lon="17.6356714">
        <ele>13.1151</ele>
        <time>2013-05-24T18:29:49Z</time>
      </trkpt>
      <trkpt lat="59.8803687" lon="17.6356819">
        <ele>13.1151</ele>
        <time>2013-05-24T18:29:50Z</time>
      </trkpt>
      <trkpt lat="59.8802655" lon="17.6356928">
        <ele>12.6344</ele>
        <time>2013-05-24T18:29:51Z</time>
      </trkpt>
      <trkpt lat="59.8801596" lon="17.6357047">
        <ele>12.6344</ele>
        <time>2013-05-24T18:29:52Z</time>
      </trkpt>
      <trkpt lat="59.8800531" lon="17.6357139">
        <ele>12.1538</ele>
        <time>2013-05-24T18:29:53Z</time>
      </trkpt>
      <trkpt lat="59.8799476" lon="17.6357215">
        <ele>12.1538</ele>
        <time>2013-05-24T18:29:54Z</time>
      </trkpt>
      <trkpt lat="59.8798418" lon="17.6357275">
        <ele>12.1538</ele>
        <time>2013-05-24T18:29:55Z</time>
      </trkpt>
      <trkpt lat="59.8797359" lon="17.6357305">
        <ele>12.1538</ele>
        <time>2013-05-24T18:29:56Z</time>
      </trkpt>
      <trkpt lat="59.8796297" lon="17.6357343">
        <ele>11.6732</ele>
        <time>2013-05-24T18:29:57Z</time>
      </trkpt>
      <trkpt lat="59.879523" lon="17.6357414">
        <ele>11.6732</ele>
        <time>2013-05-24T18:29:58Z</time>
      </trkpt>
      <trkpt lat="59.8794176" lon="17.6357477">
        <ele>11.6732</ele>
        <time>2013-05-24T18:29:59Z</time>
      </trkpt>
      <trkpt lat="59.8793137" lon="17.6357538">
        <ele>11.1925</ele>
        <time>2013-05-24T18:30:00Z</time>
      </trkpt>
      <trkpt lat="59.8792087" lon="17.6357602">
        <ele>11.1925</ele>
        <time>2013-05-24T18:30:01Z</time>
      </trkpt>
      <trkpt lat="59.8791045" lon="17.6357648">
        <ele>11.1925</ele>
        <time>2013-05-24T18:30:02Z</time>
      </trkpt>
      <trkpt lat="59.8789964" lon="17.6357723">
        <ele>11.1925</ele>
        <time>2013-05-24T18:30:03Z</time>
      </trkpt>
      <trkpt lat="59.8788765" lon="17.6357938">
        <ele>11.1925</ele>
        <time>2013-05-24T18:30:04Z</time>
      </trkpt>
      <trkpt lat="59.8787566" lon="17.6358149">
        <ele>11.1925</ele>
        <time>2013-05-24T18:30:05Z</time>
      </trkpt>
      <trkpt lat="59.8786577" lon="17.6358046">
        <ele>11.1925</ele>
        <time>2013-05-24T18:30:06Z</time>
      </trkpt>
      <trkpt lat="59.8785526" lon="17.6358006">
        <ele>10.2312</ele>
        <time>2013-05-24T18:30:07Z</time>
      </trkpt>
      <trkpt lat="59.8784443" lon="17.6358039">
        <ele>10.7118</ele>
        <time>2013-05-24T18:30:08Z</time>
      </trkpt>
      <trkpt lat="59.8783366" lon="17.6358077">
        <ele>10.7118</ele>
        <time>2013-05-24T18:30:09Z</time>
      </trkpt>
      <trkpt lat="59.8782229" lon="17.6358215">
        <ele>11.1925</ele>
        <time>2013-05-24T18:30:10Z</time>
      </trkpt>
      <trkpt lat="59.878108" lon="17.6358367">
        <ele>11.1925</ele>
        <time>2013-05-24T18:30:11Z</time>
      </trkpt>
      <trkpt lat="59.8779926" lon="17.6358498">
        <ele>11.1925</ele>
        <time>2013-05-24T18:30:12Z</time>
      </trkpt>
      <trkpt lat="59.8778781" lon="17.6358558">
        <ele>11.1925</ele>
        <time>2013-05-24T18:30:13Z</time>
      </trkpt>
      <trkpt lat="59.8777625" lon="17.6358637">
        <ele>11.1925</ele>
        <time>2013-05-24T18:30:14Z</time>
      </trkpt>
      <trkpt lat="59.8776479" lon="17.6358718">
        <ele>11.6732</ele>
        <time>2013-05-24T18:30:15Z</time>
      </trkpt>
      <trkpt lat="59.8775326" lon="17.6358808">
        <ele>11.6732</ele>
        <time>2013-05-24T18:30:16Z</time>
      </trkpt>
      <trkpt lat="59.8774252" lon="17.6358849">
        <ele>11.6732</ele>
        <time>2013-05-24T18:30:17Z</time>
      </trkpt>
      <trkpt lat="59.8773155" lon="17.6358923">
        <ele>11.1925</ele>
        <time>2013-05-24T18:30:18Z</time>
      </trkpt>
      <trkpt lat="59.8772056" lon="17.6359039">
        <ele>11.1925</ele>
        <time>2013-05-24T18:30:19Z</time>
      </trkpt>
      <trkpt lat="59.8770978" lon="17.6359135">
        <ele>11.1925</ele>
        <time>2013-05-24T18:30:20Z</time>
      </trkpt>
      <trkpt lat="59.8769912" lon="17.6359191">
        <ele>11.1925</ele>
        <time>2013-05-24T18:30:21Z</time>
      </trkpt>
      <trkpt lat="59.876887" lon="17.6359212">
        <ele>11.6732</ele>
        <time>2013-05-24T18:30:22Z</time>
      </trkpt>
      <trkpt lat="59.8767824" lon="17.6359254">
        <ele>11.6732</ele>
        <time>2013-05-24T18:30:23Z</time>
      </trkpt>
      <trkpt lat="59.8766783" lon="17.6359314">
        <ele>11.6732</ele>
        <time>2013-05-24T18:30:24Z</time>
      </trkpt>
      <trkpt lat="59.8765766" lon="17.6359372">
        <ele>11.6732</ele>
        <time>2013-05-24T18:30:25Z</time>
      </trkpt>
      <trkpt lat="59.8764769" lon="17.6359441">
        <ele>11.6732</ele>
        <time>2013-05-24T18:30:26Z</time>
      </trkpt>
      <trkpt lat="59.8763775" lon="17.6359559">
        <ele>11.6732</ele>
        <time>2013-05-24T18:30:27Z</time>
      </trkpt>
      <trkpt lat="59.876277" lon="17.6359704">
        <ele>11.6732</ele>
        <time>2013-05-24T18:30:28Z</time>
      </trkpt>
      <trkpt lat="59.8761764" lon="17.6359883">
        <ele>11.6732</ele>
        <time>2013-05-24T18:30:29Z</time>
      </trkpt>
      <trkpt lat="59.8760785" lon="17.6360056">
        <ele>11.6732</ele>
        <time>2013-05-24T18:30:30Z</time>
      </trkpt>
      <trkpt lat="59.87598" lon="17.6360253">
        <ele>11.6732</ele>
        <time>2013-05-24T18:30:31Z</time>
      </trkpt>
      <trkpt lat="59.8758819" lon="17.6360466">
        <ele>11.6732</ele>
        <time>2013-05-24T18:30:32Z</time>
      </trkpt>
      <trkpt lat="59.875784" lon="17.6360726">
        <ele>11.6732</ele>
        <time>2013-05-24T18:30:33Z</time>
      </trkpt>
      <trkpt lat="59.8756899" lon="17.6360985">
        <ele>11.6732</ele>
        <time>2013-05-24T18:30:34Z</time>
      </trkpt>
      <trkpt lat="59.8755962" lon="17.636132">
        <ele>11.6732</ele>
        <time>2013-05-24T18:30:35Z</time>
      </trkpt>
      <trkpt lat="59.8755014" lon="17.6361729">
        <ele>11.6732</ele>
        <time>2013-05-24T18:30:36Z</time>
      </trkpt>
      <trkpt lat="59.8754075" lon="17.6362179">
        <ele>11.6732</ele>
        <time>2013-05-24T18:30:37Z</time>
      </trkpt>
      <trkpt lat="59.8753165" lon="17.636264">
        <ele>11.6732</ele>
        <time>2013-05-24T18:30:38Z</time>
      </trkpt>
      <trkpt lat="59.8752256" lon="17.6363147">
        <ele>11.6732</ele>
        <time>2013-05-24T18:30:39Z</time>
      </trkpt>
      <trkpt lat="59.8751341" lon="17.6363712">
        <ele>11.6732</ele>
        <time>2013-05-24T18:30:40Z</time>
      </trkpt>
      <trkpt lat="59.8750434" lon="17.6364325">
        <ele>11.1925</ele>
        <time>2013-05-24T18:30:41Z</time>
      </trkpt>
      <trkpt lat="59.8749558" lon="17.6364961">
        <ele>11.6732</ele>
        <time>2013-05-24T18:30:42Z</time>
      </trkpt>
      <trkpt lat="59.8748699" lon="17.6365665">
        <ele>11.1925</ele>
        <time>2013-05-24T18:30:43Z</time>
      </trkpt>
      <trkpt lat="59.8747864" lon="17.63664">
        <ele>11.1925</ele>
        <time>2013-05-24T18:30:44Z</time>
      </trkpt>
      <trkpt lat="59.8747047" lon="17.6367132">
        <ele>11.1925</ele>
        <time>2013-05-24T18:30:45Z</time>
      </trkpt>
      <trkpt lat="59.8746233" lon="17.6367894">
        <ele>11.1925</ele>
        <time>2013-05-24T18:30:46Z</time>
      </trkpt>
      <trkpt lat="59.8745435" lon="17.6368681">
        <ele>10.7118</ele>
        <time>2013-05-24T18:30:47Z</time>
      </trkpt>
      <trkpt lat="59.8744655" lon="17.636947">
        <ele>10.2312</ele>
        <time>2013-05-24T18:30:48Z</time>
      </trkpt>
      <trkpt lat="59.8743897" lon="17.6370241">
        <ele>10.2312</ele>
        <time>2013-05-24T18:30:49Z</time>
      </trkpt>
      <trkpt lat="59.8743162" lon="17.6370924">
        <ele>9.75061</ele>
        <time>2013-05-24T18:30:50Z</time>
      </trkpt>
      <trkpt lat="59.8742393" lon="17.6371536">
        <ele>9.2699</ele>
        <time>2013-05-24T18:30:51Z</time>
      </trkpt>
      <trkpt lat="59.8741683" lon="17.6371965">
        <ele>9.2699</ele>
        <time>2013-05-24T18:30:52Z</time>
      </trkpt>
      <trkpt lat="59.8740954" lon="17.6372385">
        <ele>9.2699</ele>
        <time>2013-05-24T18:30:53Z</time>
      </trkpt>
      <trkpt lat="59.8740239" lon="17.6372861">
        <ele>9.2699</ele>
        <time>2013-05-24T18:30:54Z</time>
      </trkpt>
      <trkpt lat="59.8739541" lon="17.6373443">
        <ele>9.2699</ele>
        <time>2013-05-24T18:30:55Z</time>
      </trkpt>
      <trkpt lat="59.8738858" lon="17.6374108">
        <ele>9.2699</ele>
        <time>2013-05-24T18:30:56Z</time>
      </trkpt>
      <trkpt lat="59.8738229" lon="17.6374825">
        <ele>9.2699</ele>
        <time>2013-05-24T18:30:57Z</time>
      </trkpt>
      <trkpt lat="59.8737655" lon="17.6375577">
        <ele>8.78918</ele>
        <time>2013-05-24T18:30:58Z</time>
      </trkpt>
      <trkpt lat="59.873707" lon="17.6376362">
        <ele>8.78918</ele>
        <time>2013-05-24T18:30:59Z</time>
      </trkpt>
      <trkpt lat="59.873652" lon="17.6377052">
        <ele>8.78918</ele>
        <time>2013-05-24T18:31:00Z</time>
      </trkpt>
      <trkpt lat="59.8736044" lon="17.637762">
        <ele>8.30859</ele>
        <time>2013-05-24T18:31:01Z</time>
      </trkpt>
      <trkpt lat="59.8735666" lon="17.6378051">
        <ele>8.30859</ele>
        <time>2013-05-24T18:31:02Z</time>
      </trkpt>
      <trkpt lat="59.8735345" lon="17.6378439">
        <ele>8.78918</ele>
        <time>2013-05-24T18:31:03Z</time>
      </trkpt>
      <trkpt lat="59.8735034" lon="17.6378829">
        <ele>8.78918</ele>
        <time>2013-05-24T18:31:04Z</time>
      </trkpt>
      <trkpt lat="59.8734708" lon="17.63792">
        <ele>8.78918</ele>
        <time>2013-05-24T18:31:05Z</time>
      </trkpt>
      <trkpt lat="59.8734365" lon="17.6379568">
        <ele>8.30859</ele>
        <time>2013-05-24T18:31:06Z</time>
      </trkpt>
      <trkpt lat="59.8733975" lon="17.6380005">
        <ele>8.30859</ele>
        <time>2013-05-24T18:31:07Z</time>
      </trkpt>
      <trkpt lat="59.8733521" lon="17.6380492">
        <ele>7.82788</ele>
        <time>2013-05-24T18:31:08Z</time>
      </trkpt>
      <trkpt lat="59.8732996" lon="17.6380979">
        <ele>7.34717</ele>
        <time>2013-05-24T18:31:09Z</time>
      </trkpt>
      <trkpt lat="59.8732417" lon="17.638146">
        <ele>7.34717</ele>
        <time>2013-05-24T18:31:10Z</time>
      </trkpt>
      <trkpt lat="59.8731782" lon="17.6382025">
        <ele>6.86646</ele>
        <time>2013-05-24T18:31:11Z</time>
      </trkpt>
      <trkpt lat="59.8731108" lon="17.6382661">
        <ele>6.86646</ele>
        <time>2013-05-24T18:31:12Z</time>
      </trkpt>
      <trkpt lat="59.8730476" lon="17.6383354">
        <ele>6.86646</ele>
        <time>2013-05-24T18:31:13Z</time>
      </trkpt>
      <trkpt lat="59.8729818" lon="17.6384023">
        <ele>6.86646</ele>
        <time>2013-05-24T18:31:14Z</time>
      </trkpt>
      <trkpt lat="59.8729161" lon="17.6384677">
        <ele>6.86646</ele>
        <time>2013-05-24T18:31:15Z</time>
      </trkpt>
      <trkpt lat="59.8728471" lon="17.6385325">
        <ele>6.86646</ele>
        <time>2013-05-24T18:31:16Z</time>
      </trkpt>
      <trkpt lat="59.8727788" lon="17.6385862">
        <ele>6.86646</ele>
        <time>2013-05-24T18:31:17Z</time>
      </trkpt>
      <trkpt lat="59.8727084" lon="17.6386371">
        <ele>6.86646</ele>
        <time>2013-05-24T18:31:18Z</time>
      </trkpt>
      <trkpt lat="59.8726394" lon="17.638684">
        <ele>6.38586</ele>
        <time>2013-05-24T18:31:19Z</time>
      </trkpt>
      <trkpt lat="59.8725668" lon="17.6387329">
        <ele>5.90527</ele>
        <time>2013-05-24T18:31:20Z</time>
      </trkpt>
      <trkpt lat="59.8724918" lon="17.6387795">
        <ele>5.42456</ele>
        <time>2013-05-24T18:31:21Z</time>
      </trkpt>
      <trkpt lat="59.8724129" lon="17.6388283">
        <ele>4.46326</ele>
        <time>2013-05-24T18:31:22Z</time>
      </trkpt>
      <trkpt lat="59.8723343" lon="17.6388747">
        <ele>3.98267</ele>
        <time>2013-05-24T18:31:23Z</time>
      </trkpt>
      <trkpt lat="59.8722543" lon="17.6389201">
        <ele>3.98267</ele>
        <time>2013-05-24T18:31:24Z</time>
      </trkpt>
      <trkpt lat="59.8721732" lon="17.6389674">
        <ele>3.50195</ele>
        <time>2013-05-24T18:31:25Z</time>
      </trkpt>
      <trkpt lat="59.8720908" lon="17.6390123">
        <ele>3.02124</ele>
        <time>2013-05-24T18:31:26Z</time>
      </trkpt>
      <trkpt lat="59.8720077" lon="17.6390537">
        <ele>3.02124</ele>
        <time>2013-05-24T18:31:27Z</time>
      </trkpt>
      <trkpt lat="59.871923" lon="17.639094">
        <ele>2.54065</ele>
        <time>2013-05-24T18:31:28Z</time>
      </trkpt>
      <trkpt lat="59.8718333" lon="17.639136">
        <ele>2.06006</ele>
        <time>2013-05-24T18:31:29Z</time>
      </trkpt>
      <trkpt lat="59.8717453" lon="17.6391743">
        <ele>1.57935</ele>
        <time>2013-05-24T18:31:30Z</time>
      </trkpt>
      <trkpt lat="59.8716551" lon="17.6392137">
        <ele>1.09863</ele>
        <time>2013-05-24T18:31:31Z</time>
      </trkpt>
      <trkpt lat="59.8715656" lon="17.6392565">
        <ele>1.09863</ele>
        <time>2013-05-24T18:31:32Z</time>
      </trkpt>
      <trkpt lat="59.8714779" lon="17.6392888">
        <ele>1.09863</ele>
        <time>2013-05-24T18:31:33Z</time>
      </trkpt>
      <trkpt lat="59.8713811" lon="17.6393478">
        <ele>1.09863</ele>
        <time>2013-05-24T18:31:34Z</time>
      </trkpt>
      <trkpt lat="59.8712965" lon="17.6393536">
        <ele>0.618042</ele>
        <time>2013-05-24T18:31:35Z</time>
      </trkpt>
      <trkpt lat="59.8712093" lon="17.6393861">
        <ele>0.618042</ele>
        <time>2013-05-24T18:31:36Z</time>
      </trkpt>
      <trkpt lat="59.8711225" lon="17.6394063">
        <ele>0.618042</ele>
        <time>2013-05-24T18:31:37Z</time>
      </trkpt>
      <trkpt lat="59.8710438" lon="17.6394052">
        <ele>0.618042</ele>
        <time>2013-05-24T18:31:38Z</time>
      </trkpt>
      <trkpt lat="59.8709608" lon="17.6394127">
        <ele>0.618042</ele>
        <time>2013-05-24T18:31:39Z</time>
      </trkpt>
      <trkpt lat="59.8708715" lon="17.6394282">
        <ele>0.618042</ele>
        <time>2013-05-24T18:31:40Z</time>
      </trkpt>
      <trkpt lat="59.8707854" lon="17.6394292">
        <ele>1.09863</ele>
        <time>2013-05-24T18:31:41Z</time>
      </trkpt>
      <trkpt lat="59.8706957" lon="17.63944">
        <ele>1.09863</ele>
        <time>2013-05-24T18:31:42Z</time>
      </trkpt>
      <trkpt lat="59.8706011" lon="17.6394577">
        <ele>1.09863</ele>
        <time>2013-05-24T18:31:43Z</time>
      </trkpt>
      <trkpt lat="59.8705131" lon="17.6394626">
        <ele>1.57935</ele>
        <time>2013-05-24T18:31:44Z</time>
      </trkpt>
      <trkpt lat="59.8704175" lon="17.6394777">
        <ele>2.06006</ele>
        <time>2013-05-24T18:31:45Z</time>
      </trkpt>
      <trkpt lat="59.8703346" lon="17.6394743">
        <ele>2.06006</ele>
        <time>2013-05-24T18:31:46Z</time>
      </trkpt>
      <trkpt lat="59.870242" lon="17.63948">
        <ele>2.06006</ele>
        <time>2013-05-24T18:31:47Z</time>
      </trkpt>
      <trkpt lat="59.8701545" lon="17.6394792">
        <ele>2.54065</ele>
        <time>2013-05-24T18:31:48Z</time>
      </trkpt>
      <trkpt lat="59.8700665" lon="17.6394804">
        <ele>2.54065</ele>
        <time>2013-05-24T18:31:49Z</time>
      </trkpt>
      <trkpt lat="59.8699776" lon="17.6394888">
        <ele>2.54065</ele>
        <time>2013-05-24T18:31:50Z</time>
      </trkpt>
      <trkpt lat="59.8698924" lon="17.6394938">
        <ele>3.02124</ele>
        <time>2013-05-24T18:31:51Z</time>
      </trkpt>
      <trkpt lat="59.8698088" lon="17.6394991">
        <ele>3.02124</ele>
        <time>2013-05-24T18:31:52Z</time>
      </trkpt>
      <trkpt lat="59.8697264" lon="17.6395096">
        <ele>3.50195</ele>
        <time>2013-05-24T18:31:53Z</time>
      </trkpt>
      <trkpt lat="59.869652" lon="17.6395069">
        <ele>3.50195</ele>
        <time>2013-05-24T18:31:54Z</time>
      </trkpt>
      <trkpt lat="59.8695819" lon="17.6394876">
        <ele>3.98267</ele>
        <time>2013-05-24T18:31:55Z</time>
      </trkpt>
      <trkpt lat="59.8695035" lon="17.6394828">
        <ele>4.94385</ele>
        <time>2013-05-24T18:31:56Z</time>
      </trkpt>
      <trkpt lat="59.8694236" lon="17.6394835">
        <ele>5.42456</ele>
        <time>2013-05-24T18:31:57Z</time>
      </trkpt>
      <trkpt lat="59.8693423" lon="17.6394846">
        <ele>5.90527</ele>
        <time>2013-05-24T18:31:58Z</time>
      </trkpt>
      <trkpt lat="59.8692612" lon="17.6394867">
        <ele>5.90527</ele>
        <time>2013-05-24T18:31:59Z</time>
      </trkpt>
      <trkpt lat="59.8691796" lon="17.6394897">
        <ele>6.38586</ele>
        <time>2013-05-24T18:32:00Z</time>
      </trkpt>
      <trkpt lat="59.8690929" lon="17.6394939">
        <ele>6.38586</ele>
        <time>2013-05-24T18:32:01Z</time>
      </trkpt>
      <trkpt lat="59.869003" lon="17.6395051">
        <ele>6.38586</ele>
        <time>2013-05-24T18:32:02Z</time>
      </trkpt>
      <trkpt lat="59.8689232" lon="17.6395021">
        <ele>6.86646</ele>
        <time>2013-05-24T18:32:03Z</time>
      </trkpt>
      <trkpt lat="59.8688403" lon="17.6395079">
        <ele>6.86646</ele>
        <time>2013-05-24T18:32:04Z</time>
      </trkpt>
      <trkpt lat="59.8687578" lon="17.6395124">
        <ele>6.86646</ele>
        <time>2013-05-24T18:32:05Z</time>
      </trkpt>
      <trkpt lat="59.8686748" lon="17.6395224">
        <ele>6.86646</ele>
        <time>2013-05-24T18:32:06Z</time>
      </trkpt>
      <trkpt lat="59.8685932" lon="17.6395246">
        <ele>6.86646</ele>
        <time>2013-05-24T18:32:07Z</time>
      </trkpt>
      <trkpt lat="59.8685107" lon="17.6395249">
        <ele>6.86646</ele>
        <time>2013-05-24T18:32:08Z</time>
      </trkpt>
      <trkpt lat="59.8684269" lon="17.6395332">
        <ele>6.86646</ele>
        <time>2013-05-24T18:32:09Z</time>
      </trkpt>
      <trkpt lat="59.8683342" lon="17.6395598">
        <ele>6.86646</ele>
        <time>2013-05-24T18:32:10Z</time>
      </trkpt>
      <trkpt lat="59.8682504" lon="17.6395743">
        <ele>6.86646</ele>
        <time>2013-05-24T18:32:11Z</time>
      </trkpt>
      <trkpt lat="59.8681641" lon="17.6395838">
        <ele>6.86646</ele>
        <time>2013-05-24T18:32:12Z</time>
      </trkpt>
      <trkpt lat="59.8680752" lon="17.6395913">
        <ele>6.86646</ele>
        <time>2013-05-24T18:32:13Z</time>
      </trkpt>
      <trkpt lat="59.8679968" lon="17.6395814">
        <ele>6.86646</ele>
        <time>2013-05-24T18:32:14Z</time>
      </trkpt>
      <trkpt lat="59.8679152" lon="17.6395753">
        <ele>6.86646</ele>
        <time>2013-05-24T18:32:15Z</time>
      </trkpt>
      <trkpt lat="59.8678306" lon="17.6395702">
        <ele>6.86646</ele>
        <time>2013-05-24T18:32:16Z</time>
      </trkpt>
      <trkpt lat="59.8677493" lon="17.6395613">
        <ele>7.34717</ele>
        <time>2013-05-24T18:32:17Z</time>
      </trkpt>
      <trkpt lat="59.8676706" lon="17.6395545">
        <ele>7.82788</ele>
        <time>2013-05-24T18:32:18Z</time>
      </trkpt>
      <trkpt lat="59.867594" lon="17.6395472">
        <ele>8.30859</ele>
        <time>2013-05-24T18:32:19Z</time>
      </trkpt>
      <trkpt lat="59.8675193" lon="17.639532">
        <ele>8.78918</ele>
        <time>2013-05-24T18:32:20Z</time>
      </trkpt>
      <trkpt lat="59.8674462" lon="17.6395229">
        <ele>10.2312</ele>
        <time>2013-05-24T18:32:21Z</time>
      </trkpt>
      <trkpt lat="59.8673667" lon="17.6395229">
        <ele>11.1925</ele>
        <time>2013-05-24T18:32:22Z</time>
      </trkpt>
      <trkpt lat="59.8672855" lon="17.6395306">
        <ele>12.1538</ele>
        <time>2013-05-24T18:32:23Z</time>
      </trkpt>
      <trkpt lat="59.8672048" lon="17.6395351">
        <ele>13.1151</ele>
        <time>2013-05-24T18:32:24Z</time>
      </trkpt>
      <trkpt lat="59.8671278" lon="17.6395597">
        <ele>13.5958</ele>
        <time>2013-05-24T18:32:25Z</time>
      </trkpt>
      <trkpt lat="59.8670371" lon="17.6395716">
        <ele>14.0764</ele>
        <time>2013-05-24T18:32:26Z</time>
      </trkpt>
      <trkpt lat="59.8669499" lon="17.6396083">
        <ele>14.557</ele>
        <time>2013-05-24T18:32:27Z</time>
      </trkpt>
      <trkpt lat="59.8668663" lon="17.6396395">
        <ele>14.557</ele>
        <time>2013-05-24T18:32:28Z</time>
      </trkpt>
      <trkpt lat="59.8667852" lon="17.6396783">
        <ele>15.0377</ele>
        <time>2013-05-24T18:32:29Z</time>
      </trkpt>
      <trkpt lat="59.8667071" lon="17.6397186">
        <ele>15.5184</ele>
        <time>2013-05-24T18:32:30Z</time>
      </trkpt>
      <trkpt lat="59.8666213" lon="17.6397784">
        <ele>15.5184</ele>
        <time>2013-05-24T18:32:31Z</time>
      </trkpt>
      <trkpt lat="59.8665607" lon="17.6398218">
        <ele>15.5184</ele>
        <time>2013-05-24T18:32:32Z</time>
      </trkpt>
      <trkpt lat="59.8664954" lon="17.6398917">
        <ele>15.5184</ele>
        <time>2013-05-24T18:32:33Z</time>
      </trkpt>
      <trkpt lat="59.866443" lon="17.6399425">
        <ele>15.5184</ele>
        <time>2013-05-24T18:32:34Z</time>
      </trkpt>
      <trkpt lat="59.8664228" lon="17.6399871">
        <ele>15.0377</ele>
        <time>2013-05-24T18:32:35Z</time>
      </trkpt>
      <trkpt lat="59.8664115" lon="17.640021">
        <ele>14.557</ele>
        <time>2013-05-24T18:32:36Z</time>
      </trkpt>
      <trkpt lat="59.8663978" lon="17.6400326">
        <ele>13.5958</ele>
        <time>2013-05-24T18:32:37Z</time>
      </trkpt>
      <trkpt lat="59.8663871" lon="17.6400388">
        <ele>13.1151</ele>
        <time>2013-05-24T18:32:38Z</time>
      </trkpt>
      <trkpt lat="59.8663754" lon="17.6400563">
        <ele>12.1538</ele>
        <time>2013-05-24T18:32:39Z</time>
      </trkpt>
      <trkpt lat="59.8663637" lon="17.6400742">
        <ele>12.1538</ele>
        <time>2013-05-24T18:32:40Z</time>
      </trkpt>
      <trkpt lat="59.8663409" lon="17.6400723">
        <ele>11.1925</ele>
        <time>2013-05-24T18:32:41Z</time>
      </trkpt>
      <trkpt lat="59.8663236" lon="17.640074">
        <ele>10.2312</ele>
        <time>2013-05-24T18:32:42Z</time>
      </trkpt>
      <trkpt lat="59.8663241" lon="17.6400969">
        <ele>11.6732</ele>
        <time>2013-05-24T18:32:43Z</time>
      </trkpt>
      <trkpt lat="59.8663217" lon="17.6401145">
        <ele>11.6732</ele>
        <time>2013-05-24T18:32:44Z</time>
      </trkpt>
      <trkpt lat="59.8663218" lon="17.6401316">
        <ele>12.1538</ele>
        <time>2013-05-24T18:32:45Z</time>
      </trkpt>
      <trkpt lat="59.8663257" lon="17.6401426">
        <ele>12.6344</ele>
        <time>2013-05-24T18:32:46Z</time>
      </trkpt>
      <trkpt lat="59.86633" lon="17.6401483">
        <ele>13.1151</ele>
        <time>2013-05-24T18:32:47Z</time>
      </trkpt>
      <trkpt lat="59.8663337" lon="17.6401528">
        <ele>13.1151</ele>
        <time>2013-05-24T18:32:48Z</time>
      </trkpt>
      <trkpt lat="59.8663286" lon="17.6401621">
        <ele>12.6344</ele>
        <time>2013-05-24T18:32:49Z</time>
      </trkpt>
      <trkpt lat="59.8663309" lon="17.6401715">
        <ele>13.5958</ele>
        <time>2013-05-24T18:32:50Z</time>
      </trkpt>
      <trkpt lat="59.8663316" lon="17.6401735">
        <ele>13.5958</ele>
        <time>2013-05-24T18:32:51Z</time>
      </trkpt>
      <trkpt lat="59.8663378" lon="17.6401685">
        <ele>13.5958</ele>
        <time>2013-05-24T18:32:52Z</time>
      </trkpt>
      <trkpt lat="59.866346" lon="17.6401611">
        <ele>13.5958</ele>
        <time>2013-05-24T18:32:53Z</time>
      </trkpt>
      <trkpt lat="59.8663549" lon="17.6401528">
        <ele>13.5958</ele>
        <time>2013-05-24T18:32:54Z</time>
      </trkpt>
      <trkpt lat="59.8663631" lon="17.6401446">
        <ele>13.5958</ele>
        <time>2013-05-24T18:32:55Z</time>
      </trkpt>
      <trkpt lat="59.8663699" lon="17.6401371">
        <ele>13.1151</ele>
        <time>2013-05-24T18:32:56Z</time>
      </trkpt>
      <trkpt lat="59.8663766" lon="17.64013">
        <ele>13.1151</ele>
        <time>2013-05-24T18:32:57Z</time>
      </trkpt>
      <trkpt lat="59.8663832" lon="17.6401228">
        <ele>13.1151</ele>
        <time>2013-05-24T18:32:58Z</time>
      </trkpt>
      <trkpt lat="59.8663881" lon="17.6401148">
        <ele>12.6344</ele>
        <time>2013-05-24T18:32:59Z</time>
      </trkpt>
      <trkpt lat="59.8663928" lon="17.640107">
        <ele>12.1538</ele>
        <time>2013-05-24T18:33:00Z</time>
      </trkpt>
      <trkpt lat="59.8663974" lon="17.6400995">
        <ele>11.6732</ele>
        <time>2013-05-24T18:33:01Z</time>
      </trkpt>
      <trkpt lat="59.8664014" lon="17.6400933">
        <ele>11.1925</ele>
        <time>2013-05-24T18:33:02Z</time>
      </trkpt>
      <trkpt lat="59.8664046" lon="17.6400871">
        <ele>10.7118</ele>
        <time>2013-05-24T18:33:03Z</time>
      </trkpt>
      <trkpt lat="59.8664067" lon="17.6400793">
        <ele>10.2312</ele>
        <time>2013-05-24T18:33:04Z</time>
      </trkpt>
      <trkpt lat="59.8664076" lon="17.6400723">
        <ele>9.2699</ele>
        <time>2013-05-24T18:33:05Z</time>
      </trkpt>
      <trkpt lat="59.8664073" lon="17.6400668">
        <ele>8.78918</ele>
        <time>2013-05-24T18:33:06Z</time>
      </trkpt>
      <trkpt lat="59.8663773" lon="17.6400679">
        <ele>3.50195</ele>
        <time>2013-05-24T18:33:14Z</time>
      </trkpt>
      <trkpt lat="59.8663538" lon="17.6400938">
        <ele>3.02124</ele>
        <time>2013-05-24T18:33:15Z</time>
      </trkpt>
      <trkpt lat="59.8663221" lon="17.6401286">
        <ele>2.06006</ele>
        <time>2013-05-24T18:33:16Z</time>
      </trkpt>
      <trkpt lat="59.866286" lon="17.6401808">
        <ele>1.57935</ele>
        <time>2013-05-24T18:33:17Z</time>
      </trkpt>
      <trkpt lat="59.8662497" lon="17.6402539">
        <ele>2.54065</ele>
        <time>2013-05-24T18:33:18Z</time>
      </trkpt>
      <trkpt lat="59.8662224" lon="17.6403476">
        <ele>3.50195</ele>
        <time>2013-05-24T18:33:19Z</time>
      </trkpt>
      <trkpt lat="59.8662063" lon="17.6404609">
        <ele>3.98267</ele>
        <time>2013-05-24T18:33:20Z</time>
      </trkpt>
      <trkpt lat="59.8662108" lon="17.6405803">
        <ele>4.46326</ele>
        <time>2013-05-24T18:33:21Z</time>
      </trkpt>
      <trkpt lat="59.866239" lon="17.6407028">
        <ele>3.98267</ele>
        <time>2013-05-24T18:33:22Z</time>
      </trkpt>
      <trkpt lat="59.8662787" lon="17.6408222">
        <ele>4.94385</ele>
        <time>2013-05-24T18:33:23Z</time>
      </trkpt>
      <trkpt lat="59.8663186" lon="17.6409433">
        <ele>4.94385</ele>
        <time>2013-05-24T18:33:24Z</time>
      </trkpt>
      <trkpt lat="59.8663621" lon="17.6410645">
        <ele>5.42456</ele>
        <time>2013-05-24T18:33:25Z</time>
      </trkpt>
      <trkpt lat="59.866415" lon="17.6411785">
        <ele>5.90527</ele>
        <time>2013-05-24T18:33:26Z</time>
      </trkpt>
      <trkpt lat="59.8664684" lon="17.6412951">
        <ele>6.38586</ele>
        <time>2013-05-24T18:33:27Z</time>
      </trkpt>
      <trkpt lat="59.8665208" lon="17.6414178">
        <ele>5.90527</ele>
        <time>2013-05-24T18:33:28Z</time>
      </trkpt>
      <trkpt lat="59.8665776" lon="17.6415347">
        <ele>6.38586</ele>
        <time>2013-05-24T18:33:29Z</time>
      </trkpt>
      <trkpt lat="59.8666398" lon="17.6416434">
        <ele>7.34717</ele>
        <time>2013-05-24T18:33:30Z</time>
      </trkpt>
      <trkpt lat="59.8667061" lon="17.6417482">
        <ele>7.82788</ele>
        <time>2013-05-24T18:33:31Z</time>
      </trkpt>
      <trkpt lat="59.8667714" lon="17.6418541">
        <ele>8.30859</ele>
        <time>2013-05-24T18:33:32Z</time>
      </trkpt>
      <trkpt lat="59.8668344" lon="17.6419616">
        <ele>9.2699</ele>
        <time>2013-05-24T18:33:33Z</time>
      </trkpt>
      <trkpt lat="59.8668978" lon="17.6420638">
        <ele>9.75061</ele>
        <time>2013-05-24T18:33:34Z</time>
      </trkpt>
      <trkpt lat="59.8669556" lon="17.6421633">
        <ele>10.7118</ele>
        <time>2013-05-24T18:33:35Z</time>
      </trkpt>
      <trkpt lat="59.8670086" lon="17.6422514">
        <ele>11.6732</ele>
        <time>2013-05-24T18:33:36Z</time>
      </trkpt>
      <trkpt lat="59.8670568" lon="17.6423327">
        <ele>12.1538</ele>
        <time>2013-05-24T18:33:37Z</time>
      </trkpt>
      <trkpt lat="59.8671049" lon="17.6424037">
        <ele>12.1538</ele>
        <time>2013-05-24T18:33:38Z</time>
      </trkpt>
      <trkpt lat="59.8671517" lon="17.642474">
        <ele>12.6344</ele>
        <time>2013-05-24T18:33:39Z</time>
      </trkpt>
      <trkpt lat="59.8671998" lon="17.6425515">
        <ele>13.1151</ele>
        <time>2013-05-24T18:33:40Z</time>
      </trkpt>
      <trkpt lat="59.8672483" lon="17.6426342">
        <ele>13.5958</ele>
        <time>2013-05-24T18:33:41Z</time>
      </trkpt>
      <trkpt lat="59.8672978" lon="17.6427185">
        <ele>14.557</ele>
        <time>2013-05-24T18:33:42Z</time>
      </trkpt>
      <trkpt lat="59.8673494" lon="17.6428061">
        <ele>15.5184</ele>
        <time>2013-05-24T18:33:43Z</time>
      </trkpt>
      <trkpt lat="59.8674034" lon="17.6428955">
        <ele>15.5184</ele>
        <time>2013-05-24T18:33:44Z</time>
      </trkpt>
      <trkpt lat="59.8674581" lon="17.6429852">
        <ele>15.999</ele>
        <time>2013-05-24T18:33:45Z</time>
      </trkpt>
      <trkpt lat="59.8675151" lon="17.6430719">
        <ele>16.4797</ele>
        <time>2013-05-24T18:33:46Z</time>
      </trkpt>
      <trkpt lat="59.8675695" lon="17.6431622">
        <ele>16.4797</ele>
        <time>2013-05-24T18:33:47Z</time>
      </trkpt>
      <trkpt lat="59.8676215" lon="17.6432545">
        <ele>16.9604</ele>
        <time>2013-05-24T18:33:48Z</time>
      </trkpt>
      <trkpt lat="59.8676751" lon="17.6433441">
        <ele>16.9604</ele>
        <time>2013-05-24T18:33:49Z</time>
      </trkpt>
      <trkpt lat="59.8677269" lon="17.6434318">
        <ele>16.4797</ele>
        <time>2013-05-24T18:33:50Z</time>
      </trkpt>
      <trkpt lat="59.8677768" lon="17.6435179">
        <ele>16.4797</ele>
        <time>2013-05-24T18:33:51Z</time>
      </trkpt>
      <trkpt lat="59.8678248" lon="17.6436022">
        <ele>15.999</ele>
        <time>2013-05-24T18:33:52Z</time>
      </trkpt>
      <trkpt lat="59.867866" lon="17.6436944">
        <ele>14.557</ele>
        <time>2013-05-24T18:33:53Z</time>
      </trkpt>
      <trkpt lat="59.8679095" lon="17.6437704">
        <ele>14.557</ele>
        <time>2013-05-24T18:33:54Z</time>
      </trkpt>
      <trkpt lat="59.8679555" lon="17.6438328">
        <ele>15.0377</ele>
        <time>2013-05-24T18:33:55Z</time>
      </trkpt>
      <trkpt lat="59.8679939" lon="17.6438867">
        <ele>15.0377</ele>
        <time>2013-05-24T18:33:56Z</time>
      </trkpt>
      <trkpt lat="59.8680213" lon="17.6439326">
        <ele>15.999</ele>
        <time>2013-05-24T18:33:57Z</time>
      </trkpt>
      <trkpt lat="59.8680493" lon="17.6439694">
        <ele>15.5184</ele>
        <time>2013-05-24T18:33:58Z</time>
      </trkpt>
      <trkpt lat="59.8680732" lon="17.6440014">
        <ele>15.5184</ele>
        <time>2013-05-24T18:33:59Z</time>
      </trkpt>
      <trkpt lat="59.8680897" lon="17.6440306">
        <ele>15.5184</ele>
        <time>2013-05-24T18:34:00Z</time>
      </trkpt>
      <trkpt lat="59.8681033" lon="17.6440545">
        <ele>15.999</ele>
        <time>2013-05-24T18:34:01Z</time>
      </trkpt>
      <trkpt lat="59.8681133" lon="17.6440714">
        <ele>15.999</ele>
        <time>2013-05-24T18:34:02Z</time>
      </trkpt>
      <trkpt lat="59.8681199" lon="17.6440818">
        <ele>16.4797</ele>
        <time>2013-05-24T18:34:03Z</time>
      </trkpt>
      <trkpt lat="59.8681327" lon="17.6440965">
        <ele>14.0764</ele>
        <time>2013-05-24T18:34:04Z</time>
      </trkpt>
      <trkpt lat="59.8681454" lon="17.6441203">
        <ele>14.0764</ele>
        <time>2013-05-24T18:34:05Z</time>
      </trkpt>
      <trkpt lat="59.868158" lon="17.6441573">
        <ele>14.0764</ele>
        <time>2013-05-24T18:34:06Z</time>
      </trkpt>
      <trkpt lat="59.868162" lon="17.6442114">
        <ele>14.0764</ele>
        <time>2013-05-24T18:34:07Z</time>
      </trkpt>
      <trkpt lat="59.8681612" lon="17.6442827">
        <ele>13.5958</ele>
        <time>2013-05-24T18:34:08Z</time>
      </trkpt>
      <trkpt lat="59.8681467" lon="17.6443653">
        <ele>13.1151</ele>
        <time>2013-05-24T18:34:09Z</time>
      </trkpt>
      <trkpt lat="59.8681239" lon="17.6444459">
        <ele>13.5958</ele>
        <time>2013-05-24T18:34:10Z</time>
      </trkpt>
      <trkpt lat="59.8680968" lon="17.644527">
        <ele>13.5958</ele>
        <time>2013-05-24T18:34:11Z</time>
      </trkpt>
      <trkpt lat="59.8680498" lon="17.6446418">
        <ele>13.5958</ele>
        <time>2013-05-24T18:34:12Z</time>
      </trkpt>
      <trkpt lat="59.868001" lon="17.6446802">
        <ele>14.0764</ele>
        <time>2013-05-24T18:34:13Z</time>
      </trkpt>
      <trkpt lat="59.8679484" lon="17.6447537">
        <ele>13.5958</ele>
        <time>2013-05-24T18:34:14Z</time>
      </trkpt>
      <trkpt lat="59.8679006" lon="17.6448347">
        <ele>13.1151</ele>
        <time>2013-05-24T18:34:15Z</time>
      </trkpt>
      <trkpt lat="59.8678515" lon="17.6449268">
        <ele>12.6344</ele>
        <time>2013-05-24T18:34:16Z</time>
      </trkpt>
      <trkpt lat="59.867801" lon="17.6450181">
        <ele>12.6344</ele>
        <time>2013-05-24T18:34:17Z</time>
      </trkpt>
      <trkpt lat="59.8677497" lon="17.645106">
        <ele>12.6344</ele>
        <time>2013-05-24T18:34:18Z</time>
      </trkpt>
      <trkpt lat="59.8676949" lon="17.6452035">
        <ele>11.6732</ele>
        <time>2013-05-24T18:34:19Z</time>
      </trkpt>
      <trkpt lat="59.8676448" lon="17.6452995">
        <ele>11.1925</ele>
        <time>2013-05-24T18:34:20Z</time>
      </trkpt>
      <trkpt lat="59.8675907" lon="17.6453966">
        <ele>11.6732</ele>
        <time>2013-05-24T18:34:21Z</time>
      </trkpt>
      <trkpt lat="59.8675381" lon="17.6454933">
        <ele>11.1925</ele>
        <time>2013-05-24T18:34:22Z</time>
      </trkpt>
      <trkpt lat="59.8674884" lon="17.6455858">
        <ele>10.7118</ele>
        <time>2013-05-24T18:34:23Z</time>
      </trkpt>
      <trkpt lat="59.8674386" lon="17.645679">
        <ele>10.7118</ele>
        <time>2013-05-24T18:34:24Z</time>
      </trkpt>
      <trkpt lat="59.8673883" lon="17.645772">
        <ele>11.1925</ele>
        <time>2013-05-24T18:34:25Z</time>
      </trkpt>
      <trkpt lat="59.867338" lon="17.645867">
        <ele>10.7118</ele>
        <time>2013-05-24T18:34:26Z</time>
      </trkpt>
      <trkpt lat="59.8672882" lon="17.6459576">
        <ele>11.1925</ele>
        <time>2013-05-24T18:34:27Z</time>
      </trkpt>
      <trkpt lat="59.8672364" lon="17.6460429">
        <ele>11.1925</ele>
        <time>2013-05-24T18:34:28Z</time>
      </trkpt>
      <trkpt lat="59.8671835" lon="17.6461304">
        <ele>11.1925</ele>
        <time>2013-05-24T18:34:29Z</time>
      </trkpt>
      <trkpt lat="59.8671304" lon="17.6462213">
        <ele>11.1925</ele>
        <time>2013-05-24T18:34:30Z</time>
      </trkpt>
      <trkpt lat="59.8670775" lon="17.646315">
        <ele>11.6732</ele>
        <time>2013-05-24T18:34:31Z</time>
      </trkpt>
      <trkpt lat="59.8670255" lon="17.6464114">
        <ele>11.6732</ele>
        <time>2013-05-24T18:34:32Z</time>
      </trkpt>
      <trkpt lat="59.8669785" lon="17.6465088">
        <ele>12.1538</ele>
        <time>2013-05-24T18:34:33Z</time>
      </trkpt>
      <trkpt lat="59.866929" lon="17.6466076">
        <ele>12.1538</ele>
        <time>2013-05-24T18:34:34Z</time>
      </trkpt>
      <trkpt lat="59.8668746" lon="17.6467051">
        <ele>11.6732</ele>
        <time>2013-05-24T18:34:35Z</time>
      </trkpt>
      <trkpt lat="59.866818" lon="17.6468041">
        <ele>11.6732</ele>
        <time>2013-05-24T18:34:36Z</time>
      </trkpt>
      <trkpt lat="59.86676" lon="17.6469057">
        <ele>11.1925</ele>
        <time>2013-05-24T18:34:37Z</time>
      </trkpt>
      <trkpt lat="59.8667015" lon="17.6470061">
        <ele>11.1925</ele>
        <time>2013-05-24T18:34:38Z</time>
      </trkpt>
      <trkpt lat="59.866649" lon="17.6471098">
        <ele>11.6732</ele>
        <time>2013-05-24T18:34:39Z</time>
      </trkpt>
      <trkpt lat="59.8665941" lon="17.647209">
        <ele>12.6344</ele>
        <time>2013-05-24T18:34:40Z</time>
      </trkpt>
      <trkpt lat="59.8665311" lon="17.6473076">
        <ele>12.1538</ele>
        <time>2013-05-24T18:34:41Z</time>
      </trkpt>
      <trkpt lat="59.8664724" lon="17.6474037">
        <ele>12.6344</ele>
        <time>2013-05-24T18:34:42Z</time>
      </trkpt>
      <trkpt lat="59.8664111" lon="17.6475014">
        <ele>12.1538</ele>
        <time>2013-05-24T18:34:43Z</time>
      </trkpt>
      <trkpt lat="59.8663584" lon="17.6476059">
        <ele>11.6732</ele>
        <time>2013-05-24T18:34:44Z</time>
      </trkpt>
      <trkpt lat="59.8663016" lon="17.6477084">
        <ele>13.1151</ele>
        <time>2013-05-24T18:34:45Z</time>
      </trkpt>
      <trkpt lat="59.8662438" lon="17.6478096">
        <ele>13.5958</ele>
        <time>2013-05-24T18:34:46Z</time>
      </trkpt>
      <trkpt lat="59.8661864" lon="17.6479115">
        <ele>15.0377</ele>
        <time>2013-05-24T18:34:47Z</time>
      </trkpt>
      <trkpt lat="59.8661323" lon="17.648011">
        <ele>16.9604</ele>
        <time>2013-05-24T18:34:48Z</time>
      </trkpt>
      <trkpt lat="59.8660861" lon="17.6481157">
        <ele>20.325</ele>
        <time>2013-05-24T18:34:49Z</time>
      </trkpt>
      <trkpt lat="59.8660383" lon="17.648216">
        <ele>22.2476</ele>
        <time>2013-05-24T18:34:50Z</time>
      </trkpt>
      <trkpt lat="59.8659932" lon="17.6483193">
        <ele>22.7283</ele>
        <time>2013-05-24T18:34:51Z</time>
      </trkpt>
      <trkpt lat="59.8659482" lon="17.6484182">
        <ele>22.7283</ele>
        <time>2013-05-24T18:34:52Z</time>
      </trkpt>
      <trkpt lat="59.8658975" lon="17.6485084">
        <ele>21.767</ele>
        <time>2013-05-24T18:34:53Z</time>
      </trkpt>
      <trkpt lat="59.8658551" lon="17.6485937">
        <ele>22.2476</ele>
        <time>2013-05-24T18:34:54Z</time>
      </trkpt>
      <trkpt lat="59.8658121" lon="17.648671">
        <ele>21.767</ele>
        <time>2013-05-24T18:34:55Z</time>
      </trkpt>
      <trkpt lat="59.8657805" lon="17.6487434">
        <ele>20.8057</ele>
        <time>2013-05-24T18:34:56Z</time>
      </trkpt>
      <trkpt lat="59.8657751" lon="17.6488026">
        <ele>20.8057</ele>
        <time>2013-05-24T18:34:57Z</time>
      </trkpt>
      <trkpt lat="59.8657725" lon="17.6488588">
        <ele>20.325</ele>
        <time>2013-05-24T18:34:58Z</time>
      </trkpt>
      <trkpt lat="59.8657545" lon="17.6489067">
        <ele>21.2864</ele>
        <time>2013-05-24T18:34:59Z</time>
      </trkpt>
      <trkpt lat="59.8657251" lon="17.6489554">
        <ele>20.8057</ele>
        <time>2013-05-24T18:35:00Z</time>
      </trkpt>
      <trkpt lat="59.8656969" lon="17.6490042">
        <ele>19.8444</ele>
        <time>2013-05-24T18:35:01Z</time>
      </trkpt>
      <trkpt lat="59.8656654" lon="17.6490636">
        <ele>19.8444</ele>
        <time>2013-05-24T18:35:02Z</time>
      </trkpt>
      <trkpt lat="59.8656293" lon="17.6491274">
        <ele>19.8444</ele>
        <time>2013-05-24T18:35:03Z</time>
      </trkpt>
      <trkpt lat="59.8655893" lon="17.6491955">
        <ele>19.3638</ele>
        <time>2013-05-24T18:35:04Z</time>
      </trkpt>
      <trkpt lat="59.8655462" lon="17.6492632">
        <ele>18.8831</ele>
        <time>2013-05-24T18:35:05Z</time>
      </trkpt>
      <trkpt lat="59.8655093" lon="17.6493382">
        <ele>20.325</ele>
        <time>2013-05-24T18:35:06Z</time>
      </trkpt>
      <trkpt lat="59.8654707" lon="17.6494103">
        <ele>21.2864</ele>
        <time>2013-05-24T18:35:07Z</time>
      </trkpt>
      <trkpt lat="59.8654316" lon="17.6494851">
        <ele>21.767</ele>
        <time>2013-05-24T18:35:08Z</time>
      </trkpt>
      <trkpt lat="59.8653903" lon="17.6495682">
        <ele>23.209</ele>
        <time>2013-05-24T18:35:09Z</time>
      </trkpt>
      <trkpt lat="59.8653452" lon="17.6496495">
        <ele>22.7283</ele>
        <time>2013-05-24T18:35:10Z</time>
      </trkpt>
      <trkpt lat="59.8653016" lon="17.6497387">
        <ele>21.767</ele>
        <time>2013-05-24T18:35:11Z</time>
      </trkpt>
      <trkpt lat="59.8652612" lon="17.6498301">
        <ele>21.767</ele>
        <time>2013-05-24T18:35:12Z</time>
      </trkpt>
      <trkpt lat="59.8652143" lon="17.6499265">
        <ele>21.767</ele>
        <time>2013-05-24T18:35:13Z</time>
      </trkpt>
      <trkpt lat="59.865179" lon="17.6500173">
        <ele>22.7283</ele>
        <time>2013-05-24T18:35:14Z</time>
      </trkpt>
      <trkpt lat="59.8651397" lon="17.6501042">
        <ele>24.1703</ele>
        <time>2013-05-24T18:35:15Z</time>
      </trkpt>
      <trkpt lat="59.8650921" lon="17.6501951">
        <ele>25.1317</ele>
        <time>2013-05-24T18:35:16Z</time>
      </trkpt>
      <trkpt lat="59.8650384" lon="17.650288">
        <ele>24.651</ele>
        <time>2013-05-24T18:35:17Z</time>
      </trkpt>
      <trkpt lat="59.8649903" lon="17.6503747">
        <ele>24.1703</ele>
        <time>2013-05-24T18:35:18Z</time>
      </trkpt>
      <trkpt lat="59.8649443" lon="17.6504561">
        <ele>26.0929</ele>
        <time>2013-05-24T18:35:19Z</time>
      </trkpt>
      <trkpt lat="59.864891" lon="17.650538">
        <ele>28.9769</ele>
        <time>2013-05-24T18:35:20Z</time>
      </trkpt>
      <trkpt lat="59.8648386" lon="17.6506238">
        <ele>29.9381</ele>
        <time>2013-05-24T18:35:21Z</time>
      </trkpt>
      <trkpt lat="59.8647914" lon="17.6507063">
        <ele>30.8995</ele>
        <time>2013-05-24T18:35:22Z</time>
      </trkpt>
      <trkpt lat="59.8647383" lon="17.6507913">
        <ele>28.0155</ele>
        <time>2013-05-24T18:35:23Z</time>
      </trkpt>
      <trkpt lat="59.8646873" lon="17.6508887">
        <ele>26.5736</ele>
        <time>2013-05-24T18:35:24Z</time>
      </trkpt>
      <trkpt lat="59.8646382" lon="17.6509855">
        <ele>25.6123</ele>
        <time>2013-05-24T18:35:25Z</time>
      </trkpt>
      <trkpt lat="59.8645929" lon="17.6510723">
        <ele>25.1317</ele>
        <time>2013-05-24T18:35:26Z</time>
      </trkpt>
      <trkpt lat="59.8645549" lon="17.6511433">
        <ele>24.1703</ele>
        <time>2013-05-24T18:35:27Z</time>
      </trkpt>
      <trkpt lat="59.8645237" lon="17.6511994">
        <ele>24.651</ele>
        <time>2013-05-24T18:35:28Z</time>
      </trkpt>
      <trkpt lat="59.8644904" lon="17.6512456">
        <ele>25.1317</ele>
        <time>2013-05-24T18:35:29Z</time>
      </trkpt>
      <trkpt lat="59.8644629" lon="17.6512911">
        <ele>23.209</ele>
        <time>2013-05-24T18:35:30Z</time>
      </trkpt>
      <trkpt lat="59.8644346" lon="17.6513346">
        <ele>20.8057</ele>
        <time>2013-05-24T18:35:31Z</time>
      </trkpt>
      <trkpt lat="59.8644112" lon="17.6513753">
        <ele>19.8444</ele>
        <time>2013-05-24T18:35:32Z</time>
      </trkpt>
      <trkpt lat="59.8643902" lon="17.6514116">
        <ele>19.3638</ele>
        <time>2013-05-24T18:35:33Z</time>
      </trkpt>
      <trkpt lat="59.8643704" lon="17.651449">
        <ele>18.8831</ele>
        <time>2013-05-24T18:35:34Z</time>
      </trkpt>
      <trkpt lat="59.8643491" lon="17.6514885">
        <ele>18.4023</ele>
        <time>2013-05-24T18:35:35Z</time>
      </trkpt>
      <trkpt lat="59.8643288" lon="17.6515245">
        <ele>18.4023</ele>
        <time>2013-05-24T18:35:36Z</time>
      </trkpt>
      <trkpt lat="59.8643093" lon="17.6515553">
        <ele>17.9218</ele>
        <time>2013-05-24T18:35:37Z</time>
      </trkpt>
      <trkpt lat="59.8642852" lon="17.6515877">
        <ele>17.9218</ele>
        <time>2013-05-24T18:35:38Z</time>
      </trkpt>
      <trkpt lat="59.864257" lon="17.6516247">
        <ele>18.8831</ele>
        <time>2013-05-24T18:35:39Z</time>
      </trkpt>
      <trkpt lat="59.8642274" lon="17.6516709">
        <ele>18.4023</ele>
        <time>2013-05-24T18:35:40Z</time>
      </trkpt>
      <trkpt lat="59.8641881" lon="17.651731">
        <ele>17.9218</ele>
        <time>2013-05-24T18:35:41Z</time>
      </trkpt>
      <trkpt lat="59.8641408" lon="17.6517918">
        <ele>16.9604</ele>
        <time>2013-05-24T18:35:42Z</time>
      </trkpt>
      <trkpt lat="59.8640949" lon="17.6518655">
        <ele>16.4797</ele>
        <time>2013-05-24T18:35:43Z</time>
      </trkpt>
      <trkpt lat="59.8640532" lon="17.6519453">
        <ele>18.4023</ele>
        <time>2013-05-24T18:35:44Z</time>
      </trkpt>
      <trkpt lat="59.8640091" lon="17.6520239">
        <ele>20.8057</ele>
        <time>2013-05-24T18:35:45Z</time>
      </trkpt>
      <trkpt lat="59.8639602" lon="17.6520998">
        <ele>23.209</ele>
        <time>2013-05-24T18:35:46Z</time>
      </trkpt>
      <trkpt lat="59.8639088" lon="17.6521832">
        <ele>23.6896</ele>
        <time>2013-05-24T18:35:47Z</time>
      </trkpt>
      <trkpt lat="59.8638617" lon="17.6522679">
        <ele>25.1317</ele>
        <time>2013-05-24T18:35:48Z</time>
      </trkpt>
      <trkpt lat="59.8638048" lon="17.652355">
        <ele>25.6123</ele>
        <time>2013-05-24T18:35:49Z</time>
      </trkpt>
      <trkpt lat="59.86374" lon="17.6524367">
        <ele>24.651</ele>
        <time>2013-05-24T18:35:50Z</time>
      </trkpt>
      <trkpt lat="59.8636764" lon="17.6525167">
        <ele>24.1703</ele>
        <time>2013-05-24T18:35:51Z</time>
      </trkpt>
      <trkpt lat="59.8636108" lon="17.6526066">
        <ele>23.209</ele>
        <time>2013-05-24T18:35:52Z</time>
      </trkpt>
      <trkpt lat="59.8635488" lon="17.6526952">
        <ele>22.2476</ele>
        <time>2013-05-24T18:35:53Z</time>
      </trkpt>
      <trkpt lat="59.8634887" lon="17.65279">
        <ele>23.209</ele>
        <time>2013-05-24T18:35:54Z</time>
      </trkpt>
      <trkpt lat="59.8634302" lon="17.6528811">
        <ele>23.209</ele>
        <time>2013-05-24T18:35:55Z</time>
      </trkpt>
      <trkpt lat="59.863373" lon="17.6529688">
        <ele>23.209</ele>
        <time>2013-05-24T18:35:56Z</time>
      </trkpt>
      <trkpt lat="59.8633168" lon="17.653057">
        <ele>24.1703</ele>
        <time>2013-05-24T18:35:57Z</time>
      </trkpt>
      <trkpt lat="59.8632593" lon="17.6531382">
        <ele>25.6123</ele>
        <time>2013-05-24T18:35:58Z</time>
      </trkpt>
      <trkpt lat="59.8631966" lon="17.6532199">
        <ele>25.1317</ele>
        <time>2013-05-24T18:35:59Z</time>
      </trkpt>
      <trkpt lat="59.8631444" lon="17.6533007">
        <ele>24.1703</ele>
        <time>2013-05-24T18:36:00Z</time>
      </trkpt>
      <trkpt lat="59.8631138" lon="17.6533955">
        <ele>25.6123</ele>
        <time>2013-05-24T18:36:01Z</time>
      </trkpt>
      <trkpt lat="59.8630526" lon="17.6534631">
        <ele>24.1703</ele>
        <time>2013-05-24T18:36:02Z</time>
      </trkpt>
      <trkpt lat="59.86299" lon="17.6535198">
        <ele>22.7283</ele>
        <time>2013-05-24T18:36:03Z</time>
      </trkpt>
      <trkpt lat="59.8629417" lon="17.6535696">
        <ele>20.8057</ele>
        <time>2013-05-24T18:36:04Z</time>
      </trkpt>
      <trkpt lat="59.8629042" lon="17.6536053">
        <ele>17.9218</ele>
        <time>2013-05-24T18:36:05Z</time>
      </trkpt>
      <trkpt lat="59.8628764" lon="17.6536481">
        <ele>16.9604</ele>
        <time>2013-05-24T18:36:06Z</time>
      </trkpt>
      <trkpt lat="59.8628408" lon="17.6537014">
        <ele>15.0377</ele>
        <time>2013-05-24T18:36:07Z</time>
      </trkpt>
      <trkpt lat="59.8628127" lon="17.6537749">
        <ele>14.0764</ele>
        <time>2013-05-24T18:36:08Z</time>
      </trkpt>
      <trkpt lat="59.8628105" lon="17.6538588">
        <ele>13.5958</ele>
        <time>2013-05-24T18:36:09Z</time>
      </trkpt>
      <trkpt lat="59.8628215" lon="17.6539571">
        <ele>13.1151</ele>
        <time>2013-05-24T18:36:10Z</time>
      </trkpt>
      <trkpt lat="59.862834" lon="17.6540588">
        <ele>12.6344</ele>
        <time>2013-05-24T18:36:11Z</time>
      </trkpt>
      <trkpt lat="59.8628556" lon="17.6541637">
        <ele>12.1538</ele>
        <time>2013-05-24T18:36:12Z</time>
      </trkpt>
      <trkpt lat="59.8628805" lon="17.6542743">
        <ele>12.6344</ele>
        <time>2013-05-24T18:36:13Z</time>
      </trkpt>
      <trkpt lat="59.8629071" lon="17.6543913">
        <ele>12.6344</ele>
        <time>2013-05-24T18:36:14Z</time>
      </trkpt>
      <trkpt lat="59.862936" lon="17.6545126">
        <ele>12.6344</ele>
        <time>2013-05-24T18:36:15Z</time>
      </trkpt>
      <trkpt lat="59.862964" lon="17.654639">
        <ele>12.6344</ele>
        <time>2013-05-24T18:36:16Z</time>
      </trkpt>
      <trkpt lat="59.8629885" lon="17.6547703">
        <ele>12.6344</ele>
        <time>2013-05-24T18:36:17Z</time>
      </trkpt>
      <trkpt lat="59.8630138" lon="17.6549024">
        <ele>13.1151</ele>
        <time>2013-05-24T18:36:18Z</time>
      </trkpt>
      <trkpt lat="59.8630418" lon="17.6550353">
        <ele>13.1151</ele>
        <time>2013-05-24T18:36:19Z</time>
      </trkpt>
      <trkpt lat="59.8630701" lon="17.65517">
        <ele>13.5958</ele>
        <time>2013-05-24T18:36:20Z</time>
      </trkpt>
      <trkpt lat="59.8630983" lon="17.6553076">
        <ele>13.5958</ele>
        <time>2013-05-24T18:36:21Z</time>
      </trkpt>
      <trkpt lat="59.8631256" lon="17.6554465">
        <ele>14.0764</ele>
        <time>2013-05-24T18:36:22Z</time>
      </trkpt>
      <trkpt lat="59.8631544" lon="17.6555869">
        <ele>14.557</ele>
        <time>2013-05-24T18:36:23Z</time>
      </trkpt>
      <trkpt lat="59.8631841" lon="17.6557268">
        <ele>15.0377</ele>
        <time>2013-05-24T18:36:24Z</time>
      </trkpt>
      <trkpt lat="59.8632138" lon="17.655868">
        <ele>15.5184</ele>
        <time>2013-05-24T18:36:25Z</time>
      </trkpt>
      <trkpt lat="59.8632571" lon="17.6560154">
        <ele>15.0377</ele>
        <time>2013-05-24T18:36:26Z</time>
      </trkpt>
      <trkpt lat="59.8632976" lon="17.6561607">
        <ele>15.0377</ele>
        <time>2013-05-24T18:36:27Z</time>
      </trkpt>
      <trkpt lat="59.863342" lon="17.6563007">
        <ele>14.557</ele>
        <time>2013-05-24T18:36:28Z</time>
      </trkpt>
      <trkpt lat="59.8633819" lon="17.656443">
        <ele>14.557</ele>
        <time>2013-05-24T18:36:29Z</time>
      </trkpt>
      <trkpt lat="59.8634156" lon="17.6565891">
        <ele>14.0764</ele>
        <time>2013-05-24T18:36:30Z</time>
      </trkpt>
      <trkpt lat="59.8634474" lon="17.6567339">
        <ele>13.5958</ele>
        <time>2013-05-24T18:36:31Z</time>
      </trkpt>
      <trkpt lat="59.8634808" lon="17.6568751">
        <ele>13.5958</ele>
        <time>2013-05-24T18:36:32Z</time>
      </trkpt>
      <trkpt lat="59.8635136" lon="17.6570141">
        <ele>13.5958</ele>
        <time>2013-05-24T18:36:33Z</time>
      </trkpt>
      <trkpt lat="59.8635473" lon="17.6571506">
        <ele>13.5958</ele>
        <time>2013-05-24T18:36:34Z</time>
      </trkpt>
      <trkpt lat="59.8635802" lon="17.6572854">
        <ele>13.1151</ele>
        <time>2013-05-24T18:36:35Z</time>
      </trkpt>
      <trkpt lat="59.8636119" lon="17.6574191">
        <ele>13.1151</ele>
        <time>2013-05-24T18:36:36Z</time>
      </trkpt>
      <trkpt lat="59.8636431" lon="17.6575487">
        <ele>13.1151</ele>
        <time>2013-05-24T18:36:37Z</time>
      </trkpt>
      <trkpt lat="59.8636757" lon="17.6576746">
        <ele>13.1151</ele>
        <time>2013-05-24T18:36:38Z</time>
      </trkpt>
      <trkpt lat="59.8637066" lon="17.6577988">
        <ele>12.6344</ele>
        <time>2013-05-24T18:36:39Z</time>
      </trkpt>
      <trkpt lat="59.8637363" lon="17.6579188">
        <ele>12.6344</ele>
        <time>2013-05-24T18:36:40Z</time>
      </trkpt>
      <trkpt lat="59.8637669" lon="17.6580366">
        <ele>12.6344</ele>
        <time>2013-05-24T18:36:41Z</time>
      </trkpt>
      <trkpt lat="59.8637949" lon="17.6581581">
        <ele>12.1538</ele>
        <time>2013-05-24T18:36:42Z</time>
      </trkpt>
      <trkpt lat="59.8638192" lon="17.6582842">
        <ele>12.1538</ele>
        <time>2013-05-24T18:36:43Z</time>
      </trkpt>
      <trkpt lat="59.8638465" lon="17.658409">
        <ele>12.1538</ele>
        <time>2013-05-24T18:36:44Z</time>
      </trkpt>
      <trkpt lat="59.8638748" lon="17.658533">
        <ele>12.1538</ele>
        <time>2013-05-24T18:36:45Z</time>
      </trkpt>
      <trkpt lat="59.8639047" lon="17.6586601">
        <ele>12.1538</ele>
        <time>2013-05-24T18:36:46Z</time>
      </trkpt>
      <trkpt lat="59.8639281" lon="17.6587856">
        <ele>12.1538</ele>
        <time>2013-05-24T18:36:47Z</time>
      </trkpt>
      <trkpt lat="59.863962" lon="17.6589108">
        <ele>12.1538</ele>
        <time>2013-05-24T18:36:48Z</time>
      </trkpt>
      <trkpt lat="59.8639958" lon="17.6590356">
        <ele>12.1538</ele>
        <time>2013-05-24T18:36:49Z</time>
      </trkpt>
      <trkpt lat="59.8640231" lon="17.6591644">
        <ele>11.6732</ele>
        <time>2013-05-24T18:36:50Z</time>
      </trkpt>
      <trkpt lat="59.8640487" lon="17.6592912">
        <ele>12.1538</ele>
        <time>2013-05-24T18:36:51Z</time>
      </trkpt>
      <trkpt lat="59.8640716" lon="17.6594208">
        <ele>12.1538</ele>
        <time>2013-05-24T18:36:52Z</time>
      </trkpt>
      <trkpt lat="59.8640977" lon="17.659545">
        <ele>12.6344</ele>
        <time>2013-05-24T18:36:53Z</time>
      </trkpt>
      <trkpt lat="59.8641296" lon="17.6596692">
        <ele>12.1538</ele>
        <time>2013-05-24T18:36:54Z</time>
      </trkpt>
      <trkpt lat="59.8641559" lon="17.6597992">
        <ele>11.6732</ele>
        <time>2013-05-24T18:36:55Z</time>
      </trkpt>
      <trkpt lat="59.8641851" lon="17.6599287">
        <ele>11.6732</ele>
        <time>2013-05-24T18:36:56Z</time>
      </trkpt>
      <trkpt lat="59.864217" lon="17.6600553">
        <ele>11.1925</ele>
        <time>2013-05-24T18:36:57Z</time>
      </trkpt>
      <trkpt lat="59.8642415" lon="17.6601874">
        <ele>11.1925</ele>
        <time>2013-05-24T18:36:58Z</time>
      </trkpt>
      <trkpt lat="59.8642754" lon="17.6603149">
        <ele>11.1925</ele>
        <time>2013-05-24T18:36:59Z</time>
      </trkpt>
      <trkpt lat="59.8643098" lon="17.6604418">
        <ele>11.1925</ele>
        <time>2013-05-24T18:37:00Z</time>
      </trkpt>
      <trkpt lat="59.8643393" lon="17.660572">
        <ele>10.7118</ele>
        <time>2013-05-24T18:37:01Z</time>
      </trkpt>
      <trkpt lat="59.8643712" lon="17.6607">
        <ele>10.7118</ele>
        <time>2013-05-24T18:37:02Z</time>
      </trkpt>
      <trkpt lat="59.8644023" lon="17.6608266">
        <ele>10.7118</ele>
        <time>2013-05-24T18:37:03Z</time>
      </trkpt>
      <trkpt lat="59.8644315" lon="17.6609551">
        <ele>10.2312</ele>
        <time>2013-05-24T18:37:04Z</time>
      </trkpt>
      <trkpt lat="59.864465" lon="17.6610829">
        <ele>10.2312</ele>
        <time>2013-05-24T18:37:05Z</time>
      </trkpt>
      <trkpt lat="59.8644977" lon="17.6612118">
        <ele>10.2312</ele>
        <time>2013-05-24T18:37:06Z</time>
      </trkpt>
      <trkpt lat="59.8645303" lon="17.661342">
        <ele>10.7118</ele>
        <time>2013-05-24T18:37:07Z</time>
      </trkpt>
      <trkpt lat="59.8645667" lon="17.6614653">
        <ele>10.7118</ele>
        <time>2013-05-24T18:37:08Z</time>
      </trkpt>
      <trkpt lat="59.8645993" lon="17.6615918">
        <ele>10.2312</ele>
        <time>2013-05-24T18:37:09Z</time>
      </trkpt>
      <trkpt lat="59.8646302" lon="17.6617207">
        <ele>10.2312</ele>
        <time>2013-05-24T18:37:10Z</time>
      </trkpt>
      <trkpt lat="59.8646646" lon="17.6618481">
        <ele>10.2312</ele>
        <time>2013-05-24T18:37:11Z</time>
      </trkpt>
      <trkpt lat="59.8646917" lon="17.6619823">
        <ele>10.2312</ele>
        <time>2013-05-24T18:37:12Z</time>
      </trkpt>
      <trkpt lat="59.8647226" lon="17.662111">
        <ele>10.7118</ele>
        <time>2013-05-24T18:37:13Z</time>
      </trkpt>
      <trkpt lat="59.864754" lon="17.662238">
        <ele>10.7118</ele>
        <time>2013-05-24T18:37:14Z</time>
      </trkpt>
      <trkpt lat="59.8647831" lon="17.6623635">
        <ele>11.1925</ele>
        <time>2013-05-24T18:37:15Z</time>
      </trkpt>
      <trkpt lat="59.8648163" lon="17.6624847">
        <ele>11.1925</ele>
        <time>2013-05-24T18:37:16Z</time>
      </trkpt>
      <trkpt lat="59.8648569" lon="17.6625955">
        <ele>11.1925</ele>
        <time>2013-05-24T18:37:17Z</time>
      </trkpt>
      <trkpt lat="59.864891" lon="17.6627053">
        <ele>11.6732</ele>
        <time>2013-05-24T18:37:18Z</time>
      </trkpt>
      <trkpt lat="59.8649307" lon="17.6628095">
        <ele>11.1925</ele>
        <time>2013-05-24T18:37:19Z</time>
      </trkpt>
      <trkpt lat="59.8649718" lon="17.6629095">
        <ele>11.1925</ele>
        <time>2013-05-24T18:37:20Z</time>
      </trkpt>
      <trkpt lat="59.8650148" lon="17.6630095">
        <ele>11.6732</ele>
        <time>2013-05-24T18:37:21Z</time>
      </trkpt>
      <trkpt lat="59.865052" lon="17.6631065">
        <ele>12.6344</ele>
        <time>2013-05-24T18:37:22Z</time>
      </trkpt>
      <trkpt lat="59.8650904" lon="17.6632004">
        <ele>13.1151</ele>
        <time>2013-05-24T18:37:23Z</time>
      </trkpt>
      <trkpt lat="59.8651294" lon="17.6632852">
        <ele>14.0764</ele>
        <time>2013-05-24T18:37:24Z</time>
      </trkpt>
      <trkpt lat="59.8651681" lon="17.6633672">
        <ele>15.0377</ele>
        <time>2013-05-24T18:37:25Z</time>
      </trkpt>
      <trkpt lat="59.8652076" lon="17.6634477">
        <ele>15.5184</ele>
        <time>2013-05-24T18:37:26Z</time>
      </trkpt>
      <trkpt lat="59.8652448" lon="17.6635325">
        <ele>15.999</ele>
        <time>2013-05-24T18:37:27Z</time>
      </trkpt>
      <trkpt lat="59.8652736" lon="17.663613">
        <ele>16.9604</ele>
        <time>2013-05-24T18:37:28Z</time>
      </trkpt>
      <trkpt lat="59.8653044" lon="17.6636865">
        <ele>16.4797</ele>
        <time>2013-05-24T18:37:29Z</time>
      </trkpt>
      <trkpt lat="59.8653299" lon="17.6637544">
        <ele>16.4797</ele>
        <time>2013-05-24T18:37:30Z</time>
      </trkpt>
      <trkpt lat="59.8653525" lon="17.663818">
        <ele>16.4797</ele>
        <time>2013-05-24T18:37:31Z</time>
      </trkpt>
      <trkpt lat="59.8653733" lon="17.6638772">
        <ele>16.4797</ele>
        <time>2013-05-24T18:37:32Z</time>
      </trkpt>
      <trkpt lat="59.8653914" lon="17.6639316">
        <ele>16.9604</ele>
        <time>2013-05-24T18:37:33Z</time>
      </trkpt>
      <trkpt lat="59.8654088" lon="17.6639859">
        <ele>16.9604</ele>
        <time>2013-05-24T18:37:34Z</time>
      </trkpt>
      <trkpt lat="59.8654207" lon="17.6640407">
        <ele>17.4412</ele>
        <time>2013-05-24T18:37:35Z</time>
      </trkpt>
      <trkpt lat="59.8654453" lon="17.6640937">
        <ele>17.4412</ele>
        <time>2013-05-24T18:37:36Z</time>
      </trkpt>
      <trkpt lat="59.8654664" lon="17.6641484">
        <ele>16.9604</ele>
        <time>2013-05-24T18:37:37Z</time>
      </trkpt>
      <trkpt lat="59.8654862" lon="17.6642018">
        <ele>16.4797</ele>
        <time>2013-05-24T18:37:38Z</time>
      </trkpt>
      <trkpt lat="59.8654969" lon="17.6642541">
        <ele>16.9604</ele>
        <time>2013-05-24T18:37:39Z</time>
      </trkpt>
      <trkpt lat="59.8655022" lon="17.664307">
        <ele>16.9604</ele>
        <time>2013-05-24T18:37:40Z</time>
      </trkpt>
      <trkpt lat="59.8655041" lon="17.664352">
        <ele>16.4797</ele>
        <time>2013-05-24T18:37:41Z</time>
      </trkpt>
      <trkpt lat="59.8655072" lon="17.6643844">
        <ele>16.4797</ele>
        <time>2013-05-24T18:37:42Z</time>
      </trkpt>
      <trkpt lat="59.8655138" lon="17.6644137">
        <ele>15.999</ele>
        <time>2013-05-24T18:37:43Z</time>
      </trkpt>
      <trkpt lat="59.8655163" lon="17.6644335">
        <ele>15.999</ele>
        <time>2013-05-24T18:37:44Z</time>
      </trkpt>
      <trkpt lat="59.8655179" lon="17.6644486">
        <ele>15.5184</ele>
        <time>2013-05-24T18:37:45Z</time>
      </trkpt>
      <trkpt lat="59.8655209" lon="17.6644584">
        <ele>15.5184</ele>
        <time>2013-05-24T18:37:46Z</time>
      </trkpt>
      <trkpt lat="59.8655217" lon="17.6644609">
        <ele>14.557</ele>
        <time>2013-05-24T18:37:47Z</time>
      </trkpt>
      <trkpt lat="59.8655234" lon="17.6644618">
        <ele>14.557</ele>
        <time>2013-05-24T18:37:48Z</time>
      </trkpt>
      <trkpt lat="59.8655821" lon="17.6645915">
        <ele>4.94385</ele>
        <time>2013-05-24T18:39:09Z</time>
      </trkpt>
      <trkpt lat="59.865601" lon="17.6646329">
        <ele>5.42456</ele>
        <time>2013-05-24T18:39:10Z</time>
      </trkpt>
      <trkpt lat="59.8656281" lon="17.6646771">
        <ele>5.42456</ele>
        <time>2013-05-24T18:39:11Z</time>
      </trkpt>
      <trkpt lat="59.8656597" lon="17.6647319">
        <ele>4.94385</ele>
        <time>2013-05-24T18:39:12Z</time>
      </trkpt>
      <trkpt lat="59.8656944" lon="17.6648044">
        <ele>4.94385</ele>
        <time>2013-05-24T18:39:13Z</time>
      </trkpt>
      <trkpt lat="59.8657342" lon="17.6648808">
        <ele>4.46326</ele>
        <time>2013-05-24T18:39:14Z</time>
      </trkpt>
      <trkpt lat="59.8657785" lon="17.6649529">
        <ele>4.46326</ele>
        <time>2013-05-24T18:39:15Z</time>
      </trkpt>
      <trkpt lat="59.8658234" lon="17.6650525">
        <ele>4.94385</ele>
        <time>2013-05-24T18:39:16Z</time>
      </trkpt>
      <trkpt lat="59.8658943" lon="17.6650951">
        <ele>5.90527</ele>
        <time>2013-05-24T18:39:17Z</time>
      </trkpt>
      <trkpt lat="59.8659606" lon="17.6651505">
        <ele>6.38586</ele>
        <time>2013-05-24T18:39:18Z</time>
      </trkpt>
      <trkpt lat="59.866015" lon="17.6652519">
        <ele>6.38586</ele>
        <time>2013-05-24T18:39:19Z</time>
      </trkpt>
      <trkpt lat="59.8660596" lon="17.665366">
        <ele>7.34717</ele>
        <time>2013-05-24T18:39:20Z</time>
      </trkpt>
      <trkpt lat="59.866087" lon="17.665496">
        <ele>8.78918</ele>
        <time>2013-05-24T18:39:21Z</time>
      </trkpt>
      <trkpt lat="59.866133" lon="17.6656787">
        <ele>9.2699</ele>
        <time>2013-05-24T18:39:22Z</time>
      </trkpt>
      <trkpt lat="59.8661772" lon="17.665788">
        <ele>10.2312</ele>
        <time>2013-05-24T18:39:23Z</time>
      </trkpt>
      <trkpt lat="59.8662279" lon="17.6659048">
        <ele>11.1925</ele>
        <time>2013-05-24T18:39:24Z</time>
      </trkpt>
      <trkpt lat="59.8662776" lon="17.6660231">
        <ele>11.1925</ele>
        <time>2013-05-24T18:39:25Z</time>
      </trkpt>
      <trkpt lat="59.8663145" lon="17.66608">
        <ele>13.5958</ele>
        <time>2013-05-24T18:39:26Z</time>
      </trkpt>
      <trkpt lat="59.8663487" lon="17.6662041">
        <ele>14.557</ele>
        <time>2013-05-24T18:39:27Z</time>
      </trkpt>
      <trkpt lat="59.8664001" lon="17.6663261">
        <ele>15.5184</ele>
        <time>2013-05-24T18:39:28Z</time>
      </trkpt>
      <trkpt lat="59.8664714" lon="17.666422">
        <ele>16.4797</ele>
        <time>2013-05-24T18:39:29Z</time>
      </trkpt>
      <trkpt lat="59.8665175" lon="17.666549">
        <ele>15.999</ele>
        <time>2013-05-24T18:39:30Z</time>
      </trkpt>
      <trkpt lat="59.8665632" lon="17.6666655">
        <ele>15.999</ele>
        <time>2013-05-24T18:39:31Z</time>
      </trkpt>
      <trkpt lat="59.8666035" lon="17.6667714">
        <ele>15.5184</ele>
        <time>2013-05-24T18:39:32Z</time>
      </trkpt>
      <trkpt lat="59.866664" lon="17.6668918">
        <ele>15.5184</ele>
        <time>2013-05-24T18:39:33Z</time>
      </trkpt>
      <trkpt lat="59.8667107" lon="17.6670101">
        <ele>15.5184</ele>
        <time>2013-05-24T18:39:34Z</time>
      </trkpt>
      <trkpt lat="59.866753" lon="17.6671361">
        <ele>15.0377</ele>
        <time>2013-05-24T18:39:35Z</time>
      </trkpt>
      <trkpt lat="59.8667992" lon="17.6672798">
        <ele>14.557</ele>
        <time>2013-05-24T18:39:36Z</time>
      </trkpt>
      <trkpt lat="59.8668509" lon="17.667393">
        <ele>14.557</ele>
        <time>2013-05-24T18:39:37Z</time>
      </trkpt>
      <trkpt lat="59.8669043" lon="17.667493">
        <ele>14.0764</ele>
        <time>2013-05-24T18:39:38Z</time>
      </trkpt>
      <trkpt lat="59.8669574" lon="17.6675913">
        <ele>13.5958</ele>
        <time>2013-05-24T18:39:39Z</time>
      </trkpt>
      <trkpt lat="59.8670141" lon="17.6676891">
        <ele>13.1151</ele>
        <time>2013-05-24T18:39:40Z</time>
      </trkpt>
      <trkpt lat="59.8670646" lon="17.6677805">
        <ele>13.1151</ele>
        <time>2013-05-24T18:39:41Z</time>
      </trkpt>
      <trkpt lat="59.8671138" lon="17.6678861">
        <ele>13.5958</ele>
        <time>2013-05-24T18:39:42Z</time>
      </trkpt>
      <trkpt lat="59.8671556" lon="17.6679819">
        <ele>14.557</ele>
        <time>2013-05-24T18:39:43Z</time>
      </trkpt>
      <trkpt lat="59.8672042" lon="17.6681026">
        <ele>14.557</ele>
        <time>2013-05-24T18:39:44Z</time>
      </trkpt>
      <trkpt lat="59.8672485" lon="17.6682282">
        <ele>14.557</ele>
        <time>2013-05-24T18:39:45Z</time>
      </trkpt>
      <trkpt lat="59.8672976" lon="17.6683367">
        <ele>15.0377</ele>
        <time>2013-05-24T18:39:46Z</time>
      </trkpt>
      <trkpt lat="59.8673494" lon="17.6684397">
        <ele>15.0377</ele>
        <time>2013-05-24T18:39:47Z</time>
      </trkpt>
      <trkpt lat="59.8674013" lon="17.6685709">
        <ele>14.557</ele>
        <time>2013-05-24T18:39:48Z</time>
      </trkpt>
      <trkpt lat="59.8674537" lon="17.6686602">
        <ele>14.557</ele>
        <time>2013-05-24T18:39:49Z</time>
      </trkpt>
      <trkpt lat="59.8674967" lon="17.6687753">
        <ele>14.557</ele>
        <time>2013-05-24T18:39:50Z</time>
      </trkpt>
      <trkpt lat="59.8675442" lon="17.668884">
        <ele>14.557</ele>
        <time>2013-05-24T18:39:51Z</time>
      </trkpt>
      <trkpt lat="59.8675915" lon="17.668992">
        <ele>14.557</ele>
        <time>2013-05-24T18:39:52Z</time>
      </trkpt>
      <trkpt lat="59.8676406" lon="17.6690884">
        <ele>15.0377</ele>
        <time>2013-05-24T18:39:53Z</time>
      </trkpt>
      <trkpt lat="59.8676866" lon="17.6691913">
        <ele>15.0377</ele>
        <time>2013-05-24T18:39:54Z</time>
      </trkpt>
      <trkpt lat="59.8677327" lon="17.6692982">
        <ele>15.5184</ele>
        <time>2013-05-24T18:39:55Z</time>
      </trkpt>
      <trkpt lat="59.8677793" lon="17.669394">
        <ele>15.5184</ele>
        <time>2013-05-24T18:39:56Z</time>
      </trkpt>
      <trkpt lat="59.8678255" lon="17.6694813">
        <ele>15.999</ele>
        <time>2013-05-24T18:39:57Z</time>
      </trkpt>
      <trkpt lat="59.8678681" lon="17.6695707">
        <ele>15.999</ele>
        <time>2013-05-24T18:39:58Z</time>
      </trkpt>
      <trkpt lat="59.8679079" lon="17.6696551">
        <ele>15.5184</ele>
        <time>2013-05-24T18:39:59Z</time>
      </trkpt>
      <trkpt lat="59.8679395" lon="17.669746">
        <ele>15.5184</ele>
        <time>2013-05-24T18:40:00Z</time>
      </trkpt>
      <trkpt lat="59.8679524" lon="17.6698506">
        <ele>15.5184</ele>
        <time>2013-05-24T18:40:01Z</time>
      </trkpt>
      <trkpt lat="59.867939" lon="17.6699544">
        <ele>15.0377</ele>
        <time>2013-05-24T18:40:02Z</time>
      </trkpt>
      <trkpt lat="59.8678991" lon="17.6700239">
        <ele>13.1151</ele>
        <time>2013-05-24T18:40:03Z</time>
      </trkpt>
      <trkpt lat="59.8678374" lon="17.6700765">
        <ele>11.6732</ele>
        <time>2013-05-24T18:40:04Z</time>
      </trkpt>
      <trkpt lat="59.8677805" lon="17.6701412">
        <ele>10.7118</ele>
        <time>2013-05-24T18:40:05Z</time>
      </trkpt>
      <trkpt lat="59.8677231" lon="17.6702154">
        <ele>9.75061</ele>
        <time>2013-05-24T18:40:06Z</time>
      </trkpt>
      <trkpt lat="59.867668" lon="17.6703">
        <ele>8.78918</ele>
        <time>2013-05-24T18:40:07Z</time>
      </trkpt>
      <trkpt lat="59.8676129" lon="17.6703902">
        <ele>7.82788</ele>
        <time>2013-05-24T18:40:08Z</time>
      </trkpt>
      <trkpt lat="59.867553" lon="17.670484">
        <ele>7.82788</ele>
        <time>2013-05-24T18:40:09Z</time>
      </trkpt>
      <trkpt lat="59.8674992" lon="17.6705847">
        <ele>7.82788</ele>
        <time>2013-05-24T18:40:10Z</time>
      </trkpt>
      <trkpt lat="59.8674432" lon="17.6706859">
        <ele>7.82788</ele>
        <time>2013-05-24T18:40:11Z</time>
      </trkpt>
      <trkpt lat="59.8673915" lon="17.6707874">
        <ele>7.34717</ele>
        <time>2013-05-24T18:40:12Z</time>
      </trkpt>
      <trkpt lat="59.8673415" lon="17.6708847">
        <ele>7.34717</ele>
        <time>2013-05-24T18:40:13Z</time>
      </trkpt>
      <trkpt lat="59.867294" lon="17.6709848">
        <ele>6.86646</ele>
        <time>2013-05-24T18:40:14Z</time>
      </trkpt>
      <trkpt lat="59.8672484" lon="17.6710972">
        <ele>6.38586</ele>
        <time>2013-05-24T18:40:15Z</time>
      </trkpt>
      <trkpt lat="59.8672084" lon="17.6712144">
        <ele>7.82788</ele>
        <time>2013-05-24T18:40:16Z</time>
      </trkpt>
      <trkpt lat="59.8671722" lon="17.6713303">
        <ele>8.78918</ele>
        <time>2013-05-24T18:40:17Z</time>
      </trkpt>
      <trkpt lat="59.8671398" lon="17.6714528">
        <ele>8.30859</ele>
        <time>2013-05-24T18:40:18Z</time>
      </trkpt>
      <trkpt lat="59.8670999" lon="17.6716183">
        <ele>8.30859</ele>
        <time>2013-05-24T18:40:19Z</time>
      </trkpt>
      <trkpt lat="59.8670636" lon="17.6717991">
        <ele>9.2699</ele>
        <time>2013-05-24T18:40:20Z</time>
      </trkpt>
      <trkpt lat="59.8670366" lon="17.6719488">
        <ele>9.75061</ele>
        <time>2013-05-24T18:40:21Z</time>
      </trkpt>
      <trkpt lat="59.8670206" lon="17.6720972">
        <ele>11.1925</ele>
        <time>2013-05-24T18:40:22Z</time>
      </trkpt>
      <trkpt lat="59.867021" lon="17.6722409">
        <ele>11.6732</ele>
        <time>2013-05-24T18:40:23Z</time>
      </trkpt>
      <trkpt lat="59.8670229" lon="17.6723902">
        <ele>12.1538</ele>
        <time>2013-05-24T18:40:24Z</time>
      </trkpt>
      <trkpt lat="59.867033" lon="17.6725365">
        <ele>13.5958</ele>
        <time>2013-05-24T18:40:25Z</time>
      </trkpt>
      <trkpt lat="59.8670217" lon="17.6726817">
        <ele>14.0764</ele>
        <time>2013-05-24T18:40:26Z</time>
      </trkpt>
      <trkpt lat="59.867016" lon="17.6728216">
        <ele>14.557</ele>
        <time>2013-05-24T18:40:27Z</time>
      </trkpt>
      <trkpt lat="59.8670092" lon="17.6729553">
        <ele>15.5184</ele>
        <time>2013-05-24T18:40:28Z</time>
      </trkpt>
      <trkpt lat="59.8670019" lon="17.673088">
        <ele>15.5184</ele>
        <time>2013-05-24T18:40:29Z</time>
      </trkpt>
      <trkpt lat="59.867009" lon="17.6732329">
        <ele>18.8831</ele>
        <time>2013-05-24T18:40:30Z</time>
      </trkpt>
      <trkpt lat="59.8669831" lon="17.6733369">
        <ele>17.4412</ele>
        <time>2013-05-24T18:40:31Z</time>
      </trkpt>
      <trkpt lat="59.866922" lon="17.6733323">
        <ele>16.4797</ele>
        <time>2013-05-24T18:40:32Z</time>
      </trkpt>
      <trkpt lat="59.8668792" lon="17.6733112">
        <ele>15.999</ele>
        <time>2013-05-24T18:40:33Z</time>
      </trkpt>
      <trkpt lat="59.8667786" lon="17.6733514">
        <ele>15.0377</ele>
        <time>2013-05-24T18:40:34Z</time>
      </trkpt>
      <trkpt lat="59.8667131" lon="17.6733655">
        <ele>16.9604</ele>
        <time>2013-05-24T18:40:35Z</time>
      </trkpt>
      <trkpt lat="59.8666439" lon="17.6732968">
        <ele>16.4797</ele>
        <time>2013-05-24T18:40:36Z</time>
      </trkpt>
      <trkpt lat="59.8665707" lon="17.6732859">
        <ele>18.8831</ele>
        <time>2013-05-24T18:40:37Z</time>
      </trkpt>
      <trkpt lat="59.8664744" lon="17.6732538">
        <ele>19.8444</ele>
        <time>2013-05-24T18:40:38Z</time>
      </trkpt>
      <trkpt lat="59.866399" lon="17.6732413">
        <ele>20.8057</ele>
        <time>2013-05-24T18:40:39Z</time>
      </trkpt>
      <trkpt lat="59.8663388" lon="17.6732136">
        <ele>21.2864</ele>
        <time>2013-05-24T18:40:40Z</time>
      </trkpt>
      <trkpt lat="59.8662804" lon="17.6732028">
        <ele>22.2476</ele>
        <time>2013-05-24T18:40:41Z</time>
      </trkpt>
      <trkpt lat="59.8662233" lon="17.6732336">
        <ele>21.2864</ele>
        <time>2013-05-24T18:40:42Z</time>
      </trkpt>
      <trkpt lat="59.8661753" lon="17.6732721">
        <ele>19.8444</ele>
        <time>2013-05-24T18:40:43Z</time>
      </trkpt>
      <trkpt lat="59.8661306" lon="17.6733056">
        <ele>21.767</ele>
        <time>2013-05-24T18:40:44Z</time>
      </trkpt>
      <trkpt lat="59.8660809" lon="17.6733661">
        <ele>22.2476</ele>
        <time>2013-05-24T18:40:45Z</time>
      </trkpt>
      <trkpt lat="59.8660456" lon="17.673434">
        <ele>21.2864</ele>
        <time>2013-05-24T18:40:46Z</time>
      </trkpt>
      <trkpt lat="59.8660221" lon="17.6735112">
        <ele>20.325</ele>
        <time>2013-05-24T18:40:47Z</time>
      </trkpt>
      <trkpt lat="59.8660052" lon="17.6735984">
        <ele>19.8444</ele>
        <time>2013-05-24T18:40:48Z</time>
      </trkpt>
      <trkpt lat="59.8660015" lon="17.6736972">
        <ele>17.9218</ele>
        <time>2013-05-24T18:40:49Z</time>
      </trkpt>
      <trkpt lat="59.8660037" lon="17.6737919">
        <ele>15.999</ele>
        <time>2013-05-24T18:40:50Z</time>
      </trkpt>
      <trkpt lat="59.8660139" lon="17.6738897">
        <ele>14.557</ele>
        <time>2013-05-24T18:40:51Z</time>
      </trkpt>
      <trkpt lat="59.8660361" lon="17.6739813">
        <ele>13.5958</ele>
        <time>2013-05-24T18:40:52Z</time>
      </trkpt>
      <trkpt lat="59.8660653" lon="17.674071">
        <ele>13.1151</ele>
        <time>2013-05-24T18:40:53Z</time>
      </trkpt>
      <trkpt lat="59.866098" lon="17.6741623">
        <ele>12.6344</ele>
        <time>2013-05-24T18:40:54Z</time>
      </trkpt>
      <trkpt lat="59.866132" lon="17.6742571">
        <ele>12.6344</ele>
        <time>2013-05-24T18:40:55Z</time>
      </trkpt>
      <trkpt lat="59.8661669" lon="17.6743566">
        <ele>12.1538</ele>
        <time>2013-05-24T18:40:56Z</time>
      </trkpt>
      <trkpt lat="59.8662032" lon="17.6744568">
        <ele>11.6732</ele>
        <time>2013-05-24T18:40:57Z</time>
      </trkpt>
      <trkpt lat="59.8662419" lon="17.6745579">
        <ele>11.6732</ele>
        <time>2013-05-24T18:40:58Z</time>
      </trkpt>
      <trkpt lat="59.8662803" lon="17.6746611">
        <ele>11.6732</ele>
        <time>2013-05-24T18:40:59Z</time>
      </trkpt>
      <trkpt lat="59.8663164" lon="17.6747676">
        <ele>11.6732</ele>
        <time>2013-05-24T18:41:00Z</time>
      </trkpt>
      <trkpt lat="59.8663486" lon="17.6748801">
        <ele>11.6732</ele>
        <time>2013-05-24T18:41:01Z</time>
      </trkpt>
      <trkpt lat="59.8663812" lon="17.6749962">
        <ele>11.6732</ele>
        <time>2013-05-24T18:41:02Z</time>
      </trkpt>
      <trkpt lat="59.866417" lon="17.6751123">
        <ele>12.1538</ele>
        <time>2013-05-24T18:41:03Z</time>
      </trkpt>
      <trkpt lat="59.8664543" lon="17.6752291">
        <ele>12.6344</ele>
        <time>2013-05-24T18:41:04Z</time>
      </trkpt>
      <trkpt lat="59.8664888" lon="17.6753446">
        <ele>12.6344</ele>
        <time>2013-05-24T18:41:05Z</time>
      </trkpt>
      <trkpt lat="59.8665243" lon="17.6754603">
        <ele>12.1538</ele>
        <time>2013-05-24T18:41:06Z</time>
      </trkpt>
      <trkpt lat="59.8665593" lon="17.675576">
        <ele>12.1538</ele>
        <time>2013-05-24T18:41:07Z</time>
      </trkpt>
      <trkpt lat="59.8665967" lon="17.6756899">
        <ele>12.1538</ele>
        <time>2013-05-24T18:41:08Z</time>
      </trkpt>
      <trkpt lat="59.8666357" lon="17.6758038">
        <ele>12.1538</ele>
        <time>2013-05-24T18:41:09Z</time>
      </trkpt>
      <trkpt lat="59.8666736" lon="17.6759172">
        <ele>12.1538</ele>
        <time>2013-05-24T18:41:10Z</time>
      </trkpt>
      <trkpt lat="59.8667128" lon="17.6760301">
        <ele>12.1538</ele>
        <time>2013-05-24T18:41:11Z</time>
      </trkpt>
      <trkpt lat="59.8667489" lon="17.6761452">
        <ele>11.6732</ele>
        <time>2013-05-24T18:41:12Z</time>
      </trkpt>
      <trkpt lat="59.8667854" lon="17.6762618">
        <ele>12.1538</ele>
        <time>2013-05-24T18:41:13Z</time>
      </trkpt>
      <trkpt lat="59.8668238" lon="17.6763757">
        <ele>12.1538</ele>
        <time>2013-05-24T18:41:14Z</time>
      </trkpt>
      <trkpt lat="59.8668645" lon="17.676487">
        <ele>12.6344</ele>
        <time>2013-05-24T18:41:15Z</time>
      </trkpt>
      <trkpt lat="59.8669035" lon="17.6765995">
        <ele>13.1151</ele>
        <time>2013-05-24T18:41:16Z</time>
      </trkpt>
      <trkpt lat="59.8669432" lon="17.6767115">
        <ele>13.1151</ele>
        <time>2013-05-24T18:41:17Z</time>
      </trkpt>
      <trkpt lat="59.8669831" lon="17.6768222">
        <ele>13.5958</ele>
        <time>2013-05-24T18:41:18Z</time>
      </trkpt>
      <trkpt lat="59.8670222" lon="17.6769326">
        <ele>13.5958</ele>
        <time>2013-05-24T18:41:19Z</time>
      </trkpt>
      <trkpt lat="59.8670619" lon="17.6770422">
        <ele>14.0764</ele>
        <time>2013-05-24T18:41:20Z</time>
      </trkpt>
      <trkpt lat="59.8671019" lon="17.6771495">
        <ele>14.557</ele>
        <time>2013-05-24T18:41:21Z</time>
      </trkpt>
      <trkpt lat="59.8671421" lon="17.6772558">
        <ele>14.557</ele>
        <time>2013-05-24T18:41:22Z</time>
      </trkpt>
      <trkpt lat="59.8671821" lon="17.6773628">
        <ele>15.0377</ele>
        <time>2013-05-24T18:41:23Z</time>
      </trkpt>
      <trkpt lat="59.8672196" lon="17.677474">
        <ele>15.0377</ele>
        <time>2013-05-24T18:41:24Z</time>
      </trkpt>
      <trkpt lat="59.8672478" lon="17.677592">
        <ele>15.5184</ele>
        <time>2013-05-24T18:41:25Z</time>
      </trkpt>
      <trkpt lat="59.867266" lon="17.6777185">
        <ele>15.5184</ele>
        <time>2013-05-24T18:41:26Z</time>
      </trkpt>
      <trkpt lat="59.8672775" lon="17.6778479">
        <ele>16.4797</ele>
        <time>2013-05-24T18:41:27Z</time>
      </trkpt>
      <trkpt lat="59.8672848" lon="17.6779777">
        <ele>17.4412</ele>
        <time>2013-05-24T18:41:28Z</time>
      </trkpt>
      <trkpt lat="59.8672921" lon="17.6781072">
        <ele>17.9218</ele>
        <time>2013-05-24T18:41:29Z</time>
      </trkpt>
      <trkpt lat="59.8672998" lon="17.6782331">
        <ele>18.8831</ele>
        <time>2013-05-24T18:41:30Z</time>
      </trkpt>
      <trkpt lat="59.867308" lon="17.6783566">
        <ele>18.8831</ele>
        <time>2013-05-24T18:41:31Z</time>
      </trkpt>
      <trkpt lat="59.8673161" lon="17.6784746">
        <ele>18.8831</ele>
        <time>2013-05-24T18:41:32Z</time>
      </trkpt>
      <trkpt lat="59.867326" lon="17.6785879">
        <ele>18.8831</ele>
        <time>2013-05-24T18:41:33Z</time>
      </trkpt>
      <trkpt lat="59.8673353" lon="17.6786985">
        <ele>18.8831</ele>
        <time>2013-05-24T18:41:34Z</time>
      </trkpt>
      <trkpt lat="59.8673468" lon="17.6788048">
        <ele>19.3638</ele>
        <time>2013-05-24T18:41:35Z</time>
      </trkpt>
      <trkpt lat="59.8673581" lon="17.6789073">
        <ele>19.3638</ele>
        <time>2013-05-24T18:41:36Z</time>
      </trkpt>
      <trkpt lat="59.8673686" lon="17.6790055">
        <ele>19.3638</ele>
        <time>2013-05-24T18:41:37Z</time>
      </trkpt>
      <trkpt lat="59.8673846" lon="17.6790895">
        <ele>19.3638</ele>
        <time>2013-05-24T18:41:38Z</time>
      </trkpt>
      <trkpt lat="59.867408" lon="17.6791646">
        <ele>18.8831</ele>
        <time>2013-05-24T18:41:39Z</time>
      </trkpt>
      <trkpt lat="59.8674432" lon="17.6792232">
        <ele>18.8831</ele>
        <time>2013-05-24T18:41:40Z</time>
      </trkpt>
      <trkpt lat="59.8674851" lon="17.6792618">
        <ele>18.4023</ele>
        <time>2013-05-24T18:41:41Z</time>
      </trkpt>
      <trkpt lat="59.8675288" lon="17.6792911">
        <ele>18.4023</ele>
        <time>2013-05-24T18:41:42Z</time>
      </trkpt>
      <trkpt lat="59.8675713" lon="17.6793334">
        <ele>17.9218</ele>
        <time>2013-05-24T18:41:43Z</time>
      </trkpt>
      <trkpt lat="59.8675992" lon="17.6794027">
        <ele>17.4412</ele>
        <time>2013-05-24T18:41:44Z</time>
      </trkpt>
      <trkpt lat="59.8676098" lon="17.6794941">
        <ele>17.4412</ele>
        <time>2013-05-24T18:41:45Z</time>
      </trkpt>
      <trkpt lat="59.8676132" lon="17.6795916">
        <ele>17.4412</ele>
        <time>2013-05-24T18:41:46Z</time>
      </trkpt>
      <trkpt lat="59.8676194" lon="17.6796924">
        <ele>17.4412</ele>
        <time>2013-05-24T18:41:47Z</time>
      </trkpt>
      <trkpt lat="59.8676281" lon="17.6797934">
        <ele>17.4412</ele>
        <time>2013-05-24T18:41:48Z</time>
      </trkpt>
      <trkpt lat="59.8676371" lon="17.6798924">
        <ele>17.4412</ele>
        <time>2013-05-24T18:41:49Z</time>
      </trkpt>
      <trkpt lat="59.8676463" lon="17.6799857">
        <ele>17.4412</ele>
        <time>2013-05-24T18:41:50Z</time>
      </trkpt>
      <trkpt lat="59.8676577" lon="17.6800731">
        <ele>17.4412</ele>
        <time>2013-05-24T18:41:51Z</time>
      </trkpt>
      <trkpt lat="59.8676658" lon="17.6801596">
        <ele>17.4412</ele>
        <time>2013-05-24T18:41:52Z</time>
      </trkpt>
      <trkpt lat="59.8676603" lon="17.680244">
        <ele>17.4412</ele>
        <time>2013-05-24T18:41:53Z</time>
      </trkpt>
      <trkpt lat="59.8676331" lon="17.6803069">
        <ele>16.9604</ele>
        <time>2013-05-24T18:41:54Z</time>
      </trkpt>
      <trkpt lat="59.8675863" lon="17.68034">
        <ele>15.999</ele>
        <time>2013-05-24T18:41:55Z</time>
      </trkpt>
      <trkpt lat="59.8675318" lon="17.6803564">
        <ele>15.5184</ele>
        <time>2013-05-24T18:41:56Z</time>
      </trkpt>
      <trkpt lat="59.8674696" lon="17.6803676">
        <ele>14.557</ele>
        <time>2013-05-24T18:41:57Z</time>
      </trkpt>
      <trkpt lat="59.8674065" lon="17.6803859">
        <ele>14.0764</ele>
        <time>2013-05-24T18:41:58Z</time>
      </trkpt>
      <trkpt lat="59.8673434" lon="17.680407">
        <ele>13.5958</ele>
        <time>2013-05-24T18:41:59Z</time>
      </trkpt>
      <trkpt lat="59.8672794" lon="17.6804277">
        <ele>13.5958</ele>
        <time>2013-05-24T18:42:00Z</time>
      </trkpt>
      <trkpt lat="59.8672153" lon="17.6804544">
        <ele>13.5958</ele>
        <time>2013-05-24T18:42:01Z</time>
      </trkpt>
      <trkpt lat="59.867149" lon="17.6804792">
        <ele>13.5958</ele>
        <time>2013-05-24T18:42:02Z</time>
      </trkpt>
      <trkpt lat="59.867079" lon="17.6804989">
        <ele>13.1151</ele>
        <time>2013-05-24T18:42:03Z</time>
      </trkpt>
      <trkpt lat="59.8670081" lon="17.6805208">
        <ele>13.1151</ele>
        <time>2013-05-24T18:42:04Z</time>
      </trkpt>
      <trkpt lat="59.8669377" lon="17.6805501">
        <ele>13.1151</ele>
        <time>2013-05-24T18:42:05Z</time>
      </trkpt>
      <trkpt lat="59.8668671" lon="17.6805835">
        <ele>13.1151</ele>
        <time>2013-05-24T18:42:06Z</time>
      </trkpt>
      <trkpt lat="59.8667966" lon="17.680616">
        <ele>13.1151</ele>
        <time>2013-05-24T18:42:07Z</time>
      </trkpt>
      <trkpt lat="59.8667248" lon="17.6806477">
        <ele>13.5958</ele>
        <time>2013-05-24T18:42:08Z</time>
      </trkpt>
      <trkpt lat="59.8666551" lon="17.6806782">
        <ele>13.5958</ele>
        <time>2013-05-24T18:42:09Z</time>
      </trkpt>
      <trkpt lat="59.8665843" lon="17.6807109">
        <ele>13.5958</ele>
        <time>2013-05-24T18:42:10Z</time>
      </trkpt>
      <trkpt lat="59.8665109" lon="17.6807462">
        <ele>14.0764</ele>
        <time>2013-05-24T18:42:11Z</time>
      </trkpt>
      <trkpt lat="59.866437" lon="17.6807823">
        <ele>14.0764</ele>
        <time>2013-05-24T18:42:12Z</time>
      </trkpt>
      <trkpt lat="59.866362" lon="17.6808214">
        <ele>13.5958</ele>
        <time>2013-05-24T18:42:13Z</time>
      </trkpt>
      <trkpt lat="59.8662876" lon="17.6808606">
        <ele>14.0764</ele>
        <time>2013-05-24T18:42:14Z</time>
      </trkpt>
      <trkpt lat="59.8662129" lon="17.6808999">
        <ele>14.0764</ele>
        <time>2013-05-24T18:42:15Z</time>
      </trkpt>
      <trkpt lat="59.8661415" lon="17.6809395">
        <ele>14.0764</ele>
        <time>2013-05-24T18:42:16Z</time>
      </trkpt>
      <trkpt lat="59.866071" lon="17.6809828">
        <ele>14.0764</ele>
        <time>2013-05-24T18:42:17Z</time>
      </trkpt>
      <trkpt lat="59.8660012" lon="17.6810237">
        <ele>14.0764</ele>
        <time>2013-05-24T18:42:18Z</time>
      </trkpt>
      <trkpt lat="59.8659354" lon="17.6810607">
        <ele>14.0764</ele>
        <time>2013-05-24T18:42:19Z</time>
      </trkpt>
      <trkpt lat="59.8658747" lon="17.6810948">
        <ele>14.0764</ele>
        <time>2013-05-24T18:42:20Z</time>
      </trkpt>
      <trkpt lat="59.8658213" lon="17.6811246">
        <ele>14.0764</ele>
        <time>2013-05-24T18:42:21Z</time>
      </trkpt>
      <trkpt lat="59.8657797" lon="17.6811541">
        <ele>14.0764</ele>
        <time>2013-05-24T18:42:22Z</time>
      </trkpt>
      <trkpt lat="59.8657504" lon="17.6811813">
        <ele>13.5958</ele>
        <time>2013-05-24T18:42:23Z</time>
      </trkpt>
      <trkpt lat="59.8657302" lon="17.6812055">
        <ele>13.5958</ele>
        <time>2013-05-24T18:42:24Z</time>
      </trkpt>
      <trkpt lat="59.8657153" lon="17.6812213">
        <ele>13.1151</ele>
        <time>2013-05-24T18:42:25Z</time>
      </trkpt>
      <trkpt lat="59.8657065" lon="17.6812296">
        <ele>13.5958</ele>
        <time>2013-05-24T18:42:26Z</time>
      </trkpt>
      <trkpt lat="59.865701" lon="17.6812368">
        <ele>13.5958</ele>
        <time>2013-05-24T18:42:27Z</time>
      </trkpt>
      <trkpt lat="59.8656995" lon="17.6812408">
        <ele>14.0764</ele>
        <time>2013-05-24T18:42:28Z</time>
      </trkpt>
      <trkpt lat="59.8657013" lon="17.6812422">
        <ele>14.0764</ele>
        <time>2013-05-24T18:42:29Z</time>
      </trkpt>
      <trkpt lat="59.865666" lon="17.6812841">
        <ele>14.557</ele>
        <time>2013-05-24T18:42:33Z</time>
      </trkpt>
      <trkpt lat="59.8656379" lon="17.6812947">
        <ele>15.0377</ele>
        <time>2013-05-24T18:42:34Z</time>
      </trkpt>
      <trkpt lat="59.8656007" lon="17.6812995">
        <ele>14.557</ele>
        <time>2013-05-24T18:42:35Z</time>
      </trkpt>
      <trkpt lat="59.8655577" lon="17.6812947">
        <ele>14.557</ele>
        <time>2013-05-24T18:42:36Z</time>
      </trkpt>
      <trkpt lat="59.8655108" lon="17.6812885">
        <ele>15.0377</ele>
        <time>2013-05-24T18:42:37Z</time>
      </trkpt>
      <trkpt lat="59.8654552" lon="17.6812945">
        <ele>15.0377</ele>
        <time>2013-05-24T18:42:38Z</time>
      </trkpt>
      <trkpt lat="59.8653955" lon="17.6813019">
        <ele>15.0377</ele>
        <time>2013-05-24T18:42:39Z</time>
      </trkpt>
      <trkpt lat="59.8653364" lon="17.6812995">
        <ele>15.0377</ele>
        <time>2013-05-24T18:42:40Z</time>
      </trkpt>
      <trkpt lat="59.8652775" lon="17.6812793">
        <ele>15.0377</ele>
        <time>2013-05-24T18:42:41Z</time>
      </trkpt>
      <trkpt lat="59.8652145" lon="17.6812547">
        <ele>15.0377</ele>
        <time>2013-05-24T18:42:42Z</time>
      </trkpt>
      <trkpt lat="59.865149" lon="17.6812419">
        <ele>15.0377</ele>
        <time>2013-05-24T18:42:43Z</time>
      </trkpt>
      <trkpt lat="59.8650806" lon="17.6812503">
        <ele>15.0377</ele>
        <time>2013-05-24T18:42:44Z</time>
      </trkpt>
      <trkpt lat="59.8650127" lon="17.6812873">
        <ele>15.0377</ele>
        <time>2013-05-24T18:42:45Z</time>
      </trkpt>
      <trkpt lat="59.8649489" lon="17.6813579">
        <ele>15.0377</ele>
        <time>2013-05-24T18:42:46Z</time>
      </trkpt>
      <trkpt lat="59.8648937" lon="17.6814563">
        <ele>15.0377</ele>
        <time>2013-05-24T18:42:47Z</time>
      </trkpt>
      <trkpt lat="59.8648412" lon="17.6815583">
        <ele>15.0377</ele>
        <time>2013-05-24T18:42:48Z</time>
      </trkpt>
      <trkpt lat="59.8647838" lon="17.6816526">
        <ele>15.0377</ele>
        <time>2013-05-24T18:42:49Z</time>
      </trkpt>
      <trkpt lat="59.8647228" lon="17.6817375">
        <ele>15.0377</ele>
        <time>2013-05-24T18:42:50Z</time>
      </trkpt>
      <trkpt lat="59.8646554" lon="17.6818077">
        <ele>15.0377</ele>
        <time>2013-05-24T18:42:51Z</time>
      </trkpt>
      <trkpt lat="59.8645849" lon="17.6818669">
        <ele>14.557</ele>
        <time>2013-05-24T18:42:52Z</time>
      </trkpt>
      <trkpt lat="59.8645111" lon="17.6819199">
        <ele>14.557</ele>
        <time>2013-05-24T18:42:53Z</time>
      </trkpt>
      <trkpt lat="59.8644367" lon="17.6819773">
        <ele>14.557</ele>
        <time>2013-05-24T18:42:54Z</time>
      </trkpt>
      <trkpt lat="59.8643638" lon="17.6820319">
        <ele>14.557</ele>
        <time>2013-05-24T18:42:55Z</time>
      </trkpt>
      <trkpt lat="59.8642911" lon="17.6820841">
        <ele>14.557</ele>
        <time>2013-05-24T18:42:56Z</time>
      </trkpt>
      <trkpt lat="59.8642176" lon="17.6821353">
        <ele>14.557</ele>
        <time>2013-05-24T18:42:57Z</time>
      </trkpt>
      <trkpt lat="59.8641461" lon="17.6821856">
        <ele>15.0377</ele>
        <time>2013-05-24T18:42:58Z</time>
      </trkpt>
      <trkpt lat="59.8640737" lon="17.6822395">
        <ele>15.0377</ele>
        <time>2013-05-24T18:42:59Z</time>
      </trkpt>
      <trkpt lat="59.8640004" lon="17.6822955">
        <ele>15.0377</ele>
        <time>2013-05-24T18:43:00Z</time>
      </trkpt>
      <trkpt lat="59.8639285" lon="17.6823508">
        <ele>15.0377</ele>
        <time>2013-05-24T18:43:01Z</time>
      </trkpt>
      <trkpt lat="59.8638543" lon="17.6824093">
        <ele>15.0377</ele>
        <time>2013-05-24T18:43:02Z</time>
      </trkpt>
      <trkpt lat="59.8637762" lon="17.6824707">
        <ele>15.0377</ele>
        <time>2013-05-24T18:43:03Z</time>
      </trkpt>
      <trkpt lat="59.8637028" lon="17.6825286">
        <ele>15.0377</ele>
        <time>2013-05-24T18:43:04Z</time>
      </trkpt>
      <trkpt lat="59.8636284" lon="17.6825923">
        <ele>14.557</ele>
        <time>2013-05-24T18:43:05Z</time>
      </trkpt>
      <trkpt lat="59.8635582" lon="17.6826432">
        <ele>15.0377</ele>
        <time>2013-05-24T18:43:06Z</time>
      </trkpt>
      <trkpt lat="59.8634815" lon="17.682694">
        <ele>15.0377</ele>
        <time>2013-05-24T18:43:07Z</time>
      </trkpt>
      <trkpt lat="59.8634057" lon="17.6827379">
        <ele>14.557</ele>
        <time>2013-05-24T18:43:08Z</time>
      </trkpt>
      <trkpt lat="59.8633344" lon="17.6827813">
        <ele>14.557</ele>
        <time>2013-05-24T18:43:09Z</time>
      </trkpt>
      <trkpt lat="59.8632606" lon="17.6828336">
        <ele>14.0764</ele>
        <time>2013-05-24T18:43:10Z</time>
      </trkpt>
      <trkpt lat="59.8631874" lon="17.682885">
        <ele>13.5958</ele>
        <time>2013-05-24T18:43:11Z</time>
      </trkpt>
      <trkpt lat="59.8631137" lon="17.6829371">
        <ele>13.5958</ele>
        <time>2013-05-24T18:43:12Z</time>
      </trkpt>
      <trkpt lat="59.8630412" lon="17.6829902">
        <ele>13.5958</ele>
        <time>2013-05-24T18:43:13Z</time>
      </trkpt>
      <trkpt lat="59.862969" lon="17.683043">
        <ele>13.5958</ele>
        <time>2013-05-24T18:43:14Z</time>
      </trkpt>
      <trkpt lat="59.8628956" lon="17.6830953">
        <ele>13.5958</ele>
        <time>2013-05-24T18:43:15Z</time>
      </trkpt>
      <trkpt lat="59.8628226" lon="17.683145">
        <ele>13.5958</ele>
        <time>2013-05-24T18:43:16Z</time>
      </trkpt>
      <trkpt lat="59.8627521" lon="17.6831939">
        <ele>13.5958</ele>
        <time>2013-05-24T18:43:17Z</time>
      </trkpt>
      <trkpt lat="59.8626821" lon="17.6832419">
        <ele>14.0764</ele>
        <time>2013-05-24T18:43:18Z</time>
      </trkpt>
      <trkpt lat="59.8626128" lon="17.6832849">
        <ele>14.0764</ele>
        <time>2013-05-24T18:43:19Z</time>
      </trkpt>
      <trkpt lat="59.8625408" lon="17.6833327">
        <ele>14.0764</ele>
        <time>2013-05-24T18:43:20Z</time>
      </trkpt>
      <trkpt lat="59.8624736" lon="17.6833792">
        <ele>14.557</ele>
        <time>2013-05-24T18:43:21Z</time>
      </trkpt>
      <trkpt lat="59.862407" lon="17.6834244">
        <ele>15.0377</ele>
        <time>2013-05-24T18:43:22Z</time>
      </trkpt>
      <trkpt lat="59.8623329" lon="17.6834781">
        <ele>15.0377</ele>
        <time>2013-05-24T18:43:23Z</time>
      </trkpt>
      <trkpt lat="59.8622615" lon="17.6835294">
        <ele>15.0377</ele>
        <time>2013-05-24T18:43:24Z</time>
      </trkpt>
      <trkpt lat="59.862185" lon="17.6835872">
        <ele>15.0377</ele>
        <time>2013-05-24T18:43:25Z</time>
      </trkpt>
      <trkpt lat="59.8621112" lon="17.6836414">
        <ele>15.0377</ele>
        <time>2013-05-24T18:43:26Z</time>
      </trkpt>
      <trkpt lat="59.8620408" lon="17.6836919">
        <ele>15.5184</ele>
        <time>2013-05-24T18:43:27Z</time>
      </trkpt>
      <trkpt lat="59.8619708" lon="17.6837419">
        <ele>15.5184</ele>
        <time>2013-05-24T18:43:28Z</time>
      </trkpt>
      <trkpt lat="59.8619" lon="17.6837931">
        <ele>15.5184</ele>
        <time>2013-05-24T18:43:29Z</time>
      </trkpt>
      <trkpt lat="59.8618275" lon="17.6838514">
        <ele>15.5184</ele>
        <time>2013-05-24T18:43:30Z</time>
      </trkpt>
      <trkpt lat="59.8617555" lon="17.6839142">
        <ele>15.5184</ele>
        <time>2013-05-24T18:43:31Z</time>
      </trkpt>
      <trkpt lat="59.8616869" lon="17.6839714">
        <ele>15.5184</ele>
        <time>2013-05-24T18:43:32Z</time>
      </trkpt>
      <trkpt lat="59.8616176" lon="17.6840253">
        <ele>15.5184</ele>
        <time>2013-05-24T18:43:33Z</time>
      </trkpt>
      <trkpt lat="59.8615534" lon="17.6840718">
        <ele>15.999</ele>
        <time>2013-05-24T18:43:34Z</time>
      </trkpt>
      <trkpt lat="59.8614851" lon="17.6841234">
        <ele>15.999</ele>
        <time>2013-05-24T18:43:35Z</time>
      </trkpt>
      <trkpt lat="59.8614186" lon="17.6841719">
        <ele>15.999</ele>
        <time>2013-05-24T18:43:36Z</time>
      </trkpt>
      <trkpt lat="59.8613526" lon="17.6842218">
        <ele>15.999</ele>
        <time>2013-05-24T18:43:37Z</time>
      </trkpt>
      <trkpt lat="59.861284" lon="17.6842747">
        <ele>15.999</ele>
        <time>2013-05-24T18:43:38Z</time>
      </trkpt>
      <trkpt lat="59.8612136" lon="17.684329">
        <ele>16.4797</ele>
        <time>2013-05-24T18:43:39Z</time>
      </trkpt>
      <trkpt lat="59.8611472" lon="17.6843829">
        <ele>16.4797</ele>
        <time>2013-05-24T18:43:40Z</time>
      </trkpt>
      <trkpt lat="59.861081" lon="17.6844385">
        <ele>16.4797</ele>
        <time>2013-05-24T18:43:41Z</time>
      </trkpt>
      <trkpt lat="59.8610095" lon="17.6845048">
        <ele>16.4797</ele>
        <time>2013-05-24T18:43:42Z</time>
      </trkpt>
      <trkpt lat="59.8609433" lon="17.6845691">
        <ele>15.999</ele>
        <time>2013-05-24T18:43:43Z</time>
      </trkpt>
      <trkpt lat="59.8608754" lon="17.6846391">
        <ele>15.999</ele>
        <time>2013-05-24T18:43:44Z</time>
      </trkpt>
      <trkpt lat="59.8608053" lon="17.6847101">
        <ele>15.999</ele>
        <time>2013-05-24T18:43:45Z</time>
      </trkpt>
      <trkpt lat="59.86074" lon="17.6847733">
        <ele>15.999</ele>
        <time>2013-05-24T18:43:46Z</time>
      </trkpt>
      <trkpt lat="59.860675" lon="17.6848385">
        <ele>15.999</ele>
        <time>2013-05-24T18:43:47Z</time>
      </trkpt>
      <trkpt lat="59.860611" lon="17.6849071">
        <ele>15.999</ele>
        <time>2013-05-24T18:43:48Z</time>
      </trkpt>
      <trkpt lat="59.8605463" lon="17.6849809">
        <ele>15.999</ele>
        <time>2013-05-24T18:43:49Z</time>
      </trkpt>
      <trkpt lat="59.8604834" lon="17.6850537">
        <ele>15.999</ele>
        <time>2013-05-24T18:43:50Z</time>
      </trkpt>
      <trkpt lat="59.8604217" lon="17.6851254">
        <ele>15.999</ele>
        <time>2013-05-24T18:43:51Z</time>
      </trkpt>
      <trkpt lat="59.8603572" lon="17.6851996">
        <ele>15.999</ele>
        <time>2013-05-24T18:43:52Z</time>
      </trkpt>
      <trkpt lat="59.8602946" lon="17.6852693">
        <ele>15.5184</ele>
        <time>2013-05-24T18:43:53Z</time>
      </trkpt>
      <trkpt lat="59.8602313" lon="17.6853419">
        <ele>15.5184</ele>
        <time>2013-05-24T18:43:54Z</time>
      </trkpt>
      <trkpt lat="59.860176" lon="17.6854042">
        <ele>15.5184</ele>
        <time>2013-05-24T18:43:55Z</time>
      </trkpt>
      <trkpt lat="59.8601121" lon="17.6854834">
        <ele>15.0377</ele>
        <time>2013-05-24T18:43:56Z</time>
      </trkpt>
      <trkpt lat="59.8600498" lon="17.6855616">
        <ele>15.0377</ele>
        <time>2013-05-24T18:43:57Z</time>
      </trkpt>
      <trkpt lat="59.859987" lon="17.6856394">
        <ele>15.0377</ele>
        <time>2013-05-24T18:43:58Z</time>
      </trkpt>
      <trkpt lat="59.8599231" lon="17.6857178">
        <ele>14.557</ele>
        <time>2013-05-24T18:43:59Z</time>
      </trkpt>
      <trkpt lat="59.8598651" lon="17.6857885">
        <ele>14.0764</ele>
        <time>2013-05-24T18:44:00Z</time>
      </trkpt>
      <trkpt lat="59.8598073" lon="17.6858599">
        <ele>14.0764</ele>
        <time>2013-05-24T18:44:01Z</time>
      </trkpt>
      <trkpt lat="59.8597563" lon="17.6859317">
        <ele>13.5958</ele>
        <time>2013-05-24T18:44:02Z</time>
      </trkpt>
      <trkpt lat="59.8597083" lon="17.6859999">
        <ele>13.5958</ele>
        <time>2013-05-24T18:44:03Z</time>
      </trkpt>
      <trkpt lat="59.8596638" lon="17.6860612">
        <ele>13.5958</ele>
        <time>2013-05-24T18:44:04Z</time>
      </trkpt>
      <trkpt lat="59.8596123" lon="17.6861396">
        <ele>13.5958</ele>
        <time>2013-05-24T18:44:05Z</time>
      </trkpt>
      <trkpt lat="59.8595772" lon="17.6862218">
        <ele>13.1151</ele>
        <time>2013-05-24T18:44:06Z</time>
      </trkpt>
      <trkpt lat="59.85956" lon="17.686308">
        <ele>13.5958</ele>
        <time>2013-05-24T18:44:07Z</time>
      </trkpt>
      <trkpt lat="59.8595498" lon="17.6863758">
        <ele>14.0764</ele>
        <time>2013-05-24T18:44:08Z</time>
      </trkpt>
      <trkpt lat="59.8595351" lon="17.6864178">
        <ele>14.0764</ele>
        <time>2013-05-24T18:44:09Z</time>
      </trkpt>
      <trkpt lat="59.8595198" lon="17.686439">
        <ele>14.0764</ele>
        <time>2013-05-24T18:44:10Z</time>
      </trkpt>
      <trkpt lat="59.8595071" lon="17.686452">
        <ele>14.0764</ele>
        <time>2013-05-24T18:44:11Z</time>
      </trkpt>
      <trkpt lat="59.8594993" lon="17.6864696">
        <ele>14.0764</ele>
        <time>2013-05-24T18:44:12Z</time>
      </trkpt>
      <trkpt lat="59.8594954" lon="17.6864858">
        <ele>14.0764</ele>
        <time>2013-05-24T18:44:13Z</time>
      </trkpt>
      <trkpt lat="59.859495" lon="17.6864918">
        <ele>14.0764</ele>
        <time>2013-05-24T18:44:14Z</time>
      </trkpt>
      <trkpt lat="59.8594955" lon="17.6864945">
        <ele>14.557</ele>
        <time>2013-05-24T18:44:15Z</time>
      </trkpt>
      <trkpt lat="59.8594752" lon="17.6865634">
        <ele>15.0377</ele>
        <time>2013-05-24T18:44:37Z</time>
      </trkpt>
      <trkpt lat="59.859455" lon="17.6866044">
        <ele>14.557</ele>
        <time>2013-05-24T18:44:38Z</time>
      </trkpt>
      <trkpt lat="59.8594332" lon="17.6866629">
        <ele>15.0377</ele>
        <time>2013-05-24T18:44:39Z</time>
      </trkpt>
      <trkpt lat="59.8594178" lon="17.6867447">
        <ele>15.0377</ele>
        <time>2013-05-24T18:44:40Z</time>
      </trkpt>
      <trkpt lat="59.8593975" lon="17.6868339">
        <ele>15.0377</ele>
        <time>2013-05-24T18:44:41Z</time>
      </trkpt>
      <trkpt lat="59.8593624" lon="17.6869115">
        <ele>15.0377</ele>
        <time>2013-05-24T18:44:42Z</time>
      </trkpt>
      <trkpt lat="59.8593132" lon="17.6869829">
        <ele>15.0377</ele>
        <time>2013-05-24T18:44:43Z</time>
      </trkpt>
      <trkpt lat="59.8592596" lon="17.6870558">
        <ele>15.0377</ele>
        <time>2013-05-24T18:44:44Z</time>
      </trkpt>
      <trkpt lat="59.8592044" lon="17.6871342">
        <ele>15.5184</ele>
        <time>2013-05-24T18:44:45Z</time>
      </trkpt>
      <trkpt lat="59.8591459" lon="17.6872193">
        <ele>15.999</ele>
        <time>2013-05-24T18:44:46Z</time>
      </trkpt>
      <trkpt lat="59.859082" lon="17.6873071">
        <ele>15.5184</ele>
        <time>2013-05-24T18:44:47Z</time>
      </trkpt>
      <trkpt lat="59.8590137" lon="17.6873988">
        <ele>15.0377</ele>
        <time>2013-05-24T18:44:48Z</time>
      </trkpt>
      <trkpt lat="59.8589427" lon="17.6874917">
        <ele>14.557</ele>
        <time>2013-05-24T18:44:49Z</time>
      </trkpt>
      <trkpt lat="59.8588702" lon="17.6875827">
        <ele>14.557</ele>
        <time>2013-05-24T18:44:50Z</time>
      </trkpt>
      <trkpt lat="59.8587956" lon="17.6876731">
        <ele>14.0764</ele>
        <time>2013-05-24T18:44:51Z</time>
      </trkpt>
      <trkpt lat="59.8587188" lon="17.6877718">
        <ele>13.5958</ele>
        <time>2013-05-24T18:44:52Z</time>
      </trkpt>
      <trkpt lat="59.858646" lon="17.6878688">
        <ele>13.5958</ele>
        <time>2013-05-24T18:44:53Z</time>
      </trkpt>
      <trkpt lat="59.8585765" lon="17.6879711">
        <ele>13.5958</ele>
        <time>2013-05-24T18:44:54Z</time>
      </trkpt>
      <trkpt lat="59.8585089" lon="17.6880702">
        <ele>13.1151</ele>
        <time>2013-05-24T18:44:55Z</time>
      </trkpt>
      <trkpt lat="59.8584471" lon="17.6881652">
        <ele>12.6344</ele>
        <time>2013-05-24T18:44:56Z</time>
      </trkpt>
      <trkpt lat="59.8583894" lon="17.6882454">
        <ele>12.1538</ele>
        <time>2013-05-24T18:44:57Z</time>
      </trkpt>
      <trkpt lat="59.8583334" lon="17.6882935">
        <ele>12.1538</ele>
        <time>2013-05-24T18:44:58Z</time>
      </trkpt>
      <trkpt lat="59.858276" lon="17.6883035">
        <ele>11.6732</ele>
        <time>2013-05-24T18:44:59Z</time>
      </trkpt>
      <trkpt lat="59.8582185" lon="17.6883013">
        <ele>11.6732</ele>
        <time>2013-05-24T18:45:00Z</time>
      </trkpt>
      <trkpt lat="59.8581615" lon="17.6883249">
        <ele>11.6732</ele>
        <time>2013-05-24T18:45:01Z</time>
      </trkpt>
      <trkpt lat="59.8581077" lon="17.6883847">
        <ele>11.6732</ele>
        <time>2013-05-24T18:45:02Z</time>
      </trkpt>
      <trkpt lat="59.8580609" lon="17.6884789">
        <ele>11.6732</ele>
        <time>2013-05-24T18:45:03Z</time>
      </trkpt>
      <trkpt lat="59.858014" lon="17.688581">
        <ele>11.6732</ele>
        <time>2013-05-24T18:45:04Z</time>
      </trkpt>
      <trkpt lat="59.8579619" lon="17.6886806">
        <ele>12.1538</ele>
        <time>2013-05-24T18:45:05Z</time>
      </trkpt>
      <trkpt lat="59.8579041" lon="17.6887722">
        <ele>12.1538</ele>
        <time>2013-05-24T18:45:06Z</time>
      </trkpt>
      <trkpt lat="59.857845" lon="17.6888546">
        <ele>12.6344</ele>
        <time>2013-05-24T18:45:07Z</time>
      </trkpt>
      <trkpt lat="59.8577829" lon="17.6889307">
        <ele>12.6344</ele>
        <time>2013-05-24T18:45:08Z</time>
      </trkpt>
      <trkpt lat="59.8577179" lon="17.6890084">
        <ele>13.1151</ele>
        <time>2013-05-24T18:45:09Z</time>
      </trkpt>
      <trkpt lat="59.8576514" lon="17.6890861">
        <ele>13.1151</ele>
        <time>2013-05-24T18:45:10Z</time>
      </trkpt>
      <trkpt lat="59.8575854" lon="17.6891664">
        <ele>13.5958</ele>
        <time>2013-05-24T18:45:11Z</time>
      </trkpt>
      <trkpt lat="59.8575183" lon="17.6892468">
        <ele>14.0764</ele>
        <time>2013-05-24T18:45:12Z</time>
      </trkpt>
      <trkpt lat="59.8574504" lon="17.6893245">
        <ele>14.0764</ele>
        <time>2013-05-24T18:45:13Z</time>
      </trkpt>
      <trkpt lat="59.8573818" lon="17.6894011">
        <ele>14.0764</ele>
        <time>2013-05-24T18:45:14Z</time>
      </trkpt>
      <trkpt lat="59.8573136" lon="17.6894803">
        <ele>14.557</ele>
        <time>2013-05-24T18:45:15Z</time>
      </trkpt>
      <trkpt lat="59.8572447" lon="17.6895627">
        <ele>14.557</ele>
        <time>2013-05-24T18:45:16Z</time>
      </trkpt>
      <trkpt lat="59.8571724" lon="17.6896397">
        <ele>14.557</ele>
        <time>2013-05-24T18:45:17Z</time>
      </trkpt>
      <trkpt lat="59.8570984" lon="17.689716">
        <ele>14.557</ele>
        <time>2013-05-24T18:45:18Z</time>
      </trkpt>
      <trkpt lat="59.8570243" lon="17.6897958">
        <ele>14.557</ele>
        <time>2013-05-24T18:45:19Z</time>
      </trkpt>
      <trkpt lat="59.8569489" lon="17.6898759">
        <ele>14.557</ele>
        <time>2013-05-24T18:45:20Z</time>
      </trkpt>
      <trkpt lat="59.8568747" lon="17.6899574">
        <ele>14.557</ele>
        <time>2013-05-24T18:45:21Z</time>
      </trkpt>
      <trkpt lat="59.8568023" lon="17.6900401">
        <ele>14.557</ele>
        <time>2013-05-24T18:45:22Z</time>
      </trkpt>
      <trkpt lat="59.8567318" lon="17.6901205">
        <ele>14.557</ele>
        <time>2013-05-24T18:45:23Z</time>
      </trkpt>
      <trkpt lat="59.856663" lon="17.6902014">
        <ele>14.557</ele>
        <time>2013-05-24T18:45:24Z</time>
      </trkpt>
      <trkpt lat="59.8565909" lon="17.6902953">
        <ele>14.557</ele>
        <time>2013-05-24T18:45:25Z</time>
      </trkpt>
      <trkpt lat="59.8565206" lon="17.6903831">
        <ele>14.0764</ele>
        <time>2013-05-24T18:45:26Z</time>
      </trkpt>
      <trkpt lat="59.856448" lon="17.6904581">
        <ele>14.0764</ele>
        <time>2013-05-24T18:45:27Z</time>
      </trkpt>
      <trkpt lat="59.8563742" lon="17.6905386">
        <ele>14.557</ele>
        <time>2013-05-24T18:45:28Z</time>
      </trkpt>
      <trkpt lat="59.8563023" lon="17.6906107">
        <ele>14.557</ele>
        <time>2013-05-24T18:45:29Z</time>
      </trkpt>
      <trkpt lat="59.8562319" lon="17.6906772">
        <ele>14.557</ele>
        <time>2013-05-24T18:45:30Z</time>
      </trkpt>
      <trkpt lat="59.85618" lon="17.6907057">
        <ele>14.557</ele>
        <time>2013-05-24T18:45:31Z</time>
      </trkpt>
      <trkpt lat="59.8561181" lon="17.6907334">
        <ele>15.0377</ele>
        <time>2013-05-24T18:45:32Z</time>
      </trkpt>
      <trkpt lat="59.8560531" lon="17.6907435">
        <ele>15.0377</ele>
        <time>2013-05-24T18:45:33Z</time>
      </trkpt>
      <trkpt lat="59.8559817" lon="17.6907422">
        <ele>15.0377</ele>
        <time>2013-05-24T18:45:34Z</time>
      </trkpt>
      <trkpt lat="59.8559134" lon="17.6907307">
        <ele>15.0377</ele>
        <time>2013-05-24T18:45:35Z</time>
      </trkpt>
      <trkpt lat="59.8558523" lon="17.690735">
        <ele>14.557</ele>
        <time>2013-05-24T18:45:36Z</time>
      </trkpt>
      <trkpt lat="59.8558064" lon="17.6908018">
        <ele>15.0377</ele>
        <time>2013-05-24T18:45:37Z</time>
      </trkpt>
      <trkpt lat="59.8557802" lon="17.6909183">
        <ele>14.557</ele>
        <time>2013-05-24T18:45:38Z</time>
      </trkpt>
      <trkpt lat="59.855789" lon="17.6910652">
        <ele>14.0764</ele>
        <time>2013-05-24T18:45:39Z</time>
      </trkpt>
      <trkpt lat="59.8558331" lon="17.6911574">
        <ele>14.0764</ele>
        <time>2013-05-24T18:45:40Z</time>
      </trkpt>
      <trkpt lat="59.8558699" lon="17.6912926">
        <ele>14.0764</ele>
        <time>2013-05-24T18:45:41Z</time>
      </trkpt>
      <trkpt lat="59.8559087" lon="17.6914172">
        <ele>13.5958</ele>
        <time>2013-05-24T18:45:42Z</time>
      </trkpt>
      <trkpt lat="59.8559366" lon="17.6915513">
        <ele>13.5958</ele>
        <time>2013-05-24T18:45:43Z</time>
      </trkpt>
      <trkpt lat="59.8559667" lon="17.6916751">
        <ele>13.1151</ele>
        <time>2013-05-24T18:45:44Z</time>
      </trkpt>
      <trkpt lat="59.8560025" lon="17.6917994">
        <ele>13.1151</ele>
        <time>2013-05-24T18:45:45Z</time>
      </trkpt>
      <trkpt lat="59.8560362" lon="17.6919278">
        <ele>13.1151</ele>
        <time>2013-05-24T18:45:46Z</time>
      </trkpt>
      <trkpt lat="59.8560662" lon="17.6920624">
        <ele>12.6344</ele>
        <time>2013-05-24T18:45:47Z</time>
      </trkpt>
      <trkpt lat="59.8560939" lon="17.6922003">
        <ele>12.6344</ele>
        <time>2013-05-24T18:45:48Z</time>
      </trkpt>
      <trkpt lat="59.8561201" lon="17.6923398">
        <ele>13.1151</ele>
        <time>2013-05-24T18:45:49Z</time>
      </trkpt>
      <trkpt lat="59.8561463" lon="17.6924797">
        <ele>12.6344</ele>
        <time>2013-05-24T18:45:50Z</time>
      </trkpt>
      <trkpt lat="59.8561727" lon="17.6926194">
        <ele>12.6344</ele>
        <time>2013-05-24T18:45:51Z</time>
      </trkpt>
      <trkpt lat="59.8561972" lon="17.6927609">
        <ele>12.6344</ele>
        <time>2013-05-24T18:45:52Z</time>
      </trkpt>
      <trkpt lat="59.8562188" lon="17.692905">
        <ele>12.6344</ele>
        <time>2013-05-24T18:45:53Z</time>
      </trkpt>
      <trkpt lat="59.85624" lon="17.6930769">
        <ele>12.6344</ele>
        <time>2013-05-24T18:45:54Z</time>
      </trkpt>
      <trkpt lat="59.856267" lon="17.6932224">
        <ele>12.6344</ele>
        <time>2013-05-24T18:45:55Z</time>
      </trkpt>
      <trkpt lat="59.8562987" lon="17.6933633">
        <ele>12.6344</ele>
        <time>2013-05-24T18:45:56Z</time>
      </trkpt>
      <trkpt lat="59.8563308" lon="17.6935047">
        <ele>13.1151</ele>
        <time>2013-05-24T18:45:57Z</time>
      </trkpt>
      <trkpt lat="59.8563594" lon="17.6936492">
        <ele>13.1151</ele>
        <time>2013-05-24T18:45:58Z</time>
      </trkpt>
      <trkpt lat="59.8563863" lon="17.6937959">
        <ele>13.1151</ele>
        <time>2013-05-24T18:45:59Z</time>
      </trkpt>
      <trkpt lat="59.8564131" lon="17.693941">
        <ele>13.1151</ele>
        <time>2013-05-24T18:46:00Z</time>
      </trkpt>
      <trkpt lat="59.8564395" lon="17.6940839">
        <ele>12.6344</ele>
        <time>2013-05-24T18:46:01Z</time>
      </trkpt>
      <trkpt lat="59.8564652" lon="17.6942277">
        <ele>12.6344</ele>
        <time>2013-05-24T18:46:02Z</time>
      </trkpt>
      <trkpt lat="59.8564916" lon="17.6943712">
        <ele>12.6344</ele>
        <time>2013-05-24T18:46:03Z</time>
      </trkpt>
      <trkpt lat="59.856518" lon="17.6945141">
        <ele>12.6344</ele>
        <time>2013-05-24T18:46:04Z</time>
      </trkpt>
      <trkpt lat="59.8565448" lon="17.6946556">
        <ele>12.6344</ele>
        <time>2013-05-24T18:46:05Z</time>
      </trkpt>
      <trkpt lat="59.8565708" lon="17.6947949">
        <ele>12.6344</ele>
        <time>2013-05-24T18:46:06Z</time>
      </trkpt>
      <trkpt lat="59.8565987" lon="17.6949355">
        <ele>12.6344</ele>
        <time>2013-05-24T18:46:07Z</time>
      </trkpt>
      <trkpt lat="59.8566267" lon="17.6950768">
        <ele>12.1538</ele>
        <time>2013-05-24T18:46:08Z</time>
      </trkpt>
      <trkpt lat="59.8566537" lon="17.6952178">
        <ele>12.1538</ele>
        <time>2013-05-24T18:46:09Z</time>
      </trkpt>
      <trkpt lat="59.85668" lon="17.6953581">
        <ele>12.1538</ele>
        <time>2013-05-24T18:46:10Z</time>
      </trkpt>
      <trkpt lat="59.8567063" lon="17.6954958">
        <ele>12.1538</ele>
        <time>2013-05-24T18:46:11Z</time>
      </trkpt>
      <trkpt lat="59.8567318" lon="17.6956306">
        <ele>12.1538</ele>
        <time>2013-05-24T18:46:12Z</time>
      </trkpt>
      <trkpt lat="59.8567576" lon="17.6957642">
        <ele>12.6344</ele>
        <time>2013-05-24T18:46:13Z</time>
      </trkpt>
      <trkpt lat="59.856781" lon="17.6958972">
        <ele>12.6344</ele>
        <time>2013-05-24T18:46:14Z</time>
      </trkpt>
      <trkpt lat="59.8567998" lon="17.6960309">
        <ele>12.1538</ele>
        <time>2013-05-24T18:46:15Z</time>
      </trkpt>
      <trkpt lat="59.8568208" lon="17.6961652">
        <ele>12.1538</ele>
        <time>2013-05-24T18:46:16Z</time>
      </trkpt>
      <trkpt lat="59.856844" lon="17.6962972">
        <ele>12.1538</ele>
        <time>2013-05-24T18:46:17Z</time>
      </trkpt>
      <trkpt lat="59.8568663" lon="17.6964275">
        <ele>12.1538</ele>
        <time>2013-05-24T18:46:18Z</time>
      </trkpt>
      <trkpt lat="59.8568888" lon="17.6965548">
        <ele>12.1538</ele>
        <time>2013-05-24T18:46:19Z</time>
      </trkpt>
      <trkpt lat="59.8569109" lon="17.69668">
        <ele>12.1538</ele>
        <time>2013-05-24T18:46:20Z</time>
      </trkpt>
      <trkpt lat="59.8569329" lon="17.6968054">
        <ele>12.1538</ele>
        <time>2013-05-24T18:46:21Z</time>
      </trkpt>
      <trkpt lat="59.8569557" lon="17.6969312">
        <ele>12.1538</ele>
        <time>2013-05-24T18:46:22Z</time>
      </trkpt>
      <trkpt lat="59.8569775" lon="17.6970577">
        <ele>12.1538</ele>
        <time>2013-05-24T18:46:23Z</time>
      </trkpt>
      <trkpt lat="59.8570001" lon="17.6971857">
        <ele>12.1538</ele>
        <time>2013-05-24T18:46:24Z</time>
      </trkpt>
      <trkpt lat="59.8570229" lon="17.6973142">
        <ele>12.1538</ele>
        <time>2013-05-24T18:46:25Z</time>
      </trkpt>
      <trkpt lat="59.8570466" lon="17.6974411">
        <ele>12.1538</ele>
        <time>2013-05-24T18:46:26Z</time>
      </trkpt>
      <trkpt lat="59.857072" lon="17.6975666">
        <ele>12.1538</ele>
        <time>2013-05-24T18:46:27Z</time>
      </trkpt>
      <trkpt lat="59.8570966" lon="17.6976923">
        <ele>12.1538</ele>
        <time>2013-05-24T18:46:28Z</time>
      </trkpt>
      <trkpt lat="59.8571208" lon="17.6978221">
        <ele>12.1538</ele>
        <time>2013-05-24T18:46:29Z</time>
      </trkpt>
      <trkpt lat="59.857145" lon="17.6979533">
        <ele>12.1538</ele>
        <time>2013-05-24T18:46:30Z</time>
      </trkpt>
      <trkpt lat="59.8571695" lon="17.6980817">
        <ele>12.1538</ele>
        <time>2013-05-24T18:46:31Z</time>
      </trkpt>
      <trkpt lat="59.8571929" lon="17.6982083">
        <ele>12.1538</ele>
        <time>2013-05-24T18:46:32Z</time>
      </trkpt>
      <trkpt lat="59.8572163" lon="17.6983342">
        <ele>12.1538</ele>
        <time>2013-05-24T18:46:33Z</time>
      </trkpt>
      <trkpt lat="59.8572415" lon="17.6984583">
        <ele>12.1538</ele>
        <time>2013-05-24T18:46:34Z</time>
      </trkpt>
      <trkpt lat="59.8572673" lon="17.6985841">
        <ele>12.1538</ele>
        <time>2013-05-24T18:46:35Z</time>
      </trkpt>
      <trkpt lat="59.8572914" lon="17.6987118">
        <ele>12.1538</ele>
        <time>2013-05-24T18:46:36Z</time>
      </trkpt>
      <trkpt lat="59.8573154" lon="17.6988392">
        <ele>12.6344</ele>
        <time>2013-05-24T18:46:37Z</time>
      </trkpt>
      <trkpt lat="59.8573394" lon="17.6989657">
        <ele>12.1538</ele>
        <time>2013-05-24T18:46:38Z</time>
      </trkpt>
      <trkpt lat="59.8573642" lon="17.6990918">
        <ele>12.1538</ele>
        <time>2013-05-24T18:46:39Z</time>
      </trkpt>
      <trkpt lat="59.8573892" lon="17.6992199">
        <ele>12.1538</ele>
        <time>2013-05-24T18:46:40Z</time>
      </trkpt>
      <trkpt lat="59.8574146" lon="17.6993479">
        <ele>12.1538</ele>
        <time>2013-05-24T18:46:41Z</time>
      </trkpt>
      <trkpt lat="59.8574402" lon="17.6994716">
        <ele>11.6732</ele>
        <time>2013-05-24T18:46:42Z</time>
      </trkpt>
      <trkpt lat="59.8574658" lon="17.699597">
        <ele>11.6732</ele>
        <time>2013-05-24T18:46:43Z</time>
      </trkpt>
      <trkpt lat="59.8574922" lon="17.699724">
        <ele>11.6732</ele>
        <time>2013-05-24T18:46:44Z</time>
      </trkpt>
      <trkpt lat="59.8575187" lon="17.6998524">
        <ele>11.1925</ele>
        <time>2013-05-24T18:46:45Z</time>
      </trkpt>
      <trkpt lat="59.8575459" lon="17.6999819">
        <ele>11.1925</ele>
        <time>2013-05-24T18:46:46Z</time>
      </trkpt>
      <trkpt lat="59.8575737" lon="17.700113">
        <ele>11.1925</ele>
        <time>2013-05-24T18:46:47Z</time>
      </trkpt>
      <trkpt lat="59.8576005" lon="17.7002464">
        <ele>11.6732</ele>
        <time>2013-05-24T18:46:48Z</time>
      </trkpt>
      <trkpt lat="59.8576253" lon="17.7003823">
        <ele>11.6732</ele>
        <time>2013-05-24T18:46:49Z</time>
      </trkpt>
      <trkpt lat="59.8576516" lon="17.700517">
        <ele>12.1538</ele>
        <time>2013-05-24T18:46:50Z</time>
      </trkpt>
      <trkpt lat="59.857678" lon="17.7006501">
        <ele>12.1538</ele>
        <time>2013-05-24T18:46:51Z</time>
      </trkpt>
      <trkpt lat="59.857705" lon="17.7007806">
        <ele>12.6344</ele>
        <time>2013-05-24T18:46:52Z</time>
      </trkpt>
      <trkpt lat="59.8577293" lon="17.7009113">
        <ele>12.6344</ele>
        <time>2013-05-24T18:46:53Z</time>
      </trkpt>
      <trkpt lat="59.8577549" lon="17.7010436">
        <ele>13.1151</ele>
        <time>2013-05-24T18:46:54Z</time>
      </trkpt>
      <trkpt lat="59.8577834" lon="17.7011691">
        <ele>13.1151</ele>
        <time>2013-05-24T18:46:55Z</time>
      </trkpt>
      <trkpt lat="59.8578118" lon="17.701291">
        <ele>13.1151</ele>
        <time>2013-05-24T18:46:56Z</time>
      </trkpt>
      <trkpt lat="59.8578403" lon="17.7014102">
        <ele>13.1151</ele>
        <time>2013-05-24T18:46:57Z</time>
      </trkpt>
      <trkpt lat="59.8578681" lon="17.7015247">
        <ele>13.5958</ele>
        <time>2013-05-24T18:46:58Z</time>
      </trkpt>
      <trkpt lat="59.8578948" lon="17.7016296">
        <ele>13.5958</ele>
        <time>2013-05-24T18:46:59Z</time>
      </trkpt>
      <trkpt lat="59.8579191" lon="17.7017314">
        <ele>14.0764</ele>
        <time>2013-05-24T18:47:00Z</time>
      </trkpt>
      <trkpt lat="59.8579415" lon="17.7018328">
        <ele>14.0764</ele>
        <time>2013-05-24T18:47:01Z</time>
      </trkpt>
      <trkpt lat="59.8579631" lon="17.7019323">
        <ele>14.0764</ele>
        <time>2013-05-24T18:47:02Z</time>
      </trkpt>
      <trkpt lat="59.8579854" lon="17.7020311">
        <ele>14.0764</ele>
        <time>2013-05-24T18:47:03Z</time>
      </trkpt>
      <trkpt lat="59.8580065" lon="17.7021316">
        <ele>13.5958</ele>
        <time>2013-05-24T18:47:04Z</time>
      </trkpt>
      <trkpt lat="59.85803" lon="17.7022336">
        <ele>13.5958</ele>
        <time>2013-05-24T18:47:05Z</time>
      </trkpt>
      <trkpt lat="59.8580549" lon="17.7023368">
        <ele>14.0764</ele>
        <time>2013-05-24T18:47:06Z</time>
      </trkpt>
      <trkpt lat="59.8580807" lon="17.7024389">
        <ele>14.0764</ele>
        <time>2013-05-24T18:47:07Z</time>
      </trkpt>
      <trkpt lat="59.8581056" lon="17.702542">
        <ele>14.0764</ele>
        <time>2013-05-24T18:47:08Z</time>
      </trkpt>
      <trkpt lat="59.8581276" lon="17.7026466">
        <ele>13.5958</ele>
        <time>2013-05-24T18:47:09Z</time>
      </trkpt>
      <trkpt lat="59.8581513" lon="17.7027533">
        <ele>13.5958</ele>
        <time>2013-05-24T18:47:10Z</time>
      </trkpt>
      <trkpt lat="59.8581781" lon="17.7028616">
        <ele>14.0764</ele>
        <time>2013-05-24T18:47:11Z</time>
      </trkpt>
      <trkpt lat="59.8582035" lon="17.7029725">
        <ele>14.0764</ele>
        <time>2013-05-24T18:47:12Z</time>
      </trkpt>
      <trkpt lat="59.85823" lon="17.7030837">
        <ele>14.0764</ele>
        <time>2013-05-24T18:47:13Z</time>
      </trkpt>
      <trkpt lat="59.8582594" lon="17.7031926">
        <ele>14.557</ele>
        <time>2013-05-24T18:47:14Z</time>
      </trkpt>
      <trkpt lat="59.8582843" lon="17.7033011">
        <ele>14.557</ele>
        <time>2013-05-24T18:47:15Z</time>
      </trkpt>
      <trkpt lat="59.8583148" lon="17.7034102">
        <ele>15.5184</ele>
        <time>2013-05-24T18:47:16Z</time>
      </trkpt>
      <trkpt lat="59.8583377" lon="17.703526">
        <ele>15.5184</ele>
        <time>2013-05-24T18:47:17Z</time>
      </trkpt>
      <trkpt lat="59.8583615" lon="17.7036368">
        <ele>15.5184</ele>
        <time>2013-05-24T18:47:18Z</time>
      </trkpt>
      <trkpt lat="59.8583849" lon="17.7037449">
        <ele>15.5184</ele>
        <time>2013-05-24T18:47:19Z</time>
      </trkpt>
      <trkpt lat="59.8584058" lon="17.7038507">
        <ele>15.5184</ele>
        <time>2013-05-24T18:47:20Z</time>
      </trkpt>
      <trkpt lat="59.858426" lon="17.703958">
        <ele>15.5184</ele>
        <time>2013-05-24T18:47:21Z</time>
      </trkpt>
      <trkpt lat="59.8584495" lon="17.7040634">
        <ele>15.5184</ele>
        <time>2013-05-24T18:47:22Z</time>
      </trkpt>
      <trkpt lat="59.8584838" lon="17.7041738">
        <ele>16.4797</ele>
        <time>2013-05-24T18:47:23Z</time>
      </trkpt>
      <trkpt lat="59.8585102" lon="17.7042753">
        <ele>15.999</ele>
        <time>2013-05-24T18:47:24Z</time>
      </trkpt>
      <trkpt lat="59.8585374" lon="17.7043774">
        <ele>16.4797</ele>
        <time>2013-05-24T18:47:25Z</time>
      </trkpt>
      <trkpt lat="59.8585614" lon="17.7044788">
        <ele>15.999</ele>
        <time>2013-05-24T18:47:26Z</time>
      </trkpt>
      <trkpt lat="59.8585859" lon="17.7045789">
        <ele>15.999</ele>
        <time>2013-05-24T18:47:27Z</time>
      </trkpt>
      <trkpt lat="59.8586137" lon="17.7046811">
        <ele>15.999</ele>
        <time>2013-05-24T18:47:28Z</time>
      </trkpt>
      <trkpt lat="59.8586397" lon="17.7047885">
        <ele>15.999</ele>
        <time>2013-05-24T18:47:29Z</time>
      </trkpt>
      <trkpt lat="59.8586656" lon="17.7048958">
        <ele>15.999</ele>
        <time>2013-05-24T18:47:30Z</time>
      </trkpt>
      <trkpt lat="59.8586942" lon="17.7050004">
        <ele>15.999</ele>
        <time>2013-05-24T18:47:31Z</time>
      </trkpt>
      <trkpt lat="59.8587241" lon="17.7050978">
        <ele>15.5184</ele>
        <time>2013-05-24T18:47:32Z</time>
      </trkpt>
      <trkpt lat="59.8587546" lon="17.7051952">
        <ele>15.5184</ele>
        <time>2013-05-24T18:47:33Z</time>
      </trkpt>
      <trkpt lat="59.8587788" lon="17.7052983">
        <ele>15.5184</ele>
        <time>2013-05-24T18:47:34Z</time>
      </trkpt>
      <trkpt lat="59.8587908" lon="17.7054143">
        <ele>15.5184</ele>
        <time>2013-05-24T18:47:35Z</time>
      </trkpt>
      <trkpt lat="59.8587866" lon="17.7055358">
        <ele>15.999</ele>
        <time>2013-05-24T18:47:36Z</time>
      </trkpt>
      <trkpt lat="59.8587687" lon="17.7056562">
        <ele>16.4797</ele>
        <time>2013-05-24T18:47:37Z</time>
      </trkpt>
      <trkpt lat="59.8587406" lon="17.7057672">
        <ele>16.4797</ele>
        <time>2013-05-24T18:47:38Z</time>
      </trkpt>
      <trkpt lat="59.8587203" lon="17.7058929">
        <ele>17.4412</ele>
        <time>2013-05-24T18:47:39Z</time>
      </trkpt>
      <trkpt lat="59.8586897" lon="17.7060079">
        <ele>17.9218</ele>
        <time>2013-05-24T18:47:40Z</time>
      </trkpt>
      <trkpt lat="59.8586685" lon="17.7061363">
        <ele>18.4023</ele>
        <time>2013-05-24T18:47:41Z</time>
      </trkpt>
      <trkpt lat="59.8586494" lon="17.7062447">
        <ele>18.8831</ele>
        <time>2013-05-24T18:47:42Z</time>
      </trkpt>
      <trkpt lat="59.8586266" lon="17.7063677">
        <ele>18.8831</ele>
        <time>2013-05-24T18:47:43Z</time>
      </trkpt>
      <trkpt lat="59.8586042" lon="17.7064983">
        <ele>18.8831</ele>
        <time>2013-05-24T18:47:44Z</time>
      </trkpt>
      <trkpt lat="59.8585842" lon="17.706642">
        <ele>19.8444</ele>
        <time>2013-05-24T18:47:45Z</time>
      </trkpt>
      <trkpt lat="59.8585583" lon="17.7067752">
        <ele>18.8831</ele>
        <time>2013-05-24T18:47:46Z</time>
      </trkpt>
      <trkpt lat="59.8585432" lon="17.7069199">
        <ele>18.8831</ele>
        <time>2013-05-24T18:47:47Z</time>
      </trkpt>
      <trkpt lat="59.8585272" lon="17.7070449">
        <ele>17.9218</ele>
        <time>2013-05-24T18:47:48Z</time>
      </trkpt>
      <trkpt lat="59.8585101" lon="17.7071735">
        <ele>17.4412</ele>
        <time>2013-05-24T18:47:49Z</time>
      </trkpt>
      <trkpt lat="59.8584843" lon="17.7073226">
        <ele>16.9604</ele>
        <time>2013-05-24T18:47:50Z</time>
      </trkpt>
      <trkpt lat="59.8584669" lon="17.7074781">
        <ele>16.9604</ele>
        <time>2013-05-24T18:47:51Z</time>
      </trkpt>
      <trkpt lat="59.858447" lon="17.7076344">
        <ele>16.9604</ele>
        <time>2013-05-24T18:47:52Z</time>
      </trkpt>
      <trkpt lat="59.858435" lon="17.7077799">
        <ele>16.4797</ele>
        <time>2013-05-24T18:47:53Z</time>
      </trkpt>
      <trkpt lat="59.8584222" lon="17.7079121">
        <ele>15.999</ele>
        <time>2013-05-24T18:47:54Z</time>
      </trkpt>
      <trkpt lat="59.858402" lon="17.7080562">
        <ele>15.5184</ele>
        <time>2013-05-24T18:47:55Z</time>
      </trkpt>
      <trkpt lat="59.8583903" lon="17.7081981">
        <ele>15.999</ele>
        <time>2013-05-24T18:47:56Z</time>
      </trkpt>
      <trkpt lat="59.8583692" lon="17.7083327">
        <ele>15.999</ele>
        <time>2013-05-24T18:47:57Z</time>
      </trkpt>
      <trkpt lat="59.8583492" lon="17.7084667">
        <ele>15.999</ele>
        <time>2013-05-24T18:47:58Z</time>
      </trkpt>
      <trkpt lat="59.8583378" lon="17.7085933">
        <ele>16.4797</ele>
        <time>2013-05-24T18:47:59Z</time>
      </trkpt>
      <trkpt lat="59.8583391" lon="17.7087192">
        <ele>16.4797</ele>
        <time>2013-05-24T18:48:00Z</time>
      </trkpt>
      <trkpt lat="59.8583412" lon="17.7088402">
        <ele>15.999</ele>
        <time>2013-05-24T18:48:01Z</time>
      </trkpt>
      <trkpt lat="59.8583406" lon="17.7089721">
        <ele>15.999</ele>
        <time>2013-05-24T18:48:02Z</time>
      </trkpt>
      <trkpt lat="59.8583247" lon="17.7091189">
        <ele>16.4797</ele>
        <time>2013-05-24T18:48:03Z</time>
      </trkpt>
      <trkpt lat="59.8583246" lon="17.70925">
        <ele>17.9218</ele>
        <time>2013-05-24T18:48:04Z</time>
      </trkpt>
      <trkpt lat="59.8583356" lon="17.7093828">
        <ele>18.4023</ele>
        <time>2013-05-24T18:48:05Z</time>
      </trkpt>
      <trkpt lat="59.8583356" lon="17.7095215">
        <ele>17.4412</ele>
        <time>2013-05-24T18:48:06Z</time>
      </trkpt>
      <trkpt lat="59.8583406" lon="17.7096558">
        <ele>17.4412</ele>
        <time>2013-05-24T18:48:07Z</time>
      </trkpt>
      <trkpt lat="59.8583481" lon="17.7097816">
        <ele>17.4412</ele>
        <time>2013-05-24T18:48:08Z</time>
      </trkpt>
      <trkpt lat="59.8583576" lon="17.7099043">
        <ele>18.8831</ele>
        <time>2013-05-24T18:48:09Z</time>
      </trkpt>
      <trkpt lat="59.8583795" lon="17.710027">
        <ele>18.8831</ele>
        <time>2013-05-24T18:48:10Z</time>
      </trkpt>
      <trkpt lat="59.8584035" lon="17.7101551">
        <ele>21.2864</ele>
        <time>2013-05-24T18:48:11Z</time>
      </trkpt>
      <trkpt lat="59.8584252" lon="17.7102757">
        <ele>23.209</ele>
        <time>2013-05-24T18:48:12Z</time>
      </trkpt>
      <trkpt lat="59.8584473" lon="17.7103944">
        <ele>23.6896</ele>
        <time>2013-05-24T18:48:13Z</time>
      </trkpt>
      <trkpt lat="59.8584688" lon="17.71051">
        <ele>24.1703</ele>
        <time>2013-05-24T18:48:14Z</time>
      </trkpt>
      <trkpt lat="59.8584875" lon="17.7106311">
        <ele>24.1703</ele>
        <time>2013-05-24T18:48:15Z</time>
      </trkpt>
      <trkpt lat="59.8585029" lon="17.7107628">
        <ele>24.1703</ele>
        <time>2013-05-24T18:48:16Z</time>
      </trkpt>
      <trkpt lat="59.8585165" lon="17.7108912">
        <ele>25.6123</ele>
        <time>2013-05-24T18:48:17Z</time>
      </trkpt>
      <trkpt lat="59.8585267" lon="17.7110157">
        <ele>25.6123</ele>
        <time>2013-05-24T18:48:18Z</time>
      </trkpt>
      <trkpt lat="59.8585322" lon="17.7111383">
        <ele>25.6123</ele>
        <time>2013-05-24T18:48:19Z</time>
      </trkpt>
      <trkpt lat="59.8585364" lon="17.7112602">
        <ele>25.1317</ele>
        <time>2013-05-24T18:48:20Z</time>
      </trkpt>
      <trkpt lat="59.8585355" lon="17.7113764">
        <ele>25.1317</ele>
        <time>2013-05-24T18:48:21Z</time>
      </trkpt>
      <trkpt lat="59.8585252" lon="17.7114834">
        <ele>24.1703</ele>
        <time>2013-05-24T18:48:22Z</time>
      </trkpt>
      <trkpt lat="59.8585084" lon="17.7116012">
        <ele>23.209</ele>
        <time>2013-05-24T18:48:23Z</time>
      </trkpt>
      <trkpt lat="59.8584874" lon="17.7117229">
        <ele>22.7283</ele>
        <time>2013-05-24T18:48:24Z</time>
      </trkpt>
      <trkpt lat="59.8584638" lon="17.7118392">
        <ele>22.2476</ele>
        <time>2013-05-24T18:48:25Z</time>
      </trkpt>
      <trkpt lat="59.8584383" lon="17.7119484">
        <ele>21.767</ele>
        <time>2013-05-24T18:48:26Z</time>
      </trkpt>
      <trkpt lat="59.8584115" lon="17.7120567">
        <ele>21.2864</ele>
        <time>2013-05-24T18:48:27Z</time>
      </trkpt>
      <trkpt lat="59.8583838" lon="17.7121636">
        <ele>20.8057</ele>
        <time>2013-05-24T18:48:28Z</time>
      </trkpt>
      <trkpt lat="59.8583568" lon="17.7122701">
        <ele>19.8444</ele>
        <time>2013-05-24T18:48:29Z</time>
      </trkpt>
      <trkpt lat="59.8583272" lon="17.7123888">
        <ele>19.3638</ele>
        <time>2013-05-24T18:48:30Z</time>
      </trkpt>
      <trkpt lat="59.8583007" lon="17.7125145">
        <ele>18.8831</ele>
        <time>2013-05-24T18:48:31Z</time>
      </trkpt>
      <trkpt lat="59.8582776" lon="17.7126515">
        <ele>18.4023</ele>
        <time>2013-05-24T18:48:32Z</time>
      </trkpt>
      <trkpt lat="59.8582579" lon="17.7128027">
        <ele>18.4023</ele>
        <time>2013-05-24T18:48:33Z</time>
      </trkpt>
      <trkpt lat="59.8582417" lon="17.7129524">
        <ele>17.9218</ele>
        <time>2013-05-24T18:48:34Z</time>
      </trkpt>
      <trkpt lat="59.8582259" lon="17.7130993">
        <ele>17.4412</ele>
        <time>2013-05-24T18:48:35Z</time>
      </trkpt>
      <trkpt lat="59.8582102" lon="17.7132471">
        <ele>16.9604</ele>
        <time>2013-05-24T18:48:36Z</time>
      </trkpt>
      <trkpt lat="59.8581945" lon="17.7133985">
        <ele>16.9604</ele>
        <time>2013-05-24T18:48:37Z</time>
      </trkpt>
      <trkpt lat="59.858176" lon="17.7135505">
        <ele>16.9604</ele>
        <time>2013-05-24T18:48:38Z</time>
      </trkpt>
      <trkpt lat="59.8581522" lon="17.7137014">
        <ele>16.9604</ele>
        <time>2013-05-24T18:48:39Z</time>
      </trkpt>
      <trkpt lat="59.8581237" lon="17.7138448">
        <ele>16.4797</ele>
        <time>2013-05-24T18:48:40Z</time>
      </trkpt>
      <trkpt lat="59.8580888" lon="17.7139807">
        <ele>16.4797</ele>
        <time>2013-05-24T18:48:41Z</time>
      </trkpt>
      <trkpt lat="59.8580507" lon="17.7141148">
        <ele>16.4797</ele>
        <time>2013-05-24T18:48:42Z</time>
      </trkpt>
      <trkpt lat="59.8580085" lon="17.7142452">
        <ele>16.4797</ele>
        <time>2013-05-24T18:48:43Z</time>
      </trkpt>
      <trkpt lat="59.8579627" lon="17.7143701">
        <ele>16.4797</ele>
        <time>2013-05-24T18:48:44Z</time>
      </trkpt>
      <trkpt lat="59.857916" lon="17.7144907">
        <ele>16.4797</ele>
        <time>2013-05-24T18:48:45Z</time>
      </trkpt>
      <trkpt lat="59.8578725" lon="17.7146152">
        <ele>16.4797</ele>
        <time>2013-05-24T18:48:46Z</time>
      </trkpt>
      <trkpt lat="59.8578321" lon="17.7147443">
        <ele>16.4797</ele>
        <time>2013-05-24T18:48:47Z</time>
      </trkpt>
      <trkpt lat="59.8577953" lon="17.7148797">
        <ele>16.4797</ele>
        <time>2013-05-24T18:48:48Z</time>
      </trkpt>
      <trkpt lat="59.8577612" lon="17.7150182">
        <ele>16.4797</ele>
        <time>2013-05-24T18:48:49Z</time>
      </trkpt>
      <trkpt lat="59.8577296" lon="17.7151597">
        <ele>16.4797</ele>
        <time>2013-05-24T18:48:50Z</time>
      </trkpt>
      <trkpt lat="59.8576984" lon="17.715303">
        <ele>16.4797</ele>
        <time>2013-05-24T18:48:51Z</time>
      </trkpt>
      <trkpt lat="59.8576694" lon="17.7154491">
        <ele>16.4797</ele>
        <time>2013-05-24T18:48:52Z</time>
      </trkpt>
      <trkpt lat="59.8576447" lon="17.715598">
        <ele>16.4797</ele>
        <time>2013-05-24T18:48:53Z</time>
      </trkpt>
      <trkpt lat="59.8576222" lon="17.7157503">
        <ele>16.4797</ele>
        <time>2013-05-24T18:48:54Z</time>
      </trkpt>
      <trkpt lat="59.8576036" lon="17.7159057">
        <ele>16.4797</ele>
        <time>2013-05-24T18:48:55Z</time>
      </trkpt>
      <trkpt lat="59.857591" lon="17.716063">
        <ele>16.4797</ele>
        <time>2013-05-24T18:48:56Z</time>
      </trkpt>
      <trkpt lat="59.8575864" lon="17.7162239">
        <ele>16.4797</ele>
        <time>2013-05-24T18:48:57Z</time>
      </trkpt>
      <trkpt lat="59.8575887" lon="17.7163864">
        <ele>16.4797</ele>
        <time>2013-05-24T18:48:58Z</time>
      </trkpt>
      <trkpt lat="59.8575942" lon="17.7165484">
        <ele>16.4797</ele>
        <time>2013-05-24T18:48:59Z</time>
      </trkpt>
      <trkpt lat="59.8576013" lon="17.7167049">
        <ele>15.999</ele>
        <time>2013-05-24T18:49:00Z</time>
      </trkpt>
      <trkpt lat="59.8576086" lon="17.7168576">
        <ele>15.999</ele>
        <time>2013-05-24T18:49:01Z</time>
      </trkpt>
      <trkpt lat="59.8576171" lon="17.7170089">
        <ele>15.5184</ele>
        <time>2013-05-24T18:49:02Z</time>
      </trkpt>
      <trkpt lat="59.8576265" lon="17.7171603">
        <ele>15.5184</ele>
        <time>2013-05-24T18:49:03Z</time>
      </trkpt>
      <trkpt lat="59.8576336" lon="17.7173133">
        <ele>15.5184</ele>
        <time>2013-05-24T18:49:04Z</time>
      </trkpt>
      <trkpt lat="59.8576363" lon="17.7174651">
        <ele>15.5184</ele>
        <time>2013-05-24T18:49:05Z</time>
      </trkpt>
      <trkpt lat="59.8576368" lon="17.7176161">
        <ele>15.0377</ele>
        <time>2013-05-24T18:49:06Z</time>
      </trkpt>
      <trkpt lat="59.8576359" lon="17.7177676">
        <ele>15.0377</ele>
        <time>2013-05-24T18:49:07Z</time>
      </trkpt>
      <trkpt lat="59.8576352" lon="17.7179202">
        <ele>15.0377</ele>
        <time>2013-05-24T18:49:08Z</time>
      </trkpt>
      <trkpt lat="59.8576326" lon="17.7180715">
        <ele>15.0377</ele>
        <time>2013-05-24T18:49:09Z</time>
      </trkpt>
      <trkpt lat="59.85763" lon="17.7182269">
        <ele>15.5184</ele>
        <time>2013-05-24T18:49:10Z</time>
      </trkpt>
      <trkpt lat="59.8576302" lon="17.7183795">
        <ele>15.5184</ele>
        <time>2013-05-24T18:49:11Z</time>
      </trkpt>
      <trkpt lat="59.8576272" lon="17.718535">
        <ele>15.5184</ele>
        <time>2013-05-24T18:49:12Z</time>
      </trkpt>
      <trkpt lat="59.8576257" lon="17.7186909">
        <ele>15.999</ele>
        <time>2013-05-24T18:49:13Z</time>
      </trkpt>
      <trkpt lat="59.8576291" lon="17.7188396">
        <ele>15.999</ele>
        <time>2013-05-24T18:49:14Z</time>
      </trkpt>
      <trkpt lat="59.8576342" lon="17.7189882">
        <ele>15.999</ele>
        <time>2013-05-24T18:49:15Z</time>
      </trkpt>
      <trkpt lat="59.8576409" lon="17.7191331">
        <ele>15.999</ele>
        <time>2013-05-24T18:49:16Z</time>
      </trkpt>
      <trkpt lat="59.857647" lon="17.7192792">
        <ele>15.999</ele>
        <time>2013-05-24T18:49:17Z</time>
      </trkpt>
      <trkpt lat="59.8576539" lon="17.719424">
        <ele>15.5184</ele>
        <time>2013-05-24T18:49:18Z</time>
      </trkpt>
      <trkpt lat="59.8576596" lon="17.7195763">
        <ele>15.5184</ele>
        <time>2013-05-24T18:49:19Z</time>
      </trkpt>
      <trkpt lat="59.8576657" lon="17.7197288">
        <ele>15.5184</ele>
        <time>2013-05-24T18:49:20Z</time>
      </trkpt>
      <trkpt lat="59.857671" lon="17.7198793">
        <ele>15.5184</ele>
        <time>2013-05-24T18:49:21Z</time>
      </trkpt>
      <trkpt lat="59.8576765" lon="17.7200284">
        <ele>15.5184</ele>
        <time>2013-05-24T18:49:22Z</time>
      </trkpt>
      <trkpt lat="59.857682" lon="17.7201763">
        <ele>15.0377</ele>
        <time>2013-05-24T18:49:23Z</time>
      </trkpt>
      <trkpt lat="59.8576871" lon="17.7203222">
        <ele>15.5184</ele>
        <time>2013-05-24T18:49:24Z</time>
      </trkpt>
      <trkpt lat="59.8576899" lon="17.7204581">
        <ele>15.5184</ele>
        <time>2013-05-24T18:49:25Z</time>
      </trkpt>
      <trkpt lat="59.8576918" lon="17.7205863">
        <ele>15.5184</ele>
        <time>2013-05-24T18:49:26Z</time>
      </trkpt>
      <trkpt lat="59.8576925" lon="17.7207123">
        <ele>16.4797</ele>
        <time>2013-05-24T18:49:27Z</time>
      </trkpt>
      <trkpt lat="59.8576927" lon="17.7208308">
        <ele>16.4797</ele>
        <time>2013-05-24T18:49:28Z</time>
      </trkpt>
      <trkpt lat="59.8576923" lon="17.7209494">
        <ele>16.4797</ele>
        <time>2013-05-24T18:49:29Z</time>
      </trkpt>
      <trkpt lat="59.8576901" lon="17.7210728">
        <ele>16.4797</ele>
        <time>2013-05-24T18:49:30Z</time>
      </trkpt>
      <trkpt lat="59.8576886" lon="17.7211893">
        <ele>16.4797</ele>
        <time>2013-05-24T18:49:31Z</time>
      </trkpt>
      <trkpt lat="59.857686" lon="17.7212953">
        <ele>15.999</ele>
        <time>2013-05-24T18:49:32Z</time>
      </trkpt>
      <trkpt lat="59.8576807" lon="17.721397">
        <ele>15.999</ele>
        <time>2013-05-24T18:49:33Z</time>
      </trkpt>
      <trkpt lat="59.8576667" lon="17.7215209">
        <ele>15.999</ele>
        <time>2013-05-24T18:49:34Z</time>
      </trkpt>
      <trkpt lat="59.857648" lon="17.7216684">
        <ele>15.999</ele>
        <time>2013-05-24T18:49:35Z</time>
      </trkpt>
      <trkpt lat="59.8576259" lon="17.7217994">
        <ele>15.999</ele>
        <time>2013-05-24T18:49:36Z</time>
      </trkpt>
      <trkpt lat="59.8576026" lon="17.7219148">
        <ele>15.5184</ele>
        <time>2013-05-24T18:49:37Z</time>
      </trkpt>
      <trkpt lat="59.8575596" lon="17.7220077">
        <ele>15.0377</ele>
        <time>2013-05-24T18:49:38Z</time>
      </trkpt>
      <trkpt lat="59.8575169" lon="17.7221132">
        <ele>14.0764</ele>
        <time>2013-05-24T18:49:39Z</time>
      </trkpt>
      <trkpt lat="59.8574763" lon="17.7222398">
        <ele>14.557</ele>
        <time>2013-05-24T18:49:40Z</time>
      </trkpt>
      <trkpt lat="59.8574238" lon="17.7223372">
        <ele>13.5958</ele>
        <time>2013-05-24T18:49:41Z</time>
      </trkpt>
      <trkpt lat="59.8573677" lon="17.7224304">
        <ele>13.1151</ele>
        <time>2013-05-24T18:49:42Z</time>
      </trkpt>
      <trkpt lat="59.8573057" lon="17.72251">
        <ele>12.1538</ele>
        <time>2013-05-24T18:49:43Z</time>
      </trkpt>
      <trkpt lat="59.8572472" lon="17.7226029">
        <ele>11.6732</ele>
        <time>2013-05-24T18:49:44Z</time>
      </trkpt>
      <trkpt lat="59.8571862" lon="17.7226944">
        <ele>11.1925</ele>
        <time>2013-05-24T18:49:45Z</time>
      </trkpt>
      <trkpt lat="59.8571255" lon="17.7227926">
        <ele>10.7118</ele>
        <time>2013-05-24T18:49:46Z</time>
      </trkpt>
      <trkpt lat="59.8570671" lon="17.7228951">
        <ele>10.2312</ele>
        <time>2013-05-24T18:49:47Z</time>
      </trkpt>
      <trkpt lat="59.8570119" lon="17.7229991">
        <ele>10.2312</ele>
        <time>2013-05-24T18:49:48Z</time>
      </trkpt>
      <trkpt lat="59.8569551" lon="17.7231038">
        <ele>10.2312</ele>
        <time>2013-05-24T18:49:49Z</time>
      </trkpt>
      <trkpt lat="59.856893" lon="17.7232095">
        <ele>9.75061</ele>
        <time>2013-05-24T18:49:50Z</time>
      </trkpt>
      <trkpt lat="59.8568319" lon="17.723322">
        <ele>8.78918</ele>
        <time>2013-05-24T18:49:51Z</time>
      </trkpt>
      <trkpt lat="59.8567697" lon="17.7234369">
        <ele>7.82788</ele>
        <time>2013-05-24T18:49:52Z</time>
      </trkpt>
      <trkpt lat="59.8567078" lon="17.7235555">
        <ele>6.86646</ele>
        <time>2013-05-24T18:49:53Z</time>
      </trkpt>
      <trkpt lat="59.8566474" lon="17.7236748">
        <ele>6.38586</ele>
        <time>2013-05-24T18:49:54Z</time>
      </trkpt>
      <trkpt lat="59.8565852" lon="17.7237983">
        <ele>6.38586</ele>
        <time>2013-05-24T18:49:55Z</time>
      </trkpt>
      <trkpt lat="59.856524" lon="17.7239211">
        <ele>5.90527</ele>
        <time>2013-05-24T18:49:56Z</time>
      </trkpt>
      <trkpt lat="59.8564639" lon="17.7240466">
        <ele>5.42456</ele>
        <time>2013-05-24T18:49:57Z</time>
      </trkpt>
      <trkpt lat="59.8564045" lon="17.7241777">
        <ele>5.42456</ele>
        <time>2013-05-24T18:49:58Z</time>
      </trkpt>
      <trkpt lat="59.8563453" lon="17.7243165">
        <ele>4.94385</ele>
        <time>2013-05-24T18:49:59Z</time>
      </trkpt>
      <trkpt lat="59.8562875" lon="17.7244614">
        <ele>4.94385</ele>
        <time>2013-05-24T18:50:00Z</time>
      </trkpt>
      <trkpt lat="59.8562318" lon="17.7246071">
        <ele>4.94385</ele>
        <time>2013-05-24T18:50:01Z</time>
      </trkpt>
      <trkpt lat="59.8561755" lon="17.7247475">
        <ele>4.46326</ele>
        <time>2013-05-24T18:50:02Z</time>
      </trkpt>
      <trkpt lat="59.8561214" lon="17.7248887">
        <ele>5.42456</ele>
        <time>2013-05-24T18:50:03Z</time>
      </trkpt>
      <trkpt lat="59.8560671" lon="17.7250257">
        <ele>5.90527</ele>
        <time>2013-05-24T18:50:04Z</time>
      </trkpt>
      <trkpt lat="59.8560129" lon="17.7251578">
        <ele>6.38586</ele>
        <time>2013-05-24T18:50:05Z</time>
      </trkpt>
      <trkpt lat="59.8559595" lon="17.7252862">
        <ele>6.38586</ele>
        <time>2013-05-24T18:50:06Z</time>
      </trkpt>
      <trkpt lat="59.8559073" lon="17.7254162">
        <ele>6.38586</ele>
        <time>2013-05-24T18:50:07Z</time>
      </trkpt>
      <trkpt lat="59.8558548" lon="17.7255458">
        <ele>6.38586</ele>
        <time>2013-05-24T18:50:08Z</time>
      </trkpt>
      <trkpt lat="59.8558035" lon="17.7256773">
        <ele>5.90527</ele>
        <time>2013-05-24T18:50:09Z</time>
      </trkpt>
      <trkpt lat="59.8557538" lon="17.725812">
        <ele>5.90527</ele>
        <time>2013-05-24T18:50:10Z</time>
      </trkpt>
      <trkpt lat="59.8557051" lon="17.7259492">
        <ele>5.90527</ele>
        <time>2013-05-24T18:50:11Z</time>
      </trkpt>
      <trkpt lat="59.8556585" lon="17.726091">
        <ele>6.38586</ele>
        <time>2013-05-24T18:50:12Z</time>
      </trkpt>
      <trkpt lat="59.8556137" lon="17.7262372">
        <ele>6.38586</ele>
        <time>2013-05-24T18:50:13Z</time>
      </trkpt>
      <trkpt lat="59.8555693" lon="17.7263838">
        <ele>6.86646</ele>
        <time>2013-05-24T18:50:14Z</time>
      </trkpt>
      <trkpt lat="59.8555247" lon="17.7265294">
        <ele>7.34717</ele>
        <time>2013-05-24T18:50:15Z</time>
      </trkpt>
      <trkpt lat="59.8554801" lon="17.7266734">
        <ele>7.82788</ele>
        <time>2013-05-24T18:50:16Z</time>
      </trkpt>
      <trkpt lat="59.8554358" lon="17.7268159">
        <ele>8.30859</ele>
        <time>2013-05-24T18:50:17Z</time>
      </trkpt>
      <trkpt lat="59.8553917" lon="17.7269564">
        <ele>8.78918</ele>
        <time>2013-05-24T18:50:18Z</time>
      </trkpt>
      <trkpt lat="59.8553472" lon="17.7270935">
        <ele>9.2699</ele>
        <time>2013-05-24T18:50:19Z</time>
      </trkpt>
      <trkpt lat="59.8553015" lon="17.7272267">
        <ele>9.75061</ele>
        <time>2013-05-24T18:50:20Z</time>
      </trkpt>
      <trkpt lat="59.8552546" lon="17.7273578">
        <ele>9.75061</ele>
        <time>2013-05-24T18:50:21Z</time>
      </trkpt>
      <trkpt lat="59.8552073" lon="17.7274877">
        <ele>10.2312</ele>
        <time>2013-05-24T18:50:22Z</time>
      </trkpt>
      <trkpt lat="59.85516" lon="17.7276174">
        <ele>10.7118</ele>
        <time>2013-05-24T18:50:23Z</time>
      </trkpt>
      <trkpt lat="59.8551126" lon="17.7277484">
        <ele>11.1925</ele>
        <time>2013-05-24T18:50:24Z</time>
      </trkpt>
      <trkpt lat="59.8550643" lon="17.7278783">
        <ele>11.1925</ele>
        <time>2013-05-24T18:50:25Z</time>
      </trkpt>
      <trkpt lat="59.8550171" lon="17.7280081">
        <ele>11.1925</ele>
        <time>2013-05-24T18:50:26Z</time>
      </trkpt>
      <trkpt lat="59.85497" lon="17.7281363">
        <ele>11.6732</ele>
        <time>2013-05-24T18:50:27Z</time>
      </trkpt>
      <trkpt lat="59.8549229" lon="17.7282633">
        <ele>12.1538</ele>
        <time>2013-05-24T18:50:28Z</time>
      </trkpt>
      <trkpt lat="59.8548763" lon="17.72839">
        <ele>12.6344</ele>
        <time>2013-05-24T18:50:29Z</time>
      </trkpt>
      <trkpt lat="59.8548295" lon="17.7285139">
        <ele>12.6344</ele>
        <time>2013-05-24T18:50:30Z</time>
      </trkpt>
      <trkpt lat="59.8547823" lon="17.7286367">
        <ele>13.1151</ele>
        <time>2013-05-24T18:50:31Z</time>
      </trkpt>
      <trkpt lat="59.8547358" lon="17.7287615">
        <ele>13.1151</ele>
        <time>2013-05-24T18:50:32Z</time>
      </trkpt>
      <trkpt lat="59.8546898" lon="17.7288864">
        <ele>13.5958</ele>
        <time>2013-05-24T18:50:33Z</time>
      </trkpt>
      <trkpt lat="59.8546422" lon="17.7290077">
        <ele>13.5958</ele>
        <time>2013-05-24T18:50:34Z</time>
      </trkpt>
      <trkpt lat="59.854595" lon="17.7291303">
        <ele>14.0764</ele>
        <time>2013-05-24T18:50:35Z</time>
      </trkpt>
      <trkpt lat="59.8545466" lon="17.7292506">
        <ele>13.5958</ele>
        <time>2013-05-24T18:50:36Z</time>
      </trkpt>
      <trkpt lat="59.8544993" lon="17.7293731">
        <ele>14.0764</ele>
        <time>2013-05-24T18:50:37Z</time>
      </trkpt>
      <trkpt lat="59.8544524" lon="17.7294959">
        <ele>14.0764</ele>
        <time>2013-05-24T18:50:38Z</time>
      </trkpt>
      <trkpt lat="59.8544048" lon="17.7296177">
        <ele>14.0764</ele>
        <time>2013-05-24T18:50:39Z</time>
      </trkpt>
      <trkpt lat="59.8543578" lon="17.7297416">
        <ele>14.0764</ele>
        <time>2013-05-24T18:50:40Z</time>
      </trkpt>
      <trkpt lat="59.8543102" lon="17.7298675">
        <ele>14.0764</ele>
        <time>2013-05-24T18:50:41Z</time>
      </trkpt>
      <trkpt lat="59.8542607" lon="17.7299929">
        <ele>13.5958</ele>
        <time>2013-05-24T18:50:42Z</time>
      </trkpt>
      <trkpt lat="59.8542103" lon="17.7301217">
        <ele>13.1151</ele>
        <time>2013-05-24T18:50:43Z</time>
      </trkpt>
      <trkpt lat="59.8541616" lon="17.7302587">
        <ele>13.1151</ele>
        <time>2013-05-24T18:50:44Z</time>
      </trkpt>
      <trkpt lat="59.854116" lon="17.7304071">
        <ele>12.6344</ele>
        <time>2013-05-24T18:50:45Z</time>
      </trkpt>
      <trkpt lat="59.8540742" lon="17.7305671">
        <ele>12.1538</ele>
        <time>2013-05-24T18:50:46Z</time>
      </trkpt>
      <trkpt lat="59.8540336" lon="17.7307371">
        <ele>11.6732</ele>
        <time>2013-05-24T18:50:47Z</time>
      </trkpt>
      <trkpt lat="59.8539952" lon="17.7309164">
        <ele>11.1925</ele>
        <time>2013-05-24T18:50:48Z</time>
      </trkpt>
      <trkpt lat="59.8539599" lon="17.7311041">
        <ele>10.7118</ele>
        <time>2013-05-24T18:50:49Z</time>
      </trkpt>
      <trkpt lat="59.8539292" lon="17.7312986">
        <ele>10.2312</ele>
        <time>2013-05-24T18:50:50Z</time>
      </trkpt>
      <trkpt lat="59.8539023" lon="17.7314983">
        <ele>9.75061</ele>
        <time>2013-05-24T18:50:51Z</time>
      </trkpt>
      <trkpt lat="59.8538792" lon="17.7317039">
        <ele>9.75061</ele>
        <time>2013-05-24T18:50:52Z</time>
      </trkpt>
      <trkpt lat="59.8538595" lon="17.7319196">
        <ele>9.75061</ele>
        <time>2013-05-24T18:50:53Z</time>
      </trkpt>
      <trkpt lat="59.8538409" lon="17.7321207">
        <ele>9.75061</ele>
        <time>2013-05-24T18:50:54Z</time>
      </trkpt>
      <trkpt lat="59.853829" lon="17.7323152">
        <ele>9.75061</ele>
        <time>2013-05-24T18:50:55Z</time>
      </trkpt>
      <trkpt lat="59.853803" lon="17.7325197">
        <ele>9.2699</ele>
        <time>2013-05-24T18:50:56Z</time>
      </trkpt>
      <trkpt lat="59.8537838" lon="17.7327195">
        <ele>9.2699</ele>
        <time>2013-05-24T18:50:57Z</time>
      </trkpt>
      <trkpt lat="59.8537594" lon="17.7329202">
        <ele>9.2699</ele>
        <time>2013-05-24T18:50:58Z</time>
      </trkpt>
      <trkpt lat="59.8537389" lon="17.7330925">
        <ele>9.2699</ele>
        <time>2013-05-24T18:50:59Z</time>
      </trkpt>
      <trkpt lat="59.8537129" lon="17.7332805">
        <ele>9.75061</ele>
        <time>2013-05-24T18:51:00Z</time>
      </trkpt>
      <trkpt lat="59.8536749" lon="17.7334418">
        <ele>9.2699</ele>
        <time>2013-05-24T18:51:01Z</time>
      </trkpt>
      <trkpt lat="59.8536324" lon="17.7335929">
        <ele>9.75061</ele>
        <time>2013-05-24T18:51:02Z</time>
      </trkpt>
      <trkpt lat="59.8535873" lon="17.7337406">
        <ele>10.2312</ele>
        <time>2013-05-24T18:51:03Z</time>
      </trkpt>
      <trkpt lat="59.8535398" lon="17.73388">
        <ele>10.7118</ele>
        <time>2013-05-24T18:51:04Z</time>
      </trkpt>
      <trkpt lat="59.85349" lon="17.7340059">
        <ele>11.1925</ele>
        <time>2013-05-24T18:51:05Z</time>
      </trkpt>
      <trkpt lat="59.8534373" lon="17.7341182">
        <ele>11.6732</ele>
        <time>2013-05-24T18:51:06Z</time>
      </trkpt>
      <trkpt lat="59.8533855" lon="17.7342249">
        <ele>12.1538</ele>
        <time>2013-05-24T18:51:07Z</time>
      </trkpt>
      <trkpt lat="59.853333" lon="17.7343234">
        <ele>12.6344</ele>
        <time>2013-05-24T18:51:08Z</time>
      </trkpt>
      <trkpt lat="59.8532778" lon="17.7344077">
        <ele>13.1151</ele>
        <time>2013-05-24T18:51:09Z</time>
      </trkpt>
      <trkpt lat="59.8532218" lon="17.7344836">
        <ele>13.5958</ele>
        <time>2013-05-24T18:51:10Z</time>
      </trkpt>
      <trkpt lat="59.8531643" lon="17.7345514">
        <ele>13.5958</ele>
        <time>2013-05-24T18:51:11Z</time>
      </trkpt>
      <trkpt lat="59.8531064" lon="17.7346157">
        <ele>13.5958</ele>
        <time>2013-05-24T18:51:12Z</time>
      </trkpt>
      <trkpt lat="59.8530496" lon="17.7346803">
        <ele>13.5958</ele>
        <time>2013-05-24T18:51:13Z</time>
      </trkpt>
      <trkpt lat="59.8529931" lon="17.7347461">
        <ele>13.5958</ele>
        <time>2013-05-24T18:51:14Z</time>
      </trkpt>
      <trkpt lat="59.8529353" lon="17.7348129">
        <ele>13.5958</ele>
        <time>2013-05-24T18:51:15Z</time>
      </trkpt>
      <trkpt lat="59.8528777" lon="17.7348775">
        <ele>14.0764</ele>
        <time>2013-05-24T18:51:16Z</time>
      </trkpt>
      <trkpt lat="59.8528209" lon="17.7349409">
        <ele>14.0764</ele>
        <time>2013-05-24T18:51:17Z</time>
      </trkpt>
      <trkpt lat="59.8527649" lon="17.7350082">
        <ele>14.0764</ele>
        <time>2013-05-24T18:51:18Z</time>
      </trkpt>
      <trkpt lat="59.8527084" lon="17.7350797">
        <ele>14.0764</ele>
        <time>2013-05-24T18:51:19Z</time>
      </trkpt>
      <trkpt lat="59.8526521" lon="17.7351517">
        <ele>14.0764</ele>
        <time>2013-05-24T18:51:20Z</time>
      </trkpt>
      <trkpt lat="59.8525955" lon="17.7352238">
        <ele>14.0764</ele>
        <time>2013-05-24T18:51:21Z</time>
      </trkpt>
      <trkpt lat="59.8525385" lon="17.7352967">
        <ele>14.0764</ele>
        <time>2013-05-24T18:51:22Z</time>
      </trkpt>
      <trkpt lat="59.8524795" lon="17.7353682">
        <ele>14.0764</ele>
        <time>2013-05-24T18:51:23Z</time>
      </trkpt>
      <trkpt lat="59.8524198" lon="17.7354416">
        <ele>14.0764</ele>
        <time>2013-05-24T18:51:24Z</time>
      </trkpt>
      <trkpt lat="59.8523598" lon="17.7355157">
        <ele>14.0764</ele>
        <time>2013-05-24T18:51:25Z</time>
      </trkpt>
      <trkpt lat="59.852299" lon="17.7355879">
        <ele>14.0764</ele>
        <time>2013-05-24T18:51:26Z</time>
      </trkpt>
      <trkpt lat="59.852238" lon="17.7356597">
        <ele>14.0764</ele>
        <time>2013-05-24T18:51:27Z</time>
      </trkpt>
      <trkpt lat="59.8521765" lon="17.7357299">
        <ele>13.5958</ele>
        <time>2013-05-24T18:51:28Z</time>
      </trkpt>
      <trkpt lat="59.8521157" lon="17.7357997">
        <ele>13.5958</ele>
        <time>2013-05-24T18:51:29Z</time>
      </trkpt>
      <trkpt lat="59.8520557" lon="17.7358743">
        <ele>13.5958</ele>
        <time>2013-05-24T18:51:30Z</time>
      </trkpt>
      <trkpt lat="59.8519975" lon="17.735953">
        <ele>13.5958</ele>
        <time>2013-05-24T18:51:31Z</time>
      </trkpt>
      <trkpt lat="59.85194" lon="17.7360323">
        <ele>13.5958</ele>
        <time>2013-05-24T18:51:32Z</time>
      </trkpt>
      <trkpt lat="59.8518844" lon="17.7361147">
        <ele>13.1151</ele>
        <time>2013-05-24T18:51:33Z</time>
      </trkpt>
      <trkpt lat="59.8518304" lon="17.7362013">
        <ele>13.1151</ele>
        <time>2013-05-24T18:51:34Z</time>
      </trkpt>
      <trkpt lat="59.8517759" lon="17.7362904">
        <ele>13.1151</ele>
        <time>2013-05-24T18:51:35Z</time>
      </trkpt>
      <trkpt lat="59.851721" lon="17.7363815">
        <ele>12.6344</ele>
        <time>2013-05-24T18:51:36Z</time>
      </trkpt>
      <trkpt lat="59.8516709" lon="17.7364641">
        <ele>12.6344</ele>
        <time>2013-05-24T18:51:37Z</time>
      </trkpt>
      <trkpt lat="59.8516155" lon="17.7365506">
        <ele>12.6344</ele>
        <time>2013-05-24T18:51:38Z</time>
      </trkpt>
      <trkpt lat="59.8515594" lon="17.7366394">
        <ele>13.1151</ele>
        <time>2013-05-24T18:51:39Z</time>
      </trkpt>
      <trkpt lat="59.8515011" lon="17.7367232">
        <ele>13.1151</ele>
        <time>2013-05-24T18:51:40Z</time>
      </trkpt>
      <trkpt lat="59.8514403" lon="17.7368005">
        <ele>13.1151</ele>
        <time>2013-05-24T18:51:41Z</time>
      </trkpt>
      <trkpt lat="59.8513766" lon="17.7368732">
        <ele>13.1151</ele>
        <time>2013-05-24T18:51:42Z</time>
      </trkpt>
      <trkpt lat="59.8513114" lon="17.7369431">
        <ele>13.1151</ele>
        <time>2013-05-24T18:51:43Z</time>
      </trkpt>
      <trkpt lat="59.851245" lon="17.7370106">
        <ele>13.1151</ele>
        <time>2013-05-24T18:51:44Z</time>
      </trkpt>
      <trkpt lat="59.8511788" lon="17.7370764">
        <ele>13.5958</ele>
        <time>2013-05-24T18:51:45Z</time>
      </trkpt>
      <trkpt lat="59.8511096" lon="17.7371372">
        <ele>13.5958</ele>
        <time>2013-05-24T18:51:46Z</time>
      </trkpt>
      <trkpt lat="59.8510395" lon="17.7371973">
        <ele>13.5958</ele>
        <time>2013-05-24T18:51:47Z</time>
      </trkpt>
      <trkpt lat="59.8509695" lon="17.7372578">
        <ele>13.5958</ele>
        <time>2013-05-24T18:51:48Z</time>
      </trkpt>
      <trkpt lat="59.8508978" lon="17.737318">
        <ele>13.5958</ele>
        <time>2013-05-24T18:51:49Z</time>
      </trkpt>
      <trkpt lat="59.8508248" lon="17.737378">
        <ele>13.5958</ele>
        <time>2013-05-24T18:51:50Z</time>
      </trkpt>
      <trkpt lat="59.8507528" lon="17.7374371">
        <ele>13.5958</ele>
        <time>2013-05-24T18:51:51Z</time>
      </trkpt>
      <trkpt lat="59.8506818" lon="17.7374927">
        <ele>13.5958</ele>
        <time>2013-05-24T18:51:52Z</time>
      </trkpt>
      <trkpt lat="59.8506115" lon="17.7375444">
        <ele>13.5958</ele>
        <time>2013-05-24T18:51:53Z</time>
      </trkpt>
      <trkpt lat="59.8505417" lon="17.7375942">
        <ele>13.5958</ele>
        <time>2013-05-24T18:51:54Z</time>
      </trkpt>
      <trkpt lat="59.8504725" lon="17.7376432">
        <ele>13.5958</ele>
        <time>2013-05-24T18:51:55Z</time>
      </trkpt>
      <trkpt lat="59.8504041" lon="17.7376898">
        <ele>14.0764</ele>
        <time>2013-05-24T18:51:56Z</time>
      </trkpt>
      <trkpt lat="59.8503347" lon="17.7377329">
        <ele>14.0764</ele>
        <time>2013-05-24T18:51:57Z</time>
      </trkpt>
      <trkpt lat="59.8502655" lon="17.7377753">
        <ele>14.0764</ele>
        <time>2013-05-24T18:51:58Z</time>
      </trkpt>
      <trkpt lat="59.8502009" lon="17.7378081">
        <ele>14.0764</ele>
        <time>2013-05-24T18:51:59Z</time>
      </trkpt>
      <trkpt lat="59.8501344" lon="17.7378439">
        <ele>14.557</ele>
        <time>2013-05-24T18:52:00Z</time>
      </trkpt>
      <trkpt lat="59.850069" lon="17.7378733">
        <ele>15.0377</ele>
        <time>2013-05-24T18:52:01Z</time>
      </trkpt>
      <trkpt lat="59.8499982" lon="17.7379038">
        <ele>15.0377</ele>
        <time>2013-05-24T18:52:02Z</time>
      </trkpt>
      <trkpt lat="59.8499292" lon="17.7379293">
        <ele>15.0377</ele>
        <time>2013-05-24T18:52:03Z</time>
      </trkpt>
      <trkpt lat="59.8498612" lon="17.7379519">
        <ele>15.0377</ele>
        <time>2013-05-24T18:52:04Z</time>
      </trkpt>
      <trkpt lat="59.8497935" lon="17.7379731">
        <ele>15.5184</ele>
        <time>2013-05-24T18:52:05Z</time>
      </trkpt>
      <trkpt lat="59.8497299" lon="17.7379863">
        <ele>15.5184</ele>
        <time>2013-05-24T18:52:06Z</time>
      </trkpt>
      <trkpt lat="59.8496585" lon="17.738012">
        <ele>15.5184</ele>
        <time>2013-05-24T18:52:07Z</time>
      </trkpt>
      <trkpt lat="59.8495862" lon="17.738041">
        <ele>15.5184</ele>
        <time>2013-05-24T18:52:08Z</time>
      </trkpt>
      <trkpt lat="59.8495132" lon="17.7380715">
        <ele>15.5184</ele>
        <time>2013-05-24T18:52:09Z</time>
      </trkpt>
      <trkpt lat="59.8494398" lon="17.7381034">
        <ele>15.999</ele>
        <time>2013-05-24T18:52:10Z</time>
      </trkpt>
      <trkpt lat="59.8493662" lon="17.7381395">
        <ele>15.5184</ele>
        <time>2013-05-24T18:52:11Z</time>
      </trkpt>
      <trkpt lat="59.8492917" lon="17.7381747">
        <ele>15.5184</ele>
        <time>2013-05-24T18:52:12Z</time>
      </trkpt>
      <trkpt lat="59.8492161" lon="17.7382091">
        <ele>15.5184</ele>
        <time>2013-05-24T18:52:13Z</time>
      </trkpt>
      <trkpt lat="59.8491394" lon="17.7382473">
        <ele>15.5184</ele>
        <time>2013-05-24T18:52:14Z</time>
      </trkpt>
      <trkpt lat="59.8490657" lon="17.7382829">
        <ele>15.5184</ele>
        <time>2013-05-24T18:52:15Z</time>
      </trkpt>
      <trkpt lat="59.8489917" lon="17.7383193">
        <ele>15.5184</ele>
        <time>2013-05-24T18:52:16Z</time>
      </trkpt>
      <trkpt lat="59.8489176" lon="17.738358">
        <ele>15.5184</ele>
        <time>2013-05-24T18:52:17Z</time>
      </trkpt>
      <trkpt lat="59.8488429" lon="17.7383977">
        <ele>15.0377</ele>
        <time>2013-05-24T18:52:18Z</time>
      </trkpt>
      <trkpt lat="59.8487675" lon="17.738437">
        <ele>15.0377</ele>
        <time>2013-05-24T18:52:19Z</time>
      </trkpt>
      <trkpt lat="59.8486911" lon="17.7384757">
        <ele>14.557</ele>
        <time>2013-05-24T18:52:20Z</time>
      </trkpt>
      <trkpt lat="59.8486152" lon="17.7385172">
        <ele>14.0764</ele>
        <time>2013-05-24T18:52:21Z</time>
      </trkpt>
      <trkpt lat="59.8485426" lon="17.7385638">
        <ele>13.5958</ele>
        <time>2013-05-24T18:52:22Z</time>
      </trkpt>
      <trkpt lat="59.8484706" lon="17.7386136">
        <ele>13.1151</ele>
        <time>2013-05-24T18:52:23Z</time>
      </trkpt>
      <trkpt lat="59.8483999" lon="17.738657">
        <ele>12.6344</ele>
        <time>2013-05-24T18:52:24Z</time>
      </trkpt>
      <trkpt lat="59.8483209" lon="17.7387119">
        <ele>12.6344</ele>
        <time>2013-05-24T18:52:25Z</time>
      </trkpt>
      <trkpt lat="59.8482473" lon="17.7387534">
        <ele>12.6344</ele>
        <time>2013-05-24T18:52:26Z</time>
      </trkpt>
      <trkpt lat="59.8481791" lon="17.7387783">
        <ele>12.6344</ele>
        <time>2013-05-24T18:52:27Z</time>
      </trkpt>
      <trkpt lat="59.848108" lon="17.738801">
        <ele>12.1538</ele>
        <time>2013-05-24T18:52:28Z</time>
      </trkpt>
      <trkpt lat="59.848042" lon="17.7388197">
        <ele>12.1538</ele>
        <time>2013-05-24T18:52:29Z</time>
      </trkpt>
      <trkpt lat="59.8479769" lon="17.7388507">
        <ele>12.1538</ele>
        <time>2013-05-24T18:52:30Z</time>
      </trkpt>
      <trkpt lat="59.8479163" lon="17.7389017">
        <ele>11.6732</ele>
        <time>2013-05-24T18:52:31Z</time>
      </trkpt>
      <trkpt lat="59.8478614" lon="17.7389813">
        <ele>11.6732</ele>
        <time>2013-05-24T18:52:32Z</time>
      </trkpt>
      <trkpt lat="59.8478169" lon="17.7390798">
        <ele>11.1925</ele>
        <time>2013-05-24T18:52:33Z</time>
      </trkpt>
      <trkpt lat="59.8477941" lon="17.7392013">
        <ele>11.1925</ele>
        <time>2013-05-24T18:52:34Z</time>
      </trkpt>
      <trkpt lat="59.84778" lon="17.7393292">
        <ele>11.1925</ele>
        <time>2013-05-24T18:52:35Z</time>
      </trkpt>
      <trkpt lat="59.8477706" lon="17.7394609">
        <ele>10.7118</ele>
        <time>2013-05-24T18:52:36Z</time>
      </trkpt>
      <trkpt lat="59.8477638" lon="17.7395948">
        <ele>10.7118</ele>
        <time>2013-05-24T18:52:37Z</time>
      </trkpt>
      <trkpt lat="59.8477605" lon="17.7397323">
        <ele>10.2312</ele>
        <time>2013-05-24T18:52:38Z</time>
      </trkpt>
      <trkpt lat="59.8477603" lon="17.7398713">
        <ele>10.2312</ele>
        <time>2013-05-24T18:52:39Z</time>
      </trkpt>
      <trkpt lat="59.8477603" lon="17.7400121">
        <ele>10.2312</ele>
        <time>2013-05-24T18:52:40Z</time>
      </trkpt>
      <trkpt lat="59.8477598" lon="17.7401539">
        <ele>10.2312</ele>
        <time>2013-05-24T18:52:41Z</time>
      </trkpt>
      <trkpt lat="59.8477589" lon="17.7402962">
        <ele>10.2312</ele>
        <time>2013-05-24T18:52:42Z</time>
      </trkpt>
      <trkpt lat="59.8477594" lon="17.7404395">
        <ele>10.2312</ele>
        <time>2013-05-24T18:52:43Z</time>
      </trkpt>
      <trkpt lat="59.8477609" lon="17.740584">
        <ele>10.2312</ele>
        <time>2013-05-24T18:52:44Z</time>
      </trkpt>
      <trkpt lat="59.847764" lon="17.7407291">
        <ele>10.2312</ele>
        <time>2013-05-24T18:52:45Z</time>
      </trkpt>
      <trkpt lat="59.8477682" lon="17.7408719">
        <ele>10.2312</ele>
        <time>2013-05-24T18:52:46Z</time>
      </trkpt>
      <trkpt lat="59.8477707" lon="17.7410162">
        <ele>10.2312</ele>
        <time>2013-05-24T18:52:47Z</time>
      </trkpt>
      <trkpt lat="59.8477718" lon="17.7411607">
        <ele>10.2312</ele>
        <time>2013-05-24T18:52:48Z</time>
      </trkpt>
      <trkpt lat="59.8477708" lon="17.7413072">
        <ele>10.2312</ele>
        <time>2013-05-24T18:52:49Z</time>
      </trkpt>
      <trkpt lat="59.8477677" lon="17.7414562">
        <ele>10.2312</ele>
        <time>2013-05-24T18:52:50Z</time>
      </trkpt>
      <trkpt lat="59.8477661" lon="17.7416017">
        <ele>10.2312</ele>
        <time>2013-05-24T18:52:51Z</time>
      </trkpt>
      <trkpt lat="59.8477626" lon="17.7417533">
        <ele>10.2312</ele>
        <time>2013-05-24T18:52:52Z</time>
      </trkpt>
      <trkpt lat="59.8477613" lon="17.7419079">
        <ele>10.2312</ele>
        <time>2013-05-24T18:52:53Z</time>
      </trkpt>
      <trkpt lat="59.8477583" lon="17.7420686">
        <ele>10.2312</ele>
        <time>2013-05-24T18:52:54Z</time>
      </trkpt>
      <trkpt lat="59.8477553" lon="17.7422276">
        <ele>10.2312</ele>
        <time>2013-05-24T18:52:55Z</time>
      </trkpt>
      <trkpt lat="59.8477547" lon="17.7423843">
        <ele>10.2312</ele>
        <time>2013-05-24T18:52:56Z</time>
      </trkpt>
      <trkpt lat="59.8477535" lon="17.7425411">
        <ele>10.7118</ele>
        <time>2013-05-24T18:52:57Z</time>
      </trkpt>
      <trkpt lat="59.8477511" lon="17.742698">
        <ele>10.7118</ele>
        <time>2013-05-24T18:52:58Z</time>
      </trkpt>
      <trkpt lat="59.8477474" lon="17.7428539">
        <ele>10.7118</ele>
        <time>2013-05-24T18:52:59Z</time>
      </trkpt>
      <trkpt lat="59.8477428" lon="17.7430097">
        <ele>10.7118</ele>
        <time>2013-05-24T18:53:00Z</time>
      </trkpt>
      <trkpt lat="59.8477397" lon="17.7431659">
        <ele>11.1925</ele>
        <time>2013-05-24T18:53:01Z</time>
      </trkpt>
      <trkpt lat="59.8477372" lon="17.7433226">
        <ele>11.1925</ele>
        <time>2013-05-24T18:53:02Z</time>
      </trkpt>
      <trkpt lat="59.847736" lon="17.743479">
        <ele>11.1925</ele>
        <time>2013-05-24T18:53:03Z</time>
      </trkpt>
      <trkpt lat="59.8477349" lon="17.7436349">
        <ele>11.6732</ele>
        <time>2013-05-24T18:53:04Z</time>
      </trkpt>
      <trkpt lat="59.8477336" lon="17.7437885">
        <ele>11.6732</ele>
        <time>2013-05-24T18:53:05Z</time>
      </trkpt>
      <trkpt lat="59.8477318" lon="17.7439418">
        <ele>11.6732</ele>
        <time>2013-05-24T18:53:06Z</time>
      </trkpt>
      <trkpt lat="59.8477317" lon="17.7440946">
        <ele>12.1538</ele>
        <time>2013-05-24T18:53:07Z</time>
      </trkpt>
      <trkpt lat="59.8477313" lon="17.7442462">
        <ele>12.1538</ele>
        <time>2013-05-24T18:53:08Z</time>
      </trkpt>
      <trkpt lat="59.8477296" lon="17.7443962">
        <ele>12.6344</ele>
        <time>2013-05-24T18:53:09Z</time>
      </trkpt>
      <trkpt lat="59.8477278" lon="17.7445446">
        <ele>12.6344</ele>
        <time>2013-05-24T18:53:10Z</time>
      </trkpt>
      <trkpt lat="59.8477248" lon="17.744694">
        <ele>12.6344</ele>
        <time>2013-05-24T18:53:11Z</time>
      </trkpt>
      <trkpt lat="59.8477234" lon="17.7448421">
        <ele>13.1151</ele>
        <time>2013-05-24T18:53:12Z</time>
      </trkpt>
      <trkpt lat="59.8477221" lon="17.7449866">
        <ele>13.1151</ele>
        <time>2013-05-24T18:53:13Z</time>
      </trkpt>
      <trkpt lat="59.8477189" lon="17.7451317">
        <ele>13.5958</ele>
        <time>2013-05-24T18:53:14Z</time>
      </trkpt>
      <trkpt lat="59.8477159" lon="17.7452767">
        <ele>13.5958</ele>
        <time>2013-05-24T18:53:15Z</time>
      </trkpt>
      <trkpt lat="59.8477139" lon="17.745419">
        <ele>14.0764</ele>
        <time>2013-05-24T18:53:16Z</time>
      </trkpt>
      <trkpt lat="59.8477136" lon="17.7455583">
        <ele>14.0764</ele>
        <time>2013-05-24T18:53:17Z</time>
      </trkpt>
      <trkpt lat="59.8477133" lon="17.7456969">
        <ele>14.557</ele>
        <time>2013-05-24T18:53:18Z</time>
      </trkpt>
      <trkpt lat="59.8477126" lon="17.7458331">
        <ele>15.0377</ele>
        <time>2013-05-24T18:53:19Z</time>
      </trkpt>
      <trkpt lat="59.8477122" lon="17.7459676">
        <ele>15.0377</ele>
        <time>2013-05-24T18:53:20Z</time>
      </trkpt>
      <trkpt lat="59.8477122" lon="17.746104">
        <ele>15.5184</ele>
        <time>2013-05-24T18:53:21Z</time>
      </trkpt>
      <trkpt lat="59.8477107" lon="17.7462421">
        <ele>15.5184</ele>
        <time>2013-05-24T18:53:22Z</time>
      </trkpt>
      <trkpt lat="59.8477085" lon="17.74638">
        <ele>15.999</ele>
        <time>2013-05-24T18:53:23Z</time>
      </trkpt>
      <trkpt lat="59.8477061" lon="17.7465163">
        <ele>15.999</ele>
        <time>2013-05-24T18:53:24Z</time>
      </trkpt>
      <trkpt lat="59.8477034" lon="17.7466499">
        <ele>16.4797</ele>
        <time>2013-05-24T18:53:25Z</time>
      </trkpt>
      <trkpt lat="59.8477008" lon="17.746781">
        <ele>16.9604</ele>
        <time>2013-05-24T18:53:26Z</time>
      </trkpt>
      <trkpt lat="59.8476972" lon="17.7469143">
        <ele>16.9604</ele>
        <time>2013-05-24T18:53:27Z</time>
      </trkpt>
      <trkpt lat="59.8476958" lon="17.7470441">
        <ele>16.9604</ele>
        <time>2013-05-24T18:53:28Z</time>
      </trkpt>
      <trkpt lat="59.8476962" lon="17.7471733">
        <ele>16.9604</ele>
        <time>2013-05-24T18:53:29Z</time>
      </trkpt>
      <trkpt lat="59.8476941" lon="17.7473004">
        <ele>17.4412</ele>
        <time>2013-05-24T18:53:30Z</time>
      </trkpt>
      <trkpt lat="59.8476906" lon="17.7474245">
        <ele>17.4412</ele>
        <time>2013-05-24T18:53:31Z</time>
      </trkpt>
      <trkpt lat="59.847689" lon="17.7475487">
        <ele>17.9218</ele>
        <time>2013-05-24T18:53:32Z</time>
      </trkpt>
      <trkpt lat="59.8476887" lon="17.7476733">
        <ele>17.9218</ele>
        <time>2013-05-24T18:53:33Z</time>
      </trkpt>
      <trkpt lat="59.8476848" lon="17.7477998">
        <ele>17.9218</ele>
        <time>2013-05-24T18:53:34Z</time>
      </trkpt>
      <trkpt lat="59.8476835" lon="17.7479251">
        <ele>17.9218</ele>
        <time>2013-05-24T18:53:35Z</time>
      </trkpt>
      <trkpt lat="59.8476846" lon="17.7480471">
        <ele>17.9218</ele>
        <time>2013-05-24T18:53:36Z</time>
      </trkpt>
      <trkpt lat="59.8476904" lon="17.7481698">
        <ele>17.9218</ele>
        <time>2013-05-24T18:53:37Z</time>
      </trkpt>
      <trkpt lat="59.8476903" lon="17.7482988">
        <ele>17.9218</ele>
        <time>2013-05-24T18:53:38Z</time>
      </trkpt>
      <trkpt lat="59.8476882" lon="17.7484309">
        <ele>17.9218</ele>
        <time>2013-05-24T18:53:39Z</time>
      </trkpt>
      <trkpt lat="59.8476878" lon="17.7485639">
        <ele>17.9218</ele>
        <time>2013-05-24T18:53:40Z</time>
      </trkpt>
      <trkpt lat="59.8476894" lon="17.7486955">
        <ele>17.9218</ele>
        <time>2013-05-24T18:53:41Z</time>
      </trkpt>
      <trkpt lat="59.84769" lon="17.7488282">
        <ele>17.9218</ele>
        <time>2013-05-24T18:53:42Z</time>
      </trkpt>
      <trkpt lat="59.8476924" lon="17.7489572">
        <ele>17.9218</ele>
        <time>2013-05-24T18:53:43Z</time>
      </trkpt>
      <trkpt lat="59.8476939" lon="17.7490881">
        <ele>18.4023</ele>
        <time>2013-05-24T18:53:44Z</time>
      </trkpt>
      <trkpt lat="59.8476972" lon="17.7492191">
        <ele>18.8831</ele>
        <time>2013-05-24T18:53:45Z</time>
      </trkpt>
      <trkpt lat="59.8476977" lon="17.7493539">
        <ele>18.8831</ele>
        <time>2013-05-24T18:53:46Z</time>
      </trkpt>
      <trkpt lat="59.8476998" lon="17.74949">
        <ele>19.3638</ele>
        <time>2013-05-24T18:53:47Z</time>
      </trkpt>
      <trkpt lat="59.8477064" lon="17.7496182">
        <ele>19.8444</ele>
        <time>2013-05-24T18:53:48Z</time>
      </trkpt>
      <trkpt lat="59.8477065" lon="17.749756">
        <ele>19.8444</ele>
        <time>2013-05-24T18:53:49Z</time>
      </trkpt>
      <trkpt lat="59.8477158" lon="17.7498821">
        <ele>20.325</ele>
        <time>2013-05-24T18:53:50Z</time>
      </trkpt>
      <trkpt lat="59.8477152" lon="17.7500217">
        <ele>20.8057</ele>
        <time>2013-05-24T18:53:51Z</time>
      </trkpt>
      <trkpt lat="59.8477267" lon="17.7501512">
        <ele>21.767</ele>
        <time>2013-05-24T18:53:52Z</time>
      </trkpt>
      <trkpt lat="59.8477386" lon="17.7502789">
        <ele>22.7283</ele>
        <time>2013-05-24T18:53:53Z</time>
      </trkpt>
      <trkpt lat="59.8477535" lon="17.7504048">
        <ele>23.6896</ele>
        <time>2013-05-24T18:53:54Z</time>
      </trkpt>
      <trkpt lat="59.8477708" lon="17.7505236">
        <ele>24.651</ele>
        <time>2013-05-24T18:53:55Z</time>
      </trkpt>
      <trkpt lat="59.8477869" lon="17.7506489">
        <ele>25.1317</ele>
        <time>2013-05-24T18:53:56Z</time>
      </trkpt>
      <trkpt lat="59.8478033" lon="17.7507821">
        <ele>26.0929</ele>
        <time>2013-05-24T18:53:57Z</time>
      </trkpt>
      <trkpt lat="59.847823" lon="17.7509142">
        <ele>27.5349</ele>
        <time>2013-05-24T18:53:58Z</time>
      </trkpt>
      <trkpt lat="59.8478396" lon="17.7510489">
        <ele>28.4962</ele>
        <time>2013-05-24T18:53:59Z</time>
      </trkpt>
      <trkpt lat="59.8478574" lon="17.7511876">
        <ele>29.4575</ele>
        <time>2013-05-24T18:54:00Z</time>
      </trkpt>
      <trkpt lat="59.8478733" lon="17.7513262">
        <ele>29.9381</ele>
        <time>2013-05-24T18:54:01Z</time>
      </trkpt>
      <trkpt lat="59.8478889" lon="17.7514792">
        <ele>29.4575</ele>
        <time>2013-05-24T18:54:02Z</time>
      </trkpt>
      <trkpt lat="59.8479151" lon="17.7516291">
        <ele>29.4575</ele>
        <time>2013-05-24T18:54:03Z</time>
      </trkpt>
      <trkpt lat="59.8479415" lon="17.7517806">
        <ele>28.9769</ele>
        <time>2013-05-24T18:54:04Z</time>
      </trkpt>
      <trkpt lat="59.8479659" lon="17.7519342">
        <ele>28.4962</ele>
        <time>2013-05-24T18:54:05Z</time>
      </trkpt>
      <trkpt lat="59.8479898" lon="17.7520913">
        <ele>28.0155</ele>
        <time>2013-05-24T18:54:06Z</time>
      </trkpt>
      <trkpt lat="59.8480132" lon="17.7522495">
        <ele>27.5349</ele>
        <time>2013-05-24T18:54:07Z</time>
      </trkpt>
      <trkpt lat="59.8480374" lon="17.7524098">
        <ele>27.0543</ele>
        <time>2013-05-24T18:54:08Z</time>
      </trkpt>
      <trkpt lat="59.8480634" lon="17.7525719">
        <ele>26.0929</ele>
        <time>2013-05-24T18:54:09Z</time>
      </trkpt>
      <trkpt lat="59.8480884" lon="17.7527423">
        <ele>26.0929</ele>
        <time>2013-05-24T18:54:10Z</time>
      </trkpt>
      <trkpt lat="59.8481127" lon="17.7529172">
        <ele>25.6123</ele>
        <time>2013-05-24T18:54:11Z</time>
      </trkpt>
      <trkpt lat="59.8481323" lon="17.7530922">
        <ele>25.6123</ele>
        <time>2013-05-24T18:54:12Z</time>
      </trkpt>
      <trkpt lat="59.8481516" lon="17.7532716">
        <ele>25.6123</ele>
        <time>2013-05-24T18:54:13Z</time>
      </trkpt>
      <trkpt lat="59.8481699" lon="17.7534544">
        <ele>25.1317</ele>
        <time>2013-05-24T18:54:14Z</time>
      </trkpt>
      <trkpt lat="59.8482003" lon="17.7536297">
        <ele>25.6123</ele>
        <time>2013-05-24T18:54:15Z</time>
      </trkpt>
      <trkpt lat="59.8482287" lon="17.7538012">
        <ele>25.6123</ele>
        <time>2013-05-24T18:54:16Z</time>
      </trkpt>
      <trkpt lat="59.8482499" lon="17.7539757">
        <ele>25.1317</ele>
        <time>2013-05-24T18:54:17Z</time>
      </trkpt>
      <trkpt lat="59.8482728" lon="17.754144">
        <ele>25.1317</ele>
        <time>2013-05-24T18:54:18Z</time>
      </trkpt>
      <trkpt lat="59.8482938" lon="17.7543098">
        <ele>24.651</ele>
        <time>2013-05-24T18:54:19Z</time>
      </trkpt>
      <trkpt lat="59.8483125" lon="17.754472">
        <ele>24.1703</ele>
        <time>2013-05-24T18:54:20Z</time>
      </trkpt>
      <trkpt lat="59.8483261" lon="17.754635">
        <ele>23.209</ele>
        <time>2013-05-24T18:54:21Z</time>
      </trkpt>
      <trkpt lat="59.8483438" lon="17.7547957">
        <ele>22.7283</ele>
        <time>2013-05-24T18:54:22Z</time>
      </trkpt>
      <trkpt lat="59.8483648" lon="17.7549566">
        <ele>22.7283</ele>
        <time>2013-05-24T18:54:23Z</time>
      </trkpt>
      <trkpt lat="59.8483851" lon="17.7551154">
        <ele>22.7283</ele>
        <time>2013-05-24T18:54:24Z</time>
      </trkpt>
      <trkpt lat="59.8484015" lon="17.7552746">
        <ele>22.7283</ele>
        <time>2013-05-24T18:54:25Z</time>
      </trkpt>
      <trkpt lat="59.8484171" lon="17.7554353">
        <ele>22.7283</ele>
        <time>2013-05-24T18:54:26Z</time>
      </trkpt>
      <trkpt lat="59.8484305" lon="17.7555939">
        <ele>22.7283</ele>
        <time>2013-05-24T18:54:27Z</time>
      </trkpt>
      <trkpt lat="59.8484431" lon="17.7557505">
        <ele>22.7283</ele>
        <time>2013-05-24T18:54:28Z</time>
      </trkpt>
      <trkpt lat="59.8484536" lon="17.7559046">
        <ele>22.7283</ele>
        <time>2013-05-24T18:54:29Z</time>
      </trkpt>
      <trkpt lat="59.8484602" lon="17.7560642">
        <ele>22.2476</ele>
        <time>2013-05-24T18:54:30Z</time>
      </trkpt>
      <trkpt lat="59.848467" lon="17.7562216">
        <ele>22.2476</ele>
        <time>2013-05-24T18:54:31Z</time>
      </trkpt>
      <trkpt lat="59.8484743" lon="17.756377">
        <ele>22.2476</ele>
        <time>2013-05-24T18:54:32Z</time>
      </trkpt>
      <trkpt lat="59.8484814" lon="17.7565304">
        <ele>22.2476</ele>
        <time>2013-05-24T18:54:33Z</time>
      </trkpt>
      <trkpt lat="59.8484924" lon="17.7566875">
        <ele>22.7283</ele>
        <time>2013-05-24T18:54:34Z</time>
      </trkpt>
      <trkpt lat="59.8484986" lon="17.756839">
        <ele>22.7283</ele>
        <time>2013-05-24T18:54:35Z</time>
      </trkpt>
      <trkpt lat="59.8485043" lon="17.7569931">
        <ele>23.209</ele>
        <time>2013-05-24T18:54:36Z</time>
      </trkpt>
      <trkpt lat="59.8485057" lon="17.7571412">
        <ele>23.209</ele>
        <time>2013-05-24T18:54:37Z</time>
      </trkpt>
      <trkpt lat="59.8485056" lon="17.7572855">
        <ele>23.209</ele>
        <time>2013-05-24T18:54:38Z</time>
      </trkpt>
      <trkpt lat="59.8485054" lon="17.7574282">
        <ele>23.6896</ele>
        <time>2013-05-24T18:54:39Z</time>
      </trkpt>
      <trkpt lat="59.8485052" lon="17.7575712">
        <ele>23.6896</ele>
        <time>2013-05-24T18:54:40Z</time>
      </trkpt>
      <trkpt lat="59.8485038" lon="17.7577141">
        <ele>23.6896</ele>
        <time>2013-05-24T18:54:41Z</time>
      </trkpt>
      <trkpt lat="59.8485021" lon="17.757856">
        <ele>24.1703</ele>
        <time>2013-05-24T18:54:42Z</time>
      </trkpt>
      <trkpt lat="59.8484992" lon="17.7579975">
        <ele>24.651</ele>
        <time>2013-05-24T18:54:43Z</time>
      </trkpt>
      <trkpt lat="59.8484947" lon="17.7581405">
        <ele>24.651</ele>
        <time>2013-05-24T18:54:44Z</time>
      </trkpt>
      <trkpt lat="59.8484903" lon="17.7582846">
        <ele>24.651</ele>
        <time>2013-05-24T18:54:45Z</time>
      </trkpt>
      <trkpt lat="59.8484871" lon="17.7584305">
        <ele>24.651</ele>
        <time>2013-05-24T18:54:46Z</time>
      </trkpt>
      <trkpt lat="59.8484836" lon="17.7585782">
        <ele>24.651</ele>
        <time>2013-05-24T18:54:47Z</time>
      </trkpt>
      <trkpt lat="59.8484794" lon="17.7587282">
        <ele>24.651</ele>
        <time>2013-05-24T18:54:48Z</time>
      </trkpt>
      <trkpt lat="59.8484747" lon="17.7588807">
        <ele>24.651</ele>
        <time>2013-05-24T18:54:49Z</time>
      </trkpt>
      <trkpt lat="59.8484694" lon="17.7590345">
        <ele>24.651</ele>
        <time>2013-05-24T18:54:50Z</time>
      </trkpt>
      <trkpt lat="59.8484633" lon="17.7591893">
        <ele>24.651</ele>
        <time>2013-05-24T18:54:51Z</time>
      </trkpt>
      <trkpt lat="59.8484597" lon="17.7593415">
        <ele>24.651</ele>
        <time>2013-05-24T18:54:52Z</time>
      </trkpt>
      <trkpt lat="59.8484564" lon="17.7594956">
        <ele>24.651</ele>
        <time>2013-05-24T18:54:53Z</time>
      </trkpt>
      <trkpt lat="59.848453" lon="17.7596493">
        <ele>24.651</ele>
        <time>2013-05-24T18:54:54Z</time>
      </trkpt>
      <trkpt lat="59.8484486" lon="17.7598037">
        <ele>24.1703</ele>
        <time>2013-05-24T18:54:55Z</time>
      </trkpt>
      <trkpt lat="59.8484425" lon="17.7599592">
        <ele>23.6896</ele>
        <time>2013-05-24T18:54:56Z</time>
      </trkpt>
      <trkpt lat="59.8484369" lon="17.7601162">
        <ele>23.6896</ele>
        <time>2013-05-24T18:54:57Z</time>
      </trkpt>
      <trkpt lat="59.8484317" lon="17.7602736">
        <ele>23.209</ele>
        <time>2013-05-24T18:54:58Z</time>
      </trkpt>
      <trkpt lat="59.8484261" lon="17.7604317">
        <ele>22.7283</ele>
        <time>2013-05-24T18:54:59Z</time>
      </trkpt>
      <trkpt lat="59.8484209" lon="17.7605901">
        <ele>22.7283</ele>
        <time>2013-05-24T18:55:00Z</time>
      </trkpt>
      <trkpt lat="59.8484161" lon="17.7607481">
        <ele>22.2476</ele>
        <time>2013-05-24T18:55:01Z</time>
      </trkpt>
      <trkpt lat="59.8484117" lon="17.7609046">
        <ele>21.767</ele>
        <time>2013-05-24T18:55:02Z</time>
      </trkpt>
      <trkpt lat="59.8484064" lon="17.7610605">
        <ele>21.767</ele>
        <time>2013-05-24T18:55:03Z</time>
      </trkpt>
      <trkpt lat="59.8484027" lon="17.7612185">
        <ele>21.2864</ele>
        <time>2013-05-24T18:55:04Z</time>
      </trkpt>
      <trkpt lat="59.8483987" lon="17.7613739">
        <ele>21.2864</ele>
        <time>2013-05-24T18:55:05Z</time>
      </trkpt>
      <trkpt lat="59.8483935" lon="17.7615307">
        <ele>20.8057</ele>
        <time>2013-05-24T18:55:06Z</time>
      </trkpt>
      <trkpt lat="59.8483875" lon="17.7616878">
        <ele>20.325</ele>
        <time>2013-05-24T18:55:07Z</time>
      </trkpt>
      <trkpt lat="59.8483811" lon="17.7618462">
        <ele>19.8444</ele>
        <time>2013-05-24T18:55:08Z</time>
      </trkpt>
      <trkpt lat="59.8483763" lon="17.7620054">
        <ele>19.8444</ele>
        <time>2013-05-24T18:55:09Z</time>
      </trkpt>
      <trkpt lat="59.8483721" lon="17.7621649">
        <ele>19.3638</ele>
        <time>2013-05-24T18:55:10Z</time>
      </trkpt>
      <trkpt lat="59.8483675" lon="17.7623243">
        <ele>19.3638</ele>
        <time>2013-05-24T18:55:11Z</time>
      </trkpt>
      <trkpt lat="59.8483621" lon="17.762484">
        <ele>19.3638</ele>
        <time>2013-05-24T18:55:12Z</time>
      </trkpt>
      <trkpt lat="59.8483565" lon="17.7626449">
        <ele>18.8831</ele>
        <time>2013-05-24T18:55:13Z</time>
      </trkpt>
      <trkpt lat="59.8483451" lon="17.7628055">
        <ele>18.8831</ele>
        <time>2013-05-24T18:55:14Z</time>
      </trkpt>
      <trkpt lat="59.8483181" lon="17.7629595">
        <ele>18.8831</ele>
        <time>2013-05-24T18:55:15Z</time>
      </trkpt>
      <trkpt lat="59.8482732" lon="17.7631">
        <ele>18.8831</ele>
        <time>2013-05-24T18:55:16Z</time>
      </trkpt>
      <trkpt lat="59.8482176" lon="17.7632267">
        <ele>18.8831</ele>
        <time>2013-05-24T18:55:17Z</time>
      </trkpt>
      <trkpt lat="59.8481603" lon="17.7633506">
        <ele>19.3638</ele>
        <time>2013-05-24T18:55:18Z</time>
      </trkpt>
      <trkpt lat="59.8481023" lon="17.7634758">
        <ele>19.3638</ele>
        <time>2013-05-24T18:55:19Z</time>
      </trkpt>
      <trkpt lat="59.8480443" lon="17.7636024">
        <ele>19.3638</ele>
        <time>2013-05-24T18:55:20Z</time>
      </trkpt>
      <trkpt lat="59.8479861" lon="17.7637302">
        <ele>19.3638</ele>
        <time>2013-05-24T18:55:21Z</time>
      </trkpt>
      <trkpt lat="59.8479272" lon="17.7638586">
        <ele>19.3638</ele>
        <time>2013-05-24T18:55:22Z</time>
      </trkpt>
      <trkpt lat="59.8478686" lon="17.763986">
        <ele>19.3638</ele>
        <time>2013-05-24T18:55:23Z</time>
      </trkpt>
      <trkpt lat="59.847809" lon="17.7641116">
        <ele>19.3638</ele>
        <time>2013-05-24T18:55:24Z</time>
      </trkpt>
      <trkpt lat="59.8477485" lon="17.7642367">
        <ele>19.3638</ele>
        <time>2013-05-24T18:55:25Z</time>
      </trkpt>
      <trkpt lat="59.847688" lon="17.764361">
        <ele>19.3638</ele>
        <time>2013-05-24T18:55:26Z</time>
      </trkpt>
      <trkpt lat="59.8476295" lon="17.7644859">
        <ele>19.3638</ele>
        <time>2013-05-24T18:55:27Z</time>
      </trkpt>
      <trkpt lat="59.8475733" lon="17.7646125">
        <ele>19.3638</ele>
        <time>2013-05-24T18:55:28Z</time>
      </trkpt>
      <trkpt lat="59.8475172" lon="17.7647368">
        <ele>19.3638</ele>
        <time>2013-05-24T18:55:29Z</time>
      </trkpt>
      <trkpt lat="59.8474605" lon="17.7648564">
        <ele>18.8831</ele>
        <time>2013-05-24T18:55:30Z</time>
      </trkpt>
      <trkpt lat="59.8474046" lon="17.7649739">
        <ele>19.3638</ele>
        <time>2013-05-24T18:55:31Z</time>
      </trkpt>
      <trkpt lat="59.8473489" lon="17.7650895">
        <ele>18.8831</ele>
        <time>2013-05-24T18:55:32Z</time>
      </trkpt>
      <trkpt lat="59.8472955" lon="17.7652077">
        <ele>18.8831</ele>
        <time>2013-05-24T18:55:33Z</time>
      </trkpt>
      <trkpt lat="59.8472512" lon="17.7653387">
        <ele>18.8831</ele>
        <time>2013-05-24T18:55:34Z</time>
      </trkpt>
      <trkpt lat="59.8472332" lon="17.7655009">
        <ele>18.8831</ele>
        <time>2013-05-24T18:55:35Z</time>
      </trkpt>
      <trkpt lat="59.8472336" lon="17.7656548">
        <ele>18.8831</ele>
        <time>2013-05-24T18:55:36Z</time>
      </trkpt>
      <trkpt lat="59.8472523" lon="17.7658054">
        <ele>18.8831</ele>
        <time>2013-05-24T18:55:37Z</time>
      </trkpt>
      <trkpt lat="59.8472776" lon="17.7659475">
        <ele>18.8831</ele>
        <time>2013-05-24T18:55:38Z</time>
      </trkpt>
      <trkpt lat="59.8473014" lon="17.766096">
        <ele>18.8831</ele>
        <time>2013-05-24T18:55:39Z</time>
      </trkpt>
      <trkpt lat="59.8473254" lon="17.7662437">
        <ele>18.8831</ele>
        <time>2013-05-24T18:55:40Z</time>
      </trkpt>
      <trkpt lat="59.8473492" lon="17.7663901">
        <ele>18.8831</ele>
        <time>2013-05-24T18:55:41Z</time>
      </trkpt>
      <trkpt lat="59.8473729" lon="17.7665337">
        <ele>18.8831</ele>
        <time>2013-05-24T18:55:42Z</time>
      </trkpt>
      <trkpt lat="59.8473962" lon="17.7666767">
        <ele>18.4023</ele>
        <time>2013-05-24T18:55:43Z</time>
      </trkpt>
      <trkpt lat="59.8474193" lon="17.7668206">
        <ele>18.4023</ele>
        <time>2013-05-24T18:55:44Z</time>
      </trkpt>
      <trkpt lat="59.8474423" lon="17.7669669">
        <ele>18.4023</ele>
        <time>2013-05-24T18:55:45Z</time>
      </trkpt>
      <trkpt lat="59.8474656" lon="17.7671155">
        <ele>18.4023</ele>
        <time>2013-05-24T18:55:46Z</time>
      </trkpt>
      <trkpt lat="59.8474891" lon="17.7672648">
        <ele>17.9218</ele>
        <time>2013-05-24T18:55:47Z</time>
      </trkpt>
      <trkpt lat="59.8475133" lon="17.7674145">
        <ele>17.9218</ele>
        <time>2013-05-24T18:55:48Z</time>
      </trkpt>
      <trkpt lat="59.8475382" lon="17.7675636">
        <ele>17.9218</ele>
        <time>2013-05-24T18:55:49Z</time>
      </trkpt>
      <trkpt lat="59.8475636" lon="17.7677123">
        <ele>17.9218</ele>
        <time>2013-05-24T18:55:50Z</time>
      </trkpt>
      <trkpt lat="59.84759" lon="17.7678604">
        <ele>17.9218</ele>
        <time>2013-05-24T18:55:51Z</time>
      </trkpt>
      <trkpt lat="59.8476168" lon="17.7680075">
        <ele>17.4412</ele>
        <time>2013-05-24T18:55:52Z</time>
      </trkpt>
      <trkpt lat="59.8476433" lon="17.7681539">
        <ele>17.4412</ele>
        <time>2013-05-24T18:55:53Z</time>
      </trkpt>
      <trkpt lat="59.8476682" lon="17.7683007">
        <ele>17.4412</ele>
        <time>2013-05-24T18:55:54Z</time>
      </trkpt>
      <trkpt lat="59.8476906" lon="17.7684479">
        <ele>17.4412</ele>
        <time>2013-05-24T18:55:55Z</time>
      </trkpt>
      <trkpt lat="59.8477127" lon="17.7685939">
        <ele>17.4412</ele>
        <time>2013-05-24T18:55:56Z</time>
      </trkpt>
      <trkpt lat="59.847736" lon="17.7687389">
        <ele>17.4412</ele>
        <time>2013-05-24T18:55:57Z</time>
      </trkpt>
      <trkpt lat="59.8477579" lon="17.7688846">
        <ele>17.4412</ele>
        <time>2013-05-24T18:55:58Z</time>
      </trkpt>
      <trkpt lat="59.8477794" lon="17.7690312">
        <ele>17.4412</ele>
        <time>2013-05-24T18:55:59Z</time>
      </trkpt>
      <trkpt lat="59.8478008" lon="17.769178">
        <ele>17.4412</ele>
        <time>2013-05-24T18:56:00Z</time>
      </trkpt>
      <trkpt lat="59.8478222" lon="17.7693253">
        <ele>17.4412</ele>
        <time>2013-05-24T18:56:01Z</time>
      </trkpt>
      <trkpt lat="59.8478441" lon="17.7694736">
        <ele>16.9604</ele>
        <time>2013-05-24T18:56:02Z</time>
      </trkpt>
      <trkpt lat="59.8478675" lon="17.7696204">
        <ele>17.4412</ele>
        <time>2013-05-24T18:56:03Z</time>
      </trkpt>
      <trkpt lat="59.8479299" lon="17.7698953">
        <ele>16.9604</ele>
        <time>2013-05-24T18:56:04Z</time>
      </trkpt>
      <trkpt lat="59.8479685" lon="17.7700288">
        <ele>16.9604</ele>
        <time>2013-05-24T18:56:05Z</time>
      </trkpt>
      <trkpt lat="59.8480107" lon="17.7701589">
        <ele>16.9604</ele>
        <time>2013-05-24T18:56:06Z</time>
      </trkpt>
      <trkpt lat="59.8480531" lon="17.77029">
        <ele>16.4797</ele>
        <time>2013-05-24T18:56:07Z</time>
      </trkpt>
      <trkpt lat="59.8480867" lon="17.7704318">
        <ele>16.4797</ele>
        <time>2013-05-24T18:56:08Z</time>
      </trkpt>
      <trkpt lat="59.8481078" lon="17.7705841">
        <ele>16.4797</ele>
        <time>2013-05-24T18:56:09Z</time>
      </trkpt>
      <trkpt lat="59.8481203" lon="17.7707415">
        <ele>15.999</ele>
        <time>2013-05-24T18:56:10Z</time>
      </trkpt>
      <trkpt lat="59.8481299" lon="17.7708991">
        <ele>15.999</ele>
        <time>2013-05-24T18:56:11Z</time>
      </trkpt>
      <trkpt lat="59.8481421" lon="17.7710559">
        <ele>15.999</ele>
        <time>2013-05-24T18:56:12Z</time>
      </trkpt>
      <trkpt lat="59.8481598" lon="17.7712104">
        <ele>15.5184</ele>
        <time>2013-05-24T18:56:13Z</time>
      </trkpt>
      <trkpt lat="59.8481826" lon="17.7713616">
        <ele>15.5184</ele>
        <time>2013-05-24T18:56:14Z</time>
      </trkpt>
      <trkpt lat="59.8482076" lon="17.7715108">
        <ele>15.5184</ele>
        <time>2013-05-24T18:56:15Z</time>
      </trkpt>
      <trkpt lat="59.8482342" lon="17.7716569">
        <ele>15.5184</ele>
        <time>2013-05-24T18:56:16Z</time>
      </trkpt>
      <trkpt lat="59.8482604" lon="17.7718014">
        <ele>15.5184</ele>
        <time>2013-05-24T18:56:17Z</time>
      </trkpt>
      <trkpt lat="59.8482856" lon="17.7719452">
        <ele>15.5184</ele>
        <time>2013-05-24T18:56:18Z</time>
      </trkpt>
      <trkpt lat="59.8483093" lon="17.7720882">
        <ele>15.5184</ele>
        <time>2013-05-24T18:56:19Z</time>
      </trkpt>
      <trkpt lat="59.8483329" lon="17.7722277">
        <ele>15.5184</ele>
        <time>2013-05-24T18:56:20Z</time>
      </trkpt>
      <trkpt lat="59.8483573" lon="17.7723635">
        <ele>15.5184</ele>
        <time>2013-05-24T18:56:21Z</time>
      </trkpt>
      <trkpt lat="59.8483814" lon="17.772497">
        <ele>15.999</ele>
        <time>2013-05-24T18:56:22Z</time>
      </trkpt>
      <trkpt lat="59.8484047" lon="17.7726207">
        <ele>15.999</ele>
        <time>2013-05-24T18:56:23Z</time>
      </trkpt>
      <trkpt lat="59.8484269" lon="17.7727399">
        <ele>16.4797</ele>
        <time>2013-05-24T18:56:24Z</time>
      </trkpt>
      <trkpt lat="59.8484457" lon="17.7728618">
        <ele>16.9604</ele>
        <time>2013-05-24T18:56:25Z</time>
      </trkpt>
      <trkpt lat="59.8484613" lon="17.7729834">
        <ele>16.9604</ele>
        <time>2013-05-24T18:56:26Z</time>
      </trkpt>
      <trkpt lat="59.8484752" lon="17.773098">
        <ele>17.4412</ele>
        <time>2013-05-24T18:56:27Z</time>
      </trkpt>
      <trkpt lat="59.8484866" lon="17.7732079">
        <ele>17.9218</ele>
        <time>2013-05-24T18:56:28Z</time>
      </trkpt>
      <trkpt lat="59.8484961" lon="17.773315">
        <ele>18.4023</ele>
        <time>2013-05-24T18:56:29Z</time>
      </trkpt>
      <trkpt lat="59.8485056" lon="17.7734213">
        <ele>18.8831</ele>
        <time>2013-05-24T18:56:30Z</time>
      </trkpt>
      <trkpt lat="59.8485162" lon="17.7735281">
        <ele>19.3638</ele>
        <time>2013-05-24T18:56:31Z</time>
      </trkpt>
      <trkpt lat="59.8485279" lon="17.773634">
        <ele>19.3638</ele>
        <time>2013-05-24T18:56:32Z</time>
      </trkpt>
      <trkpt lat="59.8485393" lon="17.7737272">
        <ele>19.8444</ele>
        <time>2013-05-24T18:56:33Z</time>
      </trkpt>
      <trkpt lat="59.8485513" lon="17.7738221">
        <ele>20.325</ele>
        <time>2013-05-24T18:56:34Z</time>
      </trkpt>
      <trkpt lat="59.8485647" lon="17.773917">
        <ele>20.325</ele>
        <time>2013-05-24T18:56:35Z</time>
      </trkpt>
      <trkpt lat="59.8485778" lon="17.7740132">
        <ele>20.8057</ele>
        <time>2013-05-24T18:56:36Z</time>
      </trkpt>
      <trkpt lat="59.8485906" lon="17.7741105">
        <ele>21.2864</ele>
        <time>2013-05-24T18:56:37Z</time>
      </trkpt>
      <trkpt lat="59.8486031" lon="17.7742086">
        <ele>21.2864</ele>
        <time>2013-05-24T18:56:38Z</time>
      </trkpt>
      <trkpt lat="59.8486154" lon="17.774306">
        <ele>21.767</ele>
        <time>2013-05-24T18:56:39Z</time>
      </trkpt>
      <trkpt lat="59.8486286" lon="17.7744084">
        <ele>22.2476</ele>
        <time>2013-05-24T18:56:40Z</time>
      </trkpt>
      <trkpt lat="59.8486411" lon="17.7745117">
        <ele>22.2476</ele>
        <time>2013-05-24T18:56:41Z</time>
      </trkpt>
      <trkpt lat="59.8486528" lon="17.7746116">
        <ele>22.7283</ele>
        <time>2013-05-24T18:56:42Z</time>
      </trkpt>
      <trkpt lat="59.8486623" lon="17.7747111">
        <ele>22.7283</ele>
        <time>2013-05-24T18:56:43Z</time>
      </trkpt>
      <trkpt lat="59.84867" lon="17.7748057">
        <ele>23.209</ele>
        <time>2013-05-24T18:56:44Z</time>
      </trkpt>
      <trkpt lat="59.8486767" lon="17.7749001">
        <ele>23.6896</ele>
        <time>2013-05-24T18:56:45Z</time>
      </trkpt>
      <trkpt lat="59.848683" lon="17.7749876">
        <ele>23.6896</ele>
        <time>2013-05-24T18:56:46Z</time>
      </trkpt>
      <trkpt lat="59.8486908" lon="17.7750747">
        <ele>24.1703</ele>
        <time>2013-05-24T18:56:47Z</time>
      </trkpt>
      <trkpt lat="59.8487001" lon="17.7751598">
        <ele>24.1703</ele>
        <time>2013-05-24T18:56:48Z</time>
      </trkpt>
      <trkpt lat="59.8487089" lon="17.7752481">
        <ele>24.651</ele>
        <time>2013-05-24T18:56:49Z</time>
      </trkpt>
      <trkpt lat="59.8487175" lon="17.7753377">
        <ele>24.651</ele>
        <time>2013-05-24T18:56:50Z</time>
      </trkpt>
      <trkpt lat="59.848726" lon="17.7754284">
        <ele>25.6123</ele>
        <time>2013-05-24T18:56:51Z</time>
      </trkpt>
      <trkpt lat="59.8487335" lon="17.775513">
        <ele>26.0929</ele>
        <time>2013-05-24T18:56:52Z</time>
      </trkpt>
      <trkpt lat="59.84874" lon="17.7755913">
        <ele>26.5736</ele>
        <time>2013-05-24T18:56:53Z</time>
      </trkpt>
      <trkpt lat="59.8487449" lon="17.7756698">
        <ele>26.5736</ele>
        <time>2013-05-24T18:56:54Z</time>
      </trkpt>
      <trkpt lat="59.8487494" lon="17.7757476">
        <ele>27.0543</ele>
        <time>2013-05-24T18:56:55Z</time>
      </trkpt>
      <trkpt lat="59.8487539" lon="17.7758244">
        <ele>27.5349</ele>
        <time>2013-05-24T18:56:56Z</time>
      </trkpt>
      <trkpt lat="59.8487584" lon="17.7759052">
        <ele>27.5349</ele>
        <time>2013-05-24T18:56:57Z</time>
      </trkpt>
      <trkpt lat="59.8487638" lon="17.7759776">
        <ele>28.0155</ele>
        <time>2013-05-24T18:56:58Z</time>
      </trkpt>
      <trkpt lat="59.8487682" lon="17.7760506">
        <ele>28.0155</ele>
        <time>2013-05-24T18:56:59Z</time>
      </trkpt>
      <trkpt lat="59.8487716" lon="17.7761241">
        <ele>28.4962</ele>
        <time>2013-05-24T18:57:00Z</time>
      </trkpt>
      <trkpt lat="59.8487746" lon="17.7761895">
        <ele>28.4962</ele>
        <time>2013-05-24T18:57:01Z</time>
      </trkpt>
      <trkpt lat="59.8487781" lon="17.7762644">
        <ele>29.4575</ele>
        <time>2013-05-24T18:57:02Z</time>
      </trkpt>
      <trkpt lat="59.8487824" lon="17.7763403">
        <ele>30.4188</ele>
        <time>2013-05-24T18:57:03Z</time>
      </trkpt>
      <trkpt lat="59.8487866" lon="17.776419">
        <ele>30.4188</ele>
        <time>2013-05-24T18:57:04Z</time>
      </trkpt>
      <trkpt lat="59.8487901" lon="17.776497">
        <ele>30.8995</ele>
        <time>2013-05-24T18:57:05Z</time>
      </trkpt>
      <trkpt lat="59.8487933" lon="17.7765698">
        <ele>30.8995</ele>
        <time>2013-05-24T18:57:06Z</time>
      </trkpt>
      <trkpt lat="59.8487952" lon="17.7766515">
        <ele>30.8995</ele>
        <time>2013-05-24T18:57:07Z</time>
      </trkpt>
      <trkpt lat="59.8487983" lon="17.7767303">
        <ele>31.8607</ele>
        <time>2013-05-24T18:57:08Z</time>
      </trkpt>
      <trkpt lat="59.8488021" lon="17.7768131">
        <ele>32.3416</ele>
        <time>2013-05-24T18:57:09Z</time>
      </trkpt>
      <trkpt lat="59.8488057" lon="17.7768908">
        <ele>32.8223</ele>
        <time>2013-05-24T18:57:10Z</time>
      </trkpt>
      <trkpt lat="59.8488084" lon="17.7769713">
        <ele>33.3029</ele>
        <time>2013-05-24T18:57:11Z</time>
      </trkpt>
      <trkpt lat="59.8488129" lon="17.7770432">
        <ele>33.3029</ele>
        <time>2013-05-24T18:57:12Z</time>
      </trkpt>
      <trkpt lat="59.848817" lon="17.777117">
        <ele>33.3029</ele>
        <time>2013-05-24T18:57:13Z</time>
      </trkpt>
      <trkpt lat="59.8488252" lon="17.7772052">
        <ele>33.7834</ele>
        <time>2013-05-24T18:57:14Z</time>
      </trkpt>
      <trkpt lat="59.8488322" lon="17.7772857">
        <ele>33.7834</ele>
        <time>2013-05-24T18:57:15Z</time>
      </trkpt>
      <trkpt lat="59.8488383" lon="17.7773737">
        <ele>33.7834</ele>
        <time>2013-05-24T18:57:16Z</time>
      </trkpt>
      <trkpt lat="59.8488461" lon="17.7774584">
        <ele>33.7834</ele>
        <time>2013-05-24T18:57:17Z</time>
      </trkpt>
      <trkpt lat="59.8488539" lon="17.7775514">
        <ele>33.7834</ele>
        <time>2013-05-24T18:57:18Z</time>
      </trkpt>
      <trkpt lat="59.8488613" lon="17.7776338">
        <ele>33.7834</ele>
        <time>2013-05-24T18:57:19Z</time>
      </trkpt>
      <trkpt lat="59.8488669" lon="17.7777181">
        <ele>33.3029</ele>
        <time>2013-05-24T18:57:20Z</time>
      </trkpt>
      <trkpt lat="59.8488678" lon="17.7778083">
        <ele>33.3029</ele>
        <time>2013-05-24T18:57:21Z</time>
      </trkpt>
      <trkpt lat="59.848868" lon="17.7778992">
        <ele>32.8223</ele>
        <time>2013-05-24T18:57:22Z</time>
      </trkpt>
      <trkpt lat="59.8488674" lon="17.7779932">
        <ele>32.3416</ele>
        <time>2013-05-24T18:57:23Z</time>
      </trkpt>
      <trkpt lat="59.8488658" lon="17.7780909">
        <ele>32.3416</ele>
        <time>2013-05-24T18:57:24Z</time>
      </trkpt>
      <trkpt lat="59.8488672" lon="17.7781853">
        <ele>32.8223</ele>
        <time>2013-05-24T18:57:25Z</time>
      </trkpt>
      <trkpt lat="59.848867" lon="17.7782839">
        <ele>32.3416</ele>
        <time>2013-05-24T18:57:26Z</time>
      </trkpt>
      <trkpt lat="59.8488679" lon="17.7783724">
        <ele>31.8607</ele>
        <time>2013-05-24T18:57:27Z</time>
      </trkpt>
      <trkpt lat="59.8488695" lon="17.7784621">
        <ele>31.8607</ele>
        <time>2013-05-24T18:57:28Z</time>
      </trkpt>
      <trkpt lat="59.8488724" lon="17.7785605">
        <ele>31.3801</ele>
        <time>2013-05-24T18:57:29Z</time>
      </trkpt>
      <trkpt lat="59.8488767" lon="17.7786639">
        <ele>30.8995</ele>
        <time>2013-05-24T18:57:30Z</time>
      </trkpt>
      <trkpt lat="59.8488834" lon="17.7787665">
        <ele>30.4188</ele>
        <time>2013-05-24T18:57:31Z</time>
      </trkpt>
      <trkpt lat="59.8488908" lon="17.7788682">
        <ele>29.9381</ele>
        <time>2013-05-24T18:57:32Z</time>
      </trkpt>
      <trkpt lat="59.8488944" lon="17.7789722">
        <ele>29.4575</ele>
        <time>2013-05-24T18:57:33Z</time>
      </trkpt>
      <trkpt lat="59.8488975" lon="17.7790831">
        <ele>28.4962</ele>
        <time>2013-05-24T18:57:34Z</time>
      </trkpt>
      <trkpt lat="59.8489003" lon="17.7791925">
        <ele>27.5349</ele>
        <time>2013-05-24T18:57:35Z</time>
      </trkpt>
      <trkpt lat="59.8489022" lon="17.779299">
        <ele>27.0543</ele>
        <time>2013-05-24T18:57:36Z</time>
      </trkpt>
      <trkpt lat="59.8489078" lon="17.7794048">
        <ele>26.5736</ele>
        <time>2013-05-24T18:57:37Z</time>
      </trkpt>
      <trkpt lat="59.8489159" lon="17.7795141">
        <ele>26.0929</ele>
        <time>2013-05-24T18:57:38Z</time>
      </trkpt>
      <trkpt lat="59.8489275" lon="17.7796248">
        <ele>25.1317</ele>
        <time>2013-05-24T18:57:39Z</time>
      </trkpt>
      <trkpt lat="59.8489442" lon="17.7797342">
        <ele>24.651</ele>
        <time>2013-05-24T18:57:40Z</time>
      </trkpt>
      <trkpt lat="59.8489674" lon="17.7798446">
        <ele>23.6896</ele>
        <time>2013-05-24T18:57:41Z</time>
      </trkpt>
      <trkpt lat="59.8489917" lon="17.7799601">
        <ele>23.209</ele>
        <time>2013-05-24T18:57:42Z</time>
      </trkpt>
      <trkpt lat="59.8490143" lon="17.7800873">
        <ele>22.7283</ele>
        <time>2013-05-24T18:57:43Z</time>
      </trkpt>
      <trkpt lat="59.8490295" lon="17.7802142">
        <ele>22.2476</ele>
        <time>2013-05-24T18:57:44Z</time>
      </trkpt>
      <trkpt lat="59.8490464" lon="17.7803442">
        <ele>21.767</ele>
        <time>2013-05-24T18:57:45Z</time>
      </trkpt>
      <trkpt lat="59.8490647" lon="17.7804759">
        <ele>21.767</ele>
        <time>2013-05-24T18:57:46Z</time>
      </trkpt>
      <trkpt lat="59.8490844" lon="17.7806072">
        <ele>21.2864</ele>
        <time>2013-05-24T18:57:47Z</time>
      </trkpt>
      <trkpt lat="59.8491025" lon="17.780734">
        <ele>20.8057</ele>
        <time>2013-05-24T18:57:48Z</time>
      </trkpt>
      <trkpt lat="59.8491233" lon="17.7808593">
        <ele>20.325</ele>
        <time>2013-05-24T18:57:49Z</time>
      </trkpt>
      <trkpt lat="59.8491466" lon="17.7809838">
        <ele>19.8444</ele>
        <time>2013-05-24T18:57:50Z</time>
      </trkpt>
      <trkpt lat="59.849169" lon="17.7811075">
        <ele>18.8831</ele>
        <time>2013-05-24T18:57:51Z</time>
      </trkpt>
      <trkpt lat="59.8491921" lon="17.7812309">
        <ele>18.4023</ele>
        <time>2013-05-24T18:57:52Z</time>
      </trkpt>
      <trkpt lat="59.8492161" lon="17.7813551">
        <ele>17.9218</ele>
        <time>2013-05-24T18:57:53Z</time>
      </trkpt>
      <trkpt lat="59.8492402" lon="17.781481">
        <ele>17.4412</ele>
        <time>2013-05-24T18:57:54Z</time>
      </trkpt>
      <trkpt lat="59.8492626" lon="17.7816088">
        <ele>16.9604</ele>
        <time>2013-05-24T18:57:55Z</time>
      </trkpt>
      <trkpt lat="59.8492854" lon="17.781738">
        <ele>16.9604</ele>
        <time>2013-05-24T18:57:56Z</time>
      </trkpt>
      <trkpt lat="59.8493102" lon="17.7818675">
        <ele>16.4797</ele>
        <time>2013-05-24T18:57:57Z</time>
      </trkpt>
      <trkpt lat="59.8493357" lon="17.7819972">
        <ele>16.4797</ele>
        <time>2013-05-24T18:57:58Z</time>
      </trkpt>
      <trkpt lat="59.8493617" lon="17.7821269">
        <ele>16.4797</ele>
        <time>2013-05-24T18:57:59Z</time>
      </trkpt>
      <trkpt lat="59.8493869" lon="17.7822541">
        <ele>15.999</ele>
        <time>2013-05-24T18:58:00Z</time>
      </trkpt>
      <trkpt lat="59.8494113" lon="17.7823806">
        <ele>15.999</ele>
        <time>2013-05-24T18:58:01Z</time>
      </trkpt>
      <trkpt lat="59.8494363" lon="17.7825095">
        <ele>15.999</ele>
        <time>2013-05-24T18:58:02Z</time>
      </trkpt>
      <trkpt lat="59.849459" lon="17.7826361">
        <ele>15.999</ele>
        <time>2013-05-24T18:58:03Z</time>
      </trkpt>
      <trkpt lat="59.8494812" lon="17.7827597">
        <ele>15.999</ele>
        <time>2013-05-24T18:58:04Z</time>
      </trkpt>
      <trkpt lat="59.8495054" lon="17.7828817">
        <ele>15.999</ele>
        <time>2013-05-24T18:58:05Z</time>
      </trkpt>
      <trkpt lat="59.8495313" lon="17.7830023">
        <ele>15.999</ele>
        <time>2013-05-24T18:58:06Z</time>
      </trkpt>
      <trkpt lat="59.8495578" lon="17.7831216">
        <ele>15.999</ele>
        <time>2013-05-24T18:58:07Z</time>
      </trkpt>
      <trkpt lat="59.8495842" lon="17.7832406">
        <ele>15.999</ele>
        <time>2013-05-24T18:58:08Z</time>
      </trkpt>
      <trkpt lat="59.8496091" lon="17.7833587">
        <ele>15.5184</ele>
        <time>2013-05-24T18:58:09Z</time>
      </trkpt>
      <trkpt lat="59.8496351" lon="17.783478">
        <ele>15.5184</ele>
        <time>2013-05-24T18:58:10Z</time>
      </trkpt>
      <trkpt lat="59.849663" lon="17.7835982">
        <ele>15.5184</ele>
        <time>2013-05-24T18:58:11Z</time>
      </trkpt>
      <trkpt lat="59.8496891" lon="17.7837194">
        <ele>15.0377</ele>
        <time>2013-05-24T18:58:12Z</time>
      </trkpt>
      <trkpt lat="59.8497126" lon="17.7838436">
        <ele>15.0377</ele>
        <time>2013-05-24T18:58:13Z</time>
      </trkpt>
      <trkpt lat="59.849733" lon="17.7839705">
        <ele>15.5184</ele>
        <time>2013-05-24T18:58:14Z</time>
      </trkpt>
      <trkpt lat="59.8497507" lon="17.7840926">
        <ele>15.5184</ele>
        <time>2013-05-24T18:58:15Z</time>
      </trkpt>
      <trkpt lat="59.8497688" lon="17.7842083">
        <ele>15.5184</ele>
        <time>2013-05-24T18:58:16Z</time>
      </trkpt>
      <trkpt lat="59.8497951" lon="17.7843197">
        <ele>15.5184</ele>
        <time>2013-05-24T18:58:17Z</time>
      </trkpt>
      <trkpt lat="59.8498281" lon="17.7844289">
        <ele>15.999</ele>
        <time>2013-05-24T18:58:18Z</time>
      </trkpt>
      <trkpt lat="59.8498605" lon="17.7845398">
        <ele>16.4797</ele>
        <time>2013-05-24T18:58:19Z</time>
      </trkpt>
      <trkpt lat="59.8498949" lon="17.7846506">
        <ele>16.9604</ele>
        <time>2013-05-24T18:58:20Z</time>
      </trkpt>
      <trkpt lat="59.8499258" lon="17.7847587">
        <ele>17.4412</ele>
        <time>2013-05-24T18:58:21Z</time>
      </trkpt>
      <trkpt lat="59.8499597" lon="17.7848637">
        <ele>17.9218</ele>
        <time>2013-05-24T18:58:22Z</time>
      </trkpt>
      <trkpt lat="59.849996" lon="17.7849691">
        <ele>18.8831</ele>
        <time>2013-05-24T18:58:23Z</time>
      </trkpt>
      <trkpt lat="59.8500249" lon="17.7850723">
        <ele>18.8831</ele>
        <time>2013-05-24T18:58:24Z</time>
      </trkpt>
      <trkpt lat="59.8500562" lon="17.7851719">
        <ele>18.8831</ele>
        <time>2013-05-24T18:58:25Z</time>
      </trkpt>
      <trkpt lat="59.8500835" lon="17.78527">
        <ele>18.8831</ele>
        <time>2013-05-24T18:58:26Z</time>
      </trkpt>
      <trkpt lat="59.8501106" lon="17.7853659">
        <ele>18.8831</ele>
        <time>2013-05-24T18:58:27Z</time>
      </trkpt>
      <trkpt lat="59.8501394" lon="17.7854573">
        <ele>18.8831</ele>
        <time>2013-05-24T18:58:28Z</time>
      </trkpt>
      <trkpt lat="59.8501705" lon="17.7855417">
        <ele>19.3638</ele>
        <time>2013-05-24T18:58:29Z</time>
      </trkpt>
      <trkpt lat="59.8502007" lon="17.7856199">
        <ele>19.3638</ele>
        <time>2013-05-24T18:58:30Z</time>
      </trkpt>
      <trkpt lat="59.8502303" lon="17.7856929">
        <ele>19.3638</ele>
        <time>2013-05-24T18:58:31Z</time>
      </trkpt>
      <trkpt lat="59.8502588" lon="17.7857675">
        <ele>19.3638</ele>
        <time>2013-05-24T18:58:32Z</time>
      </trkpt>
      <trkpt lat="59.8502857" lon="17.7858435">
        <ele>19.3638</ele>
        <time>2013-05-24T18:58:33Z</time>
      </trkpt>
      <trkpt lat="59.8503112" lon="17.7859203">
        <ele>19.3638</ele>
        <time>2013-05-24T18:58:34Z</time>
      </trkpt>
      <trkpt lat="59.8503401" lon="17.7859954">
        <ele>19.3638</ele>
        <time>2013-05-24T18:58:35Z</time>
      </trkpt>
      <trkpt lat="59.8503675" lon="17.7860722">
        <ele>19.3638</ele>
        <time>2013-05-24T18:58:36Z</time>
      </trkpt>
      <trkpt lat="59.8503938" lon="17.7861503">
        <ele>19.3638</ele>
        <time>2013-05-24T18:58:37Z</time>
      </trkpt>
      <trkpt lat="59.8504173" lon="17.7862249">
        <ele>19.3638</ele>
        <time>2013-05-24T18:58:38Z</time>
      </trkpt>
      <trkpt lat="59.8504425" lon="17.7862985">
        <ele>18.8831</ele>
        <time>2013-05-24T18:58:39Z</time>
      </trkpt>
      <trkpt lat="59.8504725" lon="17.786373">
        <ele>18.8831</ele>
        <time>2013-05-24T18:58:40Z</time>
      </trkpt>
      <trkpt lat="59.8505059" lon="17.7864506">
        <ele>19.3638</ele>
        <time>2013-05-24T18:58:41Z</time>
      </trkpt>
      <trkpt lat="59.8505349" lon="17.7865304">
        <ele>19.3638</ele>
        <time>2013-05-24T18:58:42Z</time>
      </trkpt>
      <trkpt lat="59.8505623" lon="17.7866124">
        <ele>19.3638</ele>
        <time>2013-05-24T18:58:43Z</time>
      </trkpt>
      <trkpt lat="59.8505891" lon="17.7866937">
        <ele>19.3638</ele>
        <time>2013-05-24T18:58:44Z</time>
      </trkpt>
      <trkpt lat="59.8506157" lon="17.7867701">
        <ele>19.3638</ele>
        <time>2013-05-24T18:58:45Z</time>
      </trkpt>
      <trkpt lat="59.850642" lon="17.7868444">
        <ele>19.3638</ele>
        <time>2013-05-24T18:58:46Z</time>
      </trkpt>
      <trkpt lat="59.8506689" lon="17.7869185">
        <ele>19.8444</ele>
        <time>2013-05-24T18:58:47Z</time>
      </trkpt>
      <trkpt lat="59.8506953" lon="17.7869931">
        <ele>19.8444</ele>
        <time>2013-05-24T18:58:48Z</time>
      </trkpt>
      <trkpt lat="59.8507206" lon="17.7870661">
        <ele>19.8444</ele>
        <time>2013-05-24T18:58:49Z</time>
      </trkpt>
      <trkpt lat="59.8507515" lon="17.7871429">
        <ele>20.325</ele>
        <time>2013-05-24T18:58:50Z</time>
      </trkpt>
      <trkpt lat="59.8507844" lon="17.7872195">
        <ele>21.2864</ele>
        <time>2013-05-24T18:58:51Z</time>
      </trkpt>
      <trkpt lat="59.8508171" lon="17.787295">
        <ele>21.767</ele>
        <time>2013-05-24T18:58:52Z</time>
      </trkpt>
      <trkpt lat="59.8508522" lon="17.7873693">
        <ele>22.7283</ele>
        <time>2013-05-24T18:58:53Z</time>
      </trkpt>
      <trkpt lat="59.8508831" lon="17.7874417">
        <ele>22.7283</ele>
        <time>2013-05-24T18:58:54Z</time>
      </trkpt>
      <trkpt lat="59.8509162" lon="17.787519">
        <ele>23.209</ele>
        <time>2013-05-24T18:58:55Z</time>
      </trkpt>
      <trkpt lat="59.8509506" lon="17.7875982">
        <ele>23.6896</ele>
        <time>2013-05-24T18:58:56Z</time>
      </trkpt>
      <trkpt lat="59.8509851" lon="17.7876784">
        <ele>24.1703</ele>
        <time>2013-05-24T18:58:57Z</time>
      </trkpt>
      <trkpt lat="59.8510204" lon="17.7877596">
        <ele>24.1703</ele>
        <time>2013-05-24T18:58:58Z</time>
      </trkpt>
      <trkpt lat="59.8510556" lon="17.787841">
        <ele>24.651</ele>
        <time>2013-05-24T18:58:59Z</time>
      </trkpt>
      <trkpt lat="59.8510877" lon="17.7879203">
        <ele>24.651</ele>
        <time>2013-05-24T18:59:00Z</time>
      </trkpt>
      <trkpt lat="59.8511213" lon="17.7880056">
        <ele>24.651</ele>
        <time>2013-05-24T18:59:01Z</time>
      </trkpt>
      <trkpt lat="59.8511561" lon="17.7880895">
        <ele>25.1317</ele>
        <time>2013-05-24T18:59:02Z</time>
      </trkpt>
      <trkpt lat="59.851192" lon="17.7881726">
        <ele>25.6123</ele>
        <time>2013-05-24T18:59:03Z</time>
      </trkpt>
      <trkpt lat="59.8512278" lon="17.7882576">
        <ele>25.6123</ele>
        <time>2013-05-24T18:59:04Z</time>
      </trkpt>
      <trkpt lat="59.8512667" lon="17.7883415">
        <ele>26.0929</ele>
        <time>2013-05-24T18:59:05Z</time>
      </trkpt>
      <trkpt lat="59.8513032" lon="17.7884279">
        <ele>26.5736</ele>
        <time>2013-05-24T18:59:06Z</time>
      </trkpt>
      <trkpt lat="59.85134" lon="17.788516">
        <ele>27.0543</ele>
        <time>2013-05-24T18:59:07Z</time>
      </trkpt>
      <trkpt lat="59.8513775" lon="17.7886047">
        <ele>27.5349</ele>
        <time>2013-05-24T18:59:08Z</time>
      </trkpt>
      <trkpt lat="59.8514149" lon="17.7886902">
        <ele>27.5349</ele>
        <time>2013-05-24T18:59:09Z</time>
      </trkpt>
      <trkpt lat="59.8514474" lon="17.7887741">
        <ele>27.0543</ele>
        <time>2013-05-24T18:59:10Z</time>
      </trkpt>
      <trkpt lat="59.8514819" lon="17.7888584">
        <ele>27.0543</ele>
        <time>2013-05-24T18:59:11Z</time>
      </trkpt>
      <trkpt lat="59.8515175" lon="17.7889417">
        <ele>27.0543</ele>
        <time>2013-05-24T18:59:12Z</time>
      </trkpt>
      <trkpt lat="59.8515486" lon="17.7890289">
        <ele>27.0543</ele>
        <time>2013-05-24T18:59:13Z</time>
      </trkpt>
      <trkpt lat="59.8515797" lon="17.7891157">
        <ele>26.5736</ele>
        <time>2013-05-24T18:59:14Z</time>
      </trkpt>
      <trkpt lat="59.8516144" lon="17.789202">
        <ele>26.5736</ele>
        <time>2013-05-24T18:59:15Z</time>
      </trkpt>
      <trkpt lat="59.85165" lon="17.7892901">
        <ele>26.5736</ele>
        <time>2013-05-24T18:59:16Z</time>
      </trkpt>
      <trkpt lat="59.8516857" lon="17.7893823">
        <ele>26.0929</ele>
        <time>2013-05-24T18:59:17Z</time>
      </trkpt>
      <trkpt lat="59.8517237" lon="17.7894817">
        <ele>26.0929</ele>
        <time>2013-05-24T18:59:18Z</time>
      </trkpt>
      <trkpt lat="59.851765" lon="17.7895848">
        <ele>26.0929</ele>
        <time>2013-05-24T18:59:19Z</time>
      </trkpt>
      <trkpt lat="59.8518061" lon="17.7896899">
        <ele>26.0929</ele>
        <time>2013-05-24T18:59:20Z</time>
      </trkpt>
      <trkpt lat="59.8518481" lon="17.7897981">
        <ele>26.0929</ele>
        <time>2013-05-24T18:59:21Z</time>
      </trkpt>
      <trkpt lat="59.8518885" lon="17.7899074">
        <ele>25.6123</ele>
        <time>2013-05-24T18:59:22Z</time>
      </trkpt>
      <trkpt lat="59.8519289" lon="17.7900167">
        <ele>25.1317</ele>
        <time>2013-05-24T18:59:23Z</time>
      </trkpt>
      <trkpt lat="59.8519714" lon="17.7901264">
        <ele>24.651</ele>
        <time>2013-05-24T18:59:24Z</time>
      </trkpt>
      <trkpt lat="59.8520118" lon="17.7902337">
        <ele>24.1703</ele>
        <time>2013-05-24T18:59:25Z</time>
      </trkpt>
      <trkpt lat="59.8520537" lon="17.7903393">
        <ele>23.209</ele>
        <time>2013-05-24T18:59:26Z</time>
      </trkpt>
      <trkpt lat="59.8520968" lon="17.7904451">
        <ele>22.7283</ele>
        <time>2013-05-24T18:59:27Z</time>
      </trkpt>
      <trkpt lat="59.8521386" lon="17.7905503">
        <ele>21.767</ele>
        <time>2013-05-24T18:59:28Z</time>
      </trkpt>
      <trkpt lat="59.852184" lon="17.7906584">
        <ele>21.767</ele>
        <time>2013-05-24T18:59:29Z</time>
      </trkpt>
      <trkpt lat="59.8522258" lon="17.7907662">
        <ele>20.8057</ele>
        <time>2013-05-24T18:59:30Z</time>
      </trkpt>
      <trkpt lat="59.8522688" lon="17.7908746">
        <ele>20.325</ele>
        <time>2013-05-24T18:59:31Z</time>
      </trkpt>
      <trkpt lat="59.8523133" lon="17.790984">
        <ele>19.8444</ele>
        <time>2013-05-24T18:59:32Z</time>
      </trkpt>
      <trkpt lat="59.8523578" lon="17.7910961">
        <ele>19.3638</ele>
        <time>2013-05-24T18:59:33Z</time>
      </trkpt>
      <trkpt lat="59.8524016" lon="17.7912113">
        <ele>19.3638</ele>
        <time>2013-05-24T18:59:34Z</time>
      </trkpt>
      <trkpt lat="59.8524437" lon="17.7913283">
        <ele>18.8831</ele>
        <time>2013-05-24T18:59:35Z</time>
      </trkpt>
      <trkpt lat="59.8524872" lon="17.7914458">
        <ele>18.4023</ele>
        <time>2013-05-24T18:59:36Z</time>
      </trkpt>
      <trkpt lat="59.8525307" lon="17.7915641">
        <ele>18.4023</ele>
        <time>2013-05-24T18:59:37Z</time>
      </trkpt>
      <trkpt lat="59.8525751" lon="17.7916824">
        <ele>17.9218</ele>
        <time>2013-05-24T18:59:38Z</time>
      </trkpt>
      <trkpt lat="59.8526214" lon="17.7918007">
        <ele>18.4023</ele>
        <time>2013-05-24T18:59:39Z</time>
      </trkpt>
      <trkpt lat="59.8526658" lon="17.7919197">
        <ele>17.9218</ele>
        <time>2013-05-24T18:59:40Z</time>
      </trkpt>
      <trkpt lat="59.8527099" lon="17.792038">
        <ele>17.9218</ele>
        <time>2013-05-24T18:59:41Z</time>
      </trkpt>
      <trkpt lat="59.8527543" lon="17.7921567">
        <ele>17.9218</ele>
        <time>2013-05-24T18:59:42Z</time>
      </trkpt>
      <trkpt lat="59.852795" lon="17.7922772">
        <ele>17.4412</ele>
        <time>2013-05-24T18:59:43Z</time>
      </trkpt>
      <trkpt lat="59.8528386" lon="17.7923964">
        <ele>17.9218</ele>
        <time>2013-05-24T18:59:44Z</time>
      </trkpt>
      <trkpt lat="59.8528809" lon="17.792513">
        <ele>17.9218</ele>
        <time>2013-05-24T18:59:45Z</time>
      </trkpt>
      <trkpt lat="59.8529189" lon="17.792632">
        <ele>17.4412</ele>
        <time>2013-05-24T18:59:46Z</time>
      </trkpt>
      <trkpt lat="59.8529606" lon="17.7927486">
        <ele>17.4412</ele>
        <time>2013-05-24T18:59:47Z</time>
      </trkpt>
      <trkpt lat="59.8530009" lon="17.7928641">
        <ele>17.4412</ele>
        <time>2013-05-24T18:59:48Z</time>
      </trkpt>
      <trkpt lat="59.8530413" lon="17.7929804">
        <ele>17.4412</ele>
        <time>2013-05-24T18:59:49Z</time>
      </trkpt>
      <trkpt lat="59.8530808" lon="17.7931007">
        <ele>17.4412</ele>
        <time>2013-05-24T18:59:50Z</time>
      </trkpt>
      <trkpt lat="59.8531185" lon="17.7932211">
        <ele>16.9604</ele>
        <time>2013-05-24T18:59:51Z</time>
      </trkpt>
      <trkpt lat="59.8531565" lon="17.7933425">
        <ele>16.9604</ele>
        <time>2013-05-24T18:59:52Z</time>
      </trkpt>
      <trkpt lat="59.8531959" lon="17.7934584">
        <ele>16.9604</ele>
        <time>2013-05-24T18:59:53Z</time>
      </trkpt>
      <trkpt lat="59.8532322" lon="17.7935749">
        <ele>16.4797</ele>
        <time>2013-05-24T18:59:54Z</time>
      </trkpt>
      <trkpt lat="59.8532677" lon="17.7936967">
        <ele>15.999</ele>
        <time>2013-05-24T18:59:55Z</time>
      </trkpt>
      <trkpt lat="59.8533032" lon="17.7938178">
        <ele>15.5184</ele>
        <time>2013-05-24T18:59:56Z</time>
      </trkpt>
      <trkpt lat="59.8533402" lon="17.7939368">
        <ele>15.0377</ele>
        <time>2013-05-24T18:59:57Z</time>
      </trkpt>
      <trkpt lat="59.8533785" lon="17.7940531">
        <ele>15.0377</ele>
        <time>2013-05-24T18:59:58Z</time>
      </trkpt>
      <trkpt lat="59.853415" lon="17.7941695">
        <ele>14.557</ele>
        <time>2013-05-24T18:59:59Z</time>
      </trkpt>
      <trkpt lat="59.8534536" lon="17.794286">
        <ele>14.557</ele>
        <time>2013-05-24T19:00:00Z</time>
      </trkpt>
      <trkpt lat="59.853494" lon="17.7944039">
        <ele>14.557</ele>
        <time>2013-05-24T19:00:01Z</time>
      </trkpt>
      <trkpt lat="59.8535335" lon="17.7945266">
        <ele>14.557</ele>
        <time>2013-05-24T19:00:02Z</time>
      </trkpt>
      <trkpt lat="59.8535738" lon="17.7946472">
        <ele>14.557</ele>
        <time>2013-05-24T19:00:03Z</time>
      </trkpt>
      <trkpt lat="59.8536111" lon="17.7947669">
        <ele>14.0764</ele>
        <time>2013-05-24T19:00:04Z</time>
      </trkpt>
      <trkpt lat="59.8536481" lon="17.7948876">
        <ele>14.0764</ele>
        <time>2013-05-24T19:00:05Z</time>
      </trkpt>
      <trkpt lat="59.8536822" lon="17.7950109">
        <ele>14.0764</ele>
        <time>2013-05-24T19:00:06Z</time>
      </trkpt>
      <trkpt lat="59.8537184" lon="17.7951365">
        <ele>14.0764</ele>
        <time>2013-05-24T19:00:07Z</time>
      </trkpt>
      <trkpt lat="59.8537556" lon="17.7952651">
        <ele>14.557</ele>
        <time>2013-05-24T19:00:08Z</time>
      </trkpt>
      <trkpt lat="59.8537942" lon="17.7953883">
        <ele>14.557</ele>
        <time>2013-05-24T19:00:09Z</time>
      </trkpt>
      <trkpt lat="59.8538328" lon="17.7955071">
        <ele>14.0764</ele>
        <time>2013-05-24T19:00:10Z</time>
      </trkpt>
      <trkpt lat="59.8538708" lon="17.7956286">
        <ele>14.0764</ele>
        <time>2013-05-24T19:00:11Z</time>
      </trkpt>
      <trkpt lat="59.853908" lon="17.7957507">
        <ele>14.0764</ele>
        <time>2013-05-24T19:00:12Z</time>
      </trkpt>
      <trkpt lat="59.8539435" lon="17.7958748">
        <ele>13.5958</ele>
        <time>2013-05-24T19:00:13Z</time>
      </trkpt>
      <trkpt lat="59.8539794" lon="17.7960008">
        <ele>13.5958</ele>
        <time>2013-05-24T19:00:14Z</time>
      </trkpt>
      <trkpt lat="59.8540157" lon="17.7961281">
        <ele>13.5958</ele>
        <time>2013-05-24T19:00:15Z</time>
      </trkpt>
      <trkpt lat="59.8540514" lon="17.7962562">
        <ele>13.5958</ele>
        <time>2013-05-24T19:00:16Z</time>
      </trkpt>
      <trkpt lat="59.8540861" lon="17.7963834">
        <ele>13.5958</ele>
        <time>2013-05-24T19:00:17Z</time>
      </trkpt>
      <trkpt lat="59.854121" lon="17.7965073">
        <ele>13.5958</ele>
        <time>2013-05-24T19:00:18Z</time>
      </trkpt>
      <trkpt lat="59.8541584" lon="17.7966265">
        <ele>13.5958</ele>
        <time>2013-05-24T19:00:19Z</time>
      </trkpt>
      <trkpt lat="59.8541971" lon="17.7967499">
        <ele>13.5958</ele>
        <time>2013-05-24T19:00:20Z</time>
      </trkpt>
      <trkpt lat="59.8542382" lon="17.7968748">
        <ele>13.5958</ele>
        <time>2013-05-24T19:00:21Z</time>
      </trkpt>
      <trkpt lat="59.8542797" lon="17.797003">
        <ele>13.5958</ele>
        <time>2013-05-24T19:00:22Z</time>
      </trkpt>
      <trkpt lat="59.8543185" lon="17.7971366">
        <ele>13.5958</ele>
        <time>2013-05-24T19:00:23Z</time>
      </trkpt>
      <trkpt lat="59.8543521" lon="17.7972752">
        <ele>13.5958</ele>
        <time>2013-05-24T19:00:24Z</time>
      </trkpt>
      <trkpt lat="59.8543827" lon="17.7974159">
        <ele>13.5958</ele>
        <time>2013-05-24T19:00:25Z</time>
      </trkpt>
      <trkpt lat="59.8544157" lon="17.7975556">
        <ele>13.5958</ele>
        <time>2013-05-24T19:00:26Z</time>
      </trkpt>
      <trkpt lat="59.8544495" lon="17.7976942">
        <ele>13.5958</ele>
        <time>2013-05-24T19:00:27Z</time>
      </trkpt>
      <trkpt lat="59.8544852" lon="17.7978338">
        <ele>13.5958</ele>
        <time>2013-05-24T19:00:28Z</time>
      </trkpt>
      <trkpt lat="59.8545236" lon="17.7979738">
        <ele>13.5958</ele>
        <time>2013-05-24T19:00:29Z</time>
      </trkpt>
      <trkpt lat="59.854562" lon="17.7981131">
        <ele>13.5958</ele>
        <time>2013-05-24T19:00:30Z</time>
      </trkpt>
      <trkpt lat="59.8545982" lon="17.7982503">
        <ele>13.5958</ele>
        <time>2013-05-24T19:00:31Z</time>
      </trkpt>
      <trkpt lat="59.8546333" lon="17.7983847">
        <ele>13.1151</ele>
        <time>2013-05-24T19:00:32Z</time>
      </trkpt>
      <trkpt lat="59.854667" lon="17.7985197">
        <ele>13.1151</ele>
        <time>2013-05-24T19:00:33Z</time>
      </trkpt>
      <trkpt lat="59.8547015" lon="17.7986525">
        <ele>13.1151</ele>
        <time>2013-05-24T19:00:34Z</time>
      </trkpt>
      <trkpt lat="59.8547369" lon="17.7987857">
        <ele>13.1151</ele>
        <time>2013-05-24T19:00:35Z</time>
      </trkpt>
      <trkpt lat="59.8547716" lon="17.7989187">
        <ele>13.1151</ele>
        <time>2013-05-24T19:00:36Z</time>
      </trkpt>
      <trkpt lat="59.8548062" lon="17.7990485">
        <ele>13.1151</ele>
        <time>2013-05-24T19:00:37Z</time>
      </trkpt>
      <trkpt lat="59.8548402" lon="17.7991751">
        <ele>13.1151</ele>
        <time>2013-05-24T19:00:38Z</time>
      </trkpt>
      <trkpt lat="59.8548745" lon="17.7992982">
        <ele>13.1151</ele>
        <time>2013-05-24T19:00:39Z</time>
      </trkpt>
      <trkpt lat="59.8549078" lon="17.7994221">
        <ele>13.1151</ele>
        <time>2013-05-24T19:00:40Z</time>
      </trkpt>
      <trkpt lat="59.8549431" lon="17.799541">
        <ele>12.6344</ele>
        <time>2013-05-24T19:00:41Z</time>
      </trkpt>
      <trkpt lat="59.8549789" lon="17.7996585">
        <ele>12.6344</ele>
        <time>2013-05-24T19:00:42Z</time>
      </trkpt>
      <trkpt lat="59.8550147" lon="17.7997796">
        <ele>12.6344</ele>
        <time>2013-05-24T19:00:43Z</time>
      </trkpt>
      <trkpt lat="59.8550503" lon="17.7999035">
        <ele>12.6344</ele>
        <time>2013-05-24T19:00:44Z</time>
      </trkpt>
      <trkpt lat="59.8550856" lon="17.8000283">
        <ele>12.6344</ele>
        <time>2013-05-24T19:00:45Z</time>
      </trkpt>
      <trkpt lat="59.8551203" lon="17.8001542">
        <ele>12.6344</ele>
        <time>2013-05-24T19:00:46Z</time>
      </trkpt>
      <trkpt lat="59.8551555" lon="17.8002788">
        <ele>12.1538</ele>
        <time>2013-05-24T19:00:47Z</time>
      </trkpt>
      <trkpt lat="59.8551916" lon="17.8004032">
        <ele>12.1538</ele>
        <time>2013-05-24T19:00:48Z</time>
      </trkpt>
      <trkpt lat="59.8552278" lon="17.8005297">
        <ele>12.1538</ele>
        <time>2013-05-24T19:00:49Z</time>
      </trkpt>
      <trkpt lat="59.8552643" lon="17.8006554">
        <ele>12.1538</ele>
        <time>2013-05-24T19:00:50Z</time>
      </trkpt>
      <trkpt lat="59.8552985" lon="17.8007821">
        <ele>12.1538</ele>
        <time>2013-05-24T19:00:51Z</time>
      </trkpt>
      <trkpt lat="59.8553322" lon="17.8009068">
        <ele>12.1538</ele>
        <time>2013-05-24T19:00:52Z</time>
      </trkpt>
      <trkpt lat="59.8553664" lon="17.8010388">
        <ele>12.6344</ele>
        <time>2013-05-24T19:00:53Z</time>
      </trkpt>
      <trkpt lat="59.8554022" lon="17.8011741">
        <ele>12.6344</ele>
        <time>2013-05-24T19:00:54Z</time>
      </trkpt>
      <trkpt lat="59.8554397" lon="17.8013104">
        <ele>12.6344</ele>
        <time>2013-05-24T19:00:55Z</time>
      </trkpt>
      <trkpt lat="59.8554767" lon="17.8014467">
        <ele>12.6344</ele>
        <time>2013-05-24T19:00:56Z</time>
      </trkpt>
      <trkpt lat="59.8555123" lon="17.8015834">
        <ele>12.6344</ele>
        <time>2013-05-24T19:00:57Z</time>
      </trkpt>
      <trkpt lat="59.855547" lon="17.8017232">
        <ele>12.1538</ele>
        <time>2013-05-24T19:00:58Z</time>
      </trkpt>
      <trkpt lat="59.8555821" lon="17.8018645">
        <ele>12.1538</ele>
        <time>2013-05-24T19:00:59Z</time>
      </trkpt>
      <trkpt lat="59.8556158" lon="17.8020131">
        <ele>11.6732</ele>
        <time>2013-05-24T19:01:00Z</time>
      </trkpt>
      <trkpt lat="59.8556552" lon="17.8021651">
        <ele>12.1538</ele>
        <time>2013-05-24T19:01:01Z</time>
      </trkpt>
      <trkpt lat="59.8556979" lon="17.8023173">
        <ele>12.6344</ele>
        <time>2013-05-24T19:01:02Z</time>
      </trkpt>
      <trkpt lat="59.8557403" lon="17.8024682">
        <ele>12.6344</ele>
        <time>2013-05-24T19:01:03Z</time>
      </trkpt>
      <trkpt lat="59.8557849" lon="17.8026182">
        <ele>12.6344</ele>
        <time>2013-05-24T19:01:04Z</time>
      </trkpt>
      <trkpt lat="59.8558318" lon="17.802766">
        <ele>13.1151</ele>
        <time>2013-05-24T19:01:05Z</time>
      </trkpt>
      <trkpt lat="59.8558834" lon="17.8029072">
        <ele>13.1151</ele>
        <time>2013-05-24T19:01:06Z</time>
      </trkpt>
      <trkpt lat="59.8559424" lon="17.8030422">
        <ele>12.6344</ele>
        <time>2013-05-24T19:01:07Z</time>
      </trkpt>
      <trkpt lat="59.8560057" lon="17.8031725">
        <ele>12.1538</ele>
        <time>2013-05-24T19:01:08Z</time>
      </trkpt>
      <trkpt lat="59.8560575" lon="17.8033047">
        <ele>12.1538</ele>
        <time>2013-05-24T19:01:09Z</time>
      </trkpt>
      <trkpt lat="59.85611" lon="17.8034411">
        <ele>11.1925</ele>
        <time>2013-05-24T19:01:10Z</time>
      </trkpt>
      <trkpt lat="59.8561603" lon="17.8035775">
        <ele>10.7118</ele>
        <time>2013-05-24T19:01:11Z</time>
      </trkpt>
      <trkpt lat="59.8562054" lon="17.803712">
        <ele>10.7118</ele>
        <time>2013-05-24T19:01:12Z</time>
      </trkpt>
      <trkpt lat="59.8562496" lon="17.8038487">
        <ele>10.2312</ele>
        <time>2013-05-24T19:01:13Z</time>
      </trkpt>
      <trkpt lat="59.8562935" lon="17.8039875">
        <ele>9.75061</ele>
        <time>2013-05-24T19:01:14Z</time>
      </trkpt>
      <trkpt lat="59.8563354" lon="17.8041294">
        <ele>9.2699</ele>
        <time>2013-05-24T19:01:15Z</time>
      </trkpt>
      <trkpt lat="59.8563771" lon="17.8042718">
        <ele>8.78918</ele>
        <time>2013-05-24T19:01:16Z</time>
      </trkpt>
      <trkpt lat="59.8564205" lon="17.8044128">
        <ele>8.30859</ele>
        <time>2013-05-24T19:01:17Z</time>
      </trkpt>
      <trkpt lat="59.856465" lon="17.8045555">
        <ele>7.34717</ele>
        <time>2013-05-24T19:01:18Z</time>
      </trkpt>
      <trkpt lat="59.8565104" lon="17.8046988">
        <ele>7.34717</ele>
        <time>2013-05-24T19:01:19Z</time>
      </trkpt>
      <trkpt lat="59.856556" lon="17.8048354">
        <ele>6.38586</ele>
        <time>2013-05-24T19:01:20Z</time>
      </trkpt>
      <trkpt lat="59.8566048" lon="17.8049542">
        <ele>5.90527</ele>
        <time>2013-05-24T19:01:21Z</time>
      </trkpt>
      <trkpt lat="59.8566572" lon="17.8050478">
        <ele>5.42456</ele>
        <time>2013-05-24T19:01:22Z</time>
      </trkpt>
      <trkpt lat="59.8567089" lon="17.8051213">
        <ele>4.94385</ele>
        <time>2013-05-24T19:01:23Z</time>
      </trkpt>
      <trkpt lat="59.8567535" lon="17.8051975">
        <ele>4.46326</ele>
        <time>2013-05-24T19:01:24Z</time>
      </trkpt>
      <trkpt lat="59.856784" lon="17.8052865">
        <ele>4.46326</ele>
        <time>2013-05-24T19:01:25Z</time>
      </trkpt>
      <trkpt lat="59.8567954" lon="17.8053849">
        <ele>3.98267</ele>
        <time>2013-05-24T19:01:26Z</time>
      </trkpt>
      <trkpt lat="59.8567819" lon="17.8054862">
        <ele>3.98267</ele>
        <time>2013-05-24T19:01:27Z</time>
      </trkpt>
      <trkpt lat="59.8567493" lon="17.8055801">
        <ele>3.98267</ele>
        <time>2013-05-24T19:01:28Z</time>
      </trkpt>
      <trkpt lat="59.8567064" lon="17.8056666">
        <ele>3.50195</ele>
        <time>2013-05-24T19:01:29Z</time>
      </trkpt>
      <trkpt lat="59.8566651" lon="17.8057201">
        <ele>3.50195</ele>
        <time>2013-05-24T19:01:30Z</time>
      </trkpt>
      <trkpt lat="59.8565822" lon="17.8058682">
        <ele>4.94385</ele>
        <time>2013-05-24T19:01:31Z</time>
      </trkpt>
      <trkpt lat="59.8565715" lon="17.8059529">
        <ele>5.90527</ele>
        <time>2013-05-24T19:01:32Z</time>
      </trkpt>
      <trkpt lat="59.8565355" lon="17.8060782">
        <ele>5.90527</ele>
        <time>2013-05-24T19:01:33Z</time>
      </trkpt>
      <trkpt lat="59.8565368" lon="17.8061854">
        <ele>5.90527</ele>
        <time>2013-05-24T19:01:34Z</time>
      </trkpt>
      <trkpt lat="59.8565622" lon="17.8062955">
        <ele>6.38586</ele>
        <time>2013-05-24T19:01:35Z</time>
      </trkpt>
      <trkpt lat="59.8565781" lon="17.8063957">
        <ele>5.90527</ele>
        <time>2013-05-24T19:01:36Z</time>
      </trkpt>
      <trkpt lat="59.8566002" lon="17.8064958">
        <ele>6.86646</ele>
        <time>2013-05-24T19:01:37Z</time>
      </trkpt>
      <trkpt lat="59.85662" lon="17.8066061">
        <ele>7.34717</ele>
        <time>2013-05-24T19:01:38Z</time>
      </trkpt>
      <trkpt lat="59.8566391" lon="17.8067149">
        <ele>8.30859</ele>
        <time>2013-05-24T19:01:39Z</time>
      </trkpt>
      <trkpt lat="59.8566583" lon="17.8068138">
        <ele>9.75061</ele>
        <time>2013-05-24T19:01:40Z</time>
      </trkpt>
      <trkpt lat="59.8566613" lon="17.8069221">
        <ele>11.6732</ele>
        <time>2013-05-24T19:01:41Z</time>
      </trkpt>
      <trkpt lat="59.8566549" lon="17.8070327">
        <ele>14.0764</ele>
        <time>2013-05-24T19:01:42Z</time>
      </trkpt>
      <trkpt lat="59.8566412" lon="17.8071432">
        <ele>15.5184</ele>
        <time>2013-05-24T19:01:43Z</time>
      </trkpt>
      <trkpt lat="59.8566263" lon="17.8072614">
        <ele>17.4412</ele>
        <time>2013-05-24T19:01:44Z</time>
      </trkpt>
      <trkpt lat="59.8566083" lon="17.8073859">
        <ele>18.8831</ele>
        <time>2013-05-24T19:01:45Z</time>
      </trkpt>
      <trkpt lat="59.8565907" lon="17.8075142">
        <ele>20.325</ele>
        <time>2013-05-24T19:01:46Z</time>
      </trkpt>
      <trkpt lat="59.8565648" lon="17.8076398">
        <ele>20.8057</ele>
        <time>2013-05-24T19:01:47Z</time>
      </trkpt>
      <trkpt lat="59.8565328" lon="17.8077549">
        <ele>20.8057</ele>
        <time>2013-05-24T19:01:48Z</time>
      </trkpt>
      <trkpt lat="59.8565039" lon="17.8078708">
        <ele>20.8057</ele>
        <time>2013-05-24T19:01:49Z</time>
      </trkpt>
      <trkpt lat="59.8564758" lon="17.8079832">
        <ele>21.2864</ele>
        <time>2013-05-24T19:01:50Z</time>
      </trkpt>
      <trkpt lat="59.856449" lon="17.8081006">
        <ele>21.2864</ele>
        <time>2013-05-24T19:01:51Z</time>
      </trkpt>
      <trkpt lat="59.8564225" lon="17.8082156">
        <ele>21.767</ele>
        <time>2013-05-24T19:01:52Z</time>
      </trkpt>
      <trkpt lat="59.8564022" lon="17.8083259">
        <ele>22.2476</ele>
        <time>2013-05-24T19:01:53Z</time>
      </trkpt>
      <trkpt lat="59.8563852" lon="17.8084372">
        <ele>22.2476</ele>
        <time>2013-05-24T19:01:54Z</time>
      </trkpt>
      <trkpt lat="59.8563716" lon="17.808544">
        <ele>22.2476</ele>
        <time>2013-05-24T19:01:55Z</time>
      </trkpt>
      <trkpt lat="59.8563639" lon="17.8086526">
        <ele>22.2476</ele>
        <time>2013-05-24T19:01:56Z</time>
      </trkpt>
      <trkpt lat="59.8563626" lon="17.8087599">
        <ele>22.2476</ele>
        <time>2013-05-24T19:01:57Z</time>
      </trkpt>
      <trkpt lat="59.8563697" lon="17.8088666">
        <ele>21.2864</ele>
        <time>2013-05-24T19:01:58Z</time>
      </trkpt>
      <trkpt lat="59.8563915" lon="17.8089706">
        <ele>20.325</ele>
        <time>2013-05-24T19:01:59Z</time>
      </trkpt>
      <trkpt lat="59.8564284" lon="17.8090703">
        <ele>19.8444</ele>
        <time>2013-05-24T19:02:00Z</time>
      </trkpt>
      <trkpt lat="59.8564667" lon="17.809169">
        <ele>19.3638</ele>
        <time>2013-05-24T19:02:01Z</time>
      </trkpt>
      <trkpt lat="59.856512" lon="17.8092635">
        <ele>18.8831</ele>
        <time>2013-05-24T19:02:02Z</time>
      </trkpt>
      <trkpt lat="59.8565608" lon="17.8093581">
        <ele>18.8831</ele>
        <time>2013-05-24T19:02:03Z</time>
      </trkpt>
      <trkpt lat="59.8566102" lon="17.8094554">
        <ele>18.8831</ele>
        <time>2013-05-24T19:02:04Z</time>
      </trkpt>
      <trkpt lat="59.8566608" lon="17.8095514">
        <ele>18.8831</ele>
        <time>2013-05-24T19:02:05Z</time>
      </trkpt>
      <trkpt lat="59.8567089" lon="17.8096497">
        <ele>18.4023</ele>
        <time>2013-05-24T19:02:06Z</time>
      </trkpt>
      <trkpt lat="59.8567499" lon="17.8097475">
        <ele>17.4412</ele>
        <time>2013-05-24T19:02:07Z</time>
      </trkpt>
      <trkpt lat="59.8567898" lon="17.8098519">
        <ele>16.9604</ele>
        <time>2013-05-24T19:02:08Z</time>
      </trkpt>
      <trkpt lat="59.856824" lon="17.8099601">
        <ele>15.999</ele>
        <time>2013-05-24T19:02:09Z</time>
      </trkpt>
      <trkpt lat="59.8568549" lon="17.8100773">
        <ele>15.5184</ele>
        <time>2013-05-24T19:02:10Z</time>
      </trkpt>
      <trkpt lat="59.8568804" lon="17.8102031">
        <ele>15.0377</ele>
        <time>2013-05-24T19:02:11Z</time>
      </trkpt>
      <trkpt lat="59.8568977" lon="17.8103329">
        <ele>15.0377</ele>
        <time>2013-05-24T19:02:12Z</time>
      </trkpt>
      <trkpt lat="59.8569078" lon="17.8104626">
        <ele>15.0377</ele>
        <time>2013-05-24T19:02:13Z</time>
      </trkpt>
      <trkpt lat="59.8569142" lon="17.8105915">
        <ele>15.0377</ele>
        <time>2013-05-24T19:02:14Z</time>
      </trkpt>
      <trkpt lat="59.8569171" lon="17.8107162">
        <ele>15.0377</ele>
        <time>2013-05-24T19:02:15Z</time>
      </trkpt>
      <trkpt lat="59.8569146" lon="17.8108335">
        <ele>15.0377</ele>
        <time>2013-05-24T19:02:16Z</time>
      </trkpt>
      <trkpt lat="59.8569111" lon="17.8109438">
        <ele>15.5184</ele>
        <time>2013-05-24T19:02:17Z</time>
      </trkpt>
      <trkpt lat="59.8569106" lon="17.8110552">
        <ele>15.999</ele>
        <time>2013-05-24T19:02:18Z</time>
      </trkpt>
      <trkpt lat="59.8569109" lon="17.8111706">
        <ele>16.9604</ele>
        <time>2013-05-24T19:02:19Z</time>
      </trkpt>
      <trkpt lat="59.8569086" lon="17.8112835">
        <ele>16.9604</ele>
        <time>2013-05-24T19:02:20Z</time>
      </trkpt>
      <trkpt lat="59.8569086" lon="17.8114027">
        <ele>16.9604</ele>
        <time>2013-05-24T19:02:21Z</time>
      </trkpt>
      <trkpt lat="59.856914" lon="17.8115292">
        <ele>16.9604</ele>
        <time>2013-05-24T19:02:22Z</time>
      </trkpt>
      <trkpt lat="59.8569285" lon="17.811656">
        <ele>17.4412</ele>
        <time>2013-05-24T19:02:23Z</time>
      </trkpt>
      <trkpt lat="59.85695" lon="17.8117859">
        <ele>17.9218</ele>
        <time>2013-05-24T19:02:24Z</time>
      </trkpt>
      <trkpt lat="59.8569768" lon="17.8119156">
        <ele>18.4023</ele>
        <time>2013-05-24T19:02:25Z</time>
      </trkpt>
      <trkpt lat="59.8569954" lon="17.812047">
        <ele>17.9218</ele>
        <time>2013-05-24T19:02:26Z</time>
      </trkpt>
      <trkpt lat="59.8570167" lon="17.8121724">
        <ele>16.9604</ele>
        <time>2013-05-24T19:02:27Z</time>
      </trkpt>
      <trkpt lat="59.8570369" lon="17.8122946">
        <ele>16.4797</ele>
        <time>2013-05-24T19:02:28Z</time>
      </trkpt>
      <trkpt lat="59.8570557" lon="17.8124137">
        <ele>15.5184</ele>
        <time>2013-05-24T19:02:29Z</time>
      </trkpt>
      <trkpt lat="59.8570811" lon="17.812527">
        <ele>15.5184</ele>
        <time>2013-05-24T19:02:30Z</time>
      </trkpt>
      <trkpt lat="59.8571049" lon="17.8126326">
        <ele>15.0377</ele>
        <time>2013-05-24T19:02:31Z</time>
      </trkpt>
      <trkpt lat="59.8571372" lon="17.8127292">
        <ele>15.0377</ele>
        <time>2013-05-24T19:02:32Z</time>
      </trkpt>
      <trkpt lat="59.857175" lon="17.8128143">
        <ele>15.5184</ele>
        <time>2013-05-24T19:02:33Z</time>
      </trkpt>
      <trkpt lat="59.8572106" lon="17.8128986">
        <ele>15.999</ele>
        <time>2013-05-24T19:02:34Z</time>
      </trkpt>
      <trkpt lat="59.857245" lon="17.8129853">
        <ele>15.0377</ele>
        <time>2013-05-24T19:02:35Z</time>
      </trkpt>
      <trkpt lat="59.8572808" lon="17.8130789">
        <ele>14.557</ele>
        <time>2013-05-24T19:02:36Z</time>
      </trkpt>
      <trkpt lat="59.8573191" lon="17.8131759">
        <ele>14.0764</ele>
        <time>2013-05-24T19:02:37Z</time>
      </trkpt>
      <trkpt lat="59.857361" lon="17.8132754">
        <ele>13.5958</ele>
        <time>2013-05-24T19:02:38Z</time>
      </trkpt>
      <trkpt lat="59.8574012" lon="17.8133796">
        <ele>13.1151</ele>
        <time>2013-05-24T19:02:39Z</time>
      </trkpt>
      <trkpt lat="59.8574377" lon="17.8134918">
        <ele>12.6344</ele>
        <time>2013-05-24T19:02:40Z</time>
      </trkpt>
      <trkpt lat="59.8574691" lon="17.8136088">
        <ele>12.6344</ele>
        <time>2013-05-24T19:02:41Z</time>
      </trkpt>
      <trkpt lat="59.8574866" lon="17.8137326">
        <ele>12.6344</ele>
        <time>2013-05-24T19:02:42Z</time>
      </trkpt>
      <trkpt lat="59.8574917" lon="17.8138608">
        <ele>12.6344</ele>
        <time>2013-05-24T19:02:43Z</time>
      </trkpt>
      <trkpt lat="59.8574969" lon="17.8139877">
        <ele>14.557</ele>
        <time>2013-05-24T19:02:44Z</time>
      </trkpt>
      <trkpt lat="59.8574967" lon="17.8141097">
        <ele>15.5184</ele>
        <time>2013-05-24T19:02:45Z</time>
      </trkpt>
      <trkpt lat="59.8574983" lon="17.814219">
        <ele>17.9218</ele>
        <time>2013-05-24T19:02:46Z</time>
      </trkpt>
      <trkpt lat="59.8574947" lon="17.8143286">
        <ele>18.4023</ele>
        <time>2013-05-24T19:02:47Z</time>
      </trkpt>
      <trkpt lat="59.8574934" lon="17.8144347">
        <ele>18.8831</ele>
        <time>2013-05-24T19:02:48Z</time>
      </trkpt>
      <trkpt lat="59.8574995" lon="17.8145303">
        <ele>18.8831</ele>
        <time>2013-05-24T19:02:49Z</time>
      </trkpt>
      <trkpt lat="59.8575231" lon="17.8146041">
        <ele>19.8444</ele>
        <time>2013-05-24T19:02:50Z</time>
      </trkpt>
      <trkpt lat="59.8575552" lon="17.8146453">
        <ele>20.8057</ele>
        <time>2013-05-24T19:02:51Z</time>
      </trkpt>
      <trkpt lat="59.857578" lon="17.814674">
        <ele>20.8057</ele>
        <time>2013-05-24T19:02:52Z</time>
      </trkpt>
      <trkpt lat="59.8576011" lon="17.8146973">
        <ele>21.2864</ele>
        <time>2013-05-24T19:02:53Z</time>
      </trkpt>
      <trkpt lat="59.8576224" lon="17.8147222">
        <ele>21.767</ele>
        <time>2013-05-24T19:02:54Z</time>
      </trkpt>
      <trkpt lat="59.8576464" lon="17.8147492">
        <ele>21.767</ele>
        <time>2013-05-24T19:02:55Z</time>
      </trkpt>
      <trkpt lat="59.8576755" lon="17.8147793">
        <ele>21.767</ele>
        <time>2013-05-24T19:02:56Z</time>
      </trkpt>
      <trkpt lat="59.8577016" lon="17.8148131">
        <ele>21.767</ele>
        <time>2013-05-24T19:02:57Z</time>
      </trkpt>
      <trkpt lat="59.8577362" lon="17.8148444">
        <ele>21.767</ele>
        <time>2013-05-24T19:02:58Z</time>
      </trkpt>
      <trkpt lat="59.857775" lon="17.8148745">
        <ele>21.2864</ele>
        <time>2013-05-24T19:02:59Z</time>
      </trkpt>
      <trkpt lat="59.8578179" lon="17.8149048">
        <ele>20.325</ele>
        <time>2013-05-24T19:03:00Z</time>
      </trkpt>
      <trkpt lat="59.8578677" lon="17.8149413">
        <ele>20.8057</ele>
        <time>2013-05-24T19:03:01Z</time>
      </trkpt>
      <trkpt lat="59.8579227" lon="17.8149755">
        <ele>21.767</ele>
        <time>2013-05-24T19:03:02Z</time>
      </trkpt>
      <trkpt lat="59.857977" lon="17.8150035">
        <ele>21.767</ele>
        <time>2013-05-24T19:03:03Z</time>
      </trkpt>
      <trkpt lat="59.8580357" lon="17.8150345">
        <ele>22.7283</ele>
        <time>2013-05-24T19:03:04Z</time>
      </trkpt>
      <trkpt lat="59.8580889" lon="17.8150635">
        <ele>22.7283</ele>
        <time>2013-05-24T19:03:05Z</time>
      </trkpt>
      <trkpt lat="59.8581451" lon="17.8150989">
        <ele>23.6896</ele>
        <time>2013-05-24T19:03:06Z</time>
      </trkpt>
      <trkpt lat="59.8581978" lon="17.8151359">
        <ele>23.6896</ele>
        <time>2013-05-24T19:03:07Z</time>
      </trkpt>
      <trkpt lat="59.858248" lon="17.8151771">
        <ele>23.209</ele>
        <time>2013-05-24T19:03:08Z</time>
      </trkpt>
      <trkpt lat="59.8583019" lon="17.8152226">
        <ele>23.6896</ele>
        <time>2013-05-24T19:03:09Z</time>
      </trkpt>
      <trkpt lat="59.8583574" lon="17.8152674">
        <ele>23.6896</ele>
        <time>2013-05-24T19:03:10Z</time>
      </trkpt>
      <trkpt lat="59.8584177" lon="17.8153175">
        <ele>23.6896</ele>
        <time>2013-05-24T19:03:11Z</time>
      </trkpt>
      <trkpt lat="59.8584833" lon="17.8153762">
        <ele>24.651</ele>
        <time>2013-05-24T19:03:12Z</time>
      </trkpt>
      <trkpt lat="59.8585462" lon="17.8154307">
        <ele>24.1703</ele>
        <time>2013-05-24T19:03:13Z</time>
      </trkpt>
      <trkpt lat="59.8586121" lon="17.8154902">
        <ele>23.6896</ele>
        <time>2013-05-24T19:03:14Z</time>
      </trkpt>
      <trkpt lat="59.8586769" lon="17.8155555">
        <ele>23.6896</ele>
        <time>2013-05-24T19:03:15Z</time>
      </trkpt>
      <trkpt lat="59.8587427" lon="17.8156183">
        <ele>22.7283</ele>
        <time>2013-05-24T19:03:16Z</time>
      </trkpt>
      <trkpt lat="59.858807" lon="17.81568">
        <ele>21.2864</ele>
        <time>2013-05-24T19:03:17Z</time>
      </trkpt>
      <trkpt lat="59.8588705" lon="17.815743">
        <ele>20.325</ele>
        <time>2013-05-24T19:03:18Z</time>
      </trkpt>
      <trkpt lat="59.8589396" lon="17.8158068">
        <ele>20.325</ele>
        <time>2013-05-24T19:03:19Z</time>
      </trkpt>
      <trkpt lat="59.8590115" lon="17.8158669">
        <ele>20.8057</ele>
        <time>2013-05-24T19:03:20Z</time>
      </trkpt>
      <trkpt lat="59.8590849" lon="17.8159303">
        <ele>21.767</ele>
        <time>2013-05-24T19:03:21Z</time>
      </trkpt>
      <trkpt lat="59.8591516" lon="17.8159893">
        <ele>21.2864</ele>
        <time>2013-05-24T19:03:22Z</time>
      </trkpt>
      <trkpt lat="59.8592188" lon="17.8160502">
        <ele>20.8057</ele>
        <time>2013-05-24T19:03:23Z</time>
      </trkpt>
      <trkpt lat="59.8592883" lon="17.8161115">
        <ele>20.8057</ele>
        <time>2013-05-24T19:03:24Z</time>
      </trkpt>
      <trkpt lat="59.8593554" lon="17.8161694">
        <ele>20.325</ele>
        <time>2013-05-24T19:03:25Z</time>
      </trkpt>
      <trkpt lat="59.8594198" lon="17.8162275">
        <ele>19.3638</ele>
        <time>2013-05-24T19:03:26Z</time>
      </trkpt>
      <trkpt lat="59.8594861" lon="17.8162851">
        <ele>19.3638</ele>
        <time>2013-05-24T19:03:27Z</time>
      </trkpt>
      <trkpt lat="59.859552" lon="17.8163429">
        <ele>19.3638</ele>
        <time>2013-05-24T19:03:28Z</time>
      </trkpt>
      <trkpt lat="59.8596157" lon="17.8164">
        <ele>19.3638</ele>
        <time>2013-05-24T19:03:29Z</time>
      </trkpt>
      <trkpt lat="59.8596766" lon="17.8164568">
        <ele>18.8831</ele>
        <time>2013-05-24T19:03:30Z</time>
      </trkpt>
      <trkpt lat="59.8597428" lon="17.8165145">
        <ele>19.3638</ele>
        <time>2013-05-24T19:03:31Z</time>
      </trkpt>
      <trkpt lat="59.8598091" lon="17.8165771">
        <ele>19.8444</ele>
        <time>2013-05-24T19:03:32Z</time>
      </trkpt>
      <trkpt lat="59.8598725" lon="17.8166433">
        <ele>20.325</ele>
        <time>2013-05-24T19:03:33Z</time>
      </trkpt>
      <trkpt lat="59.8599353" lon="17.8167103">
        <ele>20.325</ele>
        <time>2013-05-24T19:03:34Z</time>
      </trkpt>
      <trkpt lat="59.8599968" lon="17.8167792">
        <ele>20.8057</ele>
        <time>2013-05-24T19:03:35Z</time>
      </trkpt>
      <trkpt lat="59.8600516" lon="17.8168505">
        <ele>20.325</ele>
        <time>2013-05-24T19:03:36Z</time>
      </trkpt>
      <trkpt lat="59.860108" lon="17.8169216">
        <ele>20.325</ele>
        <time>2013-05-24T19:03:37Z</time>
      </trkpt>
      <trkpt lat="59.8601723" lon="17.8169987">
        <ele>21.2864</ele>
        <time>2013-05-24T19:03:38Z</time>
      </trkpt>
      <trkpt lat="59.8602346" lon="17.8170771">
        <ele>22.7283</ele>
        <time>2013-05-24T19:03:39Z</time>
      </trkpt>
      <trkpt lat="59.8602872" lon="17.8171489">
        <ele>21.767</ele>
        <time>2013-05-24T19:03:40Z</time>
      </trkpt>
      <trkpt lat="59.8603429" lon="17.817225">
        <ele>21.767</ele>
        <time>2013-05-24T19:03:41Z</time>
      </trkpt>
      <trkpt lat="59.8603979" lon="17.8172981">
        <ele>21.767</ele>
        <time>2013-05-24T19:03:42Z</time>
      </trkpt>
      <trkpt lat="59.8604512" lon="17.8173682">
        <ele>20.8057</ele>
        <time>2013-05-24T19:03:43Z</time>
      </trkpt>
      <trkpt lat="59.86051" lon="17.8174412">
        <ele>20.8057</ele>
        <time>2013-05-24T19:03:44Z</time>
      </trkpt>
      <trkpt lat="59.8605675" lon="17.8175156">
        <ele>20.325</ele>
        <time>2013-05-24T19:03:45Z</time>
      </trkpt>
      <trkpt lat="59.8606298" lon="17.817589">
        <ele>21.2864</ele>
        <time>2013-05-24T19:03:46Z</time>
      </trkpt>
      <trkpt lat="59.8606822" lon="17.8176634">
        <ele>20.8057</ele>
        <time>2013-05-24T19:03:47Z</time>
      </trkpt>
      <trkpt lat="59.8607412" lon="17.8177338">
        <ele>21.2864</ele>
        <time>2013-05-24T19:03:48Z</time>
      </trkpt>
      <trkpt lat="59.8607921" lon="17.8178036">
        <ele>20.325</ele>
        <time>2013-05-24T19:03:49Z</time>
      </trkpt>
      <trkpt lat="59.8608454" lon="17.8178715">
        <ele>21.2864</ele>
        <time>2013-05-24T19:03:50Z</time>
      </trkpt>
      <trkpt lat="59.860899" lon="17.8179292">
        <ele>21.767</ele>
        <time>2013-05-24T19:03:51Z</time>
      </trkpt>
      <trkpt lat="59.8609541" lon="17.817988">
        <ele>23.6896</ele>
        <time>2013-05-24T19:03:52Z</time>
      </trkpt>
      <trkpt lat="59.860996" lon="17.8180343">
        <ele>22.7283</ele>
        <time>2013-05-24T19:03:53Z</time>
      </trkpt>
      <trkpt lat="59.8610391" lon="17.8180784">
        <ele>22.2476</ele>
        <time>2013-05-24T19:03:54Z</time>
      </trkpt>
      <trkpt lat="59.8610805" lon="17.8181211">
        <ele>21.767</ele>
        <time>2013-05-24T19:03:55Z</time>
      </trkpt>
      <trkpt lat="59.8611233" lon="17.8181601">
        <ele>22.2476</ele>
        <time>2013-05-24T19:03:56Z</time>
      </trkpt>
      <trkpt lat="59.8611773" lon="17.8181923">
        <ele>24.1703</ele>
        <time>2013-05-24T19:03:57Z</time>
      </trkpt>
      <trkpt lat="59.8612136" lon="17.8182277">
        <ele>24.1703</ele>
        <time>2013-05-24T19:03:58Z</time>
      </trkpt>
      <trkpt lat="59.8612498" lon="17.8182668">
        <ele>24.1703</ele>
        <time>2013-05-24T19:03:59Z</time>
      </trkpt>
      <trkpt lat="59.8612986" lon="17.8183069">
        <ele>25.6123</ele>
        <time>2013-05-24T19:04:00Z</time>
      </trkpt>
      <trkpt lat="59.861341" lon="17.8183429">
        <ele>25.6123</ele>
        <time>2013-05-24T19:04:01Z</time>
      </trkpt>
      <trkpt lat="59.861384" lon="17.8183736">
        <ele>26.0929</ele>
        <time>2013-05-24T19:04:02Z</time>
      </trkpt>
      <trkpt lat="59.8614296" lon="17.8184073">
        <ele>26.5736</ele>
        <time>2013-05-24T19:04:03Z</time>
      </trkpt>
      <trkpt lat="59.8614799" lon="17.8184384">
        <ele>28.4962</ele>
        <time>2013-05-24T19:04:04Z</time>
      </trkpt>
      <trkpt lat="59.8615227" lon="17.8184626">
        <ele>28.9769</ele>
        <time>2013-05-24T19:04:05Z</time>
      </trkpt>
      <trkpt lat="59.8615662" lon="17.8184898">
        <ele>29.4575</ele>
        <time>2013-05-24T19:04:06Z</time>
      </trkpt>
      <trkpt lat="59.8616221" lon="17.8185221">
        <ele>31.3801</ele>
        <time>2013-05-24T19:04:07Z</time>
      </trkpt>
      <trkpt lat="59.8616755" lon="17.8185549">
        <ele>32.3416</ele>
        <time>2013-05-24T19:04:08Z</time>
      </trkpt>
      <trkpt lat="59.8617229" lon="17.8185855">
        <ele>31.3801</ele>
        <time>2013-05-24T19:04:09Z</time>
      </trkpt>
      <trkpt lat="59.8617736" lon="17.818615">
        <ele>30.4188</ele>
        <time>2013-05-24T19:04:10Z</time>
      </trkpt>
      <trkpt lat="59.8618327" lon="17.8186478">
        <ele>30.4188</ele>
        <time>2013-05-24T19:04:11Z</time>
      </trkpt>
      <trkpt lat="59.8619008" lon="17.8186983">
        <ele>30.8995</ele>
        <time>2013-05-24T19:04:12Z</time>
      </trkpt>
      <trkpt lat="59.8619662" lon="17.818742">
        <ele>30.8995</ele>
        <time>2013-05-24T19:04:13Z</time>
      </trkpt>
      <trkpt lat="59.8620372" lon="17.8187856">
        <ele>30.4188</ele>
        <time>2013-05-24T19:04:14Z</time>
      </trkpt>
      <trkpt lat="59.8621039" lon="17.8188393">
        <ele>28.9769</ele>
        <time>2013-05-24T19:04:15Z</time>
      </trkpt>
      <trkpt lat="59.862173" lon="17.8189009">
        <ele>28.4962</ele>
        <time>2013-05-24T19:04:16Z</time>
      </trkpt>
      <trkpt lat="59.8622363" lon="17.8189641">
        <ele>26.5736</ele>
        <time>2013-05-24T19:04:17Z</time>
      </trkpt>
      <trkpt lat="59.8622942" lon="17.8190517">
        <ele>27.5349</ele>
        <time>2013-05-24T19:04:18Z</time>
      </trkpt>
      <trkpt lat="59.8623469" lon="17.819148">
        <ele>27.0543</ele>
        <time>2013-05-24T19:04:19Z</time>
      </trkpt>
      <trkpt lat="59.8623852" lon="17.8192574">
        <ele>26.0929</ele>
        <time>2013-05-24T19:04:20Z</time>
      </trkpt>
      <trkpt lat="59.8624222" lon="17.8193796">
        <ele>27.0543</ele>
        <time>2013-05-24T19:04:21Z</time>
      </trkpt>
      <trkpt lat="59.8624513" lon="17.8195068">
        <ele>27.0543</ele>
        <time>2013-05-24T19:04:22Z</time>
      </trkpt>
      <trkpt lat="59.8624839" lon="17.8196365">
        <ele>28.4962</ele>
        <time>2013-05-24T19:04:23Z</time>
      </trkpt>
      <trkpt lat="59.8625154" lon="17.8197643">
        <ele>28.9769</ele>
        <time>2013-05-24T19:04:24Z</time>
      </trkpt>
      <trkpt lat="59.8625399" lon="17.8198888">
        <ele>28.4962</ele>
        <time>2013-05-24T19:04:25Z</time>
      </trkpt>
      <trkpt lat="59.8625656" lon="17.8200174">
        <ele>28.9769</ele>
        <time>2013-05-24T19:04:26Z</time>
      </trkpt>
      <trkpt lat="59.8625859" lon="17.8201497">
        <ele>28.4962</ele>
        <time>2013-05-24T19:04:27Z</time>
      </trkpt>
      <trkpt lat="59.8626107" lon="17.8202846">
        <ele>28.0155</ele>
        <time>2013-05-24T19:04:28Z</time>
      </trkpt>
      <trkpt lat="59.8626448" lon="17.820423">
        <ele>27.5349</ele>
        <time>2013-05-24T19:04:29Z</time>
      </trkpt>
      <trkpt lat="59.862675" lon="17.8205638">
        <ele>26.0929</ele>
        <time>2013-05-24T19:04:30Z</time>
      </trkpt>
      <trkpt lat="59.8627128" lon="17.8207094">
        <ele>24.651</ele>
        <time>2013-05-24T19:04:31Z</time>
      </trkpt>
      <trkpt lat="59.8627524" lon="17.8208625">
        <ele>23.209</ele>
        <time>2013-05-24T19:04:32Z</time>
      </trkpt>
      <trkpt lat="59.8627905" lon="17.8210206">
        <ele>21.767</ele>
        <time>2013-05-24T19:04:33Z</time>
      </trkpt>
      <trkpt lat="59.8628277" lon="17.8211848">
        <ele>20.325</ele>
        <time>2013-05-24T19:04:34Z</time>
      </trkpt>
      <trkpt lat="59.8628732" lon="17.8213497">
        <ele>19.3638</ele>
        <time>2013-05-24T19:04:35Z</time>
      </trkpt>
      <trkpt lat="59.8629211" lon="17.8215143">
        <ele>18.4023</ele>
        <time>2013-05-24T19:04:36Z</time>
      </trkpt>
      <trkpt lat="59.8629716" lon="17.8216774">
        <ele>17.9218</ele>
        <time>2013-05-24T19:04:37Z</time>
      </trkpt>
      <trkpt lat="59.8630228" lon="17.8218379">
        <ele>16.9604</ele>
        <time>2013-05-24T19:04:38Z</time>
      </trkpt>
      <trkpt lat="59.8630733" lon="17.8219971">
        <ele>16.4797</ele>
        <time>2013-05-24T19:04:39Z</time>
      </trkpt>
      <trkpt lat="59.8631239" lon="17.8221528">
        <ele>15.5184</ele>
        <time>2013-05-24T19:04:40Z</time>
      </trkpt>
      <trkpt lat="59.863171" lon="17.8223058">
        <ele>14.0764</ele>
        <time>2013-05-24T19:04:41Z</time>
      </trkpt>
      <trkpt lat="59.8632215" lon="17.822458">
        <ele>13.1151</ele>
        <time>2013-05-24T19:04:42Z</time>
      </trkpt>
      <trkpt lat="59.8632743" lon="17.8226102">
        <ele>12.1538</ele>
        <time>2013-05-24T19:04:43Z</time>
      </trkpt>
      <trkpt lat="59.8633283" lon="17.8227592">
        <ele>11.1925</ele>
        <time>2013-05-24T19:04:44Z</time>
      </trkpt>
      <trkpt lat="59.8633835" lon="17.8229046">
        <ele>10.2312</ele>
        <time>2013-05-24T19:04:45Z</time>
      </trkpt>
      <trkpt lat="59.86344" lon="17.8230471">
        <ele>9.75061</ele>
        <time>2013-05-24T19:04:46Z</time>
      </trkpt>
      <trkpt lat="59.8634996" lon="17.8231865">
        <ele>8.78918</ele>
        <time>2013-05-24T19:04:47Z</time>
      </trkpt>
      <trkpt lat="59.8635612" lon="17.8233233">
        <ele>8.30859</ele>
        <time>2013-05-24T19:04:48Z</time>
      </trkpt>
      <trkpt lat="59.8636223" lon="17.8234606">
        <ele>8.30859</ele>
        <time>2013-05-24T19:04:49Z</time>
      </trkpt>
      <trkpt lat="59.863683" lon="17.8235979">
        <ele>8.30859</ele>
        <time>2013-05-24T19:04:50Z</time>
      </trkpt>
      <trkpt lat="59.8637426" lon="17.8237319">
        <ele>8.30859</ele>
        <time>2013-05-24T19:04:51Z</time>
      </trkpt>
      <trkpt lat="59.863801" lon="17.823863">
        <ele>8.30859</ele>
        <time>2013-05-24T19:04:52Z</time>
      </trkpt>
      <trkpt lat="59.8638572" lon="17.8239919">
        <ele>8.30859</ele>
        <time>2013-05-24T19:04:53Z</time>
      </trkpt>
      <trkpt lat="59.8639136" lon="17.8241169">
        <ele>8.30859</ele>
        <time>2013-05-24T19:04:54Z</time>
      </trkpt>
      <trkpt lat="59.8639693" lon="17.824239">
        <ele>8.78918</ele>
        <time>2013-05-24T19:04:55Z</time>
      </trkpt>
      <trkpt lat="59.8640249" lon="17.8243573">
        <ele>8.78918</ele>
        <time>2013-05-24T19:04:56Z</time>
      </trkpt>
      <trkpt lat="59.8640801" lon="17.8244711">
        <ele>9.2699</ele>
        <time>2013-05-24T19:04:57Z</time>
      </trkpt>
      <trkpt lat="59.8641342" lon="17.8245839">
        <ele>9.75061</ele>
        <time>2013-05-24T19:04:58Z</time>
      </trkpt>
      <trkpt lat="59.864186" lon="17.8246958">
        <ele>10.2312</ele>
        <time>2013-05-24T19:04:59Z</time>
      </trkpt>
      <trkpt lat="59.8642362" lon="17.8248042">
        <ele>10.2312</ele>
        <time>2013-05-24T19:05:00Z</time>
      </trkpt>
      <trkpt lat="59.8642901" lon="17.8249083">
        <ele>11.6732</ele>
        <time>2013-05-24T19:05:01Z</time>
      </trkpt>
      <trkpt lat="59.8643414" lon="17.8250081">
        <ele>12.6344</ele>
        <time>2013-05-24T19:05:02Z</time>
      </trkpt>
      <trkpt lat="59.8643852" lon="17.8251026">
        <ele>12.6344</ele>
        <time>2013-05-24T19:05:03Z</time>
      </trkpt>
      <trkpt lat="59.8644263" lon="17.8251948">
        <ele>12.6344</ele>
        <time>2013-05-24T19:05:04Z</time>
      </trkpt>
      <trkpt lat="59.8644666" lon="17.8252864">
        <ele>12.6344</ele>
        <time>2013-05-24T19:05:05Z</time>
      </trkpt>
      <trkpt lat="59.8645035" lon="17.825374">
        <ele>12.1538</ele>
        <time>2013-05-24T19:05:06Z</time>
      </trkpt>
      <trkpt lat="59.8645416" lon="17.8254582">
        <ele>11.6732</ele>
        <time>2013-05-24T19:05:07Z</time>
      </trkpt>
      <trkpt lat="59.8645812" lon="17.8255448">
        <ele>12.1538</ele>
        <time>2013-05-24T19:05:08Z</time>
      </trkpt>
      <trkpt lat="59.8646205" lon="17.8256315">
        <ele>13.1151</ele>
        <time>2013-05-24T19:05:09Z</time>
      </trkpt>
      <trkpt lat="59.8646683" lon="17.8257186">
        <ele>15.0377</ele>
        <time>2013-05-24T19:05:10Z</time>
      </trkpt>
      <trkpt lat="59.8647071" lon="17.8257967">
        <ele>15.999</ele>
        <time>2013-05-24T19:05:11Z</time>
      </trkpt>
      <trkpt lat="59.8647475" lon="17.8258698">
        <ele>17.4412</ele>
        <time>2013-05-24T19:05:12Z</time>
      </trkpt>
      <trkpt lat="59.864777" lon="17.8259386">
        <ele>17.4412</ele>
        <time>2013-05-24T19:05:13Z</time>
      </trkpt>
      <trkpt lat="59.8648046" lon="17.8260047">
        <ele>17.4412</ele>
        <time>2013-05-24T19:05:14Z</time>
      </trkpt>
      <trkpt lat="59.864834" lon="17.8260681">
        <ele>17.4412</ele>
        <time>2013-05-24T19:05:15Z</time>
      </trkpt>
      <trkpt lat="59.8648655" lon="17.8261266">
        <ele>17.4412</ele>
        <time>2013-05-24T19:05:16Z</time>
      </trkpt>
      <trkpt lat="59.8649024" lon="17.8261851">
        <ele>18.8831</ele>
        <time>2013-05-24T19:05:17Z</time>
      </trkpt>
      <trkpt lat="59.8649345" lon="17.8262431">
        <ele>19.3638</ele>
        <time>2013-05-24T19:05:18Z</time>
      </trkpt>
      <trkpt lat="59.864968" lon="17.8262995">
        <ele>19.8444</ele>
        <time>2013-05-24T19:05:19Z</time>
      </trkpt>
      <trkpt lat="59.8650009" lon="17.8263551">
        <ele>20.325</ele>
        <time>2013-05-24T19:05:20Z</time>
      </trkpt>
      <trkpt lat="59.8650366" lon="17.8264058">
        <ele>20.8057</ele>
        <time>2013-05-24T19:05:21Z</time>
      </trkpt>
      <trkpt lat="59.8650774" lon="17.8264489">
        <ele>20.8057</ele>
        <time>2013-05-24T19:05:22Z</time>
      </trkpt>
      <trkpt lat="59.8651183" lon="17.8264949">
        <ele>20.8057</ele>
        <time>2013-05-24T19:05:23Z</time>
      </trkpt>
      <trkpt lat="59.865163" lon="17.8265385">
        <ele>21.2864</ele>
        <time>2013-05-24T19:05:24Z</time>
      </trkpt>
      <trkpt lat="59.8652135" lon="17.8265766">
        <ele>22.2476</ele>
        <time>2013-05-24T19:05:25Z</time>
      </trkpt>
      <trkpt lat="59.8652628" lon="17.8266051">
        <ele>22.2476</ele>
        <time>2013-05-24T19:05:26Z</time>
      </trkpt>
      <trkpt lat="59.8653167" lon="17.8266234">
        <ele>22.7283</ele>
        <time>2013-05-24T19:05:27Z</time>
      </trkpt>
      <trkpt lat="59.8653733" lon="17.8266412">
        <ele>22.7283</ele>
        <time>2013-05-24T19:05:28Z</time>
      </trkpt>
      <trkpt lat="59.8654323" lon="17.8266593">
        <ele>23.209</ele>
        <time>2013-05-24T19:05:29Z</time>
      </trkpt>
      <trkpt lat="59.8654934" lon="17.8266764">
        <ele>23.6896</ele>
        <time>2013-05-24T19:05:30Z</time>
      </trkpt>
      <trkpt lat="59.8655566" lon="17.8266933">
        <ele>24.1703</ele>
        <time>2013-05-24T19:05:31Z</time>
      </trkpt>
      <trkpt lat="59.8656225" lon="17.8267094">
        <ele>24.651</ele>
        <time>2013-05-24T19:05:32Z</time>
      </trkpt>
      <trkpt lat="59.8656882" lon="17.826723">
        <ele>25.1317</ele>
        <time>2013-05-24T19:05:33Z</time>
      </trkpt>
      <trkpt lat="59.8657503" lon="17.8267346">
        <ele>24.651</ele>
        <time>2013-05-24T19:05:34Z</time>
      </trkpt>
      <trkpt lat="59.8658154" lon="17.8267488">
        <ele>24.651</ele>
        <time>2013-05-24T19:05:35Z</time>
      </trkpt>
      <trkpt lat="59.8658838" lon="17.8267731">
        <ele>25.6123</ele>
        <time>2013-05-24T19:05:36Z</time>
      </trkpt>
      <trkpt lat="59.865951" lon="17.8267823">
        <ele>25.6123</ele>
        <time>2013-05-24T19:05:37Z</time>
      </trkpt>
      <trkpt lat="59.8660151" lon="17.8267847">
        <ele>25.1317</ele>
        <time>2013-05-24T19:05:38Z</time>
      </trkpt>
      <trkpt lat="59.8660799" lon="17.8267908">
        <ele>24.651</ele>
        <time>2013-05-24T19:05:39Z</time>
      </trkpt>
      <trkpt lat="59.8661421" lon="17.8267937">
        <ele>24.1703</ele>
        <time>2013-05-24T19:05:40Z</time>
      </trkpt>
      <trkpt lat="59.8662079" lon="17.8267963">
        <ele>23.6896</ele>
        <time>2013-05-24T19:05:41Z</time>
      </trkpt>
      <trkpt lat="59.8662668" lon="17.8267841">
        <ele>22.7283</ele>
        <time>2013-05-24T19:05:42Z</time>
      </trkpt>
      <trkpt lat="59.8663237" lon="17.826769">
        <ele>20.325</ele>
        <time>2013-05-24T19:05:43Z</time>
      </trkpt>
      <trkpt lat="59.8663863" lon="17.8267498">
        <ele>18.8831</ele>
        <time>2013-05-24T19:05:44Z</time>
      </trkpt>
      <trkpt lat="59.8664526" lon="17.8267269">
        <ele>18.4023</ele>
        <time>2013-05-24T19:05:45Z</time>
      </trkpt>
      <trkpt lat="59.8665228" lon="17.8267047">
        <ele>18.8831</ele>
        <time>2013-05-24T19:05:46Z</time>
      </trkpt>
      <trkpt lat="59.8665912" lon="17.826681">
        <ele>18.4023</ele>
        <time>2013-05-24T19:05:47Z</time>
      </trkpt>
      <trkpt lat="59.8666582" lon="17.8266536">
        <ele>17.9218</ele>
        <time>2013-05-24T19:05:48Z</time>
      </trkpt>
      <trkpt lat="59.8667269" lon="17.8266219">
        <ele>17.9218</ele>
        <time>2013-05-24T19:05:49Z</time>
      </trkpt>
      <trkpt lat="59.8667942" lon="17.8265927">
        <ele>17.9218</ele>
        <time>2013-05-24T19:05:50Z</time>
      </trkpt>
      <trkpt lat="59.8668584" lon="17.8265572">
        <ele>18.4023</ele>
        <time>2013-05-24T19:05:51Z</time>
      </trkpt>
      <trkpt lat="59.86692" lon="17.826523">
        <ele>18.8831</ele>
        <time>2013-05-24T19:05:52Z</time>
      </trkpt>
      <trkpt lat="59.8669838" lon="17.8264917">
        <ele>19.3638</ele>
        <time>2013-05-24T19:05:53Z</time>
      </trkpt>
      <trkpt lat="59.8670448" lon="17.8264551">
        <ele>19.8444</ele>
        <time>2013-05-24T19:05:54Z</time>
      </trkpt>
      <trkpt lat="59.8670976" lon="17.826409">
        <ele>18.4023</ele>
        <time>2013-05-24T19:05:55Z</time>
      </trkpt>
      <trkpt lat="59.8671485" lon="17.8263619">
        <ele>17.4412</ele>
        <time>2013-05-24T19:05:56Z</time>
      </trkpt>
      <trkpt lat="59.8671991" lon="17.8263074">
        <ele>15.999</ele>
        <time>2013-05-24T19:05:57Z</time>
      </trkpt>
      <trkpt lat="59.8672516" lon="17.8262679">
        <ele>15.5184</ele>
        <time>2013-05-24T19:05:58Z</time>
      </trkpt>
      <trkpt lat="59.8673061" lon="17.8262292">
        <ele>15.0377</ele>
        <time>2013-05-24T19:05:59Z</time>
      </trkpt>
      <trkpt lat="59.8673665" lon="17.8262001">
        <ele>15.999</ele>
        <time>2013-05-24T19:06:00Z</time>
      </trkpt>
      <trkpt lat="59.8674174" lon="17.8261639">
        <ele>15.5184</ele>
        <time>2013-05-24T19:06:01Z</time>
      </trkpt>
      <trkpt lat="59.8674671" lon="17.8261299">
        <ele>15.0377</ele>
        <time>2013-05-24T19:06:02Z</time>
      </trkpt>
      <trkpt lat="59.8675115" lon="17.8260946">
        <ele>14.0764</ele>
        <time>2013-05-24T19:06:03Z</time>
      </trkpt>
      <trkpt lat="59.8675593" lon="17.8260568">
        <ele>14.0764</ele>
        <time>2013-05-24T19:06:04Z</time>
      </trkpt>
      <trkpt lat="59.8676029" lon="17.8260143">
        <ele>13.5958</ele>
        <time>2013-05-24T19:06:05Z</time>
      </trkpt>
      <trkpt lat="59.867653" lon="17.8259801">
        <ele>14.0764</ele>
        <time>2013-05-24T19:06:06Z</time>
      </trkpt>
      <trkpt lat="59.8677051" lon="17.8259537">
        <ele>15.0377</ele>
        <time>2013-05-24T19:06:07Z</time>
      </trkpt>
      <trkpt lat="59.8677576" lon="17.8259262">
        <ele>15.999</ele>
        <time>2013-05-24T19:06:08Z</time>
      </trkpt>
      <trkpt lat="59.8678068" lon="17.8258967">
        <ele>16.9604</ele>
        <time>2013-05-24T19:06:09Z</time>
      </trkpt>
      <trkpt lat="59.8678503" lon="17.8258598">
        <ele>16.9604</ele>
        <time>2013-05-24T19:06:10Z</time>
      </trkpt>
      <trkpt lat="59.8678978" lon="17.8258255">
        <ele>16.9604</ele>
        <time>2013-05-24T19:06:11Z</time>
      </trkpt>
      <trkpt lat="59.8679382" lon="17.8258033">
        <ele>15.999</ele>
        <time>2013-05-24T19:06:12Z</time>
      </trkpt>
      <trkpt lat="59.8679803" lon="17.8257675">
        <ele>15.999</ele>
        <time>2013-05-24T19:06:13Z</time>
      </trkpt>
      <trkpt lat="59.8680237" lon="17.825732">
        <ele>16.4797</ele>
        <time>2013-05-24T19:06:14Z</time>
      </trkpt>
      <trkpt lat="59.8680652" lon="17.8257043">
        <ele>16.4797</ele>
        <time>2013-05-24T19:06:15Z</time>
      </trkpt>
      <trkpt lat="59.8681078" lon="17.8256797">
        <ele>15.999</ele>
        <time>2013-05-24T19:06:16Z</time>
      </trkpt>
      <trkpt lat="59.8681494" lon="17.8256567">
        <ele>15.5184</ele>
        <time>2013-05-24T19:06:17Z</time>
      </trkpt>
      <trkpt lat="59.8681947" lon="17.8256423">
        <ele>15.5184</ele>
        <time>2013-05-24T19:06:18Z</time>
      </trkpt>
      <trkpt lat="59.8682371" lon="17.8256346">
        <ele>15.5184</ele>
        <time>2013-05-24T19:06:19Z</time>
      </trkpt>
      <trkpt lat="59.8682822" lon="17.8256388">
        <ele>15.5184</ele>
        <time>2013-05-24T19:06:20Z</time>
      </trkpt>
      <trkpt lat="59.8683338" lon="17.8256551">
        <ele>15.999</ele>
        <time>2013-05-24T19:06:21Z</time>
      </trkpt>
      <trkpt lat="59.8683871" lon="17.8256811">
        <ele>16.4797</ele>
        <time>2013-05-24T19:06:22Z</time>
      </trkpt>
      <trkpt lat="59.8684383" lon="17.8257221">
        <ele>16.9604</ele>
        <time>2013-05-24T19:06:23Z</time>
      </trkpt>
      <trkpt lat="59.8684865" lon="17.8257709">
        <ele>16.9604</ele>
        <time>2013-05-24T19:06:24Z</time>
      </trkpt>
      <trkpt lat="59.8685352" lon="17.8258247">
        <ele>17.4412</ele>
        <time>2013-05-24T19:06:25Z</time>
      </trkpt>
      <trkpt lat="59.8685829" lon="17.8258843">
        <ele>17.9218</ele>
        <time>2013-05-24T19:06:26Z</time>
      </trkpt>
      <trkpt lat="59.8686247" lon="17.8259504">
        <ele>17.9218</ele>
        <time>2013-05-24T19:06:27Z</time>
      </trkpt>
      <trkpt lat="59.8686679" lon="17.826022">
        <ele>18.4023</ele>
        <time>2013-05-24T19:06:28Z</time>
      </trkpt>
      <trkpt lat="59.8687117" lon="17.8260985">
        <ele>18.8831</ele>
        <time>2013-05-24T19:06:29Z</time>
      </trkpt>
      <trkpt lat="59.8687551" lon="17.826178">
        <ele>19.3638</ele>
        <time>2013-05-24T19:06:30Z</time>
      </trkpt>
      <trkpt lat="59.8688005" lon="17.8262623">
        <ele>19.3638</ele>
        <time>2013-05-24T19:06:31Z</time>
      </trkpt>
      <trkpt lat="59.8688479" lon="17.8263485">
        <ele>19.8444</ele>
        <time>2013-05-24T19:06:32Z</time>
      </trkpt>
      <trkpt lat="59.8688981" lon="17.8264371">
        <ele>20.325</ele>
        <time>2013-05-24T19:06:33Z</time>
      </trkpt>
      <trkpt lat="59.8689486" lon="17.8265274">
        <ele>20.8057</ele>
        <time>2013-05-24T19:06:34Z</time>
      </trkpt>
      <trkpt lat="59.8689982" lon="17.8266178">
        <ele>21.2864</ele>
        <time>2013-05-24T19:06:35Z</time>
      </trkpt>
      <trkpt lat="59.8690458" lon="17.8267059">
        <ele>20.8057</ele>
        <time>2013-05-24T19:06:36Z</time>
      </trkpt>
      <trkpt lat="59.8690946" lon="17.8267918">
        <ele>20.8057</ele>
        <time>2013-05-24T19:06:37Z</time>
      </trkpt>
      <trkpt lat="59.8691431" lon="17.8268758">
        <ele>20.325</ele>
        <time>2013-05-24T19:06:38Z</time>
      </trkpt>
      <trkpt lat="59.8691903" lon="17.8269592">
        <ele>19.8444</ele>
        <time>2013-05-24T19:06:39Z</time>
      </trkpt>
      <trkpt lat="59.8692366" lon="17.8270389">
        <ele>19.3638</ele>
        <time>2013-05-24T19:06:40Z</time>
      </trkpt>
      <trkpt lat="59.8692851" lon="17.8271232">
        <ele>18.8831</ele>
        <time>2013-05-24T19:06:41Z</time>
      </trkpt>
      <trkpt lat="59.8693382" lon="17.8272135">
        <ele>19.8444</ele>
        <time>2013-05-24T19:06:42Z</time>
      </trkpt>
      <trkpt lat="59.8693869" lon="17.827302">
        <ele>19.3638</ele>
        <time>2013-05-24T19:06:43Z</time>
      </trkpt>
      <trkpt lat="59.8694335" lon="17.8273927">
        <ele>19.8444</ele>
        <time>2013-05-24T19:06:44Z</time>
      </trkpt>
      <trkpt lat="59.869479" lon="17.8274802">
        <ele>20.325</ele>
        <time>2013-05-24T19:06:45Z</time>
      </trkpt>
      <trkpt lat="59.8695302" lon="17.8275693">
        <ele>20.8057</ele>
        <time>2013-05-24T19:06:46Z</time>
      </trkpt>
      <trkpt lat="59.8695795" lon="17.8276577">
        <ele>20.8057</ele>
        <time>2013-05-24T19:06:47Z</time>
      </trkpt>
      <trkpt lat="59.8696352" lon="17.8277449">
        <ele>21.2864</ele>
        <time>2013-05-24T19:06:48Z</time>
      </trkpt>
      <trkpt lat="59.8696915" lon="17.8278279">
        <ele>21.767</ele>
        <time>2013-05-24T19:06:49Z</time>
      </trkpt>
      <trkpt lat="59.8697541" lon="17.8279093">
        <ele>22.2476</ele>
        <time>2013-05-24T19:06:50Z</time>
      </trkpt>
      <trkpt lat="59.8698147" lon="17.8279894">
        <ele>22.2476</ele>
        <time>2013-05-24T19:06:51Z</time>
      </trkpt>
      <trkpt lat="59.8698685" lon="17.8280677">
        <ele>21.2864</ele>
        <time>2013-05-24T19:06:52Z</time>
      </trkpt>
      <trkpt lat="59.8699274" lon="17.8281415">
        <ele>20.325</ele>
        <time>2013-05-24T19:06:53Z</time>
      </trkpt>
      <trkpt lat="59.8699897" lon="17.8282122">
        <ele>19.3638</ele>
        <time>2013-05-24T19:06:54Z</time>
      </trkpt>
      <trkpt lat="59.8700548" lon="17.8282804">
        <ele>18.8831</ele>
        <time>2013-05-24T19:06:55Z</time>
      </trkpt>
      <trkpt lat="59.8701224" lon="17.8283478">
        <ele>18.4023</ele>
        <time>2013-05-24T19:06:56Z</time>
      </trkpt>
      <trkpt lat="59.8701918" lon="17.8284153">
        <ele>17.9218</ele>
        <time>2013-05-24T19:06:57Z</time>
      </trkpt>
      <trkpt lat="59.8702626" lon="17.8284834">
        <ele>17.4412</ele>
        <time>2013-05-24T19:06:58Z</time>
      </trkpt>
      <trkpt lat="59.8703342" lon="17.8285531">
        <ele>17.4412</ele>
        <time>2013-05-24T19:06:59Z</time>
      </trkpt>
      <trkpt lat="59.8704057" lon="17.8286243">
        <ele>16.9604</ele>
        <time>2013-05-24T19:07:00Z</time>
      </trkpt>
      <trkpt lat="59.8704772" lon="17.8286943">
        <ele>16.9604</ele>
        <time>2013-05-24T19:07:01Z</time>
      </trkpt>
      <trkpt lat="59.8705492" lon="17.8287623">
        <ele>16.9604</ele>
        <time>2013-05-24T19:07:02Z</time>
      </trkpt>
      <trkpt lat="59.8706212" lon="17.8288302">
        <ele>16.9604</ele>
        <time>2013-05-24T19:07:03Z</time>
      </trkpt>
      <trkpt lat="59.8706917" lon="17.8288996">
        <ele>16.9604</ele>
        <time>2013-05-24T19:07:04Z</time>
      </trkpt>
      <trkpt lat="59.8707611" lon="17.8289705">
        <ele>16.9604</ele>
        <time>2013-05-24T19:07:05Z</time>
      </trkpt>
      <trkpt lat="59.8708301" lon="17.8290395">
        <ele>16.9604</ele>
        <time>2013-05-24T19:07:06Z</time>
      </trkpt>
      <trkpt lat="59.8708993" lon="17.8291037">
        <ele>16.9604</ele>
        <time>2013-05-24T19:07:07Z</time>
      </trkpt>
      <trkpt lat="59.8709681" lon="17.8291649">
        <ele>16.4797</ele>
        <time>2013-05-24T19:07:08Z</time>
      </trkpt>
      <trkpt lat="59.8710356" lon="17.8292252">
        <ele>16.4797</ele>
        <time>2013-05-24T19:07:09Z</time>
      </trkpt>
      <trkpt lat="59.8711014" lon="17.8292871">
        <ele>16.4797</ele>
        <time>2013-05-24T19:07:10Z</time>
      </trkpt>
      <trkpt lat="59.8711657" lon="17.8293485">
        <ele>16.4797</ele>
        <time>2013-05-24T19:07:11Z</time>
      </trkpt>
      <trkpt lat="59.8712304" lon="17.8294067">
        <ele>16.4797</ele>
        <time>2013-05-24T19:07:12Z</time>
      </trkpt>
      <trkpt lat="59.871295" lon="17.8294637">
        <ele>16.4797</ele>
        <time>2013-05-24T19:07:13Z</time>
      </trkpt>
      <trkpt lat="59.8713595" lon="17.8295212">
        <ele>16.4797</ele>
        <time>2013-05-24T19:07:14Z</time>
      </trkpt>
      <trkpt lat="59.8714241" lon="17.8295792">
        <ele>16.4797</ele>
        <time>2013-05-24T19:07:15Z</time>
      </trkpt>
      <trkpt lat="59.8714884" lon="17.8296383">
        <ele>16.4797</ele>
        <time>2013-05-24T19:07:16Z</time>
      </trkpt>
      <trkpt lat="59.8715526" lon="17.8296988">
        <ele>15.999</ele>
        <time>2013-05-24T19:07:17Z</time>
      </trkpt>
      <trkpt lat="59.8716173" lon="17.8297585">
        <ele>15.5184</ele>
        <time>2013-05-24T19:07:18Z</time>
      </trkpt>
      <trkpt lat="59.8716817" lon="17.8298175">
        <ele>15.0377</ele>
        <time>2013-05-24T19:07:19Z</time>
      </trkpt>
      <trkpt lat="59.8717449" lon="17.8298755">
        <ele>15.0377</ele>
        <time>2013-05-24T19:07:20Z</time>
      </trkpt>
      <trkpt lat="59.8718064" lon="17.8299316">
        <ele>14.557</ele>
        <time>2013-05-24T19:07:21Z</time>
      </trkpt>
      <trkpt lat="59.8718651" lon="17.8299854">
        <ele>14.557</ele>
        <time>2013-05-24T19:07:22Z</time>
      </trkpt>
      <trkpt lat="59.871923" lon="17.8300381">
        <ele>14.0764</ele>
        <time>2013-05-24T19:07:23Z</time>
      </trkpt>
      <trkpt lat="59.8719792" lon="17.8300894">
        <ele>14.0764</ele>
        <time>2013-05-24T19:07:24Z</time>
      </trkpt>
      <trkpt lat="59.8720347" lon="17.8301418">
        <ele>14.0764</ele>
        <time>2013-05-24T19:07:25Z</time>
      </trkpt>
      <trkpt lat="59.8720902" lon="17.8301932">
        <ele>14.557</ele>
        <time>2013-05-24T19:07:26Z</time>
      </trkpt>
      <trkpt lat="59.8721468" lon="17.8302438">
        <ele>15.0377</ele>
        <time>2013-05-24T19:07:27Z</time>
      </trkpt>
      <trkpt lat="59.8722037" lon="17.8302934">
        <ele>15.5184</ele>
        <time>2013-05-24T19:07:28Z</time>
      </trkpt>
      <trkpt lat="59.8722576" lon="17.8303416">
        <ele>15.999</ele>
        <time>2013-05-24T19:07:29Z</time>
      </trkpt>
      <trkpt lat="59.8723047" lon="17.8303859">
        <ele>15.5184</ele>
        <time>2013-05-24T19:07:30Z</time>
      </trkpt>
      <trkpt lat="59.8723571" lon="17.8304332">
        <ele>16.4797</ele>
        <time>2013-05-24T19:07:31Z</time>
      </trkpt>
      <trkpt lat="59.8724105" lon="17.8304711">
        <ele>17.4412</ele>
        <time>2013-05-24T19:07:32Z</time>
      </trkpt>
      <trkpt lat="59.8724597" lon="17.8305054">
        <ele>17.9218</ele>
        <time>2013-05-24T19:07:33Z</time>
      </trkpt>
      <trkpt lat="59.8725068" lon="17.8305354">
        <ele>18.4023</ele>
        <time>2013-05-24T19:07:34Z</time>
      </trkpt>
      <trkpt lat="59.8725457" lon="17.8305637">
        <ele>17.9218</ele>
        <time>2013-05-24T19:07:35Z</time>
      </trkpt>
      <trkpt lat="59.8725867" lon="17.8305883">
        <ele>17.4412</ele>
        <time>2013-05-24T19:07:36Z</time>
      </trkpt>
      <trkpt lat="59.8726311" lon="17.8306132">
        <ele>18.4023</ele>
        <time>2013-05-24T19:07:37Z</time>
      </trkpt>
      <trkpt lat="59.8726749" lon="17.8306356">
        <ele>19.3638</ele>
        <time>2013-05-24T19:07:38Z</time>
      </trkpt>
      <trkpt lat="59.872714" lon="17.8306549">
        <ele>19.3638</ele>
        <time>2013-05-24T19:07:39Z</time>
      </trkpt>
      <trkpt lat="59.8727586" lon="17.8306727">
        <ele>20.325</ele>
        <time>2013-05-24T19:07:40Z</time>
      </trkpt>
      <trkpt lat="59.8727969" lon="17.8306852">
        <ele>19.8444</ele>
        <time>2013-05-24T19:07:41Z</time>
      </trkpt>
      <trkpt lat="59.872832" lon="17.8306929">
        <ele>18.8831</ele>
        <time>2013-05-24T19:07:42Z</time>
      </trkpt>
      <trkpt lat="59.8728704" lon="17.8307">
        <ele>17.9218</ele>
        <time>2013-05-24T19:07:43Z</time>
      </trkpt>
      <trkpt lat="59.8729123" lon="17.8307167">
        <ele>17.9218</ele>
        <time>2013-05-24T19:07:44Z</time>
      </trkpt>
      <trkpt lat="59.8729548" lon="17.8307388">
        <ele>17.9218</ele>
        <time>2013-05-24T19:07:45Z</time>
      </trkpt>
      <trkpt lat="59.8730036" lon="17.8307686">
        <ele>19.3638</ele>
        <time>2013-05-24T19:07:46Z</time>
      </trkpt>
      <trkpt lat="59.8730502" lon="17.8308028">
        <ele>20.325</ele>
        <time>2013-05-24T19:07:47Z</time>
      </trkpt>
      <trkpt lat="59.8730932" lon="17.830837">
        <ele>20.325</ele>
        <time>2013-05-24T19:07:48Z</time>
      </trkpt>
      <trkpt lat="59.8731335" lon="17.8308639">
        <ele>19.3638</ele>
        <time>2013-05-24T19:07:49Z</time>
      </trkpt>
      <trkpt lat="59.8731764" lon="17.8308975">
        <ele>19.3638</ele>
        <time>2013-05-24T19:07:50Z</time>
      </trkpt>
      <trkpt lat="59.8732228" lon="17.8309333">
        <ele>19.8444</ele>
        <time>2013-05-24T19:07:51Z</time>
      </trkpt>
      <trkpt lat="59.8732662" lon="17.830969">
        <ele>19.8444</ele>
        <time>2013-05-24T19:07:52Z</time>
      </trkpt>
      <trkpt lat="59.8733029" lon="17.83101">
        <ele>19.8444</ele>
        <time>2013-05-24T19:07:53Z</time>
      </trkpt>
      <trkpt lat="59.8733453" lon="17.8310408">
        <ele>20.325</ele>
        <time>2013-05-24T19:07:54Z</time>
      </trkpt>
      <trkpt lat="59.8733848" lon="17.8310742">
        <ele>20.325</ele>
        <time>2013-05-24T19:07:55Z</time>
      </trkpt>
      <trkpt lat="59.8734243" lon="17.8311105">
        <ele>20.8057</ele>
        <time>2013-05-24T19:07:56Z</time>
      </trkpt>
      <trkpt lat="59.873464" lon="17.8311463">
        <ele>21.2864</ele>
        <time>2013-05-24T19:07:57Z</time>
      </trkpt>
      <trkpt lat="59.8735102" lon="17.8311845">
        <ele>23.209</ele>
        <time>2013-05-24T19:07:58Z</time>
      </trkpt>
      <trkpt lat="59.8735526" lon="17.8312269">
        <ele>24.651</ele>
        <time>2013-05-24T19:07:59Z</time>
      </trkpt>
      <trkpt lat="59.8735936" lon="17.8312763">
        <ele>27.0543</ele>
        <time>2013-05-24T19:08:00Z</time>
      </trkpt>
      <trkpt lat="59.8736294" lon="17.8313228">
        <ele>28.4962</ele>
        <time>2013-05-24T19:08:01Z</time>
      </trkpt>
      <trkpt lat="59.8736683" lon="17.8313672">
        <ele>29.4575</ele>
        <time>2013-05-24T19:08:02Z</time>
      </trkpt>
      <trkpt lat="59.873698" lon="17.8314133">
        <ele>29.9381</ele>
        <time>2013-05-24T19:08:03Z</time>
      </trkpt>
      <trkpt lat="59.8737284" lon="17.8314592">
        <ele>30.4188</ele>
        <time>2013-05-24T19:08:04Z</time>
      </trkpt>
      <trkpt lat="59.8737596" lon="17.8315004">
        <ele>30.8995</ele>
        <time>2013-05-24T19:08:05Z</time>
      </trkpt>
      <trkpt lat="59.8737905" lon="17.8315431">
        <ele>31.8607</ele>
        <time>2013-05-24T19:08:06Z</time>
      </trkpt>
      <trkpt lat="59.8738183" lon="17.8315838">
        <ele>31.8607</ele>
        <time>2013-05-24T19:08:07Z</time>
      </trkpt>
      <trkpt lat="59.8738513" lon="17.8316265">
        <ele>32.3416</ele>
        <time>2013-05-24T19:08:08Z</time>
      </trkpt>
      <trkpt lat="59.8738904" lon="17.8316716">
        <ele>34.2642</ele>
        <time>2013-05-24T19:08:09Z</time>
      </trkpt>
      <trkpt lat="59.8739209" lon="17.831715">
        <ele>34.2642</ele>
        <time>2013-05-24T19:08:10Z</time>
      </trkpt>
      <trkpt lat="59.8739576" lon="17.831759">
        <ele>35.2255</ele>
        <time>2013-05-24T19:08:11Z</time>
      </trkpt>
      <trkpt lat="59.8739967" lon="17.8318059">
        <ele>36.6675</ele>
        <time>2013-05-24T19:08:12Z</time>
      </trkpt>
      <trkpt lat="59.8740301" lon="17.8318505">
        <ele>37.1481</ele>
        <time>2013-05-24T19:08:13Z</time>
      </trkpt>
      <trkpt lat="59.8740655" lon="17.8318947">
        <ele>38.5901</ele>
        <time>2013-05-24T19:08:14Z</time>
      </trkpt>
      <trkpt lat="59.8740939" lon="17.8319358">
        <ele>38.5901</ele>
        <time>2013-05-24T19:08:15Z</time>
      </trkpt>
      <trkpt lat="59.8741319" lon="17.8319797">
        <ele>40.0321</ele>
        <time>2013-05-24T19:08:16Z</time>
      </trkpt>
      <trkpt lat="59.8741696" lon="17.8320257">
        <ele>40.5128</ele>
        <time>2013-05-24T19:08:17Z</time>
      </trkpt>
      <trkpt lat="59.8742145" lon="17.8320763">
        <ele>41.9547</ele>
        <time>2013-05-24T19:08:18Z</time>
      </trkpt>
      <trkpt lat="59.8742502" lon="17.8321159">
        <ele>40.9934</ele>
        <time>2013-05-24T19:08:19Z</time>
      </trkpt>
      <trkpt lat="59.8742986" lon="17.8321592">
        <ele>40.5128</ele>
        <time>2013-05-24T19:08:20Z</time>
      </trkpt>
      <trkpt lat="59.8743462" lon="17.8321956">
        <ele>40.0321</ele>
        <time>2013-05-24T19:08:21Z</time>
      </trkpt>
      <trkpt lat="59.8743971" lon="17.8322263">
        <ele>39.0707</ele>
        <time>2013-05-24T19:08:22Z</time>
      </trkpt>
      <trkpt lat="59.8744592" lon="17.8322528">
        <ele>39.5513</ele>
        <time>2013-05-24T19:08:23Z</time>
      </trkpt>
      <trkpt lat="59.8745201" lon="17.8322816">
        <ele>39.5513</ele>
        <time>2013-05-24T19:08:24Z</time>
      </trkpt>
      <trkpt lat="59.8745845" lon="17.8323053">
        <ele>40.0321</ele>
        <time>2013-05-24T19:08:25Z</time>
      </trkpt>
      <trkpt lat="59.874653" lon="17.8323322">
        <ele>41.474</ele>
        <time>2013-05-24T19:08:26Z</time>
      </trkpt>
      <trkpt lat="59.8747105" lon="17.832341">
        <ele>39.0707</ele>
        <time>2013-05-24T19:08:27Z</time>
      </trkpt>
      <trkpt lat="59.8747652" lon="17.8323671">
        <ele>38.5901</ele>
        <time>2013-05-24T19:08:28Z</time>
      </trkpt>
      <trkpt lat="59.8748295" lon="17.8324008">
        <ele>39.0707</ele>
        <time>2013-05-24T19:08:29Z</time>
      </trkpt>
      <trkpt lat="59.8748944" lon="17.8324349">
        <ele>39.0707</ele>
        <time>2013-05-24T19:08:30Z</time>
      </trkpt>
      <trkpt lat="59.874958" lon="17.8324591">
        <ele>37.6287</ele>
        <time>2013-05-24T19:08:31Z</time>
      </trkpt>
      <trkpt lat="59.8750264" lon="17.832481">
        <ele>38.1094</ele>
        <time>2013-05-24T19:08:32Z</time>
      </trkpt>
      <trkpt lat="59.8750871" lon="17.832493">
        <ele>36.6675</ele>
        <time>2013-05-24T19:08:33Z</time>
      </trkpt>
      <trkpt lat="59.8751547" lon="17.8325122">
        <ele>36.6675</ele>
        <time>2013-05-24T19:08:34Z</time>
      </trkpt>
      <trkpt lat="59.875218" lon="17.8325309">
        <ele>36.1868</ele>
        <time>2013-05-24T19:08:35Z</time>
      </trkpt>
      <trkpt lat="59.8752797" lon="17.8325505">
        <ele>35.7061</ele>
        <time>2013-05-24T19:08:36Z</time>
      </trkpt>
      <trkpt lat="59.8753412" lon="17.8325747">
        <ele>35.2255</ele>
        <time>2013-05-24T19:08:37Z</time>
      </trkpt>
      <trkpt lat="59.8753989" lon="17.8326013">
        <ele>33.7834</ele>
        <time>2013-05-24T19:08:38Z</time>
      </trkpt>
      <trkpt lat="59.8754584" lon="17.8326399">
        <ele>33.7834</ele>
        <time>2013-05-24T19:08:39Z</time>
      </trkpt>
      <trkpt lat="59.8755153" lon="17.8326888">
        <ele>34.2642</ele>
        <time>2013-05-24T19:08:40Z</time>
      </trkpt>
      <trkpt lat="59.8755712" lon="17.8327387">
        <ele>33.7834</ele>
        <time>2013-05-24T19:08:41Z</time>
      </trkpt>
      <trkpt lat="59.8756252" lon="17.8327977">
        <ele>33.3029</ele>
        <time>2013-05-24T19:08:42Z</time>
      </trkpt>
      <trkpt lat="59.8756817" lon="17.8328591">
        <ele>33.3029</ele>
        <time>2013-05-24T19:08:43Z</time>
      </trkpt>
      <trkpt lat="59.8757436" lon="17.8329188">
        <ele>33.3029</ele>
        <time>2013-05-24T19:08:44Z</time>
      </trkpt>
      <trkpt lat="59.8758028" lon="17.83298">
        <ele>33.3029</ele>
        <time>2013-05-24T19:08:45Z</time>
      </trkpt>
      <trkpt lat="59.8758648" lon="17.8330393">
        <ele>33.7834</ele>
        <time>2013-05-24T19:08:46Z</time>
      </trkpt>
      <trkpt lat="59.8759231" lon="17.8330965">
        <ele>33.3029</ele>
        <time>2013-05-24T19:08:47Z</time>
      </trkpt>
      <trkpt lat="59.8759868" lon="17.8331514">
        <ele>33.3029</ele>
        <time>2013-05-24T19:08:48Z</time>
      </trkpt>
      <trkpt lat="59.8760479" lon="17.8332021">
        <ele>32.8223</ele>
        <time>2013-05-24T19:08:49Z</time>
      </trkpt>
      <trkpt lat="59.8761116" lon="17.8332514">
        <ele>32.3416</ele>
        <time>2013-05-24T19:08:50Z</time>
      </trkpt>
      <trkpt lat="59.8761768" lon="17.8332971">
        <ele>32.3416</ele>
        <time>2013-05-24T19:08:51Z</time>
      </trkpt>
      <trkpt lat="59.876234" lon="17.8333429">
        <ele>31.8607</ele>
        <time>2013-05-24T19:08:52Z</time>
      </trkpt>
      <trkpt lat="59.8762853" lon="17.8333825">
        <ele>30.8995</ele>
        <time>2013-05-24T19:08:53Z</time>
      </trkpt>
      <trkpt lat="59.876335" lon="17.833412">
        <ele>29.4575</ele>
        <time>2013-05-24T19:08:54Z</time>
      </trkpt>
      <trkpt lat="59.8763959" lon="17.8334486">
        <ele>29.4575</ele>
        <time>2013-05-24T19:08:55Z</time>
      </trkpt>
      <trkpt lat="59.8764623" lon="17.8334876">
        <ele>31.8607</ele>
        <time>2013-05-24T19:08:56Z</time>
      </trkpt>
      <trkpt lat="59.8765227" lon="17.8335223">
        <ele>33.3029</ele>
        <time>2013-05-24T19:08:57Z</time>
      </trkpt>
      <trkpt lat="59.8765783" lon="17.8335524">
        <ele>33.3029</ele>
        <time>2013-05-24T19:08:58Z</time>
      </trkpt>
      <trkpt lat="59.8766358" lon="17.8335902">
        <ele>33.7834</ele>
        <time>2013-05-24T19:08:59Z</time>
      </trkpt>
      <trkpt lat="59.8766996" lon="17.8336314">
        <ele>33.7834</ele>
        <time>2013-05-24T19:09:00Z</time>
      </trkpt>
      <trkpt lat="59.8767731" lon="17.8336839">
        <ele>35.2255</ele>
        <time>2013-05-24T19:09:01Z</time>
      </trkpt>
      <trkpt lat="59.8768482" lon="17.8337394">
        <ele>36.1868</ele>
        <time>2013-05-24T19:09:02Z</time>
      </trkpt>
      <trkpt lat="59.8769278" lon="17.833798">
        <ele>38.1094</ele>
        <time>2013-05-24T19:09:03Z</time>
      </trkpt>
      <trkpt lat="59.8769962" lon="17.833859">
        <ele>38.1094</ele>
        <time>2013-05-24T19:09:04Z</time>
      </trkpt>
      <trkpt lat="59.8770729" lon="17.8339253">
        <ele>39.5513</ele>
        <time>2013-05-24T19:09:05Z</time>
      </trkpt>
      <trkpt lat="59.877142" lon="17.8339906">
        <ele>40.0321</ele>
        <time>2013-05-24T19:09:06Z</time>
      </trkpt>
      <trkpt lat="59.8772062" lon="17.8340574">
        <ele>39.0707</ele>
        <time>2013-05-24T19:09:07Z</time>
      </trkpt>
      <trkpt lat="59.8772683" lon="17.8341246">
        <ele>37.6287</ele>
        <time>2013-05-24T19:09:08Z</time>
      </trkpt>
      <trkpt lat="59.8773335" lon="17.8341993">
        <ele>37.1481</ele>
        <time>2013-05-24T19:09:09Z</time>
      </trkpt>
      <trkpt lat="59.877395" lon="17.8342702">
        <ele>36.1868</ele>
        <time>2013-05-24T19:09:10Z</time>
      </trkpt>
      <trkpt lat="59.8774575" lon="17.8343455">
        <ele>35.2255</ele>
        <time>2013-05-24T19:09:11Z</time>
      </trkpt>
      <trkpt lat="59.8775216" lon="17.8344272">
        <ele>35.2255</ele>
        <time>2013-05-24T19:09:12Z</time>
      </trkpt>
      <trkpt lat="59.8775763" lon="17.8345017">
        <ele>33.7834</ele>
        <time>2013-05-24T19:09:13Z</time>
      </trkpt>
      <trkpt lat="59.8776304" lon="17.8345757">
        <ele>32.3416</ele>
        <time>2013-05-24T19:09:14Z</time>
      </trkpt>
      <trkpt lat="59.8776919" lon="17.8346541">
        <ele>32.8223</ele>
        <time>2013-05-24T19:09:15Z</time>
      </trkpt>
      <trkpt lat="59.8777473" lon="17.8347332">
        <ele>31.8607</ele>
        <time>2013-05-24T19:09:16Z</time>
      </trkpt>
      <trkpt lat="59.8778081" lon="17.8348088">
        <ele>31.3801</ele>
        <time>2013-05-24T19:09:17Z</time>
      </trkpt>
      <trkpt lat="59.8778646" lon="17.83488">
        <ele>30.8995</ele>
        <time>2013-05-24T19:09:18Z</time>
      </trkpt>
      <trkpt lat="59.8779131" lon="17.8349444">
        <ele>29.4575</ele>
        <time>2013-05-24T19:09:19Z</time>
      </trkpt>
      <trkpt lat="59.8779739" lon="17.8350064">
        <ele>29.4575</ele>
        <time>2013-05-24T19:09:20Z</time>
      </trkpt>
      <trkpt lat="59.878046" lon="17.8350785">
        <ele>30.8995</ele>
        <time>2013-05-24T19:09:21Z</time>
      </trkpt>
      <trkpt lat="59.8781231" lon="17.8351551">
        <ele>32.3416</ele>
        <time>2013-05-24T19:09:22Z</time>
      </trkpt>
      <trkpt lat="59.8782024" lon="17.8352183">
        <ele>33.7834</ele>
        <time>2013-05-24T19:09:23Z</time>
      </trkpt>
      <trkpt lat="59.8782801" lon="17.8352785">
        <ele>34.7449</ele>
        <time>2013-05-24T19:09:24Z</time>
      </trkpt>
      <trkpt lat="59.8783598" lon="17.8353457">
        <ele>35.7061</ele>
        <time>2013-05-24T19:09:25Z</time>
      </trkpt>
      <trkpt lat="59.8784383" lon="17.8354047">
        <ele>36.6675</ele>
        <time>2013-05-24T19:09:26Z</time>
      </trkpt>
      <trkpt lat="59.8785204" lon="17.8354597">
        <ele>38.5901</ele>
        <time>2013-05-24T19:09:27Z</time>
      </trkpt>
      <trkpt lat="59.8785994" lon="17.8355137">
        <ele>40.0321</ele>
        <time>2013-05-24T19:09:28Z</time>
      </trkpt>
      <trkpt lat="59.8786736" lon="17.8355703">
        <ele>40.9934</ele>
        <time>2013-05-24T19:09:29Z</time>
      </trkpt>
      <trkpt lat="59.8787437" lon="17.8356235">
        <ele>41.9547</ele>
        <time>2013-05-24T19:09:30Z</time>
      </trkpt>
      <trkpt lat="59.8788085" lon="17.8356779">
        <ele>41.474</ele>
        <time>2013-05-24T19:09:31Z</time>
      </trkpt>
      <trkpt lat="59.8788741" lon="17.8357389">
        <ele>42.4354</ele>
        <time>2013-05-24T19:09:32Z</time>
      </trkpt>
      <trkpt lat="59.878941" lon="17.8357725">
        <ele>41.9547</ele>
        <time>2013-05-24T19:09:33Z</time>
      </trkpt>
      <trkpt lat="59.8790105" lon="17.8358078">
        <ele>42.4354</ele>
        <time>2013-05-24T19:09:34Z</time>
      </trkpt>
      <trkpt lat="59.8790771" lon="17.8358306">
        <ele>42.4354</ele>
        <time>2013-05-24T19:09:35Z</time>
      </trkpt>
      <trkpt lat="59.8791445" lon="17.8358455">
        <ele>41.9547</ele>
        <time>2013-05-24T19:09:36Z</time>
      </trkpt>
      <trkpt lat="59.8792072" lon="17.8358473">
        <ele>40.0321</ele>
        <time>2013-05-24T19:09:37Z</time>
      </trkpt>
      <trkpt lat="59.8792705" lon="17.8358383">
        <ele>37.6287</ele>
        <time>2013-05-24T19:09:38Z</time>
      </trkpt>
      <trkpt lat="59.8793417" lon="17.8358414">
        <ele>36.1868</ele>
        <time>2013-05-24T19:09:39Z</time>
      </trkpt>
      <trkpt lat="59.879416" lon="17.8358495">
        <ele>35.2255</ele>
        <time>2013-05-24T19:09:40Z</time>
      </trkpt>
      <trkpt lat="59.8794962" lon="17.8358645">
        <ele>35.7061</ele>
        <time>2013-05-24T19:09:41Z</time>
      </trkpt>
      <trkpt lat="59.879573" lon="17.8358751">
        <ele>36.1868</ele>
        <time>2013-05-24T19:09:42Z</time>
      </trkpt>
      <trkpt lat="59.879645" lon="17.8358808">
        <ele>36.1868</ele>
        <time>2013-05-24T19:09:43Z</time>
      </trkpt>
      <trkpt lat="59.8797117" lon="17.8358842">
        <ele>35.7061</ele>
        <time>2013-05-24T19:09:44Z</time>
      </trkpt>
      <trkpt lat="59.8797765" lon="17.8358918">
        <ele>36.1868</ele>
        <time>2013-05-24T19:09:45Z</time>
      </trkpt>
      <trkpt lat="59.879835" lon="17.8359036">
        <ele>36.6675</ele>
        <time>2013-05-24T19:09:46Z</time>
      </trkpt>
      <trkpt lat="59.8798863" lon="17.8359139">
        <ele>36.1868</ele>
        <time>2013-05-24T19:09:47Z</time>
      </trkpt>
      <trkpt lat="59.8799397" lon="17.8359373">
        <ele>36.1868</ele>
        <time>2013-05-24T19:09:48Z</time>
      </trkpt>
      <trkpt lat="59.8799985" lon="17.8359704">
        <ele>36.1868</ele>
        <time>2013-05-24T19:09:49Z</time>
      </trkpt>
      <trkpt lat="59.8800615" lon="17.8360082">
        <ele>37.6287</ele>
        <time>2013-05-24T19:09:50Z</time>
      </trkpt>
      <trkpt lat="59.88012" lon="17.8360513">
        <ele>37.1481</ele>
        <time>2013-05-24T19:09:51Z</time>
      </trkpt>
      <trkpt lat="59.8801809" lon="17.8361055">
        <ele>37.1481</ele>
        <time>2013-05-24T19:09:52Z</time>
      </trkpt>
      <trkpt lat="59.8802405" lon="17.836166">
        <ele>37.1481</ele>
        <time>2013-05-24T19:09:53Z</time>
      </trkpt>
      <trkpt lat="59.8802998" lon="17.8362335">
        <ele>37.6287</ele>
        <time>2013-05-24T19:09:54Z</time>
      </trkpt>
      <trkpt lat="59.8803619" lon="17.8363023">
        <ele>38.1094</ele>
        <time>2013-05-24T19:09:55Z</time>
      </trkpt>
      <trkpt lat="59.8804182" lon="17.8363738">
        <ele>37.1481</ele>
        <time>2013-05-24T19:09:56Z</time>
      </trkpt>
      <trkpt lat="59.8804759" lon="17.8364469">
        <ele>36.6675</ele>
        <time>2013-05-24T19:09:57Z</time>
      </trkpt>
      <trkpt lat="59.8805363" lon="17.8365279">
        <ele>36.6675</ele>
        <time>2013-05-24T19:09:58Z</time>
      </trkpt>
      <trkpt lat="59.8805972" lon="17.8366112">
        <ele>36.6675</ele>
        <time>2013-05-24T19:09:59Z</time>
      </trkpt>
      <trkpt lat="59.8806484" lon="17.8366915">
        <ele>34.7449</ele>
        <time>2013-05-24T19:10:00Z</time>
      </trkpt>
      <trkpt lat="59.8806987" lon="17.8367755">
        <ele>33.3029</ele>
        <time>2013-05-24T19:10:01Z</time>
      </trkpt>
      <trkpt lat="59.8807487" lon="17.8368648">
        <ele>32.8223</ele>
        <time>2013-05-24T19:10:02Z</time>
      </trkpt>
      <trkpt lat="59.8807986" lon="17.8369578">
        <ele>32.3416</ele>
        <time>2013-05-24T19:10:03Z</time>
      </trkpt>
      <trkpt lat="59.8808462" lon="17.8370478">
        <ele>32.3416</ele>
        <time>2013-05-24T19:10:04Z</time>
      </trkpt>
      <trkpt lat="59.880893" lon="17.8371416">
        <ele>32.3416</ele>
        <time>2013-05-24T19:10:05Z</time>
      </trkpt>
      <trkpt lat="59.8809434" lon="17.8372265">
        <ele>32.3416</ele>
        <time>2013-05-24T19:10:06Z</time>
      </trkpt>
      <trkpt lat="59.8809888" lon="17.8373037">
        <ele>30.8995</ele>
        <time>2013-05-24T19:10:07Z</time>
      </trkpt>
      <trkpt lat="59.8810484" lon="17.8373799">
        <ele>30.4188</ele>
        <time>2013-05-24T19:10:08Z</time>
      </trkpt>
      <trkpt lat="59.8811078" lon="17.8374572">
        <ele>29.9381</ele>
        <time>2013-05-24T19:10:09Z</time>
      </trkpt>
      <trkpt lat="59.8811553" lon="17.8375331">
        <ele>27.0543</ele>
        <time>2013-05-24T19:10:10Z</time>
      </trkpt>
      <trkpt lat="59.8812092" lon="17.8376167">
        <ele>26.0929</ele>
        <time>2013-05-24T19:10:11Z</time>
      </trkpt>
      <trkpt lat="59.8812611" lon="17.8376978">
        <ele>24.651</ele>
        <time>2013-05-24T19:10:12Z</time>
      </trkpt>
      <trkpt lat="59.881312" lon="17.8377742">
        <ele>22.7283</ele>
        <time>2013-05-24T19:10:13Z</time>
      </trkpt>
      <trkpt lat="59.8813658" lon="17.8378545">
        <ele>21.767</ele>
        <time>2013-05-24T19:10:14Z</time>
      </trkpt>
      <trkpt lat="59.881422" lon="17.8379373">
        <ele>21.2864</ele>
        <time>2013-05-24T19:10:15Z</time>
      </trkpt>
      <trkpt lat="59.8814802" lon="17.8380172">
        <ele>20.325</ele>
        <time>2013-05-24T19:10:16Z</time>
      </trkpt>
      <trkpt lat="59.8815445" lon="17.8381051">
        <ele>20.8057</ele>
        <time>2013-05-24T19:10:17Z</time>
      </trkpt>
      <trkpt lat="59.8816092" lon="17.8381948">
        <ele>21.767</ele>
        <time>2013-05-24T19:10:18Z</time>
      </trkpt>
      <trkpt lat="59.8816693" lon="17.8382915">
        <ele>22.2476</ele>
        <time>2013-05-24T19:10:19Z</time>
      </trkpt>
      <trkpt lat="59.8817282" lon="17.8383827">
        <ele>22.2476</ele>
        <time>2013-05-24T19:10:20Z</time>
      </trkpt>
      <trkpt lat="59.8817881" lon="17.838475">
        <ele>23.209</ele>
        <time>2013-05-24T19:10:21Z</time>
      </trkpt>
      <trkpt lat="59.881844" lon="17.8385636">
        <ele>23.209</ele>
        <time>2013-05-24T19:10:22Z</time>
      </trkpt>
      <trkpt lat="59.8818941" lon="17.8386484">
        <ele>22.7283</ele>
        <time>2013-05-24T19:10:23Z</time>
      </trkpt>
      <trkpt lat="59.8819489" lon="17.8387268">
        <ele>22.2476</ele>
        <time>2013-05-24T19:10:24Z</time>
      </trkpt>
      <trkpt lat="59.8820139" lon="17.8387992">
        <ele>23.209</ele>
        <time>2013-05-24T19:10:25Z</time>
      </trkpt>
      <trkpt lat="59.8820802" lon="17.8388597">
        <ele>23.6896</ele>
        <time>2013-05-24T19:10:26Z</time>
      </trkpt>
      <trkpt lat="59.8821475" lon="17.8389127">
        <ele>24.1703</ele>
        <time>2013-05-24T19:10:27Z</time>
      </trkpt>
      <trkpt lat="59.8822148" lon="17.8389543">
        <ele>25.1317</ele>
        <time>2013-05-24T19:10:28Z</time>
      </trkpt>
      <trkpt lat="59.8822785" lon="17.8389878">
        <ele>25.6123</ele>
        <time>2013-05-24T19:10:29Z</time>
      </trkpt>
      <trkpt lat="59.8823389" lon="17.8390127">
        <ele>26.0929</ele>
        <time>2013-05-24T19:10:30Z</time>
      </trkpt>
      <trkpt lat="59.8824018" lon="17.8390324">
        <ele>26.5736</ele>
        <time>2013-05-24T19:10:31Z</time>
      </trkpt>
      <trkpt lat="59.8824701" lon="17.8390519">
        <ele>28.9769</ele>
        <time>2013-05-24T19:10:32Z</time>
      </trkpt>
      <trkpt lat="59.8825303" lon="17.8390693">
        <ele>30.8995</ele>
        <time>2013-05-24T19:10:33Z</time>
      </trkpt>
      <trkpt lat="59.8825841" lon="17.8390856">
        <ele>31.3801</ele>
        <time>2013-05-24T19:10:34Z</time>
      </trkpt>
      <trkpt lat="59.8826366" lon="17.8391065">
        <ele>32.8223</ele>
        <time>2013-05-24T19:10:35Z</time>
      </trkpt>
      <trkpt lat="59.8826845" lon="17.8391257">
        <ele>33.7834</ele>
        <time>2013-05-24T19:10:36Z</time>
      </trkpt>
      <trkpt lat="59.8827286" lon="17.8391479">
        <ele>33.7834</ele>
        <time>2013-05-24T19:10:37Z</time>
      </trkpt>
      <trkpt lat="59.8827718" lon="17.8391655">
        <ele>32.8223</ele>
        <time>2013-05-24T19:10:38Z</time>
      </trkpt>
      <trkpt lat="59.8828178" lon="17.8391904">
        <ele>33.3029</ele>
        <time>2013-05-24T19:10:39Z</time>
      </trkpt>
      <trkpt lat="59.8828616" lon="17.8392231">
        <ele>33.7834</ele>
        <time>2013-05-24T19:10:40Z</time>
      </trkpt>
      <trkpt lat="59.8829058" lon="17.8392629">
        <ele>33.3029</ele>
        <time>2013-05-24T19:10:41Z</time>
      </trkpt>
      <trkpt lat="59.8829519" lon="17.8393187">
        <ele>33.3029</ele>
        <time>2013-05-24T19:10:42Z</time>
      </trkpt>
      <trkpt lat="59.8829978" lon="17.8393852">
        <ele>33.3029</ele>
        <time>2013-05-24T19:10:43Z</time>
      </trkpt>
      <trkpt lat="59.8830483" lon="17.8394567">
        <ele>33.3029</ele>
        <time>2013-05-24T19:10:44Z</time>
      </trkpt>
      <trkpt lat="59.8831036" lon="17.8395319">
        <ele>33.3029</ele>
        <time>2013-05-24T19:10:45Z</time>
      </trkpt>
      <trkpt lat="59.8831626" lon="17.839611">
        <ele>33.3029</ele>
        <time>2013-05-24T19:10:46Z</time>
      </trkpt>
      <trkpt lat="59.8832234" lon="17.8396939">
        <ele>33.3029</ele>
        <time>2013-05-24T19:10:47Z</time>
      </trkpt>
      <trkpt lat="59.883286" lon="17.839783">
        <ele>33.3029</ele>
        <time>2013-05-24T19:10:48Z</time>
      </trkpt>
      <trkpt lat="59.8833497" lon="17.8398756">
        <ele>33.3029</ele>
        <time>2013-05-24T19:10:49Z</time>
      </trkpt>
      <trkpt lat="59.8834148" lon="17.8399693">
        <ele>33.3029</ele>
        <time>2013-05-24T19:10:50Z</time>
      </trkpt>
      <trkpt lat="59.8834808" lon="17.8400638">
        <ele>32.8223</ele>
        <time>2013-05-24T19:10:51Z</time>
      </trkpt>
      <trkpt lat="59.8835492" lon="17.8401524">
        <ele>31.8607</ele>
        <time>2013-05-24T19:10:52Z</time>
      </trkpt>
      <trkpt lat="59.8836172" lon="17.8402409">
        <ele>30.8995</ele>
        <time>2013-05-24T19:10:53Z</time>
      </trkpt>
      <trkpt lat="59.8836899" lon="17.8403319">
        <ele>30.8995</ele>
        <time>2013-05-24T19:10:54Z</time>
      </trkpt>
      <trkpt lat="59.88376" lon="17.8404225">
        <ele>30.4188</ele>
        <time>2013-05-24T19:10:55Z</time>
      </trkpt>
      <trkpt lat="59.8838262" lon="17.8405108">
        <ele>28.9769</ele>
        <time>2013-05-24T19:10:56Z</time>
      </trkpt>
      <trkpt lat="59.8838899" lon="17.8405971">
        <ele>27.0543</ele>
        <time>2013-05-24T19:10:57Z</time>
      </trkpt>
      <trkpt lat="59.8839542" lon="17.8406822">
        <ele>25.1317</ele>
        <time>2013-05-24T19:10:58Z</time>
      </trkpt>
      <trkpt lat="59.8840191" lon="17.8407671">
        <ele>23.6896</ele>
        <time>2013-05-24T19:10:59Z</time>
      </trkpt>
      <trkpt lat="59.8840847" lon="17.8408512">
        <ele>22.2476</ele>
        <time>2013-05-24T19:11:00Z</time>
      </trkpt>
      <trkpt lat="59.8841501" lon="17.840934">
        <ele>21.2864</ele>
        <time>2013-05-24T19:11:01Z</time>
      </trkpt>
      <trkpt lat="59.8842152" lon="17.8410141">
        <ele>20.8057</ele>
        <time>2013-05-24T19:11:02Z</time>
      </trkpt>
      <trkpt lat="59.8842822" lon="17.8410915">
        <ele>20.325</ele>
        <time>2013-05-24T19:11:03Z</time>
      </trkpt>
      <trkpt lat="59.8843498" lon="17.8411634">
        <ele>19.8444</ele>
        <time>2013-05-24T19:11:04Z</time>
      </trkpt>
      <trkpt lat="59.8844182" lon="17.8412288">
        <ele>19.3638</ele>
        <time>2013-05-24T19:11:05Z</time>
      </trkpt>
      <trkpt lat="59.8844885" lon="17.8412884">
        <ele>19.3638</ele>
        <time>2013-05-24T19:11:06Z</time>
      </trkpt>
      <trkpt lat="59.8845614" lon="17.8413422">
        <ele>19.3638</ele>
        <time>2013-05-24T19:11:07Z</time>
      </trkpt>
      <trkpt lat="59.8846354" lon="17.8413897">
        <ele>19.3638</ele>
        <time>2013-05-24T19:11:08Z</time>
      </trkpt>
      <trkpt lat="59.8847111" lon="17.8414285">
        <ele>19.8444</ele>
        <time>2013-05-24T19:11:09Z</time>
      </trkpt>
      <trkpt lat="59.8847879" lon="17.8414592">
        <ele>19.8444</ele>
        <time>2013-05-24T19:11:10Z</time>
      </trkpt>
      <trkpt lat="59.884865" lon="17.84148">
        <ele>20.325</ele>
        <time>2013-05-24T19:11:11Z</time>
      </trkpt>
      <trkpt lat="59.8849446" lon="17.841494">
        <ele>21.2864</ele>
        <time>2013-05-24T19:11:12Z</time>
      </trkpt>
      <trkpt lat="59.885021" lon="17.8414965">
        <ele>21.767</ele>
        <time>2013-05-24T19:11:13Z</time>
      </trkpt>
      <trkpt lat="59.8850961" lon="17.8414923">
        <ele>21.767</ele>
        <time>2013-05-24T19:11:14Z</time>
      </trkpt>
      <trkpt lat="59.8851714" lon="17.8414909">
        <ele>22.2476</ele>
        <time>2013-05-24T19:11:15Z</time>
      </trkpt>
      <trkpt lat="59.8852432" lon="17.8414881">
        <ele>22.7283</ele>
        <time>2013-05-24T19:11:16Z</time>
      </trkpt>
      <trkpt lat="59.8853116" lon="17.8414904">
        <ele>23.6896</ele>
        <time>2013-05-24T19:11:17Z</time>
      </trkpt>
      <trkpt lat="59.8853763" lon="17.8414852">
        <ele>24.1703</ele>
        <time>2013-05-24T19:11:18Z</time>
      </trkpt>
      <trkpt lat="59.8854466" lon="17.8414867">
        <ele>25.6123</ele>
        <time>2013-05-24T19:11:19Z</time>
      </trkpt>
      <trkpt lat="59.8855082" lon="17.8414774">
        <ele>25.6123</ele>
        <time>2013-05-24T19:11:20Z</time>
      </trkpt>
      <trkpt lat="59.88557" lon="17.8414603">
        <ele>25.1317</ele>
        <time>2013-05-24T19:11:21Z</time>
      </trkpt>
      <trkpt lat="59.8856388" lon="17.8414583">
        <ele>26.0929</ele>
        <time>2013-05-24T19:11:22Z</time>
      </trkpt>
      <trkpt lat="59.885702" lon="17.841452">
        <ele>24.651</ele>
        <time>2013-05-24T19:11:23Z</time>
      </trkpt>
      <trkpt lat="59.8857704" lon="17.8414334">
        <ele>24.1703</ele>
        <time>2013-05-24T19:11:24Z</time>
      </trkpt>
      <trkpt lat="59.8858429" lon="17.8414255">
        <ele>24.651</ele>
        <time>2013-05-24T19:11:25Z</time>
      </trkpt>
      <trkpt lat="59.8859098" lon="17.8414102">
        <ele>23.6896</ele>
        <time>2013-05-24T19:11:26Z</time>
      </trkpt>
      <trkpt lat="59.8859754" lon="17.8413873">
        <ele>23.209</ele>
        <time>2013-05-24T19:11:27Z</time>
      </trkpt>
      <trkpt lat="59.886052" lon="17.8413796">
        <ele>24.1703</ele>
        <time>2013-05-24T19:11:28Z</time>
      </trkpt>
      <trkpt lat="59.8861154" lon="17.8413541">
        <ele>22.2476</ele>
        <time>2013-05-24T19:11:29Z</time>
      </trkpt>
      <trkpt lat="59.8861803" lon="17.8413261">
        <ele>22.2476</ele>
        <time>2013-05-24T19:11:30Z</time>
      </trkpt>
      <trkpt lat="59.8862489" lon="17.8413011">
        <ele>21.767</ele>
        <time>2013-05-24T19:11:31Z</time>
      </trkpt>
      <trkpt lat="59.8863193" lon="17.8412696">
        <ele>21.2864</ele>
        <time>2013-05-24T19:11:32Z</time>
      </trkpt>
      <trkpt lat="59.8863899" lon="17.8412422">
        <ele>20.8057</ele>
        <time>2013-05-24T19:11:33Z</time>
      </trkpt>
      <trkpt lat="59.8864677" lon="17.8412136">
        <ele>22.2476</ele>
        <time>2013-05-24T19:11:34Z</time>
      </trkpt>
      <trkpt lat="59.8865506" lon="17.8411802">
        <ele>24.1703</ele>
        <time>2013-05-24T19:11:35Z</time>
      </trkpt>
      <trkpt lat="59.886625" lon="17.8411429">
        <ele>24.1703</ele>
        <time>2013-05-24T19:11:36Z</time>
      </trkpt>
      <trkpt lat="59.8866947" lon="17.8411056">
        <ele>23.209</ele>
        <time>2013-05-24T19:11:37Z</time>
      </trkpt>
      <trkpt lat="59.8867698" lon="17.8410858">
        <ele>23.209</ele>
        <time>2013-05-24T19:11:38Z</time>
      </trkpt>
      <trkpt lat="59.8868501" lon="17.8410959">
        <ele>24.1703</ele>
        <time>2013-05-24T19:11:39Z</time>
      </trkpt>
      <trkpt lat="59.8869281" lon="17.8411319">
        <ele>24.1703</ele>
        <time>2013-05-24T19:11:40Z</time>
      </trkpt>
      <trkpt lat="59.8870023" lon="17.8411828">
        <ele>24.1703</ele>
        <time>2013-05-24T19:11:41Z</time>
      </trkpt>
      <trkpt lat="59.8870788" lon="17.8412495">
        <ele>26.0929</ele>
        <time>2013-05-24T19:11:42Z</time>
      </trkpt>
      <trkpt lat="59.8871453" lon="17.8413342">
        <ele>26.0929</ele>
        <time>2013-05-24T19:11:43Z</time>
      </trkpt>
      <trkpt lat="59.8872068" lon="17.841438">
        <ele>27.0543</ele>
        <time>2013-05-24T19:11:44Z</time>
      </trkpt>
      <trkpt lat="59.8872592" lon="17.8415507">
        <ele>27.5349</ele>
        <time>2013-05-24T19:11:45Z</time>
      </trkpt>
      <trkpt lat="59.8873048" lon="17.8416649">
        <ele>28.0155</ele>
        <time>2013-05-24T19:11:46Z</time>
      </trkpt>
      <trkpt lat="59.8873422" lon="17.8417808">
        <ele>27.5349</ele>
        <time>2013-05-24T19:11:47Z</time>
      </trkpt>
      <trkpt lat="59.8873784" lon="17.8418971">
        <ele>27.5349</ele>
        <time>2013-05-24T19:11:48Z</time>
      </trkpt>
      <trkpt lat="59.8874216" lon="17.8420092">
        <ele>27.0543</ele>
        <time>2013-05-24T19:11:49Z</time>
      </trkpt>
      <trkpt lat="59.8874729" lon="17.8421161">
        <ele>27.0543</ele>
        <time>2013-05-24T19:11:50Z</time>
      </trkpt>
      <trkpt lat="59.8875322" lon="17.8422203">
        <ele>28.0155</ele>
        <time>2013-05-24T19:11:51Z</time>
      </trkpt>
      <trkpt lat="59.8875896" lon="17.8423179">
        <ele>28.0155</ele>
        <time>2013-05-24T19:11:52Z</time>
      </trkpt>
      <trkpt lat="59.8876455" lon="17.8424066">
        <ele>27.5349</ele>
        <time>2013-05-24T19:11:53Z</time>
      </trkpt>
      <trkpt lat="59.887703" lon="17.8424906">
        <ele>26.5736</ele>
        <time>2013-05-24T19:11:54Z</time>
      </trkpt>
      <trkpt lat="59.8877646" lon="17.8425705">
        <ele>26.5736</ele>
        <time>2013-05-24T19:11:55Z</time>
      </trkpt>
      <trkpt lat="59.8878286" lon="17.8426455">
        <ele>26.5736</ele>
        <time>2013-05-24T19:11:56Z</time>
      </trkpt>
      <trkpt lat="59.8878937" lon="17.8427154">
        <ele>26.5736</ele>
        <time>2013-05-24T19:11:57Z</time>
      </trkpt>
      <trkpt lat="59.88796" lon="17.8427806">
        <ele>27.0543</ele>
        <time>2013-05-24T19:11:58Z</time>
      </trkpt>
      <trkpt lat="59.8880279" lon="17.8428403">
        <ele>28.0155</ele>
        <time>2013-05-24T19:11:59Z</time>
      </trkpt>
      <trkpt lat="59.8880952" lon="17.8428901">
        <ele>27.5349</ele>
        <time>2013-05-24T19:12:00Z</time>
      </trkpt>
      <trkpt lat="59.8881626" lon="17.8429413">
        <ele>28.0155</ele>
        <time>2013-05-24T19:12:01Z</time>
      </trkpt>
      <trkpt lat="59.8882299" lon="17.8429895">
        <ele>28.4962</ele>
        <time>2013-05-24T19:12:02Z</time>
      </trkpt>
      <trkpt lat="59.8882969" lon="17.8430345">
        <ele>29.4575</ele>
        <time>2013-05-24T19:12:03Z</time>
      </trkpt>
      <trkpt lat="59.888362" lon="17.8430738">
        <ele>30.8995</ele>
        <time>2013-05-24T19:12:04Z</time>
      </trkpt>
      <trkpt lat="59.8884272" lon="17.8431063">
        <ele>31.3801</ele>
        <time>2013-05-24T19:12:05Z</time>
      </trkpt>
      <trkpt lat="59.8884957" lon="17.8431307">
        <ele>32.8223</ele>
        <time>2013-05-24T19:12:06Z</time>
      </trkpt>
      <trkpt lat="59.8885532" lon="17.8431401">
        <ele>32.3416</ele>
        <time>2013-05-24T19:12:07Z</time>
      </trkpt>
      <trkpt lat="59.8886158" lon="17.8431516">
        <ele>33.7834</ele>
        <time>2013-05-24T19:12:08Z</time>
      </trkpt>
      <trkpt lat="59.8886822" lon="17.8431655">
        <ele>35.2255</ele>
        <time>2013-05-24T19:12:09Z</time>
      </trkpt>
      <trkpt lat="59.8887477" lon="17.8431759">
        <ele>36.1868</ele>
        <time>2013-05-24T19:12:10Z</time>
      </trkpt>
      <trkpt lat="59.8888168" lon="17.8431895">
        <ele>36.1868</ele>
        <time>2013-05-24T19:12:11Z</time>
      </trkpt>
      <trkpt lat="59.8888874" lon="17.8432054">
        <ele>36.6675</ele>
        <time>2013-05-24T19:12:12Z</time>
      </trkpt>
      <trkpt lat="59.8889536" lon="17.8432169">
        <ele>38.5901</ele>
        <time>2013-05-24T19:12:13Z</time>
      </trkpt>
      <trkpt lat="59.8890106" lon="17.8432406">
        <ele>40.0321</ele>
        <time>2013-05-24T19:12:14Z</time>
      </trkpt>
      <trkpt lat="59.8890743" lon="17.8432764">
        <ele>41.9547</ele>
        <time>2013-05-24T19:12:15Z</time>
      </trkpt>
      <trkpt lat="59.8891323" lon="17.8433168">
        <ele>43.3966</ele>
        <time>2013-05-24T19:12:16Z</time>
      </trkpt>
      <trkpt lat="59.8891979" lon="17.843364">
        <ele>44.8386</ele>
        <time>2013-05-24T19:12:17Z</time>
      </trkpt>
      <trkpt lat="59.8892588" lon="17.8434049">
        <ele>45.7999</ele>
        <time>2013-05-24T19:12:18Z</time>
      </trkpt>
      <trkpt lat="59.8893296" lon="17.8434435">
        <ele>47.7225</ele>
        <time>2013-05-24T19:12:19Z</time>
      </trkpt>
      <trkpt lat="59.8894007" lon="17.8434685">
        <ele>49.1646</ele>
        <time>2013-05-24T19:12:20Z</time>
      </trkpt>
      <trkpt lat="59.8894627" lon="17.8434722">
        <ele>48.684</ele>
        <time>2013-05-24T19:12:21Z</time>
      </trkpt>
      <trkpt lat="59.8895142" lon="17.8434477">
        <ele>47.7225</ele>
        <time>2013-05-24T19:12:22Z</time>
      </trkpt>
      <trkpt lat="59.88957" lon="17.843412">
        <ele>49.1646</ele>
        <time>2013-05-24T19:12:23Z</time>
      </trkpt>
      <trkpt lat="59.889628" lon="17.8433537">
        <ele>51.5679</ele>
        <time>2013-05-24T19:12:24Z</time>
      </trkpt>
      <trkpt lat="59.8896757" lon="17.8432796">
        <ele>51.5679</ele>
        <time>2013-05-24T19:12:25Z</time>
      </trkpt>
      <trkpt lat="59.8897259" lon="17.8431963">
        <ele>52.0486</ele>
        <time>2013-05-24T19:12:26Z</time>
      </trkpt>
      <trkpt lat="59.889759" lon="17.8431012">
        <ele>52.0486</ele>
        <time>2013-05-24T19:12:27Z</time>
      </trkpt>
      <trkpt lat="59.889789" lon="17.8429844">
        <ele>50.6066</ele>
        <time>2013-05-24T19:12:28Z</time>
      </trkpt>
      <trkpt lat="59.8898" lon="17.8428497">
        <ele>49.1646</ele>
        <time>2013-05-24T19:12:29Z</time>
      </trkpt>
      <trkpt lat="59.8898082" lon="17.8427204">
        <ele>47.7225</ele>
        <time>2013-05-24T19:12:30Z</time>
      </trkpt>
      <trkpt lat="59.8898109" lon="17.8425844">
        <ele>45.7999</ele>
        <time>2013-05-24T19:12:31Z</time>
      </trkpt>
      <trkpt lat="59.8898266" lon="17.8424621">
        <ele>44.358</ele>
        <time>2013-05-24T19:12:32Z</time>
      </trkpt>
      <trkpt lat="59.8898314" lon="17.8423306">
        <ele>41.9547</ele>
        <time>2013-05-24T19:12:33Z</time>
      </trkpt>
      <trkpt lat="59.8898404" lon="17.8422088">
        <ele>40.0321</ele>
        <time>2013-05-24T19:12:34Z</time>
      </trkpt>
      <trkpt lat="59.8898622" lon="17.8421017">
        <ele>38.5901</ele>
        <time>2013-05-24T19:12:35Z</time>
      </trkpt>
      <trkpt lat="59.8898782" lon="17.8419833">
        <ele>36.1868</ele>
        <time>2013-05-24T19:12:36Z</time>
      </trkpt>
      <trkpt lat="59.88989" lon="17.8418597">
        <ele>33.7834</ele>
        <time>2013-05-24T19:12:37Z</time>
      </trkpt>
      <trkpt lat="59.8899041" lon="17.8417404">
        <ele>31.8607</ele>
        <time>2013-05-24T19:12:38Z</time>
      </trkpt>
      <trkpt lat="59.889912" lon="17.8416208">
        <ele>30.4188</ele>
        <time>2013-05-24T19:12:39Z</time>
      </trkpt>
      <trkpt lat="59.8899201" lon="17.8415007">
        <ele>28.9769</ele>
        <time>2013-05-24T19:12:40Z</time>
      </trkpt>
      <trkpt lat="59.8899363" lon="17.8413839">
        <ele>28.0155</ele>
        <time>2013-05-24T19:12:41Z</time>
      </trkpt>
      <trkpt lat="59.8899581" lon="17.8412744">
        <ele>27.0543</ele>
        <time>2013-05-24T19:12:42Z</time>
      </trkpt>
      <trkpt lat="59.8899797" lon="17.8411619">
        <ele>25.6123</ele>
        <time>2013-05-24T19:12:43Z</time>
      </trkpt>
      <trkpt lat="59.8900044" lon="17.8410443">
        <ele>24.651</ele>
        <time>2013-05-24T19:12:44Z</time>
      </trkpt>
      <trkpt lat="59.8900242" lon="17.8409381">
        <ele>21.2864</ele>
        <time>2013-05-24T19:12:45Z</time>
      </trkpt>
      <trkpt lat="59.8900638" lon="17.8408553">
        <ele>19.3638</ele>
        <time>2013-05-24T19:12:46Z</time>
      </trkpt>
      <trkpt lat="59.8901444" lon="17.8408364">
        <ele>22.7283</ele>
        <time>2013-05-24T19:12:47Z</time>
      </trkpt>
      <trkpt lat="59.8902134" lon="17.8408459">
        <ele>22.7283</ele>
        <time>2013-05-24T19:12:48Z</time>
      </trkpt>
      <trkpt lat="59.8902813" lon="17.8408717">
        <ele>22.7283</ele>
        <time>2013-05-24T19:12:49Z</time>
      </trkpt>
      <trkpt lat="59.8903464" lon="17.8409229">
        <ele>22.7283</ele>
        <time>2013-05-24T19:12:50Z</time>
      </trkpt>
      <trkpt lat="59.8904121" lon="17.8409949">
        <ele>23.6896</ele>
        <time>2013-05-24T19:12:51Z</time>
      </trkpt>
      <trkpt lat="59.8904713" lon="17.8410784">
        <ele>24.651</ele>
        <time>2013-05-24T19:12:52Z</time>
      </trkpt>
      <trkpt lat="59.8905319" lon="17.8411622">
        <ele>26.0929</ele>
        <time>2013-05-24T19:12:53Z</time>
      </trkpt>
      <trkpt lat="59.8905915" lon="17.8412433">
        <ele>27.5349</ele>
        <time>2013-05-24T19:12:54Z</time>
      </trkpt>
      <trkpt lat="59.8906459" lon="17.841326">
        <ele>28.4962</ele>
        <time>2013-05-24T19:12:55Z</time>
      </trkpt>
      <trkpt lat="59.890695" lon="17.8414073">
        <ele>28.9769</ele>
        <time>2013-05-24T19:12:56Z</time>
      </trkpt>
      <trkpt lat="59.8907398" lon="17.8414862">
        <ele>28.4962</ele>
        <time>2013-05-24T19:12:57Z</time>
      </trkpt>
      <trkpt lat="59.8907837" lon="17.8415644">
        <ele>28.4962</ele>
        <time>2013-05-24T19:12:58Z</time>
      </trkpt>
      <trkpt lat="59.8908361" lon="17.8416464">
        <ele>30.4188</ele>
        <time>2013-05-24T19:12:59Z</time>
      </trkpt>
      <trkpt lat="59.8908935" lon="17.8417224">
        <ele>32.3416</ele>
        <time>2013-05-24T19:13:00Z</time>
      </trkpt>
      <trkpt lat="59.8909482" lon="17.8417927">
        <ele>33.3029</ele>
        <time>2013-05-24T19:13:01Z</time>
      </trkpt>
      <trkpt lat="59.8910032" lon="17.8418519">
        <ele>33.7834</ele>
        <time>2013-05-24T19:13:02Z</time>
      </trkpt>
      <trkpt lat="59.8910596" lon="17.8419063">
        <ele>33.7834</ele>
        <time>2013-05-24T19:13:03Z</time>
      </trkpt>
      <trkpt lat="59.8911204" lon="17.8419639">
        <ele>35.2255</ele>
        <time>2013-05-24T19:13:04Z</time>
      </trkpt>
      <trkpt lat="59.8911826" lon="17.8420181">
        <ele>36.6675</ele>
        <time>2013-05-24T19:13:05Z</time>
      </trkpt>
      <trkpt lat="59.8912473" lon="17.8420665">
        <ele>38.1094</ele>
        <time>2013-05-24T19:13:06Z</time>
      </trkpt>
      <trkpt lat="59.8913098" lon="17.8421123">
        <ele>39.5513</ele>
        <time>2013-05-24T19:13:07Z</time>
      </trkpt>
      <trkpt lat="59.8913722" lon="17.8421528">
        <ele>40.5128</ele>
        <time>2013-05-24T19:13:08Z</time>
      </trkpt>
      <trkpt lat="59.8914322" lon="17.842186">
        <ele>41.474</ele>
        <time>2013-05-24T19:13:09Z</time>
      </trkpt>
      <trkpt lat="59.8914992" lon="17.8422176">
        <ele>42.916</ele>
        <time>2013-05-24T19:13:10Z</time>
      </trkpt>
      <trkpt lat="59.8915721" lon="17.8422447">
        <ele>43.8773</ele>
        <time>2013-05-24T19:13:11Z</time>
      </trkpt>
      <trkpt lat="59.8916384" lon="17.8422584">
        <ele>43.3966</ele>
        <time>2013-05-24T19:13:12Z</time>
      </trkpt>
      <trkpt lat="59.8917135" lon="17.8422757">
        <ele>44.8386</ele>
        <time>2013-05-24T19:13:13Z</time>
      </trkpt>
      <trkpt lat="59.8917871" lon="17.842292">
        <ele>46.2806</ele>
        <time>2013-05-24T19:13:14Z</time>
      </trkpt>
      <trkpt lat="59.8918561" lon="17.8423104">
        <ele>45.7999</ele>
        <time>2013-05-24T19:13:15Z</time>
      </trkpt>
      <trkpt lat="59.8919304" lon="17.8423409">
        <ele>46.7612</ele>
        <time>2013-05-24T19:13:16Z</time>
      </trkpt>
      <trkpt lat="59.8919989" lon="17.842364">
        <ele>45.7999</ele>
        <time>2013-05-24T19:13:17Z</time>
      </trkpt>
      <trkpt lat="59.8920782" lon="17.8424014">
        <ele>46.7612</ele>
        <time>2013-05-24T19:13:18Z</time>
      </trkpt>
      <trkpt lat="59.8921511" lon="17.8424365">
        <ele>46.2806</ele>
        <time>2013-05-24T19:13:19Z</time>
      </trkpt>
      <trkpt lat="59.8922286" lon="17.8424799">
        <ele>47.2418</ele>
        <time>2013-05-24T19:13:20Z</time>
      </trkpt>
      <trkpt lat="59.8922983" lon="17.842516">
        <ele>45.7999</ele>
        <time>2013-05-24T19:13:21Z</time>
      </trkpt>
      <trkpt lat="59.892373" lon="17.8425505">
        <ele>44.8386</ele>
        <time>2013-05-24T19:13:22Z</time>
      </trkpt>
      <trkpt lat="59.8924553" lon="17.8426015">
        <ele>46.2806</ele>
        <time>2013-05-24T19:13:23Z</time>
      </trkpt>
      <trkpt lat="59.8925393" lon="17.8426516">
        <ele>48.2034</ele>
        <time>2013-05-24T19:13:24Z</time>
      </trkpt>
      <trkpt lat="59.8926215" lon="17.8426951">
        <ele>50.126</ele>
        <time>2013-05-24T19:13:25Z</time>
      </trkpt>
      <trkpt lat="59.8927061" lon="17.8427412">
        <ele>52.0486</ele>
        <time>2013-05-24T19:13:26Z</time>
      </trkpt>
      <trkpt lat="59.8927926" lon="17.8427869">
        <ele>52.5292</ele>
        <time>2013-05-24T19:13:27Z</time>
      </trkpt>
      <trkpt lat="59.892877" lon="17.8428268">
        <ele>52.5292</ele>
        <time>2013-05-24T19:13:28Z</time>
      </trkpt>
      <trkpt lat="59.8929657" lon="17.8428735">
        <ele>53.4905</ele>
        <time>2013-05-24T19:13:29Z</time>
      </trkpt>
      <trkpt lat="59.8930534" lon="17.8429199">
        <ele>54.4518</ele>
        <time>2013-05-24T19:13:30Z</time>
      </trkpt>
      <trkpt lat="59.8931427" lon="17.8429706">
        <ele>54.9324</ele>
        <time>2013-05-24T19:13:31Z</time>
      </trkpt>
      <trkpt lat="59.8932309" lon="17.8430093">
        <ele>54.4518</ele>
        <time>2013-05-24T19:13:32Z</time>
      </trkpt>
      <trkpt lat="59.893322" lon="17.8430457">
        <ele>53.9712</ele>
        <time>2013-05-24T19:13:33Z</time>
      </trkpt>
      <trkpt lat="59.8934094" lon="17.8430699">
        <ele>53.0098</ele>
        <time>2013-05-24T19:13:34Z</time>
      </trkpt>
      <trkpt lat="59.8935043" lon="17.8430926">
        <ele>52.5292</ele>
        <time>2013-05-24T19:13:35Z</time>
      </trkpt>
      <trkpt lat="59.8935958" lon="17.8431095">
        <ele>52.0486</ele>
        <time>2013-05-24T19:13:36Z</time>
      </trkpt>
      <trkpt lat="59.8936885" lon="17.8431186">
        <ele>50.6066</ele>
        <time>2013-05-24T19:13:37Z</time>
      </trkpt>
      <trkpt lat="59.8937728" lon="17.8431127">
        <ele>48.2034</ele>
        <time>2013-05-24T19:13:38Z</time>
      </trkpt>
      <trkpt lat="59.8938483" lon="17.8430975">
        <ele>43.3966</ele>
        <time>2013-05-24T19:13:39Z</time>
      </trkpt>
      <trkpt lat="59.8939316" lon="17.8430968">
        <ele>41.9547</ele>
        <time>2013-05-24T19:13:40Z</time>
      </trkpt>
      <trkpt lat="59.8940125" lon="17.8430521">
        <ele>39.5513</ele>
        <time>2013-05-24T19:13:41Z</time>
      </trkpt>
      <trkpt lat="59.8941107" lon="17.8430324">
        <ele>38.5901</ele>
        <time>2013-05-24T19:13:42Z</time>
      </trkpt>
      <trkpt lat="59.8942083" lon="17.8430514">
        <ele>38.5901</ele>
        <time>2013-05-24T19:13:43Z</time>
      </trkpt>
      <trkpt lat="59.8942882" lon="17.843051">
        <ele>37.1481</ele>
        <time>2013-05-24T19:13:44Z</time>
      </trkpt>
      <trkpt lat="59.8943729" lon="17.843049">
        <ele>35.7061</ele>
        <time>2013-05-24T19:13:45Z</time>
      </trkpt>
      <trkpt lat="59.8944702" lon="17.8430599">
        <ele>36.1868</ele>
        <time>2013-05-24T19:13:46Z</time>
      </trkpt>
      <trkpt lat="59.8945652" lon="17.8431085">
        <ele>35.2255</ele>
        <time>2013-05-24T19:13:47Z</time>
      </trkpt>
      <trkpt lat="59.8946505" lon="17.8431271">
        <ele>33.7834</ele>
        <time>2013-05-24T19:13:48Z</time>
      </trkpt>
      <trkpt lat="59.8947242" lon="17.8431355">
        <ele>31.3801</ele>
        <time>2013-05-24T19:13:49Z</time>
      </trkpt>
      <trkpt lat="59.8948917" lon="17.8431364">
        <ele>30.4188</ele>
        <time>2013-05-24T19:13:51Z</time>
      </trkpt>
      <trkpt lat="59.8949676" lon="17.8431226">
        <ele>27.5349</ele>
        <time>2013-05-24T19:13:52Z</time>
      </trkpt>
      <trkpt lat="59.8950602" lon="17.843092">
        <ele>27.0543</ele>
        <time>2013-05-24T19:13:53Z</time>
      </trkpt>
      <trkpt lat="59.8951312" lon="17.8430437">
        <ele>23.6896</ele>
        <time>2013-05-24T19:13:54Z</time>
      </trkpt>
      <trkpt lat="59.895175" lon="17.8429667">
        <ele>20.325</ele>
        <time>2013-05-24T19:13:55Z</time>
      </trkpt>
      <trkpt lat="59.8952521" lon="17.8429579">
        <ele>18.4023</ele>
        <time>2013-05-24T19:13:56Z</time>
      </trkpt>
      <trkpt lat="59.8953743" lon="17.8429567">
        <ele>20.8057</ele>
        <time>2013-05-24T19:13:57Z</time>
      </trkpt>
      <trkpt lat="59.8954623" lon="17.8429008">
        <ele>20.325</ele>
        <time>2013-05-24T19:13:58Z</time>
      </trkpt>
      <trkpt lat="59.8955423" lon="17.8428595">
        <ele>18.8831</ele>
        <time>2013-05-24T19:13:59Z</time>
      </trkpt>
      <trkpt lat="59.8956323" lon="17.8428207">
        <ele>19.3638</ele>
        <time>2013-05-24T19:14:00Z</time>
      </trkpt>
      <trkpt lat="59.895709" lon="17.8427727">
        <ele>19.3638</ele>
        <time>2013-05-24T19:14:01Z</time>
      </trkpt>
      <trkpt lat="59.8957816" lon="17.8427316">
        <ele>16.4797</ele>
        <time>2013-05-24T19:14:02Z</time>
      </trkpt>
      <trkpt lat="59.8958411" lon="17.8427144">
        <ele>15.5184</ele>
        <time>2013-05-24T19:14:03Z</time>
      </trkpt>
      <trkpt lat="59.8959094" lon="17.8427071">
        <ele>15.0377</ele>
        <time>2013-05-24T19:14:04Z</time>
      </trkpt>
      <trkpt lat="59.8959851" lon="17.8427123">
        <ele>15.999</ele>
        <time>2013-05-24T19:14:05Z</time>
      </trkpt>
      <trkpt lat="59.89606" lon="17.8427191">
        <ele>15.5184</ele>
        <time>2013-05-24T19:14:06Z</time>
      </trkpt>
      <trkpt lat="59.8961428" lon="17.8427491">
        <ele>17.4412</ele>
        <time>2013-05-24T19:14:07Z</time>
      </trkpt>
      <trkpt lat="59.8962259" lon="17.8427869">
        <ele>18.8831</ele>
        <time>2013-05-24T19:14:08Z</time>
      </trkpt>
      <trkpt lat="59.8963081" lon="17.8428251">
        <ele>20.325</ele>
        <time>2013-05-24T19:14:09Z</time>
      </trkpt>
      <trkpt lat="59.8963863" lon="17.8428639">
        <ele>22.2476</ele>
        <time>2013-05-24T19:14:10Z</time>
      </trkpt>
      <trkpt lat="59.8964596" lon="17.8428982">
        <ele>23.209</ele>
        <time>2013-05-24T19:14:11Z</time>
      </trkpt>
      <trkpt lat="59.8965289" lon="17.8429221">
        <ele>24.1703</ele>
        <time>2013-05-24T19:14:12Z</time>
      </trkpt>
      <trkpt lat="59.8965917" lon="17.8429378">
        <ele>26.0929</ele>
        <time>2013-05-24T19:14:13Z</time>
      </trkpt>
      <trkpt lat="59.8966631" lon="17.8429484">
        <ele>28.9769</ele>
        <time>2013-05-24T19:14:14Z</time>
      </trkpt>
      <trkpt lat="59.8967248" lon="17.8429188">
        <ele>29.9381</ele>
        <time>2013-05-24T19:14:15Z</time>
      </trkpt>
      <trkpt lat="59.896801" lon="17.8428962">
        <ele>34.2642</ele>
        <time>2013-05-24T19:14:16Z</time>
      </trkpt>
      <trkpt lat="59.8968764" lon="17.8428754">
        <ele>38.5901</ele>
        <time>2013-05-24T19:14:17Z</time>
      </trkpt>
      <trkpt lat="59.8969262" lon="17.8428624">
        <ele>39.0707</ele>
        <time>2013-05-24T19:14:18Z</time>
      </trkpt>
      <trkpt lat="59.8969615" lon="17.8428455">
        <ele>38.5901</ele>
        <time>2013-05-24T19:14:19Z</time>
      </trkpt>
      <trkpt lat="59.8970185" lon="17.8428101">
        <ele>40.9934</ele>
        <time>2013-05-24T19:14:20Z</time>
      </trkpt>
      <trkpt lat="59.8970787" lon="17.8427682">
        <ele>43.8773</ele>
        <time>2013-05-24T19:14:21Z</time>
      </trkpt>
      <trkpt lat="59.8971331" lon="17.8427253">
        <ele>45.3192</ele>
        <time>2013-05-24T19:14:22Z</time>
      </trkpt>
      <trkpt lat="59.8972008" lon="17.8426668">
        <ele>47.7225</ele>
        <time>2013-05-24T19:14:23Z</time>
      </trkpt>
      <trkpt lat="59.8972696" lon="17.8426321">
        <ele>50.6066</ele>
        <time>2013-05-24T19:14:24Z</time>
      </trkpt>
      <trkpt lat="59.897326" lon="17.8425942">
        <ele>52.5292</ele>
        <time>2013-05-24T19:14:25Z</time>
      </trkpt>
      <trkpt lat="59.8973718" lon="17.8425694">
        <ele>53.9712</ele>
        <time>2013-05-24T19:14:26Z</time>
      </trkpt>
      <trkpt lat="59.8974245" lon="17.8425336">
        <ele>53.9712</ele>
        <time>2013-05-24T19:14:27Z</time>
      </trkpt>
      <trkpt lat="59.8974596" lon="17.8425051">
        <ele>53.4905</ele>
        <time>2013-05-24T19:14:28Z</time>
      </trkpt>
      <trkpt lat="59.8974898" lon="17.8424735">
        <ele>53.9712</ele>
        <time>2013-05-24T19:14:29Z</time>
      </trkpt>
      <trkpt lat="59.8975308" lon="17.842442">
        <ele>54.9324</ele>
        <time>2013-05-24T19:14:30Z</time>
      </trkpt>
      <trkpt lat="59.8975729" lon="17.8424169">
        <ele>55.4131</ele>
        <time>2013-05-24T19:14:31Z</time>
      </trkpt>
      <trkpt lat="59.8976259" lon="17.8423833">
        <ele>55.4131</ele>
        <time>2013-05-24T19:14:32Z</time>
      </trkpt>
      <trkpt lat="59.8976665" lon="17.8423673">
        <ele>53.0098</ele>
        <time>2013-05-24T19:14:33Z</time>
      </trkpt>
      <trkpt lat="59.8977135" lon="17.8423549">
        <ele>51.5679</ele>
        <time>2013-05-24T19:14:34Z</time>
      </trkpt>
      <trkpt lat="59.8977571" lon="17.8423288">
        <ele>48.2034</ele>
        <time>2013-05-24T19:14:35Z</time>
      </trkpt>
      <trkpt lat="59.8978022" lon="17.8423078">
        <ele>45.7999</ele>
        <time>2013-05-24T19:14:36Z</time>
      </trkpt>
      <trkpt lat="59.8978495" lon="17.8422874">
        <ele>43.3966</ele>
        <time>2013-05-24T19:14:37Z</time>
      </trkpt>
      <trkpt lat="59.8978866" lon="17.8422656">
        <ele>38.5901</ele>
        <time>2013-05-24T19:14:38Z</time>
      </trkpt>
      <trkpt lat="59.8979295" lon="17.8422558">
        <ele>35.2255</ele>
        <time>2013-05-24T19:14:39Z</time>
      </trkpt>
      <trkpt lat="59.8979864" lon="17.8422791">
        <ele>34.7449</ele>
        <time>2013-05-24T19:14:40Z</time>
      </trkpt>
      <trkpt lat="59.8980492" lon="17.8423079">
        <ele>35.7061</ele>
        <time>2013-05-24T19:14:41Z</time>
      </trkpt>
      <trkpt lat="59.8981028" lon="17.8423355">
        <ele>35.7061</ele>
        <time>2013-05-24T19:14:42Z</time>
      </trkpt>
      <trkpt lat="59.8981608" lon="17.8423471">
        <ele>37.1481</ele>
        <time>2013-05-24T19:14:43Z</time>
      </trkpt>
      <trkpt lat="59.8982099" lon="17.8423362">
        <ele>35.7061</ele>
        <time>2013-05-24T19:14:44Z</time>
      </trkpt>
      <trkpt lat="59.898262" lon="17.842328">
        <ele>35.7061</ele>
        <time>2013-05-24T19:14:45Z</time>
      </trkpt>
      <trkpt lat="59.8983115" lon="17.8423047">
        <ele>34.7449</ele>
        <time>2013-05-24T19:14:46Z</time>
      </trkpt>
      <trkpt lat="59.898372" lon="17.8422757">
        <ele>34.7449</ele>
        <time>2013-05-24T19:14:47Z</time>
      </trkpt>
      <trkpt lat="59.8984327" lon="17.8422704">
        <ele>35.2255</ele>
        <time>2013-05-24T19:14:48Z</time>
      </trkpt>
      <trkpt lat="59.8984953" lon="17.8422609">
        <ele>36.1868</ele>
        <time>2013-05-24T19:14:49Z</time>
      </trkpt>
      <trkpt lat="59.8985503" lon="17.8422306">
        <ele>35.2255</ele>
        <time>2013-05-24T19:14:50Z</time>
      </trkpt>
      <trkpt lat="59.8986044" lon="17.8421887">
        <ele>34.7449</ele>
        <time>2013-05-24T19:14:51Z</time>
      </trkpt>
      <trkpt lat="59.8986527" lon="17.8421445">
        <ele>33.3029</ele>
        <time>2013-05-24T19:14:52Z</time>
      </trkpt>
      <trkpt lat="59.8987119" lon="17.8421212">
        <ele>35.2255</ele>
        <time>2013-05-24T19:14:53Z</time>
      </trkpt>
      <trkpt lat="59.8987686" lon="17.8420772">
        <ele>35.7061</ele>
        <time>2013-05-24T19:14:54Z</time>
      </trkpt>
      <trkpt lat="59.8988321" lon="17.8420527">
        <ele>38.1094</ele>
        <time>2013-05-24T19:14:55Z</time>
      </trkpt>
      <trkpt lat="59.8988852" lon="17.8420327">
        <ele>40.0321</ele>
        <time>2013-05-24T19:14:56Z</time>
      </trkpt>
      <trkpt lat="59.898934" lon="17.8420047">
        <ele>40.9934</ele>
        <time>2013-05-24T19:14:57Z</time>
      </trkpt>
      <trkpt lat="59.8989976" lon="17.8419795">
        <ele>43.8773</ele>
        <time>2013-05-24T19:14:58Z</time>
      </trkpt>
      <trkpt lat="59.8990541" lon="17.8419577">
        <ele>45.3192</ele>
        <time>2013-05-24T19:14:59Z</time>
      </trkpt>
      <trkpt lat="59.8991217" lon="17.8419281">
        <ele>48.2034</ele>
        <time>2013-05-24T19:15:00Z</time>
      </trkpt>
      <trkpt lat="59.8991836" lon="17.8418939">
        <ele>51.0872</ele>
        <time>2013-05-24T19:15:01Z</time>
      </trkpt>
      <trkpt lat="59.8992307" lon="17.8418479">
        <ele>52.0486</ele>
        <time>2013-05-24T19:15:02Z</time>
      </trkpt>
      <trkpt lat="59.8993038" lon="17.8417861">
        <ele>56.3745</ele>
        <time>2013-05-24T19:15:03Z</time>
      </trkpt>
      <trkpt lat="59.8993624" lon="17.8417259">
        <ele>59.2584</ele>
        <time>2013-05-24T19:15:04Z</time>
      </trkpt>
      <trkpt lat="59.8994118" lon="17.8416523">
        <ele>59.2584</ele>
        <time>2013-05-24T19:15:05Z</time>
      </trkpt>
      <trkpt lat="59.8994621" lon="17.8415744">
        <ele>57.8165</ele>
        <time>2013-05-24T19:15:06Z</time>
      </trkpt>
      <trkpt lat="59.8995208" lon="17.8415111">
        <ele>56.8551</ele>
        <time>2013-05-24T19:15:07Z</time>
      </trkpt>
      <trkpt lat="59.8995841" lon="17.8414526">
        <ele>55.8938</ele>
        <time>2013-05-24T19:15:08Z</time>
      </trkpt>
      <trkpt lat="59.899662" lon="17.8414067">
        <ele>56.8551</ele>
        <time>2013-05-24T19:15:09Z</time>
      </trkpt>
      <trkpt lat="59.8997394" lon="17.8413855">
        <ele>56.8551</ele>
        <time>2013-05-24T19:15:10Z</time>
      </trkpt>
      <trkpt lat="59.8998141" lon="17.8413997">
        <ele>55.4131</ele>
        <time>2013-05-24T19:15:11Z</time>
      </trkpt>
      <trkpt lat="59.8998591" lon="17.8414135">
        <ele>51.5679</ele>
        <time>2013-05-24T19:15:12Z</time>
      </trkpt>
      <trkpt lat="59.8999447" lon="17.84143">
        <ele>50.6066</ele>
        <time>2013-05-24T19:15:13Z</time>
      </trkpt>
      <trkpt lat="59.9000556" lon="17.8414226">
        <ele>48.2034</ele>
        <time>2013-05-24T19:15:14Z</time>
      </trkpt>
      <trkpt lat="59.9001545" lon="17.8414209">
        <ele>45.3192</ele>
        <time>2013-05-24T19:15:15Z</time>
      </trkpt>
      <trkpt lat="59.9002515" lon="17.8414013">
        <ele>42.916</ele>
        <time>2013-05-24T19:15:16Z</time>
      </trkpt>
      <trkpt lat="59.9003343" lon="17.8413723">
        <ele>38.1094</ele>
        <time>2013-05-24T19:15:17Z</time>
      </trkpt>
      <trkpt lat="59.9004275" lon="17.8413729">
        <ele>36.1868</ele>
        <time>2013-05-24T19:15:18Z</time>
      </trkpt>
      <trkpt lat="59.9005276" lon="17.8413788">
        <ele>35.2255</ele>
        <time>2013-05-24T19:15:19Z</time>
      </trkpt>
      <trkpt lat="59.9006181" lon="17.841383">
        <ele>33.3029</ele>
        <time>2013-05-24T19:15:20Z</time>
      </trkpt>
      <trkpt lat="59.9007124" lon="17.8413955">
        <ele>32.8223</ele>
        <time>2013-05-24T19:15:21Z</time>
      </trkpt>
      <trkpt lat="59.900804" lon="17.8413943">
        <ele>30.8995</ele>
        <time>2013-05-24T19:15:22Z</time>
      </trkpt>
      <trkpt lat="59.900907" lon="17.8414125">
        <ele>30.8995</ele>
        <time>2013-05-24T19:15:23Z</time>
      </trkpt>
      <trkpt lat="59.9010065" lon="17.8414254">
        <ele>29.9381</ele>
        <time>2013-05-24T19:15:24Z</time>
      </trkpt>
      <trkpt lat="59.9011072" lon="17.8414494">
        <ele>29.9381</ele>
        <time>2013-05-24T19:15:25Z</time>
      </trkpt>
      <trkpt lat="59.9012093" lon="17.8414765">
        <ele>30.8995</ele>
        <time>2013-05-24T19:15:26Z</time>
      </trkpt>
      <trkpt lat="59.9013079" lon="17.8414951">
        <ele>29.9381</ele>
        <time>2013-05-24T19:15:27Z</time>
      </trkpt>
      <trkpt lat="59.9013994" lon="17.8415163">
        <ele>28.4962</ele>
        <time>2013-05-24T19:15:28Z</time>
      </trkpt>
      <trkpt lat="59.9014888" lon="17.8415333">
        <ele>26.5736</ele>
        <time>2013-05-24T19:15:29Z</time>
      </trkpt>
      <trkpt lat="59.9015866" lon="17.8415485">
        <ele>26.5736</ele>
        <time>2013-05-24T19:15:30Z</time>
      </trkpt>
      <trkpt lat="59.9016722" lon="17.8415511">
        <ele>25.6123</ele>
        <time>2013-05-24T19:15:31Z</time>
      </trkpt>
      <trkpt lat="59.9017627" lon="17.8415621">
        <ele>25.6123</ele>
        <time>2013-05-24T19:15:32Z</time>
      </trkpt>
      <trkpt lat="59.9018488" lon="17.8415827">
        <ele>26.0929</ele>
        <time>2013-05-24T19:15:33Z</time>
      </trkpt>
      <trkpt lat="59.9019347" lon="17.8416013">
        <ele>26.0929</ele>
        <time>2013-05-24T19:15:34Z</time>
      </trkpt>
      <trkpt lat="59.9020214" lon="17.8416105">
        <ele>26.5736</ele>
        <time>2013-05-24T19:15:35Z</time>
      </trkpt>
      <trkpt lat="59.9021114" lon="17.8416214">
        <ele>28.0155</ele>
        <time>2013-05-24T19:15:36Z</time>
      </trkpt>
      <trkpt lat="59.9021929" lon="17.8416067">
        <ele>28.0155</ele>
        <time>2013-05-24T19:15:37Z</time>
      </trkpt>
      <trkpt lat="59.9022751" lon="17.8415891">
        <ele>26.5736</ele>
        <time>2013-05-24T19:15:38Z</time>
      </trkpt>
      <trkpt lat="59.9023595" lon="17.8415572">
        <ele>25.6123</ele>
        <time>2013-05-24T19:15:39Z</time>
      </trkpt>
      <trkpt lat="59.9024462" lon="17.8415129">
        <ele>24.1703</ele>
        <time>2013-05-24T19:15:40Z</time>
      </trkpt>
      <trkpt lat="59.9025457" lon="17.8414685">
        <ele>25.1317</ele>
        <time>2013-05-24T19:15:41Z</time>
      </trkpt>
      <trkpt lat="59.9026338" lon="17.8414192">
        <ele>23.209</ele>
        <time>2013-05-24T19:15:42Z</time>
      </trkpt>
      <trkpt lat="59.9027228" lon="17.8413608">
        <ele>21.767</ele>
        <time>2013-05-24T19:15:43Z</time>
      </trkpt>
      <trkpt lat="59.9028115" lon="17.8413106">
        <ele>20.8057</ele>
        <time>2013-05-24T19:15:44Z</time>
      </trkpt>
      <trkpt lat="59.9028999" lon="17.8412733">
        <ele>20.325</ele>
        <time>2013-05-24T19:15:45Z</time>
      </trkpt>
      <trkpt lat="59.9029915" lon="17.8412499">
        <ele>20.8057</ele>
        <time>2013-05-24T19:15:46Z</time>
      </trkpt>
      <trkpt lat="59.903077" lon="17.8412319">
        <ele>20.325</ele>
        <time>2013-05-24T19:15:47Z</time>
      </trkpt>
      <trkpt lat="59.903164" lon="17.8412369">
        <ele>21.2864</ele>
        <time>2013-05-24T19:15:48Z</time>
      </trkpt>
      <trkpt lat="59.9032538" lon="17.8412689">
        <ele>23.209</ele>
        <time>2013-05-24T19:15:49Z</time>
      </trkpt>
      <trkpt lat="59.9033316" lon="17.8413228">
        <ele>23.209</ele>
        <time>2013-05-24T19:15:50Z</time>
      </trkpt>
      <trkpt lat="59.9034074" lon="17.8413982">
        <ele>23.6896</ele>
        <time>2013-05-24T19:15:51Z</time>
      </trkpt>
      <trkpt lat="59.9034743" lon="17.8414862">
        <ele>23.6896</ele>
        <time>2013-05-24T19:15:52Z</time>
      </trkpt>
      <trkpt lat="59.9035401" lon="17.8415821">
        <ele>23.6896</ele>
        <time>2013-05-24T19:15:53Z</time>
      </trkpt>
      <trkpt lat="59.9035977" lon="17.8416922">
        <ele>23.6896</ele>
        <time>2013-05-24T19:15:54Z</time>
      </trkpt>
      <trkpt lat="59.9036558" lon="17.8417844">
        <ele>22.2476</ele>
        <time>2013-05-24T19:15:55Z</time>
      </trkpt>
      <trkpt lat="59.9037244" lon="17.8418662">
        <ele>20.8057</ele>
        <time>2013-05-24T19:15:56Z</time>
      </trkpt>
      <trkpt lat="59.903807" lon="17.8419431">
        <ele>21.767</ele>
        <time>2013-05-24T19:15:57Z</time>
      </trkpt>
      <trkpt lat="59.9038925" lon="17.8420068">
        <ele>22.7283</ele>
        <time>2013-05-24T19:15:58Z</time>
      </trkpt>
      <trkpt lat="59.903985" lon="17.8420458">
        <ele>23.6896</ele>
        <time>2013-05-24T19:15:59Z</time>
      </trkpt>
      <trkpt lat="59.9040789" lon="17.842057">
        <ele>23.6896</ele>
        <time>2013-05-24T19:16:00Z</time>
      </trkpt>
      <trkpt lat="59.9041744" lon="17.842048">
        <ele>25.1317</ele>
        <time>2013-05-24T19:16:01Z</time>
      </trkpt>
      <trkpt lat="59.9042647" lon="17.8420164">
        <ele>26.0929</ele>
        <time>2013-05-24T19:16:02Z</time>
      </trkpt>
      <trkpt lat="59.9043512" lon="17.8419783">
        <ele>27.0543</ele>
        <time>2013-05-24T19:16:03Z</time>
      </trkpt>
      <trkpt lat="59.9044395" lon="17.8419191">
        <ele>28.9769</ele>
        <time>2013-05-24T19:16:04Z</time>
      </trkpt>
      <trkpt lat="59.9045271" lon="17.8418567">
        <ele>30.8995</ele>
        <time>2013-05-24T19:16:05Z</time>
      </trkpt>
      <trkpt lat="59.9046135" lon="17.8418021">
        <ele>32.3416</ele>
        <time>2013-05-24T19:16:06Z</time>
      </trkpt>
      <trkpt lat="59.9046983" lon="17.8417659">
        <ele>33.3029</ele>
        <time>2013-05-24T19:16:07Z</time>
      </trkpt>
      <trkpt lat="59.9047668" lon="17.8417255">
        <ele>32.3416</ele>
        <time>2013-05-24T19:16:08Z</time>
      </trkpt>
      <trkpt lat="59.9048434" lon="17.8416896">
        <ele>32.8223</ele>
        <time>2013-05-24T19:16:09Z</time>
      </trkpt>
      <trkpt lat="59.9049255" lon="17.8416417">
        <ele>33.7834</ele>
        <time>2013-05-24T19:16:10Z</time>
      </trkpt>
      <trkpt lat="59.9050118" lon="17.8415779">
        <ele>33.7834</ele>
        <time>2013-05-24T19:16:11Z</time>
      </trkpt>
      <trkpt lat="59.9051086" lon="17.8415218">
        <ele>33.7834</ele>
        <time>2013-05-24T19:16:12Z</time>
      </trkpt>
      <trkpt lat="59.9052061" lon="17.8414764">
        <ele>33.3029</ele>
        <time>2013-05-24T19:16:13Z</time>
      </trkpt>
      <trkpt lat="59.9053075" lon="17.8414376">
        <ele>32.3416</ele>
        <time>2013-05-24T19:16:14Z</time>
      </trkpt>
      <trkpt lat="59.9054157" lon="17.8414079">
        <ele>32.8223</ele>
        <time>2013-05-24T19:16:15Z</time>
      </trkpt>
      <trkpt lat="59.9055221" lon="17.841379">
        <ele>32.8223</ele>
        <time>2013-05-24T19:16:16Z</time>
      </trkpt>
      <trkpt lat="59.9056226" lon="17.8413447">
        <ele>32.8223</ele>
        <time>2013-05-24T19:16:17Z</time>
      </trkpt>
      <trkpt lat="59.9057211" lon="17.8412992">
        <ele>32.3416</ele>
        <time>2013-05-24T19:16:18Z</time>
      </trkpt>
      <trkpt lat="59.9058188" lon="17.8412438">
        <ele>32.3416</ele>
        <time>2013-05-24T19:16:19Z</time>
      </trkpt>
      <trkpt lat="59.905912" lon="17.8411591">
        <ele>29.9381</ele>
        <time>2013-05-24T19:16:20Z</time>
      </trkpt>
      <trkpt lat="59.9059945" lon="17.8410649">
        <ele>28.9769</ele>
        <time>2013-05-24T19:16:21Z</time>
      </trkpt>
      <trkpt lat="59.9060748" lon="17.8409612">
        <ele>28.9769</ele>
        <time>2013-05-24T19:16:22Z</time>
      </trkpt>
      <trkpt lat="59.9061459" lon="17.8408465">
        <ele>27.5349</ele>
        <time>2013-05-24T19:16:23Z</time>
      </trkpt>
      <trkpt lat="59.9062148" lon="17.8407309">
        <ele>26.5736</ele>
        <time>2013-05-24T19:16:24Z</time>
      </trkpt>
      <trkpt lat="59.9062793" lon="17.840621">
        <ele>26.0929</ele>
        <time>2013-05-24T19:16:25Z</time>
      </trkpt>
      <trkpt lat="59.9063466" lon="17.8405243">
        <ele>24.651</ele>
        <time>2013-05-24T19:16:26Z</time>
      </trkpt>
      <trkpt lat="59.9064167" lon="17.8404471">
        <ele>23.209</ele>
        <time>2013-05-24T19:16:27Z</time>
      </trkpt>
      <trkpt lat="59.9064935" lon="17.8403716">
        <ele>21.767</ele>
        <time>2013-05-24T19:16:28Z</time>
      </trkpt>
      <trkpt lat="59.9065705" lon="17.8402859">
        <ele>21.767</ele>
        <time>2013-05-24T19:16:29Z</time>
      </trkpt>
      <trkpt lat="59.9066554" lon="17.8401853">
        <ele>22.2476</ele>
        <time>2013-05-24T19:16:30Z</time>
      </trkpt>
      <trkpt lat="59.9067356" lon="17.8401076">
        <ele>23.209</ele>
        <time>2013-05-24T19:16:31Z</time>
      </trkpt>
      <trkpt lat="59.9068203" lon="17.8400331">
        <ele>24.651</ele>
        <time>2013-05-24T19:16:32Z</time>
      </trkpt>
      <trkpt lat="59.906903" lon="17.8399715">
        <ele>25.6123</ele>
        <time>2013-05-24T19:16:33Z</time>
      </trkpt>
      <trkpt lat="59.9069859" lon="17.8399104">
        <ele>25.1317</ele>
        <time>2013-05-24T19:16:34Z</time>
      </trkpt>
      <trkpt lat="59.9070803" lon="17.8398574">
        <ele>26.5736</ele>
        <time>2013-05-24T19:16:35Z</time>
      </trkpt>
      <trkpt lat="59.9071558" lon="17.8397924">
        <ele>25.6123</ele>
        <time>2013-05-24T19:16:36Z</time>
      </trkpt>
      <trkpt lat="59.9072374" lon="17.8397363">
        <ele>26.0929</ele>
        <time>2013-05-24T19:16:37Z</time>
      </trkpt>
      <trkpt lat="59.9073253" lon="17.8396787">
        <ele>26.0929</ele>
        <time>2013-05-24T19:16:38Z</time>
      </trkpt>
      <trkpt lat="59.9073983" lon="17.8396208">
        <ele>26.0929</ele>
        <time>2013-05-24T19:16:39Z</time>
      </trkpt>
      <trkpt lat="59.9074718" lon="17.8395562">
        <ele>26.0929</ele>
        <time>2013-05-24T19:16:40Z</time>
      </trkpt>
      <trkpt lat="59.9075419" lon="17.8395002">
        <ele>27.5349</ele>
        <time>2013-05-24T19:16:41Z</time>
      </trkpt>
      <trkpt lat="59.9075933" lon="17.8394447">
        <ele>27.0543</ele>
        <time>2013-05-24T19:16:42Z</time>
      </trkpt>
      <trkpt lat="59.9076495" lon="17.8393914">
        <ele>28.4962</ele>
        <time>2013-05-24T19:16:43Z</time>
      </trkpt>
      <trkpt lat="59.9076998" lon="17.839324">
        <ele>29.9381</ele>
        <time>2013-05-24T19:16:44Z</time>
      </trkpt>
      <trkpt lat="59.9077331" lon="17.839265">
        <ele>29.4575</ele>
        <time>2013-05-24T19:16:45Z</time>
      </trkpt>
      <trkpt lat="59.9077839" lon="17.8391922">
        <ele>29.4575</ele>
        <time>2013-05-24T19:16:46Z</time>
      </trkpt>
      <trkpt lat="59.9078409" lon="17.8391265">
        <ele>29.9381</ele>
        <time>2013-05-24T19:16:47Z</time>
      </trkpt>
      <trkpt lat="59.9079058" lon="17.8390526">
        <ele>30.4188</ele>
        <time>2013-05-24T19:16:48Z</time>
      </trkpt>
      <trkpt lat="59.907977" lon="17.8389814">
        <ele>31.3801</ele>
        <time>2013-05-24T19:16:49Z</time>
      </trkpt>
      <trkpt lat="59.9080418" lon="17.838893">
        <ele>30.8995</ele>
        <time>2013-05-24T19:16:50Z</time>
      </trkpt>
      <trkpt lat="59.9081085" lon="17.838816">
        <ele>31.8607</ele>
        <time>2013-05-24T19:16:51Z</time>
      </trkpt>
      <trkpt lat="59.908178" lon="17.8387607">
        <ele>31.3801</ele>
        <time>2013-05-24T19:16:52Z</time>
      </trkpt>
      <trkpt lat="59.9082363" lon="17.838726">
        <ele>29.9381</ele>
        <time>2013-05-24T19:16:53Z</time>
      </trkpt>
      <trkpt lat="59.9083016" lon="17.8387112">
        <ele>27.0543</ele>
        <time>2013-05-24T19:16:54Z</time>
      </trkpt>
      <trkpt lat="59.9083764" lon="17.8387066">
        <ele>26.0929</ele>
        <time>2013-05-24T19:16:55Z</time>
      </trkpt>
      <trkpt lat="59.9084588" lon="17.838719">
        <ele>26.0929</ele>
        <time>2013-05-24T19:16:56Z</time>
      </trkpt>
      <trkpt lat="59.9085333" lon="17.8387471">
        <ele>24.651</ele>
        <time>2013-05-24T19:16:57Z</time>
      </trkpt>
      <trkpt lat="59.9086235" lon="17.8388136">
        <ele>27.0543</ele>
        <time>2013-05-24T19:16:58Z</time>
      </trkpt>
      <trkpt lat="59.9086995" lon="17.8388992">
        <ele>25.6123</ele>
        <time>2013-05-24T19:16:59Z</time>
      </trkpt>
      <trkpt lat="59.9087794" lon="17.839005">
        <ele>25.1317</ele>
        <time>2013-05-24T19:17:00Z</time>
      </trkpt>
      <trkpt lat="59.9088624" lon="17.8391255">
        <ele>25.1317</ele>
        <time>2013-05-24T19:17:01Z</time>
      </trkpt>
      <trkpt lat="59.9089368" lon="17.8392644">
        <ele>25.1317</ele>
        <time>2013-05-24T19:17:02Z</time>
      </trkpt>
      <trkpt lat="59.9090048" lon="17.8394182">
        <ele>24.651</ele>
        <time>2013-05-24T19:17:03Z</time>
      </trkpt>
      <trkpt lat="59.9090695" lon="17.8395795">
        <ele>24.651</ele>
        <time>2013-05-24T19:17:04Z</time>
      </trkpt>
      <trkpt lat="59.9091315" lon="17.8397432">
        <ele>24.1703</ele>
        <time>2013-05-24T19:17:05Z</time>
      </trkpt>
      <trkpt lat="59.9091905" lon="17.8399099">
        <ele>23.6896</ele>
        <time>2013-05-24T19:17:06Z</time>
      </trkpt>
      <trkpt lat="59.9092366" lon="17.8400771">
        <ele>20.8057</ele>
        <time>2013-05-24T19:17:07Z</time>
      </trkpt>
      <trkpt lat="59.9092884" lon="17.8402433">
        <ele>18.8831</ele>
        <time>2013-05-24T19:17:08Z</time>
      </trkpt>
      <trkpt lat="59.909343" lon="17.8404068">
        <ele>17.4412</ele>
        <time>2013-05-24T19:17:09Z</time>
      </trkpt>
      <trkpt lat="59.909399" lon="17.8405698">
        <ele>16.4797</ele>
        <time>2013-05-24T19:17:10Z</time>
      </trkpt>
      <trkpt lat="59.9094553" lon="17.8407346">
        <ele>15.5184</ele>
        <time>2013-05-24T19:17:11Z</time>
      </trkpt>
      <trkpt lat="59.9095062" lon="17.8409043">
        <ele>15.0377</ele>
        <time>2013-05-24T19:17:12Z</time>
      </trkpt>
      <trkpt lat="59.909546" lon="17.8410817">
        <ele>14.0764</ele>
        <time>2013-05-24T19:17:13Z</time>
      </trkpt>
      <trkpt lat="59.9095761" lon="17.8412653">
        <ele>13.1151</ele>
        <time>2013-05-24T19:17:14Z</time>
      </trkpt>
      <trkpt lat="59.9095952" lon="17.84145">
        <ele>12.6344</ele>
        <time>2013-05-24T19:17:15Z</time>
      </trkpt>
      <trkpt lat="59.9095995" lon="17.8416362">
        <ele>11.1925</ele>
        <time>2013-05-24T19:17:16Z</time>
      </trkpt>
      <trkpt lat="59.9095988" lon="17.8418193">
        <ele>10.7118</ele>
        <time>2013-05-24T19:17:17Z</time>
      </trkpt>
      <trkpt lat="59.9095932" lon="17.8419921">
        <ele>10.7118</ele>
        <time>2013-05-24T19:17:18Z</time>
      </trkpt>
      <trkpt lat="59.9095826" lon="17.8421627">
        <ele>11.6732</ele>
        <time>2013-05-24T19:17:19Z</time>
      </trkpt>
      <trkpt lat="59.9095681" lon="17.8423192">
        <ele>12.1538</ele>
        <time>2013-05-24T19:17:20Z</time>
      </trkpt>
      <trkpt lat="59.9095557" lon="17.8424787">
        <ele>12.6344</ele>
        <time>2013-05-24T19:17:21Z</time>
      </trkpt>
      <trkpt lat="59.9095433" lon="17.8426294">
        <ele>12.6344</ele>
        <time>2013-05-24T19:17:22Z</time>
      </trkpt>
      <trkpt lat="59.909545" lon="17.842776">
        <ele>12.6344</ele>
        <time>2013-05-24T19:17:23Z</time>
      </trkpt>
      <trkpt lat="59.9095574" lon="17.842918">
        <ele>12.6344</ele>
        <time>2013-05-24T19:17:24Z</time>
      </trkpt>
      <trkpt lat="59.9095806" lon="17.8430494">
        <ele>13.1151</ele>
        <time>2013-05-24T19:17:25Z</time>
      </trkpt>
      <trkpt lat="59.9096349" lon="17.8431465">
        <ele>14.557</ele>
        <time>2013-05-24T19:17:26Z</time>
      </trkpt>
      <trkpt lat="59.9096951" lon="17.8432161">
        <ele>14.0764</ele>
        <time>2013-05-24T19:17:27Z</time>
      </trkpt>
      <trkpt lat="59.9097641" lon="17.8432861">
        <ele>15.999</ele>
        <time>2013-05-24T19:17:28Z</time>
      </trkpt>
      <trkpt lat="59.9098307" lon="17.843349">
        <ele>16.4797</ele>
        <time>2013-05-24T19:17:29Z</time>
      </trkpt>
      <trkpt lat="59.9099124" lon="17.8434106">
        <ele>18.8831</ele>
        <time>2013-05-24T19:17:30Z</time>
      </trkpt>
      <trkpt lat="59.9099934" lon="17.8434754">
        <ele>20.325</ele>
        <time>2013-05-24T19:17:31Z</time>
      </trkpt>
      <trkpt lat="59.9100846" lon="17.8435458">
        <ele>23.209</ele>
        <time>2013-05-24T19:17:32Z</time>
      </trkpt>
      <trkpt lat="59.9101811" lon="17.8436189">
        <ele>26.0929</ele>
        <time>2013-05-24T19:17:33Z</time>
      </trkpt>
      <trkpt lat="59.9102879" lon="17.8436834">
        <ele>29.9381</ele>
        <time>2013-05-24T19:17:34Z</time>
      </trkpt>
      <trkpt lat="59.9103733" lon="17.8437538">
        <ele>30.4188</ele>
        <time>2013-05-24T19:17:35Z</time>
      </trkpt>
      <trkpt lat="59.9104599" lon="17.8438155">
        <ele>30.4188</ele>
        <time>2013-05-24T19:17:36Z</time>
      </trkpt>
      <trkpt lat="59.9105427" lon="17.843881">
        <ele>30.8995</ele>
        <time>2013-05-24T19:17:37Z</time>
      </trkpt>
      <trkpt lat="59.9106261" lon="17.8439446">
        <ele>32.3416</ele>
        <time>2013-05-24T19:17:38Z</time>
      </trkpt>
      <trkpt lat="59.910716" lon="17.8440177">
        <ele>33.3029</ele>
        <time>2013-05-24T19:17:39Z</time>
      </trkpt>
      <trkpt lat="59.9107934" lon="17.8440887">
        <ele>32.8223</ele>
        <time>2013-05-24T19:17:40Z</time>
      </trkpt>
      <trkpt lat="59.9108805" lon="17.8441633">
        <ele>33.3029</ele>
        <time>2013-05-24T19:17:41Z</time>
      </trkpt>
      <trkpt lat="59.9109706" lon="17.8442327">
        <ele>33.7834</ele>
        <time>2013-05-24T19:17:42Z</time>
      </trkpt>
      <trkpt lat="59.9110595" lon="17.8442876">
        <ele>34.2642</ele>
        <time>2013-05-24T19:17:43Z</time>
      </trkpt>
      <trkpt lat="59.9111488" lon="17.8443266">
        <ele>34.7449</ele>
        <time>2013-05-24T19:17:44Z</time>
      </trkpt>
      <trkpt lat="59.9112363" lon="17.8443485">
        <ele>34.7449</ele>
        <time>2013-05-24T19:17:45Z</time>
      </trkpt>
      <trkpt lat="59.9113239" lon="17.8443751">
        <ele>34.7449</ele>
        <time>2013-05-24T19:17:46Z</time>
      </trkpt>
      <trkpt lat="59.9114082" lon="17.8443918">
        <ele>34.2642</ele>
        <time>2013-05-24T19:17:47Z</time>
      </trkpt>
      <trkpt lat="59.9114901" lon="17.8443953">
        <ele>33.3029</ele>
        <time>2013-05-24T19:17:48Z</time>
      </trkpt>
      <trkpt lat="59.9115724" lon="17.8443891">
        <ele>32.8223</ele>
        <time>2013-05-24T19:17:49Z</time>
      </trkpt>
      <trkpt lat="59.9116529" lon="17.8443845">
        <ele>32.8223</ele>
        <time>2013-05-24T19:17:50Z</time>
      </trkpt>
      <trkpt lat="59.9117316" lon="17.8443724">
        <ele>32.3416</ele>
        <time>2013-05-24T19:17:51Z</time>
      </trkpt>
      <trkpt lat="59.9118064" lon="17.8443504">
        <ele>30.4188</ele>
        <time>2013-05-24T19:17:52Z</time>
      </trkpt>
      <trkpt lat="59.911881" lon="17.8443192">
        <ele>29.4575</ele>
        <time>2013-05-24T19:17:53Z</time>
      </trkpt>
      <trkpt lat="59.9119538" lon="17.8442882">
        <ele>28.9769</ele>
        <time>2013-05-24T19:17:54Z</time>
      </trkpt>
      <trkpt lat="59.9120266" lon="17.8442529">
        <ele>28.9769</ele>
        <time>2013-05-24T19:17:55Z</time>
      </trkpt>
      <trkpt lat="59.9120962" lon="17.8442089">
        <ele>29.4575</ele>
        <time>2013-05-24T19:17:56Z</time>
      </trkpt>
      <trkpt lat="59.9121672" lon="17.8441679">
        <ele>29.9381</ele>
        <time>2013-05-24T19:17:57Z</time>
      </trkpt>
      <trkpt lat="59.9122243" lon="17.8441167">
        <ele>28.9769</ele>
        <time>2013-05-24T19:17:58Z</time>
      </trkpt>
      <trkpt lat="59.9122805" lon="17.8440574">
        <ele>28.9769</ele>
        <time>2013-05-24T19:17:59Z</time>
      </trkpt>
      <trkpt lat="59.9123351" lon="17.8439929">
        <ele>28.4962</ele>
        <time>2013-05-24T19:18:00Z</time>
      </trkpt>
      <trkpt lat="59.912391" lon="17.8439264">
        <ele>28.0155</ele>
        <time>2013-05-24T19:18:01Z</time>
      </trkpt>
      <trkpt lat="59.9124514" lon="17.8438592">
        <ele>28.9769</ele>
        <time>2013-05-24T19:18:02Z</time>
      </trkpt>
      <trkpt lat="59.9125066" lon="17.8437862">
        <ele>28.0155</ele>
        <time>2013-05-24T19:18:03Z</time>
      </trkpt>
      <trkpt lat="59.9125639" lon="17.8437199">
        <ele>28.0155</ele>
        <time>2013-05-24T19:18:04Z</time>
      </trkpt>
      <trkpt lat="59.9126214" lon="17.8436603">
        <ele>27.5349</ele>
        <time>2013-05-24T19:18:05Z</time>
      </trkpt>
      <trkpt lat="59.9126825" lon="17.843595">
        <ele>27.0543</ele>
        <time>2013-05-24T19:18:06Z</time>
      </trkpt>
      <trkpt lat="59.9127421" lon="17.8435411">
        <ele>26.5736</ele>
        <time>2013-05-24T19:18:07Z</time>
      </trkpt>
      <trkpt lat="59.9128007" lon="17.8434945">
        <ele>25.1317</ele>
        <time>2013-05-24T19:18:08Z</time>
      </trkpt>
      <trkpt lat="59.9128611" lon="17.843457">
        <ele>22.7283</ele>
        <time>2013-05-24T19:18:09Z</time>
      </trkpt>
      <trkpt lat="59.912931" lon="17.8434255">
        <ele>22.2476</ele>
        <time>2013-05-24T19:18:10Z</time>
      </trkpt>
      <trkpt lat="59.9130026" lon="17.8433921">
        <ele>20.8057</ele>
        <time>2013-05-24T19:18:11Z</time>
      </trkpt>
      <trkpt lat="59.9130675" lon="17.8433543">
        <ele>16.9604</ele>
        <time>2013-05-24T19:18:12Z</time>
      </trkpt>
      <trkpt lat="59.9131395" lon="17.8433231">
        <ele>15.0377</ele>
        <time>2013-05-24T19:18:13Z</time>
      </trkpt>
      <trkpt lat="59.9132094" lon="17.8432828">
        <ele>11.6732</ele>
        <time>2013-05-24T19:18:14Z</time>
      </trkpt>
      <trkpt lat="59.9132825" lon="17.8432474">
        <ele>8.78918</ele>
        <time>2013-05-24T19:18:15Z</time>
      </trkpt>
      <trkpt lat="59.9133582" lon="17.8432132">
        <ele>6.86646</ele>
        <time>2013-05-24T19:18:16Z</time>
      </trkpt>
      <trkpt lat="59.9134369" lon="17.8431847">
        <ele>6.38586</ele>
        <time>2013-05-24T19:18:17Z</time>
      </trkpt>
      <trkpt lat="59.9135156" lon="17.8431483">
        <ele>6.38586</ele>
        <time>2013-05-24T19:18:18Z</time>
      </trkpt>
      <trkpt lat="59.9135974" lon="17.8431054">
        <ele>6.86646</ele>
        <time>2013-05-24T19:18:19Z</time>
      </trkpt>
      <trkpt lat="59.913683" lon="17.8430573">
        <ele>8.30859</ele>
        <time>2013-05-24T19:18:20Z</time>
      </trkpt>
      <trkpt lat="59.9137611" lon="17.8429986">
        <ele>9.2699</ele>
        <time>2013-05-24T19:18:21Z</time>
      </trkpt>
      <trkpt lat="59.9138424" lon="17.8429323">
        <ele>10.7118</ele>
        <time>2013-05-24T19:18:22Z</time>
      </trkpt>
      <trkpt lat="59.9139178" lon="17.842866">
        <ele>11.1925</ele>
        <time>2013-05-24T19:18:23Z</time>
      </trkpt>
      <trkpt lat="59.9139915" lon="17.8427937">
        <ele>10.7118</ele>
        <time>2013-05-24T19:18:24Z</time>
      </trkpt>
      <trkpt lat="59.9140653" lon="17.8427118">
        <ele>10.7118</ele>
        <time>2013-05-24T19:18:25Z</time>
      </trkpt>
      <trkpt lat="59.9141387" lon="17.8426277">
        <ele>11.1925</ele>
        <time>2013-05-24T19:18:26Z</time>
      </trkpt>
      <trkpt lat="59.9142121" lon="17.8425486">
        <ele>10.7118</ele>
        <time>2013-05-24T19:18:27Z</time>
      </trkpt>
      <trkpt lat="59.9142963" lon="17.8424647">
        <ele>12.6344</ele>
        <time>2013-05-24T19:18:28Z</time>
      </trkpt>
      <trkpt lat="59.9143698" lon="17.8423833">
        <ele>11.6732</ele>
        <time>2013-05-24T19:18:29Z</time>
      </trkpt>
      <trkpt lat="59.9144438" lon="17.8423078">
        <ele>12.6344</ele>
        <time>2013-05-24T19:18:30Z</time>
      </trkpt>
      <trkpt lat="59.9145117" lon="17.8422345">
        <ele>14.0764</ele>
        <time>2013-05-24T19:18:31Z</time>
      </trkpt>
      <trkpt lat="59.9145793" lon="17.8421551">
        <ele>15.0377</ele>
        <time>2013-05-24T19:18:32Z</time>
      </trkpt>
      <trkpt lat="59.9146395" lon="17.8420817">
        <ele>15.0377</ele>
        <time>2013-05-24T19:18:33Z</time>
      </trkpt>
      <trkpt lat="59.9147095" lon="17.8420197">
        <ele>15.0377</ele>
        <time>2013-05-24T19:18:34Z</time>
      </trkpt>
      <trkpt lat="59.9147702" lon="17.8419712">
        <ele>14.0764</ele>
        <time>2013-05-24T19:18:35Z</time>
      </trkpt>
      <trkpt lat="59.9148423" lon="17.8419426">
        <ele>15.0377</ele>
        <time>2013-05-24T19:18:36Z</time>
      </trkpt>
      <trkpt lat="59.9149112" lon="17.8419193">
        <ele>14.557</ele>
        <time>2013-05-24T19:18:37Z</time>
      </trkpt>
      <trkpt lat="59.9149852" lon="17.8418909">
        <ele>15.5184</ele>
        <time>2013-05-24T19:18:38Z</time>
      </trkpt>
      <trkpt lat="59.9150498" lon="17.8418544">
        <ele>13.5958</ele>
        <time>2013-05-24T19:18:39Z</time>
      </trkpt>
      <trkpt lat="59.9151162" lon="17.8418207">
        <ele>11.6732</ele>
        <time>2013-05-24T19:18:40Z</time>
      </trkpt>
      <trkpt lat="59.9151833" lon="17.841814">
        <ele>11.1925</ele>
        <time>2013-05-24T19:18:41Z</time>
      </trkpt>
      <trkpt lat="59.915251" lon="17.8417978">
        <ele>10.7118</ele>
        <time>2013-05-24T19:18:42Z</time>
      </trkpt>
      <trkpt lat="59.9153259" lon="17.8418009">
        <ele>11.6732</ele>
        <time>2013-05-24T19:18:43Z</time>
      </trkpt>
      <trkpt lat="59.9153919" lon="17.8418037">
        <ele>11.6732</ele>
        <time>2013-05-24T19:18:44Z</time>
      </trkpt>
      <trkpt lat="59.9154541" lon="17.8417979">
        <ele>10.7118</ele>
        <time>2013-05-24T19:18:45Z</time>
      </trkpt>
      <trkpt lat="59.9155209" lon="17.8417997">
        <ele>10.7118</ele>
        <time>2013-05-24T19:18:46Z</time>
      </trkpt>
      <trkpt lat="59.9155835" lon="17.8417981">
        <ele>9.75061</ele>
        <time>2013-05-24T19:18:47Z</time>
      </trkpt>
      <trkpt lat="59.9156404" lon="17.8417876">
        <ele>8.30859</ele>
        <time>2013-05-24T19:18:48Z</time>
      </trkpt>
      <trkpt lat="59.9157089" lon="17.8417909">
        <ele>8.78918</ele>
        <time>2013-05-24T19:18:49Z</time>
      </trkpt>
      <trkpt lat="59.9157772" lon="17.841795">
        <ele>8.78918</ele>
        <time>2013-05-24T19:18:50Z</time>
      </trkpt>
      <trkpt lat="59.9158351" lon="17.8417855">
        <ele>6.86646</ele>
        <time>2013-05-24T19:18:51Z</time>
      </trkpt>
      <trkpt lat="59.9158956" lon="17.8417774">
        <ele>5.42456</ele>
        <time>2013-05-24T19:18:52Z</time>
      </trkpt>
      <trkpt lat="59.9159629" lon="17.8417887">
        <ele>4.94385</ele>
        <time>2013-05-24T19:18:53Z</time>
      </trkpt>
      <trkpt lat="59.9160248" lon="17.841825">
        <ele>4.46326</ele>
        <time>2013-05-24T19:18:54Z</time>
      </trkpt>
      <trkpt lat="59.9160891" lon="17.841885">
        <ele>5.42456</ele>
        <time>2013-05-24T19:18:55Z</time>
      </trkpt>
      <trkpt lat="59.9161507" lon="17.841957">
        <ele>6.38586</ele>
        <time>2013-05-24T19:18:56Z</time>
      </trkpt>
      <trkpt lat="59.916207" lon="17.8420254">
        <ele>5.42456</ele>
        <time>2013-05-24T19:18:57Z</time>
      </trkpt>
      <trkpt lat="59.9162584" lon="17.8421038">
        <ele>4.94385</ele>
        <time>2013-05-24T19:18:58Z</time>
      </trkpt>
      <trkpt lat="59.9163071" lon="17.8421865">
        <ele>5.42456</ele>
        <time>2013-05-24T19:18:59Z</time>
      </trkpt>
      <trkpt lat="59.9163698" lon="17.8422827">
        <ele>9.2699</ele>
        <time>2013-05-24T19:19:00Z</time>
      </trkpt>
      <trkpt lat="59.9164144" lon="17.8423689">
        <ele>9.75061</ele>
        <time>2013-05-24T19:19:01Z</time>
      </trkpt>
      <trkpt lat="59.9164531" lon="17.8424524">
        <ele>9.75061</ele>
        <time>2013-05-24T19:19:02Z</time>
      </trkpt>
      <trkpt lat="59.9164962" lon="17.8425299">
        <ele>9.75061</ele>
        <time>2013-05-24T19:19:03Z</time>
      </trkpt>
      <trkpt lat="59.9165424" lon="17.8426066">
        <ele>9.75061</ele>
        <time>2013-05-24T19:19:04Z</time>
      </trkpt>
      <trkpt lat="59.9165872" lon="17.8426819">
        <ele>9.2699</ele>
        <time>2013-05-24T19:19:05Z</time>
      </trkpt>
      <trkpt lat="59.9166428" lon="17.8427595">
        <ele>11.1925</ele>
        <time>2013-05-24T19:19:06Z</time>
      </trkpt>
      <trkpt lat="59.9166937" lon="17.8428298">
        <ele>12.1538</ele>
        <time>2013-05-24T19:19:07Z</time>
      </trkpt>
      <trkpt lat="59.9167346" lon="17.842894">
        <ele>12.6344</ele>
        <time>2013-05-24T19:19:08Z</time>
      </trkpt>
      <trkpt lat="59.9167794" lon="17.8429479">
        <ele>13.1151</ele>
        <time>2013-05-24T19:19:09Z</time>
      </trkpt>
      <trkpt lat="59.9168281" lon="17.842988">
        <ele>14.0764</ele>
        <time>2013-05-24T19:19:10Z</time>
      </trkpt>
      <trkpt lat="59.9168764" lon="17.8430086">
        <ele>14.557</ele>
        <time>2013-05-24T19:19:11Z</time>
      </trkpt>
      <trkpt lat="59.9169302" lon="17.8430136">
        <ele>15.5184</ele>
        <time>2013-05-24T19:19:12Z</time>
      </trkpt>
      <trkpt lat="59.916983" lon="17.8429999">
        <ele>15.0377</ele>
        <time>2013-05-24T19:19:13Z</time>
      </trkpt>
      <trkpt lat="59.9170389" lon="17.8429837">
        <ele>15.5184</ele>
        <time>2013-05-24T19:19:14Z</time>
      </trkpt>
      <trkpt lat="59.9170917" lon="17.8429511">
        <ele>14.557</ele>
        <time>2013-05-24T19:19:15Z</time>
      </trkpt>
      <trkpt lat="59.9171544" lon="17.8429299">
        <ele>16.9604</ele>
        <time>2013-05-24T19:19:16Z</time>
      </trkpt>
      <trkpt lat="59.9172196" lon="17.8428989">
        <ele>19.3638</ele>
        <time>2013-05-24T19:19:17Z</time>
      </trkpt>
      <trkpt lat="59.9172773" lon="17.8428554">
        <ele>20.8057</ele>
        <time>2013-05-24T19:19:18Z</time>
      </trkpt>
      <trkpt lat="59.9173358" lon="17.8428116">
        <ele>21.767</ele>
        <time>2013-05-24T19:19:19Z</time>
      </trkpt>
      <trkpt lat="59.9173929" lon="17.8427667">
        <ele>22.7283</ele>
        <time>2013-05-24T19:19:20Z</time>
      </trkpt>
      <trkpt lat="59.9174488" lon="17.8427243">
        <ele>23.209</ele>
        <time>2013-05-24T19:19:21Z</time>
      </trkpt>
      <trkpt lat="59.9175099" lon="17.8426836">
        <ele>25.1317</ele>
        <time>2013-05-24T19:19:22Z</time>
      </trkpt>
      <trkpt lat="59.9175705" lon="17.842645">
        <ele>26.5736</ele>
        <time>2013-05-24T19:19:23Z</time>
      </trkpt>
      <trkpt lat="59.9176201" lon="17.8425956">
        <ele>27.0543</ele>
        <time>2013-05-24T19:19:24Z</time>
      </trkpt>
      <trkpt lat="59.9176741" lon="17.8425476">
        <ele>28.0155</ele>
        <time>2013-05-24T19:19:25Z</time>
      </trkpt>
      <trkpt lat="59.9177327" lon="17.842499">
        <ele>29.4575</ele>
        <time>2013-05-24T19:19:26Z</time>
      </trkpt>
      <trkpt lat="59.917791" lon="17.8424466">
        <ele>29.9381</ele>
        <time>2013-05-24T19:19:27Z</time>
      </trkpt>
      <trkpt lat="59.9178578" lon="17.842388">
        <ele>32.8223</ele>
        <time>2013-05-24T19:19:28Z</time>
      </trkpt>
      <trkpt lat="59.91792" lon="17.8423274">
        <ele>33.7834</ele>
        <time>2013-05-24T19:19:29Z</time>
      </trkpt>
      <trkpt lat="59.9179868" lon="17.8422678">
        <ele>35.2255</ele>
        <time>2013-05-24T19:19:30Z</time>
      </trkpt>
      <trkpt lat="59.9180536" lon="17.8422057">
        <ele>36.6675</ele>
        <time>2013-05-24T19:19:31Z</time>
      </trkpt>
      <trkpt lat="59.9181199" lon="17.8421405">
        <ele>37.1481</ele>
        <time>2013-05-24T19:19:32Z</time>
      </trkpt>
      <trkpt lat="59.9181849" lon="17.8420778">
        <ele>37.1481</ele>
        <time>2013-05-24T19:19:33Z</time>
      </trkpt>
      <trkpt lat="59.9182555" lon="17.8420169">
        <ele>38.1094</ele>
        <time>2013-05-24T19:19:34Z</time>
      </trkpt>
      <trkpt lat="59.9183207" lon="17.8419556">
        <ele>38.1094</ele>
        <time>2013-05-24T19:19:35Z</time>
      </trkpt>
      <trkpt lat="59.9183885" lon="17.8418882">
        <ele>38.1094</ele>
        <time>2013-05-24T19:19:36Z</time>
      </trkpt>
      <trkpt lat="59.9184572" lon="17.8418208">
        <ele>37.6287</ele>
        <time>2013-05-24T19:19:37Z</time>
      </trkpt>
      <trkpt lat="59.918525" lon="17.8417526">
        <ele>37.1481</ele>
        <time>2013-05-24T19:19:38Z</time>
      </trkpt>
      <trkpt lat="59.9185937" lon="17.8416909">
        <ele>36.6675</ele>
        <time>2013-05-24T19:19:39Z</time>
      </trkpt>
      <trkpt lat="59.9186624" lon="17.8416305">
        <ele>36.1868</ele>
        <time>2013-05-24T19:19:40Z</time>
      </trkpt>
      <trkpt lat="59.9187323" lon="17.8415748">
        <ele>35.7061</ele>
        <time>2013-05-24T19:19:41Z</time>
      </trkpt>
      <trkpt lat="59.9187987" lon="17.8415244">
        <ele>34.7449</ele>
        <time>2013-05-24T19:19:42Z</time>
      </trkpt>
      <trkpt lat="59.9188701" lon="17.8414681">
        <ele>35.2255</ele>
        <time>2013-05-24T19:19:43Z</time>
      </trkpt>
      <trkpt lat="59.9189379" lon="17.8414238">
        <ele>34.7449</ele>
        <time>2013-05-24T19:19:44Z</time>
      </trkpt>
      <trkpt lat="59.9190085" lon="17.8413743">
        <ele>34.2642</ele>
        <time>2013-05-24T19:19:45Z</time>
      </trkpt>
      <trkpt lat="59.9190795" lon="17.8413219">
        <ele>34.7449</ele>
        <time>2013-05-24T19:19:46Z</time>
      </trkpt>
      <trkpt lat="59.9191525" lon="17.8412731">
        <ele>34.7449</ele>
        <time>2013-05-24T19:19:47Z</time>
      </trkpt>
      <trkpt lat="59.9192221" lon="17.8412229">
        <ele>34.7449</ele>
        <time>2013-05-24T19:19:48Z</time>
      </trkpt>
      <trkpt lat="59.9192939" lon="17.8411707">
        <ele>35.2255</ele>
        <time>2013-05-24T19:19:49Z</time>
      </trkpt>
      <trkpt lat="59.9193686" lon="17.8411249">
        <ele>35.7061</ele>
        <time>2013-05-24T19:19:50Z</time>
      </trkpt>
      <trkpt lat="59.9194416" lon="17.8410812">
        <ele>36.1868</ele>
        <time>2013-05-24T19:19:51Z</time>
      </trkpt>
      <trkpt lat="59.9195125" lon="17.8410386">
        <ele>35.7061</ele>
        <time>2013-05-24T19:19:52Z</time>
      </trkpt>
      <trkpt lat="59.9195899" lon="17.8409941">
        <ele>36.6675</ele>
        <time>2013-05-24T19:19:53Z</time>
      </trkpt>
      <trkpt lat="59.9196567" lon="17.8409392">
        <ele>36.1868</ele>
        <time>2013-05-24T19:19:54Z</time>
      </trkpt>
      <trkpt lat="59.9197222" lon="17.8408988">
        <ele>35.2255</ele>
        <time>2013-05-24T19:19:55Z</time>
      </trkpt>
      <trkpt lat="59.9197891" lon="17.8408702">
        <ele>34.7449</ele>
        <time>2013-05-24T19:19:56Z</time>
      </trkpt>
      <trkpt lat="59.9198507" lon="17.8408438">
        <ele>32.8223</ele>
        <time>2013-05-24T19:19:57Z</time>
      </trkpt>
      <trkpt lat="59.9199156" lon="17.8408257">
        <ele>32.3416</ele>
        <time>2013-05-24T19:19:58Z</time>
      </trkpt>
      <trkpt lat="59.9199876" lon="17.8408102">
        <ele>32.3416</ele>
        <time>2013-05-24T19:19:59Z</time>
      </trkpt>
      <trkpt lat="59.9200614" lon="17.8408079">
        <ele>32.8223</ele>
        <time>2013-05-24T19:20:00Z</time>
      </trkpt>
      <trkpt lat="59.9201342" lon="17.8408108">
        <ele>33.7834</ele>
        <time>2013-05-24T19:20:01Z</time>
      </trkpt>
      <trkpt lat="59.9202051" lon="17.8408141">
        <ele>33.7834</ele>
        <time>2013-05-24T19:20:02Z</time>
      </trkpt>
      <trkpt lat="59.9202681" lon="17.8408148">
        <ele>32.8223</ele>
        <time>2013-05-24T19:20:03Z</time>
      </trkpt>
      <trkpt lat="59.9203361" lon="17.8408153">
        <ele>32.8223</ele>
        <time>2013-05-24T19:20:04Z</time>
      </trkpt>
      <trkpt lat="59.9203966" lon="17.8408085">
        <ele>31.8607</ele>
        <time>2013-05-24T19:20:05Z</time>
      </trkpt>
      <trkpt lat="59.9204641" lon="17.8408112">
        <ele>31.8607</ele>
        <time>2013-05-24T19:20:06Z</time>
      </trkpt>
      <trkpt lat="59.9205292" lon="17.8408121">
        <ele>31.8607</ele>
        <time>2013-05-24T19:20:07Z</time>
      </trkpt>
      <trkpt lat="59.9205969" lon="17.8408133">
        <ele>31.3801</ele>
        <time>2013-05-24T19:20:08Z</time>
      </trkpt>
      <trkpt lat="59.9206678" lon="17.8408167">
        <ele>31.3801</ele>
        <time>2013-05-24T19:20:09Z</time>
      </trkpt>
      <trkpt lat="59.9207412" lon="17.8408248">
        <ele>31.3801</ele>
        <time>2013-05-24T19:20:10Z</time>
      </trkpt>
      <trkpt lat="59.9208116" lon="17.8408225">
        <ele>30.8995</ele>
        <time>2013-05-24T19:20:11Z</time>
      </trkpt>
      <trkpt lat="59.9208822" lon="17.8408235">
        <ele>30.4188</ele>
        <time>2013-05-24T19:20:12Z</time>
      </trkpt>
      <trkpt lat="59.920953" lon="17.8408205">
        <ele>29.9381</ele>
        <time>2013-05-24T19:20:13Z</time>
      </trkpt>
      <trkpt lat="59.9210246" lon="17.8408158">
        <ele>29.4575</ele>
        <time>2013-05-24T19:20:14Z</time>
      </trkpt>
      <trkpt lat="59.9210962" lon="17.8408122">
        <ele>29.4575</ele>
        <time>2013-05-24T19:20:15Z</time>
      </trkpt>
      <trkpt lat="59.9211676" lon="17.8408081">
        <ele>28.9769</ele>
        <time>2013-05-24T19:20:16Z</time>
      </trkpt>
      <trkpt lat="59.9212401" lon="17.840805">
        <ele>28.4962</ele>
        <time>2013-05-24T19:20:17Z</time>
      </trkpt>
      <trkpt lat="59.921313" lon="17.8408004">
        <ele>28.4962</ele>
        <time>2013-05-24T19:20:18Z</time>
      </trkpt>
      <trkpt lat="59.9213877" lon="17.8407955">
        <ele>28.4962</ele>
        <time>2013-05-24T19:20:19Z</time>
      </trkpt>
      <trkpt lat="59.9214581" lon="17.8407815">
        <ele>28.0155</ele>
        <time>2013-05-24T19:20:20Z</time>
      </trkpt>
      <trkpt lat="59.9215293" lon="17.8407693">
        <ele>27.5349</ele>
        <time>2013-05-24T19:20:21Z</time>
      </trkpt>
      <trkpt lat="59.9215991" lon="17.8407535">
        <ele>27.5349</ele>
        <time>2013-05-24T19:20:22Z</time>
      </trkpt>
      <trkpt lat="59.9216681" lon="17.8407334">
        <ele>27.0543</ele>
        <time>2013-05-24T19:20:23Z</time>
      </trkpt>
      <trkpt lat="59.9217379" lon="17.8407137">
        <ele>26.5736</ele>
        <time>2013-05-24T19:20:24Z</time>
      </trkpt>
      <trkpt lat="59.92181" lon="17.8407">
        <ele>26.5736</ele>
        <time>2013-05-24T19:20:25Z</time>
      </trkpt>
      <trkpt lat="59.9218812" lon="17.8406885">
        <ele>27.0543</ele>
        <time>2013-05-24T19:20:26Z</time>
      </trkpt>
      <trkpt lat="59.9219504" lon="17.8406719">
        <ele>27.0543</ele>
        <time>2013-05-24T19:20:27Z</time>
      </trkpt>
      <trkpt lat="59.922014" lon="17.8406481">
        <ele>26.5736</ele>
        <time>2013-05-24T19:20:28Z</time>
      </trkpt>
      <trkpt lat="59.9220734" lon="17.8406192">
        <ele>25.1317</ele>
        <time>2013-05-24T19:20:29Z</time>
      </trkpt>
      <trkpt lat="59.9221309" lon="17.8405952">
        <ele>24.1703</ele>
        <time>2013-05-24T19:20:30Z</time>
      </trkpt>
      <trkpt lat="59.9221863" lon="17.8405672">
        <ele>21.767</ele>
        <time>2013-05-24T19:20:31Z</time>
      </trkpt>
      <trkpt lat="59.922243" lon="17.8405424">
        <ele>20.8057</ele>
        <time>2013-05-24T19:20:32Z</time>
      </trkpt>
      <trkpt lat="59.9223003" lon="17.8405174">
        <ele>19.8444</ele>
        <time>2013-05-24T19:20:33Z</time>
      </trkpt>
      <trkpt lat="59.9223606" lon="17.8404943">
        <ele>19.8444</ele>
        <time>2013-05-24T19:20:34Z</time>
      </trkpt>
      <trkpt lat="59.9224211" lon="17.8404693">
        <ele>19.3638</ele>
        <time>2013-05-24T19:20:35Z</time>
      </trkpt>
      <trkpt lat="59.9224829" lon="17.8404423">
        <ele>19.8444</ele>
        <time>2013-05-24T19:20:36Z</time>
      </trkpt>
      <trkpt lat="59.9225453" lon="17.8404117">
        <ele>19.8444</ele>
        <time>2013-05-24T19:20:37Z</time>
      </trkpt>
      <trkpt lat="59.9226067" lon="17.8403797">
        <ele>20.325</ele>
        <time>2013-05-24T19:20:38Z</time>
      </trkpt>
      <trkpt lat="59.9226671" lon="17.8403477">
        <ele>20.8057</ele>
        <time>2013-05-24T19:20:39Z</time>
      </trkpt>
      <trkpt lat="59.9227273" lon="17.8403156">
        <ele>21.2864</ele>
        <time>2013-05-24T19:20:40Z</time>
      </trkpt>
      <trkpt lat="59.9227885" lon="17.8402839">
        <ele>21.767</ele>
        <time>2013-05-24T19:20:41Z</time>
      </trkpt>
      <trkpt lat="59.9228517" lon="17.8402517">
        <ele>22.7283</ele>
        <time>2013-05-24T19:20:42Z</time>
      </trkpt>
      <trkpt lat="59.9229158" lon="17.8402192">
        <ele>23.209</ele>
        <time>2013-05-24T19:20:43Z</time>
      </trkpt>
      <trkpt lat="59.9229804" lon="17.8401855">
        <ele>23.6896</ele>
        <time>2013-05-24T19:20:44Z</time>
      </trkpt>
      <trkpt lat="59.9230467" lon="17.8401523">
        <ele>24.651</ele>
        <time>2013-05-24T19:20:45Z</time>
      </trkpt>
      <trkpt lat="59.9231138" lon="17.8401181">
        <ele>25.6123</ele>
        <time>2013-05-24T19:20:46Z</time>
      </trkpt>
      <trkpt lat="59.9231793" lon="17.8400834">
        <ele>26.0929</ele>
        <time>2013-05-24T19:20:47Z</time>
      </trkpt>
      <trkpt lat="59.9232441" lon="17.8400483">
        <ele>26.0929</ele>
        <time>2013-05-24T19:20:48Z</time>
      </trkpt>
      <trkpt lat="59.9233114" lon="17.8400143">
        <ele>26.5736</ele>
        <time>2013-05-24T19:20:49Z</time>
      </trkpt>
      <trkpt lat="59.9233795" lon="17.8399793">
        <ele>27.0543</ele>
        <time>2013-05-24T19:20:50Z</time>
      </trkpt>
      <trkpt lat="59.9234482" lon="17.8399439">
        <ele>27.5349</ele>
        <time>2013-05-24T19:20:51Z</time>
      </trkpt>
      <trkpt lat="59.9235173" lon="17.8399093">
        <ele>28.0155</ele>
        <time>2013-05-24T19:20:52Z</time>
      </trkpt>
      <trkpt lat="59.9235863" lon="17.8398766">
        <ele>28.4962</ele>
        <time>2013-05-24T19:20:53Z</time>
      </trkpt>
      <trkpt lat="59.923655" lon="17.8398453">
        <ele>28.9769</ele>
        <time>2013-05-24T19:20:54Z</time>
      </trkpt>
      <trkpt lat="59.923724" lon="17.8398151">
        <ele>29.4575</ele>
        <time>2013-05-24T19:20:55Z</time>
      </trkpt>
      <trkpt lat="59.9237925" lon="17.8397848">
        <ele>29.9381</ele>
        <time>2013-05-24T19:20:56Z</time>
      </trkpt>
      <trkpt lat="59.9238602" lon="17.8397549">
        <ele>30.4188</ele>
        <time>2013-05-24T19:20:57Z</time>
      </trkpt>
      <trkpt lat="59.9239279" lon="17.8397243">
        <ele>29.4575</ele>
        <time>2013-05-24T19:20:58Z</time>
      </trkpt>
      <trkpt lat="59.9239968" lon="17.8396949">
        <ele>28.9769</ele>
        <time>2013-05-24T19:20:59Z</time>
      </trkpt>
      <trkpt lat="59.9240659" lon="17.8396649">
        <ele>28.0155</ele>
        <time>2013-05-24T19:21:00Z</time>
      </trkpt>
      <trkpt lat="59.9241353" lon="17.8396347">
        <ele>27.5349</ele>
        <time>2013-05-24T19:21:01Z</time>
      </trkpt>
      <trkpt lat="59.9242052" lon="17.839612">
        <ele>27.5349</ele>
        <time>2013-05-24T19:21:02Z</time>
      </trkpt>
      <trkpt lat="59.924274" lon="17.8395937">
        <ele>28.0155</ele>
        <time>2013-05-24T19:21:03Z</time>
      </trkpt>
      <trkpt lat="59.9243475" lon="17.8395731">
        <ele>28.0155</ele>
        <time>2013-05-24T19:21:04Z</time>
      </trkpt>
      <trkpt lat="59.9244189" lon="17.8395597">
        <ele>28.4962</ele>
        <time>2013-05-24T19:21:05Z</time>
      </trkpt>
      <trkpt lat="59.9244894" lon="17.8395531">
        <ele>28.9769</ele>
        <time>2013-05-24T19:21:06Z</time>
      </trkpt>
      <trkpt lat="59.9245585" lon="17.83954">
        <ele>28.9769</ele>
        <time>2013-05-24T19:21:07Z</time>
      </trkpt>
      <trkpt lat="59.9246267" lon="17.839526">
        <ele>29.4575</ele>
        <time>2013-05-24T19:21:08Z</time>
      </trkpt>
      <trkpt lat="59.9246942" lon="17.8395146">
        <ele>29.4575</ele>
        <time>2013-05-24T19:21:09Z</time>
      </trkpt>
      <trkpt lat="59.9247615" lon="17.8395063">
        <ele>29.4575</ele>
        <time>2013-05-24T19:21:10Z</time>
      </trkpt>
      <trkpt lat="59.924828" lon="17.839499">
        <ele>29.4575</ele>
        <time>2013-05-24T19:21:11Z</time>
      </trkpt>
      <trkpt lat="59.9248929" lon="17.8394908">
        <ele>28.9769</ele>
        <time>2013-05-24T19:21:12Z</time>
      </trkpt>
      <trkpt lat="59.9249572" lon="17.8394861">
        <ele>28.4962</ele>
        <time>2013-05-24T19:21:13Z</time>
      </trkpt>
      <trkpt lat="59.9250201" lon="17.839482">
        <ele>28.4962</ele>
        <time>2013-05-24T19:21:14Z</time>
      </trkpt>
      <trkpt lat="59.9250825" lon="17.8394773">
        <ele>28.4962</ele>
        <time>2013-05-24T19:21:15Z</time>
      </trkpt>
      <trkpt lat="59.9251447" lon="17.8394749">
        <ele>28.4962</ele>
        <time>2013-05-24T19:21:16Z</time>
      </trkpt>
      <trkpt lat="59.9252068" lon="17.8394775">
        <ele>28.4962</ele>
        <time>2013-05-24T19:21:17Z</time>
      </trkpt>
      <trkpt lat="59.9252661" lon="17.8394741">
        <ele>28.0155</ele>
        <time>2013-05-24T19:21:18Z</time>
      </trkpt>
      <trkpt lat="59.9253276" lon="17.8394717">
        <ele>28.0155</ele>
        <time>2013-05-24T19:21:19Z</time>
      </trkpt>
      <trkpt lat="59.9253902" lon="17.8394721">
        <ele>28.0155</ele>
        <time>2013-05-24T19:21:20Z</time>
      </trkpt>
      <trkpt lat="59.9254531" lon="17.8394762">
        <ele>27.5349</ele>
        <time>2013-05-24T19:21:21Z</time>
      </trkpt>
      <trkpt lat="59.9255174" lon="17.8394819">
        <ele>27.5349</ele>
        <time>2013-05-24T19:21:22Z</time>
      </trkpt>
      <trkpt lat="59.9255821" lon="17.8394891">
        <ele>27.5349</ele>
        <time>2013-05-24T19:21:23Z</time>
      </trkpt>
      <trkpt lat="59.9256482" lon="17.8394965">
        <ele>27.5349</ele>
        <time>2013-05-24T19:21:24Z</time>
      </trkpt>
      <trkpt lat="59.9257145" lon="17.839496">
        <ele>27.5349</ele>
        <time>2013-05-24T19:21:25Z</time>
      </trkpt>
      <trkpt lat="59.9257777" lon="17.839481">
        <ele>27.5349</ele>
        <time>2013-05-24T19:21:26Z</time>
      </trkpt>
      <trkpt lat="59.9258406" lon="17.8394352">
        <ele>27.5349</ele>
        <time>2013-05-24T19:21:27Z</time>
      </trkpt>
      <trkpt lat="59.9259068" lon="17.839373">
        <ele>28.4962</ele>
        <time>2013-05-24T19:21:28Z</time>
      </trkpt>
      <trkpt lat="59.9259637" lon="17.8392943">
        <ele>28.4962</ele>
        <time>2013-05-24T19:21:29Z</time>
      </trkpt>
      <trkpt lat="59.9260136" lon="17.8392116">
        <ele>27.5349</ele>
        <time>2013-05-24T19:21:30Z</time>
      </trkpt>
      <trkpt lat="59.9260588" lon="17.8391215">
        <ele>26.5736</ele>
        <time>2013-05-24T19:21:31Z</time>
      </trkpt>
      <trkpt lat="59.9260975" lon="17.839023">
        <ele>25.1317</ele>
        <time>2013-05-24T19:21:32Z</time>
      </trkpt>
      <trkpt lat="59.9261332" lon="17.8389168">
        <ele>24.1703</ele>
        <time>2013-05-24T19:21:33Z</time>
      </trkpt>
      <trkpt lat="59.9261705" lon="17.8388134">
        <ele>23.209</ele>
        <time>2013-05-24T19:21:34Z</time>
      </trkpt>
      <trkpt lat="59.9262129" lon="17.8387247">
        <ele>23.6896</ele>
        <time>2013-05-24T19:21:35Z</time>
      </trkpt>
      <trkpt lat="59.9262586" lon="17.8386299">
        <ele>24.651</ele>
        <time>2013-05-24T19:21:36Z</time>
      </trkpt>
      <trkpt lat="59.926301" lon="17.8385375">
        <ele>24.651</ele>
        <time>2013-05-24T19:21:37Z</time>
      </trkpt>
      <trkpt lat="59.9263425" lon="17.8384473">
        <ele>25.1317</ele>
        <time>2013-05-24T19:21:38Z</time>
      </trkpt>
      <trkpt lat="59.9263858" lon="17.8383547">
        <ele>25.6123</ele>
        <time>2013-05-24T19:21:39Z</time>
      </trkpt>
      <trkpt lat="59.9264276" lon="17.8382617">
        <ele>26.0929</ele>
        <time>2013-05-24T19:21:40Z</time>
      </trkpt>
      <trkpt lat="59.9264689" lon="17.8381712">
        <ele>26.5736</ele>
        <time>2013-05-24T19:21:41Z</time>
      </trkpt>
      <trkpt lat="59.9265068" lon="17.8380787">
        <ele>25.6123</ele>
        <time>2013-05-24T19:21:42Z</time>
      </trkpt>
      <trkpt lat="59.9265476" lon="17.8380115">
        <ele>25.6123</ele>
        <time>2013-05-24T19:21:43Z</time>
      </trkpt>
      <trkpt lat="59.9265882" lon="17.8379503">
        <ele>24.651</ele>
        <time>2013-05-24T19:21:44Z</time>
      </trkpt>
      <trkpt lat="59.9266289" lon="17.8378923">
        <ele>24.1703</ele>
        <time>2013-05-24T19:21:45Z</time>
      </trkpt>
      <trkpt lat="59.9266744" lon="17.8378368">
        <ele>23.6896</ele>
        <time>2013-05-24T19:21:46Z</time>
      </trkpt>
      <trkpt lat="59.9267264" lon="17.8378016">
        <ele>25.1317</ele>
        <time>2013-05-24T19:21:47Z</time>
      </trkpt>
      <trkpt lat="59.9267677" lon="17.8377752">
        <ele>25.6123</ele>
        <time>2013-05-24T19:21:48Z</time>
      </trkpt>
      <trkpt lat="59.9268036" lon="17.8377616">
        <ele>26.0929</ele>
        <time>2013-05-24T19:21:49Z</time>
      </trkpt>
      <trkpt lat="59.9268414" lon="17.8377524">
        <ele>26.5736</ele>
        <time>2013-05-24T19:21:50Z</time>
      </trkpt>
      <trkpt lat="59.9268808" lon="17.8377325">
        <ele>26.0929</ele>
        <time>2013-05-24T19:21:51Z</time>
      </trkpt>
      <trkpt lat="59.9269237" lon="17.8376985">
        <ele>25.6123</ele>
        <time>2013-05-24T19:21:52Z</time>
      </trkpt>
      <trkpt lat="59.926964" lon="17.8376478">
        <ele>24.1703</ele>
        <time>2013-05-24T19:21:53Z</time>
      </trkpt>
      <trkpt lat="59.9270425" lon="17.8375753">
        <ele>29.4575</ele>
        <time>2013-05-24T19:21:54Z</time>
      </trkpt>
      <trkpt lat="59.9271062" lon="17.8375049">
        <ele>33.3029</ele>
        <time>2013-05-24T19:21:55Z</time>
      </trkpt>
      <trkpt lat="59.9271774" lon="17.8374457">
        <ele>37.1481</ele>
        <time>2013-05-24T19:21:56Z</time>
      </trkpt>
      <trkpt lat="59.9272236" lon="17.8373855">
        <ele>37.1481</ele>
        <time>2013-05-24T19:21:57Z</time>
      </trkpt>
      <trkpt lat="59.9272688" lon="17.8373049">
        <ele>36.1868</ele>
        <time>2013-05-24T19:21:58Z</time>
      </trkpt>
      <trkpt lat="59.9273134" lon="17.8372214">
        <ele>35.7061</ele>
        <time>2013-05-24T19:21:59Z</time>
      </trkpt>
      <trkpt lat="59.9273598" lon="17.8371447">
        <ele>35.2255</ele>
        <time>2013-05-24T19:22:00Z</time>
      </trkpt>
      <trkpt lat="59.9273963" lon="17.8370826">
        <ele>33.7834</ele>
        <time>2013-05-24T19:22:01Z</time>
      </trkpt>
      <trkpt lat="59.9274353" lon="17.8370394">
        <ele>31.8607</ele>
        <time>2013-05-24T19:22:02Z</time>
      </trkpt>
      <trkpt lat="59.9274622" lon="17.8369869">
        <ele>28.0155</ele>
        <time>2013-05-24T19:22:03Z</time>
      </trkpt>
      <trkpt lat="59.927504" lon="17.8369374">
        <ele>26.5736</ele>
        <time>2013-05-24T19:22:04Z</time>
      </trkpt>
      <trkpt lat="59.9275499" lon="17.8368771">
        <ele>26.0929</ele>
        <time>2013-05-24T19:22:05Z</time>
      </trkpt>
      <trkpt lat="59.9276106" lon="17.8368265">
        <ele>28.4962</ele>
        <time>2013-05-24T19:22:06Z</time>
      </trkpt>
      <trkpt lat="59.9276609" lon="17.8367536">
        <ele>28.4962</ele>
        <time>2013-05-24T19:22:07Z</time>
      </trkpt>
      <trkpt lat="59.9277104" lon="17.8366719">
        <ele>28.9769</ele>
        <time>2013-05-24T19:22:08Z</time>
      </trkpt>
      <trkpt lat="59.927766" lon="17.8365864">
        <ele>31.3801</ele>
        <time>2013-05-24T19:22:09Z</time>
      </trkpt>
      <trkpt lat="59.927822" lon="17.8364899">
        <ele>32.8223</ele>
        <time>2013-05-24T19:22:10Z</time>
      </trkpt>
      <trkpt lat="59.9278769" lon="17.8363771">
        <ele>31.3801</ele>
        <time>2013-05-24T19:22:11Z</time>
      </trkpt>
      <trkpt lat="59.9279367" lon="17.8362906">
        <ele>31.3801</ele>
        <time>2013-05-24T19:22:12Z</time>
      </trkpt>
      <trkpt lat="59.927999" lon="17.8361981">
        <ele>30.4188</ele>
        <time>2013-05-24T19:22:13Z</time>
      </trkpt>
      <trkpt lat="59.9280544" lon="17.8361039">
        <ele>30.4188</ele>
        <time>2013-05-24T19:22:14Z</time>
      </trkpt>
      <trkpt lat="59.9281079" lon="17.8360305">
        <ele>30.4188</ele>
        <time>2013-05-24T19:22:15Z</time>
      </trkpt>
      <trkpt lat="59.9281693" lon="17.8359509">
        <ele>30.8995</ele>
        <time>2013-05-24T19:22:16Z</time>
      </trkpt>
      <trkpt lat="59.928226" lon="17.8358824">
        <ele>31.3801</ele>
        <time>2013-05-24T19:22:17Z</time>
      </trkpt>
      <trkpt lat="59.9282825" lon="17.8358105">
        <ele>31.3801</ele>
        <time>2013-05-24T19:22:18Z</time>
      </trkpt>
      <trkpt lat="59.9283394" lon="17.8357322">
        <ele>31.3801</ele>
        <time>2013-05-24T19:22:19Z</time>
      </trkpt>
      <trkpt lat="59.9283988" lon="17.8356459">
        <ele>31.8607</ele>
        <time>2013-05-24T19:22:20Z</time>
      </trkpt>
      <trkpt lat="59.9284617" lon="17.8355617">
        <ele>33.3029</ele>
        <time>2013-05-24T19:22:21Z</time>
      </trkpt>
      <trkpt lat="59.9285249" lon="17.8354751">
        <ele>34.2642</ele>
        <time>2013-05-24T19:22:22Z</time>
      </trkpt>
      <trkpt lat="59.9285815" lon="17.8353934">
        <ele>34.2642</ele>
        <time>2013-05-24T19:22:23Z</time>
      </trkpt>
      <trkpt lat="59.92864" lon="17.8353089">
        <ele>34.7449</ele>
        <time>2013-05-24T19:22:24Z</time>
      </trkpt>
      <trkpt lat="59.9286984" lon="17.8352272">
        <ele>34.7449</ele>
        <time>2013-05-24T19:22:25Z</time>
      </trkpt>
      <trkpt lat="59.9287581" lon="17.8351383">
        <ele>34.7449</ele>
        <time>2013-05-24T19:22:26Z</time>
      </trkpt>
      <trkpt lat="59.9288194" lon="17.835049">
        <ele>34.7449</ele>
        <time>2013-05-24T19:22:27Z</time>
      </trkpt>
      <trkpt lat="59.9288811" lon="17.8349681">
        <ele>35.2255</ele>
        <time>2013-05-24T19:22:28Z</time>
      </trkpt>
      <trkpt lat="59.9289414" lon="17.8348883">
        <ele>34.7449</ele>
        <time>2013-05-24T19:22:29Z</time>
      </trkpt>
      <trkpt lat="59.9290016" lon="17.8348142">
        <ele>34.7449</ele>
        <time>2013-05-24T19:22:30Z</time>
      </trkpt>
      <trkpt lat="59.929064" lon="17.8347428">
        <ele>34.7449</ele>
        <time>2013-05-24T19:22:31Z</time>
      </trkpt>
      <trkpt lat="59.9291245" lon="17.8346811">
        <ele>35.2255</ele>
        <time>2013-05-24T19:22:32Z</time>
      </trkpt>
      <trkpt lat="59.9291795" lon="17.8346094">
        <ele>34.7449</ele>
        <time>2013-05-24T19:22:33Z</time>
      </trkpt>
      <trkpt lat="59.9292424" lon="17.8345309">
        <ele>36.1868</ele>
        <time>2013-05-24T19:22:34Z</time>
      </trkpt>
      <trkpt lat="59.9293086" lon="17.8344584">
        <ele>38.1094</ele>
        <time>2013-05-24T19:22:35Z</time>
      </trkpt>
      <trkpt lat="59.9293789" lon="17.8343807">
        <ele>40.9934</ele>
        <time>2013-05-24T19:22:36Z</time>
      </trkpt>
      <trkpt lat="59.929437" lon="17.8342971">
        <ele>41.9547</ele>
        <time>2013-05-24T19:22:37Z</time>
      </trkpt>
      <trkpt lat="59.9294992" lon="17.8342056">
        <ele>43.8773</ele>
        <time>2013-05-24T19:22:38Z</time>
      </trkpt>
      <trkpt lat="59.9295583" lon="17.8341225">
        <ele>44.8386</ele>
        <time>2013-05-24T19:22:39Z</time>
      </trkpt>
      <trkpt lat="59.9296028" lon="17.8340387">
        <ele>42.916</ele>
        <time>2013-05-24T19:22:40Z</time>
      </trkpt>
      <trkpt lat="59.9296512" lon="17.8339464">
        <ele>42.4354</ele>
        <time>2013-05-24T19:22:41Z</time>
      </trkpt>
      <trkpt lat="59.9297038" lon="17.8338502">
        <ele>41.9547</ele>
        <time>2013-05-24T19:22:42Z</time>
      </trkpt>
      <trkpt lat="59.9297572" lon="17.8337529">
        <ele>41.9547</ele>
        <time>2013-05-24T19:22:43Z</time>
      </trkpt>
      <trkpt lat="59.9298059" lon="17.8336503">
        <ele>40.9934</ele>
        <time>2013-05-24T19:22:44Z</time>
      </trkpt>
      <trkpt lat="59.9298618" lon="17.8335493">
        <ele>40.5128</ele>
        <time>2013-05-24T19:22:45Z</time>
      </trkpt>
      <trkpt lat="59.9299197" lon="17.8334482">
        <ele>40.0321</ele>
        <time>2013-05-24T19:22:46Z</time>
      </trkpt>
      <trkpt lat="59.9299758" lon="17.8333551">
        <ele>39.0707</ele>
        <time>2013-05-24T19:22:47Z</time>
      </trkpt>
      <trkpt lat="59.9300297" lon="17.8332607">
        <ele>37.6287</ele>
        <time>2013-05-24T19:22:48Z</time>
      </trkpt>
      <trkpt lat="59.9300861" lon="17.8331659">
        <ele>37.1481</ele>
        <time>2013-05-24T19:22:49Z</time>
      </trkpt>
      <trkpt lat="59.9301411" lon="17.8330758">
        <ele>37.1481</ele>
        <time>2013-05-24T19:22:50Z</time>
      </trkpt>
      <trkpt lat="59.9301959" lon="17.8329899">
        <ele>37.1481</ele>
        <time>2013-05-24T19:22:51Z</time>
      </trkpt>
      <trkpt lat="59.9302525" lon="17.8329126">
        <ele>37.1481</ele>
        <time>2013-05-24T19:22:52Z</time>
      </trkpt>
      <trkpt lat="59.9303074" lon="17.8328249">
        <ele>37.1481</ele>
        <time>2013-05-24T19:22:53Z</time>
      </trkpt>
      <trkpt lat="59.9303591" lon="17.8327359">
        <ele>37.1481</ele>
        <time>2013-05-24T19:22:54Z</time>
      </trkpt>
      <trkpt lat="59.930411" lon="17.8326484">
        <ele>36.6675</ele>
        <time>2013-05-24T19:22:55Z</time>
      </trkpt>
      <trkpt lat="59.9304655" lon="17.8325714">
        <ele>36.6675</ele>
        <time>2013-05-24T19:22:56Z</time>
      </trkpt>
      <trkpt lat="59.9305208" lon="17.8324985">
        <ele>36.6675</ele>
        <time>2013-05-24T19:22:57Z</time>
      </trkpt>
      <trkpt lat="59.9305721" lon="17.8324143">
        <ele>36.1868</ele>
        <time>2013-05-24T19:22:58Z</time>
      </trkpt>
      <trkpt lat="59.930624" lon="17.832339">
        <ele>35.7061</ele>
        <time>2013-05-24T19:22:59Z</time>
      </trkpt>
      <trkpt lat="59.9306783" lon="17.832262">
        <ele>34.7449</ele>
        <time>2013-05-24T19:23:00Z</time>
      </trkpt>
      <trkpt lat="59.9307352" lon="17.8321844">
        <ele>33.7834</ele>
        <time>2013-05-24T19:23:01Z</time>
      </trkpt>
      <trkpt lat="59.9307903" lon="17.8320996">
        <ele>32.8223</ele>
        <time>2013-05-24T19:23:02Z</time>
      </trkpt>
      <trkpt lat="59.9308475" lon="17.8320116">
        <ele>32.3416</ele>
        <time>2013-05-24T19:23:03Z</time>
      </trkpt>
      <trkpt lat="59.930904" lon="17.8319178">
        <ele>31.8607</ele>
        <time>2013-05-24T19:23:04Z</time>
      </trkpt>
      <trkpt lat="59.9309595" lon="17.831821">
        <ele>30.8995</ele>
        <time>2013-05-24T19:23:05Z</time>
      </trkpt>
      <trkpt lat="59.9310163" lon="17.8317289">
        <ele>30.4188</ele>
        <time>2013-05-24T19:23:06Z</time>
      </trkpt>
      <trkpt lat="59.9310744" lon="17.8316272">
        <ele>29.4575</ele>
        <time>2013-05-24T19:23:07Z</time>
      </trkpt>
      <trkpt lat="59.9311323" lon="17.8315283">
        <ele>28.9769</ele>
        <time>2013-05-24T19:23:08Z</time>
      </trkpt>
      <trkpt lat="59.9311823" lon="17.8314245">
        <ele>27.0543</ele>
        <time>2013-05-24T19:23:09Z</time>
      </trkpt>
      <trkpt lat="59.9312318" lon="17.8313167">
        <ele>25.6123</ele>
        <time>2013-05-24T19:23:10Z</time>
      </trkpt>
      <trkpt lat="59.9312831" lon="17.8312068">
        <ele>25.1317</ele>
        <time>2013-05-24T19:23:11Z</time>
      </trkpt>
      <trkpt lat="59.9313341" lon="17.8311016">
        <ele>24.1703</ele>
        <time>2013-05-24T19:23:12Z</time>
      </trkpt>
      <trkpt lat="59.9313855" lon="17.8309925">
        <ele>23.6896</ele>
        <time>2013-05-24T19:23:13Z</time>
      </trkpt>
      <trkpt lat="59.9314354" lon="17.8308814">
        <ele>23.6896</ele>
        <time>2013-05-24T19:23:14Z</time>
      </trkpt>
      <trkpt lat="59.9314831" lon="17.8307666">
        <ele>23.6896</ele>
        <time>2013-05-24T19:23:15Z</time>
      </trkpt>
      <trkpt lat="59.9315272" lon="17.830656">
        <ele>23.209</ele>
        <time>2013-05-24T19:23:16Z</time>
      </trkpt>
      <trkpt lat="59.9315655" lon="17.8305446">
        <ele>22.7283</ele>
        <time>2013-05-24T19:23:17Z</time>
      </trkpt>
      <trkpt lat="59.9316029" lon="17.8304344">
        <ele>22.2476</ele>
        <time>2013-05-24T19:23:18Z</time>
      </trkpt>
      <trkpt lat="59.9316407" lon="17.8303182">
        <ele>22.7283</ele>
        <time>2013-05-24T19:23:19Z</time>
      </trkpt>
      <trkpt lat="59.9316745" lon="17.830192">
        <ele>21.767</ele>
        <time>2013-05-24T19:23:20Z</time>
      </trkpt>
      <trkpt lat="59.9317087" lon="17.8300688">
        <ele>21.2864</ele>
        <time>2013-05-24T19:23:21Z</time>
      </trkpt>
      <trkpt lat="59.931741" lon="17.8299501">
        <ele>21.2864</ele>
        <time>2013-05-24T19:23:22Z</time>
      </trkpt>
      <trkpt lat="59.9317754" lon="17.8298233">
        <ele>20.8057</ele>
        <time>2013-05-24T19:23:23Z</time>
      </trkpt>
      <trkpt lat="59.9318112" lon="17.8296893">
        <ele>20.325</ele>
        <time>2013-05-24T19:23:24Z</time>
      </trkpt>
      <trkpt lat="59.9318474" lon="17.8295564">
        <ele>20.325</ele>
        <time>2013-05-24T19:23:25Z</time>
      </trkpt>
      <trkpt lat="59.9318809" lon="17.8294155">
        <ele>19.3638</ele>
        <time>2013-05-24T19:23:26Z</time>
      </trkpt>
      <trkpt lat="59.9319257" lon="17.8292694">
        <ele>20.8057</ele>
        <time>2013-05-24T19:23:27Z</time>
      </trkpt>
      <trkpt lat="59.9319636" lon="17.8291202">
        <ele>19.8444</ele>
        <time>2013-05-24T19:23:28Z</time>
      </trkpt>
      <trkpt lat="59.9320047" lon="17.8289686">
        <ele>19.8444</ele>
        <time>2013-05-24T19:23:29Z</time>
      </trkpt>
      <trkpt lat="59.9320416" lon="17.8288152">
        <ele>19.3638</ele>
        <time>2013-05-24T19:23:30Z</time>
      </trkpt>
      <trkpt lat="59.932085" lon="17.8286603">
        <ele>18.8831</ele>
        <time>2013-05-24T19:23:31Z</time>
      </trkpt>
      <trkpt lat="59.9321322" lon="17.8285152">
        <ele>18.4023</ele>
        <time>2013-05-24T19:23:32Z</time>
      </trkpt>
      <trkpt lat="59.9321831" lon="17.8283728">
        <ele>17.9218</ele>
        <time>2013-05-24T19:23:33Z</time>
      </trkpt>
      <trkpt lat="59.9322427" lon="17.8282387">
        <ele>18.4023</ele>
        <time>2013-05-24T19:23:34Z</time>
      </trkpt>
      <trkpt lat="59.9322976" lon="17.8281087">
        <ele>17.9218</ele>
        <time>2013-05-24T19:23:35Z</time>
      </trkpt>
      <trkpt lat="59.9323564" lon="17.8279851">
        <ele>17.4412</ele>
        <time>2013-05-24T19:23:36Z</time>
      </trkpt>
      <trkpt lat="59.9324168" lon="17.8278641">
        <ele>16.9604</ele>
        <time>2013-05-24T19:23:37Z</time>
      </trkpt>
      <trkpt lat="59.9324778" lon="17.8277466">
        <ele>16.9604</ele>
        <time>2013-05-24T19:23:38Z</time>
      </trkpt>
      <trkpt lat="59.9325439" lon="17.8276267">
        <ele>16.4797</ele>
        <time>2013-05-24T19:23:39Z</time>
      </trkpt>
      <trkpt lat="59.9326108" lon="17.8275098">
        <ele>15.999</ele>
        <time>2013-05-24T19:23:40Z</time>
      </trkpt>
      <trkpt lat="59.93268" lon="17.8273977">
        <ele>16.4797</ele>
        <time>2013-05-24T19:23:41Z</time>
      </trkpt>
      <trkpt lat="59.9327514" lon="17.8272834">
        <ele>16.9604</ele>
        <time>2013-05-24T19:23:42Z</time>
      </trkpt>
      <trkpt lat="59.932815" lon="17.8271641">
        <ele>16.4797</ele>
        <time>2013-05-24T19:23:43Z</time>
      </trkpt>
      <trkpt lat="59.9328815" lon="17.8270471">
        <ele>16.9604</ele>
        <time>2013-05-24T19:23:44Z</time>
      </trkpt>
      <trkpt lat="59.9329452" lon="17.8269353">
        <ele>17.4412</ele>
        <time>2013-05-24T19:23:45Z</time>
      </trkpt>
      <trkpt lat="59.9330118" lon="17.8268322">
        <ele>17.4412</ele>
        <time>2013-05-24T19:23:46Z</time>
      </trkpt>
      <trkpt lat="59.9330781" lon="17.8267347">
        <ele>17.4412</ele>
        <time>2013-05-24T19:23:47Z</time>
      </trkpt>
      <trkpt lat="59.9331453" lon="17.8266414">
        <ele>16.9604</ele>
        <time>2013-05-24T19:23:48Z</time>
      </trkpt>
      <trkpt lat="59.9332143" lon="17.8265493">
        <ele>16.4797</ele>
        <time>2013-05-24T19:23:49Z</time>
      </trkpt>
      <trkpt lat="59.9332862" lon="17.8264633">
        <ele>16.9604</ele>
        <time>2013-05-24T19:23:50Z</time>
      </trkpt>
      <trkpt lat="59.9333594" lon="17.826382">
        <ele>17.4412</ele>
        <time>2013-05-24T19:23:51Z</time>
      </trkpt>
      <trkpt lat="59.9334324" lon="17.8263049">
        <ele>16.9604</ele>
        <time>2013-05-24T19:23:52Z</time>
      </trkpt>
      <trkpt lat="59.9335184" lon="17.8262334">
        <ele>20.325</ele>
        <time>2013-05-24T19:23:53Z</time>
      </trkpt>
      <trkpt lat="59.9335932" lon="17.8261705">
        <ele>21.2864</ele>
        <time>2013-05-24T19:23:54Z</time>
      </trkpt>
      <trkpt lat="59.9336663" lon="17.8261194">
        <ele>22.7283</ele>
        <time>2013-05-24T19:23:55Z</time>
      </trkpt>
      <trkpt lat="59.9337396" lon="17.8260675">
        <ele>22.7283</ele>
        <time>2013-05-24T19:23:56Z</time>
      </trkpt>
      <trkpt lat="59.9338138" lon="17.826023">
        <ele>23.209</ele>
        <time>2013-05-24T19:23:57Z</time>
      </trkpt>
      <trkpt lat="59.933888" lon="17.8259858">
        <ele>24.1703</ele>
        <time>2013-05-24T19:23:58Z</time>
      </trkpt>
      <trkpt lat="59.9339524" lon="17.8259521">
        <ele>23.209</ele>
        <time>2013-05-24T19:23:59Z</time>
      </trkpt>
      <trkpt lat="59.9340215" lon="17.825921">
        <ele>22.7283</ele>
        <time>2013-05-24T19:24:00Z</time>
      </trkpt>
      <trkpt lat="59.9340861" lon="17.8258883">
        <ele>21.2864</ele>
        <time>2013-05-24T19:24:01Z</time>
      </trkpt>
      <trkpt lat="59.9341568" lon="17.8258517">
        <ele>21.2864</ele>
        <time>2013-05-24T19:24:02Z</time>
      </trkpt>
      <trkpt lat="59.9342329" lon="17.8258293">
        <ele>22.2476</ele>
        <time>2013-05-24T19:24:03Z</time>
      </trkpt>
      <trkpt lat="59.9343069" lon="17.8258045">
        <ele>21.767</ele>
        <time>2013-05-24T19:24:04Z</time>
      </trkpt>
      <trkpt lat="59.9343839" lon="17.8257781">
        <ele>22.2476</ele>
        <time>2013-05-24T19:24:05Z</time>
      </trkpt>
      <trkpt lat="59.9344624" lon="17.8257491">
        <ele>23.209</ele>
        <time>2013-05-24T19:24:06Z</time>
      </trkpt>
      <trkpt lat="59.9345353" lon="17.8257143">
        <ele>22.7283</ele>
        <time>2013-05-24T19:24:07Z</time>
      </trkpt>
      <trkpt lat="59.9346094" lon="17.825676">
        <ele>22.7283</ele>
        <time>2013-05-24T19:24:08Z</time>
      </trkpt>
      <trkpt lat="59.9346825" lon="17.8256399">
        <ele>22.7283</ele>
        <time>2013-05-24T19:24:09Z</time>
      </trkpt>
      <trkpt lat="59.9347556" lon="17.8256066">
        <ele>22.2476</ele>
        <time>2013-05-24T19:24:10Z</time>
      </trkpt>
      <trkpt lat="59.934829" lon="17.8255775">
        <ele>22.2476</ele>
        <time>2013-05-24T19:24:11Z</time>
      </trkpt>
      <trkpt lat="59.9349019" lon="17.8255491">
        <ele>21.767</ele>
        <time>2013-05-24T19:24:12Z</time>
      </trkpt>
      <trkpt lat="59.9349771" lon="17.8255235">
        <ele>21.767</ele>
        <time>2013-05-24T19:24:13Z</time>
      </trkpt>
      <trkpt lat="59.9350512" lon="17.825494">
        <ele>21.767</ele>
        <time>2013-05-24T19:24:14Z</time>
      </trkpt>
      <trkpt lat="59.9351218" lon="17.8254637">
        <ele>21.2864</ele>
        <time>2013-05-24T19:24:15Z</time>
      </trkpt>
      <trkpt lat="59.9351935" lon="17.8254365">
        <ele>20.8057</ele>
        <time>2013-05-24T19:24:16Z</time>
      </trkpt>
      <trkpt lat="59.9352651" lon="17.8254096">
        <ele>20.325</ele>
        <time>2013-05-24T19:24:17Z</time>
      </trkpt>
      <trkpt lat="59.935336" lon="17.8253751">
        <ele>19.8444</ele>
        <time>2013-05-24T19:24:18Z</time>
      </trkpt>
      <trkpt lat="59.9354075" lon="17.8253378">
        <ele>20.325</ele>
        <time>2013-05-24T19:24:19Z</time>
      </trkpt>
      <trkpt lat="59.9354785" lon="17.8253035">
        <ele>20.325</ele>
        <time>2013-05-24T19:24:20Z</time>
      </trkpt>
      <trkpt lat="59.9355507" lon="17.8252689">
        <ele>20.8057</ele>
        <time>2013-05-24T19:24:21Z</time>
      </trkpt>
      <trkpt lat="59.9356202" lon="17.8252402">
        <ele>20.8057</ele>
        <time>2013-05-24T19:24:22Z</time>
      </trkpt>
      <trkpt lat="59.9356898" lon="17.8252128">
        <ele>20.8057</ele>
        <time>2013-05-24T19:24:23Z</time>
      </trkpt>
      <trkpt lat="59.9357594" lon="17.8251839">
        <ele>20.8057</ele>
        <time>2013-05-24T19:24:24Z</time>
      </trkpt>
      <trkpt lat="59.9358295" lon="17.8251545">
        <ele>20.8057</ele>
        <time>2013-05-24T19:24:25Z</time>
      </trkpt>
      <trkpt lat="59.9358993" lon="17.8251229">
        <ele>21.2864</ele>
        <time>2013-05-24T19:24:26Z</time>
      </trkpt>
      <trkpt lat="59.9359686" lon="17.8250916">
        <ele>21.2864</ele>
        <time>2013-05-24T19:24:27Z</time>
      </trkpt>
      <trkpt lat="59.9360398" lon="17.8250627">
        <ele>21.767</ele>
        <time>2013-05-24T19:24:28Z</time>
      </trkpt>
      <trkpt lat="59.9361126" lon="17.8250352">
        <ele>23.209</ele>
        <time>2013-05-24T19:24:29Z</time>
      </trkpt>
      <trkpt lat="59.9361821" lon="17.8250034">
        <ele>23.209</ele>
        <time>2013-05-24T19:24:30Z</time>
      </trkpt>
      <trkpt lat="59.9362539" lon="17.8249753">
        <ele>23.209</ele>
        <time>2013-05-24T19:24:31Z</time>
      </trkpt>
      <trkpt lat="59.9363247" lon="17.8249467">
        <ele>23.6896</ele>
        <time>2013-05-24T19:24:32Z</time>
      </trkpt>
      <trkpt lat="59.9363905" lon="17.8249166">
        <ele>23.6896</ele>
        <time>2013-05-24T19:24:33Z</time>
      </trkpt>
      <trkpt lat="59.9364602" lon="17.8248853">
        <ele>24.651</ele>
        <time>2013-05-24T19:24:34Z</time>
      </trkpt>
      <trkpt lat="59.9365259" lon="17.8248456">
        <ele>24.651</ele>
        <time>2013-05-24T19:24:35Z</time>
      </trkpt>
      <trkpt lat="59.9365899" lon="17.8247985">
        <ele>25.1317</ele>
        <time>2013-05-24T19:24:36Z</time>
      </trkpt>
      <trkpt lat="59.9366494" lon="17.8247409">
        <ele>24.651</ele>
        <time>2013-05-24T19:24:37Z</time>
      </trkpt>
      <trkpt lat="59.9367068" lon="17.8246778">
        <ele>24.651</ele>
        <time>2013-05-24T19:24:38Z</time>
      </trkpt>
      <trkpt lat="59.9367649" lon="17.824612">
        <ele>25.6123</ele>
        <time>2013-05-24T19:24:39Z</time>
      </trkpt>
      <trkpt lat="59.9368171" lon="17.8245341">
        <ele>25.6123</ele>
        <time>2013-05-24T19:24:40Z</time>
      </trkpt>
      <trkpt lat="59.9368673" lon="17.8244478">
        <ele>25.1317</ele>
        <time>2013-05-24T19:24:41Z</time>
      </trkpt>
      <trkpt lat="59.9369161" lon="17.8243616">
        <ele>25.1317</ele>
        <time>2013-05-24T19:24:42Z</time>
      </trkpt>
      <trkpt lat="59.9369636" lon="17.8242769">
        <ele>25.6123</ele>
        <time>2013-05-24T19:24:43Z</time>
      </trkpt>
      <trkpt lat="59.9370083" lon="17.8241873">
        <ele>26.0929</ele>
        <time>2013-05-24T19:24:44Z</time>
      </trkpt>
      <trkpt lat="59.9370496" lon="17.8240939">
        <ele>26.0929</ele>
        <time>2013-05-24T19:24:45Z</time>
      </trkpt>
      <trkpt lat="59.9370903" lon="17.8239992">
        <ele>26.0929</ele>
        <time>2013-05-24T19:24:46Z</time>
      </trkpt>
      <trkpt lat="59.9371289" lon="17.8239022">
        <ele>25.6123</ele>
        <time>2013-05-24T19:24:47Z</time>
      </trkpt>
      <trkpt lat="59.9371663" lon="17.8238029">
        <ele>25.6123</ele>
        <time>2013-05-24T19:24:48Z</time>
      </trkpt>
      <trkpt lat="59.9372062" lon="17.8236991">
        <ele>25.6123</ele>
        <time>2013-05-24T19:24:49Z</time>
      </trkpt>
      <trkpt lat="59.9372444" lon="17.8235883">
        <ele>25.6123</ele>
        <time>2013-05-24T19:24:50Z</time>
      </trkpt>
      <trkpt lat="59.9372823" lon="17.8234771">
        <ele>25.6123</ele>
        <time>2013-05-24T19:24:51Z</time>
      </trkpt>
      <trkpt lat="59.93732" lon="17.8233657">
        <ele>25.1317</ele>
        <time>2013-05-24T19:24:52Z</time>
      </trkpt>
      <trkpt lat="59.9373611" lon="17.8232555">
        <ele>24.651</ele>
        <time>2013-05-24T19:24:53Z</time>
      </trkpt>
      <trkpt lat="59.937402" lon="17.8231471">
        <ele>24.651</ele>
        <time>2013-05-24T19:24:54Z</time>
      </trkpt>
      <trkpt lat="59.9374409" lon="17.8230353">
        <ele>25.1317</ele>
        <time>2013-05-24T19:24:55Z</time>
      </trkpt>
      <trkpt lat="59.9374801" lon="17.8229224">
        <ele>25.1317</ele>
        <time>2013-05-24T19:24:56Z</time>
      </trkpt>
      <trkpt lat="59.9375212" lon="17.8228092">
        <ele>25.1317</ele>
        <time>2013-05-24T19:24:57Z</time>
      </trkpt>
      <trkpt lat="59.937562" lon="17.822697">
        <ele>25.1317</ele>
        <time>2013-05-24T19:24:58Z</time>
      </trkpt>
      <trkpt lat="59.9376036" lon="17.8225848">
        <ele>25.6123</ele>
        <time>2013-05-24T19:24:59Z</time>
      </trkpt>
      <trkpt lat="59.9376454" lon="17.8224706">
        <ele>25.1317</ele>
        <time>2013-05-24T19:25:00Z</time>
      </trkpt>
      <trkpt lat="59.9376884" lon="17.8223504">
        <ele>25.1317</ele>
        <time>2013-05-24T19:25:01Z</time>
      </trkpt>
      <trkpt lat="59.9377313" lon="17.8222344">
        <ele>24.651</ele>
        <time>2013-05-24T19:25:02Z</time>
      </trkpt>
      <trkpt lat="59.937776" lon="17.8221266">
        <ele>24.651</ele>
        <time>2013-05-24T19:25:03Z</time>
      </trkpt>
      <trkpt lat="59.9378159" lon="17.8220162">
        <ele>24.1703</ele>
        <time>2013-05-24T19:25:04Z</time>
      </trkpt>
      <trkpt lat="59.9378556" lon="17.8218969">
        <ele>23.6896</ele>
        <time>2013-05-24T19:25:05Z</time>
      </trkpt>
      <trkpt lat="59.9379017" lon="17.8217774">
        <ele>23.209</ele>
        <time>2013-05-24T19:25:06Z</time>
      </trkpt>
      <trkpt lat="59.9379448" lon="17.821665">
        <ele>23.209</ele>
        <time>2013-05-24T19:25:07Z</time>
      </trkpt>
      <trkpt lat="59.9379874" lon="17.8215558">
        <ele>23.209</ele>
        <time>2013-05-24T19:25:08Z</time>
      </trkpt>
      <trkpt lat="59.9380329" lon="17.8214506">
        <ele>23.209</ele>
        <time>2013-05-24T19:25:09Z</time>
      </trkpt>
      <trkpt lat="59.9380706" lon="17.8213475">
        <ele>21.767</ele>
        <time>2013-05-24T19:25:10Z</time>
      </trkpt>
      <trkpt lat="59.9381122" lon="17.8212443">
        <ele>20.8057</ele>
        <time>2013-05-24T19:25:11Z</time>
      </trkpt>
      <trkpt lat="59.9381519" lon="17.8211443">
        <ele>19.8444</ele>
        <time>2013-05-24T19:25:12Z</time>
      </trkpt>
      <trkpt lat="59.9381923" lon="17.8210453">
        <ele>18.8831</ele>
        <time>2013-05-24T19:25:13Z</time>
      </trkpt>
      <trkpt lat="59.9382348" lon="17.8209466">
        <ele>18.4023</ele>
        <time>2013-05-24T19:25:14Z</time>
      </trkpt>
      <trkpt lat="59.9382791" lon="17.8208436">
        <ele>18.4023</ele>
        <time>2013-05-24T19:25:15Z</time>
      </trkpt>
      <trkpt lat="59.9383213" lon="17.820746">
        <ele>18.4023</ele>
        <time>2013-05-24T19:25:16Z</time>
      </trkpt>
      <trkpt lat="59.9383664" lon="17.8206482">
        <ele>18.4023</ele>
        <time>2013-05-24T19:25:17Z</time>
      </trkpt>
      <trkpt lat="59.9384116" lon="17.8205502">
        <ele>18.4023</ele>
        <time>2013-05-24T19:25:18Z</time>
      </trkpt>
      <trkpt lat="59.9384555" lon="17.8204528">
        <ele>18.4023</ele>
        <time>2013-05-24T19:25:19Z</time>
      </trkpt>
      <trkpt lat="59.9384986" lon="17.8203541">
        <ele>18.4023</ele>
        <time>2013-05-24T19:25:20Z</time>
      </trkpt>
      <trkpt lat="59.9385411" lon="17.8202572">
        <ele>18.4023</ele>
        <time>2013-05-24T19:25:21Z</time>
      </trkpt>
      <trkpt lat="59.9385814" lon="17.8201633">
        <ele>17.9218</ele>
        <time>2013-05-24T19:25:22Z</time>
      </trkpt>
      <trkpt lat="59.938622" lon="17.8200728">
        <ele>17.9218</ele>
        <time>2013-05-24T19:25:23Z</time>
      </trkpt>
      <trkpt lat="59.9386665" lon="17.8199793">
        <ele>18.4023</ele>
        <time>2013-05-24T19:25:24Z</time>
      </trkpt>
      <trkpt lat="59.9387124" lon="17.8198822">
        <ele>19.3638</ele>
        <time>2013-05-24T19:25:25Z</time>
      </trkpt>
      <trkpt lat="59.9387562" lon="17.8197868">
        <ele>19.3638</ele>
        <time>2013-05-24T19:25:26Z</time>
      </trkpt>
      <trkpt lat="59.9388005" lon="17.81969">
        <ele>20.325</ele>
        <time>2013-05-24T19:25:27Z</time>
      </trkpt>
      <trkpt lat="59.938844" lon="17.8196001">
        <ele>19.8444</ele>
        <time>2013-05-24T19:25:28Z</time>
      </trkpt>
      <trkpt lat="59.9388918" lon="17.8195019">
        <ele>18.8831</ele>
        <time>2013-05-24T19:25:29Z</time>
      </trkpt>
      <trkpt lat="59.938937" lon="17.8193991">
        <ele>18.8831</ele>
        <time>2013-05-24T19:25:30Z</time>
      </trkpt>
      <trkpt lat="59.938984" lon="17.819296">
        <ele>18.4023</ele>
        <time>2013-05-24T19:25:31Z</time>
      </trkpt>
      <trkpt lat="59.9390354" lon="17.8192009">
        <ele>18.8831</ele>
        <time>2013-05-24T19:25:32Z</time>
      </trkpt>
      <trkpt lat="59.9390865" lon="17.8191043">
        <ele>19.3638</ele>
        <time>2013-05-24T19:25:33Z</time>
      </trkpt>
      <trkpt lat="59.9391394" lon="17.8190077">
        <ele>18.4023</ele>
        <time>2013-05-24T19:25:34Z</time>
      </trkpt>
      <trkpt lat="59.9391928" lon="17.8189166">
        <ele>18.4023</ele>
        <time>2013-05-24T19:25:35Z</time>
      </trkpt>
      <trkpt lat="59.9392533" lon="17.8188367">
        <ele>19.3638</ele>
        <time>2013-05-24T19:25:36Z</time>
      </trkpt>
      <trkpt lat="59.9393122" lon="17.8187674">
        <ele>19.8444</ele>
        <time>2013-05-24T19:25:37Z</time>
      </trkpt>
      <trkpt lat="59.9393729" lon="17.8187081">
        <ele>19.8444</ele>
        <time>2013-05-24T19:25:38Z</time>
      </trkpt>
      <trkpt lat="59.939433" lon="17.8186614">
        <ele>20.325</ele>
        <time>2013-05-24T19:25:39Z</time>
      </trkpt>
      <trkpt lat="59.9394896" lon="17.8186236">
        <ele>19.8444</ele>
        <time>2013-05-24T19:25:40Z</time>
      </trkpt>
      <trkpt lat="59.9395487" lon="17.8185995">
        <ele>20.8057</ele>
        <time>2013-05-24T19:25:41Z</time>
      </trkpt>
      <trkpt lat="59.9396089" lon="17.8185866">
        <ele>21.767</ele>
        <time>2013-05-24T19:25:42Z</time>
      </trkpt>
      <trkpt lat="59.9396693" lon="17.8185811">
        <ele>21.767</ele>
        <time>2013-05-24T19:25:43Z</time>
      </trkpt>
      <trkpt lat="59.9397265" lon="17.818572">
        <ele>21.767</ele>
        <time>2013-05-24T19:25:44Z</time>
      </trkpt>
      <trkpt lat="59.9397876" lon="17.8185751">
        <ele>22.2476</ele>
        <time>2013-05-24T19:25:45Z</time>
      </trkpt>
      <trkpt lat="59.9398468" lon="17.8185839">
        <ele>23.209</ele>
        <time>2013-05-24T19:25:46Z</time>
      </trkpt>
      <trkpt lat="59.939902" lon="17.818599">
        <ele>23.6896</ele>
        <time>2013-05-24T19:25:47Z</time>
      </trkpt>
      <trkpt lat="59.9399538" lon="17.8186254">
        <ele>24.1703</ele>
        <time>2013-05-24T19:25:48Z</time>
      </trkpt>
      <trkpt lat="59.9400017" lon="17.8186591">
        <ele>24.651</ele>
        <time>2013-05-24T19:25:49Z</time>
      </trkpt>
      <trkpt lat="59.9400465" lon="17.8186983">
        <ele>24.651</ele>
        <time>2013-05-24T19:25:50Z</time>
      </trkpt>
      <trkpt lat="59.9400882" lon="17.8187412">
        <ele>24.651</ele>
        <time>2013-05-24T19:25:51Z</time>
      </trkpt>
      <trkpt lat="59.9401292" lon="17.8187847">
        <ele>24.651</ele>
        <time>2013-05-24T19:25:52Z</time>
      </trkpt>
      <trkpt lat="59.9401625" lon="17.8188175">
        <ele>22.7283</ele>
        <time>2013-05-24T19:25:53Z</time>
      </trkpt>
      <trkpt lat="59.9401968" lon="17.8188527">
        <ele>20.325</ele>
        <time>2013-05-24T19:25:54Z</time>
      </trkpt>
      <trkpt lat="59.9402405" lon="17.8189011">
        <ele>19.3638</ele>
        <time>2013-05-24T19:25:55Z</time>
      </trkpt>
      <trkpt lat="59.9402871" lon="17.81896">
        <ele>18.8831</ele>
        <time>2013-05-24T19:25:56Z</time>
      </trkpt>
      <trkpt lat="59.9403353" lon="17.8190237">
        <ele>17.9218</ele>
        <time>2013-05-24T19:25:57Z</time>
      </trkpt>
      <trkpt lat="59.9403869" lon="17.8190906">
        <ele>17.4412</ele>
        <time>2013-05-24T19:25:58Z</time>
      </trkpt>
      <trkpt lat="59.9404416" lon="17.8191593">
        <ele>16.9604</ele>
        <time>2013-05-24T19:25:59Z</time>
      </trkpt>
      <trkpt lat="59.9404965" lon="17.8192289">
        <ele>16.4797</ele>
        <time>2013-05-24T19:26:00Z</time>
      </trkpt>
      <trkpt lat="59.9405529" lon="17.8192979">
        <ele>15.5184</ele>
        <time>2013-05-24T19:26:01Z</time>
      </trkpt>
      <trkpt lat="59.9406107" lon="17.8193693">
        <ele>14.557</ele>
        <time>2013-05-24T19:26:02Z</time>
      </trkpt>
      <trkpt lat="59.9406691" lon="17.8194433">
        <ele>13.5958</ele>
        <time>2013-05-24T19:26:03Z</time>
      </trkpt>
      <trkpt lat="59.9407292" lon="17.8195177">
        <ele>12.6344</ele>
        <time>2013-05-24T19:26:04Z</time>
      </trkpt>
      <trkpt lat="59.9407903" lon="17.819594">
        <ele>11.6732</ele>
        <time>2013-05-24T19:26:05Z</time>
      </trkpt>
      <trkpt lat="59.9408533" lon="17.8196723">
        <ele>10.7118</ele>
        <time>2013-05-24T19:26:06Z</time>
      </trkpt>
      <trkpt lat="59.9409174" lon="17.8197504">
        <ele>9.75061</ele>
        <time>2013-05-24T19:26:07Z</time>
      </trkpt>
      <trkpt lat="59.9409828" lon="17.8198308">
        <ele>8.78918</ele>
        <time>2013-05-24T19:26:08Z</time>
      </trkpt>
      <trkpt lat="59.9410489" lon="17.8199125">
        <ele>7.34717</ele>
        <time>2013-05-24T19:26:09Z</time>
      </trkpt>
      <trkpt lat="59.9411167" lon="17.819996">
        <ele>6.86646</ele>
        <time>2013-05-24T19:26:10Z</time>
      </trkpt>
      <trkpt lat="59.9411854" lon="17.8200815">
        <ele>5.90527</ele>
        <time>2013-05-24T19:26:11Z</time>
      </trkpt>
      <trkpt lat="59.9412548" lon="17.8201675">
        <ele>4.94385</ele>
        <time>2013-05-24T19:26:12Z</time>
      </trkpt>
      <trkpt lat="59.9413247" lon="17.8202541">
        <ele>4.46326</ele>
        <time>2013-05-24T19:26:13Z</time>
      </trkpt>
      <trkpt lat="59.9413949" lon="17.8203411">
        <ele>3.98267</ele>
        <time>2013-05-24T19:26:14Z</time>
      </trkpt>
      <trkpt lat="59.9414653" lon="17.8204296">
        <ele>3.50195</ele>
        <time>2013-05-24T19:26:15Z</time>
      </trkpt>
      <trkpt lat="59.9415363" lon="17.8205173">
        <ele>3.02124</ele>
        <time>2013-05-24T19:26:16Z</time>
      </trkpt>
      <trkpt lat="59.941604" lon="17.8206052">
        <ele>2.06006</ele>
        <time>2013-05-24T19:26:17Z</time>
      </trkpt>
      <trkpt lat="59.9416762" lon="17.8206917">
        <ele>2.06006</ele>
        <time>2013-05-24T19:26:18Z</time>
      </trkpt>
      <trkpt lat="59.941747" lon="17.8207751">
        <ele>2.06006</ele>
        <time>2013-05-24T19:26:19Z</time>
      </trkpt>
      <trkpt lat="59.9418138" lon="17.8208585">
        <ele>2.54065</ele>
        <time>2013-05-24T19:26:20Z</time>
      </trkpt>
      <trkpt lat="59.941877" lon="17.8209386">
        <ele>2.54065</ele>
        <time>2013-05-24T19:26:21Z</time>
      </trkpt>
      <trkpt lat="59.9419351" lon="17.8210144">
        <ele>2.06006</ele>
        <time>2013-05-24T19:26:22Z</time>
      </trkpt>
      <trkpt lat="59.9419932" lon="17.8210878">
        <ele>2.06006</ele>
        <time>2013-05-24T19:26:23Z</time>
      </trkpt>
      <trkpt lat="59.94205" lon="17.8211605">
        <ele>2.06006</ele>
        <time>2013-05-24T19:26:24Z</time>
      </trkpt>
      <trkpt lat="59.942104" lon="17.8212334">
        <ele>2.06006</ele>
        <time>2013-05-24T19:26:25Z</time>
      </trkpt>
      <trkpt lat="59.9421604" lon="17.8213034">
        <ele>2.54065</ele>
        <time>2013-05-24T19:26:26Z</time>
      </trkpt>
      <trkpt lat="59.942218" lon="17.8213681">
        <ele>3.02124</ele>
        <time>2013-05-24T19:26:27Z</time>
      </trkpt>
      <trkpt lat="59.9422729" lon="17.8214382">
        <ele>4.46326</ele>
        <time>2013-05-24T19:26:28Z</time>
      </trkpt>
      <trkpt lat="59.9423238" lon="17.8215069">
        <ele>5.90527</ele>
        <time>2013-05-24T19:26:29Z</time>
      </trkpt>
      <trkpt lat="59.9423739" lon="17.8215706">
        <ele>6.86646</ele>
        <time>2013-05-24T19:26:30Z</time>
      </trkpt>
      <trkpt lat="59.9424239" lon="17.8216271">
        <ele>7.34717</ele>
        <time>2013-05-24T19:26:31Z</time>
      </trkpt>
      <trkpt lat="59.9424729" lon="17.821684">
        <ele>7.82788</ele>
        <time>2013-05-24T19:26:32Z</time>
      </trkpt>
      <trkpt lat="59.9425206" lon="17.8217451">
        <ele>9.2699</ele>
        <time>2013-05-24T19:26:33Z</time>
      </trkpt>
      <trkpt lat="59.9425677" lon="17.8218045">
        <ele>10.2312</ele>
        <time>2013-05-24T19:26:34Z</time>
      </trkpt>
      <trkpt lat="59.9426127" lon="17.8218635">
        <ele>10.2312</ele>
        <time>2013-05-24T19:26:35Z</time>
      </trkpt>
      <trkpt lat="59.9426584" lon="17.821922">
        <ele>10.2312</ele>
        <time>2013-05-24T19:26:36Z</time>
      </trkpt>
      <trkpt lat="59.9427101" lon="17.821982">
        <ele>11.1925</ele>
        <time>2013-05-24T19:26:37Z</time>
      </trkpt>
      <trkpt lat="59.9427629" lon="17.8220446">
        <ele>11.1925</ele>
        <time>2013-05-24T19:26:38Z</time>
      </trkpt>
      <trkpt lat="59.9428152" lon="17.8221072">
        <ele>11.1925</ele>
        <time>2013-05-24T19:26:39Z</time>
      </trkpt>
      <trkpt lat="59.942869" lon="17.8221743">
        <ele>11.6732</ele>
        <time>2013-05-24T19:26:40Z</time>
      </trkpt>
      <trkpt lat="59.9429246" lon="17.8222448">
        <ele>12.1538</ele>
        <time>2013-05-24T19:26:41Z</time>
      </trkpt>
      <trkpt lat="59.9429785" lon="17.8223147">
        <ele>12.1538</ele>
        <time>2013-05-24T19:26:42Z</time>
      </trkpt>
      <trkpt lat="59.9430352" lon="17.8223852">
        <ele>12.6344</ele>
        <time>2013-05-24T19:26:43Z</time>
      </trkpt>
      <trkpt lat="59.9430929" lon="17.822455">
        <ele>13.1151</ele>
        <time>2013-05-24T19:26:44Z</time>
      </trkpt>
      <trkpt lat="59.9431509" lon="17.8225258">
        <ele>13.5958</ele>
        <time>2013-05-24T19:26:45Z</time>
      </trkpt>
      <trkpt lat="59.9432092" lon="17.8225981">
        <ele>14.557</ele>
        <time>2013-05-24T19:26:46Z</time>
      </trkpt>
      <trkpt lat="59.9432683" lon="17.8226713">
        <ele>15.5184</ele>
        <time>2013-05-24T19:26:47Z</time>
      </trkpt>
      <trkpt lat="59.9433274" lon="17.8227441">
        <ele>16.4797</ele>
        <time>2013-05-24T19:26:48Z</time>
      </trkpt>
      <trkpt lat="59.9433854" lon="17.8228162">
        <ele>16.9604</ele>
        <time>2013-05-24T19:26:49Z</time>
      </trkpt>
      <trkpt lat="59.943442" lon="17.8228877">
        <ele>17.9218</ele>
        <time>2013-05-24T19:26:50Z</time>
      </trkpt>
      <trkpt lat="59.9434991" lon="17.8229564">
        <ele>17.9218</ele>
        <time>2013-05-24T19:26:51Z</time>
      </trkpt>
      <trkpt lat="59.943555" lon="17.8230248">
        <ele>17.4412</ele>
        <time>2013-05-24T19:26:52Z</time>
      </trkpt>
      <trkpt lat="59.9436062" lon="17.8230943">
        <ele>17.4412</ele>
        <time>2013-05-24T19:26:53Z</time>
      </trkpt>
      <trkpt lat="59.9436537" lon="17.8231606">
        <ele>16.4797</ele>
        <time>2013-05-24T19:26:54Z</time>
      </trkpt>
      <trkpt lat="59.9437063" lon="17.8232254">
        <ele>16.9604</ele>
        <time>2013-05-24T19:26:55Z</time>
      </trkpt>
      <trkpt lat="59.9437581" lon="17.8232911">
        <ele>17.4412</ele>
        <time>2013-05-24T19:26:56Z</time>
      </trkpt>
      <trkpt lat="59.9438118" lon="17.8233553">
        <ele>18.4023</ele>
        <time>2013-05-24T19:26:57Z</time>
      </trkpt>
      <trkpt lat="59.9438617" lon="17.8234186">
        <ele>19.3638</ele>
        <time>2013-05-24T19:26:58Z</time>
      </trkpt>
      <trkpt lat="59.9439049" lon="17.8234734">
        <ele>18.4023</ele>
        <time>2013-05-24T19:26:59Z</time>
      </trkpt>
      <trkpt lat="59.9439565" lon="17.8235346">
        <ele>19.3638</ele>
        <time>2013-05-24T19:27:00Z</time>
      </trkpt>
      <trkpt lat="59.9440014" lon="17.8235957">
        <ele>19.8444</ele>
        <time>2013-05-24T19:27:01Z</time>
      </trkpt>
      <trkpt lat="59.944046" lon="17.8236543">
        <ele>19.8444</ele>
        <time>2013-05-24T19:27:02Z</time>
      </trkpt>
      <trkpt lat="59.9440911" lon="17.8237113">
        <ele>20.325</ele>
        <time>2013-05-24T19:27:03Z</time>
      </trkpt>
      <trkpt lat="59.9441355" lon="17.8237692">
        <ele>21.2864</ele>
        <time>2013-05-24T19:27:04Z</time>
      </trkpt>
      <trkpt lat="59.9441843" lon="17.8238258">
        <ele>21.767</ele>
        <time>2013-05-24T19:27:05Z</time>
      </trkpt>
      <trkpt lat="59.9442259" lon="17.8238823">
        <ele>22.2476</ele>
        <time>2013-05-24T19:27:06Z</time>
      </trkpt>
      <trkpt lat="59.944281" lon="17.8239339">
        <ele>24.1703</ele>
        <time>2013-05-24T19:27:07Z</time>
      </trkpt>
      <trkpt lat="59.9443294" lon="17.8239769">
        <ele>24.1703</ele>
        <time>2013-05-24T19:27:08Z</time>
      </trkpt>
      <trkpt lat="59.9443838" lon="17.824022">
        <ele>24.651</ele>
        <time>2013-05-24T19:27:09Z</time>
      </trkpt>
      <trkpt lat="59.9444314" lon="17.8240703">
        <ele>24.1703</ele>
        <time>2013-05-24T19:27:10Z</time>
      </trkpt>
      <trkpt lat="59.9444839" lon="17.8241207">
        <ele>24.651</ele>
        <time>2013-05-24T19:27:11Z</time>
      </trkpt>
      <trkpt lat="59.944531" lon="17.8241738">
        <ele>24.1703</ele>
        <time>2013-05-24T19:27:12Z</time>
      </trkpt>
      <trkpt lat="59.9445785" lon="17.8242277">
        <ele>23.6896</ele>
        <time>2013-05-24T19:27:13Z</time>
      </trkpt>
      <trkpt lat="59.9446298" lon="17.824283">
        <ele>23.6896</ele>
        <time>2013-05-24T19:27:14Z</time>
      </trkpt>
      <trkpt lat="59.9446766" lon="17.8243359">
        <ele>22.7283</ele>
        <time>2013-05-24T19:27:15Z</time>
      </trkpt>
      <trkpt lat="59.9447262" lon="17.8243914">
        <ele>22.2476</ele>
        <time>2013-05-24T19:27:16Z</time>
      </trkpt>
      <trkpt lat="59.9447776" lon="17.8244487">
        <ele>22.2476</ele>
        <time>2013-05-24T19:27:17Z</time>
      </trkpt>
      <trkpt lat="59.9448288" lon="17.8245059">
        <ele>21.767</ele>
        <time>2013-05-24T19:27:18Z</time>
      </trkpt>
      <trkpt lat="59.9448824" lon="17.8245634">
        <ele>21.767</ele>
        <time>2013-05-24T19:27:19Z</time>
      </trkpt>
      <trkpt lat="59.944938" lon="17.8246194">
        <ele>21.767</ele>
        <time>2013-05-24T19:27:20Z</time>
      </trkpt>
      <trkpt lat="59.9449961" lon="17.8246764">
        <ele>21.767</ele>
        <time>2013-05-24T19:27:21Z</time>
      </trkpt>
      <trkpt lat="59.9450561" lon="17.8247327">
        <ele>22.2476</ele>
        <time>2013-05-24T19:27:22Z</time>
      </trkpt>
      <trkpt lat="59.9451155" lon="17.82479">
        <ele>22.2476</ele>
        <time>2013-05-24T19:27:23Z</time>
      </trkpt>
      <trkpt lat="59.9451743" lon="17.8248462">
        <ele>21.767</ele>
        <time>2013-05-24T19:27:24Z</time>
      </trkpt>
      <trkpt lat="59.9452334" lon="17.8249029">
        <ele>21.2864</ele>
        <time>2013-05-24T19:27:25Z</time>
      </trkpt>
      <trkpt lat="59.945292" lon="17.8249586">
        <ele>20.325</ele>
        <time>2013-05-24T19:27:26Z</time>
      </trkpt>
      <trkpt lat="59.9453481" lon="17.8250169">
        <ele>19.3638</ele>
        <time>2013-05-24T19:27:27Z</time>
      </trkpt>
      <trkpt lat="59.9454088" lon="17.825083">
        <ele>19.3638</ele>
        <time>2013-05-24T19:27:28Z</time>
      </trkpt>
      <trkpt lat="59.9454712" lon="17.8251502">
        <ele>19.8444</ele>
        <time>2013-05-24T19:27:29Z</time>
      </trkpt>
      <trkpt lat="59.9455342" lon="17.825218">
        <ele>19.8444</ele>
        <time>2013-05-24T19:27:30Z</time>
      </trkpt>
      <trkpt lat="59.9456032" lon="17.8252826">
        <ele>20.325</ele>
        <time>2013-05-24T19:27:31Z</time>
      </trkpt>
      <trkpt lat="59.9456689" lon="17.8253485">
        <ele>20.8057</ele>
        <time>2013-05-24T19:27:32Z</time>
      </trkpt>
      <trkpt lat="59.9457332" lon="17.8254148">
        <ele>20.325</ele>
        <time>2013-05-24T19:27:33Z</time>
      </trkpt>
      <trkpt lat="59.9457977" lon="17.8254829">
        <ele>20.325</ele>
        <time>2013-05-24T19:27:34Z</time>
      </trkpt>
      <trkpt lat="59.9458643" lon="17.8255516">
        <ele>19.8444</ele>
        <time>2013-05-24T19:27:35Z</time>
      </trkpt>
      <trkpt lat="59.9459309" lon="17.8256225">
        <ele>19.8444</ele>
        <time>2013-05-24T19:27:36Z</time>
      </trkpt>
      <trkpt lat="59.9459977" lon="17.8256951">
        <ele>19.8444</ele>
        <time>2013-05-24T19:27:37Z</time>
      </trkpt>
      <trkpt lat="59.9460655" lon="17.8257697">
        <ele>19.8444</ele>
        <time>2013-05-24T19:27:38Z</time>
      </trkpt>
      <trkpt lat="59.9461353" lon="17.825845">
        <ele>19.8444</ele>
        <time>2013-05-24T19:27:39Z</time>
      </trkpt>
      <trkpt lat="59.9462052" lon="17.8259196">
        <ele>19.8444</ele>
        <time>2013-05-24T19:27:40Z</time>
      </trkpt>
      <trkpt lat="59.9462749" lon="17.8259942">
        <ele>19.3638</ele>
        <time>2013-05-24T19:27:41Z</time>
      </trkpt>
      <trkpt lat="59.946345" lon="17.8260696">
        <ele>19.3638</ele>
        <time>2013-05-24T19:27:42Z</time>
      </trkpt>
      <trkpt lat="59.9464157" lon="17.8261453">
        <ele>19.3638</ele>
        <time>2013-05-24T19:27:43Z</time>
      </trkpt>
      <trkpt lat="59.9464878" lon="17.8262204">
        <ele>19.3638</ele>
        <time>2013-05-24T19:27:44Z</time>
      </trkpt>
      <trkpt lat="59.9465604" lon="17.8262945">
        <ele>18.8831</ele>
        <time>2013-05-24T19:27:45Z</time>
      </trkpt>
      <trkpt lat="59.9466333" lon="17.8263702">
        <ele>18.8831</ele>
        <time>2013-05-24T19:27:46Z</time>
      </trkpt>
      <trkpt lat="59.9467065" lon="17.8264466">
        <ele>18.4023</ele>
        <time>2013-05-24T19:27:47Z</time>
      </trkpt>
      <trkpt lat="59.94678" lon="17.826523">
        <ele>18.4023</ele>
        <time>2013-05-24T19:27:48Z</time>
      </trkpt>
      <trkpt lat="59.946853" lon="17.8265995">
        <ele>18.4023</ele>
        <time>2013-05-24T19:27:49Z</time>
      </trkpt>
      <trkpt lat="59.9469267" lon="17.8266748">
        <ele>17.9218</ele>
        <time>2013-05-24T19:27:50Z</time>
      </trkpt>
      <trkpt lat="59.9470011" lon="17.8267509">
        <ele>17.9218</ele>
        <time>2013-05-24T19:27:51Z</time>
      </trkpt>
      <trkpt lat="59.9470753" lon="17.8268271">
        <ele>17.9218</ele>
        <time>2013-05-24T19:27:52Z</time>
      </trkpt>
      <trkpt lat="59.9471497" lon="17.8269042">
        <ele>17.9218</ele>
        <time>2013-05-24T19:27:53Z</time>
      </trkpt>
      <trkpt lat="59.9472245" lon="17.8269827">
        <ele>17.4412</ele>
        <time>2013-05-24T19:27:54Z</time>
      </trkpt>
      <trkpt lat="59.9473002" lon="17.8270634">
        <ele>17.9218</ele>
        <time>2013-05-24T19:27:55Z</time>
      </trkpt>
      <trkpt lat="59.9473753" lon="17.8271424">
        <ele>17.9218</ele>
        <time>2013-05-24T19:27:56Z</time>
      </trkpt>
      <trkpt lat="59.9474515" lon="17.8272215">
        <ele>17.9218</ele>
        <time>2013-05-24T19:27:57Z</time>
      </trkpt>
      <trkpt lat="59.9475276" lon="17.8272994">
        <ele>17.9218</ele>
        <time>2013-05-24T19:27:58Z</time>
      </trkpt>
      <trkpt lat="59.9476037" lon="17.8273766">
        <ele>17.9218</ele>
        <time>2013-05-24T19:27:59Z</time>
      </trkpt>
      <trkpt lat="59.9476787" lon="17.8274534">
        <ele>17.9218</ele>
        <time>2013-05-24T19:28:00Z</time>
      </trkpt>
      <trkpt lat="59.9477518" lon="17.8275253">
        <ele>16.9604</ele>
        <time>2013-05-24T19:28:01Z</time>
      </trkpt>
      <trkpt lat="59.9478228" lon="17.8275989">
        <ele>16.4797</ele>
        <time>2013-05-24T19:28:02Z</time>
      </trkpt>
      <trkpt lat="59.9478941" lon="17.8276725">
        <ele>15.999</ele>
        <time>2013-05-24T19:28:03Z</time>
      </trkpt>
      <trkpt lat="59.9479632" lon="17.827749">
        <ele>16.4797</ele>
        <time>2013-05-24T19:28:04Z</time>
      </trkpt>
      <trkpt lat="59.9480373" lon="17.8278206">
        <ele>17.4412</ele>
        <time>2013-05-24T19:28:05Z</time>
      </trkpt>
      <trkpt lat="59.9481075" lon="17.8278914">
        <ele>16.9604</ele>
        <time>2013-05-24T19:28:06Z</time>
      </trkpt>
      <trkpt lat="59.948176" lon="17.8279652">
        <ele>17.4412</ele>
        <time>2013-05-24T19:28:07Z</time>
      </trkpt>
      <trkpt lat="59.948244" lon="17.8280367">
        <ele>17.4412</ele>
        <time>2013-05-24T19:28:08Z</time>
      </trkpt>
      <trkpt lat="59.9483108" lon="17.828106">
        <ele>15.999</ele>
        <time>2013-05-24T19:28:09Z</time>
      </trkpt>
      <trkpt lat="59.9483767" lon="17.828175">
        <ele>15.5184</ele>
        <time>2013-05-24T19:28:10Z</time>
      </trkpt>
      <trkpt lat="59.9484444" lon="17.828246">
        <ele>15.5184</ele>
        <time>2013-05-24T19:28:11Z</time>
      </trkpt>
      <trkpt lat="59.9485135" lon="17.8283153">
        <ele>15.5184</ele>
        <time>2013-05-24T19:28:12Z</time>
      </trkpt>
      <trkpt lat="59.9485832" lon="17.8283851">
        <ele>15.5184</ele>
        <time>2013-05-24T19:28:13Z</time>
      </trkpt>
      <trkpt lat="59.9486522" lon="17.8284567">
        <ele>15.5184</ele>
        <time>2013-05-24T19:28:14Z</time>
      </trkpt>
      <trkpt lat="59.9487206" lon="17.8285293">
        <ele>15.0377</ele>
        <time>2013-05-24T19:28:15Z</time>
      </trkpt>
      <trkpt lat="59.9487887" lon="17.8285998">
        <ele>15.0377</ele>
        <time>2013-05-24T19:28:16Z</time>
      </trkpt>
      <trkpt lat="59.9488564" lon="17.8286697">
        <ele>14.557</ele>
        <time>2013-05-24T19:28:17Z</time>
      </trkpt>
      <trkpt lat="59.9489246" lon="17.8287421">
        <ele>14.557</ele>
        <time>2013-05-24T19:28:18Z</time>
      </trkpt>
      <trkpt lat="59.9489946" lon="17.828815">
        <ele>14.557</ele>
        <time>2013-05-24T19:28:19Z</time>
      </trkpt>
      <trkpt lat="59.9490654" lon="17.8288865">
        <ele>14.557</ele>
        <time>2013-05-24T19:28:20Z</time>
      </trkpt>
      <trkpt lat="59.9491332" lon="17.8289597">
        <ele>13.5958</ele>
        <time>2013-05-24T19:28:21Z</time>
      </trkpt>
      <trkpt lat="59.9492048" lon="17.8290446">
        <ele>14.557</ele>
        <time>2013-05-24T19:28:22Z</time>
      </trkpt>
      <trkpt lat="59.9492753" lon="17.8291219">
        <ele>15.0377</ele>
        <time>2013-05-24T19:28:23Z</time>
      </trkpt>
      <trkpt lat="59.9493459" lon="17.8291907">
        <ele>15.5184</ele>
        <time>2013-05-24T19:28:24Z</time>
      </trkpt>
      <trkpt lat="59.9494156" lon="17.829257">
        <ele>15.999</ele>
        <time>2013-05-24T19:28:25Z</time>
      </trkpt>
      <trkpt lat="59.9494821" lon="17.8293249">
        <ele>16.4797</ele>
        <time>2013-05-24T19:28:26Z</time>
      </trkpt>
      <trkpt lat="59.9495446" lon="17.8293948">
        <ele>16.4797</ele>
        <time>2013-05-24T19:28:27Z</time>
      </trkpt>
      <trkpt lat="59.9496043" lon="17.8294662">
        <ele>16.4797</ele>
        <time>2013-05-24T19:28:28Z</time>
      </trkpt>
      <trkpt lat="59.9496597" lon="17.8295409">
        <ele>16.4797</ele>
        <time>2013-05-24T19:28:29Z</time>
      </trkpt>
      <trkpt lat="59.9497093" lon="17.8296194">
        <ele>15.5184</ele>
        <time>2013-05-24T19:28:30Z</time>
      </trkpt>
      <trkpt lat="59.9497623" lon="17.8296978">
        <ele>15.5184</ele>
        <time>2013-05-24T19:28:31Z</time>
      </trkpt>
      <trkpt lat="59.9498213" lon="17.8297378">
        <ele>15.5184</ele>
        <time>2013-05-24T19:28:32Z</time>
      </trkpt>
      <trkpt lat="59.9498855" lon="17.8297215">
        <ele>15.0377</ele>
        <time>2013-05-24T19:28:33Z</time>
      </trkpt>
      <trkpt lat="59.9499461" lon="17.829644">
        <ele>15.0377</ele>
        <time>2013-05-24T19:28:34Z</time>
      </trkpt>
      <trkpt lat="59.949998" lon="17.8295336">
        <ele>15.999</ele>
        <time>2013-05-24T19:28:35Z</time>
      </trkpt>
      <trkpt lat="59.9500357" lon="17.8293585">
        <ele>17.9218</ele>
        <time>2013-05-24T19:28:36Z</time>
      </trkpt>
      <trkpt lat="59.9500549" lon="17.8291823">
        <ele>19.3638</ele>
        <time>2013-05-24T19:28:37Z</time>
      </trkpt>
      <trkpt lat="59.9500674" lon="17.8290146">
        <ele>20.8057</ele>
        <time>2013-05-24T19:28:38Z</time>
      </trkpt>
      <trkpt lat="59.9500693" lon="17.8288472">
        <ele>21.2864</ele>
        <time>2013-05-24T19:28:39Z</time>
      </trkpt>
      <trkpt lat="59.9500715" lon="17.8286883">
        <ele>21.767</ele>
        <time>2013-05-24T19:28:40Z</time>
      </trkpt>
      <trkpt lat="59.9500753" lon="17.8285349">
        <ele>22.7283</ele>
        <time>2013-05-24T19:28:41Z</time>
      </trkpt>
      <trkpt lat="59.9500766" lon="17.8283793">
        <ele>23.209</ele>
        <time>2013-05-24T19:28:42Z</time>
      </trkpt>
      <trkpt lat="59.950077" lon="17.8282215">
        <ele>23.6896</ele>
        <time>2013-05-24T19:28:43Z</time>
      </trkpt>
      <trkpt lat="59.9500772" lon="17.8280616">
        <ele>23.6896</ele>
        <time>2013-05-24T19:28:44Z</time>
      </trkpt>
      <trkpt lat="59.950078" lon="17.8279007">
        <ele>24.1703</ele>
        <time>2013-05-24T19:28:45Z</time>
      </trkpt>
      <trkpt lat="59.9500788" lon="17.8277387">
        <ele>24.1703</ele>
        <time>2013-05-24T19:28:46Z</time>
      </trkpt>
      <trkpt lat="59.9500803" lon="17.8275762">
        <ele>24.651</ele>
        <time>2013-05-24T19:28:47Z</time>
      </trkpt>
      <trkpt lat="59.9500813" lon="17.8274138">
        <ele>24.651</ele>
        <time>2013-05-24T19:28:48Z</time>
      </trkpt>
      <trkpt lat="59.9500829" lon="17.8272512">
        <ele>25.1317</ele>
        <time>2013-05-24T19:28:49Z</time>
      </trkpt>
      <trkpt lat="59.9500901" lon="17.8270938">
        <ele>25.6123</ele>
        <time>2013-05-24T19:28:50Z</time>
      </trkpt>
      <trkpt lat="59.9500979" lon="17.8269353">
        <ele>26.0929</ele>
        <time>2013-05-24T19:28:51Z</time>
      </trkpt>
      <trkpt lat="59.9501074" lon="17.8267758">
        <ele>26.0929</ele>
        <time>2013-05-24T19:28:52Z</time>
      </trkpt>
      <trkpt lat="59.9501176" lon="17.8266132">
        <ele>25.6123</ele>
        <time>2013-05-24T19:28:53Z</time>
      </trkpt>
      <trkpt lat="59.9501328" lon="17.8264528">
        <ele>25.6123</ele>
        <time>2013-05-24T19:28:54Z</time>
      </trkpt>
      <trkpt lat="59.9501534" lon="17.826296">
        <ele>25.6123</ele>
        <time>2013-05-24T19:28:55Z</time>
      </trkpt>
      <trkpt lat="59.9501781" lon="17.8261444">
        <ele>25.6123</ele>
        <time>2013-05-24T19:28:56Z</time>
      </trkpt>
      <trkpt lat="59.9502057" lon="17.8259968">
        <ele>25.6123</ele>
        <time>2013-05-24T19:28:57Z</time>
      </trkpt>
      <trkpt lat="59.9502357" lon="17.8258557">
        <ele>25.6123</ele>
        <time>2013-05-24T19:28:58Z</time>
      </trkpt>
      <trkpt lat="59.9502682" lon="17.8257168">
        <ele>25.6123</ele>
        <time>2013-05-24T19:28:59Z</time>
      </trkpt>
      <trkpt lat="59.9503004" lon="17.8255806">
        <ele>25.6123</ele>
        <time>2013-05-24T19:29:00Z</time>
      </trkpt>
      <trkpt lat="59.950332" lon="17.8254469">
        <ele>25.6123</ele>
        <time>2013-05-24T19:29:01Z</time>
      </trkpt>
      <trkpt lat="59.9503632" lon="17.825316">
        <ele>25.6123</ele>
        <time>2013-05-24T19:29:02Z</time>
      </trkpt>
      <trkpt lat="59.9503938" lon="17.8251832">
        <ele>25.6123</ele>
        <time>2013-05-24T19:29:03Z</time>
      </trkpt>
      <trkpt lat="59.9504251" lon="17.8250528">
        <ele>26.0929</ele>
        <time>2013-05-24T19:29:04Z</time>
      </trkpt>
      <trkpt lat="59.9504531" lon="17.8249258">
        <ele>26.5736</ele>
        <time>2013-05-24T19:29:05Z</time>
      </trkpt>
      <trkpt lat="59.9504787" lon="17.8247959">
        <ele>26.5736</ele>
        <time>2013-05-24T19:29:06Z</time>
      </trkpt>
      <trkpt lat="59.950506" lon="17.8246597">
        <ele>26.5736</ele>
        <time>2013-05-24T19:29:07Z</time>
      </trkpt>
      <trkpt lat="59.9505329" lon="17.8245276">
        <ele>26.0929</ele>
        <time>2013-05-24T19:29:08Z</time>
      </trkpt>
      <trkpt lat="59.9505588" lon="17.824396">
        <ele>25.6123</ele>
        <time>2013-05-24T19:29:09Z</time>
      </trkpt>
      <trkpt lat="59.9505845" lon="17.8242675">
        <ele>25.1317</ele>
        <time>2013-05-24T19:29:10Z</time>
      </trkpt>
      <trkpt lat="59.9506097" lon="17.8241328">
        <ele>24.1703</ele>
        <time>2013-05-24T19:29:11Z</time>
      </trkpt>
      <trkpt lat="59.9506337" lon="17.8239894">
        <ele>23.209</ele>
        <time>2013-05-24T19:29:12Z</time>
      </trkpt>
      <trkpt lat="59.950662" lon="17.8238617">
        <ele>23.6896</ele>
        <time>2013-05-24T19:29:13Z</time>
      </trkpt>
      <trkpt lat="59.9506855" lon="17.8237356">
        <ele>23.209</ele>
        <time>2013-05-24T19:29:14Z</time>
      </trkpt>
      <trkpt lat="59.9507138" lon="17.8236117">
        <ele>23.209</ele>
        <time>2013-05-24T19:29:15Z</time>
      </trkpt>
      <trkpt lat="59.9507399" lon="17.8234812">
        <ele>22.7283</ele>
        <time>2013-05-24T19:29:16Z</time>
      </trkpt>
      <trkpt lat="59.9507661" lon="17.8233707">
        <ele>22.7283</ele>
        <time>2013-05-24T19:29:17Z</time>
      </trkpt>
      <trkpt lat="59.9507677" lon="17.8232253">
        <ele>22.7283</ele>
        <time>2013-05-24T19:29:18Z</time>
      </trkpt>
      <trkpt lat="59.9507782" lon="17.8230777">
        <ele>21.767</ele>
        <time>2013-05-24T19:29:19Z</time>
      </trkpt>
      <trkpt lat="59.9507859" lon="17.8229257">
        <ele>21.767</ele>
        <time>2013-05-24T19:29:20Z</time>
      </trkpt>
      <trkpt lat="59.9507962" lon="17.8227726">
        <ele>21.2864</ele>
        <time>2013-05-24T19:29:21Z</time>
      </trkpt>
      <trkpt lat="59.9508095" lon="17.822618">
        <ele>20.8057</ele>
        <time>2013-05-24T19:29:22Z</time>
      </trkpt>
      <trkpt lat="59.9508219" lon="17.8224614">
        <ele>20.325</ele>
        <time>2013-05-24T19:29:23Z</time>
      </trkpt>
      <trkpt lat="59.9508347" lon="17.8223059">
        <ele>19.8444</ele>
        <time>2013-05-24T19:29:24Z</time>
      </trkpt>
      <trkpt lat="59.9508527" lon="17.8221594">
        <ele>19.8444</ele>
        <time>2013-05-24T19:29:25Z</time>
      </trkpt>
      <trkpt lat="59.9508671" lon="17.8220101">
        <ele>19.8444</ele>
        <time>2013-05-24T19:29:26Z</time>
      </trkpt>
      <trkpt lat="59.9508826" lon="17.8218614">
        <ele>20.325</ele>
        <time>2013-05-24T19:29:27Z</time>
      </trkpt>
      <trkpt lat="59.9508977" lon="17.8217132">
        <ele>20.325</ele>
        <time>2013-05-24T19:29:28Z</time>
      </trkpt>
      <trkpt lat="59.9509126" lon="17.821564">
        <ele>20.325</ele>
        <time>2013-05-24T19:29:29Z</time>
      </trkpt>
      <trkpt lat="59.9509286" lon="17.8214169">
        <ele>20.325</ele>
        <time>2013-05-24T19:29:30Z</time>
      </trkpt>
      <trkpt lat="59.9509444" lon="17.8212708">
        <ele>20.8057</ele>
        <time>2013-05-24T19:29:31Z</time>
      </trkpt>
      <trkpt lat="59.9509582" lon="17.8211222">
        <ele>20.8057</ele>
        <time>2013-05-24T19:29:32Z</time>
      </trkpt>
      <trkpt lat="59.9509713" lon="17.8209724">
        <ele>20.8057</ele>
        <time>2013-05-24T19:29:33Z</time>
      </trkpt>
      <trkpt lat="59.9509835" lon="17.8208212">
        <ele>20.8057</ele>
        <time>2013-05-24T19:29:34Z</time>
      </trkpt>
      <trkpt lat="59.9509919" lon="17.8206664">
        <ele>20.325</ele>
        <time>2013-05-24T19:29:35Z</time>
      </trkpt>
      <trkpt lat="59.9510058" lon="17.8205216">
        <ele>20.8057</ele>
        <time>2013-05-24T19:29:36Z</time>
      </trkpt>
      <trkpt lat="59.9510149" lon="17.8203725">
        <ele>20.8057</ele>
        <time>2013-05-24T19:29:37Z</time>
      </trkpt>
      <trkpt lat="59.9510247" lon="17.8202246">
        <ele>20.8057</ele>
        <time>2013-05-24T19:29:38Z</time>
      </trkpt>
      <trkpt lat="59.951034" lon="17.8200744">
        <ele>20.8057</ele>
        <time>2013-05-24T19:29:39Z</time>
      </trkpt>
      <trkpt lat="59.9510417" lon="17.819923">
        <ele>20.325</ele>
        <time>2013-05-24T19:29:40Z</time>
      </trkpt>
      <trkpt lat="59.9510465" lon="17.8197757">
        <ele>20.325</ele>
        <time>2013-05-24T19:29:41Z</time>
      </trkpt>
      <trkpt lat="59.951049" lon="17.8196283">
        <ele>19.8444</ele>
        <time>2013-05-24T19:29:42Z</time>
      </trkpt>
      <trkpt lat="59.951052" lon="17.8194837">
        <ele>20.325</ele>
        <time>2013-05-24T19:29:43Z</time>
      </trkpt>
      <trkpt lat="59.951053" lon="17.8193365">
        <ele>20.325</ele>
        <time>2013-05-24T19:29:44Z</time>
      </trkpt>
      <trkpt lat="59.9510532" lon="17.819187">
        <ele>20.8057</ele>
        <time>2013-05-24T19:29:45Z</time>
      </trkpt>
      <trkpt lat="59.9510542" lon="17.8190304">
        <ele>20.325</ele>
        <time>2013-05-24T19:29:46Z</time>
      </trkpt>
      <trkpt lat="59.9510604" lon="17.8188751">
        <ele>19.8444</ele>
        <time>2013-05-24T19:29:47Z</time>
      </trkpt>
      <trkpt lat="59.9510708" lon="17.8187215">
        <ele>19.8444</ele>
        <time>2013-05-24T19:29:48Z</time>
      </trkpt>
      <trkpt lat="59.9510836" lon="17.8185674">
        <ele>19.3638</ele>
        <time>2013-05-24T19:29:49Z</time>
      </trkpt>
      <trkpt lat="59.9510977" lon="17.8184197">
        <ele>19.3638</ele>
        <time>2013-05-24T19:29:50Z</time>
      </trkpt>
      <trkpt lat="59.9511112" lon="17.8182788">
        <ele>19.3638</ele>
        <time>2013-05-24T19:29:51Z</time>
      </trkpt>
      <trkpt lat="59.951125" lon="17.8181434">
        <ele>19.8444</ele>
        <time>2013-05-24T19:29:52Z</time>
      </trkpt>
      <trkpt lat="59.9511371" lon="17.8180033">
        <ele>19.3638</ele>
        <time>2013-05-24T19:29:53Z</time>
      </trkpt>
      <trkpt lat="59.9511531" lon="17.8178653">
        <ele>19.3638</ele>
        <time>2013-05-24T19:29:54Z</time>
      </trkpt>
      <trkpt lat="59.9511712" lon="17.8177296">
        <ele>19.3638</ele>
        <time>2013-05-24T19:29:55Z</time>
      </trkpt>
      <trkpt lat="59.9511877" lon="17.817595">
        <ele>19.8444</ele>
        <time>2013-05-24T19:29:56Z</time>
      </trkpt>
      <trkpt lat="59.9512017" lon="17.8174603">
        <ele>19.8444</ele>
        <time>2013-05-24T19:29:57Z</time>
      </trkpt>
      <trkpt lat="59.9512157" lon="17.8173279">
        <ele>20.325</ele>
        <time>2013-05-24T19:29:58Z</time>
      </trkpt>
      <trkpt lat="59.9512293" lon="17.8171978">
        <ele>20.8057</ele>
        <time>2013-05-24T19:29:59Z</time>
      </trkpt>
      <trkpt lat="59.9512429" lon="17.8170684">
        <ele>21.2864</ele>
        <time>2013-05-24T19:30:00Z</time>
      </trkpt>
      <trkpt lat="59.9512573" lon="17.8169404">
        <ele>21.767</ele>
        <time>2013-05-24T19:30:01Z</time>
      </trkpt>
      <trkpt lat="59.9512717" lon="17.8168127">
        <ele>22.2476</ele>
        <time>2013-05-24T19:30:02Z</time>
      </trkpt>
      <trkpt lat="59.9512845" lon="17.8166829">
        <ele>22.2476</ele>
        <time>2013-05-24T19:30:03Z</time>
      </trkpt>
      <trkpt lat="59.9512976" lon="17.8165573">
        <ele>23.209</ele>
        <time>2013-05-24T19:30:04Z</time>
      </trkpt>
      <trkpt lat="59.9513112" lon="17.8164286">
        <ele>23.6896</ele>
        <time>2013-05-24T19:30:05Z</time>
      </trkpt>
      <trkpt lat="59.951323" lon="17.8162954">
        <ele>23.6896</ele>
        <time>2013-05-24T19:30:06Z</time>
      </trkpt>
      <trkpt lat="59.9513349" lon="17.8161633">
        <ele>24.1703</ele>
        <time>2013-05-24T19:30:07Z</time>
      </trkpt>
      <trkpt lat="59.9513453" lon="17.8160286">
        <ele>24.1703</ele>
        <time>2013-05-24T19:30:08Z</time>
      </trkpt>
      <trkpt lat="59.9513555" lon="17.8158914">
        <ele>24.1703</ele>
        <time>2013-05-24T19:30:09Z</time>
      </trkpt>
      <trkpt lat="59.9513649" lon="17.815752">
        <ele>24.1703</ele>
        <time>2013-05-24T19:30:10Z</time>
      </trkpt>
      <trkpt lat="59.9513734" lon="17.815612">
        <ele>24.1703</ele>
        <time>2013-05-24T19:30:11Z</time>
      </trkpt>
      <trkpt lat="59.9513798" lon="17.8154707">
        <ele>24.1703</ele>
        <time>2013-05-24T19:30:12Z</time>
      </trkpt>
      <trkpt lat="59.9513851" lon="17.8153308">
        <ele>24.651</ele>
        <time>2013-05-24T19:30:13Z</time>
      </trkpt>
      <trkpt lat="59.9513897" lon="17.8151889">
        <ele>24.651</ele>
        <time>2013-05-24T19:30:14Z</time>
      </trkpt>
      <trkpt lat="59.9513935" lon="17.8150459">
        <ele>24.651</ele>
        <time>2013-05-24T19:30:15Z</time>
      </trkpt>
      <trkpt lat="59.9513961" lon="17.8149033">
        <ele>24.651</ele>
        <time>2013-05-24T19:30:16Z</time>
      </trkpt>
      <trkpt lat="59.9513987" lon="17.8147595">
        <ele>24.651</ele>
        <time>2013-05-24T19:30:17Z</time>
      </trkpt>
      <trkpt lat="59.9514008" lon="17.8146155">
        <ele>25.1317</ele>
        <time>2013-05-24T19:30:18Z</time>
      </trkpt>
      <trkpt lat="59.9514022" lon="17.8144714">
        <ele>25.1317</ele>
        <time>2013-05-24T19:30:19Z</time>
      </trkpt>
      <trkpt lat="59.9514023" lon="17.8143269">
        <ele>25.1317</ele>
        <time>2013-05-24T19:30:20Z</time>
      </trkpt>
      <trkpt lat="59.9514027" lon="17.814184">
        <ele>25.6123</ele>
        <time>2013-05-24T19:30:21Z</time>
      </trkpt>
      <trkpt lat="59.9514023" lon="17.8140403">
        <ele>25.6123</ele>
        <time>2013-05-24T19:30:22Z</time>
      </trkpt>
      <trkpt lat="59.9514036" lon="17.8138981">
        <ele>26.0929</ele>
        <time>2013-05-24T19:30:23Z</time>
      </trkpt>
      <trkpt lat="59.9514042" lon="17.8137556">
        <ele>26.0929</ele>
        <time>2013-05-24T19:30:24Z</time>
      </trkpt>
      <trkpt lat="59.9514074" lon="17.8136192">
        <ele>26.5736</ele>
        <time>2013-05-24T19:30:25Z</time>
      </trkpt>
      <trkpt lat="59.951406" lon="17.8134784">
        <ele>26.5736</ele>
        <time>2013-05-24T19:30:26Z</time>
      </trkpt>
      <trkpt lat="59.9514045" lon="17.8133391">
        <ele>26.5736</ele>
        <time>2013-05-24T19:30:27Z</time>
      </trkpt>
      <trkpt lat="59.9514078" lon="17.8132064">
        <ele>27.0543</ele>
        <time>2013-05-24T19:30:28Z</time>
      </trkpt>
      <trkpt lat="59.951408" lon="17.8130692">
        <ele>27.0543</ele>
        <time>2013-05-24T19:30:29Z</time>
      </trkpt>
      <trkpt lat="59.9514095" lon="17.812937">
        <ele>27.5349</ele>
        <time>2013-05-24T19:30:30Z</time>
      </trkpt>
      <trkpt lat="59.9514105" lon="17.8128029">
        <ele>27.5349</ele>
        <time>2013-05-24T19:30:31Z</time>
      </trkpt>
      <trkpt lat="59.9514119" lon="17.8126667">
        <ele>27.5349</ele>
        <time>2013-05-24T19:30:32Z</time>
      </trkpt>
      <trkpt lat="59.9514121" lon="17.8125306">
        <ele>27.5349</ele>
        <time>2013-05-24T19:30:33Z</time>
      </trkpt>
      <trkpt lat="59.9514124" lon="17.8123949">
        <ele>27.5349</ele>
        <time>2013-05-24T19:30:34Z</time>
      </trkpt>
      <trkpt lat="59.9514145" lon="17.8122604">
        <ele>27.5349</ele>
        <time>2013-05-24T19:30:35Z</time>
      </trkpt>
      <trkpt lat="59.9514185" lon="17.8121254">
        <ele>27.5349</ele>
        <time>2013-05-24T19:30:36Z</time>
      </trkpt>
      <trkpt lat="59.9514262" lon="17.8119931">
        <ele>28.0155</ele>
        <time>2013-05-24T19:30:37Z</time>
      </trkpt>
      <trkpt lat="59.9514344" lon="17.8118584">
        <ele>28.0155</ele>
        <time>2013-05-24T19:30:38Z</time>
      </trkpt>
      <trkpt lat="59.9514448" lon="17.811726">
        <ele>28.0155</ele>
        <time>2013-05-24T19:30:39Z</time>
      </trkpt>
      <trkpt lat="59.9514567" lon="17.8115933">
        <ele>27.5349</ele>
        <time>2013-05-24T19:30:40Z</time>
      </trkpt>
      <trkpt lat="59.951471" lon="17.8114618">
        <ele>27.5349</ele>
        <time>2013-05-24T19:30:41Z</time>
      </trkpt>
      <trkpt lat="59.9514867" lon="17.8113282">
        <ele>27.5349</ele>
        <time>2013-05-24T19:30:42Z</time>
      </trkpt>
      <trkpt lat="59.9515036" lon="17.8111941">
        <ele>27.5349</ele>
        <time>2013-05-24T19:30:43Z</time>
      </trkpt>
      <trkpt lat="59.9515212" lon="17.8110617">
        <ele>27.0543</ele>
        <time>2013-05-24T19:30:44Z</time>
      </trkpt>
      <trkpt lat="59.9515401" lon="17.8109296">
        <ele>27.0543</ele>
        <time>2013-05-24T19:30:45Z</time>
      </trkpt>
      <trkpt lat="59.9515612" lon="17.8107989">
        <ele>27.0543</ele>
        <time>2013-05-24T19:30:46Z</time>
      </trkpt>
      <trkpt lat="59.9515845" lon="17.8106693">
        <ele>27.0543</ele>
        <time>2013-05-24T19:30:47Z</time>
      </trkpt>
      <trkpt lat="59.951609" lon="17.8105406">
        <ele>27.5349</ele>
        <time>2013-05-24T19:30:48Z</time>
      </trkpt>
      <trkpt lat="59.9516349" lon="17.8104123">
        <ele>27.0543</ele>
        <time>2013-05-24T19:30:49Z</time>
      </trkpt>
      <trkpt lat="59.9516629" lon="17.8102862">
        <ele>27.0543</ele>
        <time>2013-05-24T19:30:50Z</time>
      </trkpt>
      <trkpt lat="59.9516919" lon="17.8101622">
        <ele>27.0543</ele>
        <time>2013-05-24T19:30:51Z</time>
      </trkpt>
      <trkpt lat="59.9517223" lon="17.8100402">
        <ele>27.0543</ele>
        <time>2013-05-24T19:30:52Z</time>
      </trkpt>
      <trkpt lat="59.9517531" lon="17.8099188">
        <ele>26.5736</ele>
        <time>2013-05-24T19:30:53Z</time>
      </trkpt>
      <trkpt lat="59.9517854" lon="17.8097975">
        <ele>27.0543</ele>
        <time>2013-05-24T19:30:54Z</time>
      </trkpt>
      <trkpt lat="59.9518161" lon="17.8096751">
        <ele>26.5736</ele>
        <time>2013-05-24T19:30:55Z</time>
      </trkpt>
      <trkpt lat="59.9518473" lon="17.8095508">
        <ele>26.5736</ele>
        <time>2013-05-24T19:30:56Z</time>
      </trkpt>
      <trkpt lat="59.9518794" lon="17.8094275">
        <ele>26.0929</ele>
        <time>2013-05-24T19:30:57Z</time>
      </trkpt>
      <trkpt lat="59.9519094" lon="17.8092941">
        <ele>25.1317</ele>
        <time>2013-05-24T19:30:58Z</time>
      </trkpt>
      <trkpt lat="59.9519415" lon="17.8091649">
        <ele>24.651</ele>
        <time>2013-05-24T19:30:59Z</time>
      </trkpt>
      <trkpt lat="59.9519726" lon="17.8090421">
        <ele>24.1703</ele>
        <time>2013-05-24T19:31:00Z</time>
      </trkpt>
      <trkpt lat="59.9520033" lon="17.8089215">
        <ele>24.1703</ele>
        <time>2013-05-24T19:31:01Z</time>
      </trkpt>
      <trkpt lat="59.9520325" lon="17.8087983">
        <ele>23.6896</ele>
        <time>2013-05-24T19:31:02Z</time>
      </trkpt>
      <trkpt lat="59.9520626" lon="17.8086756">
        <ele>23.209</ele>
        <time>2013-05-24T19:31:03Z</time>
      </trkpt>
      <trkpt lat="59.9520908" lon="17.8085543">
        <ele>22.7283</ele>
        <time>2013-05-24T19:31:04Z</time>
      </trkpt>
      <trkpt lat="59.95212" lon="17.8084342">
        <ele>22.7283</ele>
        <time>2013-05-24T19:31:05Z</time>
      </trkpt>
      <trkpt lat="59.9521501" lon="17.8083126">
        <ele>22.7283</ele>
        <time>2013-05-24T19:31:06Z</time>
      </trkpt>
      <trkpt lat="59.9521809" lon="17.8081959">
        <ele>22.2476</ele>
        <time>2013-05-24T19:31:07Z</time>
      </trkpt>
      <trkpt lat="59.9522118" lon="17.8080795">
        <ele>22.2476</ele>
        <time>2013-05-24T19:31:08Z</time>
      </trkpt>
      <trkpt lat="59.9522413" lon="17.8079631">
        <ele>22.2476</ele>
        <time>2013-05-24T19:31:09Z</time>
      </trkpt>
      <trkpt lat="59.9522703" lon="17.8078477">
        <ele>21.767</ele>
        <time>2013-05-24T19:31:10Z</time>
      </trkpt>
      <trkpt lat="59.9522995" lon="17.8077292">
        <ele>21.767</ele>
        <time>2013-05-24T19:31:11Z</time>
      </trkpt>
      <trkpt lat="59.9523275" lon="17.807617">
        <ele>21.767</ele>
        <time>2013-05-24T19:31:12Z</time>
      </trkpt>
      <trkpt lat="59.9523538" lon="17.8075064">
        <ele>21.2864</ele>
        <time>2013-05-24T19:31:13Z</time>
      </trkpt>
      <trkpt lat="59.9523799" lon="17.8073971">
        <ele>21.2864</ele>
        <time>2013-05-24T19:31:14Z</time>
      </trkpt>
      <trkpt lat="59.952407" lon="17.8072886">
        <ele>21.2864</ele>
        <time>2013-05-24T19:31:15Z</time>
      </trkpt>
      <trkpt lat="59.952432" lon="17.8071835">
        <ele>21.2864</ele>
        <time>2013-05-24T19:31:16Z</time>
      </trkpt>
      <trkpt lat="59.9524569" lon="17.807078">
        <ele>21.2864</ele>
        <time>2013-05-24T19:31:17Z</time>
      </trkpt>
      <trkpt lat="59.9524827" lon="17.8069728">
        <ele>21.767</ele>
        <time>2013-05-24T19:31:18Z</time>
      </trkpt>
      <trkpt lat="59.9525082" lon="17.8068665">
        <ele>22.2476</ele>
        <time>2013-05-24T19:31:19Z</time>
      </trkpt>
      <trkpt lat="59.95253" lon="17.806762">
        <ele>22.2476</ele>
        <time>2013-05-24T19:31:20Z</time>
      </trkpt>
      <trkpt lat="59.9525512" lon="17.8066556">
        <ele>22.2476</ele>
        <time>2013-05-24T19:31:21Z</time>
      </trkpt>
      <trkpt lat="59.9525802" lon="17.8065525">
        <ele>22.7283</ele>
        <time>2013-05-24T19:31:22Z</time>
      </trkpt>
      <trkpt lat="59.952599" lon="17.8064414">
        <ele>21.767</ele>
        <time>2013-05-24T19:31:23Z</time>
      </trkpt>
      <trkpt lat="59.9526173" lon="17.806331">
        <ele>21.767</ele>
        <time>2013-05-24T19:31:24Z</time>
      </trkpt>
      <trkpt lat="59.9526412" lon="17.8062262">
        <ele>22.2476</ele>
        <time>2013-05-24T19:31:25Z</time>
      </trkpt>
      <trkpt lat="59.952666" lon="17.8061179">
        <ele>22.7283</ele>
        <time>2013-05-24T19:31:26Z</time>
      </trkpt>
      <trkpt lat="59.952692" lon="17.8059947">
        <ele>23.209</ele>
        <time>2013-05-24T19:31:27Z</time>
      </trkpt>
      <trkpt lat="59.9527232" lon="17.8058761">
        <ele>24.651</ele>
        <time>2013-05-24T19:31:28Z</time>
      </trkpt>
      <trkpt lat="59.9527534" lon="17.8057682">
        <ele>26.0929</ele>
        <time>2013-05-24T19:31:29Z</time>
      </trkpt>
      <trkpt lat="59.9527718" lon="17.8056561">
        <ele>27.0543</ele>
        <time>2013-05-24T19:31:30Z</time>
      </trkpt>
      <trkpt lat="59.9527864" lon="17.8055444">
        <ele>28.4962</ele>
        <time>2013-05-24T19:31:31Z</time>
      </trkpt>
      <trkpt lat="59.9528017" lon="17.8054271">
        <ele>29.4575</ele>
        <time>2013-05-24T19:31:32Z</time>
      </trkpt>
      <trkpt lat="59.9528175" lon="17.8053073">
        <ele>29.9381</ele>
        <time>2013-05-24T19:31:33Z</time>
      </trkpt>
      <trkpt lat="59.9528334" lon="17.8051895">
        <ele>30.4188</ele>
        <time>2013-05-24T19:31:34Z</time>
      </trkpt>
      <trkpt lat="59.9528551" lon="17.8050743">
        <ele>30.8995</ele>
        <time>2013-05-24T19:31:35Z</time>
      </trkpt>
      <trkpt lat="59.9528772" lon="17.8049599">
        <ele>31.3801</ele>
        <time>2013-05-24T19:31:36Z</time>
      </trkpt>
      <trkpt lat="59.9528952" lon="17.8048409">
        <ele>31.3801</ele>
        <time>2013-05-24T19:31:37Z</time>
      </trkpt>
      <trkpt lat="59.9529149" lon="17.8047348">
        <ele>32.3416</ele>
        <time>2013-05-24T19:31:38Z</time>
      </trkpt>
      <trkpt lat="59.9529287" lon="17.8046154">
        <ele>31.8607</ele>
        <time>2013-05-24T19:31:39Z</time>
      </trkpt>
      <trkpt lat="59.952948" lon="17.8045038">
        <ele>31.8607</ele>
        <time>2013-05-24T19:31:40Z</time>
      </trkpt>
      <trkpt lat="59.9529749" lon="17.8044032">
        <ele>31.8607</ele>
        <time>2013-05-24T19:31:41Z</time>
      </trkpt>
      <trkpt lat="59.9530055" lon="17.8043053">
        <ele>31.3801</ele>
        <time>2013-05-24T19:31:42Z</time>
      </trkpt>
      <trkpt lat="59.9530454" lon="17.804216">
        <ele>31.3801</ele>
        <time>2013-05-24T19:31:43Z</time>
      </trkpt>
      <trkpt lat="59.9530781" lon="17.8041373">
        <ele>30.8995</ele>
        <time>2013-05-24T19:31:44Z</time>
      </trkpt>
      <trkpt lat="59.9531143" lon="17.8040609">
        <ele>31.3801</ele>
        <time>2013-05-24T19:31:45Z</time>
      </trkpt>
      <trkpt lat="59.9531505" lon="17.8039952">
        <ele>31.8607</ele>
        <time>2013-05-24T19:31:46Z</time>
      </trkpt>
      <trkpt lat="59.9531869" lon="17.8039382">
        <ele>32.8223</ele>
        <time>2013-05-24T19:31:47Z</time>
      </trkpt>
      <trkpt lat="59.9532221" lon="17.8038699">
        <ele>32.8223</ele>
        <time>2013-05-24T19:31:48Z</time>
      </trkpt>
      <trkpt lat="59.9532619" lon="17.8037963">
        <ele>34.2642</ele>
        <time>2013-05-24T19:31:49Z</time>
      </trkpt>
      <trkpt lat="59.9533023" lon="17.8037291">
        <ele>35.7061</ele>
        <time>2013-05-24T19:31:50Z</time>
      </trkpt>
      <trkpt lat="59.9533368" lon="17.8036474">
        <ele>36.1868</ele>
        <time>2013-05-24T19:31:51Z</time>
      </trkpt>
      <trkpt lat="59.953366" lon="17.8035677">
        <ele>35.7061</ele>
        <time>2013-05-24T19:31:52Z</time>
      </trkpt>
      <trkpt lat="59.9533987" lon="17.8034944">
        <ele>36.6675</ele>
        <time>2013-05-24T19:31:53Z</time>
      </trkpt>
      <trkpt lat="59.9534276" lon="17.8034307">
        <ele>37.6287</ele>
        <time>2013-05-24T19:31:54Z</time>
      </trkpt>
      <trkpt lat="59.9534598" lon="17.8033363">
        <ele>38.1094</ele>
        <time>2013-05-24T19:31:55Z</time>
      </trkpt>
      <trkpt lat="59.9534868" lon="17.8032449">
        <ele>38.1094</ele>
        <time>2013-05-24T19:31:56Z</time>
      </trkpt>
      <trkpt lat="59.9535171" lon="17.8031413">
        <ele>38.5901</ele>
        <time>2013-05-24T19:31:57Z</time>
      </trkpt>
      <trkpt lat="59.9535448" lon="17.8030246">
        <ele>37.6287</ele>
        <time>2013-05-24T19:31:58Z</time>
      </trkpt>
      <trkpt lat="59.9535651" lon="17.8029132">
        <ele>37.1481</ele>
        <time>2013-05-24T19:31:59Z</time>
      </trkpt>
      <trkpt lat="59.9535912" lon="17.8027918">
        <ele>37.1481</ele>
        <time>2013-05-24T19:32:00Z</time>
      </trkpt>
      <trkpt lat="59.9536178" lon="17.8026734">
        <ele>36.6675</ele>
        <time>2013-05-24T19:32:01Z</time>
      </trkpt>
      <trkpt lat="59.9536368" lon="17.8025519">
        <ele>36.1868</ele>
        <time>2013-05-24T19:32:02Z</time>
      </trkpt>
      <trkpt lat="59.9536685" lon="17.8024204">
        <ele>36.6675</ele>
        <time>2013-05-24T19:32:03Z</time>
      </trkpt>
      <trkpt lat="59.9537001" lon="17.8022871">
        <ele>36.6675</ele>
        <time>2013-05-24T19:32:04Z</time>
      </trkpt>
      <trkpt lat="59.9537275" lon="17.8021402">
        <ele>36.1868</ele>
        <time>2013-05-24T19:32:05Z</time>
      </trkpt>
      <trkpt lat="59.9537586" lon="17.8019974">
        <ele>35.7061</ele>
        <time>2013-05-24T19:32:06Z</time>
      </trkpt>
      <trkpt lat="59.9537924" lon="17.8018521">
        <ele>33.3029</ele>
        <time>2013-05-24T19:32:07Z</time>
      </trkpt>
      <trkpt lat="59.9538369" lon="17.8017114">
        <ele>32.8223</ele>
        <time>2013-05-24T19:32:08Z</time>
      </trkpt>
      <trkpt lat="59.9538825" lon="17.8015633">
        <ele>32.3416</ele>
        <time>2013-05-24T19:32:09Z</time>
      </trkpt>
      <trkpt lat="59.9539336" lon="17.8014125">
        <ele>30.4188</ele>
        <time>2013-05-24T19:32:10Z</time>
      </trkpt>
      <trkpt lat="59.9539878" lon="17.8012652">
        <ele>29.4575</ele>
        <time>2013-05-24T19:32:11Z</time>
      </trkpt>
      <trkpt lat="59.9540403" lon="17.8011333">
        <ele>29.4575</ele>
        <time>2013-05-24T19:32:12Z</time>
      </trkpt>
      <trkpt lat="59.9540937" lon="17.8009932">
        <ele>28.4962</ele>
        <time>2013-05-24T19:32:13Z</time>
      </trkpt>
      <trkpt lat="59.954145" lon="17.8008587">
        <ele>27.5349</ele>
        <time>2013-05-24T19:32:14Z</time>
      </trkpt>
      <trkpt lat="59.9541984" lon="17.800728">
        <ele>27.5349</ele>
        <time>2013-05-24T19:32:15Z</time>
      </trkpt>
      <trkpt lat="59.9542506" lon="17.8006049">
        <ele>28.0155</ele>
        <time>2013-05-24T19:32:16Z</time>
      </trkpt>
      <trkpt lat="59.9543041" lon="17.8004805">
        <ele>28.9769</ele>
        <time>2013-05-24T19:32:17Z</time>
      </trkpt>
      <trkpt lat="59.9543565" lon="17.8003505">
        <ele>29.4575</ele>
        <time>2013-05-24T19:32:18Z</time>
      </trkpt>
      <trkpt lat="59.9544104" lon="17.8002169">
        <ele>29.4575</ele>
        <time>2013-05-24T19:32:19Z</time>
      </trkpt>
      <trkpt lat="59.9544649" lon="17.8000884">
        <ele>28.9769</ele>
        <time>2013-05-24T19:32:20Z</time>
      </trkpt>
      <trkpt lat="59.9545203" lon="17.799961">
        <ele>28.9769</ele>
        <time>2013-05-24T19:32:21Z</time>
      </trkpt>
      <trkpt lat="59.9545759" lon="17.7998364">
        <ele>28.9769</ele>
        <time>2013-05-24T19:32:22Z</time>
      </trkpt>
      <trkpt lat="59.9546311" lon="17.7997116">
        <ele>29.4575</ele>
        <time>2013-05-24T19:32:23Z</time>
      </trkpt>
      <trkpt lat="59.9546878" lon="17.7995879">
        <ele>29.4575</ele>
        <time>2013-05-24T19:32:24Z</time>
      </trkpt>
      <trkpt lat="59.9547428" lon="17.7994671">
        <ele>29.9381</ele>
        <time>2013-05-24T19:32:25Z</time>
      </trkpt>
      <trkpt lat="59.9548013" lon="17.7993508">
        <ele>30.4188</ele>
        <time>2013-05-24T19:32:26Z</time>
      </trkpt>
      <trkpt lat="59.9548588" lon="17.7992316">
        <ele>30.8995</ele>
        <time>2013-05-24T19:32:27Z</time>
      </trkpt>
      <trkpt lat="59.9549173" lon="17.7991161">
        <ele>31.3801</ele>
        <time>2013-05-24T19:32:28Z</time>
      </trkpt>
      <trkpt lat="59.9549769" lon="17.7990063">
        <ele>31.3801</ele>
        <time>2013-05-24T19:32:29Z</time>
      </trkpt>
      <trkpt lat="59.9550346" lon="17.7988913">
        <ele>31.8607</ele>
        <time>2013-05-24T19:32:30Z</time>
      </trkpt>
      <trkpt lat="59.9550913" lon="17.798774">
        <ele>31.8607</ele>
        <time>2013-05-24T19:32:31Z</time>
      </trkpt>
      <trkpt lat="59.9551474" lon="17.7986601">
        <ele>31.3801</ele>
        <time>2013-05-24T19:32:32Z</time>
      </trkpt>
      <trkpt lat="59.955208" lon="17.7985026">
        <ele>30.8995</ele>
        <time>2013-05-24T19:32:33Z</time>
      </trkpt>
      <trkpt lat="59.9552642" lon="17.7983743">
        <ele>30.8995</ele>
        <time>2013-05-24T19:32:34Z</time>
      </trkpt>
      <trkpt lat="59.9553134" lon="17.7982847">
        <ele>30.8995</ele>
        <time>2013-05-24T19:32:35Z</time>
      </trkpt>
      <trkpt lat="59.9553665" lon="17.7981505">
        <ele>29.9381</ele>
        <time>2013-05-24T19:32:36Z</time>
      </trkpt>
      <trkpt lat="59.9554089" lon="17.7980139">
        <ele>29.4575</ele>
        <time>2013-05-24T19:32:37Z</time>
      </trkpt>
      <trkpt lat="59.9554505" lon="17.7978722">
        <ele>28.9769</ele>
        <time>2013-05-24T19:32:38Z</time>
      </trkpt>
      <trkpt lat="59.9554919" lon="17.7977252">
        <ele>28.4962</ele>
        <time>2013-05-24T19:32:39Z</time>
      </trkpt>
      <trkpt lat="59.9555308" lon="17.7975863">
        <ele>28.4962</ele>
        <time>2013-05-24T19:32:40Z</time>
      </trkpt>
      <trkpt lat="59.9555705" lon="17.7974469">
        <ele>28.0155</ele>
        <time>2013-05-24T19:32:41Z</time>
      </trkpt>
      <trkpt lat="59.9556135" lon="17.7973014">
        <ele>27.5349</ele>
        <time>2013-05-24T19:32:42Z</time>
      </trkpt>
      <trkpt lat="59.9556547" lon="17.7971585">
        <ele>27.5349</ele>
        <time>2013-05-24T19:32:43Z</time>
      </trkpt>
      <trkpt lat="59.955693" lon="17.797015">
        <ele>27.0543</ele>
        <time>2013-05-24T19:32:44Z</time>
      </trkpt>
      <trkpt lat="59.9557286" lon="17.7968662">
        <ele>27.0543</ele>
        <time>2013-05-24T19:32:45Z</time>
      </trkpt>
      <trkpt lat="59.9557594" lon="17.7967187">
        <ele>27.0543</ele>
        <time>2013-05-24T19:32:46Z</time>
      </trkpt>
      <trkpt lat="59.9557888" lon="17.7965645">
        <ele>26.5736</ele>
        <time>2013-05-24T19:32:47Z</time>
      </trkpt>
      <trkpt lat="59.9558151" lon="17.7964162">
        <ele>27.0543</ele>
        <time>2013-05-24T19:32:48Z</time>
      </trkpt>
      <trkpt lat="59.9558395" lon="17.7962686">
        <ele>27.0543</ele>
        <time>2013-05-24T19:32:49Z</time>
      </trkpt>
      <trkpt lat="59.9558622" lon="17.796122">
        <ele>27.0543</ele>
        <time>2013-05-24T19:32:50Z</time>
      </trkpt>
      <trkpt lat="59.9558842" lon="17.7959774">
        <ele>27.5349</ele>
        <time>2013-05-24T19:32:51Z</time>
      </trkpt>
      <trkpt lat="59.9559073" lon="17.7958335">
        <ele>27.5349</ele>
        <time>2013-05-24T19:32:52Z</time>
      </trkpt>
      <trkpt lat="59.9559336" lon="17.795689">
        <ele>28.0155</ele>
        <time>2013-05-24T19:32:53Z</time>
      </trkpt>
      <trkpt lat="59.9559607" lon="17.79555">
        <ele>28.0155</ele>
        <time>2013-05-24T19:32:54Z</time>
      </trkpt>
      <trkpt lat="59.9559906" lon="17.7953976">
        <ele>28.0155</ele>
        <time>2013-05-24T19:32:55Z</time>
      </trkpt>
      <trkpt lat="59.9560219" lon="17.7952543">
        <ele>28.0155</ele>
        <time>2013-05-24T19:32:56Z</time>
      </trkpt>
      <trkpt lat="59.9560549" lon="17.7951154">
        <ele>28.0155</ele>
        <time>2013-05-24T19:32:57Z</time>
      </trkpt>
      <trkpt lat="59.9560866" lon="17.794983">
        <ele>28.0155</ele>
        <time>2013-05-24T19:32:58Z</time>
      </trkpt>
      <trkpt lat="59.9561193" lon="17.7948481">
        <ele>28.0155</ele>
        <time>2013-05-24T19:32:59Z</time>
      </trkpt>
      <trkpt lat="59.9561518" lon="17.794712">
        <ele>28.4962</ele>
        <time>2013-05-24T19:33:00Z</time>
      </trkpt>
      <trkpt lat="59.9561843" lon="17.794576">
        <ele>28.4962</ele>
        <time>2013-05-24T19:33:01Z</time>
      </trkpt>
      <trkpt lat="59.9562176" lon="17.7944369">
        <ele>28.4962</ele>
        <time>2013-05-24T19:33:02Z</time>
      </trkpt>
      <trkpt lat="59.9562488" lon="17.7942987">
        <ele>28.4962</ele>
        <time>2013-05-24T19:33:03Z</time>
      </trkpt>
      <trkpt lat="59.9562787" lon="17.7941614">
        <ele>28.9769</ele>
        <time>2013-05-24T19:33:04Z</time>
      </trkpt>
      <trkpt lat="59.956309" lon="17.7940238">
        <ele>28.9769</ele>
        <time>2013-05-24T19:33:05Z</time>
      </trkpt>
      <trkpt lat="59.9563403" lon="17.7938876">
        <ele>28.9769</ele>
        <time>2013-05-24T19:33:06Z</time>
      </trkpt>
      <trkpt lat="59.95637" lon="17.7937538">
        <ele>28.9769</ele>
        <time>2013-05-24T19:33:07Z</time>
      </trkpt>
      <trkpt lat="59.9563989" lon="17.7936204">
        <ele>28.9769</ele>
        <time>2013-05-24T19:33:08Z</time>
      </trkpt>
      <trkpt lat="59.9564269" lon="17.7934844">
        <ele>28.9769</ele>
        <time>2013-05-24T19:33:09Z</time>
      </trkpt>
      <trkpt lat="59.9564549" lon="17.7933506">
        <ele>29.4575</ele>
        <time>2013-05-24T19:33:10Z</time>
      </trkpt>
      <trkpt lat="59.9564827" lon="17.7932189">
        <ele>29.4575</ele>
        <time>2013-05-24T19:33:11Z</time>
      </trkpt>
      <trkpt lat="59.9565099" lon="17.793087">
        <ele>29.4575</ele>
        <time>2013-05-24T19:33:12Z</time>
      </trkpt>
      <trkpt lat="59.9565363" lon="17.7929553">
        <ele>29.4575</ele>
        <time>2013-05-24T19:33:13Z</time>
      </trkpt>
      <trkpt lat="59.9565616" lon="17.7928196">
        <ele>29.4575</ele>
        <time>2013-05-24T19:33:14Z</time>
      </trkpt>
      <trkpt lat="59.9565858" lon="17.7926822">
        <ele>29.9381</ele>
        <time>2013-05-24T19:33:15Z</time>
      </trkpt>
      <trkpt lat="59.956611" lon="17.7925446">
        <ele>29.9381</ele>
        <time>2013-05-24T19:33:16Z</time>
      </trkpt>
      <trkpt lat="59.9566359" lon="17.7924032">
        <ele>29.9381</ele>
        <time>2013-05-24T19:33:17Z</time>
      </trkpt>
      <trkpt lat="59.9566584" lon="17.7922649">
        <ele>29.9381</ele>
        <time>2013-05-24T19:33:18Z</time>
      </trkpt>
      <trkpt lat="59.9566797" lon="17.7921277">
        <ele>29.9381</ele>
        <time>2013-05-24T19:33:19Z</time>
      </trkpt>
      <trkpt lat="59.9567014" lon="17.7919867">
        <ele>29.4575</ele>
        <time>2013-05-24T19:33:20Z</time>
      </trkpt>
      <trkpt lat="59.9567242" lon="17.7918433">
        <ele>29.4575</ele>
        <time>2013-05-24T19:33:21Z</time>
      </trkpt>
      <trkpt lat="59.9567482" lon="17.791699">
        <ele>29.4575</ele>
        <time>2013-05-24T19:33:22Z</time>
      </trkpt>
      <trkpt lat="59.9567708" lon="17.7915583">
        <ele>29.4575</ele>
        <time>2013-05-24T19:33:23Z</time>
      </trkpt>
      <trkpt lat="59.9567883" lon="17.7914191">
        <ele>29.4575</ele>
        <time>2013-05-24T19:33:24Z</time>
      </trkpt>
      <trkpt lat="59.9567975" lon="17.79128">
        <ele>29.4575</ele>
        <time>2013-05-24T19:33:25Z</time>
      </trkpt>
      <trkpt lat="59.9567978" lon="17.7911432">
        <ele>29.4575</ele>
        <time>2013-05-24T19:33:26Z</time>
      </trkpt>
      <trkpt lat="59.9567904" lon="17.7910097">
        <ele>29.4575</ele>
        <time>2013-05-24T19:33:27Z</time>
      </trkpt>
      <trkpt lat="59.9567791" lon="17.7908932">
        <ele>29.9381</ele>
        <time>2013-05-24T19:33:28Z</time>
      </trkpt>
      <trkpt lat="59.9567471" lon="17.7907552">
        <ele>30.4188</ele>
        <time>2013-05-24T19:33:29Z</time>
      </trkpt>
      <trkpt lat="59.9567057" lon="17.790619">
        <ele>30.4188</ele>
        <time>2013-05-24T19:33:30Z</time>
      </trkpt>
      <trkpt lat="59.9566778" lon="17.790484">
        <ele>29.9381</ele>
        <time>2013-05-24T19:33:31Z</time>
      </trkpt>
      <trkpt lat="59.9566492" lon="17.7903354">
        <ele>28.9769</ele>
        <time>2013-05-24T19:33:32Z</time>
      </trkpt>
      <trkpt lat="59.956626" lon="17.7901763">
        <ele>28.4962</ele>
        <time>2013-05-24T19:33:33Z</time>
      </trkpt>
      <trkpt lat="59.9566079" lon="17.7900001">
        <ele>28.0155</ele>
        <time>2013-05-24T19:33:34Z</time>
      </trkpt>
      <trkpt lat="59.9566083" lon="17.7898332">
        <ele>27.5349</ele>
        <time>2013-05-24T19:33:35Z</time>
      </trkpt>
      <trkpt lat="59.9566166" lon="17.7896774">
        <ele>27.5349</ele>
        <time>2013-05-24T19:33:36Z</time>
      </trkpt>
      <trkpt lat="59.9566614" lon="17.7895526">
        <ele>27.0543</ele>
        <time>2013-05-24T19:33:37Z</time>
      </trkpt>
      <trkpt lat="59.9567191" lon="17.7894372">
        <ele>27.0543</ele>
        <time>2013-05-24T19:33:38Z</time>
      </trkpt>
      <trkpt lat="59.9567823" lon="17.7893407">
        <ele>26.5736</ele>
        <time>2013-05-24T19:33:39Z</time>
      </trkpt>
      <trkpt lat="59.9568523" lon="17.7892397">
        <ele>26.5736</ele>
        <time>2013-05-24T19:33:40Z</time>
      </trkpt>
      <trkpt lat="59.9569104" lon="17.7891412">
        <ele>26.5736</ele>
        <time>2013-05-24T19:33:41Z</time>
      </trkpt>
      <trkpt lat="59.9569767" lon="17.7890635">
        <ele>26.5736</ele>
        <time>2013-05-24T19:33:42Z</time>
      </trkpt>
      <trkpt lat="59.9570501" lon="17.7889884">
        <ele>27.0543</ele>
        <time>2013-05-24T19:33:43Z</time>
      </trkpt>
      <trkpt lat="59.9571201" lon="17.7888859">
        <ele>26.5736</ele>
        <time>2013-05-24T19:33:44Z</time>
      </trkpt>
      <trkpt lat="59.957179" lon="17.7887658">
        <ele>26.5736</ele>
        <time>2013-05-24T19:33:45Z</time>
      </trkpt>
      <trkpt lat="59.9572364" lon="17.788645">
        <ele>27.0543</ele>
        <time>2013-05-24T19:33:46Z</time>
      </trkpt>
      <trkpt lat="59.9572903" lon="17.7885188">
        <ele>27.5349</ele>
        <time>2013-05-24T19:33:47Z</time>
      </trkpt>
      <trkpt lat="59.9573381" lon="17.7883815">
        <ele>27.5349</ele>
        <time>2013-05-24T19:33:48Z</time>
      </trkpt>
      <trkpt lat="59.9573827" lon="17.7882436">
        <ele>28.0155</ele>
        <time>2013-05-24T19:33:49Z</time>
      </trkpt>
      <trkpt lat="59.9574235" lon="17.7881049">
        <ele>28.4962</ele>
        <time>2013-05-24T19:33:50Z</time>
      </trkpt>
      <trkpt lat="59.9574625" lon="17.7879767">
        <ele>28.0155</ele>
        <time>2013-05-24T19:33:51Z</time>
      </trkpt>
      <trkpt lat="59.9574987" lon="17.7878414">
        <ele>28.0155</ele>
        <time>2013-05-24T19:33:52Z</time>
      </trkpt>
      <trkpt lat="59.957539" lon="17.7877002">
        <ele>28.0155</ele>
        <time>2013-05-24T19:33:53Z</time>
      </trkpt>
      <trkpt lat="59.957578" lon="17.7875521">
        <ele>27.5349</ele>
        <time>2013-05-24T19:33:54Z</time>
      </trkpt>
      <trkpt lat="59.9576162" lon="17.7874063">
        <ele>27.5349</ele>
        <time>2013-05-24T19:33:55Z</time>
      </trkpt>
      <trkpt lat="59.9576469" lon="17.7872657">
        <ele>27.0543</ele>
        <time>2013-05-24T19:33:56Z</time>
      </trkpt>
      <trkpt lat="59.9576754" lon="17.7871283">
        <ele>27.0543</ele>
        <time>2013-05-24T19:33:57Z</time>
      </trkpt>
      <trkpt lat="59.9577023" lon="17.7869997">
        <ele>27.0543</ele>
        <time>2013-05-24T19:33:58Z</time>
      </trkpt>
      <trkpt lat="59.9577324" lon="17.7868676">
        <ele>27.0543</ele>
        <time>2013-05-24T19:33:59Z</time>
      </trkpt>
      <trkpt lat="59.9577702" lon="17.7867408">
        <ele>26.5736</ele>
        <time>2013-05-24T19:34:00Z</time>
      </trkpt>
      <trkpt lat="59.9578183" lon="17.7866227">
        <ele>26.5736</ele>
        <time>2013-05-24T19:34:01Z</time>
      </trkpt>
      <trkpt lat="59.9578757" lon="17.7865108">
        <ele>26.5736</ele>
        <time>2013-05-24T19:34:02Z</time>
      </trkpt>
      <trkpt lat="59.957939" lon="17.7864149">
        <ele>26.5736</ele>
        <time>2013-05-24T19:34:03Z</time>
      </trkpt>
      <trkpt lat="59.9580068" lon="17.7863342">
        <ele>26.5736</ele>
        <time>2013-05-24T19:34:04Z</time>
      </trkpt>
      <trkpt lat="59.9580762" lon="17.786276">
        <ele>26.0929</ele>
        <time>2013-05-24T19:34:05Z</time>
      </trkpt>
      <trkpt lat="59.9581463" lon="17.7862172">
        <ele>25.6123</ele>
        <time>2013-05-24T19:34:06Z</time>
      </trkpt>
      <trkpt lat="59.9582193" lon="17.7861509">
        <ele>25.6123</ele>
        <time>2013-05-24T19:34:07Z</time>
      </trkpt>
      <trkpt lat="59.9582897" lon="17.7860758">
        <ele>25.6123</ele>
        <time>2013-05-24T19:34:08Z</time>
      </trkpt>
      <trkpt lat="59.9583569" lon="17.7860004">
        <ele>25.6123</ele>
        <time>2013-05-24T19:34:09Z</time>
      </trkpt>
      <trkpt lat="59.9584233" lon="17.7859374">
        <ele>26.0929</ele>
        <time>2013-05-24T19:34:10Z</time>
      </trkpt>
      <trkpt lat="59.9584881" lon="17.7858612">
        <ele>26.5736</ele>
        <time>2013-05-24T19:34:11Z</time>
      </trkpt>
      <trkpt lat="59.9585529" lon="17.7857868">
        <ele>27.0543</ele>
        <time>2013-05-24T19:34:12Z</time>
      </trkpt>
      <trkpt lat="59.9586165" lon="17.7857131">
        <ele>27.5349</ele>
        <time>2013-05-24T19:34:13Z</time>
      </trkpt>
      <trkpt lat="59.9586812" lon="17.7856468">
        <ele>27.5349</ele>
        <time>2013-05-24T19:34:14Z</time>
      </trkpt>
      <trkpt lat="59.9587409" lon="17.7855811">
        <ele>28.0155</ele>
        <time>2013-05-24T19:34:15Z</time>
      </trkpt>
      <trkpt lat="59.9588027" lon="17.7855249">
        <ele>28.4962</ele>
        <time>2013-05-24T19:34:16Z</time>
      </trkpt>
      <trkpt lat="59.9588662" lon="17.7854753">
        <ele>28.4962</ele>
        <time>2013-05-24T19:34:17Z</time>
      </trkpt>
      <trkpt lat="59.958931" lon="17.7854309">
        <ele>28.4962</ele>
        <time>2013-05-24T19:34:18Z</time>
      </trkpt>
      <trkpt lat="59.9589943" lon="17.7853852">
        <ele>28.9769</ele>
        <time>2013-05-24T19:34:19Z</time>
      </trkpt>
      <trkpt lat="59.9590604" lon="17.7853382">
        <ele>29.4575</ele>
        <time>2013-05-24T19:34:20Z</time>
      </trkpt>
      <trkpt lat="59.9591244" lon="17.7852887">
        <ele>29.4575</ele>
        <time>2013-05-24T19:34:21Z</time>
      </trkpt>
      <trkpt lat="59.9591885" lon="17.7852361">
        <ele>29.9381</ele>
        <time>2013-05-24T19:34:22Z</time>
      </trkpt>
      <trkpt lat="59.9592518" lon="17.7851784">
        <ele>30.8995</ele>
        <time>2013-05-24T19:34:23Z</time>
      </trkpt>
      <trkpt lat="59.9593133" lon="17.7851161">
        <ele>31.3801</ele>
        <time>2013-05-24T19:34:24Z</time>
      </trkpt>
      <trkpt lat="59.9593704" lon="17.78504">
        <ele>31.8607</ele>
        <time>2013-05-24T19:34:25Z</time>
      </trkpt>
      <trkpt lat="59.959424" lon="17.7849579">
        <ele>32.8223</ele>
        <time>2013-05-24T19:34:26Z</time>
      </trkpt>
      <trkpt lat="59.9594751" lon="17.7848791">
        <ele>33.3029</ele>
        <time>2013-05-24T19:34:27Z</time>
      </trkpt>
      <trkpt lat="59.9595258" lon="17.784801">
        <ele>33.3029</ele>
        <time>2013-05-24T19:34:28Z</time>
      </trkpt>
      <trkpt lat="59.9595765" lon="17.7847184">
        <ele>33.3029</ele>
        <time>2013-05-24T19:34:29Z</time>
      </trkpt>
      <trkpt lat="59.9596274" lon="17.7846284">
        <ele>33.3029</ele>
        <time>2013-05-24T19:34:30Z</time>
      </trkpt>
      <trkpt lat="59.9596784" lon="17.7845403">
        <ele>32.8223</ele>
        <time>2013-05-24T19:34:31Z</time>
      </trkpt>
      <trkpt lat="59.9597292" lon="17.7844502">
        <ele>31.8607</ele>
        <time>2013-05-24T19:34:32Z</time>
      </trkpt>
      <trkpt lat="59.959778" lon="17.7843563">
        <ele>31.8607</ele>
        <time>2013-05-24T19:34:33Z</time>
      </trkpt>
      <trkpt lat="59.9598251" lon="17.7842647">
        <ele>32.3416</ele>
        <time>2013-05-24T19:34:34Z</time>
      </trkpt>
      <trkpt lat="59.9598697" lon="17.7841762">
        <ele>32.3416</ele>
        <time>2013-05-24T19:34:35Z</time>
      </trkpt>
      <trkpt lat="59.9599154" lon="17.7840765">
        <ele>32.3416</ele>
        <time>2013-05-24T19:34:36Z</time>
      </trkpt>
      <trkpt lat="59.9599612" lon="17.7839659">
        <ele>31.8607</ele>
        <time>2013-05-24T19:34:37Z</time>
      </trkpt>
      <trkpt lat="59.9600057" lon="17.7838481">
        <ele>32.3416</ele>
        <time>2013-05-24T19:34:38Z</time>
      </trkpt>
      <trkpt lat="59.9600499" lon="17.7837294">
        <ele>32.3416</ele>
        <time>2013-05-24T19:34:39Z</time>
      </trkpt>
      <trkpt lat="59.960096" lon="17.7836025">
        <ele>32.8223</ele>
        <time>2013-05-24T19:34:40Z</time>
      </trkpt>
      <trkpt lat="59.9601404" lon="17.7834702">
        <ele>32.8223</ele>
        <time>2013-05-24T19:34:41Z</time>
      </trkpt>
      <trkpt lat="59.960182" lon="17.7833432">
        <ele>32.3416</ele>
        <time>2013-05-24T19:34:42Z</time>
      </trkpt>
      <trkpt lat="59.9602271" lon="17.7832145">
        <ele>31.8607</ele>
        <time>2013-05-24T19:34:43Z</time>
      </trkpt>
      <trkpt lat="59.9602666" lon="17.7830987">
        <ele>31.8607</ele>
        <time>2013-05-24T19:34:44Z</time>
      </trkpt>
      <trkpt lat="59.9603048" lon="17.7829904">
        <ele>31.8607</ele>
        <time>2013-05-24T19:34:45Z</time>
      </trkpt>
      <trkpt lat="59.960345" lon="17.782875">
        <ele>31.8607</ele>
        <time>2013-05-24T19:34:46Z</time>
      </trkpt>
      <trkpt lat="59.960385" lon="17.7827572">
        <ele>31.8607</ele>
        <time>2013-05-24T19:34:47Z</time>
      </trkpt>
      <trkpt lat="59.9604227" lon="17.7826459">
        <ele>31.3801</ele>
        <time>2013-05-24T19:34:48Z</time>
      </trkpt>
      <trkpt lat="59.9604595" lon="17.7825368">
        <ele>30.4188</ele>
        <time>2013-05-24T19:34:49Z</time>
      </trkpt>
      <trkpt lat="59.9604955" lon="17.7824246">
        <ele>30.4188</ele>
        <time>2013-05-24T19:34:50Z</time>
      </trkpt>
      <trkpt lat="59.9605325" lon="17.7823026">
        <ele>30.8995</ele>
        <time>2013-05-24T19:34:51Z</time>
      </trkpt>
      <trkpt lat="59.960572" lon="17.7821764">
        <ele>30.4188</ele>
        <time>2013-05-24T19:34:52Z</time>
      </trkpt>
      <trkpt lat="59.960616" lon="17.7820523">
        <ele>30.8995</ele>
        <time>2013-05-24T19:34:53Z</time>
      </trkpt>
      <trkpt lat="59.9606648" lon="17.7819411">
        <ele>30.4188</ele>
        <time>2013-05-24T19:34:54Z</time>
      </trkpt>
      <trkpt lat="59.9607182" lon="17.7818446">
        <ele>30.4188</ele>
        <time>2013-05-24T19:34:55Z</time>
      </trkpt>
      <trkpt lat="59.9607747" lon="17.7817493">
        <ele>29.9381</ele>
        <time>2013-05-24T19:34:56Z</time>
      </trkpt>
      <trkpt lat="59.9608316" lon="17.7816489">
        <ele>30.4188</ele>
        <time>2013-05-24T19:34:57Z</time>
      </trkpt>
      <trkpt lat="59.96089" lon="17.7815581">
        <ele>30.4188</ele>
        <time>2013-05-24T19:34:58Z</time>
      </trkpt>
      <trkpt lat="59.9609482" lon="17.7814548">
        <ele>30.8995</ele>
        <time>2013-05-24T19:34:59Z</time>
      </trkpt>
      <trkpt lat="59.9610047" lon="17.7813503">
        <ele>30.8995</ele>
        <time>2013-05-24T19:35:00Z</time>
      </trkpt>
      <trkpt lat="59.9610601" lon="17.7812456">
        <ele>30.8995</ele>
        <time>2013-05-24T19:35:01Z</time>
      </trkpt>
      <trkpt lat="59.9611186" lon="17.7811339">
        <ele>29.4575</ele>
        <time>2013-05-24T19:35:02Z</time>
      </trkpt>
      <trkpt lat="59.9611756" lon="17.7810242">
        <ele>29.4575</ele>
        <time>2013-05-24T19:35:03Z</time>
      </trkpt>
      <trkpt lat="59.9612305" lon="17.7809225">
        <ele>29.4575</ele>
        <time>2013-05-24T19:35:04Z</time>
      </trkpt>
      <trkpt lat="59.9612865" lon="17.7808165">
        <ele>28.9769</ele>
        <time>2013-05-24T19:35:05Z</time>
      </trkpt>
      <trkpt lat="59.9613424" lon="17.7807159">
        <ele>28.9769</ele>
        <time>2013-05-24T19:35:06Z</time>
      </trkpt>
      <trkpt lat="59.9613974" lon="17.7806112">
        <ele>29.4575</ele>
        <time>2013-05-24T19:35:07Z</time>
      </trkpt>
      <trkpt lat="59.9614506" lon="17.7805144">
        <ele>29.9381</ele>
        <time>2013-05-24T19:35:08Z</time>
      </trkpt>
      <trkpt lat="59.9615045" lon="17.7804124">
        <ele>29.4575</ele>
        <time>2013-05-24T19:35:09Z</time>
      </trkpt>
      <trkpt lat="59.9615578" lon="17.7803092">
        <ele>29.9381</ele>
        <time>2013-05-24T19:35:10Z</time>
      </trkpt>
      <trkpt lat="59.9616103" lon="17.7802019">
        <ele>29.9381</ele>
        <time>2013-05-24T19:35:11Z</time>
      </trkpt>
      <trkpt lat="59.9616609" lon="17.7800912">
        <ele>29.9381</ele>
        <time>2013-05-24T19:35:12Z</time>
      </trkpt>
      <trkpt lat="59.9617103" lon="17.779977">
        <ele>29.9381</ele>
        <time>2013-05-24T19:35:13Z</time>
      </trkpt>
      <trkpt lat="59.9617588" lon="17.7798568">
        <ele>30.4188</ele>
        <time>2013-05-24T19:35:14Z</time>
      </trkpt>
      <trkpt lat="59.961807" lon="17.779741">
        <ele>30.8995</ele>
        <time>2013-05-24T19:35:15Z</time>
      </trkpt>
      <trkpt lat="59.9618561" lon="17.7796271">
        <ele>30.4188</ele>
        <time>2013-05-24T19:35:16Z</time>
      </trkpt>
      <trkpt lat="59.9619061" lon="17.779513">
        <ele>30.8995</ele>
        <time>2013-05-24T19:35:17Z</time>
      </trkpt>
      <trkpt lat="59.9619567" lon="17.7793994">
        <ele>31.3801</ele>
        <time>2013-05-24T19:35:18Z</time>
      </trkpt>
      <trkpt lat="59.9620075" lon="17.7792906">
        <ele>30.8995</ele>
        <time>2013-05-24T19:35:19Z</time>
      </trkpt>
      <trkpt lat="59.9620571" lon="17.7791797">
        <ele>30.4188</ele>
        <time>2013-05-24T19:35:20Z</time>
      </trkpt>
      <trkpt lat="59.9621064" lon="17.7790677">
        <ele>30.4188</ele>
        <time>2013-05-24T19:35:21Z</time>
      </trkpt>
      <trkpt lat="59.9621567" lon="17.778956">
        <ele>29.9381</ele>
        <time>2013-05-24T19:35:22Z</time>
      </trkpt>
      <trkpt lat="59.9622075" lon="17.7788337">
        <ele>29.9381</ele>
        <time>2013-05-24T19:35:23Z</time>
      </trkpt>
      <trkpt lat="59.9622582" lon="17.7787107">
        <ele>29.9381</ele>
        <time>2013-05-24T19:35:24Z</time>
      </trkpt>
      <trkpt lat="59.9623074" lon="17.7785883">
        <ele>29.9381</ele>
        <time>2013-05-24T19:35:25Z</time>
      </trkpt>
      <trkpt lat="59.9623559" lon="17.7784719">
        <ele>29.9381</ele>
        <time>2013-05-24T19:35:26Z</time>
      </trkpt>
      <trkpt lat="59.9624049" lon="17.7783568">
        <ele>29.9381</ele>
        <time>2013-05-24T19:35:27Z</time>
      </trkpt>
      <trkpt lat="59.9624551" lon="17.7782469">
        <ele>29.4575</ele>
        <time>2013-05-24T19:35:28Z</time>
      </trkpt>
      <trkpt lat="59.9625058" lon="17.7781383">
        <ele>28.9769</ele>
        <time>2013-05-24T19:35:29Z</time>
      </trkpt>
      <trkpt lat="59.9625595" lon="17.778028">
        <ele>28.9769</ele>
        <time>2013-05-24T19:35:30Z</time>
      </trkpt>
      <trkpt lat="59.9626146" lon="17.7779177">
        <ele>28.4962</ele>
        <time>2013-05-24T19:35:31Z</time>
      </trkpt>
      <trkpt lat="59.9626681" lon="17.7778091">
        <ele>28.4962</ele>
        <time>2013-05-24T19:35:32Z</time>
      </trkpt>
      <trkpt lat="59.9627213" lon="17.7776994">
        <ele>28.4962</ele>
        <time>2013-05-24T19:35:33Z</time>
      </trkpt>
      <trkpt lat="59.962773" lon="17.7775937">
        <ele>28.4962</ele>
        <time>2013-05-24T19:35:34Z</time>
      </trkpt>
      <trkpt lat="59.9628258" lon="17.7774851">
        <ele>28.4962</ele>
        <time>2013-05-24T19:35:35Z</time>
      </trkpt>
      <trkpt lat="59.9628767" lon="17.7773778">
        <ele>28.4962</ele>
        <time>2013-05-24T19:35:36Z</time>
      </trkpt>
      <trkpt lat="59.9629275" lon="17.7772671">
        <ele>28.4962</ele>
        <time>2013-05-24T19:35:37Z</time>
      </trkpt>
      <trkpt lat="59.9629762" lon="17.7771514">
        <ele>28.9769</ele>
        <time>2013-05-24T19:35:38Z</time>
      </trkpt>
      <trkpt lat="59.9630228" lon="17.7770308">
        <ele>28.9769</ele>
        <time>2013-05-24T19:35:39Z</time>
      </trkpt>
      <trkpt lat="59.9630668" lon="17.7769055">
        <ele>28.9769</ele>
        <time>2013-05-24T19:35:40Z</time>
      </trkpt>
      <trkpt lat="59.9631078" lon="17.7767767">
        <ele>29.9381</ele>
        <time>2013-05-24T19:35:41Z</time>
      </trkpt>
      <trkpt lat="59.9631461" lon="17.7766459">
        <ele>29.9381</ele>
        <time>2013-05-24T19:35:42Z</time>
      </trkpt>
      <trkpt lat="59.9631834" lon="17.7765265">
        <ele>29.9381</ele>
        <time>2013-05-24T19:35:43Z</time>
      </trkpt>
      <trkpt lat="59.9632202" lon="17.776409">
        <ele>29.4575</ele>
        <time>2013-05-24T19:35:44Z</time>
      </trkpt>
      <trkpt lat="59.9632578" lon="17.7762891">
        <ele>29.4575</ele>
        <time>2013-05-24T19:35:45Z</time>
      </trkpt>
      <trkpt lat="59.9632948" lon="17.7761688">
        <ele>29.9381</ele>
        <time>2013-05-24T19:35:46Z</time>
      </trkpt>
      <trkpt lat="59.9633321" lon="17.776043">
        <ele>29.9381</ele>
        <time>2013-05-24T19:35:47Z</time>
      </trkpt>
      <trkpt lat="59.9633698" lon="17.775917">
        <ele>29.9381</ele>
        <time>2013-05-24T19:35:48Z</time>
      </trkpt>
      <trkpt lat="59.963409" lon="17.7757931">
        <ele>29.4575</ele>
        <time>2013-05-24T19:35:49Z</time>
      </trkpt>
      <trkpt lat="59.9634491" lon="17.7756678">
        <ele>28.9769</ele>
        <time>2013-05-24T19:35:50Z</time>
      </trkpt>
      <trkpt lat="59.9634886" lon="17.7755449">
        <ele>28.9769</ele>
        <time>2013-05-24T19:35:51Z</time>
      </trkpt>
      <trkpt lat="59.9635302" lon="17.7754156">
        <ele>28.9769</ele>
        <time>2013-05-24T19:35:52Z</time>
      </trkpt>
      <trkpt lat="59.9635692" lon="17.7752822">
        <ele>28.9769</ele>
        <time>2013-05-24T19:35:53Z</time>
      </trkpt>
      <trkpt lat="59.9636045" lon="17.7751462">
        <ele>28.9769</ele>
        <time>2013-05-24T19:35:54Z</time>
      </trkpt>
      <trkpt lat="59.9636359" lon="17.7750069">
        <ele>28.9769</ele>
        <time>2013-05-24T19:35:55Z</time>
      </trkpt>
      <trkpt lat="59.9636646" lon="17.7748635">
        <ele>28.9769</ele>
        <time>2013-05-24T19:35:56Z</time>
      </trkpt>
      <trkpt lat="59.9636904" lon="17.7747178">
        <ele>29.4575</ele>
        <time>2013-05-24T19:35:57Z</time>
      </trkpt>
      <trkpt lat="59.9637129" lon="17.7745707">
        <ele>29.4575</ele>
        <time>2013-05-24T19:35:58Z</time>
      </trkpt>
      <trkpt lat="59.9637354" lon="17.7744213">
        <ele>29.4575</ele>
        <time>2013-05-24T19:35:59Z</time>
      </trkpt>
      <trkpt lat="59.9637606" lon="17.774268">
        <ele>29.4575</ele>
        <time>2013-05-24T19:36:00Z</time>
      </trkpt>
      <trkpt lat="59.9637864" lon="17.7741168">
        <ele>29.4575</ele>
        <time>2013-05-24T19:36:01Z</time>
      </trkpt>
      <trkpt lat="59.9638124" lon="17.773961">
        <ele>29.4575</ele>
        <time>2013-05-24T19:36:02Z</time>
      </trkpt>
      <trkpt lat="59.9638395" lon="17.7738046">
        <ele>29.4575</ele>
        <time>2013-05-24T19:36:03Z</time>
      </trkpt>
      <trkpt lat="59.9638655" lon="17.7736466">
        <ele>29.4575</ele>
        <time>2013-05-24T19:36:04Z</time>
      </trkpt>
      <trkpt lat="59.9638884" lon="17.7734889">
        <ele>29.4575</ele>
        <time>2013-05-24T19:36:05Z</time>
      </trkpt>
      <trkpt lat="59.9639084" lon="17.7733306">
        <ele>29.9381</ele>
        <time>2013-05-24T19:36:06Z</time>
      </trkpt>
      <trkpt lat="59.963924" lon="17.7731651">
        <ele>29.9381</ele>
        <time>2013-05-24T19:36:07Z</time>
      </trkpt>
      <trkpt lat="59.9639335" lon="17.7730037">
        <ele>29.9381</ele>
        <time>2013-05-24T19:36:08Z</time>
      </trkpt>
      <trkpt lat="59.9639327" lon="17.77284">
        <ele>29.4575</ele>
        <time>2013-05-24T19:36:09Z</time>
      </trkpt>
      <trkpt lat="59.9639236" lon="17.7726738">
        <ele>28.9769</ele>
        <time>2013-05-24T19:36:10Z</time>
      </trkpt>
      <trkpt lat="59.9639084" lon="17.7725086">
        <ele>28.4962</ele>
        <time>2013-05-24T19:36:11Z</time>
      </trkpt>
      <trkpt lat="59.9638878" lon="17.7723464">
        <ele>28.4962</ele>
        <time>2013-05-24T19:36:12Z</time>
      </trkpt>
      <trkpt lat="59.9638616" lon="17.7721956">
        <ele>28.4962</ele>
        <time>2013-05-24T19:36:13Z</time>
      </trkpt>
      <trkpt lat="59.9638319" lon="17.7720481">
        <ele>28.4962</ele>
        <time>2013-05-24T19:36:14Z</time>
      </trkpt>
      <trkpt lat="59.9638007" lon="17.7719049">
        <ele>28.4962</ele>
        <time>2013-05-24T19:36:15Z</time>
      </trkpt>
      <trkpt lat="59.9637691" lon="17.7717642">
        <ele>28.4962</ele>
        <time>2013-05-24T19:36:16Z</time>
      </trkpt>
      <trkpt lat="59.9637391" lon="17.7716335">
        <ele>28.9769</ele>
        <time>2013-05-24T19:36:17Z</time>
      </trkpt>
      <trkpt lat="59.9637081" lon="17.7715086">
        <ele>28.9769</ele>
        <time>2013-05-24T19:36:18Z</time>
      </trkpt>
      <trkpt lat="59.9636776" lon="17.7713762">
        <ele>28.9769</ele>
        <time>2013-05-24T19:36:19Z</time>
      </trkpt>
      <trkpt lat="59.9636471" lon="17.7712504">
        <ele>28.9769</ele>
        <time>2013-05-24T19:36:20Z</time>
      </trkpt>
      <trkpt lat="59.9636184" lon="17.7711211">
        <ele>28.9769</ele>
        <time>2013-05-24T19:36:21Z</time>
      </trkpt>
      <trkpt lat="59.9635899" lon="17.770983">
        <ele>28.9769</ele>
        <time>2013-05-24T19:36:22Z</time>
      </trkpt>
      <trkpt lat="59.9635661" lon="17.7708481">
        <ele>28.9769</ele>
        <time>2013-05-24T19:36:23Z</time>
      </trkpt>
      <trkpt lat="59.9635459" lon="17.7707126">
        <ele>28.9769</ele>
        <time>2013-05-24T19:36:24Z</time>
      </trkpt>
      <trkpt lat="59.9635308" lon="17.7705777">
        <ele>29.4575</ele>
        <time>2013-05-24T19:36:25Z</time>
      </trkpt>
      <trkpt lat="59.9635201" lon="17.7704416">
        <ele>29.4575</ele>
        <time>2013-05-24T19:36:26Z</time>
      </trkpt>
      <trkpt lat="59.9635152" lon="17.7703123">
        <ele>28.9769</ele>
        <time>2013-05-24T19:36:27Z</time>
      </trkpt>
      <trkpt lat="59.9635109" lon="17.7701806">
        <ele>28.9769</ele>
        <time>2013-05-24T19:36:28Z</time>
      </trkpt>
      <trkpt lat="59.9635109" lon="17.7700501">
        <ele>28.4962</ele>
        <time>2013-05-24T19:36:29Z</time>
      </trkpt>
      <trkpt lat="59.9635114" lon="17.7699183">
        <ele>28.4962</ele>
        <time>2013-05-24T19:36:30Z</time>
      </trkpt>
      <trkpt lat="59.9635129" lon="17.7697826">
        <ele>28.4962</ele>
        <time>2013-05-24T19:36:31Z</time>
      </trkpt>
      <trkpt lat="59.9635268" lon="17.7696561">
        <ele>28.4962</ele>
        <time>2013-05-24T19:36:32Z</time>
      </trkpt>
      <trkpt lat="59.9635424" lon="17.7695218">
        <ele>28.4962</ele>
        <time>2013-05-24T19:36:33Z</time>
      </trkpt>
      <trkpt lat="59.9635668" lon="17.7693958">
        <ele>28.9769</ele>
        <time>2013-05-24T19:36:34Z</time>
      </trkpt>
      <trkpt lat="59.9635968" lon="17.7692764">
        <ele>29.4575</ele>
        <time>2013-05-24T19:36:35Z</time>
      </trkpt>
      <trkpt lat="59.9636333" lon="17.7691482">
        <ele>29.4575</ele>
        <time>2013-05-24T19:36:36Z</time>
      </trkpt>
      <trkpt lat="59.9636703" lon="17.7690198">
        <ele>28.9769</ele>
        <time>2013-05-24T19:36:37Z</time>
      </trkpt>
      <trkpt lat="59.9637076" lon="17.7688901">
        <ele>29.4575</ele>
        <time>2013-05-24T19:36:38Z</time>
      </trkpt>
      <trkpt lat="59.9637443" lon="17.7687561">
        <ele>29.4575</ele>
        <time>2013-05-24T19:36:39Z</time>
      </trkpt>
      <trkpt lat="59.9637808" lon="17.768624">
        <ele>28.9769</ele>
        <time>2013-05-24T19:36:40Z</time>
      </trkpt>
      <trkpt lat="59.9638162" lon="17.7684955">
        <ele>29.4575</ele>
        <time>2013-05-24T19:36:41Z</time>
      </trkpt>
      <trkpt lat="59.9638511" lon="17.768368">
        <ele>29.9381</ele>
        <time>2013-05-24T19:36:42Z</time>
      </trkpt>
      <trkpt lat="59.9638837" lon="17.7682461">
        <ele>30.4188</ele>
        <time>2013-05-24T19:36:43Z</time>
      </trkpt>
      <trkpt lat="59.9639132" lon="17.7681256">
        <ele>31.3801</ele>
        <time>2013-05-24T19:36:44Z</time>
      </trkpt>
      <trkpt lat="59.963949" lon="17.7679904">
        <ele>31.8607</ele>
        <time>2013-05-24T19:36:45Z</time>
      </trkpt>
      <trkpt lat="59.9639764" lon="17.7678602">
        <ele>31.8607</ele>
        <time>2013-05-24T19:36:46Z</time>
      </trkpt>
      <trkpt lat="59.9639954" lon="17.7677428">
        <ele>32.3416</ele>
        <time>2013-05-24T19:36:47Z</time>
      </trkpt>
      <trkpt lat="59.9640289" lon="17.7676199">
        <ele>32.3416</ele>
        <time>2013-05-24T19:36:48Z</time>
      </trkpt>
      <trkpt lat="59.9640485" lon="17.7674864">
        <ele>32.3416</ele>
        <time>2013-05-24T19:36:49Z</time>
      </trkpt>
      <trkpt lat="59.9640659" lon="17.7673648">
        <ele>32.3416</ele>
        <time>2013-05-24T19:36:50Z</time>
      </trkpt>
      <trkpt lat="59.9640856" lon="17.7672279">
        <ele>32.8223</ele>
        <time>2013-05-24T19:36:51Z</time>
      </trkpt>
      <trkpt lat="59.9641002" lon="17.7670799">
        <ele>32.3416</ele>
        <time>2013-05-24T19:36:52Z</time>
      </trkpt>
      <trkpt lat="59.9641112" lon="17.7669228">
        <ele>31.8607</ele>
        <time>2013-05-24T19:36:53Z</time>
      </trkpt>
      <trkpt lat="59.9641179" lon="17.766771">
        <ele>30.4188</ele>
        <time>2013-05-24T19:36:54Z</time>
      </trkpt>
      <trkpt lat="59.9641112" lon="17.7666247">
        <ele>29.9381</ele>
        <time>2013-05-24T19:36:55Z</time>
      </trkpt>
      <trkpt lat="59.9641049" lon="17.766481">
        <ele>29.4575</ele>
        <time>2013-05-24T19:36:56Z</time>
      </trkpt>
      <trkpt lat="59.9641087" lon="17.766353">
        <ele>29.4575</ele>
        <time>2013-05-24T19:36:57Z</time>
      </trkpt>
      <trkpt lat="59.9641117" lon="17.7662406">
        <ele>29.4575</ele>
        <time>2013-05-24T19:36:58Z</time>
      </trkpt>
      <trkpt lat="59.9641193" lon="17.7661249">
        <ele>29.9381</ele>
        <time>2013-05-24T19:36:59Z</time>
      </trkpt>
      <trkpt lat="59.9641273" lon="17.7660094">
        <ele>30.4188</ele>
        <time>2013-05-24T19:37:00Z</time>
      </trkpt>
      <trkpt lat="59.9641453" lon="17.7658644">
        <ele>30.8995</ele>
        <time>2013-05-24T19:37:01Z</time>
      </trkpt>
      <trkpt lat="59.9641641" lon="17.7657099">
        <ele>30.8995</ele>
        <time>2013-05-24T19:37:02Z</time>
      </trkpt>
      <trkpt lat="59.9641734" lon="17.7655464">
        <ele>31.3801</ele>
        <time>2013-05-24T19:37:03Z</time>
      </trkpt>
      <trkpt lat="59.9641775" lon="17.7653637">
        <ele>30.4188</ele>
        <time>2013-05-24T19:37:04Z</time>
      </trkpt>
      <trkpt lat="59.9641883" lon="17.7651844">
        <ele>30.8995</ele>
        <time>2013-05-24T19:37:05Z</time>
      </trkpt>
      <trkpt lat="59.9642003" lon="17.7649913">
        <ele>30.8995</ele>
        <time>2013-05-24T19:37:06Z</time>
      </trkpt>
      <trkpt lat="59.9642218" lon="17.7647948">
        <ele>29.9381</ele>
        <time>2013-05-24T19:37:07Z</time>
      </trkpt>
      <trkpt lat="59.9642658" lon="17.7646227">
        <ele>29.9381</ele>
        <time>2013-05-24T19:37:08Z</time>
      </trkpt>
      <trkpt lat="59.9643137" lon="17.7644597">
        <ele>29.4575</ele>
        <time>2013-05-24T19:37:09Z</time>
      </trkpt>
      <trkpt lat="59.9643597" lon="17.7642768">
        <ele>28.9769</ele>
        <time>2013-05-24T19:37:10Z</time>
      </trkpt>
      <trkpt lat="59.9644068" lon="17.7640941">
        <ele>28.4962</ele>
        <time>2013-05-24T19:37:11Z</time>
      </trkpt>
      <trkpt lat="59.9644489" lon="17.7639086">
        <ele>28.4962</ele>
        <time>2013-05-24T19:37:12Z</time>
      </trkpt>
      <trkpt lat="59.9644918" lon="17.7637391">
        <ele>28.4962</ele>
        <time>2013-05-24T19:37:13Z</time>
      </trkpt>
      <trkpt lat="59.9645373" lon="17.7635604">
        <ele>28.0155</ele>
        <time>2013-05-24T19:37:14Z</time>
      </trkpt>
      <trkpt lat="59.9645863" lon="17.7633958">
        <ele>27.0543</ele>
        <time>2013-05-24T19:37:15Z</time>
      </trkpt>
      <trkpt lat="59.9646318" lon="17.7632359">
        <ele>27.0543</ele>
        <time>2013-05-24T19:37:16Z</time>
      </trkpt>
      <trkpt lat="59.9646799" lon="17.7630662">
        <ele>27.0543</ele>
        <time>2013-05-24T19:37:17Z</time>
      </trkpt>
      <trkpt lat="59.9647243" lon="17.7629045">
        <ele>26.5736</ele>
        <time>2013-05-24T19:37:18Z</time>
      </trkpt>
      <trkpt lat="59.9647702" lon="17.7627454">
        <ele>27.0543</ele>
        <time>2013-05-24T19:37:19Z</time>
      </trkpt>
      <trkpt lat="59.964818" lon="17.7625863">
        <ele>27.5349</ele>
        <time>2013-05-24T19:37:20Z</time>
      </trkpt>
      <trkpt lat="59.9648716" lon="17.7624337">
        <ele>27.5349</ele>
        <time>2013-05-24T19:37:21Z</time>
      </trkpt>
      <trkpt lat="59.9649252" lon="17.7622846">
        <ele>28.0155</ele>
        <time>2013-05-24T19:37:22Z</time>
      </trkpt>
      <trkpt lat="59.964985" lon="17.7621471">
        <ele>27.5349</ele>
        <time>2013-05-24T19:37:23Z</time>
      </trkpt>
      <trkpt lat="59.9650403" lon="17.7620095">
        <ele>28.0155</ele>
        <time>2013-05-24T19:37:24Z</time>
      </trkpt>
      <trkpt lat="59.965097" lon="17.7618655">
        <ele>27.5349</ele>
        <time>2013-05-24T19:37:25Z</time>
      </trkpt>
      <trkpt lat="59.9651539" lon="17.7617171">
        <ele>27.5349</ele>
        <time>2013-05-24T19:37:26Z</time>
      </trkpt>
      <trkpt lat="59.9652072" lon="17.7615631">
        <ele>27.5349</ele>
        <time>2013-05-24T19:37:27Z</time>
      </trkpt>
      <trkpt lat="59.965258" lon="17.7614158">
        <ele>27.0543</ele>
        <time>2013-05-24T19:37:28Z</time>
      </trkpt>
      <trkpt lat="59.9653103" lon="17.7612782">
        <ele>27.5349</ele>
        <time>2013-05-24T19:37:29Z</time>
      </trkpt>
      <trkpt lat="59.9653621" lon="17.7611485">
        <ele>27.5349</ele>
        <time>2013-05-24T19:37:30Z</time>
      </trkpt>
      <trkpt lat="59.9654166" lon="17.7610242">
        <ele>28.0155</ele>
        <time>2013-05-24T19:37:31Z</time>
      </trkpt>
      <trkpt lat="59.9654787" lon="17.7608932">
        <ele>27.5349</ele>
        <time>2013-05-24T19:37:32Z</time>
      </trkpt>
      <trkpt lat="59.9655383" lon="17.7607865">
        <ele>28.0155</ele>
        <time>2013-05-24T19:37:33Z</time>
      </trkpt>
      <trkpt lat="59.9656042" lon="17.7606874">
        <ele>28.0155</ele>
        <time>2013-05-24T19:37:34Z</time>
      </trkpt>
      <trkpt lat="59.9656724" lon="17.7605977">
        <ele>28.0155</ele>
        <time>2013-05-24T19:37:35Z</time>
      </trkpt>
      <trkpt lat="59.9657413" lon="17.7604995">
        <ele>27.5349</ele>
        <time>2013-05-24T19:37:36Z</time>
      </trkpt>
      <trkpt lat="59.9658093" lon="17.7604149">
        <ele>26.5736</ele>
        <time>2013-05-24T19:37:37Z</time>
      </trkpt>
      <trkpt lat="59.9658707" lon="17.7603123">
        <ele>26.5736</ele>
        <time>2013-05-24T19:37:38Z</time>
      </trkpt>
      <trkpt lat="59.9659317" lon="17.7601931">
        <ele>27.5349</ele>
        <time>2013-05-24T19:37:39Z</time>
      </trkpt>
      <trkpt lat="59.966006" lon="17.7600504">
        <ele>27.0543</ele>
        <time>2013-05-24T19:37:40Z</time>
      </trkpt>
      <trkpt lat="59.9660806" lon="17.759908">
        <ele>26.5736</ele>
        <time>2013-05-24T19:37:41Z</time>
      </trkpt>
      <trkpt lat="59.966148" lon="17.7597637">
        <ele>26.5736</ele>
        <time>2013-05-24T19:37:42Z</time>
      </trkpt>
      <trkpt lat="59.9662101" lon="17.7596463">
        <ele>26.5736</ele>
        <time>2013-05-24T19:37:43Z</time>
      </trkpt>
      <trkpt lat="59.9662672" lon="17.7595313">
        <ele>28.0155</ele>
        <time>2013-05-24T19:37:44Z</time>
      </trkpt>
      <trkpt lat="59.9663354" lon="17.7593954">
        <ele>27.5349</ele>
        <time>2013-05-24T19:37:45Z</time>
      </trkpt>
      <trkpt lat="59.9664038" lon="17.7592747">
        <ele>27.5349</ele>
        <time>2013-05-24T19:37:46Z</time>
      </trkpt>
      <trkpt lat="59.9664655" lon="17.759168">
        <ele>27.5349</ele>
        <time>2013-05-24T19:37:47Z</time>
      </trkpt>
      <trkpt lat="59.9665302" lon="17.7590966">
        <ele>27.5349</ele>
        <time>2013-05-24T19:37:48Z</time>
      </trkpt>
      <trkpt lat="59.9665938" lon="17.7590387">
        <ele>27.0543</ele>
        <time>2013-05-24T19:37:49Z</time>
      </trkpt>
      <trkpt lat="59.9666623" lon="17.7589686">
        <ele>26.5736</ele>
        <time>2013-05-24T19:37:50Z</time>
      </trkpt>
      <trkpt lat="59.96674" lon="17.7588806">
        <ele>25.6123</ele>
        <time>2013-05-24T19:37:51Z</time>
      </trkpt>
      <trkpt lat="59.9668212" lon="17.7587753">
        <ele>24.651</ele>
        <time>2013-05-24T19:37:52Z</time>
      </trkpt>
      <trkpt lat="59.9669043" lon="17.7587061">
        <ele>24.1703</ele>
        <time>2013-05-24T19:37:53Z</time>
      </trkpt>
      <trkpt lat="59.9669778" lon="17.7586277">
        <ele>24.651</ele>
        <time>2013-05-24T19:37:54Z</time>
      </trkpt>
      <trkpt lat="59.9670467" lon="17.7585689">
        <ele>25.1317</ele>
        <time>2013-05-24T19:37:55Z</time>
      </trkpt>
      <trkpt lat="59.9671187" lon="17.7585222">
        <ele>25.6123</ele>
        <time>2013-05-24T19:37:56Z</time>
      </trkpt>
      <trkpt lat="59.9671934" lon="17.7584737">
        <ele>25.1317</ele>
        <time>2013-05-24T19:37:57Z</time>
      </trkpt>
      <trkpt lat="59.9672657" lon="17.7584316">
        <ele>25.6123</ele>
        <time>2013-05-24T19:37:58Z</time>
      </trkpt>
      <trkpt lat="59.9673356" lon="17.7583745">
        <ele>26.0929</ele>
        <time>2013-05-24T19:37:59Z</time>
      </trkpt>
      <trkpt lat="59.9674036" lon="17.7582964">
        <ele>26.0929</ele>
        <time>2013-05-24T19:38:00Z</time>
      </trkpt>
      <trkpt lat="59.9674711" lon="17.7582247">
        <ele>25.6123</ele>
        <time>2013-05-24T19:38:01Z</time>
      </trkpt>
      <trkpt lat="59.9675361" lon="17.7581617">
        <ele>26.5736</ele>
        <time>2013-05-24T19:38:02Z</time>
      </trkpt>
      <trkpt lat="59.9676011" lon="17.7581033">
        <ele>27.5349</ele>
        <time>2013-05-24T19:38:03Z</time>
      </trkpt>
      <trkpt lat="59.9676666" lon="17.7580363">
        <ele>28.0155</ele>
        <time>2013-05-24T19:38:04Z</time>
      </trkpt>
      <trkpt lat="59.9677336" lon="17.7579586">
        <ele>28.4962</ele>
        <time>2013-05-24T19:38:05Z</time>
      </trkpt>
      <trkpt lat="59.9677952" lon="17.7579006">
        <ele>28.4962</ele>
        <time>2013-05-24T19:38:06Z</time>
      </trkpt>
      <trkpt lat="59.9678553" lon="17.7578411">
        <ele>28.4962</ele>
        <time>2013-05-24T19:38:07Z</time>
      </trkpt>
      <trkpt lat="59.9679144" lon="17.7577726">
        <ele>28.9769</ele>
        <time>2013-05-24T19:38:08Z</time>
      </trkpt>
      <trkpt lat="59.9679734" lon="17.75771">
        <ele>29.4575</ele>
        <time>2013-05-24T19:38:09Z</time>
      </trkpt>
      <trkpt lat="59.9680305" lon="17.7576367">
        <ele>29.9381</ele>
        <time>2013-05-24T19:38:10Z</time>
      </trkpt>
      <trkpt lat="59.9680874" lon="17.7575708">
        <ele>30.4188</ele>
        <time>2013-05-24T19:38:11Z</time>
      </trkpt>
      <trkpt lat="59.9681417" lon="17.7574972">
        <ele>30.8995</ele>
        <time>2013-05-24T19:38:12Z</time>
      </trkpt>
      <trkpt lat="59.9681936" lon="17.7574296">
        <ele>31.3801</ele>
        <time>2013-05-24T19:38:13Z</time>
      </trkpt>
      <trkpt lat="59.9682441" lon="17.7573609">
        <ele>31.3801</ele>
        <time>2013-05-24T19:38:14Z</time>
      </trkpt>
      <trkpt lat="59.9682928" lon="17.7572821">
        <ele>31.8607</ele>
        <time>2013-05-24T19:38:15Z</time>
      </trkpt>
      <trkpt lat="59.9683412" lon="17.7571998">
        <ele>31.8607</ele>
        <time>2013-05-24T19:38:16Z</time>
      </trkpt>
      <trkpt lat="59.9683878" lon="17.7571241">
        <ele>32.3416</ele>
        <time>2013-05-24T19:38:17Z</time>
      </trkpt>
      <trkpt lat="59.9684346" lon="17.7570588">
        <ele>32.3416</ele>
        <time>2013-05-24T19:38:18Z</time>
      </trkpt>
      <trkpt lat="59.9684806" lon="17.757005">
        <ele>32.3416</ele>
        <time>2013-05-24T19:38:19Z</time>
      </trkpt>
      <trkpt lat="59.9685298" lon="17.7569396">
        <ele>32.3416</ele>
        <time>2013-05-24T19:38:20Z</time>
      </trkpt>
      <trkpt lat="59.968576" lon="17.7568753">
        <ele>32.3416</ele>
        <time>2013-05-24T19:38:21Z</time>
      </trkpt>
      <trkpt lat="59.9686221" lon="17.7568048">
        <ele>31.8607</ele>
        <time>2013-05-24T19:38:22Z</time>
      </trkpt>
      <trkpt lat="59.9686625" lon="17.7567413">
        <ele>33.3029</ele>
        <time>2013-05-24T19:38:23Z</time>
      </trkpt>
      <trkpt lat="59.9687058" lon="17.7566631">
        <ele>33.7834</ele>
        <time>2013-05-24T19:38:24Z</time>
      </trkpt>
      <trkpt lat="59.9687508" lon="17.7565848">
        <ele>34.2642</ele>
        <time>2013-05-24T19:38:25Z</time>
      </trkpt>
      <trkpt lat="59.9687969" lon="17.7565019">
        <ele>34.2642</ele>
        <time>2013-05-24T19:38:26Z</time>
      </trkpt>
      <trkpt lat="59.9688416" lon="17.7564231">
        <ele>34.7449</ele>
        <time>2013-05-24T19:38:27Z</time>
      </trkpt>
      <trkpt lat="59.9688865" lon="17.7563274">
        <ele>35.2255</ele>
        <time>2013-05-24T19:38:28Z</time>
      </trkpt>
      <trkpt lat="59.9689311" lon="17.7562333">
        <ele>35.7061</ele>
        <time>2013-05-24T19:38:29Z</time>
      </trkpt>
      <trkpt lat="59.9689759" lon="17.7561289">
        <ele>36.1868</ele>
        <time>2013-05-24T19:38:30Z</time>
      </trkpt>
      <trkpt lat="59.9690215" lon="17.7560258">
        <ele>35.7061</ele>
        <time>2013-05-24T19:38:31Z</time>
      </trkpt>
      <trkpt lat="59.9690681" lon="17.755923">
        <ele>35.2255</ele>
        <time>2013-05-24T19:38:32Z</time>
      </trkpt>
      <trkpt lat="59.969113" lon="17.7558391">
        <ele>34.2642</ele>
        <time>2013-05-24T19:38:33Z</time>
      </trkpt>
      <trkpt lat="59.969157" lon="17.7557456">
        <ele>33.7834</ele>
        <time>2013-05-24T19:38:34Z</time>
      </trkpt>
      <trkpt lat="59.9692012" lon="17.7556483">
        <ele>33.7834</ele>
        <time>2013-05-24T19:38:35Z</time>
      </trkpt>
      <trkpt lat="59.9692487" lon="17.7555369">
        <ele>33.3029</ele>
        <time>2013-05-24T19:38:36Z</time>
      </trkpt>
      <trkpt lat="59.9692954" lon="17.7554347">
        <ele>32.8223</ele>
        <time>2013-05-24T19:38:37Z</time>
      </trkpt>
      <trkpt lat="59.96934" lon="17.7553218">
        <ele>32.8223</ele>
        <time>2013-05-24T19:38:38Z</time>
      </trkpt>
      <trkpt lat="59.9693866" lon="17.755211">
        <ele>32.8223</ele>
        <time>2013-05-24T19:38:39Z</time>
      </trkpt>
      <trkpt lat="59.9694368" lon="17.7551009">
        <ele>31.8607</ele>
        <time>2013-05-24T19:38:40Z</time>
      </trkpt>
      <trkpt lat="59.9694856" lon="17.7549955">
        <ele>31.3801</ele>
        <time>2013-05-24T19:38:41Z</time>
      </trkpt>
      <trkpt lat="59.9695337" lon="17.7548885">
        <ele>30.8995</ele>
        <time>2013-05-24T19:38:42Z</time>
      </trkpt>
      <trkpt lat="59.9695832" lon="17.7547888">
        <ele>30.4188</ele>
        <time>2013-05-24T19:38:43Z</time>
      </trkpt>
      <trkpt lat="59.9696312" lon="17.7546952">
        <ele>30.4188</ele>
        <time>2013-05-24T19:38:44Z</time>
      </trkpt>
      <trkpt lat="59.9696823" lon="17.7545965">
        <ele>30.8995</ele>
        <time>2013-05-24T19:38:45Z</time>
      </trkpt>
      <trkpt lat="59.9697331" lon="17.7544899">
        <ele>30.8995</ele>
        <time>2013-05-24T19:38:46Z</time>
      </trkpt>
      <trkpt lat="59.9697835" lon="17.754386">
        <ele>30.8995</ele>
        <time>2013-05-24T19:38:47Z</time>
      </trkpt>
      <trkpt lat="59.9698292" lon="17.7542823">
        <ele>30.4188</ele>
        <time>2013-05-24T19:38:48Z</time>
      </trkpt>
      <trkpt lat="59.9698761" lon="17.7541895">
        <ele>30.4188</ele>
        <time>2013-05-24T19:38:49Z</time>
      </trkpt>
      <trkpt lat="59.9699248" lon="17.7540848">
        <ele>30.4188</ele>
        <time>2013-05-24T19:38:50Z</time>
      </trkpt>
      <trkpt lat="59.9699762" lon="17.7539839">
        <ele>30.4188</ele>
        <time>2013-05-24T19:38:51Z</time>
      </trkpt>
      <trkpt lat="59.9700276" lon="17.7538658">
        <ele>29.9381</ele>
        <time>2013-05-24T19:38:52Z</time>
      </trkpt>
      <trkpt lat="59.9700775" lon="17.7537477">
        <ele>29.4575</ele>
        <time>2013-05-24T19:38:53Z</time>
      </trkpt>
      <trkpt lat="59.9701237" lon="17.7536388">
        <ele>28.9769</ele>
        <time>2013-05-24T19:38:54Z</time>
      </trkpt>
      <trkpt lat="59.9701677" lon="17.7535292">
        <ele>28.4962</ele>
        <time>2013-05-24T19:38:55Z</time>
      </trkpt>
      <trkpt lat="59.9702112" lon="17.7534125">
        <ele>28.9769</ele>
        <time>2013-05-24T19:38:56Z</time>
      </trkpt>
      <trkpt lat="59.9702494" lon="17.7533034">
        <ele>28.4962</ele>
        <time>2013-05-24T19:38:57Z</time>
      </trkpt>
      <trkpt lat="59.9702836" lon="17.7531861">
        <ele>28.4962</ele>
        <time>2013-05-24T19:38:58Z</time>
      </trkpt>
      <trkpt lat="59.9703184" lon="17.7530629">
        <ele>28.4962</ele>
        <time>2013-05-24T19:38:59Z</time>
      </trkpt>
      <trkpt lat="59.9703574" lon="17.7529369">
        <ele>28.9769</ele>
        <time>2013-05-24T19:39:00Z</time>
      </trkpt>
      <trkpt lat="59.9704034" lon="17.7528139">
        <ele>28.9769</ele>
        <time>2013-05-24T19:39:01Z</time>
      </trkpt>
      <trkpt lat="59.9704514" lon="17.7527024">
        <ele>28.4962</ele>
        <time>2013-05-24T19:39:02Z</time>
      </trkpt>
      <trkpt lat="59.9705009" lon="17.752588">
        <ele>28.4962</ele>
        <time>2013-05-24T19:39:03Z</time>
      </trkpt>
      <trkpt lat="59.9705469" lon="17.7524873">
        <ele>28.4962</ele>
        <time>2013-05-24T19:39:04Z</time>
      </trkpt>
      <trkpt lat="59.9705919" lon="17.752385">
        <ele>28.9769</ele>
        <time>2013-05-24T19:39:05Z</time>
      </trkpt>
      <trkpt lat="59.9706506" lon="17.7522555">
        <ele>27.5349</ele>
        <time>2013-05-24T19:39:06Z</time>
      </trkpt>
      <trkpt lat="59.9707031" lon="17.7521533">
        <ele>27.5349</ele>
        <time>2013-05-24T19:39:07Z</time>
      </trkpt>
      <trkpt lat="59.9707583" lon="17.7520569">
        <ele>27.5349</ele>
        <time>2013-05-24T19:39:08Z</time>
      </trkpt>
      <trkpt lat="59.9708112" lon="17.7519626">
        <ele>28.0155</ele>
        <time>2013-05-24T19:39:09Z</time>
      </trkpt>
      <trkpt lat="59.9708673" lon="17.7518698">
        <ele>28.0155</ele>
        <time>2013-05-24T19:39:10Z</time>
      </trkpt>
      <trkpt lat="59.9709221" lon="17.7517866">
        <ele>28.4962</ele>
        <time>2013-05-24T19:39:11Z</time>
      </trkpt>
      <trkpt lat="59.9709837" lon="17.7517047">
        <ele>28.9769</ele>
        <time>2013-05-24T19:39:12Z</time>
      </trkpt>
      <trkpt lat="59.9710404" lon="17.7516399">
        <ele>29.4575</ele>
        <time>2013-05-24T19:39:13Z</time>
      </trkpt>
      <trkpt lat="59.97111" lon="17.7515488">
        <ele>29.4575</ele>
        <time>2013-05-24T19:39:14Z</time>
      </trkpt>
      <trkpt lat="59.9711658" lon="17.7514979">
        <ele>30.4188</ele>
        <time>2013-05-24T19:39:15Z</time>
      </trkpt>
      <trkpt lat="59.9712181" lon="17.7514388">
        <ele>31.8607</ele>
        <time>2013-05-24T19:39:16Z</time>
      </trkpt>
      <trkpt lat="59.9712823" lon="17.7513701">
        <ele>31.8607</ele>
        <time>2013-05-24T19:39:17Z</time>
      </trkpt>
      <trkpt lat="59.9713572" lon="17.7512882">
        <ele>31.3801</ele>
        <time>2013-05-24T19:39:18Z</time>
      </trkpt>
      <trkpt lat="59.9714203" lon="17.7512073">
        <ele>31.8607</ele>
        <time>2013-05-24T19:39:19Z</time>
      </trkpt>
      <trkpt lat="59.9714815" lon="17.7511333">
        <ele>32.8223</ele>
        <time>2013-05-24T19:39:20Z</time>
      </trkpt>
      <trkpt lat="59.9715485" lon="17.751065">
        <ele>33.3029</ele>
        <time>2013-05-24T19:39:21Z</time>
      </trkpt>
      <trkpt lat="59.9716062" lon="17.7510207">
        <ele>33.7834</ele>
        <time>2013-05-24T19:39:22Z</time>
      </trkpt>
      <trkpt lat="59.9716653" lon="17.7509474">
        <ele>33.7834</ele>
        <time>2013-05-24T19:39:23Z</time>
      </trkpt>
      <trkpt lat="59.971727" lon="17.7508603">
        <ele>33.3029</ele>
        <time>2013-05-24T19:39:24Z</time>
      </trkpt>
      <trkpt lat="59.9717834" lon="17.7507599">
        <ele>33.3029</ele>
        <time>2013-05-24T19:39:25Z</time>
      </trkpt>
      <trkpt lat="59.9718316" lon="17.7506825">
        <ele>32.8223</ele>
        <time>2013-05-24T19:39:26Z</time>
      </trkpt>
      <trkpt lat="59.9718793" lon="17.7505929">
        <ele>32.8223</ele>
        <time>2013-05-24T19:39:27Z</time>
      </trkpt>
      <trkpt lat="59.9719238" lon="17.750496">
        <ele>33.3029</ele>
        <time>2013-05-24T19:39:28Z</time>
      </trkpt>
      <trkpt lat="59.9719559" lon="17.7503879">
        <ele>34.2642</ele>
        <time>2013-05-24T19:39:29Z</time>
      </trkpt>
      <trkpt lat="59.9719997" lon="17.7503117">
        <ele>33.3029</ele>
        <time>2013-05-24T19:39:30Z</time>
      </trkpt>
      <trkpt lat="59.972036" lon="17.7502339">
        <ele>33.7834</ele>
        <time>2013-05-24T19:39:31Z</time>
      </trkpt>
      <trkpt lat="59.9720699" lon="17.7501817">
        <ele>34.2642</ele>
        <time>2013-05-24T19:39:32Z</time>
      </trkpt>
      <trkpt lat="59.9720971" lon="17.7501232">
        <ele>34.2642</ele>
        <time>2013-05-24T19:39:33Z</time>
      </trkpt>
      <trkpt lat="59.9721222" lon="17.7500864">
        <ele>34.7449</ele>
        <time>2013-05-24T19:39:34Z</time>
      </trkpt>
      <trkpt lat="59.9721444" lon="17.750037">
        <ele>35.7061</ele>
        <time>2013-05-24T19:39:35Z</time>
      </trkpt>
      <trkpt lat="59.9721613" lon="17.749988">
        <ele>36.6675</ele>
        <time>2013-05-24T19:39:36Z</time>
      </trkpt>
      <trkpt lat="59.97218" lon="17.7499384">
        <ele>37.1481</ele>
        <time>2013-05-24T19:39:37Z</time>
      </trkpt>
      <trkpt lat="59.9721927" lon="17.7499047">
        <ele>37.1481</ele>
        <time>2013-05-24T19:39:38Z</time>
      </trkpt>
      <trkpt lat="59.9721945" lon="17.7498949">
        <ele>37.1481</ele>
        <time>2013-05-24T19:39:39Z</time>
      </trkpt>
      <trkpt lat="59.9721987" lon="17.7498834">
        <ele>36.6675</ele>
        <time>2013-05-24T19:39:40Z</time>
      </trkpt>
      <trkpt lat="59.9721989" lon="17.7498792">
        <ele>36.1868</ele>
        <time>2013-05-24T19:39:41Z</time>
      </trkpt>
      <trkpt lat="59.9722009" lon="17.7498721">
        <ele>36.1868</ele>
        <time>2013-05-24T19:39:42Z</time>
      </trkpt>
      <trkpt lat="59.9721936" lon="17.749873">
        <ele>37.1481</ele>
        <time>2013-05-24T19:39:43Z</time>
      </trkpt>
      <trkpt lat="59.9721872" lon="17.7498813">
        <ele>38.1094</ele>
        <time>2013-05-24T19:39:44Z</time>
      </trkpt>
      <trkpt lat="59.9721813" lon="17.7498901">
        <ele>39.0707</ele>
        <time>2013-05-24T19:39:45Z</time>
      </trkpt>
      <trkpt lat="59.9721722" lon="17.749891">
        <ele>40.9934</ele>
        <time>2013-05-24T19:39:46Z</time>
      </trkpt>
      <trkpt lat="59.9721651" lon="17.7498834">
        <ele>41.474</ele>
        <time>2013-05-24T19:39:47Z</time>
      </trkpt>
      <trkpt lat="59.9721632" lon="17.7498684">
        <ele>41.474</ele>
        <time>2013-05-24T19:39:48Z</time>
      </trkpt>
      <trkpt lat="59.9721577" lon="17.7498619">
        <ele>40.9934</ele>
        <time>2013-05-24T19:39:49Z</time>
      </trkpt>
      <trkpt lat="59.9721563" lon="17.7498528">
        <ele>40.5128</ele>
        <time>2013-05-24T19:39:50Z</time>
      </trkpt>
      <trkpt lat="59.9721553" lon="17.7498454">
        <ele>40.5128</ele>
        <time>2013-05-24T19:39:51Z</time>
      </trkpt>
      <trkpt lat="59.97216" lon="17.7498326">
        <ele>39.5513</ele>
        <time>2013-05-24T19:39:52Z</time>
      </trkpt>
      <trkpt lat="59.9721604" lon="17.7498103">
        <ele>39.0707</ele>
        <time>2013-05-24T19:39:53Z</time>
      </trkpt>
      <trkpt lat="59.9721565" lon="17.749799">
        <ele>39.0707</ele>
        <time>2013-05-24T19:39:54Z</time>
      </trkpt>
      <trkpt lat="59.9721496" lon="17.7498083">
        <ele>39.0707</ele>
        <time>2013-05-24T19:39:55Z</time>
      </trkpt>
      <trkpt lat="59.972145" lon="17.7498459">
        <ele>38.5901</ele>
        <time>2013-05-24T19:39:56Z</time>
      </trkpt>
      <trkpt lat="59.9721349" lon="17.7499006">
        <ele>38.1094</ele>
        <time>2013-05-24T19:39:57Z</time>
      </trkpt>
      <trkpt lat="59.9721217" lon="17.749959">
        <ele>38.1094</ele>
        <time>2013-05-24T19:39:58Z</time>
      </trkpt>
      <trkpt lat="59.9720985" lon="17.7500019">
        <ele>37.6287</ele>
        <time>2013-05-24T19:39:59Z</time>
      </trkpt>
      <trkpt lat="59.9720683" lon="17.7500557">
        <ele>37.6287</ele>
        <time>2013-05-24T19:40:00Z</time>
      </trkpt>
      <trkpt lat="59.9720306" lon="17.7501294">
        <ele>37.6287</ele>
        <time>2013-05-24T19:40:01Z</time>
      </trkpt>
      <trkpt lat="59.971988" lon="17.7502061">
        <ele>37.6287</ele>
        <time>2013-05-24T19:40:02Z</time>
      </trkpt>
      <trkpt lat="59.9719425" lon="17.7502803">
        <ele>36.6675</ele>
        <time>2013-05-24T19:40:03Z</time>
      </trkpt>
      <trkpt lat="59.9718931" lon="17.7503915">
        <ele>36.1868</ele>
        <time>2013-05-24T19:40:04Z</time>
      </trkpt>
      <trkpt lat="59.9718398" lon="17.7505103">
        <ele>35.2255</ele>
        <time>2013-05-24T19:40:05Z</time>
      </trkpt>
      <trkpt lat="59.9717828" lon="17.7506276">
        <ele>34.2642</ele>
        <time>2013-05-24T19:40:06Z</time>
      </trkpt>
      <trkpt lat="59.9717167" lon="17.7507048">
        <ele>32.8223</ele>
        <time>2013-05-24T19:40:07Z</time>
      </trkpt>
      <trkpt lat="59.971655" lon="17.7507894">
        <ele>31.8607</ele>
        <time>2013-05-24T19:40:08Z</time>
      </trkpt>
      <trkpt lat="59.9715895" lon="17.7508788">
        <ele>31.8607</ele>
        <time>2013-05-24T19:40:09Z</time>
      </trkpt>
      <trkpt lat="59.9715202" lon="17.7509681">
        <ele>31.3801</ele>
        <time>2013-05-24T19:40:10Z</time>
      </trkpt>
      <trkpt lat="59.9714467" lon="17.7510635">
        <ele>30.8995</ele>
        <time>2013-05-24T19:40:11Z</time>
      </trkpt>
      <trkpt lat="59.9713732" lon="17.7511675">
        <ele>30.4188</ele>
        <time>2013-05-24T19:40:12Z</time>
      </trkpt>
      <trkpt lat="59.9713053" lon="17.7512592">
        <ele>29.4575</ele>
        <time>2013-05-24T19:40:13Z</time>
      </trkpt>
      <trkpt lat="59.9712368" lon="17.7513608">
        <ele>28.9769</ele>
        <time>2013-05-24T19:40:14Z</time>
      </trkpt>
      <trkpt lat="59.9711657" lon="17.751453">
        <ele>28.4962</ele>
        <time>2013-05-24T19:40:15Z</time>
      </trkpt>
      <trkpt lat="59.9710882" lon="17.75154">
        <ele>28.4962</ele>
        <time>2013-05-24T19:40:16Z</time>
      </trkpt>
      <trkpt lat="59.9710121" lon="17.7516109">
        <ele>28.9769</ele>
        <time>2013-05-24T19:40:17Z</time>
      </trkpt>
      <trkpt lat="59.9709393" lon="17.7517024">
        <ele>28.4962</ele>
        <time>2013-05-24T19:40:18Z</time>
      </trkpt>
      <trkpt lat="59.9708783" lon="17.7517788">
        <ele>28.9769</ele>
        <time>2013-05-24T19:40:19Z</time>
      </trkpt>
      <trkpt lat="59.9708121" lon="17.7518575">
        <ele>29.4575</ele>
        <time>2013-05-24T19:40:20Z</time>
      </trkpt>
      <trkpt lat="59.9707492" lon="17.7519492">
        <ele>29.4575</ele>
        <time>2013-05-24T19:40:21Z</time>
      </trkpt>
    </trkseg>
  </trk>
</gpx>